<?xml version="1.0" encoding="UTF-8" standalone="no" ?>
<gpx xmlns="http://www.topografix.com/GPX/1/1" xmlns:xsi="http://www.w3.org/2001/XMLSchema-instance" xsi:schemaLocation="http://www.topografix.com/GPX/1/1 http://www.topografix.com/GPX/1/1/gpx.xsd" version="1.1" creator="VisuGPX - https://www.visugpx.com">
  <metadata>
    <name>Beuil Boucles PATOU</name>
    <desc><![CDATA[Fortement inspiré des Boucles Rocky, avec un enchainement different.
Passé juste avec 625w/h]]></desc>
  </metadata>
  <trk>
    <name><![CDATA[Beuil Cyclisme]]></name>
    <extensions>
      <line xmlns="http://www.topografix.com/GPX/gpx_style/0/2">
        <color>0000FF</color>
        <width>4</width>
      </line>
    </extensions>
    <trkseg>
      <trkpt lat="44.09619" lon="6.98595">
        <ele>1453.5999755859</ele>
        <time>2022-07-23T07:14:11.000Z</time>
      </trkpt>
      <trkpt lat="44.09621" lon="6.98593">
        <ele>1453.5999755859</ele>
        <time>2022-07-23T07:14:13.000Z</time>
      </trkpt>
      <trkpt lat="44.09623" lon="6.98592">
        <ele>1453.5999755859</ele>
        <time>2022-07-23T07:14:15.000Z</time>
      </trkpt>
      <trkpt lat="44.09623" lon="6.98591">
        <ele>1453.4000244141</ele>
        <time>2022-07-23T07:14:16.000Z</time>
      </trkpt>
      <trkpt lat="44.09624" lon="6.98589">
        <ele>1453.1999511719</ele>
        <time>2022-07-23T07:14:19.000Z</time>
      </trkpt>
      <trkpt lat="44.09625" lon="6.98587">
        <ele>1453.4000244141</ele>
        <time>2022-07-23T07:14:29.000Z</time>
      </trkpt>
      <trkpt lat="44.09623" lon="6.98581">
        <ele>1453.1999511719</ele>
        <time>2022-07-23T07:14:34.000Z</time>
      </trkpt>
      <trkpt lat="44.09623" lon="6.9858">
        <ele>1453.1999511719</ele>
        <time>2022-07-23T07:14:35.000Z</time>
      </trkpt>
      <trkpt lat="44.09619" lon="6.98582">
        <ele>1452.8000488281</ele>
        <time>2022-07-23T07:14:38.000Z</time>
      </trkpt>
      <trkpt lat="44.09621" lon="6.98584">
        <ele>1452.5999755859</ele>
        <time>2022-07-23T07:14:40.000Z</time>
      </trkpt>
      <trkpt lat="44.09622" lon="6.98583">
        <ele>1452.5999755859</ele>
        <time>2022-07-23T07:14:41.000Z</time>
      </trkpt>
      <trkpt lat="44.09621" lon="6.98568">
        <ele>1452.5999755859</ele>
        <time>2022-07-23T07:14:45.000Z</time>
      </trkpt>
      <trkpt lat="44.09619" lon="6.98551">
        <ele>1451.8000488281</ele>
        <time>2022-07-23T07:14:49.000Z</time>
      </trkpt>
      <trkpt lat="44.09619" lon="6.98551">
        <ele>1451.5999755859</ele>
        <time>2022-07-23T07:14:51.000Z</time>
      </trkpt>
      <trkpt lat="44.09619" lon="6.98551">
        <ele>1451.4000244141</ele>
        <time>2022-07-23T07:14:56.000Z</time>
      </trkpt>
      <trkpt lat="44.09621" lon="6.98548">
        <ele>1451.8000488281</ele>
        <time>2022-07-23T07:15:07.000Z</time>
      </trkpt>
      <trkpt lat="44.09622" lon="6.98553">
        <ele>1451.5999755859</ele>
        <time>2022-07-23T07:15:13.000Z</time>
      </trkpt>
      <trkpt lat="44.09622" lon="6.98552">
        <ele>1451.4000244141</ele>
        <time>2022-07-23T07:15:17.000Z</time>
      </trkpt>
      <trkpt lat="44.09622" lon="6.98552">
        <ele>1451.1999511719</ele>
        <time>2022-07-23T07:15:24.000Z</time>
      </trkpt>
      <trkpt lat="44.09623" lon="6.98552">
        <ele>1451</ele>
        <time>2022-07-23T07:15:32.000Z</time>
      </trkpt>
      <trkpt lat="44.09623" lon="6.98552">
        <ele>1451.4000244141</ele>
        <time>2022-07-23T07:15:41.000Z</time>
      </trkpt>
      <trkpt lat="44.09622" lon="6.98552">
        <ele>1451.4000244141</ele>
        <time>2022-07-23T07:15:48.000Z</time>
      </trkpt>
      <trkpt lat="44.09624" lon="6.98548">
        <ele>1451.4000244141</ele>
        <time>2022-07-23T07:15:51.000Z</time>
      </trkpt>
      <trkpt lat="44.09623" lon="6.98548">
        <ele>1451.5999755859</ele>
        <time>2022-07-23T07:15:52.000Z</time>
      </trkpt>
      <trkpt lat="44.09623" lon="6.98547">
        <ele>1451.5999755859</ele>
        <time>2022-07-23T07:15:53.000Z</time>
      </trkpt>
      <trkpt lat="44.0962" lon="6.98538">
        <ele>1451.8000488281</ele>
        <time>2022-07-23T07:15:56.000Z</time>
      </trkpt>
      <trkpt lat="44.09617" lon="6.98527">
        <ele>1451.5999755859</ele>
        <time>2022-07-23T07:15:58.000Z</time>
      </trkpt>
      <trkpt lat="44.09614" lon="6.98513">
        <ele>1451</ele>
        <time>2022-07-23T07:16:00.000Z</time>
      </trkpt>
      <trkpt lat="44.09612" lon="6.98496">
        <ele>1450.4000244141</ele>
        <time>2022-07-23T07:16:02.000Z</time>
      </trkpt>
      <trkpt lat="44.0961" lon="6.98466">
        <ele>1449.1999511719</ele>
        <time>2022-07-23T07:16:05.000Z</time>
      </trkpt>
      <trkpt lat="44.09608" lon="6.98435">
        <ele>1447.8000488281</ele>
        <time>2022-07-23T07:16:08.000Z</time>
      </trkpt>
      <trkpt lat="44.09607" lon="6.98405">
        <ele>1446.5999755859</ele>
        <time>2022-07-23T07:16:11.000Z</time>
      </trkpt>
      <trkpt lat="44.09601" lon="6.98349">
        <ele>1446.4000244141</ele>
        <time>2022-07-23T07:16:17.000Z</time>
      </trkpt>
      <trkpt lat="44.09598" lon="6.9834">
        <ele>1446.4000244141</ele>
        <time>2022-07-23T07:16:18.000Z</time>
      </trkpt>
      <trkpt lat="44.09585" lon="6.98305">
        <ele>1447</ele>
        <time>2022-07-23T07:16:23.000Z</time>
      </trkpt>
      <trkpt lat="44.09574" lon="6.9828">
        <ele>1447.4000244141</ele>
        <time>2022-07-23T07:16:28.000Z</time>
      </trkpt>
      <trkpt lat="44.09572" lon="6.98271">
        <ele>1447.8000488281</ele>
        <time>2022-07-23T07:16:30.000Z</time>
      </trkpt>
      <trkpt lat="44.0957" lon="6.9825">
        <ele>1448.4000244141</ele>
        <time>2022-07-23T07:16:34.000Z</time>
      </trkpt>
      <trkpt lat="44.09568" lon="6.98222">
        <ele>1448.5999755859</ele>
        <time>2022-07-23T07:16:40.000Z</time>
      </trkpt>
      <trkpt lat="44.09568" lon="6.98218">
        <ele>1448.8000488281</ele>
        <time>2022-07-23T07:16:41.000Z</time>
      </trkpt>
      <trkpt lat="44.09563" lon="6.98193">
        <ele>1449.5999755859</ele>
        <time>2022-07-23T07:16:47.000Z</time>
      </trkpt>
      <trkpt lat="44.09561" lon="6.98186">
        <ele>1450</ele>
        <time>2022-07-23T07:16:49.000Z</time>
      </trkpt>
      <trkpt lat="44.09557" lon="6.98173">
        <ele>1451</ele>
        <time>2022-07-23T07:16:53.000Z</time>
      </trkpt>
      <trkpt lat="44.09556" lon="6.98169">
        <ele>1451.4000244141</ele>
        <time>2022-07-23T07:16:54.000Z</time>
      </trkpt>
      <trkpt lat="44.09555" lon="6.98156">
        <ele>1452.4000244141</ele>
        <time>2022-07-23T07:16:57.000Z</time>
      </trkpt>
      <trkpt lat="44.09554" lon="6.98139">
        <ele>1453.5999755859</ele>
        <time>2022-07-23T07:17:01.000Z</time>
      </trkpt>
      <trkpt lat="44.09558" lon="6.98122">
        <ele>1454.8000488281</ele>
        <time>2022-07-23T07:17:05.000Z</time>
      </trkpt>
      <trkpt lat="44.0956" lon="6.98107">
        <ele>1455.5999755859</ele>
        <time>2022-07-23T07:17:08.000Z</time>
      </trkpt>
      <trkpt lat="44.0956" lon="6.98102">
        <ele>1455.8000488281</ele>
        <time>2022-07-23T07:17:09.000Z</time>
      </trkpt>
      <trkpt lat="44.09561" lon="6.98079">
        <ele>1456.5999755859</ele>
        <time>2022-07-23T07:17:14.000Z</time>
      </trkpt>
      <trkpt lat="44.09561" lon="6.98076">
        <ele>1457</ele>
        <time>2022-07-23T07:17:15.000Z</time>
      </trkpt>
      <trkpt lat="44.09559" lon="6.98056">
        <ele>1458.1999511719</ele>
        <time>2022-07-23T07:17:19.000Z</time>
      </trkpt>
      <trkpt lat="44.09557" lon="6.98043">
        <ele>1458.4000244141</ele>
        <time>2022-07-23T07:17:22.000Z</time>
      </trkpt>
      <trkpt lat="44.09546" lon="6.9801">
        <ele>1458.4000244141</ele>
        <time>2022-07-23T07:17:29.000Z</time>
      </trkpt>
      <trkpt lat="44.09533" lon="6.97976">
        <ele>1457.8000488281</ele>
        <time>2022-07-23T07:17:36.000Z</time>
      </trkpt>
      <trkpt lat="44.09527" lon="6.97944">
        <ele>1459.1999511719</ele>
        <time>2022-07-23T07:17:43.000Z</time>
      </trkpt>
      <trkpt lat="44.09522" lon="6.97924">
        <ele>1460.4000244141</ele>
        <time>2022-07-23T07:17:48.000Z</time>
      </trkpt>
      <trkpt lat="44.09522" lon="6.9792">
        <ele>1460.4000244141</ele>
        <time>2022-07-23T07:17:49.000Z</time>
      </trkpt>
      <trkpt lat="44.09519" lon="6.97906">
        <ele>1461.4000244141</ele>
        <time>2022-07-23T07:17:53.000Z</time>
      </trkpt>
      <trkpt lat="44.09516" lon="6.97897">
        <ele>1461.8000488281</ele>
        <time>2022-07-23T07:17:56.000Z</time>
      </trkpt>
      <trkpt lat="44.09512" lon="6.97884">
        <ele>1462.5999755859</ele>
        <time>2022-07-23T07:18:00.000Z</time>
      </trkpt>
      <trkpt lat="44.09512" lon="6.9788">
        <ele>1463</ele>
        <time>2022-07-23T07:18:01.000Z</time>
      </trkpt>
      <trkpt lat="44.09509" lon="6.9787">
        <ele>1464</ele>
        <time>2022-07-23T07:18:04.000Z</time>
      </trkpt>
      <trkpt lat="44.09504" lon="6.97857">
        <ele>1465.1999511719</ele>
        <time>2022-07-23T07:18:08.000Z</time>
      </trkpt>
      <trkpt lat="44.09498" lon="6.97843">
        <ele>1466.1999511719</ele>
        <time>2022-07-23T07:18:13.000Z</time>
      </trkpt>
      <trkpt lat="44.09494" lon="6.97834">
        <ele>1466.5999755859</ele>
        <time>2022-07-23T07:18:16.000Z</time>
      </trkpt>
      <trkpt lat="44.09492" lon="6.97828">
        <ele>1467.1999511719</ele>
        <time>2022-07-23T07:18:18.000Z</time>
      </trkpt>
      <trkpt lat="44.09489" lon="6.97819">
        <ele>1468.1999511719</ele>
        <time>2022-07-23T07:18:21.000Z</time>
      </trkpt>
      <trkpt lat="44.09485" lon="6.97809">
        <ele>1469</ele>
        <time>2022-07-23T07:18:24.000Z</time>
      </trkpt>
      <trkpt lat="44.09483" lon="6.97803">
        <ele>1469.4000244141</ele>
        <time>2022-07-23T07:18:26.000Z</time>
      </trkpt>
      <trkpt lat="44.09474" lon="6.97783">
        <ele>1470</ele>
        <time>2022-07-23T07:18:32.000Z</time>
      </trkpt>
      <trkpt lat="44.09461" lon="6.97756">
        <ele>1470.1999511719</ele>
        <time>2022-07-23T07:18:39.000Z</time>
      </trkpt>
      <trkpt lat="44.09448" lon="6.97727">
        <ele>1470.1999511719</ele>
        <time>2022-07-23T07:18:46.000Z</time>
      </trkpt>
      <trkpt lat="44.09432" lon="6.97694">
        <ele>1470.5999755859</ele>
        <time>2022-07-23T07:18:54.000Z</time>
      </trkpt>
      <trkpt lat="44.09431" lon="6.9769">
        <ele>1470.8000488281</ele>
        <time>2022-07-23T07:18:55.000Z</time>
      </trkpt>
      <trkpt lat="44.09423" lon="6.9767">
        <ele>1471.5999755859</ele>
        <time>2022-07-23T07:19:00.000Z</time>
      </trkpt>
      <trkpt lat="44.09421" lon="6.97661">
        <ele>1472</ele>
        <time>2022-07-23T07:19:02.000Z</time>
      </trkpt>
      <trkpt lat="44.09419" lon="6.97654">
        <ele>1472.5999755859</ele>
        <time>2022-07-23T07:19:04.000Z</time>
      </trkpt>
      <trkpt lat="44.09416" lon="6.97646">
        <ele>1473.5999755859</ele>
        <time>2022-07-23T07:19:07.000Z</time>
      </trkpt>
      <trkpt lat="44.09415" lon="6.97643">
        <ele>1474</ele>
        <time>2022-07-23T07:19:08.000Z</time>
      </trkpt>
      <trkpt lat="44.09412" lon="6.97635">
        <ele>1474.8000488281</ele>
        <time>2022-07-23T07:19:11.000Z</time>
      </trkpt>
      <trkpt lat="44.09408" lon="6.97624">
        <ele>1476</ele>
        <time>2022-07-23T07:19:15.000Z</time>
      </trkpt>
      <trkpt lat="44.09403" lon="6.97612">
        <ele>1477.1999511719</ele>
        <time>2022-07-23T07:19:19.000Z</time>
      </trkpt>
      <trkpt lat="44.09398" lon="6.97603">
        <ele>1478.4000244141</ele>
        <time>2022-07-23T07:19:22.000Z</time>
      </trkpt>
      <trkpt lat="44.09397" lon="6.97601">
        <ele>1478.5999755859</ele>
        <time>2022-07-23T07:19:23.000Z</time>
      </trkpt>
      <trkpt lat="44.09394" lon="6.97593">
        <ele>1479.5999755859</ele>
        <time>2022-07-23T07:19:26.000Z</time>
      </trkpt>
      <trkpt lat="44.09391" lon="6.97583">
        <ele>1480.5999755859</ele>
        <time>2022-07-23T07:19:29.000Z</time>
      </trkpt>
      <trkpt lat="44.09389" lon="6.97573">
        <ele>1481.8000488281</ele>
        <time>2022-07-23T07:19:32.000Z</time>
      </trkpt>
      <trkpt lat="44.09387" lon="6.97568">
        <ele>1482.8000488281</ele>
        <time>2022-07-23T07:19:34.000Z</time>
      </trkpt>
      <trkpt lat="44.09385" lon="6.97561">
        <ele>1483.8000488281</ele>
        <time>2022-07-23T07:19:36.000Z</time>
      </trkpt>
      <trkpt lat="44.09385" lon="6.97558">
        <ele>1484.1999511719</ele>
        <time>2022-07-23T07:19:37.000Z</time>
      </trkpt>
      <trkpt lat="44.09383" lon="6.9755">
        <ele>1485.4000244141</ele>
        <time>2022-07-23T07:19:40.000Z</time>
      </trkpt>
      <trkpt lat="44.09381" lon="6.97544">
        <ele>1486.4000244141</ele>
        <time>2022-07-23T07:19:42.000Z</time>
      </trkpt>
      <trkpt lat="44.0938" lon="6.97537">
        <ele>1487.1999511719</ele>
        <time>2022-07-23T07:19:44.000Z</time>
      </trkpt>
      <trkpt lat="44.09379" lon="6.97534">
        <ele>1487.8000488281</ele>
        <time>2022-07-23T07:19:45.000Z</time>
      </trkpt>
      <trkpt lat="44.09377" lon="6.97529">
        <ele>1488.8000488281</ele>
        <time>2022-07-23T07:19:47.000Z</time>
      </trkpt>
      <trkpt lat="44.09374" lon="6.97524">
        <ele>1490</ele>
        <time>2022-07-23T07:19:49.000Z</time>
      </trkpt>
      <trkpt lat="44.09372" lon="6.97519">
        <ele>1491.1999511719</ele>
        <time>2022-07-23T07:19:51.000Z</time>
      </trkpt>
      <trkpt lat="44.09365" lon="6.97509">
        <ele>1492.4000244141</ele>
        <time>2022-07-23T07:19:56.000Z</time>
      </trkpt>
      <trkpt lat="44.09361" lon="6.97506">
        <ele>1492.5999755859</ele>
        <time>2022-07-23T07:19:58.000Z</time>
      </trkpt>
      <trkpt lat="44.09351" lon="6.975">
        <ele>1493.5999755859</ele>
        <time>2022-07-23T07:20:03.000Z</time>
      </trkpt>
      <trkpt lat="44.09347" lon="6.97498">
        <ele>1494.4000244141</ele>
        <time>2022-07-23T07:20:05.000Z</time>
      </trkpt>
      <trkpt lat="44.09345" lon="6.97497">
        <ele>1494.8000488281</ele>
        <time>2022-07-23T07:20:06.000Z</time>
      </trkpt>
      <trkpt lat="44.09339" lon="6.97496">
        <ele>1496.1999511719</ele>
        <time>2022-07-23T07:20:09.000Z</time>
      </trkpt>
      <trkpt lat="44.09333" lon="6.97494">
        <ele>1497</ele>
        <time>2022-07-23T07:20:12.000Z</time>
      </trkpt>
      <trkpt lat="44.09331" lon="6.97494">
        <ele>1497.4000244141</ele>
        <time>2022-07-23T07:20:13.000Z</time>
      </trkpt>
      <trkpt lat="44.09324" lon="6.97491">
        <ele>1498.4000244141</ele>
        <time>2022-07-23T07:20:17.000Z</time>
      </trkpt>
      <trkpt lat="44.09321" lon="6.97489">
        <ele>1499</ele>
        <time>2022-07-23T07:20:19.000Z</time>
      </trkpt>
      <trkpt lat="44.09318" lon="6.97487">
        <ele>1499.5999755859</ele>
        <time>2022-07-23T07:20:21.000Z</time>
      </trkpt>
      <trkpt lat="44.09313" lon="6.97483">
        <ele>1500.8000488281</ele>
        <time>2022-07-23T07:20:24.000Z</time>
      </trkpt>
      <trkpt lat="44.0931" lon="6.9748">
        <ele>1501.4000244141</ele>
        <time>2022-07-23T07:20:26.000Z</time>
      </trkpt>
      <trkpt lat="44.09305" lon="6.97476">
        <ele>1501.8000488281</ele>
        <time>2022-07-23T07:20:29.000Z</time>
      </trkpt>
      <trkpt lat="44.093" lon="6.97468">
        <ele>1502.8000488281</ele>
        <time>2022-07-23T07:20:33.000Z</time>
      </trkpt>
      <trkpt lat="44.09294" lon="6.97456">
        <ele>1503.8000488281</ele>
        <time>2022-07-23T07:20:39.000Z</time>
      </trkpt>
      <trkpt lat="44.09292" lon="6.97451">
        <ele>1504</ele>
        <time>2022-07-23T07:20:41.000Z</time>
      </trkpt>
      <trkpt lat="44.09282" lon="6.97431">
        <ele>1504.8000488281</ele>
        <time>2022-07-23T07:20:49.000Z</time>
      </trkpt>
      <trkpt lat="44.09272" lon="6.97413">
        <ele>1505</ele>
        <time>2022-07-23T07:20:56.000Z</time>
      </trkpt>
      <trkpt lat="44.09266" lon="6.974">
        <ele>1506</ele>
        <time>2022-07-23T07:21:01.000Z</time>
      </trkpt>
      <trkpt lat="44.09263" lon="6.97396">
        <ele>1506.5999755859</ele>
        <time>2022-07-23T07:21:03.000Z</time>
      </trkpt>
      <trkpt lat="44.09257" lon="6.97387">
        <ele>1507.1999511719</ele>
        <time>2022-07-23T07:21:07.000Z</time>
      </trkpt>
      <trkpt lat="44.09252" lon="6.97382">
        <ele>1507.8000488281</ele>
        <time>2022-07-23T07:21:10.000Z</time>
      </trkpt>
      <trkpt lat="44.09244" lon="6.97372">
        <ele>1508.4000244141</ele>
        <time>2022-07-23T07:21:14.000Z</time>
      </trkpt>
      <trkpt lat="44.09239" lon="6.97366">
        <ele>1509.8000488281</ele>
        <time>2022-07-23T07:21:17.000Z</time>
      </trkpt>
      <trkpt lat="44.09236" lon="6.97363">
        <ele>1510.8000488281</ele>
        <time>2022-07-23T07:21:19.000Z</time>
      </trkpt>
      <trkpt lat="44.09231" lon="6.97356">
        <ele>1512</ele>
        <time>2022-07-23T07:21:22.000Z</time>
      </trkpt>
      <trkpt lat="44.09229" lon="6.97351">
        <ele>1512.5999755859</ele>
        <time>2022-07-23T07:21:24.000Z</time>
      </trkpt>
      <trkpt lat="44.09227" lon="6.97347">
        <ele>1513</ele>
        <time>2022-07-23T07:21:26.000Z</time>
      </trkpt>
      <trkpt lat="44.09222" lon="6.97339">
        <ele>1514.1999511719</ele>
        <time>2022-07-23T07:21:30.000Z</time>
      </trkpt>
      <trkpt lat="44.09221" lon="6.97336">
        <ele>1514.4000244141</ele>
        <time>2022-07-23T07:21:31.000Z</time>
      </trkpt>
      <trkpt lat="44.09221" lon="6.97331">
        <ele>1515.4000244141</ele>
        <time>2022-07-23T07:21:33.000Z</time>
      </trkpt>
      <trkpt lat="44.0922" lon="6.97328">
        <ele>1515.5999755859</ele>
        <time>2022-07-23T07:21:34.000Z</time>
      </trkpt>
      <trkpt lat="44.09218" lon="6.97323">
        <ele>1516.5999755859</ele>
        <time>2022-07-23T07:21:36.000Z</time>
      </trkpt>
      <trkpt lat="44.09217" lon="6.97318">
        <ele>1517.5999755859</ele>
        <time>2022-07-23T07:21:38.000Z</time>
      </trkpt>
      <trkpt lat="44.09215" lon="6.97314">
        <ele>1518.4000244141</ele>
        <time>2022-07-23T07:21:40.000Z</time>
      </trkpt>
      <trkpt lat="44.09214" lon="6.97312">
        <ele>1518.8000488281</ele>
        <time>2022-07-23T07:21:41.000Z</time>
      </trkpt>
      <trkpt lat="44.09208" lon="6.97303">
        <ele>1520.4000244141</ele>
        <time>2022-07-23T07:21:45.000Z</time>
      </trkpt>
      <trkpt lat="44.09205" lon="6.973">
        <ele>1520.8000488281</ele>
        <time>2022-07-23T07:21:47.000Z</time>
      </trkpt>
      <trkpt lat="44.09202" lon="6.97297">
        <ele>1521.5999755859</ele>
        <time>2022-07-23T07:21:49.000Z</time>
      </trkpt>
      <trkpt lat="44.09197" lon="6.97293">
        <ele>1522.5999755859</ele>
        <time>2022-07-23T07:21:52.000Z</time>
      </trkpt>
      <trkpt lat="44.09192" lon="6.97289">
        <ele>1523.4000244141</ele>
        <time>2022-07-23T07:21:55.000Z</time>
      </trkpt>
      <trkpt lat="44.0919" lon="6.97288">
        <ele>1523.5999755859</ele>
        <time>2022-07-23T07:21:56.000Z</time>
      </trkpt>
      <trkpt lat="44.09184" lon="6.97283">
        <ele>1525</ele>
        <time>2022-07-23T07:22:00.000Z</time>
      </trkpt>
      <trkpt lat="44.0918" lon="6.97279">
        <ele>1525.5999755859</ele>
        <time>2022-07-23T07:22:02.000Z</time>
      </trkpt>
      <trkpt lat="44.09179" lon="6.97276">
        <ele>1526.1999511719</ele>
        <time>2022-07-23T07:22:03.000Z</time>
      </trkpt>
      <trkpt lat="44.09174" lon="6.9727">
        <ele>1527.1999511719</ele>
        <time>2022-07-23T07:22:07.000Z</time>
      </trkpt>
      <trkpt lat="44.0917" lon="6.97264">
        <ele>1528.4000244141</ele>
        <time>2022-07-23T07:22:10.000Z</time>
      </trkpt>
      <trkpt lat="44.09167" lon="6.97259">
        <ele>1529.8000488281</ele>
        <time>2022-07-23T07:22:13.000Z</time>
      </trkpt>
      <trkpt lat="44.09165" lon="6.97254">
        <ele>1530.8000488281</ele>
        <time>2022-07-23T07:22:16.000Z</time>
      </trkpt>
      <trkpt lat="44.09162" lon="6.97249">
        <ele>1532</ele>
        <time>2022-07-23T07:22:19.000Z</time>
      </trkpt>
      <trkpt lat="44.09158" lon="6.97239">
        <ele>1533</ele>
        <time>2022-07-23T07:22:24.000Z</time>
      </trkpt>
      <trkpt lat="44.09158" lon="6.97232">
        <ele>1534.4000244141</ele>
        <time>2022-07-23T07:22:27.000Z</time>
      </trkpt>
      <trkpt lat="44.09157" lon="6.97231">
        <ele>1535</ele>
        <time>2022-07-23T07:22:28.000Z</time>
      </trkpt>
      <trkpt lat="44.09156" lon="6.97229">
        <ele>1535.5999755859</ele>
        <time>2022-07-23T07:22:29.000Z</time>
      </trkpt>
      <trkpt lat="44.09153" lon="6.97225">
        <ele>1537</ele>
        <time>2022-07-23T07:22:32.000Z</time>
      </trkpt>
      <trkpt lat="44.0915" lon="6.9722">
        <ele>1538.4000244141</ele>
        <time>2022-07-23T07:22:35.000Z</time>
      </trkpt>
      <trkpt lat="44.09147" lon="6.97215">
        <ele>1539.4000244141</ele>
        <time>2022-07-23T07:22:38.000Z</time>
      </trkpt>
      <trkpt lat="44.09143" lon="6.97209">
        <ele>1540.1999511719</ele>
        <time>2022-07-23T07:22:41.000Z</time>
      </trkpt>
      <trkpt lat="44.09141" lon="6.97205">
        <ele>1540.5999755859</ele>
        <time>2022-07-23T07:22:43.000Z</time>
      </trkpt>
      <trkpt lat="44.09139" lon="6.97199">
        <ele>1541.8000488281</ele>
        <time>2022-07-23T07:22:46.000Z</time>
      </trkpt>
      <trkpt lat="44.09136" lon="6.97192">
        <ele>1543.4000244141</ele>
        <time>2022-07-23T07:22:49.000Z</time>
      </trkpt>
      <trkpt lat="44.09131" lon="6.97185">
        <ele>1544.8000488281</ele>
        <time>2022-07-23T07:22:52.000Z</time>
      </trkpt>
      <trkpt lat="44.09128" lon="6.97181">
        <ele>1545.5999755859</ele>
        <time>2022-07-23T07:22:54.000Z</time>
      </trkpt>
      <trkpt lat="44.09127" lon="6.97179">
        <ele>1546.1999511719</ele>
        <time>2022-07-23T07:22:55.000Z</time>
      </trkpt>
      <trkpt lat="44.09123" lon="6.97173">
        <ele>1547.4000244141</ele>
        <time>2022-07-23T07:22:58.000Z</time>
      </trkpt>
      <trkpt lat="44.09122" lon="6.97169">
        <ele>1548</ele>
        <time>2022-07-23T07:23:00.000Z</time>
      </trkpt>
      <trkpt lat="44.09121" lon="6.97167">
        <ele>1548.8000488281</ele>
        <time>2022-07-23T07:23:01.000Z</time>
      </trkpt>
      <trkpt lat="44.09119" lon="6.97162">
        <ele>1549.8000488281</ele>
        <time>2022-07-23T07:23:03.000Z</time>
      </trkpt>
      <trkpt lat="44.0912" lon="6.97158">
        <ele>1550.5999755859</ele>
        <time>2022-07-23T07:23:05.000Z</time>
      </trkpt>
      <trkpt lat="44.09121" lon="6.97157">
        <ele>1551.1999511719</ele>
        <time>2022-07-23T07:23:06.000Z</time>
      </trkpt>
      <trkpt lat="44.09125" lon="6.97161">
        <ele>1552.1999511719</ele>
        <time>2022-07-23T07:23:09.000Z</time>
      </trkpt>
      <trkpt lat="44.09126" lon="6.97163">
        <ele>1552.1999511719</ele>
        <time>2022-07-23T07:23:10.000Z</time>
      </trkpt>
      <trkpt lat="44.09129" lon="6.97168">
        <ele>1551.5999755859</ele>
        <time>2022-07-23T07:23:15.000Z</time>
      </trkpt>
      <trkpt lat="44.09129" lon="6.97168">
        <ele>1551.5999755859</ele>
        <time>2022-07-23T07:23:32.000Z</time>
      </trkpt>
      <trkpt lat="44.0913" lon="6.97168">
        <ele>1551.8000488281</ele>
        <time>2022-07-23T07:23:52.000Z</time>
      </trkpt>
      <trkpt lat="44.09132" lon="6.97168">
        <ele>1551.8000488281</ele>
        <time>2022-07-23T07:23:53.000Z</time>
      </trkpt>
      <trkpt lat="44.0914" lon="6.97175">
        <ele>1551.4000244141</ele>
        <time>2022-07-23T07:23:57.000Z</time>
      </trkpt>
      <trkpt lat="44.09142" lon="6.97179">
        <ele>1551.4000244141</ele>
        <time>2022-07-23T07:23:58.000Z</time>
      </trkpt>
      <trkpt lat="44.09145" lon="6.97182">
        <ele>1551</ele>
        <time>2022-07-23T07:23:59.000Z</time>
      </trkpt>
      <trkpt lat="44.09158" lon="6.97199">
        <ele>1550.1999511719</ele>
        <time>2022-07-23T07:24:03.000Z</time>
      </trkpt>
      <trkpt lat="44.09162" lon="6.97204">
        <ele>1549.8000488281</ele>
        <time>2022-07-23T07:24:04.000Z</time>
      </trkpt>
      <trkpt lat="44.09178" lon="6.97224">
        <ele>1548.5999755859</ele>
        <time>2022-07-23T07:24:08.000Z</time>
      </trkpt>
      <trkpt lat="44.09186" lon="6.97235">
        <ele>1548.1999511719</ele>
        <time>2022-07-23T07:24:10.000Z</time>
      </trkpt>
      <trkpt lat="44.09192" lon="6.9724">
        <ele>1548</ele>
        <time>2022-07-23T07:24:11.000Z</time>
      </trkpt>
      <trkpt lat="44.09205" lon="6.9725">
        <ele>1547.1999511719</ele>
        <time>2022-07-23T07:24:13.000Z</time>
      </trkpt>
      <trkpt lat="44.09216" lon="6.97257">
        <ele>1546.8000488281</ele>
        <time>2022-07-23T07:24:14.000Z</time>
      </trkpt>
      <trkpt lat="44.09221" lon="6.97259">
        <ele>1546.1999511719</ele>
        <time>2022-07-23T07:24:15.000Z</time>
      </trkpt>
      <trkpt lat="44.09237" lon="6.97267">
        <ele>1544.4000244141</ele>
        <time>2022-07-23T07:24:17.000Z</time>
      </trkpt>
      <trkpt lat="44.09242" lon="6.97268">
        <ele>1543.8000488281</ele>
        <time>2022-07-23T07:24:18.000Z</time>
      </trkpt>
      <trkpt lat="44.09246" lon="6.97269">
        <ele>1543.1999511719</ele>
        <time>2022-07-23T07:24:19.000Z</time>
      </trkpt>
      <trkpt lat="44.09256" lon="6.97271">
        <ele>1542</ele>
        <time>2022-07-23T07:24:22.000Z</time>
      </trkpt>
      <trkpt lat="44.09264" lon="6.97271">
        <ele>1541.4000244141</ele>
        <time>2022-07-23T07:24:26.000Z</time>
      </trkpt>
      <trkpt lat="44.09265" lon="6.9727">
        <ele>1542.4000244141</ele>
        <time>2022-07-23T07:24:30.000Z</time>
      </trkpt>
      <trkpt lat="44.09269" lon="6.9727">
        <ele>1543.1999511719</ele>
        <time>2022-07-23T07:24:34.000Z</time>
      </trkpt>
      <trkpt lat="44.09271" lon="6.97271">
        <ele>1543.8000488281</ele>
        <time>2022-07-23T07:24:37.000Z</time>
      </trkpt>
      <trkpt lat="44.09272" lon="6.97271">
        <ele>1544.4000244141</ele>
        <time>2022-07-23T07:24:39.000Z</time>
      </trkpt>
      <trkpt lat="44.09279" lon="6.97273">
        <ele>1545</ele>
        <time>2022-07-23T07:24:43.000Z</time>
      </trkpt>
      <trkpt lat="44.09287" lon="6.97278">
        <ele>1545.5999755859</ele>
        <time>2022-07-23T07:24:47.000Z</time>
      </trkpt>
      <trkpt lat="44.09289" lon="6.97279">
        <ele>1545.5999755859</ele>
        <time>2022-07-23T07:24:48.000Z</time>
      </trkpt>
      <trkpt lat="44.09301" lon="6.97286">
        <ele>1546</ele>
        <time>2022-07-23T07:24:53.000Z</time>
      </trkpt>
      <trkpt lat="44.09306" lon="6.97289">
        <ele>1546.5999755859</ele>
        <time>2022-07-23T07:24:56.000Z</time>
      </trkpt>
      <trkpt lat="44.09312" lon="6.97293">
        <ele>1547.5999755859</ele>
        <time>2022-07-23T07:24:59.000Z</time>
      </trkpt>
      <trkpt lat="44.09314" lon="6.97293">
        <ele>1547.8000488281</ele>
        <time>2022-07-23T07:25:00.000Z</time>
      </trkpt>
      <trkpt lat="44.09319" lon="6.97293">
        <ele>1548.8000488281</ele>
        <time>2022-07-23T07:25:02.000Z</time>
      </trkpt>
      <trkpt lat="44.09321" lon="6.97294">
        <ele>1549.1999511719</ele>
        <time>2022-07-23T07:25:03.000Z</time>
      </trkpt>
      <trkpt lat="44.09324" lon="6.97298">
        <ele>1550</ele>
        <time>2022-07-23T07:25:05.000Z</time>
      </trkpt>
      <trkpt lat="44.09328" lon="6.973">
        <ele>1550.5999755859</ele>
        <time>2022-07-23T07:25:07.000Z</time>
      </trkpt>
      <trkpt lat="44.0933" lon="6.97301">
        <ele>1550.8000488281</ele>
        <time>2022-07-23T07:25:08.000Z</time>
      </trkpt>
      <trkpt lat="44.09332" lon="6.97303">
        <ele>1551</ele>
        <time>2022-07-23T07:25:09.000Z</time>
      </trkpt>
      <trkpt lat="44.09335" lon="6.97308">
        <ele>1551.4000244141</ele>
        <time>2022-07-23T07:25:11.000Z</time>
      </trkpt>
      <trkpt lat="44.09342" lon="6.97315">
        <ele>1551.8000488281</ele>
        <time>2022-07-23T07:25:14.000Z</time>
      </trkpt>
      <trkpt lat="44.09355" lon="6.97324">
        <ele>1551.5999755859</ele>
        <time>2022-07-23T07:25:18.000Z</time>
      </trkpt>
      <trkpt lat="44.09369" lon="6.97331">
        <ele>1550.8000488281</ele>
        <time>2022-07-23T07:25:22.000Z</time>
      </trkpt>
      <trkpt lat="44.09375" lon="6.97332">
        <ele>1550.4000244141</ele>
        <time>2022-07-23T07:25:24.000Z</time>
      </trkpt>
      <trkpt lat="44.09381" lon="6.97336">
        <ele>1550</ele>
        <time>2022-07-23T07:25:26.000Z</time>
      </trkpt>
      <trkpt lat="44.09385" lon="6.97335">
        <ele>1549.8000488281</ele>
        <time>2022-07-23T07:25:27.000Z</time>
      </trkpt>
      <trkpt lat="44.09391" lon="6.97331">
        <ele>1549.4000244141</ele>
        <time>2022-07-23T07:25:29.000Z</time>
      </trkpt>
      <trkpt lat="44.09398" lon="6.97328">
        <ele>1549</ele>
        <time>2022-07-23T07:25:31.000Z</time>
      </trkpt>
      <trkpt lat="44.09408" lon="6.97322">
        <ele>1549</ele>
        <time>2022-07-23T07:25:34.000Z</time>
      </trkpt>
      <trkpt lat="44.09429" lon="6.97318">
        <ele>1549.1999511719</ele>
        <time>2022-07-23T07:25:39.000Z</time>
      </trkpt>
      <trkpt lat="44.09433" lon="6.97318">
        <ele>1549.1999511719</ele>
        <time>2022-07-23T07:25:40.000Z</time>
      </trkpt>
      <trkpt lat="44.09447" lon="6.97311">
        <ele>1548.4000244141</ele>
        <time>2022-07-23T07:25:43.000Z</time>
      </trkpt>
      <trkpt lat="44.09453" lon="6.97303">
        <ele>1548</ele>
        <time>2022-07-23T07:25:45.000Z</time>
      </trkpt>
      <trkpt lat="44.09457" lon="6.97297">
        <ele>1548.1999511719</ele>
        <time>2022-07-23T07:25:46.000Z</time>
      </trkpt>
      <trkpt lat="44.09462" lon="6.97292">
        <ele>1548.1999511719</ele>
        <time>2022-07-23T07:25:47.000Z</time>
      </trkpt>
      <trkpt lat="44.09472" lon="6.97284">
        <ele>1547.8000488281</ele>
        <time>2022-07-23T07:25:49.000Z</time>
      </trkpt>
      <trkpt lat="44.09477" lon="6.97282">
        <ele>1547.4000244141</ele>
        <time>2022-07-23T07:25:50.000Z</time>
      </trkpt>
      <trkpt lat="44.09492" lon="6.97273">
        <ele>1546.5999755859</ele>
        <time>2022-07-23T07:25:53.000Z</time>
      </trkpt>
      <trkpt lat="44.09495" lon="6.9727">
        <ele>1546.5999755859</ele>
        <time>2022-07-23T07:25:54.000Z</time>
      </trkpt>
      <trkpt lat="44.09506" lon="6.97265">
        <ele>1548.1999511719</ele>
        <time>2022-07-23T07:25:58.000Z</time>
      </trkpt>
      <trkpt lat="44.09509" lon="6.97267">
        <ele>1548.5999755859</ele>
        <time>2022-07-23T07:25:59.000Z</time>
      </trkpt>
      <trkpt lat="44.0951" lon="6.9727">
        <ele>1549.1999511719</ele>
        <time>2022-07-23T07:26:00.000Z</time>
      </trkpt>
      <trkpt lat="44.09513" lon="6.97276">
        <ele>1550.4000244141</ele>
        <time>2022-07-23T07:26:02.000Z</time>
      </trkpt>
      <trkpt lat="44.09514" lon="6.97275">
        <ele>1551.5999755859</ele>
        <time>2022-07-23T07:26:05.000Z</time>
      </trkpt>
      <trkpt lat="44.09515" lon="6.97272">
        <ele>1552</ele>
        <time>2022-07-23T07:26:06.000Z</time>
      </trkpt>
      <trkpt lat="44.09516" lon="6.97271">
        <ele>1552.8000488281</ele>
        <time>2022-07-23T07:26:09.000Z</time>
      </trkpt>
      <trkpt lat="44.09517" lon="6.9727">
        <ele>1553</ele>
        <time>2022-07-23T07:26:10.000Z</time>
      </trkpt>
      <trkpt lat="44.09518" lon="6.97266">
        <ele>1553.4000244141</ele>
        <time>2022-07-23T07:26:14.000Z</time>
      </trkpt>
      <trkpt lat="44.09519" lon="6.97263">
        <ele>1554</ele>
        <time>2022-07-23T07:26:16.000Z</time>
      </trkpt>
      <trkpt lat="44.0952" lon="6.97254">
        <ele>1555.1999511719</ele>
        <time>2022-07-23T07:26:19.000Z</time>
      </trkpt>
      <trkpt lat="44.09521" lon="6.97251">
        <ele>1555.4000244141</ele>
        <time>2022-07-23T07:26:20.000Z</time>
      </trkpt>
      <trkpt lat="44.09523" lon="6.97241">
        <ele>1556.1999511719</ele>
        <time>2022-07-23T07:26:23.000Z</time>
      </trkpt>
      <trkpt lat="44.09523" lon="6.9723">
        <ele>1557</ele>
        <time>2022-07-23T07:26:26.000Z</time>
      </trkpt>
      <trkpt lat="44.09522" lon="6.97223">
        <ele>1557.5999755859</ele>
        <time>2022-07-23T07:26:28.000Z</time>
      </trkpt>
      <trkpt lat="44.09522" lon="6.97216">
        <ele>1558.8000488281</ele>
        <time>2022-07-23T07:26:30.000Z</time>
      </trkpt>
      <trkpt lat="44.09521" lon="6.9721">
        <ele>1559.8000488281</ele>
        <time>2022-07-23T07:26:32.000Z</time>
      </trkpt>
      <trkpt lat="44.09522" lon="6.97207">
        <ele>1560.4000244141</ele>
        <time>2022-07-23T07:26:33.000Z</time>
      </trkpt>
      <trkpt lat="44.09523" lon="6.97198">
        <ele>1561.5999755859</ele>
        <time>2022-07-23T07:26:36.000Z</time>
      </trkpt>
      <trkpt lat="44.09523" lon="6.97195">
        <ele>1562.1999511719</ele>
        <time>2022-07-23T07:26:37.000Z</time>
      </trkpt>
      <trkpt lat="44.09523" lon="6.97189">
        <ele>1563</ele>
        <time>2022-07-23T07:26:39.000Z</time>
      </trkpt>
      <trkpt lat="44.09524" lon="6.97186">
        <ele>1563.8000488281</ele>
        <time>2022-07-23T07:26:40.000Z</time>
      </trkpt>
      <trkpt lat="44.09526" lon="6.97184">
        <ele>1564.1999511719</ele>
        <time>2022-07-23T07:26:41.000Z</time>
      </trkpt>
      <trkpt lat="44.09529" lon="6.97189">
        <ele>1565.5999755859</ele>
        <time>2022-07-23T07:26:44.000Z</time>
      </trkpt>
      <trkpt lat="44.09529" lon="6.97191">
        <ele>1565.8000488281</ele>
        <time>2022-07-23T07:26:46.000Z</time>
      </trkpt>
      <trkpt lat="44.09532" lon="6.97199">
        <ele>1566.1999511719</ele>
        <time>2022-07-23T07:26:49.000Z</time>
      </trkpt>
      <trkpt lat="44.09533" lon="6.97202">
        <ele>1566.4000244141</ele>
        <time>2022-07-23T07:26:50.000Z</time>
      </trkpt>
      <trkpt lat="44.09534" lon="6.97205">
        <ele>1566.8000488281</ele>
        <time>2022-07-23T07:26:51.000Z</time>
      </trkpt>
      <trkpt lat="44.09535" lon="6.97205">
        <ele>1568</ele>
        <time>2022-07-23T07:26:54.000Z</time>
      </trkpt>
      <trkpt lat="44.09535" lon="6.97201">
        <ele>1568.8000488281</ele>
        <time>2022-07-23T07:26:57.000Z</time>
      </trkpt>
      <trkpt lat="44.09536" lon="6.97195">
        <ele>1568.5999755859</ele>
        <time>2022-07-23T07:26:59.000Z</time>
      </trkpt>
      <trkpt lat="44.09536" lon="6.97189">
        <ele>1569.4000244141</ele>
        <time>2022-07-23T07:27:01.000Z</time>
      </trkpt>
      <trkpt lat="44.09538" lon="6.97184">
        <ele>1570.4000244141</ele>
        <time>2022-07-23T07:27:03.000Z</time>
      </trkpt>
      <trkpt lat="44.09539" lon="6.97182">
        <ele>1571</ele>
        <time>2022-07-23T07:27:04.000Z</time>
      </trkpt>
      <trkpt lat="44.09541" lon="6.97183">
        <ele>1571.4000244141</ele>
        <time>2022-07-23T07:27:05.000Z</time>
      </trkpt>
      <trkpt lat="44.09542" lon="6.97186">
        <ele>1571.5999755859</ele>
        <time>2022-07-23T07:27:06.000Z</time>
      </trkpt>
      <trkpt lat="44.09542" lon="6.97191">
        <ele>1572.5999755859</ele>
        <time>2022-07-23T07:27:08.000Z</time>
      </trkpt>
      <trkpt lat="44.09544" lon="6.97196">
        <ele>1573.5999755859</ele>
        <time>2022-07-23T07:27:10.000Z</time>
      </trkpt>
      <trkpt lat="44.09545" lon="6.97202">
        <ele>1574</ele>
        <time>2022-07-23T07:27:13.000Z</time>
      </trkpt>
      <trkpt lat="44.09546" lon="6.97202">
        <ele>1575</ele>
        <time>2022-07-23T07:27:16.000Z</time>
      </trkpt>
      <trkpt lat="44.09546" lon="6.97202">
        <ele>1575.4000244141</ele>
        <time>2022-07-23T07:27:18.000Z</time>
      </trkpt>
      <trkpt lat="44.09546" lon="6.972">
        <ele>1575.8000488281</ele>
        <time>2022-07-23T07:27:23.000Z</time>
      </trkpt>
      <trkpt lat="44.09547" lon="6.97194">
        <ele>1576</ele>
        <time>2022-07-23T07:27:28.000Z</time>
      </trkpt>
      <trkpt lat="44.09549" lon="6.97181">
        <ele>1577.1999511719</ele>
        <time>2022-07-23T07:27:33.000Z</time>
      </trkpt>
      <trkpt lat="44.09549" lon="6.97182">
        <ele>1577.5999755859</ele>
        <time>2022-07-23T07:27:34.000Z</time>
      </trkpt>
      <trkpt lat="44.09549" lon="6.97181">
        <ele>1578.4000244141</ele>
        <time>2022-07-23T07:27:36.000Z</time>
      </trkpt>
      <trkpt lat="44.09548" lon="6.97181">
        <ele>1579</ele>
        <time>2022-07-23T07:27:42.000Z</time>
      </trkpt>
      <trkpt lat="44.09548" lon="6.9718">
        <ele>1579</ele>
        <time>2022-07-23T07:27:59.000Z</time>
      </trkpt>
      <trkpt lat="44.09547" lon="6.97179">
        <ele>1579.1999511719</ele>
        <time>2022-07-23T07:28:17.000Z</time>
      </trkpt>
      <trkpt lat="44.09547" lon="6.97179">
        <ele>1579.1999511719</ele>
        <time>2022-07-23T07:28:36.000Z</time>
      </trkpt>
      <trkpt lat="44.09547" lon="6.97179">
        <ele>1579.1999511719</ele>
        <time>2022-07-23T07:28:42.000Z</time>
      </trkpt>
      <trkpt lat="44.09547" lon="6.97179">
        <ele>1579.4000244141</ele>
        <time>2022-07-23T07:28:44.000Z</time>
      </trkpt>
      <trkpt lat="44.09547" lon="6.97174">
        <ele>1579.4000244141</ele>
        <time>2022-07-23T07:28:57.000Z</time>
      </trkpt>
      <trkpt lat="44.09551" lon="6.97161">
        <ele>1580.4000244141</ele>
        <time>2022-07-23T07:29:02.000Z</time>
      </trkpt>
      <trkpt lat="44.09552" lon="6.97159">
        <ele>1580.8000488281</ele>
        <time>2022-07-23T07:29:03.000Z</time>
      </trkpt>
      <trkpt lat="44.09554" lon="6.97162">
        <ele>1581.5999755859</ele>
        <time>2022-07-23T07:29:06.000Z</time>
      </trkpt>
      <trkpt lat="44.09555" lon="6.9717">
        <ele>1582.5999755859</ele>
        <time>2022-07-23T07:29:09.000Z</time>
      </trkpt>
      <trkpt lat="44.09556" lon="6.97173">
        <ele>1582.8000488281</ele>
        <time>2022-07-23T07:29:10.000Z</time>
      </trkpt>
      <trkpt lat="44.09558" lon="6.97183">
        <ele>1584.1999511719</ele>
        <time>2022-07-23T07:29:13.000Z</time>
      </trkpt>
      <trkpt lat="44.0956" lon="6.97193">
        <ele>1585.1999511719</ele>
        <time>2022-07-23T07:29:16.000Z</time>
      </trkpt>
      <trkpt lat="44.09561" lon="6.97202">
        <ele>1586.1999511719</ele>
        <time>2022-07-23T07:29:19.000Z</time>
      </trkpt>
      <trkpt lat="44.09562" lon="6.97209">
        <ele>1586.5999755859</ele>
        <time>2022-07-23T07:29:21.000Z</time>
      </trkpt>
      <trkpt lat="44.09565" lon="6.97222">
        <ele>1587.4000244141</ele>
        <time>2022-07-23T07:29:25.000Z</time>
      </trkpt>
      <trkpt lat="44.09567" lon="6.97232">
        <ele>1588.5999755859</ele>
        <time>2022-07-23T07:29:28.000Z</time>
      </trkpt>
      <trkpt lat="44.09571" lon="6.97248">
        <ele>1589.8000488281</ele>
        <time>2022-07-23T07:29:33.000Z</time>
      </trkpt>
      <trkpt lat="44.09572" lon="6.97251">
        <ele>1590.1999511719</ele>
        <time>2022-07-23T07:29:34.000Z</time>
      </trkpt>
      <trkpt lat="44.09575" lon="6.9726">
        <ele>1591</ele>
        <time>2022-07-23T07:29:37.000Z</time>
      </trkpt>
      <trkpt lat="44.09577" lon="6.97265">
        <ele>1592.4000244141</ele>
        <time>2022-07-23T07:29:39.000Z</time>
      </trkpt>
      <trkpt lat="44.09578" lon="6.97268">
        <ele>1592.8000488281</ele>
        <time>2022-07-23T07:29:40.000Z</time>
      </trkpt>
      <trkpt lat="44.0958" lon="6.97278">
        <ele>1593.5999755859</ele>
        <time>2022-07-23T07:29:43.000Z</time>
      </trkpt>
      <trkpt lat="44.09585" lon="6.97298">
        <ele>1594.5999755859</ele>
        <time>2022-07-23T07:29:49.000Z</time>
      </trkpt>
      <trkpt lat="44.09586" lon="6.973">
        <ele>1594.8000488281</ele>
        <time>2022-07-23T07:29:50.000Z</time>
      </trkpt>
      <trkpt lat="44.09591" lon="6.97306">
        <ele>1596</ele>
        <time>2022-07-23T07:29:53.000Z</time>
      </trkpt>
      <trkpt lat="44.09592" lon="6.97308">
        <ele>1596.4000244141</ele>
        <time>2022-07-23T07:29:54.000Z</time>
      </trkpt>
      <trkpt lat="44.09594" lon="6.97313">
        <ele>1597.5999755859</ele>
        <time>2022-07-23T07:29:56.000Z</time>
      </trkpt>
      <trkpt lat="44.09601" lon="6.97328">
        <ele>1598.1999511719</ele>
        <time>2022-07-23T07:30:02.000Z</time>
      </trkpt>
      <trkpt lat="44.09605" lon="6.97335">
        <ele>1598.8000488281</ele>
        <time>2022-07-23T07:30:05.000Z</time>
      </trkpt>
      <trkpt lat="44.09608" lon="6.97339">
        <ele>1599.1999511719</ele>
        <time>2022-07-23T07:30:07.000Z</time>
      </trkpt>
      <trkpt lat="44.09622" lon="6.97357">
        <ele>1600</ele>
        <time>2022-07-23T07:30:14.000Z</time>
      </trkpt>
      <trkpt lat="44.09632" lon="6.97365">
        <ele>1601.1999511719</ele>
        <time>2022-07-23T07:30:19.000Z</time>
      </trkpt>
      <trkpt lat="44.09636" lon="6.97369">
        <ele>1602</ele>
        <time>2022-07-23T07:30:21.000Z</time>
      </trkpt>
      <trkpt lat="44.0964" lon="6.97373">
        <ele>1602.8000488281</ele>
        <time>2022-07-23T07:30:23.000Z</time>
      </trkpt>
      <trkpt lat="44.09641" lon="6.97375">
        <ele>1603</ele>
        <time>2022-07-23T07:30:24.000Z</time>
      </trkpt>
      <trkpt lat="44.09643" lon="6.97381">
        <ele>1604</ele>
        <time>2022-07-23T07:30:26.000Z</time>
      </trkpt>
      <trkpt lat="44.09645" lon="6.97388">
        <ele>1605.4000244141</ele>
        <time>2022-07-23T07:30:28.000Z</time>
      </trkpt>
      <trkpt lat="44.09645" lon="6.97394">
        <ele>1606.5999755859</ele>
        <time>2022-07-23T07:30:30.000Z</time>
      </trkpt>
      <trkpt lat="44.09645" lon="6.97401">
        <ele>1607.1999511719</ele>
        <time>2022-07-23T07:30:32.000Z</time>
      </trkpt>
      <trkpt lat="44.09643" lon="6.9743">
        <ele>1607</ele>
        <time>2022-07-23T07:30:40.000Z</time>
      </trkpt>
      <trkpt lat="44.09643" lon="6.97448">
        <ele>1607.1999511719</ele>
        <time>2022-07-23T07:30:45.000Z</time>
      </trkpt>
      <trkpt lat="44.09645" lon="6.97467">
        <ele>1607.4000244141</ele>
        <time>2022-07-23T07:30:50.000Z</time>
      </trkpt>
      <trkpt lat="44.09646" lon="6.97478">
        <ele>1607.5999755859</ele>
        <time>2022-07-23T07:30:53.000Z</time>
      </trkpt>
      <trkpt lat="44.09648" lon="6.97488">
        <ele>1607.5999755859</ele>
        <time>2022-07-23T07:30:56.000Z</time>
      </trkpt>
      <trkpt lat="44.09648" lon="6.97494">
        <ele>1607.5999755859</ele>
        <time>2022-07-23T07:30:58.000Z</time>
      </trkpt>
      <trkpt lat="44.09648" lon="6.97502">
        <ele>1607.5999755859</ele>
        <time>2022-07-23T07:31:00.000Z</time>
      </trkpt>
      <trkpt lat="44.09648" lon="6.97529">
        <ele>1607.4000244141</ele>
        <time>2022-07-23T07:31:07.000Z</time>
      </trkpt>
      <trkpt lat="44.09649" lon="6.97549">
        <ele>1606.8000488281</ele>
        <time>2022-07-23T07:31:12.000Z</time>
      </trkpt>
      <trkpt lat="44.09651" lon="6.97559">
        <ele>1606.1999511719</ele>
        <time>2022-07-23T07:31:14.000Z</time>
      </trkpt>
      <trkpt lat="44.09651" lon="6.97574">
        <ele>1606</ele>
        <time>2022-07-23T07:31:17.000Z</time>
      </trkpt>
      <trkpt lat="44.09655" lon="6.97594">
        <ele>1605.1999511719</ele>
        <time>2022-07-23T07:31:21.000Z</time>
      </trkpt>
      <trkpt lat="44.09659" lon="6.97604">
        <ele>1604.8000488281</ele>
        <time>2022-07-23T07:31:23.000Z</time>
      </trkpt>
      <trkpt lat="44.09665" lon="6.97615">
        <ele>1603.8000488281</ele>
        <time>2022-07-23T07:31:26.000Z</time>
      </trkpt>
      <trkpt lat="44.09666" lon="6.97618">
        <ele>1603.8000488281</ele>
        <time>2022-07-23T07:31:27.000Z</time>
      </trkpt>
      <trkpt lat="44.0967" lon="6.97626">
        <ele>1604.1999511719</ele>
        <time>2022-07-23T07:31:29.000Z</time>
      </trkpt>
      <trkpt lat="44.09679" lon="6.97636">
        <ele>1604.4000244141</ele>
        <time>2022-07-23T07:31:33.000Z</time>
      </trkpt>
      <trkpt lat="44.09691" lon="6.97646">
        <ele>1604.5999755859</ele>
        <time>2022-07-23T07:31:38.000Z</time>
      </trkpt>
      <trkpt lat="44.09696" lon="6.97651">
        <ele>1605</ele>
        <time>2022-07-23T07:31:40.000Z</time>
      </trkpt>
      <trkpt lat="44.09702" lon="6.97655">
        <ele>1605.4000244141</ele>
        <time>2022-07-23T07:31:42.000Z</time>
      </trkpt>
      <trkpt lat="44.09722" lon="6.97672">
        <ele>1605.5999755859</ele>
        <time>2022-07-23T07:31:49.000Z</time>
      </trkpt>
      <trkpt lat="44.09726" lon="6.97674">
        <ele>1605.4000244141</ele>
        <time>2022-07-23T07:31:50.000Z</time>
      </trkpt>
      <trkpt lat="44.09736" lon="6.97681">
        <ele>1604.5999755859</ele>
        <time>2022-07-23T07:31:53.000Z</time>
      </trkpt>
      <trkpt lat="44.09739" lon="6.97685">
        <ele>1604.5999755859</ele>
        <time>2022-07-23T07:31:54.000Z</time>
      </trkpt>
      <trkpt lat="44.09751" lon="6.97694">
        <ele>1604</ele>
        <time>2022-07-23T07:31:57.000Z</time>
      </trkpt>
      <trkpt lat="44.09755" lon="6.97698">
        <ele>1603.8000488281</ele>
        <time>2022-07-23T07:31:58.000Z</time>
      </trkpt>
      <trkpt lat="44.0976" lon="6.97702">
        <ele>1603.4000244141</ele>
        <time>2022-07-23T07:31:59.000Z</time>
      </trkpt>
      <trkpt lat="44.09764" lon="6.97705">
        <ele>1603</ele>
        <time>2022-07-23T07:32:00.000Z</time>
      </trkpt>
      <trkpt lat="44.09778" lon="6.97714">
        <ele>1601.8000488281</ele>
        <time>2022-07-23T07:32:03.000Z</time>
      </trkpt>
      <trkpt lat="44.09783" lon="6.97718">
        <ele>1601.4000244141</ele>
        <time>2022-07-23T07:32:04.000Z</time>
      </trkpt>
      <trkpt lat="44.09788" lon="6.97721">
        <ele>1601.1999511719</ele>
        <time>2022-07-23T07:32:05.000Z</time>
      </trkpt>
      <trkpt lat="44.098" lon="6.97727">
        <ele>1600.5999755859</ele>
        <time>2022-07-23T07:32:08.000Z</time>
      </trkpt>
      <trkpt lat="44.09801" lon="6.97728">
        <ele>1600.4000244141</ele>
        <time>2022-07-23T07:32:11.000Z</time>
      </trkpt>
      <trkpt lat="44.09802" lon="6.97729">
        <ele>1600.8000488281</ele>
        <time>2022-07-23T07:32:23.000Z</time>
      </trkpt>
      <trkpt lat="44.09803" lon="6.97729">
        <ele>1601.1999511719</ele>
        <time>2022-07-23T07:32:38.000Z</time>
      </trkpt>
      <trkpt lat="44.09804" lon="6.97729">
        <ele>1601.4000244141</ele>
        <time>2022-07-23T07:33:01.000Z</time>
      </trkpt>
      <trkpt lat="44.09805" lon="6.97729">
        <ele>1601.4000244141</ele>
        <time>2022-07-23T07:33:18.000Z</time>
      </trkpt>
      <trkpt lat="44.09805" lon="6.97729">
        <ele>1601.4000244141</ele>
        <time>2022-07-23T07:33:25.000Z</time>
      </trkpt>
      <trkpt lat="44.09804" lon="6.9773">
        <ele>1601.4000244141</ele>
        <time>2022-07-23T07:33:46.000Z</time>
      </trkpt>
      <trkpt lat="44.09803" lon="6.9773">
        <ele>1601.4000244141</ele>
        <time>2022-07-23T07:33:58.000Z</time>
      </trkpt>
      <trkpt lat="44.09803" lon="6.9773">
        <ele>1601.4000244141</ele>
        <time>2022-07-23T07:34:06.000Z</time>
      </trkpt>
      <trkpt lat="44.09803" lon="6.97729">
        <ele>1601.4000244141</ele>
        <time>2022-07-23T07:34:13.000Z</time>
      </trkpt>
      <trkpt lat="44.09808" lon="6.97733">
        <ele>1601.4000244141</ele>
        <time>2022-07-23T07:34:19.000Z</time>
      </trkpt>
      <trkpt lat="44.09816" lon="6.97738">
        <ele>1601.5999755859</ele>
        <time>2022-07-23T07:34:22.000Z</time>
      </trkpt>
      <trkpt lat="44.09821" lon="6.97743">
        <ele>1602</ele>
        <time>2022-07-23T07:34:24.000Z</time>
      </trkpt>
      <trkpt lat="44.09836" lon="6.97753">
        <ele>1602.8000488281</ele>
        <time>2022-07-23T07:34:29.000Z</time>
      </trkpt>
      <trkpt lat="44.09845" lon="6.97757">
        <ele>1603.4000244141</ele>
        <time>2022-07-23T07:34:32.000Z</time>
      </trkpt>
      <trkpt lat="44.09858" lon="6.97757">
        <ele>1603.8000488281</ele>
        <time>2022-07-23T07:34:37.000Z</time>
      </trkpt>
      <trkpt lat="44.09877" lon="6.97754">
        <ele>1604.5999755859</ele>
        <time>2022-07-23T07:34:45.000Z</time>
      </trkpt>
      <trkpt lat="44.09884" lon="6.97753">
        <ele>1604.8000488281</ele>
        <time>2022-07-23T07:34:48.000Z</time>
      </trkpt>
      <trkpt lat="44.09896" lon="6.97751">
        <ele>1605</ele>
        <time>2022-07-23T07:34:52.000Z</time>
      </trkpt>
      <trkpt lat="44.09914" lon="6.97748">
        <ele>1605.1999511719</ele>
        <time>2022-07-23T07:34:58.000Z</time>
      </trkpt>
      <trkpt lat="44.09929" lon="6.97748">
        <ele>1605.5999755859</ele>
        <time>2022-07-23T07:35:04.000Z</time>
      </trkpt>
      <trkpt lat="44.09947" lon="6.97746">
        <ele>1606</ele>
        <time>2022-07-23T07:35:11.000Z</time>
      </trkpt>
      <trkpt lat="44.09963" lon="6.97747">
        <ele>1606.4000244141</ele>
        <time>2022-07-23T07:35:17.000Z</time>
      </trkpt>
      <trkpt lat="44.09978" lon="6.97749">
        <ele>1607</ele>
        <time>2022-07-23T07:35:23.000Z</time>
      </trkpt>
      <trkpt lat="44.09981" lon="6.97749">
        <ele>1607</ele>
        <time>2022-07-23T07:35:24.000Z</time>
      </trkpt>
      <trkpt lat="44.09999" lon="6.97749">
        <ele>1608</ele>
        <time>2022-07-23T07:35:31.000Z</time>
      </trkpt>
      <trkpt lat="44.10001" lon="6.97747">
        <ele>1608.1999511719</ele>
        <time>2022-07-23T07:35:32.000Z</time>
      </trkpt>
      <trkpt lat="44.10007" lon="6.97735">
        <ele>1609.5999755859</ele>
        <time>2022-07-23T07:35:36.000Z</time>
      </trkpt>
      <trkpt lat="44.10012" lon="6.97726">
        <ele>1610.8000488281</ele>
        <time>2022-07-23T07:35:39.000Z</time>
      </trkpt>
      <trkpt lat="44.10017" lon="6.9772">
        <ele>1611.4000244141</ele>
        <time>2022-07-23T07:35:41.000Z</time>
      </trkpt>
      <trkpt lat="44.10022" lon="6.97715">
        <ele>1612.1999511719</ele>
        <time>2022-07-23T07:35:43.000Z</time>
      </trkpt>
      <trkpt lat="44.10028" lon="6.97703">
        <ele>1613.4000244141</ele>
        <time>2022-07-23T07:35:47.000Z</time>
      </trkpt>
      <trkpt lat="44.10032" lon="6.97693">
        <ele>1614.8000488281</ele>
        <time>2022-07-23T07:35:50.000Z</time>
      </trkpt>
      <trkpt lat="44.10035" lon="6.97687">
        <ele>1615.8000488281</ele>
        <time>2022-07-23T07:35:52.000Z</time>
      </trkpt>
      <trkpt lat="44.10039" lon="6.97677">
        <ele>1617</ele>
        <time>2022-07-23T07:35:55.000Z</time>
      </trkpt>
      <trkpt lat="44.10042" lon="6.97667">
        <ele>1618.1999511719</ele>
        <time>2022-07-23T07:35:58.000Z</time>
      </trkpt>
      <trkpt lat="44.10046" lon="6.97657">
        <ele>1619.4000244141</ele>
        <time>2022-07-23T07:36:01.000Z</time>
      </trkpt>
      <trkpt lat="44.10049" lon="6.97648">
        <ele>1620.8000488281</ele>
        <time>2022-07-23T07:36:04.000Z</time>
      </trkpt>
      <trkpt lat="44.10051" lon="6.97637">
        <ele>1622</ele>
        <time>2022-07-23T07:36:07.000Z</time>
      </trkpt>
      <trkpt lat="44.10052" lon="6.97634">
        <ele>1622.5999755859</ele>
        <time>2022-07-23T07:36:08.000Z</time>
      </trkpt>
      <trkpt lat="44.10053" lon="6.97631">
        <ele>1623.1999511719</ele>
        <time>2022-07-23T07:36:09.000Z</time>
      </trkpt>
      <trkpt lat="44.10055" lon="6.97624">
        <ele>1624.4000244141</ele>
        <time>2022-07-23T07:36:11.000Z</time>
      </trkpt>
      <trkpt lat="44.10057" lon="6.97614">
        <ele>1625.8000488281</ele>
        <time>2022-07-23T07:36:14.000Z</time>
      </trkpt>
      <trkpt lat="44.10058" lon="6.97607">
        <ele>1626.5999755859</ele>
        <time>2022-07-23T07:36:16.000Z</time>
      </trkpt>
      <trkpt lat="44.10059" lon="6.97604">
        <ele>1627.1999511719</ele>
        <time>2022-07-23T07:36:17.000Z</time>
      </trkpt>
      <trkpt lat="44.10063" lon="6.97595">
        <ele>1628.4000244141</ele>
        <time>2022-07-23T07:36:20.000Z</time>
      </trkpt>
      <trkpt lat="44.10065" lon="6.97589">
        <ele>1629.1999511719</ele>
        <time>2022-07-23T07:36:22.000Z</time>
      </trkpt>
      <trkpt lat="44.10066" lon="6.97583">
        <ele>1630</ele>
        <time>2022-07-23T07:36:24.000Z</time>
      </trkpt>
      <trkpt lat="44.10068" lon="6.97574">
        <ele>1631</ele>
        <time>2022-07-23T07:36:27.000Z</time>
      </trkpt>
      <trkpt lat="44.10068" lon="6.97571">
        <ele>1631.4000244141</ele>
        <time>2022-07-23T07:36:28.000Z</time>
      </trkpt>
      <trkpt lat="44.10069" lon="6.97559">
        <ele>1632</ele>
        <time>2022-07-23T07:36:31.000Z</time>
      </trkpt>
      <trkpt lat="44.10069" lon="6.97544">
        <ele>1632.4000244141</ele>
        <time>2022-07-23T07:36:35.000Z</time>
      </trkpt>
      <trkpt lat="44.1007" lon="6.97529">
        <ele>1633</ele>
        <time>2022-07-23T07:36:39.000Z</time>
      </trkpt>
      <trkpt lat="44.10072" lon="6.97522">
        <ele>1633.4000244141</ele>
        <time>2022-07-23T07:36:41.000Z</time>
      </trkpt>
      <trkpt lat="44.10074" lon="6.97513">
        <ele>1634.4000244141</ele>
        <time>2022-07-23T07:36:44.000Z</time>
      </trkpt>
      <trkpt lat="44.10075" lon="6.97505">
        <ele>1634.8000488281</ele>
        <time>2022-07-23T07:36:46.000Z</time>
      </trkpt>
      <trkpt lat="44.10079" lon="6.97492">
        <ele>1635.4000244141</ele>
        <time>2022-07-23T07:36:50.000Z</time>
      </trkpt>
      <trkpt lat="44.10079" lon="6.97488">
        <ele>1635.5999755859</ele>
        <time>2022-07-23T07:36:51.000Z</time>
      </trkpt>
      <trkpt lat="44.10081" lon="6.97477">
        <ele>1636.1999511719</ele>
        <time>2022-07-23T07:36:54.000Z</time>
      </trkpt>
      <trkpt lat="44.10082" lon="6.97471">
        <ele>1636.8000488281</ele>
        <time>2022-07-23T07:36:56.000Z</time>
      </trkpt>
      <trkpt lat="44.10083" lon="6.97464">
        <ele>1637.4000244141</ele>
        <time>2022-07-23T07:36:58.000Z</time>
      </trkpt>
      <trkpt lat="44.10084" lon="6.9746">
        <ele>1637.8000488281</ele>
        <time>2022-07-23T07:36:59.000Z</time>
      </trkpt>
      <trkpt lat="44.10085" lon="6.97457">
        <ele>1638.1999511719</ele>
        <time>2022-07-23T07:37:00.000Z</time>
      </trkpt>
      <trkpt lat="44.10087" lon="6.97447">
        <ele>1639</ele>
        <time>2022-07-23T07:37:03.000Z</time>
      </trkpt>
      <trkpt lat="44.10088" lon="6.97436">
        <ele>1639.8000488281</ele>
        <time>2022-07-23T07:37:06.000Z</time>
      </trkpt>
      <trkpt lat="44.10089" lon="6.97432">
        <ele>1640</ele>
        <time>2022-07-23T07:37:07.000Z</time>
      </trkpt>
      <trkpt lat="44.10091" lon="6.97419">
        <ele>1641.1999511719</ele>
        <time>2022-07-23T07:37:11.000Z</time>
      </trkpt>
      <trkpt lat="44.10093" lon="6.97415">
        <ele>1641.4000244141</ele>
        <time>2022-07-23T07:37:12.000Z</time>
      </trkpt>
      <trkpt lat="44.10096" lon="6.97401">
        <ele>1642.4000244141</ele>
        <time>2022-07-23T07:37:16.000Z</time>
      </trkpt>
      <trkpt lat="44.10096" lon="6.97397">
        <ele>1642.8000488281</ele>
        <time>2022-07-23T07:37:17.000Z</time>
      </trkpt>
      <trkpt lat="44.10098" lon="6.9739">
        <ele>1643.4000244141</ele>
        <time>2022-07-23T07:37:19.000Z</time>
      </trkpt>
      <trkpt lat="44.10101" lon="6.97374">
        <ele>1644.4000244141</ele>
        <time>2022-07-23T07:37:23.000Z</time>
      </trkpt>
      <trkpt lat="44.10102" lon="6.9737">
        <ele>1644.5999755859</ele>
        <time>2022-07-23T07:37:24.000Z</time>
      </trkpt>
      <trkpt lat="44.10103" lon="6.97359">
        <ele>1645.4000244141</ele>
        <time>2022-07-23T07:37:27.000Z</time>
      </trkpt>
      <trkpt lat="44.10101" lon="6.97349">
        <ele>1646.1999511719</ele>
        <time>2022-07-23T07:37:30.000Z</time>
      </trkpt>
      <trkpt lat="44.10103" lon="6.97343">
        <ele>1646.5999755859</ele>
        <time>2022-07-23T07:37:32.000Z</time>
      </trkpt>
      <trkpt lat="44.10104" lon="6.97337">
        <ele>1647</ele>
        <time>2022-07-23T07:37:34.000Z</time>
      </trkpt>
      <trkpt lat="44.10103" lon="6.97333">
        <ele>1647.5999755859</ele>
        <time>2022-07-23T07:37:36.000Z</time>
      </trkpt>
      <trkpt lat="44.10104" lon="6.97326">
        <ele>1648.1999511719</ele>
        <time>2022-07-23T07:37:38.000Z</time>
      </trkpt>
      <trkpt lat="44.10109" lon="6.97327">
        <ele>1648.8000488281</ele>
        <time>2022-07-23T07:37:40.000Z</time>
      </trkpt>
      <trkpt lat="44.10112" lon="6.9733">
        <ele>1648.8000488281</ele>
        <time>2022-07-23T07:37:41.000Z</time>
      </trkpt>
      <trkpt lat="44.10117" lon="6.9734">
        <ele>1649</ele>
        <time>2022-07-23T07:37:44.000Z</time>
      </trkpt>
      <trkpt lat="44.1012" lon="6.97346">
        <ele>1649.1999511719</ele>
        <time>2022-07-23T07:37:46.000Z</time>
      </trkpt>
      <trkpt lat="44.10129" lon="6.97362">
        <ele>1650</ele>
        <time>2022-07-23T07:37:52.000Z</time>
      </trkpt>
      <trkpt lat="44.10138" lon="6.97374">
        <ele>1651.1999511719</ele>
        <time>2022-07-23T07:37:57.000Z</time>
      </trkpt>
      <trkpt lat="44.10141" lon="6.97378">
        <ele>1652.1999511719</ele>
        <time>2022-07-23T07:37:59.000Z</time>
      </trkpt>
      <trkpt lat="44.10141" lon="6.97381">
        <ele>1652.8000488281</ele>
        <time>2022-07-23T07:38:00.000Z</time>
      </trkpt>
      <trkpt lat="44.10146" lon="6.97392">
        <ele>1654</ele>
        <time>2022-07-23T07:38:03.000Z</time>
      </trkpt>
      <trkpt lat="44.10151" lon="6.9741">
        <ele>1655.5999755859</ele>
        <time>2022-07-23T07:38:08.000Z</time>
      </trkpt>
      <trkpt lat="44.10152" lon="6.97413">
        <ele>1655.8000488281</ele>
        <time>2022-07-23T07:38:09.000Z</time>
      </trkpt>
      <trkpt lat="44.10156" lon="6.97423">
        <ele>1657</ele>
        <time>2022-07-23T07:38:12.000Z</time>
      </trkpt>
      <trkpt lat="44.10158" lon="6.9743">
        <ele>1658.4000244141</ele>
        <time>2022-07-23T07:38:15.000Z</time>
      </trkpt>
      <trkpt lat="44.1016" lon="6.97433">
        <ele>1659.4000244141</ele>
        <time>2022-07-23T07:38:17.000Z</time>
      </trkpt>
      <trkpt lat="44.10162" lon="6.97433">
        <ele>1659.4000244141</ele>
        <time>2022-07-23T07:38:18.000Z</time>
      </trkpt>
      <trkpt lat="44.10163" lon="6.97432">
        <ele>1659.8000488281</ele>
        <time>2022-07-23T07:38:19.000Z</time>
      </trkpt>
      <trkpt lat="44.10165" lon="6.97431">
        <ele>1660.4000244141</ele>
        <time>2022-07-23T07:38:25.000Z</time>
      </trkpt>
      <trkpt lat="44.10164" lon="6.97431">
        <ele>1660.5999755859</ele>
        <time>2022-07-23T07:38:38.000Z</time>
      </trkpt>
      <trkpt lat="44.10164" lon="6.9743">
        <ele>1660.1999511719</ele>
        <time>2022-07-23T07:38:46.000Z</time>
      </trkpt>
      <trkpt lat="44.10166" lon="6.97429">
        <ele>1660.5999755859</ele>
        <time>2022-07-23T07:38:55.000Z</time>
      </trkpt>
      <trkpt lat="44.10167" lon="6.97428">
        <ele>1660.4000244141</ele>
        <time>2022-07-23T07:39:12.000Z</time>
      </trkpt>
      <trkpt lat="44.10169" lon="6.97425">
        <ele>1660.4000244141</ele>
        <time>2022-07-23T07:39:22.000Z</time>
      </trkpt>
      <trkpt lat="44.10171" lon="6.97423">
        <ele>1660.4000244141</ele>
        <time>2022-07-23T07:39:23.000Z</time>
      </trkpt>
      <trkpt lat="44.1018" lon="6.97412">
        <ele>1660.8000488281</ele>
        <time>2022-07-23T07:39:28.000Z</time>
      </trkpt>
      <trkpt lat="44.1019" lon="6.97396">
        <ele>1661.1999511719</ele>
        <time>2022-07-23T07:39:33.000Z</time>
      </trkpt>
      <trkpt lat="44.10196" lon="6.97384">
        <ele>1661.1999511719</ele>
        <time>2022-07-23T07:39:38.000Z</time>
      </trkpt>
      <trkpt lat="44.10203" lon="6.97373">
        <ele>1661.1999511719</ele>
        <time>2022-07-23T07:39:43.000Z</time>
      </trkpt>
      <trkpt lat="44.10204" lon="6.97371">
        <ele>1661.1999511719</ele>
        <time>2022-07-23T07:39:44.000Z</time>
      </trkpt>
      <trkpt lat="44.10211" lon="6.97362">
        <ele>1661.4000244141</ele>
        <time>2022-07-23T07:39:48.000Z</time>
      </trkpt>
      <trkpt lat="44.10221" lon="6.97349">
        <ele>1661.4000244141</ele>
        <time>2022-07-23T07:39:53.000Z</time>
      </trkpt>
      <trkpt lat="44.10231" lon="6.97332">
        <ele>1661</ele>
        <time>2022-07-23T07:39:58.000Z</time>
      </trkpt>
      <trkpt lat="44.10237" lon="6.97316">
        <ele>1661.5999755859</ele>
        <time>2022-07-23T07:40:02.000Z</time>
      </trkpt>
      <trkpt lat="44.1024" lon="6.97308">
        <ele>1661.8000488281</ele>
        <time>2022-07-23T07:40:04.000Z</time>
      </trkpt>
      <trkpt lat="44.10242" lon="6.97301">
        <ele>1662</ele>
        <time>2022-07-23T07:40:06.000Z</time>
      </trkpt>
      <trkpt lat="44.10245" lon="6.97294">
        <ele>1662</ele>
        <time>2022-07-23T07:40:08.000Z</time>
      </trkpt>
      <trkpt lat="44.10251" lon="6.97279">
        <ele>1662</ele>
        <time>2022-07-23T07:40:12.000Z</time>
      </trkpt>
      <trkpt lat="44.10254" lon="6.97262">
        <ele>1662</ele>
        <time>2022-07-23T07:40:16.000Z</time>
      </trkpt>
      <trkpt lat="44.10254" lon="6.97257">
        <ele>1662.1999511719</ele>
        <time>2022-07-23T07:40:17.000Z</time>
      </trkpt>
      <trkpt lat="44.10257" lon="6.9725">
        <ele>1662.8000488281</ele>
        <time>2022-07-23T07:40:19.000Z</time>
      </trkpt>
      <trkpt lat="44.10261" lon="6.97234">
        <ele>1663</ele>
        <time>2022-07-23T07:40:24.000Z</time>
      </trkpt>
      <trkpt lat="44.10267" lon="6.97214">
        <ele>1663</ele>
        <time>2022-07-23T07:40:29.000Z</time>
      </trkpt>
      <trkpt lat="44.10271" lon="6.97195">
        <ele>1663.1999511719</ele>
        <time>2022-07-23T07:40:34.000Z</time>
      </trkpt>
      <trkpt lat="44.10272" lon="6.97192">
        <ele>1663.1999511719</ele>
        <time>2022-07-23T07:40:35.000Z</time>
      </trkpt>
      <trkpt lat="44.10277" lon="6.97183">
        <ele>1663.4000244141</ele>
        <time>2022-07-23T07:40:39.000Z</time>
      </trkpt>
      <trkpt lat="44.10282" lon="6.97164">
        <ele>1663.5999755859</ele>
        <time>2022-07-23T07:40:44.000Z</time>
      </trkpt>
      <trkpt lat="44.10283" lon="6.9716">
        <ele>1663.4000244141</ele>
        <time>2022-07-23T07:40:45.000Z</time>
      </trkpt>
      <trkpt lat="44.10286" lon="6.97152">
        <ele>1663.8000488281</ele>
        <time>2022-07-23T07:40:47.000Z</time>
      </trkpt>
      <trkpt lat="44.10288" lon="6.97147">
        <ele>1664.1999511719</ele>
        <time>2022-07-23T07:40:49.000Z</time>
      </trkpt>
      <trkpt lat="44.10292" lon="6.97136">
        <ele>1664.8000488281</ele>
        <time>2022-07-23T07:40:53.000Z</time>
      </trkpt>
      <trkpt lat="44.10294" lon="6.97132">
        <ele>1664.8000488281</ele>
        <time>2022-07-23T07:40:54.000Z</time>
      </trkpt>
      <trkpt lat="44.10298" lon="6.97119">
        <ele>1665</ele>
        <time>2022-07-23T07:40:58.000Z</time>
      </trkpt>
      <trkpt lat="44.103" lon="6.97116">
        <ele>1664.8000488281</ele>
        <time>2022-07-23T07:40:59.000Z</time>
      </trkpt>
      <trkpt lat="44.10311" lon="6.97096">
        <ele>1665.1999511719</ele>
        <time>2022-07-23T07:41:05.000Z</time>
      </trkpt>
      <trkpt lat="44.10322" lon="6.97082">
        <ele>1665</ele>
        <time>2022-07-23T07:41:09.000Z</time>
      </trkpt>
      <trkpt lat="44.10328" lon="6.97069">
        <ele>1664.1999511719</ele>
        <time>2022-07-23T07:41:13.000Z</time>
      </trkpt>
      <trkpt lat="44.10333" lon="6.97051">
        <ele>1665.1999511719</ele>
        <time>2022-07-23T07:41:18.000Z</time>
      </trkpt>
      <trkpt lat="44.10333" lon="6.97036">
        <ele>1666.1999511719</ele>
        <time>2022-07-23T07:41:22.000Z</time>
      </trkpt>
      <trkpt lat="44.10334" lon="6.97029">
        <ele>1667</ele>
        <time>2022-07-23T07:41:24.000Z</time>
      </trkpt>
      <trkpt lat="44.10335" lon="6.97026">
        <ele>1667.1999511719</ele>
        <time>2022-07-23T07:41:25.000Z</time>
      </trkpt>
      <trkpt lat="44.10337" lon="6.97024">
        <ele>1667.5999755859</ele>
        <time>2022-07-23T07:41:26.000Z</time>
      </trkpt>
      <trkpt lat="44.10344" lon="6.97022">
        <ele>1668.1999511719</ele>
        <time>2022-07-23T07:41:29.000Z</time>
      </trkpt>
      <trkpt lat="44.10346" lon="6.97026">
        <ele>1669</ele>
        <time>2022-07-23T07:41:31.000Z</time>
      </trkpt>
      <trkpt lat="44.10347" lon="6.97029">
        <ele>1669.4000244141</ele>
        <time>2022-07-23T07:41:32.000Z</time>
      </trkpt>
      <trkpt lat="44.10348" lon="6.97034">
        <ele>1670.5999755859</ele>
        <time>2022-07-23T07:41:34.000Z</time>
      </trkpt>
      <trkpt lat="44.1035" lon="6.97038">
        <ele>1671.5999755859</ele>
        <time>2022-07-23T07:41:36.000Z</time>
      </trkpt>
      <trkpt lat="44.10352" lon="6.97047">
        <ele>1672.8000488281</ele>
        <time>2022-07-23T07:41:39.000Z</time>
      </trkpt>
      <trkpt lat="44.10354" lon="6.97049">
        <ele>1673</ele>
        <time>2022-07-23T07:41:40.000Z</time>
      </trkpt>
      <trkpt lat="44.10357" lon="6.97058">
        <ele>1674.1999511719</ele>
        <time>2022-07-23T07:41:43.000Z</time>
      </trkpt>
      <trkpt lat="44.10362" lon="6.97065">
        <ele>1675.5999755859</ele>
        <time>2022-07-23T07:41:46.000Z</time>
      </trkpt>
      <trkpt lat="44.10365" lon="6.9707">
        <ele>1676.4000244141</ele>
        <time>2022-07-23T07:41:48.000Z</time>
      </trkpt>
      <trkpt lat="44.10367" lon="6.97071">
        <ele>1676.5999755859</ele>
        <time>2022-07-23T07:41:49.000Z</time>
      </trkpt>
      <trkpt lat="44.10372" lon="6.97077">
        <ele>1678</ele>
        <time>2022-07-23T07:41:52.000Z</time>
      </trkpt>
      <trkpt lat="44.10375" lon="6.97082">
        <ele>1679</ele>
        <time>2022-07-23T07:41:54.000Z</time>
      </trkpt>
      <trkpt lat="44.10382" lon="6.97089">
        <ele>1680.5999755859</ele>
        <time>2022-07-23T07:41:58.000Z</time>
      </trkpt>
      <trkpt lat="44.10387" lon="6.97093">
        <ele>1682</ele>
        <time>2022-07-23T07:42:01.000Z</time>
      </trkpt>
      <trkpt lat="44.10389" lon="6.97094">
        <ele>1682.4000244141</ele>
        <time>2022-07-23T07:42:02.000Z</time>
      </trkpt>
      <trkpt lat="44.10392" lon="6.97096">
        <ele>1683.4000244141</ele>
        <time>2022-07-23T07:42:04.000Z</time>
      </trkpt>
      <trkpt lat="44.104" lon="6.97101">
        <ele>1684.5999755859</ele>
        <time>2022-07-23T07:42:07.000Z</time>
      </trkpt>
      <trkpt lat="44.10414" lon="6.97099">
        <ele>1684.4000244141</ele>
        <time>2022-07-23T07:42:12.000Z</time>
      </trkpt>
      <trkpt lat="44.10423" lon="6.97095">
        <ele>1686</ele>
        <time>2022-07-23T07:42:16.000Z</time>
      </trkpt>
      <trkpt lat="44.10426" lon="6.97091">
        <ele>1686.4000244141</ele>
        <time>2022-07-23T07:42:18.000Z</time>
      </trkpt>
      <trkpt lat="44.10434" lon="6.97086">
        <ele>1686.8000488281</ele>
        <time>2022-07-23T07:42:21.000Z</time>
      </trkpt>
      <trkpt lat="44.10437" lon="6.97086">
        <ele>1687</ele>
        <time>2022-07-23T07:42:22.000Z</time>
      </trkpt>
      <trkpt lat="44.1044" lon="6.97089">
        <ele>1687.1999511719</ele>
        <time>2022-07-23T07:42:23.000Z</time>
      </trkpt>
      <trkpt lat="44.10459" lon="6.97101">
        <ele>1688</ele>
        <time>2022-07-23T07:42:30.000Z</time>
      </trkpt>
      <trkpt lat="44.10462" lon="6.97101">
        <ele>1688.4000244141</ele>
        <time>2022-07-23T07:42:31.000Z</time>
      </trkpt>
      <trkpt lat="44.10466" lon="6.97098">
        <ele>1688.4000244141</ele>
        <time>2022-07-23T07:42:33.000Z</time>
      </trkpt>
      <trkpt lat="44.10468" lon="6.97094">
        <ele>1688.5999755859</ele>
        <time>2022-07-23T07:42:34.000Z</time>
      </trkpt>
      <trkpt lat="44.10473" lon="6.97088">
        <ele>1689</ele>
        <time>2022-07-23T07:42:36.000Z</time>
      </trkpt>
      <trkpt lat="44.10475" lon="6.97088">
        <ele>1689</ele>
        <time>2022-07-23T07:42:37.000Z</time>
      </trkpt>
      <trkpt lat="44.10489" lon="6.97101">
        <ele>1690</ele>
        <time>2022-07-23T07:42:42.000Z</time>
      </trkpt>
      <trkpt lat="44.10503" lon="6.97107">
        <ele>1689.8000488281</ele>
        <time>2022-07-23T07:42:47.000Z</time>
      </trkpt>
      <trkpt lat="44.10506" lon="6.97107">
        <ele>1690.1999511719</ele>
        <time>2022-07-23T07:42:48.000Z</time>
      </trkpt>
      <trkpt lat="44.10511" lon="6.97107">
        <ele>1690.8000488281</ele>
        <time>2022-07-23T07:42:50.000Z</time>
      </trkpt>
      <trkpt lat="44.10513" lon="6.97108">
        <ele>1691.1999511719</ele>
        <time>2022-07-23T07:42:51.000Z</time>
      </trkpt>
      <trkpt lat="44.10528" lon="6.97114">
        <ele>1692.1999511719</ele>
        <time>2022-07-23T07:42:56.000Z</time>
      </trkpt>
      <trkpt lat="44.10532" lon="6.97115">
        <ele>1692.1999511719</ele>
        <time>2022-07-23T07:42:57.000Z</time>
      </trkpt>
      <trkpt lat="44.10545" lon="6.97117">
        <ele>1692.5999755859</ele>
        <time>2022-07-23T07:43:01.000Z</time>
      </trkpt>
      <trkpt lat="44.10557" lon="6.97122">
        <ele>1693.1999511719</ele>
        <time>2022-07-23T07:43:05.000Z</time>
      </trkpt>
      <trkpt lat="44.10566" lon="6.97123">
        <ele>1693.8000488281</ele>
        <time>2022-07-23T07:43:08.000Z</time>
      </trkpt>
      <trkpt lat="44.1057" lon="6.97123">
        <ele>1694</ele>
        <time>2022-07-23T07:43:09.000Z</time>
      </trkpt>
      <trkpt lat="44.10579" lon="6.97124">
        <ele>1694.5999755859</ele>
        <time>2022-07-23T07:43:12.000Z</time>
      </trkpt>
      <trkpt lat="44.10585" lon="6.97123">
        <ele>1695.1999511719</ele>
        <time>2022-07-23T07:43:14.000Z</time>
      </trkpt>
      <trkpt lat="44.10597" lon="6.9712">
        <ele>1695.5999755859</ele>
        <time>2022-07-23T07:43:18.000Z</time>
      </trkpt>
      <trkpt lat="44.10603" lon="6.97123">
        <ele>1695.8000488281</ele>
        <time>2022-07-23T07:43:20.000Z</time>
      </trkpt>
      <trkpt lat="44.10609" lon="6.97124">
        <ele>1696</ele>
        <time>2022-07-23T07:43:22.000Z</time>
      </trkpt>
      <trkpt lat="44.10618" lon="6.97122">
        <ele>1696.5999755859</ele>
        <time>2022-07-23T07:43:25.000Z</time>
      </trkpt>
      <trkpt lat="44.10621" lon="6.97121">
        <ele>1696.8000488281</ele>
        <time>2022-07-23T07:43:26.000Z</time>
      </trkpt>
      <trkpt lat="44.10635" lon="6.97119">
        <ele>1697.8000488281</ele>
        <time>2022-07-23T07:43:30.000Z</time>
      </trkpt>
      <trkpt lat="44.10638" lon="6.97119">
        <ele>1698</ele>
        <time>2022-07-23T07:43:31.000Z</time>
      </trkpt>
      <trkpt lat="44.10651" lon="6.97114">
        <ele>1699</ele>
        <time>2022-07-23T07:43:35.000Z</time>
      </trkpt>
      <trkpt lat="44.10655" lon="6.97112">
        <ele>1699.4000244141</ele>
        <time>2022-07-23T07:43:37.000Z</time>
      </trkpt>
      <trkpt lat="44.10666" lon="6.97107">
        <ele>1700</ele>
        <time>2022-07-23T07:43:41.000Z</time>
      </trkpt>
      <trkpt lat="44.10674" lon="6.971">
        <ele>1701</ele>
        <time>2022-07-23T07:43:45.000Z</time>
      </trkpt>
      <trkpt lat="44.10675" lon="6.97098">
        <ele>1701</ele>
        <time>2022-07-23T07:43:46.000Z</time>
      </trkpt>
      <trkpt lat="44.10675" lon="6.97094">
        <ele>1701.1999511719</ele>
        <time>2022-07-23T07:43:47.000Z</time>
      </trkpt>
      <trkpt lat="44.10677" lon="6.97089">
        <ele>1701.4000244141</ele>
        <time>2022-07-23T07:43:49.000Z</time>
      </trkpt>
      <trkpt lat="44.10679" lon="6.97087">
        <ele>1701.4000244141</ele>
        <time>2022-07-23T07:43:50.000Z</time>
      </trkpt>
      <trkpt lat="44.10682" lon="6.97089">
        <ele>1701.5999755859</ele>
        <time>2022-07-23T07:43:51.000Z</time>
      </trkpt>
      <trkpt lat="44.10686" lon="6.97092">
        <ele>1701.8000488281</ele>
        <time>2022-07-23T07:43:53.000Z</time>
      </trkpt>
      <trkpt lat="44.1069" lon="6.97091">
        <ele>1701.8000488281</ele>
        <time>2022-07-23T07:43:55.000Z</time>
      </trkpt>
      <trkpt lat="44.10693" lon="6.97093">
        <ele>1702</ele>
        <time>2022-07-23T07:43:56.000Z</time>
      </trkpt>
      <trkpt lat="44.10696" lon="6.97093">
        <ele>1702.1999511719</ele>
        <time>2022-07-23T07:43:57.000Z</time>
      </trkpt>
      <trkpt lat="44.10716" lon="6.97092">
        <ele>1703.1999511719</ele>
        <time>2022-07-23T07:44:05.000Z</time>
      </trkpt>
      <trkpt lat="44.10718" lon="6.9709">
        <ele>1703.4000244141</ele>
        <time>2022-07-23T07:44:06.000Z</time>
      </trkpt>
      <trkpt lat="44.10721" lon="6.97088">
        <ele>1703.8000488281</ele>
        <time>2022-07-23T07:44:08.000Z</time>
      </trkpt>
      <trkpt lat="44.10723" lon="6.97088">
        <ele>1704</ele>
        <time>2022-07-23T07:44:09.000Z</time>
      </trkpt>
      <trkpt lat="44.10728" lon="6.97091">
        <ele>1704.4000244141</ele>
        <time>2022-07-23T07:44:11.000Z</time>
      </trkpt>
      <trkpt lat="44.10733" lon="6.97095">
        <ele>1704.5999755859</ele>
        <time>2022-07-23T07:44:13.000Z</time>
      </trkpt>
      <trkpt lat="44.10739" lon="6.971">
        <ele>1705</ele>
        <time>2022-07-23T07:44:16.000Z</time>
      </trkpt>
      <trkpt lat="44.10745" lon="6.971">
        <ele>1705.1999511719</ele>
        <time>2022-07-23T07:44:18.000Z</time>
      </trkpt>
      <trkpt lat="44.10757" lon="6.97101">
        <ele>1705.4000244141</ele>
        <time>2022-07-23T07:44:22.000Z</time>
      </trkpt>
      <trkpt lat="44.10766" lon="6.97101">
        <ele>1705.8000488281</ele>
        <time>2022-07-23T07:44:25.000Z</time>
      </trkpt>
      <trkpt lat="44.10784" lon="6.97095">
        <ele>1706.5999755859</ele>
        <time>2022-07-23T07:44:31.000Z</time>
      </trkpt>
      <trkpt lat="44.10791" lon="6.97077">
        <ele>1707.4000244141</ele>
        <time>2022-07-23T07:44:37.000Z</time>
      </trkpt>
      <trkpt lat="44.10793" lon="6.97072">
        <ele>1707.5999755859</ele>
        <time>2022-07-23T07:44:39.000Z</time>
      </trkpt>
      <trkpt lat="44.10796" lon="6.97068">
        <ele>1707.8000488281</ele>
        <time>2022-07-23T07:44:41.000Z</time>
      </trkpt>
      <trkpt lat="44.10798" lon="6.97069">
        <ele>1707.8000488281</ele>
        <time>2022-07-23T07:44:42.000Z</time>
      </trkpt>
      <trkpt lat="44.10803" lon="6.97076">
        <ele>1708.5999755859</ele>
        <time>2022-07-23T07:44:45.000Z</time>
      </trkpt>
      <trkpt lat="44.10804" lon="6.97079">
        <ele>1709.1999511719</ele>
        <time>2022-07-23T07:44:46.000Z</time>
      </trkpt>
      <trkpt lat="44.10806" lon="6.97082">
        <ele>1709.5999755859</ele>
        <time>2022-07-23T07:44:48.000Z</time>
      </trkpt>
      <trkpt lat="44.10809" lon="6.97086">
        <ele>1710</ele>
        <time>2022-07-23T07:44:51.000Z</time>
      </trkpt>
      <trkpt lat="44.10811" lon="6.97088">
        <ele>1710.4000244141</ele>
        <time>2022-07-23T07:44:52.000Z</time>
      </trkpt>
      <trkpt lat="44.10814" lon="6.9709">
        <ele>1710.8000488281</ele>
        <time>2022-07-23T07:44:54.000Z</time>
      </trkpt>
      <trkpt lat="44.10819" lon="6.97094">
        <ele>1711.8000488281</ele>
        <time>2022-07-23T07:44:57.000Z</time>
      </trkpt>
      <trkpt lat="44.1082" lon="6.97095">
        <ele>1712.1999511719</ele>
        <time>2022-07-23T07:44:58.000Z</time>
      </trkpt>
      <trkpt lat="44.10827" lon="6.97101">
        <ele>1713</ele>
        <time>2022-07-23T07:45:01.000Z</time>
      </trkpt>
      <trkpt lat="44.10837" lon="6.97111">
        <ele>1713.5999755859</ele>
        <time>2022-07-23T07:45:05.000Z</time>
      </trkpt>
      <trkpt lat="44.10844" lon="6.9712">
        <ele>1714.1999511719</ele>
        <time>2022-07-23T07:45:08.000Z</time>
      </trkpt>
      <trkpt lat="44.10852" lon="6.97126">
        <ele>1714.5999755859</ele>
        <time>2022-07-23T07:45:11.000Z</time>
      </trkpt>
      <trkpt lat="44.10862" lon="6.97139">
        <ele>1715.1999511719</ele>
        <time>2022-07-23T07:45:15.000Z</time>
      </trkpt>
      <trkpt lat="44.10864" lon="6.97142">
        <ele>1715.1999511719</ele>
        <time>2022-07-23T07:45:16.000Z</time>
      </trkpt>
      <trkpt lat="44.1087" lon="6.9716">
        <ele>1715.5999755859</ele>
        <time>2022-07-23T07:45:20.000Z</time>
      </trkpt>
      <trkpt lat="44.1088" lon="6.9718">
        <ele>1714.1999511719</ele>
        <time>2022-07-23T07:45:25.000Z</time>
      </trkpt>
      <trkpt lat="44.10882" lon="6.97184">
        <ele>1714.1999511719</ele>
        <time>2022-07-23T07:45:26.000Z</time>
      </trkpt>
      <trkpt lat="44.10889" lon="6.97198">
        <ele>1714.1999511719</ele>
        <time>2022-07-23T07:45:30.000Z</time>
      </trkpt>
      <trkpt lat="44.10897" lon="6.97205">
        <ele>1713.4000244141</ele>
        <time>2022-07-23T07:45:34.000Z</time>
      </trkpt>
      <trkpt lat="44.10906" lon="6.97212">
        <ele>1713.8000488281</ele>
        <time>2022-07-23T07:45:38.000Z</time>
      </trkpt>
      <trkpt lat="44.10913" lon="6.97222">
        <ele>1714.4000244141</ele>
        <time>2022-07-23T07:45:42.000Z</time>
      </trkpt>
      <trkpt lat="44.1092" lon="6.97228">
        <ele>1714.5999755859</ele>
        <time>2022-07-23T07:45:45.000Z</time>
      </trkpt>
      <trkpt lat="44.10922" lon="6.97229">
        <ele>1714.5999755859</ele>
        <time>2022-07-23T07:45:46.000Z</time>
      </trkpt>
      <trkpt lat="44.10935" lon="6.97236">
        <ele>1715</ele>
        <time>2022-07-23T07:45:51.000Z</time>
      </trkpt>
      <trkpt lat="44.10943" lon="6.97243">
        <ele>1715.1999511719</ele>
        <time>2022-07-23T07:45:54.000Z</time>
      </trkpt>
      <trkpt lat="44.10952" lon="6.97246">
        <ele>1714.8000488281</ele>
        <time>2022-07-23T07:45:57.000Z</time>
      </trkpt>
      <trkpt lat="44.10968" lon="6.97252">
        <ele>1715.4000244141</ele>
        <time>2022-07-23T07:46:03.000Z</time>
      </trkpt>
      <trkpt lat="44.1097" lon="6.9725">
        <ele>1715.1999511719</ele>
        <time>2022-07-23T07:46:06.000Z</time>
      </trkpt>
      <trkpt lat="44.10972" lon="6.97247">
        <ele>1715.1999511719</ele>
        <time>2022-07-23T07:46:08.000Z</time>
      </trkpt>
      <trkpt lat="44.10975" lon="6.97248">
        <ele>1715.5999755859</ele>
        <time>2022-07-23T07:46:10.000Z</time>
      </trkpt>
      <trkpt lat="44.10975" lon="6.97247">
        <ele>1715.8000488281</ele>
        <time>2022-07-23T07:46:15.000Z</time>
      </trkpt>
      <trkpt lat="44.10975" lon="6.97246">
        <ele>1715.4000244141</ele>
        <time>2022-07-23T07:46:22.000Z</time>
      </trkpt>
      <trkpt lat="44.10976" lon="6.97246">
        <ele>1715.4000244141</ele>
        <time>2022-07-23T07:46:29.000Z</time>
      </trkpt>
      <trkpt lat="44.10978" lon="6.97248">
        <ele>1715.4000244141</ele>
        <time>2022-07-23T07:46:38.000Z</time>
      </trkpt>
      <trkpt lat="44.10978" lon="6.97245">
        <ele>1715.5999755859</ele>
        <time>2022-07-23T07:46:41.000Z</time>
      </trkpt>
      <trkpt lat="44.10977" lon="6.97244">
        <ele>1715.4000244141</ele>
        <time>2022-07-23T07:46:44.000Z</time>
      </trkpt>
      <trkpt lat="44.10977" lon="6.97243">
        <ele>1715.8000488281</ele>
        <time>2022-07-23T07:46:51.000Z</time>
      </trkpt>
      <trkpt lat="44.10974" lon="6.9724">
        <ele>1715.5999755859</ele>
        <time>2022-07-23T07:47:07.000Z</time>
      </trkpt>
      <trkpt lat="44.10975" lon="6.97244">
        <ele>1715.8000488281</ele>
        <time>2022-07-23T07:47:12.000Z</time>
      </trkpt>
      <trkpt lat="44.10977" lon="6.97246">
        <ele>1715.4000244141</ele>
        <time>2022-07-23T07:47:20.000Z</time>
      </trkpt>
      <trkpt lat="44.10978" lon="6.97247">
        <ele>1715.1999511719</ele>
        <time>2022-07-23T07:47:30.000Z</time>
      </trkpt>
      <trkpt lat="44.10979" lon="6.97248">
        <ele>1715.1999511719</ele>
        <time>2022-07-23T07:47:38.000Z</time>
      </trkpt>
      <trkpt lat="44.1098" lon="6.97248">
        <ele>1715.4000244141</ele>
        <time>2022-07-23T07:47:45.000Z</time>
      </trkpt>
      <trkpt lat="44.1098" lon="6.97248">
        <ele>1715.4000244141</ele>
        <time>2022-07-23T07:47:53.000Z</time>
      </trkpt>
      <trkpt lat="44.10979" lon="6.9725">
        <ele>1715.1999511719</ele>
        <time>2022-07-23T07:48:03.000Z</time>
      </trkpt>
      <trkpt lat="44.1098" lon="6.9725">
        <ele>1715.4000244141</ele>
        <time>2022-07-23T07:48:08.000Z</time>
      </trkpt>
      <trkpt lat="44.10982" lon="6.97251">
        <ele>1715</ele>
        <time>2022-07-23T07:48:23.000Z</time>
      </trkpt>
      <trkpt lat="44.10982" lon="6.97251">
        <ele>1715.4000244141</ele>
        <time>2022-07-23T07:48:34.000Z</time>
      </trkpt>
      <trkpt lat="44.10983" lon="6.97252">
        <ele>1715.4000244141</ele>
        <time>2022-07-23T07:48:51.000Z</time>
      </trkpt>
      <trkpt lat="44.10983" lon="6.97252">
        <ele>1715.4000244141</ele>
        <time>2022-07-23T07:49:04.000Z</time>
      </trkpt>
      <trkpt lat="44.10983" lon="6.97251">
        <ele>1715.5999755859</ele>
        <time>2022-07-23T07:49:18.000Z</time>
      </trkpt>
      <trkpt lat="44.10982" lon="6.97253">
        <ele>1715.4000244141</ele>
        <time>2022-07-23T07:49:31.000Z</time>
      </trkpt>
      <trkpt lat="44.10981" lon="6.97255">
        <ele>1715.4000244141</ele>
        <time>2022-07-23T07:49:47.000Z</time>
      </trkpt>
      <trkpt lat="44.10981" lon="6.97254">
        <ele>1715.1999511719</ele>
        <time>2022-07-23T07:49:53.000Z</time>
      </trkpt>
      <trkpt lat="44.10981" lon="6.97253">
        <ele>1715.1999511719</ele>
        <time>2022-07-23T07:49:59.000Z</time>
      </trkpt>
      <trkpt lat="44.10982" lon="6.97253">
        <ele>1715.5999755859</ele>
        <time>2022-07-23T07:50:11.000Z</time>
      </trkpt>
      <trkpt lat="44.10984" lon="6.97251">
        <ele>1715.5999755859</ele>
        <time>2022-07-23T07:50:23.000Z</time>
      </trkpt>
      <trkpt lat="44.10984" lon="6.9725">
        <ele>1715.5999755859</ele>
        <time>2022-07-23T07:50:24.000Z</time>
      </trkpt>
      <trkpt lat="44.10985" lon="6.97242">
        <ele>1716.1999511719</ele>
        <time>2022-07-23T07:50:28.000Z</time>
      </trkpt>
      <trkpt lat="44.10986" lon="6.97237">
        <ele>1716.8000488281</ele>
        <time>2022-07-23T07:50:30.000Z</time>
      </trkpt>
      <trkpt lat="44.10987" lon="6.97229">
        <ele>1717.1999511719</ele>
        <time>2022-07-23T07:50:33.000Z</time>
      </trkpt>
      <trkpt lat="44.10985" lon="6.97225">
        <ele>1717.5999755859</ele>
        <time>2022-07-23T07:50:35.000Z</time>
      </trkpt>
      <trkpt lat="44.10981" lon="6.9722">
        <ele>1718.4000244141</ele>
        <time>2022-07-23T07:50:38.000Z</time>
      </trkpt>
      <trkpt lat="44.1098" lon="6.97218">
        <ele>1718.5999755859</ele>
        <time>2022-07-23T07:50:40.000Z</time>
      </trkpt>
      <trkpt lat="44.10979" lon="6.97217">
        <ele>1718.4000244141</ele>
        <time>2022-07-23T07:50:48.000Z</time>
      </trkpt>
      <trkpt lat="44.10976" lon="6.9721">
        <ele>1718.5999755859</ele>
        <time>2022-07-23T07:51:07.000Z</time>
      </trkpt>
      <trkpt lat="44.10964" lon="6.97198">
        <ele>1719.4000244141</ele>
        <time>2022-07-23T07:51:13.000Z</time>
      </trkpt>
      <trkpt lat="44.10955" lon="6.97182">
        <ele>1719.8000488281</ele>
        <time>2022-07-23T07:51:18.000Z</time>
      </trkpt>
      <trkpt lat="44.10953" lon="6.97176">
        <ele>1720.4000244141</ele>
        <time>2022-07-23T07:51:20.000Z</time>
      </trkpt>
      <trkpt lat="44.10952" lon="6.97168">
        <ele>1721.1999511719</ele>
        <time>2022-07-23T07:51:23.000Z</time>
      </trkpt>
      <trkpt lat="44.10949" lon="6.97162">
        <ele>1722</ele>
        <time>2022-07-23T07:51:25.000Z</time>
      </trkpt>
      <trkpt lat="44.10946" lon="6.97153">
        <ele>1722.8000488281</ele>
        <time>2022-07-23T07:51:28.000Z</time>
      </trkpt>
      <trkpt lat="44.10945" lon="6.97151">
        <ele>1723.1999511719</ele>
        <time>2022-07-23T07:51:29.000Z</time>
      </trkpt>
      <trkpt lat="44.10939" lon="6.97144">
        <ele>1724.1999511719</ele>
        <time>2022-07-23T07:51:32.000Z</time>
      </trkpt>
      <trkpt lat="44.10935" lon="6.97139">
        <ele>1724.8000488281</ele>
        <time>2022-07-23T07:51:34.000Z</time>
      </trkpt>
      <trkpt lat="44.10932" lon="6.97134">
        <ele>1725.4000244141</ele>
        <time>2022-07-23T07:51:36.000Z</time>
      </trkpt>
      <trkpt lat="44.10929" lon="6.9713">
        <ele>1725.4000244141</ele>
        <time>2022-07-23T07:51:37.000Z</time>
      </trkpt>
      <trkpt lat="44.10917" lon="6.97114">
        <ele>1726.4000244141</ele>
        <time>2022-07-23T07:51:43.000Z</time>
      </trkpt>
      <trkpt lat="44.10912" lon="6.97103">
        <ele>1727.4000244141</ele>
        <time>2022-07-23T07:51:46.000Z</time>
      </trkpt>
      <trkpt lat="44.10909" lon="6.971">
        <ele>1727.8000488281</ele>
        <time>2022-07-23T07:51:47.000Z</time>
      </trkpt>
      <trkpt lat="44.10906" lon="6.97093">
        <ele>1729</ele>
        <time>2022-07-23T07:51:49.000Z</time>
      </trkpt>
      <trkpt lat="44.10902" lon="6.97089">
        <ele>1729.8000488281</ele>
        <time>2022-07-23T07:51:51.000Z</time>
      </trkpt>
      <trkpt lat="44.109" lon="6.97086">
        <ele>1730.1999511719</ele>
        <time>2022-07-23T07:51:52.000Z</time>
      </trkpt>
      <trkpt lat="44.10896" lon="6.97074">
        <ele>1730.5999755859</ele>
        <time>2022-07-23T07:51:55.000Z</time>
      </trkpt>
      <trkpt lat="44.10893" lon="6.97071">
        <ele>1731.4000244141</ele>
        <time>2022-07-23T07:51:57.000Z</time>
      </trkpt>
      <trkpt lat="44.10889" lon="6.97066">
        <ele>1732.1999511719</ele>
        <time>2022-07-23T07:51:59.000Z</time>
      </trkpt>
      <trkpt lat="44.10886" lon="6.97063">
        <ele>1732.5999755859</ele>
        <time>2022-07-23T07:52:00.000Z</time>
      </trkpt>
      <trkpt lat="44.10878" lon="6.97053">
        <ele>1733.5999755859</ele>
        <time>2022-07-23T07:52:04.000Z</time>
      </trkpt>
      <trkpt lat="44.10874" lon="6.9705">
        <ele>1734.8000488281</ele>
        <time>2022-07-23T07:52:07.000Z</time>
      </trkpt>
      <trkpt lat="44.10863" lon="6.97036">
        <ele>1735.8000488281</ele>
        <time>2022-07-23T07:52:12.000Z</time>
      </trkpt>
      <trkpt lat="44.10858" lon="6.97029">
        <ele>1736.4000244141</ele>
        <time>2022-07-23T07:52:15.000Z</time>
      </trkpt>
      <trkpt lat="44.10856" lon="6.97027">
        <ele>1736.8000488281</ele>
        <time>2022-07-23T07:52:16.000Z</time>
      </trkpt>
      <trkpt lat="44.10854" lon="6.97025">
        <ele>1737</ele>
        <time>2022-07-23T07:52:17.000Z</time>
      </trkpt>
      <trkpt lat="44.10843" lon="6.97013">
        <ele>1737.5999755859</ele>
        <time>2022-07-23T07:52:22.000Z</time>
      </trkpt>
      <trkpt lat="44.10832" lon="6.96999">
        <ele>1737.8000488281</ele>
        <time>2022-07-23T07:52:27.000Z</time>
      </trkpt>
      <trkpt lat="44.10827" lon="6.96994">
        <ele>1738</ele>
        <time>2022-07-23T07:52:29.000Z</time>
      </trkpt>
      <trkpt lat="44.10821" lon="6.96984">
        <ele>1738.1999511719</ele>
        <time>2022-07-23T07:52:33.000Z</time>
      </trkpt>
      <trkpt lat="44.10819" lon="6.96983">
        <ele>1738.1999511719</ele>
        <time>2022-07-23T07:52:34.000Z</time>
      </trkpt>
      <trkpt lat="44.10815" lon="6.96983">
        <ele>1738</ele>
        <time>2022-07-23T07:52:36.000Z</time>
      </trkpt>
      <trkpt lat="44.10801" lon="6.96983">
        <ele>1737</ele>
        <time>2022-07-23T07:52:40.000Z</time>
      </trkpt>
      <trkpt lat="44.10797" lon="6.96984">
        <ele>1737</ele>
        <time>2022-07-23T07:52:41.000Z</time>
      </trkpt>
      <trkpt lat="44.10788" lon="6.96984">
        <ele>1737</ele>
        <time>2022-07-23T07:52:43.000Z</time>
      </trkpt>
      <trkpt lat="44.10781" lon="6.96989">
        <ele>1736.1999511719</ele>
        <time>2022-07-23T07:52:46.000Z</time>
      </trkpt>
      <trkpt lat="44.10777" lon="6.9699">
        <ele>1735.8000488281</ele>
        <time>2022-07-23T07:52:47.000Z</time>
      </trkpt>
      <trkpt lat="44.10766" lon="6.96993">
        <ele>1735.4000244141</ele>
        <time>2022-07-23T07:52:50.000Z</time>
      </trkpt>
      <trkpt lat="44.10763" lon="6.96994">
        <ele>1735</ele>
        <time>2022-07-23T07:52:51.000Z</time>
      </trkpt>
      <trkpt lat="44.10754" lon="6.96997">
        <ele>1735</ele>
        <time>2022-07-23T07:52:53.000Z</time>
      </trkpt>
      <trkpt lat="44.1075" lon="6.96997">
        <ele>1735</ele>
        <time>2022-07-23T07:52:54.000Z</time>
      </trkpt>
      <trkpt lat="44.10746" lon="6.96997">
        <ele>1734.8000488281</ele>
        <time>2022-07-23T07:52:55.000Z</time>
      </trkpt>
      <trkpt lat="44.10741" lon="6.96996">
        <ele>1734.5999755859</ele>
        <time>2022-07-23T07:52:56.000Z</time>
      </trkpt>
      <trkpt lat="44.10725" lon="6.96997">
        <ele>1733.5999755859</ele>
        <time>2022-07-23T07:52:59.000Z</time>
      </trkpt>
      <trkpt lat="44.1072" lon="6.96997">
        <ele>1733.1999511719</ele>
        <time>2022-07-23T07:53:00.000Z</time>
      </trkpt>
      <trkpt lat="44.10712" lon="6.96996">
        <ele>1732.5999755859</ele>
        <time>2022-07-23T07:53:02.000Z</time>
      </trkpt>
      <trkpt lat="44.10708" lon="6.96992">
        <ele>1732.5999755859</ele>
        <time>2022-07-23T07:53:03.000Z</time>
      </trkpt>
      <trkpt lat="44.10697" lon="6.96982">
        <ele>1731.8000488281</ele>
        <time>2022-07-23T07:53:07.000Z</time>
      </trkpt>
      <trkpt lat="44.10696" lon="6.96983">
        <ele>1731.4000244141</ele>
        <time>2022-07-23T07:53:08.000Z</time>
      </trkpt>
      <trkpt lat="44.10691" lon="6.96987">
        <ele>1731</ele>
        <time>2022-07-23T07:53:10.000Z</time>
      </trkpt>
      <trkpt lat="44.10681" lon="6.96981">
        <ele>1731.5999755859</ele>
        <time>2022-07-23T07:53:13.000Z</time>
      </trkpt>
      <trkpt lat="44.10676" lon="6.96979">
        <ele>1732</ele>
        <time>2022-07-23T07:53:14.000Z</time>
      </trkpt>
      <trkpt lat="44.10667" lon="6.9698">
        <ele>1731.1999511719</ele>
        <time>2022-07-23T07:53:16.000Z</time>
      </trkpt>
      <trkpt lat="44.1066" lon="6.96981">
        <ele>1730</ele>
        <time>2022-07-23T07:53:19.000Z</time>
      </trkpt>
      <trkpt lat="44.10658" lon="6.96981">
        <ele>1729.5999755859</ele>
        <time>2022-07-23T07:53:20.000Z</time>
      </trkpt>
      <trkpt lat="44.10651" lon="6.96978">
        <ele>1728.8000488281</ele>
        <time>2022-07-23T07:53:23.000Z</time>
      </trkpt>
      <trkpt lat="44.10647" lon="6.96979">
        <ele>1728</ele>
        <time>2022-07-23T07:53:25.000Z</time>
      </trkpt>
      <trkpt lat="44.10645" lon="6.9698">
        <ele>1728</ele>
        <time>2022-07-23T07:53:26.000Z</time>
      </trkpt>
      <trkpt lat="44.10636" lon="6.96982">
        <ele>1729.5999755859</ele>
        <time>2022-07-23T07:53:30.000Z</time>
      </trkpt>
      <trkpt lat="44.10634" lon="6.96981">
        <ele>1730</ele>
        <time>2022-07-23T07:53:31.000Z</time>
      </trkpt>
      <trkpt lat="44.10619" lon="6.96982">
        <ele>1730.5999755859</ele>
        <time>2022-07-23T07:53:36.000Z</time>
      </trkpt>
      <trkpt lat="44.10606" lon="6.96983">
        <ele>1730.4000244141</ele>
        <time>2022-07-23T07:53:41.000Z</time>
      </trkpt>
      <trkpt lat="44.10593" lon="6.96981">
        <ele>1730</ele>
        <time>2022-07-23T07:53:47.000Z</time>
      </trkpt>
      <trkpt lat="44.10592" lon="6.96982">
        <ele>1730</ele>
        <time>2022-07-23T07:53:48.000Z</time>
      </trkpt>
      <trkpt lat="44.10587" lon="6.96985">
        <ele>1729.1999511719</ele>
        <time>2022-07-23T07:53:50.000Z</time>
      </trkpt>
      <trkpt lat="44.10585" lon="6.96987">
        <ele>1728.8000488281</ele>
        <time>2022-07-23T07:53:51.000Z</time>
      </trkpt>
      <trkpt lat="44.10571" lon="6.96997">
        <ele>1728.8000488281</ele>
        <time>2022-07-23T07:53:56.000Z</time>
      </trkpt>
      <trkpt lat="44.10566" lon="6.96999">
        <ele>1728.8000488281</ele>
        <time>2022-07-23T07:53:57.000Z</time>
      </trkpt>
      <trkpt lat="44.10559" lon="6.97">
        <ele>1728.5999755859</ele>
        <time>2022-07-23T07:53:59.000Z</time>
      </trkpt>
      <trkpt lat="44.10546" lon="6.97002">
        <ele>1727.8000488281</ele>
        <time>2022-07-23T07:54:02.000Z</time>
      </trkpt>
      <trkpt lat="44.10542" lon="6.97005">
        <ele>1727.8000488281</ele>
        <time>2022-07-23T07:54:03.000Z</time>
      </trkpt>
      <trkpt lat="44.10537" lon="6.97007">
        <ele>1727.5999755859</ele>
        <time>2022-07-23T07:54:04.000Z</time>
      </trkpt>
      <trkpt lat="44.10532" lon="6.97006">
        <ele>1727.4000244141</ele>
        <time>2022-07-23T07:54:05.000Z</time>
      </trkpt>
      <trkpt lat="44.10523" lon="6.97005">
        <ele>1726.8000488281</ele>
        <time>2022-07-23T07:54:07.000Z</time>
      </trkpt>
      <trkpt lat="44.10518" lon="6.97003">
        <ele>1726.5999755859</ele>
        <time>2022-07-23T07:54:08.000Z</time>
      </trkpt>
      <trkpt lat="44.10509" lon="6.97001">
        <ele>1725.5999755859</ele>
        <time>2022-07-23T07:54:10.000Z</time>
      </trkpt>
      <trkpt lat="44.10502" lon="6.96996">
        <ele>1725.1999511719</ele>
        <time>2022-07-23T07:54:12.000Z</time>
      </trkpt>
      <trkpt lat="44.10487" lon="6.96993">
        <ele>1725</ele>
        <time>2022-07-23T07:54:16.000Z</time>
      </trkpt>
      <trkpt lat="44.10486" lon="6.96987">
        <ele>1724.5999755859</ele>
        <time>2022-07-23T07:54:17.000Z</time>
      </trkpt>
      <trkpt lat="44.10482" lon="6.96984">
        <ele>1723.4000244141</ele>
        <time>2022-07-23T07:54:19.000Z</time>
      </trkpt>
      <trkpt lat="44.10472" lon="6.96988">
        <ele>1722.8000488281</ele>
        <time>2022-07-23T07:54:22.000Z</time>
      </trkpt>
      <trkpt lat="44.10465" lon="6.96985">
        <ele>1722.1999511719</ele>
        <time>2022-07-23T07:54:24.000Z</time>
      </trkpt>
      <trkpt lat="44.10456" lon="6.96978">
        <ele>1721.4000244141</ele>
        <time>2022-07-23T07:54:27.000Z</time>
      </trkpt>
      <trkpt lat="44.10447" lon="6.96972">
        <ele>1721.4000244141</ele>
        <time>2022-07-23T07:54:29.000Z</time>
      </trkpt>
      <trkpt lat="44.10442" lon="6.96968">
        <ele>1721</ele>
        <time>2022-07-23T07:54:30.000Z</time>
      </trkpt>
      <trkpt lat="44.10433" lon="6.96967">
        <ele>1719.4000244141</ele>
        <time>2022-07-23T07:54:32.000Z</time>
      </trkpt>
      <trkpt lat="44.10427" lon="6.96963">
        <ele>1718.8000488281</ele>
        <time>2022-07-23T07:54:33.000Z</time>
      </trkpt>
      <trkpt lat="44.10418" lon="6.96955">
        <ele>1718.1999511719</ele>
        <time>2022-07-23T07:54:35.000Z</time>
      </trkpt>
      <trkpt lat="44.10414" lon="6.96946">
        <ele>1718</ele>
        <time>2022-07-23T07:54:37.000Z</time>
      </trkpt>
      <trkpt lat="44.10403" lon="6.96934">
        <ele>1716.8000488281</ele>
        <time>2022-07-23T07:54:40.000Z</time>
      </trkpt>
      <trkpt lat="44.10399" lon="6.96931">
        <ele>1716.4000244141</ele>
        <time>2022-07-23T07:54:41.000Z</time>
      </trkpt>
      <trkpt lat="44.10391" lon="6.96925">
        <ele>1715.1999511719</ele>
        <time>2022-07-23T07:54:43.000Z</time>
      </trkpt>
      <trkpt lat="44.10387" lon="6.96918">
        <ele>1713.8000488281</ele>
        <time>2022-07-23T07:54:45.000Z</time>
      </trkpt>
      <trkpt lat="44.10382" lon="6.9691">
        <ele>1712.5999755859</ele>
        <time>2022-07-23T07:54:47.000Z</time>
      </trkpt>
      <trkpt lat="44.10382" lon="6.96905">
        <ele>1712.8000488281</ele>
        <time>2022-07-23T07:54:49.000Z</time>
      </trkpt>
      <trkpt lat="44.10382" lon="6.96906">
        <ele>1713.8000488281</ele>
        <time>2022-07-23T07:54:52.000Z</time>
      </trkpt>
      <trkpt lat="44.1038" lon="6.96903">
        <ele>1714.8000488281</ele>
        <time>2022-07-23T07:54:59.000Z</time>
      </trkpt>
      <trkpt lat="44.1038" lon="6.96903">
        <ele>1715</ele>
        <time>2022-07-23T07:55:00.000Z</time>
      </trkpt>
      <trkpt lat="44.10378" lon="6.96901">
        <ele>1715</ele>
        <time>2022-07-23T07:55:01.000Z</time>
      </trkpt>
      <trkpt lat="44.10378" lon="6.969">
        <ele>1715</ele>
        <time>2022-07-23T07:55:03.000Z</time>
      </trkpt>
      <trkpt lat="44.10377" lon="6.96899">
        <ele>1715.1999511719</ele>
        <time>2022-07-23T07:55:10.000Z</time>
      </trkpt>
      <trkpt lat="44.10376" lon="6.96897">
        <ele>1715.4000244141</ele>
        <time>2022-07-23T07:55:26.000Z</time>
      </trkpt>
      <trkpt lat="44.10374" lon="6.96894">
        <ele>1715.4000244141</ele>
        <time>2022-07-23T07:55:36.000Z</time>
      </trkpt>
      <trkpt lat="44.10372" lon="6.96893">
        <ele>1715.4000244141</ele>
        <time>2022-07-23T07:55:50.000Z</time>
      </trkpt>
      <trkpt lat="44.10371" lon="6.96892">
        <ele>1715.4000244141</ele>
        <time>2022-07-23T07:55:51.000Z</time>
      </trkpt>
      <trkpt lat="44.10365" lon="6.96891">
        <ele>1715.4000244141</ele>
        <time>2022-07-23T07:55:54.000Z</time>
      </trkpt>
      <trkpt lat="44.10355" lon="6.96878">
        <ele>1714</ele>
        <time>2022-07-23T07:55:58.000Z</time>
      </trkpt>
      <trkpt lat="44.10352" lon="6.96874">
        <ele>1713.5999755859</ele>
        <time>2022-07-23T07:55:59.000Z</time>
      </trkpt>
      <trkpt lat="44.10349" lon="6.96869">
        <ele>1713.4000244141</ele>
        <time>2022-07-23T07:56:00.000Z</time>
      </trkpt>
      <trkpt lat="44.10342" lon="6.96859">
        <ele>1712.4000244141</ele>
        <time>2022-07-23T07:56:02.000Z</time>
      </trkpt>
      <trkpt lat="44.1034" lon="6.96852">
        <ele>1712</ele>
        <time>2022-07-23T07:56:03.000Z</time>
      </trkpt>
      <trkpt lat="44.10337" lon="6.96846">
        <ele>1711.4000244141</ele>
        <time>2022-07-23T07:56:04.000Z</time>
      </trkpt>
      <trkpt lat="44.10334" lon="6.96839">
        <ele>1711</ele>
        <time>2022-07-23T07:56:05.000Z</time>
      </trkpt>
      <trkpt lat="44.1033" lon="6.96835">
        <ele>1709.8000488281</ele>
        <time>2022-07-23T07:56:07.000Z</time>
      </trkpt>
      <trkpt lat="44.10324" lon="6.96835">
        <ele>1708.8000488281</ele>
        <time>2022-07-23T07:56:10.000Z</time>
      </trkpt>
      <trkpt lat="44.10323" lon="6.9684">
        <ele>1708.5999755859</ele>
        <time>2022-07-23T07:56:11.000Z</time>
      </trkpt>
      <trkpt lat="44.10321" lon="6.96846">
        <ele>1708.1999511719</ele>
        <time>2022-07-23T07:56:12.000Z</time>
      </trkpt>
      <trkpt lat="44.10315" lon="6.96857">
        <ele>1708.4000244141</ele>
        <time>2022-07-23T07:56:15.000Z</time>
      </trkpt>
      <trkpt lat="44.10307" lon="6.96867">
        <ele>1710</ele>
        <time>2022-07-23T07:56:19.000Z</time>
      </trkpt>
      <trkpt lat="44.10306" lon="6.96869">
        <ele>1710.8000488281</ele>
        <time>2022-07-23T07:56:20.000Z</time>
      </trkpt>
      <trkpt lat="44.10303" lon="6.9687">
        <ele>1711.4000244141</ele>
        <time>2022-07-23T07:56:21.000Z</time>
      </trkpt>
      <trkpt lat="44.10299" lon="6.96875">
        <ele>1712.8000488281</ele>
        <time>2022-07-23T07:56:23.000Z</time>
      </trkpt>
      <trkpt lat="44.10297" lon="6.96877">
        <ele>1713.1999511719</ele>
        <time>2022-07-23T07:56:24.000Z</time>
      </trkpt>
      <trkpt lat="44.10295" lon="6.9688">
        <ele>1713.8000488281</ele>
        <time>2022-07-23T07:56:25.000Z</time>
      </trkpt>
      <trkpt lat="44.10288" lon="6.96886">
        <ele>1715</ele>
        <time>2022-07-23T07:56:28.000Z</time>
      </trkpt>
      <trkpt lat="44.10281" lon="6.96891">
        <ele>1716.4000244141</ele>
        <time>2022-07-23T07:56:31.000Z</time>
      </trkpt>
      <trkpt lat="44.10276" lon="6.96893">
        <ele>1717.8000488281</ele>
        <time>2022-07-23T07:56:33.000Z</time>
      </trkpt>
      <trkpt lat="44.10271" lon="6.96896">
        <ele>1719</ele>
        <time>2022-07-23T07:56:35.000Z</time>
      </trkpt>
      <trkpt lat="44.10266" lon="6.969">
        <ele>1719.8000488281</ele>
        <time>2022-07-23T07:56:37.000Z</time>
      </trkpt>
      <trkpt lat="44.10261" lon="6.9691">
        <ele>1719.5999755859</ele>
        <time>2022-07-23T07:56:40.000Z</time>
      </trkpt>
      <trkpt lat="44.10254" lon="6.96931">
        <ele>1720</ele>
        <time>2022-07-23T07:56:45.000Z</time>
      </trkpt>
      <trkpt lat="44.10252" lon="6.96934">
        <ele>1720.1999511719</ele>
        <time>2022-07-23T07:56:46.000Z</time>
      </trkpt>
      <trkpt lat="44.10242" lon="6.96944">
        <ele>1721.4000244141</ele>
        <time>2022-07-23T07:56:50.000Z</time>
      </trkpt>
      <trkpt lat="44.10228" lon="6.9696">
        <ele>1721.8000488281</ele>
        <time>2022-07-23T07:56:55.000Z</time>
      </trkpt>
      <trkpt lat="44.10214" lon="6.96973">
        <ele>1722.4000244141</ele>
        <time>2022-07-23T07:56:59.000Z</time>
      </trkpt>
      <trkpt lat="44.10203" lon="6.96986">
        <ele>1722.8000488281</ele>
        <time>2022-07-23T07:57:03.000Z</time>
      </trkpt>
      <trkpt lat="44.10186" lon="6.96998">
        <ele>1723.1999511719</ele>
        <time>2022-07-23T07:57:07.000Z</time>
      </trkpt>
      <trkpt lat="44.10182" lon="6.96999">
        <ele>1723</ele>
        <time>2022-07-23T07:57:08.000Z</time>
      </trkpt>
      <trkpt lat="44.10169" lon="6.96996">
        <ele>1722.8000488281</ele>
        <time>2022-07-23T07:57:11.000Z</time>
      </trkpt>
      <trkpt lat="44.10166" lon="6.96995">
        <ele>1723</ele>
        <time>2022-07-23T07:57:12.000Z</time>
      </trkpt>
      <trkpt lat="44.10153" lon="6.96994">
        <ele>1723</ele>
        <time>2022-07-23T07:57:15.000Z</time>
      </trkpt>
      <trkpt lat="44.1014" lon="6.96993">
        <ele>1722.1999511719</ele>
        <time>2022-07-23T07:57:18.000Z</time>
      </trkpt>
      <trkpt lat="44.1013" lon="6.96994">
        <ele>1721.8000488281</ele>
        <time>2022-07-23T07:57:20.000Z</time>
      </trkpt>
      <trkpt lat="44.10109" lon="6.96996">
        <ele>1721.4000244141</ele>
        <time>2022-07-23T07:57:24.000Z</time>
      </trkpt>
      <trkpt lat="44.10104" lon="6.96997">
        <ele>1721.1999511719</ele>
        <time>2022-07-23T07:57:25.000Z</time>
      </trkpt>
      <trkpt lat="44.10099" lon="6.96997">
        <ele>1721</ele>
        <time>2022-07-23T07:57:26.000Z</time>
      </trkpt>
      <trkpt lat="44.10063" lon="6.97005">
        <ele>1720.1999511719</ele>
        <time>2022-07-23T07:57:32.000Z</time>
      </trkpt>
      <trkpt lat="44.10058" lon="6.97008">
        <ele>1719.8000488281</ele>
        <time>2022-07-23T07:57:33.000Z</time>
      </trkpt>
      <trkpt lat="44.10042" lon="6.97014">
        <ele>1718.8000488281</ele>
        <time>2022-07-23T07:57:36.000Z</time>
      </trkpt>
      <trkpt lat="44.10036" lon="6.97014">
        <ele>1718.1999511719</ele>
        <time>2022-07-23T07:57:37.000Z</time>
      </trkpt>
      <trkpt lat="44.10025" lon="6.97015">
        <ele>1717.4000244141</ele>
        <time>2022-07-23T07:57:39.000Z</time>
      </trkpt>
      <trkpt lat="44.10018" lon="6.97014">
        <ele>1717.4000244141</ele>
        <time>2022-07-23T07:57:40.000Z</time>
      </trkpt>
      <trkpt lat="44.09999" lon="6.97009">
        <ele>1716.4000244141</ele>
        <time>2022-07-23T07:57:43.000Z</time>
      </trkpt>
      <trkpt lat="44.09987" lon="6.97004">
        <ele>1715.1999511719</ele>
        <time>2022-07-23T07:57:45.000Z</time>
      </trkpt>
      <trkpt lat="44.09962" lon="6.96995">
        <ele>1714.1999511719</ele>
        <time>2022-07-23T07:57:49.000Z</time>
      </trkpt>
      <trkpt lat="44.09956" lon="6.96992">
        <ele>1714</ele>
        <time>2022-07-23T07:57:50.000Z</time>
      </trkpt>
      <trkpt lat="44.09949" lon="6.96988">
        <ele>1713</ele>
        <time>2022-07-23T07:57:52.000Z</time>
      </trkpt>
      <trkpt lat="44.09948" lon="6.96985">
        <ele>1712.8000488281</ele>
        <time>2022-07-23T07:57:53.000Z</time>
      </trkpt>
      <trkpt lat="44.09948" lon="6.96983">
        <ele>1712.5999755859</ele>
        <time>2022-07-23T07:57:57.000Z</time>
      </trkpt>
      <trkpt lat="44.09948" lon="6.96984">
        <ele>1712.1999511719</ele>
        <time>2022-07-23T07:58:16.000Z</time>
      </trkpt>
      <trkpt lat="44.09948" lon="6.96984">
        <ele>1712.5999755859</ele>
        <time>2022-07-23T07:58:23.000Z</time>
      </trkpt>
      <trkpt lat="44.09947" lon="6.96982">
        <ele>1712.8000488281</ele>
        <time>2022-07-23T07:58:37.000Z</time>
      </trkpt>
      <trkpt lat="44.09946" lon="6.96983">
        <ele>1713</ele>
        <time>2022-07-23T07:58:51.000Z</time>
      </trkpt>
      <trkpt lat="44.09945" lon="6.96981">
        <ele>1713.1999511719</ele>
        <time>2022-07-23T07:59:07.000Z</time>
      </trkpt>
      <trkpt lat="44.09943" lon="6.9697">
        <ele>1713.1999511719</ele>
        <time>2022-07-23T07:59:19.000Z</time>
      </trkpt>
      <trkpt lat="44.09938" lon="6.96949">
        <ele>1712.4000244141</ele>
        <time>2022-07-23T07:59:22.000Z</time>
      </trkpt>
      <trkpt lat="44.09933" lon="6.96944">
        <ele>1711.5999755859</ele>
        <time>2022-07-23T07:59:23.000Z</time>
      </trkpt>
      <trkpt lat="44.09929" lon="6.96941">
        <ele>1710.5999755859</ele>
        <time>2022-07-23T07:59:24.000Z</time>
      </trkpt>
      <trkpt lat="44.09926" lon="6.96939">
        <ele>1709.5999755859</ele>
        <time>2022-07-23T07:59:25.000Z</time>
      </trkpt>
      <trkpt lat="44.09924" lon="6.96937">
        <ele>1709</ele>
        <time>2022-07-23T07:59:26.000Z</time>
      </trkpt>
      <trkpt lat="44.09909" lon="6.96926">
        <ele>1710.1999511719</ele>
        <time>2022-07-23T07:59:31.000Z</time>
      </trkpt>
      <trkpt lat="44.09898" lon="6.96916">
        <ele>1709.8000488281</ele>
        <time>2022-07-23T07:59:35.000Z</time>
      </trkpt>
      <trkpt lat="44.09888" lon="6.96906">
        <ele>1709.5999755859</ele>
        <time>2022-07-23T07:59:39.000Z</time>
      </trkpt>
      <trkpt lat="44.09887" lon="6.96902">
        <ele>1708.8000488281</ele>
        <time>2022-07-23T07:59:41.000Z</time>
      </trkpt>
      <trkpt lat="44.09887" lon="6.96898">
        <ele>1708.1999511719</ele>
        <time>2022-07-23T07:59:43.000Z</time>
      </trkpt>
      <trkpt lat="44.09888" lon="6.96894">
        <ele>1707.8000488281</ele>
        <time>2022-07-23T07:59:45.000Z</time>
      </trkpt>
      <trkpt lat="44.09888" lon="6.96891">
        <ele>1707.1999511719</ele>
        <time>2022-07-23T07:59:49.000Z</time>
      </trkpt>
      <trkpt lat="44.09885" lon="6.9689">
        <ele>1707.4000244141</ele>
        <time>2022-07-23T08:00:00.000Z</time>
      </trkpt>
      <trkpt lat="44.09883" lon="6.96891">
        <ele>1708</ele>
        <time>2022-07-23T08:00:06.000Z</time>
      </trkpt>
      <trkpt lat="44.09877" lon="6.96887">
        <ele>1708.4000244141</ele>
        <time>2022-07-23T08:00:09.000Z</time>
      </trkpt>
      <trkpt lat="44.09871" lon="6.96883">
        <ele>1708.8000488281</ele>
        <time>2022-07-23T08:00:12.000Z</time>
      </trkpt>
      <trkpt lat="44.09868" lon="6.96879">
        <ele>1709.4000244141</ele>
        <time>2022-07-23T08:00:14.000Z</time>
      </trkpt>
      <trkpt lat="44.09858" lon="6.96868">
        <ele>1709.8000488281</ele>
        <time>2022-07-23T08:00:18.000Z</time>
      </trkpt>
      <trkpt lat="44.09853" lon="6.96864">
        <ele>1709.4000244141</ele>
        <time>2022-07-23T08:00:21.000Z</time>
      </trkpt>
      <trkpt lat="44.0985" lon="6.96863">
        <ele>1709.4000244141</ele>
        <time>2022-07-23T08:00:22.000Z</time>
      </trkpt>
      <trkpt lat="44.09841" lon="6.96857">
        <ele>1708.4000244141</ele>
        <time>2022-07-23T08:00:25.000Z</time>
      </trkpt>
      <trkpt lat="44.09835" lon="6.96849">
        <ele>1707.4000244141</ele>
        <time>2022-07-23T08:00:29.000Z</time>
      </trkpt>
      <trkpt lat="44.09828" lon="6.96843">
        <ele>1708.4000244141</ele>
        <time>2022-07-23T08:00:34.000Z</time>
      </trkpt>
      <trkpt lat="44.09825" lon="6.96841">
        <ele>1708.8000488281</ele>
        <time>2022-07-23T08:00:35.000Z</time>
      </trkpt>
      <trkpt lat="44.09823" lon="6.96838">
        <ele>1709</ele>
        <time>2022-07-23T08:00:37.000Z</time>
      </trkpt>
      <trkpt lat="44.09822" lon="6.96837">
        <ele>1709</ele>
        <time>2022-07-23T08:00:38.000Z</time>
      </trkpt>
      <trkpt lat="44.09815" lon="6.96835">
        <ele>1708.8000488281</ele>
        <time>2022-07-23T08:00:41.000Z</time>
      </trkpt>
      <trkpt lat="44.09812" lon="6.96834">
        <ele>1708.5999755859</ele>
        <time>2022-07-23T08:00:42.000Z</time>
      </trkpt>
      <trkpt lat="44.09802" lon="6.96833">
        <ele>1708.1999511719</ele>
        <time>2022-07-23T08:00:46.000Z</time>
      </trkpt>
      <trkpt lat="44.09801" lon="6.96831">
        <ele>1708.1999511719</ele>
        <time>2022-07-23T08:00:47.000Z</time>
      </trkpt>
      <trkpt lat="44.09793" lon="6.96828">
        <ele>1708.1999511719</ele>
        <time>2022-07-23T08:00:51.000Z</time>
      </trkpt>
      <trkpt lat="44.09782" lon="6.96826">
        <ele>1707.5999755859</ele>
        <time>2022-07-23T08:00:55.000Z</time>
      </trkpt>
      <trkpt lat="44.09775" lon="6.96825">
        <ele>1706.4000244141</ele>
        <time>2022-07-23T08:00:58.000Z</time>
      </trkpt>
      <trkpt lat="44.09769" lon="6.96824">
        <ele>1706</ele>
        <time>2022-07-23T08:01:00.000Z</time>
      </trkpt>
      <trkpt lat="44.09764" lon="6.96824">
        <ele>1705.4000244141</ele>
        <time>2022-07-23T08:01:03.000Z</time>
      </trkpt>
      <trkpt lat="44.0976" lon="6.96823">
        <ele>1705.4000244141</ele>
        <time>2022-07-23T08:01:04.000Z</time>
      </trkpt>
      <trkpt lat="44.09753" lon="6.96816">
        <ele>1704.4000244141</ele>
        <time>2022-07-23T08:01:07.000Z</time>
      </trkpt>
      <trkpt lat="44.0975" lon="6.96814">
        <ele>1704.4000244141</ele>
        <time>2022-07-23T08:01:08.000Z</time>
      </trkpt>
      <trkpt lat="44.09738" lon="6.96809">
        <ele>1704</ele>
        <time>2022-07-23T08:01:13.000Z</time>
      </trkpt>
      <trkpt lat="44.09732" lon="6.96808">
        <ele>1704</ele>
        <time>2022-07-23T08:01:16.000Z</time>
      </trkpt>
      <trkpt lat="44.09729" lon="6.96808">
        <ele>1703.8000488281</ele>
        <time>2022-07-23T08:01:17.000Z</time>
      </trkpt>
      <trkpt lat="44.09723" lon="6.96805">
        <ele>1703.1999511719</ele>
        <time>2022-07-23T08:01:19.000Z</time>
      </trkpt>
      <trkpt lat="44.09716" lon="6.96801">
        <ele>1702.4000244141</ele>
        <time>2022-07-23T08:01:22.000Z</time>
      </trkpt>
      <trkpt lat="44.09714" lon="6.96799">
        <ele>1701.8000488281</ele>
        <time>2022-07-23T08:01:23.000Z</time>
      </trkpt>
      <trkpt lat="44.09709" lon="6.96796">
        <ele>1701.5999755859</ele>
        <time>2022-07-23T08:01:27.000Z</time>
      </trkpt>
      <trkpt lat="44.09706" lon="6.96793">
        <ele>1701.5999755859</ele>
        <time>2022-07-23T08:01:32.000Z</time>
      </trkpt>
      <trkpt lat="44.097" lon="6.96792">
        <ele>1702</ele>
        <time>2022-07-23T08:01:37.000Z</time>
      </trkpt>
      <trkpt lat="44.09691" lon="6.9679">
        <ele>1701.4000244141</ele>
        <time>2022-07-23T08:01:41.000Z</time>
      </trkpt>
      <trkpt lat="44.09687" lon="6.96789">
        <ele>1700.5999755859</ele>
        <time>2022-07-23T08:01:44.000Z</time>
      </trkpt>
      <trkpt lat="44.09686" lon="6.96788">
        <ele>1700.5999755859</ele>
        <time>2022-07-23T08:01:46.000Z</time>
      </trkpt>
      <trkpt lat="44.09683" lon="6.96787">
        <ele>1700.5999755859</ele>
        <time>2022-07-23T08:01:51.000Z</time>
      </trkpt>
      <trkpt lat="44.09679" lon="6.96785">
        <ele>1700</ele>
        <time>2022-07-23T08:01:56.000Z</time>
      </trkpt>
      <trkpt lat="44.09678" lon="6.96785">
        <ele>1700</ele>
        <time>2022-07-23T08:01:58.000Z</time>
      </trkpt>
      <trkpt lat="44.09673" lon="6.96782">
        <ele>1700.5999755859</ele>
        <time>2022-07-23T08:02:04.000Z</time>
      </trkpt>
      <trkpt lat="44.09669" lon="6.9678">
        <ele>1701.4000244141</ele>
        <time>2022-07-23T08:02:11.000Z</time>
      </trkpt>
      <trkpt lat="44.09664" lon="6.96776">
        <ele>1701.4000244141</ele>
        <time>2022-07-23T08:02:18.000Z</time>
      </trkpt>
      <trkpt lat="44.09663" lon="6.96772">
        <ele>1701.8000488281</ele>
        <time>2022-07-23T08:02:20.000Z</time>
      </trkpt>
      <trkpt lat="44.0966" lon="6.9677">
        <ele>1702.4000244141</ele>
        <time>2022-07-23T08:02:23.000Z</time>
      </trkpt>
      <trkpt lat="44.09654" lon="6.96763">
        <ele>1702.8000488281</ele>
        <time>2022-07-23T08:02:30.000Z</time>
      </trkpt>
      <trkpt lat="44.09649" lon="6.96749">
        <ele>1703.1999511719</ele>
        <time>2022-07-23T08:02:36.000Z</time>
      </trkpt>
      <trkpt lat="44.09648" lon="6.96742">
        <ele>1703.1999511719</ele>
        <time>2022-07-23T08:02:41.000Z</time>
      </trkpt>
      <trkpt lat="44.09648" lon="6.9674">
        <ele>1703.1999511719</ele>
        <time>2022-07-23T08:02:52.000Z</time>
      </trkpt>
      <trkpt lat="44.09647" lon="6.96734">
        <ele>1703.1999511719</ele>
        <time>2022-07-23T08:02:54.000Z</time>
      </trkpt>
      <trkpt lat="44.09649" lon="6.9671">
        <ele>1702.4000244141</ele>
        <time>2022-07-23T08:02:59.000Z</time>
      </trkpt>
      <trkpt lat="44.09652" lon="6.96699">
        <ele>1701.8000488281</ele>
        <time>2022-07-23T08:03:02.000Z</time>
      </trkpt>
      <trkpt lat="44.09653" lon="6.96687">
        <ele>1701.5999755859</ele>
        <time>2022-07-23T08:03:04.000Z</time>
      </trkpt>
      <trkpt lat="44.09657" lon="6.96666">
        <ele>1700.4000244141</ele>
        <time>2022-07-23T08:03:07.000Z</time>
      </trkpt>
      <trkpt lat="44.09658" lon="6.96661">
        <ele>1700.4000244141</ele>
        <time>2022-07-23T08:03:08.000Z</time>
      </trkpt>
      <trkpt lat="44.09658" lon="6.96654">
        <ele>1699.8000488281</ele>
        <time>2022-07-23T08:03:09.000Z</time>
      </trkpt>
      <trkpt lat="44.09659" lon="6.96648">
        <ele>1699.1999511719</ele>
        <time>2022-07-23T08:03:10.000Z</time>
      </trkpt>
      <trkpt lat="44.0966" lon="6.96628">
        <ele>1697.4000244141</ele>
        <time>2022-07-23T08:03:13.000Z</time>
      </trkpt>
      <trkpt lat="44.09659" lon="6.9662">
        <ele>1696.5999755859</ele>
        <time>2022-07-23T08:03:14.000Z</time>
      </trkpt>
      <trkpt lat="44.09659" lon="6.96612">
        <ele>1696</ele>
        <time>2022-07-23T08:03:15.000Z</time>
      </trkpt>
      <trkpt lat="44.09658" lon="6.96597">
        <ele>1694.8000488281</ele>
        <time>2022-07-23T08:03:17.000Z</time>
      </trkpt>
      <trkpt lat="44.09657" lon="6.96588">
        <ele>1693.1999511719</ele>
        <time>2022-07-23T08:03:19.000Z</time>
      </trkpt>
      <trkpt lat="44.09655" lon="6.96566">
        <ele>1693.4000244141</ele>
        <time>2022-07-23T08:03:23.000Z</time>
      </trkpt>
      <trkpt lat="44.09655" lon="6.96542">
        <ele>1693.4000244141</ele>
        <time>2022-07-23T08:03:28.000Z</time>
      </trkpt>
      <trkpt lat="44.09652" lon="6.96531">
        <ele>1693.4000244141</ele>
        <time>2022-07-23T08:03:30.000Z</time>
      </trkpt>
      <trkpt lat="44.09648" lon="6.96514">
        <ele>1693</ele>
        <time>2022-07-23T08:03:33.000Z</time>
      </trkpt>
      <trkpt lat="44.09652" lon="6.96494">
        <ele>1692.1999511719</ele>
        <time>2022-07-23T08:03:37.000Z</time>
      </trkpt>
      <trkpt lat="44.09653" lon="6.9649">
        <ele>1692.4000244141</ele>
        <time>2022-07-23T08:03:38.000Z</time>
      </trkpt>
      <trkpt lat="44.09656" lon="6.96474">
        <ele>1693.5999755859</ele>
        <time>2022-07-23T08:03:42.000Z</time>
      </trkpt>
      <trkpt lat="44.09655" lon="6.9647">
        <ele>1693.8000488281</ele>
        <time>2022-07-23T08:03:44.000Z</time>
      </trkpt>
      <trkpt lat="44.09655" lon="6.96469">
        <ele>1694</ele>
        <time>2022-07-23T08:03:49.000Z</time>
      </trkpt>
      <trkpt lat="44.09656" lon="6.96466">
        <ele>1694.4000244141</ele>
        <time>2022-07-23T08:04:09.000Z</time>
      </trkpt>
      <trkpt lat="44.09656" lon="6.96466">
        <ele>1694.5999755859</ele>
        <time>2022-07-23T08:04:13.000Z</time>
      </trkpt>
      <trkpt lat="44.09656" lon="6.96465">
        <ele>1694.5999755859</ele>
        <time>2022-07-23T08:04:15.000Z</time>
      </trkpt>
      <trkpt lat="44.09658" lon="6.96462">
        <ele>1694.4000244141</ele>
        <time>2022-07-23T08:04:19.000Z</time>
      </trkpt>
      <trkpt lat="44.09661" lon="6.96457">
        <ele>1694.8000488281</ele>
        <time>2022-07-23T08:04:26.000Z</time>
      </trkpt>
      <trkpt lat="44.09661" lon="6.96457">
        <ele>1695</ele>
        <time>2022-07-23T08:04:33.000Z</time>
      </trkpt>
      <trkpt lat="44.0966" lon="6.96457">
        <ele>1694.5999755859</ele>
        <time>2022-07-23T08:04:50.000Z</time>
      </trkpt>
      <trkpt lat="44.0966" lon="6.96457">
        <ele>1694.8000488281</ele>
        <time>2022-07-23T08:04:58.000Z</time>
      </trkpt>
      <trkpt lat="44.0966" lon="6.96456">
        <ele>1694.5999755859</ele>
        <time>2022-07-23T08:05:12.000Z</time>
      </trkpt>
      <trkpt lat="44.0966" lon="6.96457">
        <ele>1695</ele>
        <time>2022-07-23T08:05:41.000Z</time>
      </trkpt>
      <trkpt lat="44.0966" lon="6.96457">
        <ele>1694.8000488281</ele>
        <time>2022-07-23T08:06:13.000Z</time>
      </trkpt>
      <trkpt lat="44.0966" lon="6.96457">
        <ele>1694.5999755859</ele>
        <time>2022-07-23T08:06:48.000Z</time>
      </trkpt>
      <trkpt lat="44.0966" lon="6.96457">
        <ele>1694.4000244141</ele>
        <time>2022-07-23T08:07:15.000Z</time>
      </trkpt>
      <trkpt lat="44.09663" lon="6.96455">
        <ele>1694.1999511719</ele>
        <time>2022-07-23T08:07:34.000Z</time>
      </trkpt>
      <trkpt lat="44.09672" lon="6.9645">
        <ele>1694</ele>
        <time>2022-07-23T08:07:40.000Z</time>
      </trkpt>
      <trkpt lat="44.09678" lon="6.96446">
        <ele>1694</ele>
        <time>2022-07-23T08:07:45.000Z</time>
      </trkpt>
      <trkpt lat="44.09683" lon="6.96443">
        <ele>1694</ele>
        <time>2022-07-23T08:07:48.000Z</time>
      </trkpt>
      <trkpt lat="44.09686" lon="6.96441">
        <ele>1694.1999511719</ele>
        <time>2022-07-23T08:07:51.000Z</time>
      </trkpt>
      <trkpt lat="44.09697" lon="6.96434">
        <ele>1694.4000244141</ele>
        <time>2022-07-23T08:07:58.000Z</time>
      </trkpt>
      <trkpt lat="44.09711" lon="6.96426">
        <ele>1694.4000244141</ele>
        <time>2022-07-23T08:08:06.000Z</time>
      </trkpt>
      <trkpt lat="44.09721" lon="6.96417">
        <ele>1694.4000244141</ele>
        <time>2022-07-23T08:08:13.000Z</time>
      </trkpt>
      <trkpt lat="44.09732" lon="6.9641">
        <ele>1694.8000488281</ele>
        <time>2022-07-23T08:08:21.000Z</time>
      </trkpt>
      <trkpt lat="44.09747" lon="6.96406">
        <ele>1695</ele>
        <time>2022-07-23T08:08:28.000Z</time>
      </trkpt>
      <trkpt lat="44.09763" lon="6.96404">
        <ele>1695</ele>
        <time>2022-07-23T08:08:34.000Z</time>
      </trkpt>
      <trkpt lat="44.09788" lon="6.96402">
        <ele>1694.5999755859</ele>
        <time>2022-07-23T08:08:42.000Z</time>
      </trkpt>
      <trkpt lat="44.09808" lon="6.964">
        <ele>1693.5999755859</ele>
        <time>2022-07-23T08:08:48.000Z</time>
      </trkpt>
      <trkpt lat="44.09827" lon="6.96396">
        <ele>1692.1999511719</ele>
        <time>2022-07-23T08:08:52.000Z</time>
      </trkpt>
      <trkpt lat="44.09834" lon="6.96392">
        <ele>1691.1999511719</ele>
        <time>2022-07-23T08:08:54.000Z</time>
      </trkpt>
      <trkpt lat="44.09839" lon="6.96388">
        <ele>1690.8000488281</ele>
        <time>2022-07-23T08:08:56.000Z</time>
      </trkpt>
      <trkpt lat="44.09857" lon="6.96379">
        <ele>1690.8000488281</ele>
        <time>2022-07-23T08:09:01.000Z</time>
      </trkpt>
      <trkpt lat="44.09879" lon="6.96368">
        <ele>1691</ele>
        <time>2022-07-23T08:09:07.000Z</time>
      </trkpt>
      <trkpt lat="44.09899" lon="6.96355">
        <ele>1690.5999755859</ele>
        <time>2022-07-23T08:09:12.000Z</time>
      </trkpt>
      <trkpt lat="44.09903" lon="6.96353">
        <ele>1690.4000244141</ele>
        <time>2022-07-23T08:09:13.000Z</time>
      </trkpt>
      <trkpt lat="44.09917" lon="6.96352">
        <ele>1690</ele>
        <time>2022-07-23T08:09:16.000Z</time>
      </trkpt>
      <trkpt lat="44.09928" lon="6.96352">
        <ele>1689.1999511719</ele>
        <time>2022-07-23T08:09:18.000Z</time>
      </trkpt>
      <trkpt lat="44.09934" lon="6.96353">
        <ele>1689</ele>
        <time>2022-07-23T08:09:19.000Z</time>
      </trkpt>
      <trkpt lat="44.09945" lon="6.96354">
        <ele>1688</ele>
        <time>2022-07-23T08:09:22.000Z</time>
      </trkpt>
      <trkpt lat="44.09956" lon="6.96353">
        <ele>1689.1999511719</ele>
        <time>2022-07-23T08:09:26.000Z</time>
      </trkpt>
      <trkpt lat="44.09962" lon="6.96353">
        <ele>1689.5999755859</ele>
        <time>2022-07-23T08:09:28.000Z</time>
      </trkpt>
      <trkpt lat="44.09978" lon="6.96351">
        <ele>1689</ele>
        <time>2022-07-23T08:09:33.000Z</time>
      </trkpt>
      <trkpt lat="44.09989" lon="6.96347">
        <ele>1689.8000488281</ele>
        <time>2022-07-23T08:09:38.000Z</time>
      </trkpt>
      <trkpt lat="44.0999" lon="6.96346">
        <ele>1690.1999511719</ele>
        <time>2022-07-23T08:09:39.000Z</time>
      </trkpt>
      <trkpt lat="44.09992" lon="6.96343">
        <ele>1691.4000244141</ele>
        <time>2022-07-23T08:09:42.000Z</time>
      </trkpt>
      <trkpt lat="44.09991" lon="6.96342">
        <ele>1691.5999755859</ele>
        <time>2022-07-23T08:09:43.000Z</time>
      </trkpt>
      <trkpt lat="44.09984" lon="6.96339">
        <ele>1692.1999511719</ele>
        <time>2022-07-23T08:09:47.000Z</time>
      </trkpt>
      <trkpt lat="44.09982" lon="6.96337">
        <ele>1692.5999755859</ele>
        <time>2022-07-23T08:09:48.000Z</time>
      </trkpt>
      <trkpt lat="44.09978" lon="6.96333">
        <ele>1693.5999755859</ele>
        <time>2022-07-23T08:09:50.000Z</time>
      </trkpt>
      <trkpt lat="44.09976" lon="6.9633">
        <ele>1694.4000244141</ele>
        <time>2022-07-23T08:09:51.000Z</time>
      </trkpt>
      <trkpt lat="44.09974" lon="6.96328">
        <ele>1695</ele>
        <time>2022-07-23T08:09:52.000Z</time>
      </trkpt>
      <trkpt lat="44.09972" lon="6.96326">
        <ele>1695.4000244141</ele>
        <time>2022-07-23T08:09:53.000Z</time>
      </trkpt>
      <trkpt lat="44.09968" lon="6.96317">
        <ele>1696</ele>
        <time>2022-07-23T08:09:56.000Z</time>
      </trkpt>
      <trkpt lat="44.09966" lon="6.9631">
        <ele>1696.1999511719</ele>
        <time>2022-07-23T08:09:58.000Z</time>
      </trkpt>
      <trkpt lat="44.0996" lon="6.96304">
        <ele>1697</ele>
        <time>2022-07-23T08:10:02.000Z</time>
      </trkpt>
      <trkpt lat="44.09956" lon="6.96303">
        <ele>1698</ele>
        <time>2022-07-23T08:10:04.000Z</time>
      </trkpt>
      <trkpt lat="44.09952" lon="6.96299">
        <ele>1699.5999755859</ele>
        <time>2022-07-23T08:10:06.000Z</time>
      </trkpt>
      <trkpt lat="44.09951" lon="6.96297">
        <ele>1700.1999511719</ele>
        <time>2022-07-23T08:10:07.000Z</time>
      </trkpt>
      <trkpt lat="44.09951" lon="6.96294">
        <ele>1700.5999755859</ele>
        <time>2022-07-23T08:10:08.000Z</time>
      </trkpt>
      <trkpt lat="44.0995" lon="6.96291">
        <ele>1701</ele>
        <time>2022-07-23T08:10:09.000Z</time>
      </trkpt>
      <trkpt lat="44.09949" lon="6.96285">
        <ele>1701.5999755859</ele>
        <time>2022-07-23T08:10:11.000Z</time>
      </trkpt>
      <trkpt lat="44.09947" lon="6.96276">
        <ele>1702.4000244141</ele>
        <time>2022-07-23T08:10:14.000Z</time>
      </trkpt>
      <trkpt lat="44.09947" lon="6.96273">
        <ele>1702.5999755859</ele>
        <time>2022-07-23T08:10:15.000Z</time>
      </trkpt>
      <trkpt lat="44.09945" lon="6.96251">
        <ele>1703.5999755859</ele>
        <time>2022-07-23T08:10:21.000Z</time>
      </trkpt>
      <trkpt lat="44.09946" lon="6.96248">
        <ele>1703.5999755859</ele>
        <time>2022-07-23T08:10:22.000Z</time>
      </trkpt>
      <trkpt lat="44.09949" lon="6.96242">
        <ele>1703.8000488281</ele>
        <time>2022-07-23T08:10:24.000Z</time>
      </trkpt>
      <trkpt lat="44.09953" lon="6.96236">
        <ele>1704</ele>
        <time>2022-07-23T08:10:26.000Z</time>
      </trkpt>
      <trkpt lat="44.09956" lon="6.96229">
        <ele>1704.4000244141</ele>
        <time>2022-07-23T08:10:28.000Z</time>
      </trkpt>
      <trkpt lat="44.09958" lon="6.96223">
        <ele>1705</ele>
        <time>2022-07-23T08:10:30.000Z</time>
      </trkpt>
      <trkpt lat="44.09962" lon="6.96211">
        <ele>1706</ele>
        <time>2022-07-23T08:10:34.000Z</time>
      </trkpt>
      <trkpt lat="44.09971" lon="6.96192">
        <ele>1707</ele>
        <time>2022-07-23T08:10:40.000Z</time>
      </trkpt>
      <trkpt lat="44.09982" lon="6.96181">
        <ele>1707.8000488281</ele>
        <time>2022-07-23T08:10:45.000Z</time>
      </trkpt>
      <trkpt lat="44.09986" lon="6.96176">
        <ele>1708.1999511719</ele>
        <time>2022-07-23T08:10:47.000Z</time>
      </trkpt>
      <trkpt lat="44.09993" lon="6.96166">
        <ele>1708.4000244141</ele>
        <time>2022-07-23T08:10:50.000Z</time>
      </trkpt>
      <trkpt lat="44.09999" lon="6.96155">
        <ele>1708.5999755859</ele>
        <time>2022-07-23T08:10:53.000Z</time>
      </trkpt>
      <trkpt lat="44.1" lon="6.9615">
        <ele>1708.8000488281</ele>
        <time>2022-07-23T08:10:54.000Z</time>
      </trkpt>
      <trkpt lat="44.10002" lon="6.96136">
        <ele>1709.4000244141</ele>
        <time>2022-07-23T08:10:57.000Z</time>
      </trkpt>
      <trkpt lat="44.10006" lon="6.96126">
        <ele>1710.5999755859</ele>
        <time>2022-07-23T08:11:00.000Z</time>
      </trkpt>
      <trkpt lat="44.1001" lon="6.96119">
        <ele>1711.8000488281</ele>
        <time>2022-07-23T08:11:03.000Z</time>
      </trkpt>
      <trkpt lat="44.10011" lon="6.96108">
        <ele>1712.4000244141</ele>
        <time>2022-07-23T08:11:06.000Z</time>
      </trkpt>
      <trkpt lat="44.1001" lon="6.96102">
        <ele>1713.1999511719</ele>
        <time>2022-07-23T08:11:08.000Z</time>
      </trkpt>
      <trkpt lat="44.1001" lon="6.96096">
        <ele>1714.1999511719</ele>
        <time>2022-07-23T08:11:10.000Z</time>
      </trkpt>
      <trkpt lat="44.10012" lon="6.96086">
        <ele>1715.4000244141</ele>
        <time>2022-07-23T08:11:13.000Z</time>
      </trkpt>
      <trkpt lat="44.10012" lon="6.96084">
        <ele>1716</ele>
        <time>2022-07-23T08:11:14.000Z</time>
      </trkpt>
      <trkpt lat="44.10013" lon="6.96082">
        <ele>1716.8000488281</ele>
        <time>2022-07-23T08:11:15.000Z</time>
      </trkpt>
      <trkpt lat="44.10014" lon="6.96069">
        <ele>1717.5999755859</ele>
        <time>2022-07-23T08:11:18.000Z</time>
      </trkpt>
      <trkpt lat="44.10014" lon="6.96051">
        <ele>1717.5999755859</ele>
        <time>2022-07-23T08:11:23.000Z</time>
      </trkpt>
      <trkpt lat="44.10012" lon="6.96045">
        <ele>1717.8000488281</ele>
        <time>2022-07-23T08:11:25.000Z</time>
      </trkpt>
      <trkpt lat="44.10006" lon="6.96036">
        <ele>1718</ele>
        <time>2022-07-23T08:11:28.000Z</time>
      </trkpt>
      <trkpt lat="44.1" lon="6.96031">
        <ele>1719.1999511719</ele>
        <time>2022-07-23T08:11:31.000Z</time>
      </trkpt>
      <trkpt lat="44.09996" lon="6.96026">
        <ele>1720.4000244141</ele>
        <time>2022-07-23T08:11:33.000Z</time>
      </trkpt>
      <trkpt lat="44.09995" lon="6.96023">
        <ele>1720.8000488281</ele>
        <time>2022-07-23T08:11:34.000Z</time>
      </trkpt>
      <trkpt lat="44.09994" lon="6.9602">
        <ele>1721.1999511719</ele>
        <time>2022-07-23T08:11:35.000Z</time>
      </trkpt>
      <trkpt lat="44.09994" lon="6.96017">
        <ele>1721.5999755859</ele>
        <time>2022-07-23T08:11:36.000Z</time>
      </trkpt>
      <trkpt lat="44.09994" lon="6.9601">
        <ele>1722.4000244141</ele>
        <time>2022-07-23T08:11:38.000Z</time>
      </trkpt>
      <trkpt lat="44.09994" lon="6.96006">
        <ele>1722.8000488281</ele>
        <time>2022-07-23T08:11:39.000Z</time>
      </trkpt>
      <trkpt lat="44.09998" lon="6.95992">
        <ele>1724</ele>
        <time>2022-07-23T08:11:43.000Z</time>
      </trkpt>
      <trkpt lat="44.09999" lon="6.95989">
        <ele>1724.4000244141</ele>
        <time>2022-07-23T08:11:44.000Z</time>
      </trkpt>
      <trkpt lat="44.1" lon="6.95982">
        <ele>1725.4000244141</ele>
        <time>2022-07-23T08:11:46.000Z</time>
      </trkpt>
      <trkpt lat="44.10004" lon="6.95972">
        <ele>1726.8000488281</ele>
        <time>2022-07-23T08:11:49.000Z</time>
      </trkpt>
      <trkpt lat="44.10005" lon="6.9597">
        <ele>1727.1999511719</ele>
        <time>2022-07-23T08:11:50.000Z</time>
      </trkpt>
      <trkpt lat="44.10007" lon="6.95967">
        <ele>1727.5999755859</ele>
        <time>2022-07-23T08:11:51.000Z</time>
      </trkpt>
      <trkpt lat="44.10007" lon="6.95964">
        <ele>1728</ele>
        <time>2022-07-23T08:11:52.000Z</time>
      </trkpt>
      <trkpt lat="44.10007" lon="6.95957">
        <ele>1728.8000488281</ele>
        <time>2022-07-23T08:11:54.000Z</time>
      </trkpt>
      <trkpt lat="44.10007" lon="6.95953">
        <ele>1729.1999511719</ele>
        <time>2022-07-23T08:11:55.000Z</time>
      </trkpt>
      <trkpt lat="44.10009" lon="6.95948">
        <ele>1729.5999755859</ele>
        <time>2022-07-23T08:11:57.000Z</time>
      </trkpt>
      <trkpt lat="44.1001" lon="6.95944">
        <ele>1730.1999511719</ele>
        <time>2022-07-23T08:11:58.000Z</time>
      </trkpt>
      <trkpt lat="44.10011" lon="6.95942">
        <ele>1730.4000244141</ele>
        <time>2022-07-23T08:11:59.000Z</time>
      </trkpt>
      <trkpt lat="44.10016" lon="6.9593">
        <ele>1731.4000244141</ele>
        <time>2022-07-23T08:12:03.000Z</time>
      </trkpt>
      <trkpt lat="44.10017" lon="6.95926">
        <ele>1731.5999755859</ele>
        <time>2022-07-23T08:12:04.000Z</time>
      </trkpt>
      <trkpt lat="44.10021" lon="6.95914">
        <ele>1732.4000244141</ele>
        <time>2022-07-23T08:12:08.000Z</time>
      </trkpt>
      <trkpt lat="44.10023" lon="6.95904">
        <ele>1733.1999511719</ele>
        <time>2022-07-23T08:12:11.000Z</time>
      </trkpt>
      <trkpt lat="44.10025" lon="6.95896">
        <ele>1733.4000244141</ele>
        <time>2022-07-23T08:12:13.000Z</time>
      </trkpt>
      <trkpt lat="44.10027" lon="6.95894">
        <ele>1733.5999755859</ele>
        <time>2022-07-23T08:12:14.000Z</time>
      </trkpt>
      <trkpt lat="44.10028" lon="6.95892">
        <ele>1733.5999755859</ele>
        <time>2022-07-23T08:12:15.000Z</time>
      </trkpt>
      <trkpt lat="44.10034" lon="6.95882">
        <ele>1734.8000488281</ele>
        <time>2022-07-23T08:12:19.000Z</time>
      </trkpt>
      <trkpt lat="44.10039" lon="6.95874">
        <ele>1735.5999755859</ele>
        <time>2022-07-23T08:12:22.000Z</time>
      </trkpt>
      <trkpt lat="44.10042" lon="6.95869">
        <ele>1736</ele>
        <time>2022-07-23T08:12:24.000Z</time>
      </trkpt>
      <trkpt lat="44.10052" lon="6.9585">
        <ele>1737</ele>
        <time>2022-07-23T08:12:31.000Z</time>
      </trkpt>
      <trkpt lat="44.10053" lon="6.95847">
        <ele>1737.4000244141</ele>
        <time>2022-07-23T08:12:32.000Z</time>
      </trkpt>
      <trkpt lat="44.10059" lon="6.95837">
        <ele>1738.5999755859</ele>
        <time>2022-07-23T08:12:36.000Z</time>
      </trkpt>
      <trkpt lat="44.10061" lon="6.95834">
        <ele>1738.5999755859</ele>
        <time>2022-07-23T08:12:37.000Z</time>
      </trkpt>
      <trkpt lat="44.10076" lon="6.95813">
        <ele>1739.1999511719</ele>
        <time>2022-07-23T08:12:44.000Z</time>
      </trkpt>
      <trkpt lat="44.10077" lon="6.9581">
        <ele>1739.1999511719</ele>
        <time>2022-07-23T08:12:45.000Z</time>
      </trkpt>
      <trkpt lat="44.10079" lon="6.95802">
        <ele>1739.1999511719</ele>
        <time>2022-07-23T08:12:47.000Z</time>
      </trkpt>
      <trkpt lat="44.10085" lon="6.95783">
        <ele>1739.4000244141</ele>
        <time>2022-07-23T08:12:52.000Z</time>
      </trkpt>
      <trkpt lat="44.10086" lon="6.9577">
        <ele>1739.5999755859</ele>
        <time>2022-07-23T08:12:56.000Z</time>
      </trkpt>
      <trkpt lat="44.10085" lon="6.95766">
        <ele>1739.5999755859</ele>
        <time>2022-07-23T08:12:57.000Z</time>
      </trkpt>
      <trkpt lat="44.10086" lon="6.95748">
        <ele>1740</ele>
        <time>2022-07-23T08:13:01.000Z</time>
      </trkpt>
      <trkpt lat="44.10087" lon="6.95739">
        <ele>1739.4000244141</ele>
        <time>2022-07-23T08:13:06.000Z</time>
      </trkpt>
      <trkpt lat="44.10086" lon="6.95736">
        <ele>1739.5999755859</ele>
        <time>2022-07-23T08:13:14.000Z</time>
      </trkpt>
      <trkpt lat="44.10086" lon="6.95731">
        <ele>1739.5999755859</ele>
        <time>2022-07-23T08:13:31.000Z</time>
      </trkpt>
      <trkpt lat="44.10088" lon="6.95728">
        <ele>1739.5999755859</ele>
        <time>2022-07-23T08:13:36.000Z</time>
      </trkpt>
      <trkpt lat="44.10089" lon="6.95727">
        <ele>1739.1999511719</ele>
        <time>2022-07-23T08:13:42.000Z</time>
      </trkpt>
      <trkpt lat="44.10089" lon="6.9573">
        <ele>1739</ele>
        <time>2022-07-23T08:13:52.000Z</time>
      </trkpt>
      <trkpt lat="44.10088" lon="6.95735">
        <ele>1739.1999511719</ele>
        <time>2022-07-23T08:13:59.000Z</time>
      </trkpt>
      <trkpt lat="44.10087" lon="6.95736">
        <ele>1739.5999755859</ele>
        <time>2022-07-23T08:14:03.000Z</time>
      </trkpt>
      <trkpt lat="44.10087" lon="6.95737">
        <ele>1739.1999511719</ele>
        <time>2022-07-23T08:14:09.000Z</time>
      </trkpt>
      <trkpt lat="44.10088" lon="6.95737">
        <ele>1739</ele>
        <time>2022-07-23T08:14:22.000Z</time>
      </trkpt>
      <trkpt lat="44.10088" lon="6.95735">
        <ele>1739.4000244141</ele>
        <time>2022-07-23T08:14:26.000Z</time>
      </trkpt>
      <trkpt lat="44.10089" lon="6.95734">
        <ele>1739.5999755859</ele>
        <time>2022-07-23T08:14:34.000Z</time>
      </trkpt>
      <trkpt lat="44.1009" lon="6.95733">
        <ele>1739.5999755859</ele>
        <time>2022-07-23T08:14:45.000Z</time>
      </trkpt>
      <trkpt lat="44.10091" lon="6.95732">
        <ele>1739.1999511719</ele>
        <time>2022-07-23T08:14:52.000Z</time>
      </trkpt>
      <trkpt lat="44.10092" lon="6.95731">
        <ele>1739.4000244141</ele>
        <time>2022-07-23T08:15:00.000Z</time>
      </trkpt>
      <trkpt lat="44.10094" lon="6.9573">
        <ele>1739.4000244141</ele>
        <time>2022-07-23T08:15:07.000Z</time>
      </trkpt>
      <trkpt lat="44.10096" lon="6.95728">
        <ele>1739</ele>
        <time>2022-07-23T08:15:18.000Z</time>
      </trkpt>
      <trkpt lat="44.10095" lon="6.95729">
        <ele>1739</ele>
        <time>2022-07-23T08:15:26.000Z</time>
      </trkpt>
      <trkpt lat="44.10095" lon="6.95732">
        <ele>1738.8000488281</ele>
        <time>2022-07-23T08:15:37.000Z</time>
      </trkpt>
      <trkpt lat="44.10096" lon="6.95731">
        <ele>1738.8000488281</ele>
        <time>2022-07-23T08:15:42.000Z</time>
      </trkpt>
      <trkpt lat="44.101" lon="6.95719">
        <ele>1739</ele>
        <time>2022-07-23T08:15:47.000Z</time>
      </trkpt>
      <trkpt lat="44.10101" lon="6.95703">
        <ele>1738.5999755859</ele>
        <time>2022-07-23T08:15:51.000Z</time>
      </trkpt>
      <trkpt lat="44.10101" lon="6.95699">
        <ele>1738.5999755859</ele>
        <time>2022-07-23T08:15:52.000Z</time>
      </trkpt>
      <trkpt lat="44.10111" lon="6.95683">
        <ele>1738</ele>
        <time>2022-07-23T08:15:56.000Z</time>
      </trkpt>
      <trkpt lat="44.10121" lon="6.95671">
        <ele>1737.4000244141</ele>
        <time>2022-07-23T08:15:59.000Z</time>
      </trkpt>
      <trkpt lat="44.10132" lon="6.9566">
        <ele>1736.4000244141</ele>
        <time>2022-07-23T08:16:02.000Z</time>
      </trkpt>
      <trkpt lat="44.10141" lon="6.9565">
        <ele>1735.4000244141</ele>
        <time>2022-07-23T08:16:05.000Z</time>
      </trkpt>
      <trkpt lat="44.10152" lon="6.95644">
        <ele>1736</ele>
        <time>2022-07-23T08:16:08.000Z</time>
      </trkpt>
      <trkpt lat="44.10154" lon="6.95641">
        <ele>1736.5999755859</ele>
        <time>2022-07-23T08:16:09.000Z</time>
      </trkpt>
      <trkpt lat="44.10158" lon="6.95635">
        <ele>1737.4000244141</ele>
        <time>2022-07-23T08:16:11.000Z</time>
      </trkpt>
      <trkpt lat="44.10159" lon="6.95632">
        <ele>1738</ele>
        <time>2022-07-23T08:16:12.000Z</time>
      </trkpt>
      <trkpt lat="44.10161" lon="6.95625">
        <ele>1739</ele>
        <time>2022-07-23T08:16:14.000Z</time>
      </trkpt>
      <trkpt lat="44.10162" lon="6.95621">
        <ele>1739.4000244141</ele>
        <time>2022-07-23T08:16:15.000Z</time>
      </trkpt>
      <trkpt lat="44.10162" lon="6.95616">
        <ele>1740</ele>
        <time>2022-07-23T08:16:16.000Z</time>
      </trkpt>
      <trkpt lat="44.10162" lon="6.95611">
        <ele>1740.5999755859</ele>
        <time>2022-07-23T08:16:17.000Z</time>
      </trkpt>
      <trkpt lat="44.10161" lon="6.956">
        <ele>1742</ele>
        <time>2022-07-23T08:16:20.000Z</time>
      </trkpt>
      <trkpt lat="44.10161" lon="6.95597">
        <ele>1742.4000244141</ele>
        <time>2022-07-23T08:16:21.000Z</time>
      </trkpt>
      <trkpt lat="44.10163" lon="6.95593">
        <ele>1743.1999511719</ele>
        <time>2022-07-23T08:16:23.000Z</time>
      </trkpt>
      <trkpt lat="44.10164" lon="6.95585">
        <ele>1744</ele>
        <time>2022-07-23T08:16:26.000Z</time>
      </trkpt>
      <trkpt lat="44.10165" lon="6.95582">
        <ele>1744.1999511719</ele>
        <time>2022-07-23T08:16:27.000Z</time>
      </trkpt>
      <trkpt lat="44.10167" lon="6.95574">
        <ele>1744</ele>
        <time>2022-07-23T08:16:30.000Z</time>
      </trkpt>
      <trkpt lat="44.10171" lon="6.95561">
        <ele>1743.1999511719</ele>
        <time>2022-07-23T08:16:34.000Z</time>
      </trkpt>
      <trkpt lat="44.10172" lon="6.95557">
        <ele>1742.8000488281</ele>
        <time>2022-07-23T08:16:35.000Z</time>
      </trkpt>
      <trkpt lat="44.10177" lon="6.95546">
        <ele>1742</ele>
        <time>2022-07-23T08:16:37.000Z</time>
      </trkpt>
      <trkpt lat="44.10182" lon="6.9554">
        <ele>1741.5999755859</ele>
        <time>2022-07-23T08:16:38.000Z</time>
      </trkpt>
      <trkpt lat="44.10193" lon="6.95528">
        <ele>1740.8000488281</ele>
        <time>2022-07-23T08:16:40.000Z</time>
      </trkpt>
      <trkpt lat="44.10199" lon="6.95522">
        <ele>1740.1999511719</ele>
        <time>2022-07-23T08:16:41.000Z</time>
      </trkpt>
      <trkpt lat="44.10206" lon="6.95517">
        <ele>1739.4000244141</ele>
        <time>2022-07-23T08:16:42.000Z</time>
      </trkpt>
      <trkpt lat="44.10212" lon="6.95513">
        <ele>1738.4000244141</ele>
        <time>2022-07-23T08:16:43.000Z</time>
      </trkpt>
      <trkpt lat="44.10218" lon="6.9551">
        <ele>1739</ele>
        <time>2022-07-23T08:16:44.000Z</time>
      </trkpt>
      <trkpt lat="44.10231" lon="6.955">
        <ele>1737.8000488281</ele>
        <time>2022-07-23T08:16:46.000Z</time>
      </trkpt>
      <trkpt lat="44.10237" lon="6.95496">
        <ele>1736.8000488281</ele>
        <time>2022-07-23T08:16:47.000Z</time>
      </trkpt>
      <trkpt lat="44.10252" lon="6.95493">
        <ele>1735.1999511719</ele>
        <time>2022-07-23T08:16:49.000Z</time>
      </trkpt>
      <trkpt lat="44.10258" lon="6.95494">
        <ele>1734.8000488281</ele>
        <time>2022-07-23T08:16:50.000Z</time>
      </trkpt>
      <trkpt lat="44.10266" lon="6.95495">
        <ele>1734.1999511719</ele>
        <time>2022-07-23T08:16:51.000Z</time>
      </trkpt>
      <trkpt lat="44.10288" lon="6.95496">
        <ele>1732.8000488281</ele>
        <time>2022-07-23T08:16:54.000Z</time>
      </trkpt>
      <trkpt lat="44.10295" lon="6.95497">
        <ele>1732.4000244141</ele>
        <time>2022-07-23T08:16:55.000Z</time>
      </trkpt>
      <trkpt lat="44.10322" lon="6.95505">
        <ele>1731.5999755859</ele>
        <time>2022-07-23T08:16:59.000Z</time>
      </trkpt>
      <trkpt lat="44.10327" lon="6.95507">
        <ele>1731.5999755859</ele>
        <time>2022-07-23T08:17:00.000Z</time>
      </trkpt>
      <trkpt lat="44.10341" lon="6.95512">
        <ele>1732</ele>
        <time>2022-07-23T08:17:03.000Z</time>
      </trkpt>
      <trkpt lat="44.10348" lon="6.95517">
        <ele>1731.8000488281</ele>
        <time>2022-07-23T08:17:05.000Z</time>
      </trkpt>
      <trkpt lat="44.10364" lon="6.95534">
        <ele>1732.5999755859</ele>
        <time>2022-07-23T08:17:11.000Z</time>
      </trkpt>
      <trkpt lat="44.10367" lon="6.95537">
        <ele>1732.8000488281</ele>
        <time>2022-07-23T08:17:12.000Z</time>
      </trkpt>
      <trkpt lat="44.10378" lon="6.95548">
        <ele>1733.4000244141</ele>
        <time>2022-07-23T08:17:15.000Z</time>
      </trkpt>
      <trkpt lat="44.104" lon="6.95558">
        <ele>1733.1999511719</ele>
        <time>2022-07-23T08:17:19.000Z</time>
      </trkpt>
      <trkpt lat="44.10421" lon="6.95567">
        <ele>1732.8000488281</ele>
        <time>2022-07-23T08:17:23.000Z</time>
      </trkpt>
      <trkpt lat="44.10432" lon="6.95571">
        <ele>1732.5999755859</ele>
        <time>2022-07-23T08:17:25.000Z</time>
      </trkpt>
      <trkpt lat="44.10453" lon="6.95579">
        <ele>1732.1999511719</ele>
        <time>2022-07-23T08:17:29.000Z</time>
      </trkpt>
      <trkpt lat="44.10472" lon="6.95591">
        <ele>1733.1999511719</ele>
        <time>2022-07-23T08:17:34.000Z</time>
      </trkpt>
      <trkpt lat="44.10482" lon="6.95596">
        <ele>1734</ele>
        <time>2022-07-23T08:17:37.000Z</time>
      </trkpt>
      <trkpt lat="44.10486" lon="6.95598">
        <ele>1734.1999511719</ele>
        <time>2022-07-23T08:17:38.000Z</time>
      </trkpt>
      <trkpt lat="44.10507" lon="6.95606">
        <ele>1734.4000244141</ele>
        <time>2022-07-23T08:17:43.000Z</time>
      </trkpt>
      <trkpt lat="44.10512" lon="6.95606">
        <ele>1734.4000244141</ele>
        <time>2022-07-23T08:17:44.000Z</time>
      </trkpt>
      <trkpt lat="44.10523" lon="6.95607">
        <ele>1734.5999755859</ele>
        <time>2022-07-23T08:17:46.000Z</time>
      </trkpt>
      <trkpt lat="44.10529" lon="6.95609">
        <ele>1734.4000244141</ele>
        <time>2022-07-23T08:17:47.000Z</time>
      </trkpt>
      <trkpt lat="44.1055" lon="6.95621">
        <ele>1732.5999755859</ele>
        <time>2022-07-23T08:17:51.000Z</time>
      </trkpt>
      <trkpt lat="44.10574" lon="6.95637">
        <ele>1732.8000488281</ele>
        <time>2022-07-23T08:17:56.000Z</time>
      </trkpt>
      <trkpt lat="44.10594" lon="6.95652">
        <ele>1732.1999511719</ele>
        <time>2022-07-23T08:18:00.000Z</time>
      </trkpt>
      <trkpt lat="44.10604" lon="6.95655">
        <ele>1732</ele>
        <time>2022-07-23T08:18:02.000Z</time>
      </trkpt>
      <trkpt lat="44.10609" lon="6.95658">
        <ele>1732</ele>
        <time>2022-07-23T08:18:03.000Z</time>
      </trkpt>
      <trkpt lat="44.10624" lon="6.95668">
        <ele>1731.8000488281</ele>
        <time>2022-07-23T08:18:06.000Z</time>
      </trkpt>
      <trkpt lat="44.1063" lon="6.95671">
        <ele>1731.4000244141</ele>
        <time>2022-07-23T08:18:07.000Z</time>
      </trkpt>
      <trkpt lat="44.10651" lon="6.95685">
        <ele>1730.5999755859</ele>
        <time>2022-07-23T08:18:11.000Z</time>
      </trkpt>
      <trkpt lat="44.10656" lon="6.95691">
        <ele>1730.4000244141</ele>
        <time>2022-07-23T08:18:12.000Z</time>
      </trkpt>
      <trkpt lat="44.1067" lon="6.95706">
        <ele>1729</ele>
        <time>2022-07-23T08:18:15.000Z</time>
      </trkpt>
      <trkpt lat="44.10683" lon="6.95716">
        <ele>1728</ele>
        <time>2022-07-23T08:18:18.000Z</time>
      </trkpt>
      <trkpt lat="44.10687" lon="6.95721">
        <ele>1728.1999511719</ele>
        <time>2022-07-23T08:18:19.000Z</time>
      </trkpt>
      <trkpt lat="44.1069" lon="6.95725">
        <ele>1728.4000244141</ele>
        <time>2022-07-23T08:18:20.000Z</time>
      </trkpt>
      <trkpt lat="44.10695" lon="6.9573">
        <ele>1729</ele>
        <time>2022-07-23T08:18:21.000Z</time>
      </trkpt>
      <trkpt lat="44.10699" lon="6.95733">
        <ele>1729.1999511719</ele>
        <time>2022-07-23T08:18:22.000Z</time>
      </trkpt>
      <trkpt lat="44.10707" lon="6.95736">
        <ele>1729.8000488281</ele>
        <time>2022-07-23T08:18:24.000Z</time>
      </trkpt>
      <trkpt lat="44.10721" lon="6.95735">
        <ele>1730.5999755859</ele>
        <time>2022-07-23T08:18:27.000Z</time>
      </trkpt>
      <trkpt lat="44.10731" lon="6.95732">
        <ele>1731</ele>
        <time>2022-07-23T08:18:29.000Z</time>
      </trkpt>
      <trkpt lat="44.10735" lon="6.95731">
        <ele>1731.5999755859</ele>
        <time>2022-07-23T08:18:30.000Z</time>
      </trkpt>
      <trkpt lat="44.1074" lon="6.95729">
        <ele>1732</ele>
        <time>2022-07-23T08:18:31.000Z</time>
      </trkpt>
      <trkpt lat="44.10753" lon="6.95727">
        <ele>1733</ele>
        <time>2022-07-23T08:18:34.000Z</time>
      </trkpt>
      <trkpt lat="44.10767" lon="6.95727">
        <ele>1733.8000488281</ele>
        <time>2022-07-23T08:18:37.000Z</time>
      </trkpt>
      <trkpt lat="44.10771" lon="6.95727">
        <ele>1734.1999511719</ele>
        <time>2022-07-23T08:18:38.000Z</time>
      </trkpt>
      <trkpt lat="44.10791" lon="6.9573">
        <ele>1735</ele>
        <time>2022-07-23T08:18:43.000Z</time>
      </trkpt>
      <trkpt lat="44.10794" lon="6.95732">
        <ele>1735.1999511719</ele>
        <time>2022-07-23T08:18:44.000Z</time>
      </trkpt>
      <trkpt lat="44.1081" lon="6.95735">
        <ele>1735.4000244141</ele>
        <time>2022-07-23T08:18:48.000Z</time>
      </trkpt>
      <trkpt lat="44.10815" lon="6.95737">
        <ele>1735.4000244141</ele>
        <time>2022-07-23T08:18:49.000Z</time>
      </trkpt>
      <trkpt lat="44.10823" lon="6.95745">
        <ele>1735.1999511719</ele>
        <time>2022-07-23T08:18:51.000Z</time>
      </trkpt>
      <trkpt lat="44.10831" lon="6.95749">
        <ele>1735</ele>
        <time>2022-07-23T08:18:53.000Z</time>
      </trkpt>
      <trkpt lat="44.10836" lon="6.9575">
        <ele>1734.8000488281</ele>
        <time>2022-07-23T08:18:54.000Z</time>
      </trkpt>
      <trkpt lat="44.10845" lon="6.95754">
        <ele>1734.5999755859</ele>
        <time>2022-07-23T08:18:56.000Z</time>
      </trkpt>
      <trkpt lat="44.10852" lon="6.95757">
        <ele>1734.5999755859</ele>
        <time>2022-07-23T08:18:58.000Z</time>
      </trkpt>
      <trkpt lat="44.1087" lon="6.95755">
        <ele>1734.8000488281</ele>
        <time>2022-07-23T08:19:02.000Z</time>
      </trkpt>
      <trkpt lat="44.1088" lon="6.95755">
        <ele>1735.1999511719</ele>
        <time>2022-07-23T08:19:04.000Z</time>
      </trkpt>
      <trkpt lat="44.10894" lon="6.9576">
        <ele>1736</ele>
        <time>2022-07-23T08:19:07.000Z</time>
      </trkpt>
      <trkpt lat="44.10899" lon="6.95763">
        <ele>1736.1999511719</ele>
        <time>2022-07-23T08:19:08.000Z</time>
      </trkpt>
      <trkpt lat="44.10903" lon="6.95766">
        <ele>1736.4000244141</ele>
        <time>2022-07-23T08:19:09.000Z</time>
      </trkpt>
      <trkpt lat="44.10907" lon="6.95768">
        <ele>1736.4000244141</ele>
        <time>2022-07-23T08:19:10.000Z</time>
      </trkpt>
      <trkpt lat="44.10911" lon="6.9577">
        <ele>1736.5999755859</ele>
        <time>2022-07-23T08:19:11.000Z</time>
      </trkpt>
      <trkpt lat="44.1092" lon="6.95775">
        <ele>1737.5999755859</ele>
        <time>2022-07-23T08:19:14.000Z</time>
      </trkpt>
      <trkpt lat="44.10923" lon="6.95777">
        <ele>1737.8000488281</ele>
        <time>2022-07-23T08:19:15.000Z</time>
      </trkpt>
      <trkpt lat="44.1093" lon="6.95782">
        <ele>1738.4000244141</ele>
        <time>2022-07-23T08:19:17.000Z</time>
      </trkpt>
      <trkpt lat="44.10938" lon="6.95785">
        <ele>1738.5999755859</ele>
        <time>2022-07-23T08:19:19.000Z</time>
      </trkpt>
      <trkpt lat="44.10942" lon="6.95786">
        <ele>1738.5999755859</ele>
        <time>2022-07-23T08:19:20.000Z</time>
      </trkpt>
      <trkpt lat="44.10953" lon="6.95791">
        <ele>1739.8000488281</ele>
        <time>2022-07-23T08:19:24.000Z</time>
      </trkpt>
      <trkpt lat="44.10955" lon="6.95793">
        <ele>1740.1999511719</ele>
        <time>2022-07-23T08:19:25.000Z</time>
      </trkpt>
      <trkpt lat="44.10964" lon="6.95801">
        <ele>1741</ele>
        <time>2022-07-23T08:19:28.000Z</time>
      </trkpt>
      <trkpt lat="44.10966" lon="6.95804">
        <ele>1741</ele>
        <time>2022-07-23T08:19:29.000Z</time>
      </trkpt>
      <trkpt lat="44.10973" lon="6.95808">
        <ele>1742.1999511719</ele>
        <time>2022-07-23T08:19:32.000Z</time>
      </trkpt>
      <trkpt lat="44.10978" lon="6.95805">
        <ele>1742.8000488281</ele>
        <time>2022-07-23T08:19:34.000Z</time>
      </trkpt>
      <trkpt lat="44.10992" lon="6.95805">
        <ele>1743</ele>
        <time>2022-07-23T08:19:38.000Z</time>
      </trkpt>
      <trkpt lat="44.11016" lon="6.9582">
        <ele>1742.1999511719</ele>
        <time>2022-07-23T08:19:44.000Z</time>
      </trkpt>
      <trkpt lat="44.11027" lon="6.95826">
        <ele>1742</ele>
        <time>2022-07-23T08:19:48.000Z</time>
      </trkpt>
      <trkpt lat="44.11042" lon="6.95835">
        <ele>1741.4000244141</ele>
        <time>2022-07-23T08:19:54.000Z</time>
      </trkpt>
      <trkpt lat="44.11044" lon="6.95834">
        <ele>1741.1999511719</ele>
        <time>2022-07-23T08:19:55.000Z</time>
      </trkpt>
      <trkpt lat="44.11051" lon="6.95834">
        <ele>1740.5999755859</ele>
        <time>2022-07-23T08:19:57.000Z</time>
      </trkpt>
      <trkpt lat="44.11054" lon="6.95836">
        <ele>1740.1999511719</ele>
        <time>2022-07-23T08:19:58.000Z</time>
      </trkpt>
      <trkpt lat="44.11056" lon="6.95837">
        <ele>1739.8000488281</ele>
        <time>2022-07-23T08:19:59.000Z</time>
      </trkpt>
      <trkpt lat="44.1106" lon="6.9584">
        <ele>1739.4000244141</ele>
        <time>2022-07-23T08:20:02.000Z</time>
      </trkpt>
      <trkpt lat="44.11068" lon="6.9584">
        <ele>1739.5999755859</ele>
        <time>2022-07-23T08:20:07.000Z</time>
      </trkpt>
      <trkpt lat="44.11084" lon="6.95833">
        <ele>1739.5999755859</ele>
        <time>2022-07-23T08:20:13.000Z</time>
      </trkpt>
      <trkpt lat="44.11097" lon="6.95837">
        <ele>1739.8000488281</ele>
        <time>2022-07-23T08:20:18.000Z</time>
      </trkpt>
      <trkpt lat="44.11112" lon="6.95841">
        <ele>1740.8000488281</ele>
        <time>2022-07-23T08:20:23.000Z</time>
      </trkpt>
      <trkpt lat="44.11116" lon="6.95841">
        <ele>1741</ele>
        <time>2022-07-23T08:20:24.000Z</time>
      </trkpt>
      <trkpt lat="44.11127" lon="6.95833">
        <ele>1742</ele>
        <time>2022-07-23T08:20:28.000Z</time>
      </trkpt>
      <trkpt lat="44.1113" lon="6.9583">
        <ele>1742.1999511719</ele>
        <time>2022-07-23T08:20:29.000Z</time>
      </trkpt>
      <trkpt lat="44.11147" lon="6.95823">
        <ele>1743.1999511719</ele>
        <time>2022-07-23T08:20:34.000Z</time>
      </trkpt>
      <trkpt lat="44.1115" lon="6.95825">
        <ele>1743.4000244141</ele>
        <time>2022-07-23T08:20:35.000Z</time>
      </trkpt>
      <trkpt lat="44.11157" lon="6.95835">
        <ele>1744.4000244141</ele>
        <time>2022-07-23T08:20:38.000Z</time>
      </trkpt>
      <trkpt lat="44.1116" lon="6.95838">
        <ele>1744.8000488281</ele>
        <time>2022-07-23T08:20:39.000Z</time>
      </trkpt>
      <trkpt lat="44.11171" lon="6.95846">
        <ele>1745.8000488281</ele>
        <time>2022-07-23T08:20:43.000Z</time>
      </trkpt>
      <trkpt lat="44.11174" lon="6.95847">
        <ele>1746.1999511719</ele>
        <time>2022-07-23T08:20:44.000Z</time>
      </trkpt>
      <trkpt lat="44.11187" lon="6.95849">
        <ele>1747</ele>
        <time>2022-07-23T08:20:48.000Z</time>
      </trkpt>
      <trkpt lat="44.11197" lon="6.9585">
        <ele>1747.5999755859</ele>
        <time>2022-07-23T08:20:51.000Z</time>
      </trkpt>
      <trkpt lat="44.11203" lon="6.95852">
        <ele>1748.1999511719</ele>
        <time>2022-07-23T08:20:53.000Z</time>
      </trkpt>
      <trkpt lat="44.11215" lon="6.95855">
        <ele>1749.4000244141</ele>
        <time>2022-07-23T08:20:57.000Z</time>
      </trkpt>
      <trkpt lat="44.11219" lon="6.95856">
        <ele>1749.8000488281</ele>
        <time>2022-07-23T08:20:58.000Z</time>
      </trkpt>
      <trkpt lat="44.1123" lon="6.95859">
        <ele>1750.5999755859</ele>
        <time>2022-07-23T08:21:02.000Z</time>
      </trkpt>
      <trkpt lat="44.11234" lon="6.95864">
        <ele>1751</ele>
        <time>2022-07-23T08:21:04.000Z</time>
      </trkpt>
      <trkpt lat="44.11238" lon="6.95874">
        <ele>1751.5999755859</ele>
        <time>2022-07-23T08:21:07.000Z</time>
      </trkpt>
      <trkpt lat="44.1124" lon="6.95884">
        <ele>1752.1999511719</ele>
        <time>2022-07-23T08:21:10.000Z</time>
      </trkpt>
      <trkpt lat="44.1124" lon="6.95896">
        <ele>1752.5999755859</ele>
        <time>2022-07-23T08:21:13.000Z</time>
      </trkpt>
      <trkpt lat="44.11241" lon="6.95916">
        <ele>1753</ele>
        <time>2022-07-23T08:21:18.000Z</time>
      </trkpt>
      <trkpt lat="44.11244" lon="6.95935">
        <ele>1753.8000488281</ele>
        <time>2022-07-23T08:21:23.000Z</time>
      </trkpt>
      <trkpt lat="44.11247" lon="6.95941">
        <ele>1754.1999511719</ele>
        <time>2022-07-23T08:21:25.000Z</time>
      </trkpt>
      <trkpt lat="44.11253" lon="6.9595">
        <ele>1754.8000488281</ele>
        <time>2022-07-23T08:21:28.000Z</time>
      </trkpt>
      <trkpt lat="44.11261" lon="6.95962">
        <ele>1756</ele>
        <time>2022-07-23T08:21:32.000Z</time>
      </trkpt>
      <trkpt lat="44.11263" lon="6.95965">
        <ele>1756.1999511719</ele>
        <time>2022-07-23T08:21:33.000Z</time>
      </trkpt>
      <trkpt lat="44.11272" lon="6.95981">
        <ele>1757</ele>
        <time>2022-07-23T08:21:38.000Z</time>
      </trkpt>
      <trkpt lat="44.11281" lon="6.95992">
        <ele>1757.5999755859</ele>
        <time>2022-07-23T08:21:42.000Z</time>
      </trkpt>
      <trkpt lat="44.11288" lon="6.96001">
        <ele>1758.1999511719</ele>
        <time>2022-07-23T08:21:45.000Z</time>
      </trkpt>
      <trkpt lat="44.11299" lon="6.96011">
        <ele>1759.4000244141</ele>
        <time>2022-07-23T08:21:49.000Z</time>
      </trkpt>
      <trkpt lat="44.11301" lon="6.96013">
        <ele>1759.8000488281</ele>
        <time>2022-07-23T08:21:50.000Z</time>
      </trkpt>
      <trkpt lat="44.11313" lon="6.96019">
        <ele>1760.5999755859</ele>
        <time>2022-07-23T08:21:54.000Z</time>
      </trkpt>
      <trkpt lat="44.11322" lon="6.96022">
        <ele>1761.1999511719</ele>
        <time>2022-07-23T08:21:57.000Z</time>
      </trkpt>
      <trkpt lat="44.11325" lon="6.96023">
        <ele>1761.5999755859</ele>
        <time>2022-07-23T08:21:58.000Z</time>
      </trkpt>
      <trkpt lat="44.11339" lon="6.96026">
        <ele>1762.8000488281</ele>
        <time>2022-07-23T08:22:03.000Z</time>
      </trkpt>
      <trkpt lat="44.11346" lon="6.96026">
        <ele>1763.4000244141</ele>
        <time>2022-07-23T08:22:05.000Z</time>
      </trkpt>
      <trkpt lat="44.11352" lon="6.96026">
        <ele>1764</ele>
        <time>2022-07-23T08:22:07.000Z</time>
      </trkpt>
      <trkpt lat="44.11371" lon="6.96023">
        <ele>1764.8000488281</ele>
        <time>2022-07-23T08:22:13.000Z</time>
      </trkpt>
      <trkpt lat="44.11374" lon="6.96021">
        <ele>1765.1999511719</ele>
        <time>2022-07-23T08:22:14.000Z</time>
      </trkpt>
      <trkpt lat="44.11392" lon="6.9601">
        <ele>1766.1999511719</ele>
        <time>2022-07-23T08:22:20.000Z</time>
      </trkpt>
      <trkpt lat="44.11412" lon="6.96007">
        <ele>1767.1999511719</ele>
        <time>2022-07-23T08:22:26.000Z</time>
      </trkpt>
      <trkpt lat="44.11415" lon="6.96007">
        <ele>1767.4000244141</ele>
        <time>2022-07-23T08:22:27.000Z</time>
      </trkpt>
      <trkpt lat="44.11449" lon="6.96015">
        <ele>1768</ele>
        <time>2022-07-23T08:22:37.000Z</time>
      </trkpt>
      <trkpt lat="44.11474" lon="6.96022">
        <ele>1768.1999511719</ele>
        <time>2022-07-23T08:22:44.000Z</time>
      </trkpt>
      <trkpt lat="44.11485" lon="6.96026">
        <ele>1768.8000488281</ele>
        <time>2022-07-23T08:22:47.000Z</time>
      </trkpt>
      <trkpt lat="44.11516" lon="6.96036">
        <ele>1769</ele>
        <time>2022-07-23T08:22:56.000Z</time>
      </trkpt>
      <trkpt lat="44.11548" lon="6.96046">
        <ele>1768.8000488281</ele>
        <time>2022-07-23T08:23:05.000Z</time>
      </trkpt>
      <trkpt lat="44.11575" lon="6.96052">
        <ele>1768.8000488281</ele>
        <time>2022-07-23T08:23:13.000Z</time>
      </trkpt>
      <trkpt lat="44.11595" lon="6.96055">
        <ele>1769.4000244141</ele>
        <time>2022-07-23T08:23:20.000Z</time>
      </trkpt>
      <trkpt lat="44.11602" lon="6.96056">
        <ele>1769.4000244141</ele>
        <time>2022-07-23T08:23:22.000Z</time>
      </trkpt>
      <trkpt lat="44.11627" lon="6.96053">
        <ele>1769.8000488281</ele>
        <time>2022-07-23T08:23:29.000Z</time>
      </trkpt>
      <trkpt lat="44.11646" lon="6.96039">
        <ele>1770.4000244141</ele>
        <time>2022-07-23T08:23:36.000Z</time>
      </trkpt>
      <trkpt lat="44.11649" lon="6.96037">
        <ele>1770.4000244141</ele>
        <time>2022-07-23T08:23:37.000Z</time>
      </trkpt>
      <trkpt lat="44.1167" lon="6.96024">
        <ele>1771</ele>
        <time>2022-07-23T08:23:44.000Z</time>
      </trkpt>
      <trkpt lat="44.11697" lon="6.96017">
        <ele>1770.8000488281</ele>
        <time>2022-07-23T08:23:51.000Z</time>
      </trkpt>
      <trkpt lat="44.11722" lon="6.96008">
        <ele>1771.4000244141</ele>
        <time>2022-07-23T08:23:58.000Z</time>
      </trkpt>
      <trkpt lat="44.11728" lon="6.96006">
        <ele>1771.4000244141</ele>
        <time>2022-07-23T08:24:00.000Z</time>
      </trkpt>
      <trkpt lat="44.11752" lon="6.95998">
        <ele>1771.5999755859</ele>
        <time>2022-07-23T08:24:06.000Z</time>
      </trkpt>
      <trkpt lat="44.11792" lon="6.95981">
        <ele>1772.1999511719</ele>
        <time>2022-07-23T08:24:17.000Z</time>
      </trkpt>
      <trkpt lat="44.11818" lon="6.95975">
        <ele>1772.4000244141</ele>
        <time>2022-07-23T08:24:24.000Z</time>
      </trkpt>
      <trkpt lat="44.11831" lon="6.95977">
        <ele>1772.5999755859</ele>
        <time>2022-07-23T08:24:28.000Z</time>
      </trkpt>
      <trkpt lat="44.11844" lon="6.95979">
        <ele>1773</ele>
        <time>2022-07-23T08:24:32.000Z</time>
      </trkpt>
      <trkpt lat="44.1186" lon="6.9598">
        <ele>1773.5999755859</ele>
        <time>2022-07-23T08:24:37.000Z</time>
      </trkpt>
      <trkpt lat="44.11872" lon="6.9598">
        <ele>1773.8000488281</ele>
        <time>2022-07-23T08:24:41.000Z</time>
      </trkpt>
      <trkpt lat="44.11888" lon="6.95983">
        <ele>1774.5999755859</ele>
        <time>2022-07-23T08:24:46.000Z</time>
      </trkpt>
      <trkpt lat="44.11896" lon="6.95986">
        <ele>1775.1999511719</ele>
        <time>2022-07-23T08:24:49.000Z</time>
      </trkpt>
      <trkpt lat="44.11904" lon="6.95991">
        <ele>1775.8000488281</ele>
        <time>2022-07-23T08:24:52.000Z</time>
      </trkpt>
      <trkpt lat="44.11915" lon="6.95996">
        <ele>1776.1999511719</ele>
        <time>2022-07-23T08:24:56.000Z</time>
      </trkpt>
      <trkpt lat="44.11917" lon="6.95997">
        <ele>1776.1999511719</ele>
        <time>2022-07-23T08:24:57.000Z</time>
      </trkpt>
      <trkpt lat="44.11925" lon="6.96001">
        <ele>1776.8000488281</ele>
        <time>2022-07-23T08:25:00.000Z</time>
      </trkpt>
      <trkpt lat="44.11937" lon="6.9601">
        <ele>1778</ele>
        <time>2022-07-23T08:25:05.000Z</time>
      </trkpt>
      <trkpt lat="44.11943" lon="6.96016">
        <ele>1779.1999511719</ele>
        <time>2022-07-23T08:25:08.000Z</time>
      </trkpt>
      <trkpt lat="44.11952" lon="6.96029">
        <ele>1780.4000244141</ele>
        <time>2022-07-23T08:25:13.000Z</time>
      </trkpt>
      <trkpt lat="44.11954" lon="6.96033">
        <ele>1780.5999755859</ele>
        <time>2022-07-23T08:25:14.000Z</time>
      </trkpt>
      <trkpt lat="44.11959" lon="6.96046">
        <ele>1781.5999755859</ele>
        <time>2022-07-23T08:25:18.000Z</time>
      </trkpt>
      <trkpt lat="44.11966" lon="6.96059">
        <ele>1782.5999755859</ele>
        <time>2022-07-23T08:25:23.000Z</time>
      </trkpt>
      <trkpt lat="44.11966" lon="6.96062">
        <ele>1782.5999755859</ele>
        <time>2022-07-23T08:25:24.000Z</time>
      </trkpt>
      <trkpt lat="44.11972" lon="6.96068">
        <ele>1783.5999755859</ele>
        <time>2022-07-23T08:25:28.000Z</time>
      </trkpt>
      <trkpt lat="44.11973" lon="6.96067">
        <ele>1783.8000488281</ele>
        <time>2022-07-23T08:25:29.000Z</time>
      </trkpt>
      <trkpt lat="44.11975" lon="6.96056">
        <ele>1784.5999755859</ele>
        <time>2022-07-23T08:25:33.000Z</time>
      </trkpt>
      <trkpt lat="44.11975" lon="6.96053">
        <ele>1785</ele>
        <time>2022-07-23T08:25:34.000Z</time>
      </trkpt>
      <trkpt lat="44.11974" lon="6.9605">
        <ele>1785</ele>
        <time>2022-07-23T08:25:35.000Z</time>
      </trkpt>
      <trkpt lat="44.11974" lon="6.96043">
        <ele>1786</ele>
        <time>2022-07-23T08:25:37.000Z</time>
      </trkpt>
      <trkpt lat="44.11974" lon="6.96036">
        <ele>1786.5999755859</ele>
        <time>2022-07-23T08:25:39.000Z</time>
      </trkpt>
      <trkpt lat="44.11974" lon="6.96029">
        <ele>1787</ele>
        <time>2022-07-23T08:25:41.000Z</time>
      </trkpt>
      <trkpt lat="44.11976" lon="6.96013">
        <ele>1788.1999511719</ele>
        <time>2022-07-23T08:25:46.000Z</time>
      </trkpt>
      <trkpt lat="44.11977" lon="6.96011">
        <ele>1788.5999755859</ele>
        <time>2022-07-23T08:25:47.000Z</time>
      </trkpt>
      <trkpt lat="44.11981" lon="6.95999">
        <ele>1789.4000244141</ele>
        <time>2022-07-23T08:25:51.000Z</time>
      </trkpt>
      <trkpt lat="44.11983" lon="6.95995">
        <ele>1789.5999755859</ele>
        <time>2022-07-23T08:25:53.000Z</time>
      </trkpt>
      <trkpt lat="44.11991" lon="6.95989">
        <ele>1790.1999511719</ele>
        <time>2022-07-23T08:25:58.000Z</time>
      </trkpt>
      <trkpt lat="44.12" lon="6.95994">
        <ele>1790.1999511719</ele>
        <time>2022-07-23T08:26:02.000Z</time>
      </trkpt>
      <trkpt lat="44.12006" lon="6.95999">
        <ele>1790.4000244141</ele>
        <time>2022-07-23T08:26:05.000Z</time>
      </trkpt>
      <trkpt lat="44.12012" lon="6.96007">
        <ele>1791.1999511719</ele>
        <time>2022-07-23T08:26:09.000Z</time>
      </trkpt>
      <trkpt lat="44.12013" lon="6.9601">
        <ele>1791.4000244141</ele>
        <time>2022-07-23T08:26:10.000Z</time>
      </trkpt>
      <trkpt lat="44.12016" lon="6.96021">
        <ele>1792.5999755859</ele>
        <time>2022-07-23T08:26:14.000Z</time>
      </trkpt>
      <trkpt lat="44.12017" lon="6.96026">
        <ele>1793.1999511719</ele>
        <time>2022-07-23T08:26:16.000Z</time>
      </trkpt>
      <trkpt lat="44.12018" lon="6.96028">
        <ele>1793.5999755859</ele>
        <time>2022-07-23T08:26:17.000Z</time>
      </trkpt>
      <trkpt lat="44.12025" lon="6.96037">
        <ele>1794.8000488281</ele>
        <time>2022-07-23T08:26:21.000Z</time>
      </trkpt>
      <trkpt lat="44.12039" lon="6.96049">
        <ele>1795.8000488281</ele>
        <time>2022-07-23T08:26:28.000Z</time>
      </trkpt>
      <trkpt lat="44.12041" lon="6.96051">
        <ele>1796</ele>
        <time>2022-07-23T08:26:29.000Z</time>
      </trkpt>
      <trkpt lat="44.1205" lon="6.96066">
        <ele>1797</ele>
        <time>2022-07-23T08:26:35.000Z</time>
      </trkpt>
      <trkpt lat="44.12051" lon="6.9607">
        <ele>1797.1999511719</ele>
        <time>2022-07-23T08:26:36.000Z</time>
      </trkpt>
      <trkpt lat="44.12063" lon="6.96095">
        <ele>1797.8000488281</ele>
        <time>2022-07-23T08:26:44.000Z</time>
      </trkpt>
      <trkpt lat="44.12066" lon="6.961">
        <ele>1798</ele>
        <time>2022-07-23T08:26:46.000Z</time>
      </trkpt>
      <trkpt lat="44.12072" lon="6.96109">
        <ele>1799</ele>
        <time>2022-07-23T08:26:50.000Z</time>
      </trkpt>
      <trkpt lat="44.12079" lon="6.96114">
        <ele>1800.4000244141</ele>
        <time>2022-07-23T08:26:54.000Z</time>
      </trkpt>
      <trkpt lat="44.12082" lon="6.96115">
        <ele>1801.1999511719</ele>
        <time>2022-07-23T08:26:56.000Z</time>
      </trkpt>
      <trkpt lat="44.12083" lon="6.96115">
        <ele>1801.8000488281</ele>
        <time>2022-07-23T08:26:57.000Z</time>
      </trkpt>
      <trkpt lat="44.12085" lon="6.96116">
        <ele>1801.8000488281</ele>
        <time>2022-07-23T08:26:58.000Z</time>
      </trkpt>
      <trkpt lat="44.12091" lon="6.96118">
        <ele>1802.8000488281</ele>
        <time>2022-07-23T08:27:01.000Z</time>
      </trkpt>
      <trkpt lat="44.12094" lon="6.96119">
        <ele>1803.4000244141</ele>
        <time>2022-07-23T08:27:03.000Z</time>
      </trkpt>
      <trkpt lat="44.12096" lon="6.9612">
        <ele>1804</ele>
        <time>2022-07-23T08:27:04.000Z</time>
      </trkpt>
      <trkpt lat="44.12101" lon="6.96122">
        <ele>1805</ele>
        <time>2022-07-23T08:27:07.000Z</time>
      </trkpt>
      <trkpt lat="44.12106" lon="6.96123">
        <ele>1806</ele>
        <time>2022-07-23T08:27:10.000Z</time>
      </trkpt>
      <trkpt lat="44.12112" lon="6.96124">
        <ele>1807.1999511719</ele>
        <time>2022-07-23T08:27:13.000Z</time>
      </trkpt>
      <trkpt lat="44.12117" lon="6.96126">
        <ele>1808.4000244141</ele>
        <time>2022-07-23T08:27:16.000Z</time>
      </trkpt>
      <trkpt lat="44.12122" lon="6.96128">
        <ele>1809.4000244141</ele>
        <time>2022-07-23T08:27:19.000Z</time>
      </trkpt>
      <trkpt lat="44.12124" lon="6.96129">
        <ele>1809.5999755859</ele>
        <time>2022-07-23T08:27:20.000Z</time>
      </trkpt>
      <trkpt lat="44.1213" lon="6.96134">
        <ele>1810.5999755859</ele>
        <time>2022-07-23T08:27:24.000Z</time>
      </trkpt>
      <trkpt lat="44.12132" lon="6.96135">
        <ele>1810.8000488281</ele>
        <time>2022-07-23T08:27:25.000Z</time>
      </trkpt>
      <trkpt lat="44.12138" lon="6.96139">
        <ele>1811.8000488281</ele>
        <time>2022-07-23T08:27:28.000Z</time>
      </trkpt>
      <trkpt lat="44.12142" lon="6.96145">
        <ele>1812.4000244141</ele>
        <time>2022-07-23T08:27:31.000Z</time>
      </trkpt>
      <trkpt lat="44.12146" lon="6.96152">
        <ele>1813</ele>
        <time>2022-07-23T08:27:34.000Z</time>
      </trkpt>
      <trkpt lat="44.12152" lon="6.96162">
        <ele>1813.8000488281</ele>
        <time>2022-07-23T08:27:38.000Z</time>
      </trkpt>
      <trkpt lat="44.12153" lon="6.96164">
        <ele>1814</ele>
        <time>2022-07-23T08:27:39.000Z</time>
      </trkpt>
      <trkpt lat="44.12156" lon="6.96176">
        <ele>1815</ele>
        <time>2022-07-23T08:27:43.000Z</time>
      </trkpt>
      <trkpt lat="44.12156" lon="6.96179">
        <ele>1815.4000244141</ele>
        <time>2022-07-23T08:27:44.000Z</time>
      </trkpt>
      <trkpt lat="44.12155" lon="6.96189">
        <ele>1816.8000488281</ele>
        <time>2022-07-23T08:27:48.000Z</time>
      </trkpt>
      <trkpt lat="44.12155" lon="6.96192">
        <ele>1817</ele>
        <time>2022-07-23T08:27:49.000Z</time>
      </trkpt>
      <trkpt lat="44.12156" lon="6.96197">
        <ele>1817.8000488281</ele>
        <time>2022-07-23T08:27:51.000Z</time>
      </trkpt>
      <trkpt lat="44.12156" lon="6.96205">
        <ele>1819</ele>
        <time>2022-07-23T08:27:54.000Z</time>
      </trkpt>
      <trkpt lat="44.12157" lon="6.96207">
        <ele>1819.1999511719</ele>
        <time>2022-07-23T08:27:55.000Z</time>
      </trkpt>
      <trkpt lat="44.12159" lon="6.96214">
        <ele>1820.4000244141</ele>
        <time>2022-07-23T08:27:58.000Z</time>
      </trkpt>
      <trkpt lat="44.12159" lon="6.96223">
        <ele>1821.8000488281</ele>
        <time>2022-07-23T08:28:01.000Z</time>
      </trkpt>
      <trkpt lat="44.12159" lon="6.96226">
        <ele>1822</ele>
        <time>2022-07-23T08:28:02.000Z</time>
      </trkpt>
      <trkpt lat="44.12159" lon="6.96237">
        <ele>1823</ele>
        <time>2022-07-23T08:28:06.000Z</time>
      </trkpt>
      <trkpt lat="44.1216" lon="6.96244">
        <ele>1823.5999755859</ele>
        <time>2022-07-23T08:28:09.000Z</time>
      </trkpt>
      <trkpt lat="44.12162" lon="6.96253">
        <ele>1824</ele>
        <time>2022-07-23T08:28:12.000Z</time>
      </trkpt>
      <trkpt lat="44.12163" lon="6.96264">
        <ele>1825.1999511719</ele>
        <time>2022-07-23T08:28:16.000Z</time>
      </trkpt>
      <trkpt lat="44.12164" lon="6.96275">
        <ele>1826.1999511719</ele>
        <time>2022-07-23T08:28:20.000Z</time>
      </trkpt>
      <trkpt lat="44.12164" lon="6.96287">
        <ele>1827</ele>
        <time>2022-07-23T08:28:24.000Z</time>
      </trkpt>
      <trkpt lat="44.12164" lon="6.96289">
        <ele>1827.4000244141</ele>
        <time>2022-07-23T08:28:25.000Z</time>
      </trkpt>
      <trkpt lat="44.12164" lon="6.96304">
        <ele>1828.5999755859</ele>
        <time>2022-07-23T08:28:30.000Z</time>
      </trkpt>
      <trkpt lat="44.12164" lon="6.96307">
        <ele>1828.8000488281</ele>
        <time>2022-07-23T08:28:31.000Z</time>
      </trkpt>
      <trkpt lat="44.12166" lon="6.96317">
        <ele>1829.8000488281</ele>
        <time>2022-07-23T08:28:35.000Z</time>
      </trkpt>
      <trkpt lat="44.12166" lon="6.96322">
        <ele>1830.5999755859</ele>
        <time>2022-07-23T08:28:37.000Z</time>
      </trkpt>
      <trkpt lat="44.12166" lon="6.96325">
        <ele>1831.1999511719</ele>
        <time>2022-07-23T08:28:38.000Z</time>
      </trkpt>
      <trkpt lat="44.12167" lon="6.96339">
        <ele>1832.4000244141</ele>
        <time>2022-07-23T08:28:43.000Z</time>
      </trkpt>
      <trkpt lat="44.12169" lon="6.96347">
        <ele>1833.5999755859</ele>
        <time>2022-07-23T08:28:46.000Z</time>
      </trkpt>
      <trkpt lat="44.12171" lon="6.96356">
        <ele>1834.5999755859</ele>
        <time>2022-07-23T08:28:50.000Z</time>
      </trkpt>
      <trkpt lat="44.12172" lon="6.96364">
        <ele>1835.8000488281</ele>
        <time>2022-07-23T08:28:53.000Z</time>
      </trkpt>
      <trkpt lat="44.12174" lon="6.96375">
        <ele>1837</ele>
        <time>2022-07-23T08:28:57.000Z</time>
      </trkpt>
      <trkpt lat="44.1218" lon="6.96388">
        <ele>1838.1999511719</ele>
        <time>2022-07-23T08:29:02.000Z</time>
      </trkpt>
      <trkpt lat="44.12182" lon="6.96395">
        <ele>1839</ele>
        <time>2022-07-23T08:29:05.000Z</time>
      </trkpt>
      <trkpt lat="44.12184" lon="6.96398">
        <ele>1839.1999511719</ele>
        <time>2022-07-23T08:29:06.000Z</time>
      </trkpt>
      <trkpt lat="44.12187" lon="6.96408">
        <ele>1840.4000244141</ele>
        <time>2022-07-23T08:29:10.000Z</time>
      </trkpt>
      <trkpt lat="44.12187" lon="6.96412">
        <ele>1840.5999755859</ele>
        <time>2022-07-23T08:29:11.000Z</time>
      </trkpt>
      <trkpt lat="44.12195" lon="6.9644">
        <ele>1841</ele>
        <time>2022-07-23T08:29:19.000Z</time>
      </trkpt>
      <trkpt lat="44.12199" lon="6.96451">
        <ele>1841.5999755859</ele>
        <time>2022-07-23T08:29:23.000Z</time>
      </trkpt>
      <trkpt lat="44.12201" lon="6.96455">
        <ele>1842.4000244141</ele>
        <time>2022-07-23T08:29:25.000Z</time>
      </trkpt>
      <trkpt lat="44.12202" lon="6.96455">
        <ele>1842.5999755859</ele>
        <time>2022-07-23T08:29:26.000Z</time>
      </trkpt>
      <trkpt lat="44.12203" lon="6.96456">
        <ele>1842.8000488281</ele>
        <time>2022-07-23T08:29:27.000Z</time>
      </trkpt>
      <trkpt lat="44.12208" lon="6.96465">
        <ele>1843.5999755859</ele>
        <time>2022-07-23T08:29:31.000Z</time>
      </trkpt>
      <trkpt lat="44.12209" lon="6.96468">
        <ele>1844</ele>
        <time>2022-07-23T08:29:32.000Z</time>
      </trkpt>
      <trkpt lat="44.1221" lon="6.9647">
        <ele>1844</ele>
        <time>2022-07-23T08:29:33.000Z</time>
      </trkpt>
      <trkpt lat="44.12217" lon="6.96473">
        <ele>1843.8000488281</ele>
        <time>2022-07-23T08:29:36.000Z</time>
      </trkpt>
      <trkpt lat="44.12224" lon="6.96478">
        <ele>1844</ele>
        <time>2022-07-23T08:29:40.000Z</time>
      </trkpt>
      <trkpt lat="44.12226" lon="6.96478">
        <ele>1844</ele>
        <time>2022-07-23T08:29:41.000Z</time>
      </trkpt>
      <trkpt lat="44.12232" lon="6.9648">
        <ele>1844.5999755859</ele>
        <time>2022-07-23T08:29:44.000Z</time>
      </trkpt>
      <trkpt lat="44.12233" lon="6.96481">
        <ele>1844.8000488281</ele>
        <time>2022-07-23T08:29:45.000Z</time>
      </trkpt>
      <trkpt lat="44.12236" lon="6.96483">
        <ele>1845.1999511719</ele>
        <time>2022-07-23T08:29:46.000Z</time>
      </trkpt>
      <trkpt lat="44.12249" lon="6.9649">
        <ele>1846.1999511719</ele>
        <time>2022-07-23T08:29:51.000Z</time>
      </trkpt>
      <trkpt lat="44.12252" lon="6.96491">
        <ele>1846.4000244141</ele>
        <time>2022-07-23T08:29:52.000Z</time>
      </trkpt>
      <trkpt lat="44.12263" lon="6.96497">
        <ele>1847.5999755859</ele>
        <time>2022-07-23T08:29:56.000Z</time>
      </trkpt>
      <trkpt lat="44.12273" lon="6.96501">
        <ele>1848.1999511719</ele>
        <time>2022-07-23T08:30:00.000Z</time>
      </trkpt>
      <trkpt lat="44.12276" lon="6.96502">
        <ele>1848.5999755859</ele>
        <time>2022-07-23T08:30:01.000Z</time>
      </trkpt>
      <trkpt lat="44.12286" lon="6.96506">
        <ele>1849.5999755859</ele>
        <time>2022-07-23T08:30:05.000Z</time>
      </trkpt>
      <trkpt lat="44.12297" lon="6.96513">
        <ele>1850.8000488281</ele>
        <time>2022-07-23T08:30:09.000Z</time>
      </trkpt>
      <trkpt lat="44.12318" lon="6.96524">
        <ele>1851.1999511719</ele>
        <time>2022-07-23T08:30:17.000Z</time>
      </trkpt>
      <trkpt lat="44.12323" lon="6.96525">
        <ele>1852</ele>
        <time>2022-07-23T08:30:19.000Z</time>
      </trkpt>
      <trkpt lat="44.1233" lon="6.9653">
        <ele>1853.4000244141</ele>
        <time>2022-07-23T08:30:22.000Z</time>
      </trkpt>
      <trkpt lat="44.12332" lon="6.96531">
        <ele>1853.8000488281</ele>
        <time>2022-07-23T08:30:23.000Z</time>
      </trkpt>
      <trkpt lat="44.12336" lon="6.96533">
        <ele>1854.5999755859</ele>
        <time>2022-07-23T08:30:25.000Z</time>
      </trkpt>
      <trkpt lat="44.12339" lon="6.96535">
        <ele>1855</ele>
        <time>2022-07-23T08:30:26.000Z</time>
      </trkpt>
      <trkpt lat="44.1234" lon="6.96537">
        <ele>1855.1999511719</ele>
        <time>2022-07-23T08:30:27.000Z</time>
      </trkpt>
      <trkpt lat="44.12341" lon="6.96543">
        <ele>1855.8000488281</ele>
        <time>2022-07-23T08:30:29.000Z</time>
      </trkpt>
      <trkpt lat="44.12344" lon="6.9655">
        <ele>1857.1999511719</ele>
        <time>2022-07-23T08:30:32.000Z</time>
      </trkpt>
      <trkpt lat="44.12347" lon="6.96556">
        <ele>1858.4000244141</ele>
        <time>2022-07-23T08:30:35.000Z</time>
      </trkpt>
      <trkpt lat="44.12351" lon="6.9656">
        <ele>1859.1999511719</ele>
        <time>2022-07-23T08:30:37.000Z</time>
      </trkpt>
      <trkpt lat="44.12353" lon="6.96562">
        <ele>1859.4000244141</ele>
        <time>2022-07-23T08:30:38.000Z</time>
      </trkpt>
      <trkpt lat="44.1236" lon="6.96569">
        <ele>1860.8000488281</ele>
        <time>2022-07-23T08:30:42.000Z</time>
      </trkpt>
      <trkpt lat="44.12365" lon="6.96574">
        <ele>1861.8000488281</ele>
        <time>2022-07-23T08:30:45.000Z</time>
      </trkpt>
      <trkpt lat="44.12367" lon="6.96576">
        <ele>1862</ele>
        <time>2022-07-23T08:30:46.000Z</time>
      </trkpt>
      <trkpt lat="44.12379" lon="6.96587">
        <ele>1863</ele>
        <time>2022-07-23T08:30:52.000Z</time>
      </trkpt>
      <trkpt lat="44.12383" lon="6.96591">
        <ele>1863.4000244141</ele>
        <time>2022-07-23T08:30:54.000Z</time>
      </trkpt>
      <trkpt lat="44.12394" lon="6.96603">
        <ele>1864.1999511719</ele>
        <time>2022-07-23T08:31:00.000Z</time>
      </trkpt>
      <trkpt lat="44.12396" lon="6.96605">
        <ele>1864.5999755859</ele>
        <time>2022-07-23T08:31:01.000Z</time>
      </trkpt>
      <trkpt lat="44.12398" lon="6.96609">
        <ele>1865.1999511719</ele>
        <time>2022-07-23T08:31:03.000Z</time>
      </trkpt>
      <trkpt lat="44.12403" lon="6.96614">
        <ele>1866.4000244141</ele>
        <time>2022-07-23T08:31:06.000Z</time>
      </trkpt>
      <trkpt lat="44.12406" lon="6.96617">
        <ele>1867.4000244141</ele>
        <time>2022-07-23T08:31:08.000Z</time>
      </trkpt>
      <trkpt lat="44.1241" lon="6.96622">
        <ele>1868.8000488281</ele>
        <time>2022-07-23T08:31:12.000Z</time>
      </trkpt>
      <trkpt lat="44.12411" lon="6.96623">
        <ele>1869</ele>
        <time>2022-07-23T08:31:13.000Z</time>
      </trkpt>
      <trkpt lat="44.12415" lon="6.96627">
        <ele>1870.1999511719</ele>
        <time>2022-07-23T08:31:16.000Z</time>
      </trkpt>
      <trkpt lat="44.12416" lon="6.9663">
        <ele>1870.4000244141</ele>
        <time>2022-07-23T08:31:17.000Z</time>
      </trkpt>
      <trkpt lat="44.12416" lon="6.96638">
        <ele>1871.4000244141</ele>
        <time>2022-07-23T08:31:20.000Z</time>
      </trkpt>
      <trkpt lat="44.12416" lon="6.96643">
        <ele>1872</ele>
        <time>2022-07-23T08:31:22.000Z</time>
      </trkpt>
      <trkpt lat="44.12416" lon="6.96648">
        <ele>1873</ele>
        <time>2022-07-23T08:31:24.000Z</time>
      </trkpt>
      <trkpt lat="44.12417" lon="6.96655">
        <ele>1874.1999511719</ele>
        <time>2022-07-23T08:31:27.000Z</time>
      </trkpt>
      <trkpt lat="44.12417" lon="6.96661">
        <ele>1874.8000488281</ele>
        <time>2022-07-23T08:31:29.000Z</time>
      </trkpt>
      <trkpt lat="44.12414" lon="6.96664">
        <ele>1875</ele>
        <time>2022-07-23T08:31:31.000Z</time>
      </trkpt>
      <trkpt lat="44.12412" lon="6.96668">
        <ele>1875.4000244141</ele>
        <time>2022-07-23T08:31:33.000Z</time>
      </trkpt>
      <trkpt lat="44.12411" lon="6.96675">
        <ele>1876</ele>
        <time>2022-07-23T08:31:36.000Z</time>
      </trkpt>
      <trkpt lat="44.12412" lon="6.96677">
        <ele>1876.4000244141</ele>
        <time>2022-07-23T08:31:37.000Z</time>
      </trkpt>
      <trkpt lat="44.12412" lon="6.96689">
        <ele>1878</ele>
        <time>2022-07-23T08:31:41.000Z</time>
      </trkpt>
      <trkpt lat="44.12412" lon="6.96692">
        <ele>1878.1999511719</ele>
        <time>2022-07-23T08:31:42.000Z</time>
      </trkpt>
      <trkpt lat="44.12412" lon="6.96695">
        <ele>1878.5999755859</ele>
        <time>2022-07-23T08:31:43.000Z</time>
      </trkpt>
      <trkpt lat="44.12412" lon="6.967">
        <ele>1879.1999511719</ele>
        <time>2022-07-23T08:31:45.000Z</time>
      </trkpt>
      <trkpt lat="44.12412" lon="6.9671">
        <ele>1880.1999511719</ele>
        <time>2022-07-23T08:31:49.000Z</time>
      </trkpt>
      <trkpt lat="44.12412" lon="6.96712">
        <ele>1880.4000244141</ele>
        <time>2022-07-23T08:31:50.000Z</time>
      </trkpt>
      <trkpt lat="44.12412" lon="6.96723">
        <ele>1881.1999511719</ele>
        <time>2022-07-23T08:31:54.000Z</time>
      </trkpt>
      <trkpt lat="44.12414" lon="6.96733">
        <ele>1882</ele>
        <time>2022-07-23T08:31:57.000Z</time>
      </trkpt>
      <trkpt lat="44.12415" lon="6.96739">
        <ele>1882.4000244141</ele>
        <time>2022-07-23T08:31:59.000Z</time>
      </trkpt>
      <trkpt lat="44.12417" lon="6.9675">
        <ele>1883.5999755859</ele>
        <time>2022-07-23T08:32:03.000Z</time>
      </trkpt>
      <trkpt lat="44.12418" lon="6.96755">
        <ele>1884</ele>
        <time>2022-07-23T08:32:05.000Z</time>
      </trkpt>
      <trkpt lat="44.12418" lon="6.96765">
        <ele>1884.8000488281</ele>
        <time>2022-07-23T08:32:09.000Z</time>
      </trkpt>
      <trkpt lat="44.12418" lon="6.96771">
        <ele>1885.1999511719</ele>
        <time>2022-07-23T08:32:11.000Z</time>
      </trkpt>
      <trkpt lat="44.12416" lon="6.96778">
        <ele>1886</ele>
        <time>2022-07-23T08:32:14.000Z</time>
      </trkpt>
      <trkpt lat="44.12414" lon="6.96789">
        <ele>1887.4000244141</ele>
        <time>2022-07-23T08:32:18.000Z</time>
      </trkpt>
      <trkpt lat="44.12413" lon="6.96791">
        <ele>1887.5999755859</ele>
        <time>2022-07-23T08:32:19.000Z</time>
      </trkpt>
      <trkpt lat="44.12411" lon="6.96799">
        <ele>1888.4000244141</ele>
        <time>2022-07-23T08:32:22.000Z</time>
      </trkpt>
      <trkpt lat="44.12408" lon="6.96809">
        <ele>1889.4000244141</ele>
        <time>2022-07-23T08:32:26.000Z</time>
      </trkpt>
      <trkpt lat="44.12406" lon="6.96814">
        <ele>1890</ele>
        <time>2022-07-23T08:32:28.000Z</time>
      </trkpt>
      <trkpt lat="44.12405" lon="6.96819">
        <ele>1890.5999755859</ele>
        <time>2022-07-23T08:32:30.000Z</time>
      </trkpt>
      <trkpt lat="44.12403" lon="6.96827">
        <ele>1891.8000488281</ele>
        <time>2022-07-23T08:32:33.000Z</time>
      </trkpt>
      <trkpt lat="44.12403" lon="6.9683">
        <ele>1892</ele>
        <time>2022-07-23T08:32:34.000Z</time>
      </trkpt>
      <trkpt lat="44.12402" lon="6.96834">
        <ele>1892.8000488281</ele>
        <time>2022-07-23T08:32:36.000Z</time>
      </trkpt>
      <trkpt lat="44.124" lon="6.96842">
        <ele>1894.1999511719</ele>
        <time>2022-07-23T08:32:39.000Z</time>
      </trkpt>
      <trkpt lat="44.12398" lon="6.96847">
        <ele>1895.1999511719</ele>
        <time>2022-07-23T08:32:41.000Z</time>
      </trkpt>
      <trkpt lat="44.12398" lon="6.96849">
        <ele>1895.4000244141</ele>
        <time>2022-07-23T08:32:42.000Z</time>
      </trkpt>
      <trkpt lat="44.12395" lon="6.96856">
        <ele>1896.5999755859</ele>
        <time>2022-07-23T08:32:45.000Z</time>
      </trkpt>
      <trkpt lat="44.12393" lon="6.96863">
        <ele>1897.5999755859</ele>
        <time>2022-07-23T08:32:48.000Z</time>
      </trkpt>
      <trkpt lat="44.1239" lon="6.9687">
        <ele>1898.5999755859</ele>
        <time>2022-07-23T08:32:51.000Z</time>
      </trkpt>
      <trkpt lat="44.12387" lon="6.96876">
        <ele>1899.8000488281</ele>
        <time>2022-07-23T08:32:54.000Z</time>
      </trkpt>
      <trkpt lat="44.12385" lon="6.96881">
        <ele>1900.5999755859</ele>
        <time>2022-07-23T08:32:56.000Z</time>
      </trkpt>
      <trkpt lat="44.12383" lon="6.96885">
        <ele>1901.1999511719</ele>
        <time>2022-07-23T08:32:58.000Z</time>
      </trkpt>
      <trkpt lat="44.1238" lon="6.96896">
        <ele>1902.4000244141</ele>
        <time>2022-07-23T08:33:03.000Z</time>
      </trkpt>
      <trkpt lat="44.12378" lon="6.96904">
        <ele>1903.4000244141</ele>
        <time>2022-07-23T08:33:06.000Z</time>
      </trkpt>
      <trkpt lat="44.12376" lon="6.9691">
        <ele>1904.5999755859</ele>
        <time>2022-07-23T08:33:09.000Z</time>
      </trkpt>
      <trkpt lat="44.12373" lon="6.96916">
        <ele>1905.5999755859</ele>
        <time>2022-07-23T08:33:12.000Z</time>
      </trkpt>
      <trkpt lat="44.1237" lon="6.96925">
        <ele>1907</ele>
        <time>2022-07-23T08:33:16.000Z</time>
      </trkpt>
      <trkpt lat="44.12367" lon="6.96931">
        <ele>1908</ele>
        <time>2022-07-23T08:33:19.000Z</time>
      </trkpt>
      <trkpt lat="44.12365" lon="6.96938">
        <ele>1909.1999511719</ele>
        <time>2022-07-23T08:33:22.000Z</time>
      </trkpt>
      <trkpt lat="44.12363" lon="6.96943">
        <ele>1909.8000488281</ele>
        <time>2022-07-23T08:33:24.000Z</time>
      </trkpt>
      <trkpt lat="44.12362" lon="6.96947">
        <ele>1910.4000244141</ele>
        <time>2022-07-23T08:33:26.000Z</time>
      </trkpt>
      <trkpt lat="44.12359" lon="6.96953">
        <ele>1911.5999755859</ele>
        <time>2022-07-23T08:33:29.000Z</time>
      </trkpt>
      <trkpt lat="44.12357" lon="6.9696">
        <ele>1912.5999755859</ele>
        <time>2022-07-23T08:33:32.000Z</time>
      </trkpt>
      <trkpt lat="44.12354" lon="6.96966">
        <ele>1913.8000488281</ele>
        <time>2022-07-23T08:33:35.000Z</time>
      </trkpt>
      <trkpt lat="44.12349" lon="6.9698">
        <ele>1915.1999511719</ele>
        <time>2022-07-23T08:33:41.000Z</time>
      </trkpt>
      <trkpt lat="44.12348" lon="6.96982">
        <ele>1915.4000244141</ele>
        <time>2022-07-23T08:33:42.000Z</time>
      </trkpt>
      <trkpt lat="44.12345" lon="6.96988">
        <ele>1916.1999511719</ele>
        <time>2022-07-23T08:33:45.000Z</time>
      </trkpt>
      <trkpt lat="44.12341" lon="6.97">
        <ele>1917.4000244141</ele>
        <time>2022-07-23T08:33:50.000Z</time>
      </trkpt>
      <trkpt lat="44.12338" lon="6.97012">
        <ele>1918.4000244141</ele>
        <time>2022-07-23T08:33:55.000Z</time>
      </trkpt>
      <trkpt lat="44.12337" lon="6.97017">
        <ele>1919.1999511719</ele>
        <time>2022-07-23T08:33:57.000Z</time>
      </trkpt>
      <trkpt lat="44.12336" lon="6.9702">
        <ele>1919.4000244141</ele>
        <time>2022-07-23T08:33:58.000Z</time>
      </trkpt>
      <trkpt lat="44.12333" lon="6.97029">
        <ele>1920.8000488281</ele>
        <time>2022-07-23T08:34:02.000Z</time>
      </trkpt>
      <trkpt lat="44.12331" lon="6.97034">
        <ele>1922</ele>
        <time>2022-07-23T08:34:05.000Z</time>
      </trkpt>
      <trkpt lat="44.12328" lon="6.97042">
        <ele>1922.5999755859</ele>
        <time>2022-07-23T08:34:10.000Z</time>
      </trkpt>
      <trkpt lat="44.12325" lon="6.9705">
        <ele>1923.1999511719</ele>
        <time>2022-07-23T08:34:13.000Z</time>
      </trkpt>
      <trkpt lat="44.12322" lon="6.97058">
        <ele>1924.4000244141</ele>
        <time>2022-07-23T08:34:16.000Z</time>
      </trkpt>
      <trkpt lat="44.12321" lon="6.97062">
        <ele>1925.4000244141</ele>
        <time>2022-07-23T08:34:18.000Z</time>
      </trkpt>
      <trkpt lat="44.1232" lon="6.97064">
        <ele>1925.8000488281</ele>
        <time>2022-07-23T08:34:19.000Z</time>
      </trkpt>
      <trkpt lat="44.12319" lon="6.97066">
        <ele>1926.4000244141</ele>
        <time>2022-07-23T08:34:20.000Z</time>
      </trkpt>
      <trkpt lat="44.12316" lon="6.97075">
        <ele>1927.5999755859</ele>
        <time>2022-07-23T08:34:24.000Z</time>
      </trkpt>
      <trkpt lat="44.12315" lon="6.97076">
        <ele>1928</ele>
        <time>2022-07-23T08:34:25.000Z</time>
      </trkpt>
      <trkpt lat="44.12315" lon="6.97079">
        <ele>1928.4000244141</ele>
        <time>2022-07-23T08:34:26.000Z</time>
      </trkpt>
      <trkpt lat="44.12315" lon="6.97081">
        <ele>1929</ele>
        <time>2022-07-23T08:34:28.000Z</time>
      </trkpt>
      <trkpt lat="44.12314" lon="6.97082">
        <ele>1929.5999755859</ele>
        <time>2022-07-23T08:34:30.000Z</time>
      </trkpt>
      <trkpt lat="44.12314" lon="6.97084">
        <ele>1930</ele>
        <time>2022-07-23T08:34:32.000Z</time>
      </trkpt>
      <trkpt lat="44.12311" lon="6.9709">
        <ele>1930.5999755859</ele>
        <time>2022-07-23T08:34:35.000Z</time>
      </trkpt>
      <trkpt lat="44.12307" lon="6.97105">
        <ele>1931.4000244141</ele>
        <time>2022-07-23T08:34:40.000Z</time>
      </trkpt>
      <trkpt lat="44.12306" lon="6.97109">
        <ele>1932</ele>
        <time>2022-07-23T08:34:41.000Z</time>
      </trkpt>
      <trkpt lat="44.12304" lon="6.97116">
        <ele>1932.5999755859</ele>
        <time>2022-07-23T08:34:43.000Z</time>
      </trkpt>
      <trkpt lat="44.12301" lon="6.97129">
        <ele>1933.5999755859</ele>
        <time>2022-07-23T08:34:47.000Z</time>
      </trkpt>
      <trkpt lat="44.12301" lon="6.97132">
        <ele>1934</ele>
        <time>2022-07-23T08:34:48.000Z</time>
      </trkpt>
      <trkpt lat="44.12301" lon="6.97136">
        <ele>1934.5999755859</ele>
        <time>2022-07-23T08:34:50.000Z</time>
      </trkpt>
      <trkpt lat="44.12301" lon="6.97141">
        <ele>1935.4000244141</ele>
        <time>2022-07-23T08:34:52.000Z</time>
      </trkpt>
      <trkpt lat="44.12302" lon="6.97146">
        <ele>1936</ele>
        <time>2022-07-23T08:34:54.000Z</time>
      </trkpt>
      <trkpt lat="44.12304" lon="6.97161">
        <ele>1937</ele>
        <time>2022-07-23T08:34:59.000Z</time>
      </trkpt>
      <trkpt lat="44.12304" lon="6.97164">
        <ele>1937.1999511719</ele>
        <time>2022-07-23T08:35:00.000Z</time>
      </trkpt>
      <trkpt lat="44.1231" lon="6.97176">
        <ele>1938.5999755859</ele>
        <time>2022-07-23T08:35:04.000Z</time>
      </trkpt>
      <trkpt lat="44.12311" lon="6.97178">
        <ele>1938.5999755859</ele>
        <time>2022-07-23T08:35:05.000Z</time>
      </trkpt>
      <trkpt lat="44.12313" lon="6.97183">
        <ele>1939.5999755859</ele>
        <time>2022-07-23T08:35:07.000Z</time>
      </trkpt>
      <trkpt lat="44.12314" lon="6.97185">
        <ele>1941</ele>
        <time>2022-07-23T08:35:10.000Z</time>
      </trkpt>
      <trkpt lat="44.12314" lon="6.97185">
        <ele>1941.8000488281</ele>
        <time>2022-07-23T08:35:19.000Z</time>
      </trkpt>
      <trkpt lat="44.12314" lon="6.97185">
        <ele>1941.5999755859</ele>
        <time>2022-07-23T08:35:30.000Z</time>
      </trkpt>
      <trkpt lat="44.12314" lon="6.97185">
        <ele>1941.1999511719</ele>
        <time>2022-07-23T08:35:37.000Z</time>
      </trkpt>
      <trkpt lat="44.12314" lon="6.97185">
        <ele>1941.8000488281</ele>
        <time>2022-07-23T08:35:43.000Z</time>
      </trkpt>
      <trkpt lat="44.12314" lon="6.97184">
        <ele>1941.5999755859</ele>
        <time>2022-07-23T08:35:51.000Z</time>
      </trkpt>
      <trkpt lat="44.12314" lon="6.97184">
        <ele>1940.8000488281</ele>
        <time>2022-07-23T08:35:56.000Z</time>
      </trkpt>
      <trkpt lat="44.12313" lon="6.97183">
        <ele>1941.5999755859</ele>
        <time>2022-07-23T08:36:03.000Z</time>
      </trkpt>
      <trkpt lat="44.12313" lon="6.97182">
        <ele>1940.8000488281</ele>
        <time>2022-07-23T08:36:12.000Z</time>
      </trkpt>
      <trkpt lat="44.12312" lon="6.97182">
        <ele>1940.5999755859</ele>
        <time>2022-07-23T08:36:30.000Z</time>
      </trkpt>
      <trkpt lat="44.12313" lon="6.97181">
        <ele>1940.1999511719</ele>
        <time>2022-07-23T08:36:39.000Z</time>
      </trkpt>
      <trkpt lat="44.12314" lon="6.97182">
        <ele>1939.8000488281</ele>
        <time>2022-07-23T08:36:54.000Z</time>
      </trkpt>
      <trkpt lat="44.12314" lon="6.97182">
        <ele>1939.8000488281</ele>
        <time>2022-07-23T08:36:55.000Z</time>
      </trkpt>
      <trkpt lat="44.12314" lon="6.97182">
        <ele>1941</ele>
        <time>2022-07-23T08:37:02.000Z</time>
      </trkpt>
      <trkpt lat="44.12314" lon="6.97182">
        <ele>1941</ele>
        <time>2022-07-23T08:37:03.000Z</time>
      </trkpt>
      <trkpt lat="44.12315" lon="6.97183">
        <ele>1941.4000244141</ele>
        <time>2022-07-23T08:37:23.000Z</time>
      </trkpt>
      <trkpt lat="44.12315" lon="6.97185">
        <ele>1942</ele>
        <time>2022-07-23T08:37:30.000Z</time>
      </trkpt>
      <trkpt lat="44.12315" lon="6.97184">
        <ele>1942</ele>
        <time>2022-07-23T08:37:31.000Z</time>
      </trkpt>
      <trkpt lat="44.12315" lon="6.97185">
        <ele>1942</ele>
        <time>2022-07-23T08:37:43.000Z</time>
      </trkpt>
      <trkpt lat="44.12315" lon="6.97185">
        <ele>1941.5999755859</ele>
        <time>2022-07-23T08:37:52.000Z</time>
      </trkpt>
      <trkpt lat="44.12315" lon="6.97185">
        <ele>1942.4000244141</ele>
        <time>2022-07-23T08:38:07.000Z</time>
      </trkpt>
      <trkpt lat="44.12315" lon="6.97185">
        <ele>1942</ele>
        <time>2022-07-23T08:38:14.000Z</time>
      </trkpt>
      <trkpt lat="44.12316" lon="6.97184">
        <ele>1941.8000488281</ele>
        <time>2022-07-23T08:38:25.000Z</time>
      </trkpt>
      <trkpt lat="44.12316" lon="6.97185">
        <ele>1941.5999755859</ele>
        <time>2022-07-23T08:38:45.000Z</time>
      </trkpt>
      <trkpt lat="44.12316" lon="6.97185">
        <ele>1941.8000488281</ele>
        <time>2022-07-23T08:38:58.000Z</time>
      </trkpt>
      <trkpt lat="44.12316" lon="6.97185">
        <ele>1942.4000244141</ele>
        <time>2022-07-23T08:39:10.000Z</time>
      </trkpt>
      <trkpt lat="44.12316" lon="6.97185">
        <ele>1942</ele>
        <time>2022-07-23T08:39:20.000Z</time>
      </trkpt>
      <trkpt lat="44.12316" lon="6.97185">
        <ele>1942</ele>
        <time>2022-07-23T08:39:31.000Z</time>
      </trkpt>
      <trkpt lat="44.12315" lon="6.97185">
        <ele>1941.4000244141</ele>
        <time>2022-07-23T08:39:38.000Z</time>
      </trkpt>
      <trkpt lat="44.12315" lon="6.97185">
        <ele>1941.5999755859</ele>
        <time>2022-07-23T08:39:45.000Z</time>
      </trkpt>
      <trkpt lat="44.12315" lon="6.97184">
        <ele>1942</ele>
        <time>2022-07-23T08:39:52.000Z</time>
      </trkpt>
      <trkpt lat="44.12315" lon="6.97185">
        <ele>1941.8000488281</ele>
        <time>2022-07-23T08:40:00.000Z</time>
      </trkpt>
      <trkpt lat="44.12315" lon="6.97184">
        <ele>1942</ele>
        <time>2022-07-23T08:40:08.000Z</time>
      </trkpt>
      <trkpt lat="44.12315" lon="6.97184">
        <ele>1941.8000488281</ele>
        <time>2022-07-23T08:40:21.000Z</time>
      </trkpt>
      <trkpt lat="44.12315" lon="6.97184">
        <ele>1942.4000244141</ele>
        <time>2022-07-23T08:40:29.000Z</time>
      </trkpt>
      <trkpt lat="44.12314" lon="6.97185">
        <ele>1942</ele>
        <time>2022-07-23T08:40:36.000Z</time>
      </trkpt>
      <trkpt lat="44.12315" lon="6.97184">
        <ele>1941.8000488281</ele>
        <time>2022-07-23T08:40:44.000Z</time>
      </trkpt>
      <trkpt lat="44.12315" lon="6.97184">
        <ele>1942.4000244141</ele>
        <time>2022-07-23T08:40:54.000Z</time>
      </trkpt>
      <trkpt lat="44.12315" lon="6.97184">
        <ele>1942.5999755859</ele>
        <time>2022-07-23T08:41:06.000Z</time>
      </trkpt>
      <trkpt lat="44.12315" lon="6.97184">
        <ele>1942.5999755859</ele>
        <time>2022-07-23T08:41:17.000Z</time>
      </trkpt>
      <trkpt lat="44.12315" lon="6.97184">
        <ele>1943</ele>
        <time>2022-07-23T08:41:25.000Z</time>
      </trkpt>
      <trkpt lat="44.12315" lon="6.97184">
        <ele>1943</ele>
        <time>2022-07-23T08:41:30.000Z</time>
      </trkpt>
      <trkpt lat="44.12315" lon="6.97184">
        <ele>1942.4000244141</ele>
        <time>2022-07-23T08:41:40.000Z</time>
      </trkpt>
      <trkpt lat="44.12315" lon="6.97184">
        <ele>1942.4000244141</ele>
        <time>2022-07-23T08:41:49.000Z</time>
      </trkpt>
      <trkpt lat="44.12315" lon="6.97182">
        <ele>1942.8000488281</ele>
        <time>2022-07-23T08:42:01.000Z</time>
      </trkpt>
      <trkpt lat="44.12316" lon="6.97182">
        <ele>1942.8000488281</ele>
        <time>2022-07-23T08:42:12.000Z</time>
      </trkpt>
      <trkpt lat="44.12316" lon="6.97182">
        <ele>1942.8000488281</ele>
        <time>2022-07-23T08:42:25.000Z</time>
      </trkpt>
      <trkpt lat="44.12316" lon="6.97182">
        <ele>1943.1999511719</ele>
        <time>2022-07-23T08:42:36.000Z</time>
      </trkpt>
      <trkpt lat="44.12317" lon="6.97183">
        <ele>1943</ele>
        <time>2022-07-23T08:42:50.000Z</time>
      </trkpt>
      <trkpt lat="44.12317" lon="6.97182">
        <ele>1943.1999511719</ele>
        <time>2022-07-23T08:43:10.000Z</time>
      </trkpt>
      <trkpt lat="44.12317" lon="6.97182">
        <ele>1943.1999511719</ele>
        <time>2022-07-23T08:43:22.000Z</time>
      </trkpt>
      <trkpt lat="44.12316" lon="6.97182">
        <ele>1943.5999755859</ele>
        <time>2022-07-23T08:43:31.000Z</time>
      </trkpt>
      <trkpt lat="44.12316" lon="6.97182">
        <ele>1944</ele>
        <time>2022-07-23T08:43:34.000Z</time>
      </trkpt>
      <trkpt lat="44.12316" lon="6.97183">
        <ele>1944</ele>
        <time>2022-07-23T08:43:46.000Z</time>
      </trkpt>
      <trkpt lat="44.12316" lon="6.97184">
        <ele>1943.4000244141</ele>
        <time>2022-07-23T08:43:55.000Z</time>
      </trkpt>
      <trkpt lat="44.12317" lon="6.97184">
        <ele>1943.5999755859</ele>
        <time>2022-07-23T08:44:04.000Z</time>
      </trkpt>
      <trkpt lat="44.12317" lon="6.97184">
        <ele>1943.8000488281</ele>
        <time>2022-07-23T08:44:12.000Z</time>
      </trkpt>
      <trkpt lat="44.12317" lon="6.97185">
        <ele>1944.5999755859</ele>
        <time>2022-07-23T08:44:19.000Z</time>
      </trkpt>
      <trkpt lat="44.12317" lon="6.97183">
        <ele>1944</ele>
        <time>2022-07-23T08:44:25.000Z</time>
      </trkpt>
      <trkpt lat="44.12316" lon="6.97184">
        <ele>1944.4000244141</ele>
        <time>2022-07-23T08:44:28.000Z</time>
      </trkpt>
      <trkpt lat="44.12316" lon="6.97185">
        <ele>1944</ele>
        <time>2022-07-23T08:44:31.000Z</time>
      </trkpt>
      <trkpt lat="44.12315" lon="6.97187">
        <ele>1944.1999511719</ele>
        <time>2022-07-23T08:44:39.000Z</time>
      </trkpt>
      <trkpt lat="44.12314" lon="6.97189">
        <ele>1944.1999511719</ele>
        <time>2022-07-23T08:44:40.000Z</time>
      </trkpt>
      <trkpt lat="44.12307" lon="6.97207">
        <ele>1943.4000244141</ele>
        <time>2022-07-23T08:44:44.000Z</time>
      </trkpt>
      <trkpt lat="44.12302" lon="6.97221">
        <ele>1942</ele>
        <time>2022-07-23T08:44:46.000Z</time>
      </trkpt>
      <trkpt lat="44.12298" lon="6.97228">
        <ele>1941</ele>
        <time>2022-07-23T08:44:47.000Z</time>
      </trkpt>
      <trkpt lat="44.12293" lon="6.97233">
        <ele>1939.5999755859</ele>
        <time>2022-07-23T08:44:48.000Z</time>
      </trkpt>
      <trkpt lat="44.12282" lon="6.97239">
        <ele>1937.8000488281</ele>
        <time>2022-07-23T08:44:50.000Z</time>
      </trkpt>
      <trkpt lat="44.12277" lon="6.97241">
        <ele>1936.8000488281</ele>
        <time>2022-07-23T08:44:51.000Z</time>
      </trkpt>
      <trkpt lat="44.12269" lon="6.97245">
        <ele>1935.5999755859</ele>
        <time>2022-07-23T08:44:53.000Z</time>
      </trkpt>
      <trkpt lat="44.12261" lon="6.97247">
        <ele>1934.4000244141</ele>
        <time>2022-07-23T08:44:55.000Z</time>
      </trkpt>
      <trkpt lat="44.12255" lon="6.97247">
        <ele>1934</ele>
        <time>2022-07-23T08:44:56.000Z</time>
      </trkpt>
      <trkpt lat="44.12245" lon="6.97249">
        <ele>1932.5999755859</ele>
        <time>2022-07-23T08:44:58.000Z</time>
      </trkpt>
      <trkpt lat="44.12241" lon="6.97252">
        <ele>1931.4000244141</ele>
        <time>2022-07-23T08:44:59.000Z</time>
      </trkpt>
      <trkpt lat="44.1224" lon="6.97256">
        <ele>1930.1999511719</ele>
        <time>2022-07-23T08:45:00.000Z</time>
      </trkpt>
      <trkpt lat="44.1224" lon="6.97266">
        <ele>1927.8000488281</ele>
        <time>2022-07-23T08:45:02.000Z</time>
      </trkpt>
      <trkpt lat="44.12241" lon="6.97274">
        <ele>1926.1999511719</ele>
        <time>2022-07-23T08:45:04.000Z</time>
      </trkpt>
      <trkpt lat="44.12241" lon="6.97275">
        <ele>1925</ele>
        <time>2022-07-23T08:45:06.000Z</time>
      </trkpt>
      <trkpt lat="44.12241" lon="6.97275">
        <ele>1923.8000488281</ele>
        <time>2022-07-23T08:45:08.000Z</time>
      </trkpt>
      <trkpt lat="44.12241" lon="6.97275">
        <ele>1923.1999511719</ele>
        <time>2022-07-23T08:45:20.000Z</time>
      </trkpt>
      <trkpt lat="44.12242" lon="6.97275">
        <ele>1923.4000244141</ele>
        <time>2022-07-23T08:45:49.000Z</time>
      </trkpt>
      <trkpt lat="44.12243" lon="6.97277">
        <ele>1923.5999755859</ele>
        <time>2022-07-23T08:46:00.000Z</time>
      </trkpt>
      <trkpt lat="44.12244" lon="6.97281">
        <ele>1923.5999755859</ele>
        <time>2022-07-23T08:46:02.000Z</time>
      </trkpt>
      <trkpt lat="44.12244" lon="6.97282">
        <ele>1923.1999511719</ele>
        <time>2022-07-23T08:46:04.000Z</time>
      </trkpt>
      <trkpt lat="44.12244" lon="6.97282">
        <ele>1922.5999755859</ele>
        <time>2022-07-23T08:46:06.000Z</time>
      </trkpt>
      <trkpt lat="44.12245" lon="6.97282">
        <ele>1922</ele>
        <time>2022-07-23T08:46:08.000Z</time>
      </trkpt>
      <trkpt lat="44.12246" lon="6.97285">
        <ele>1921.8000488281</ele>
        <time>2022-07-23T08:46:10.000Z</time>
      </trkpt>
      <trkpt lat="44.12248" lon="6.97291">
        <ele>1921.5999755859</ele>
        <time>2022-07-23T08:46:13.000Z</time>
      </trkpt>
      <trkpt lat="44.1225" lon="6.97297">
        <ele>1921.4000244141</ele>
        <time>2022-07-23T08:46:15.000Z</time>
      </trkpt>
      <trkpt lat="44.12252" lon="6.97299">
        <ele>1921</ele>
        <time>2022-07-23T08:46:16.000Z</time>
      </trkpt>
      <trkpt lat="44.12255" lon="6.97302">
        <ele>1920.5999755859</ele>
        <time>2022-07-23T08:46:17.000Z</time>
      </trkpt>
      <trkpt lat="44.12259" lon="6.9731">
        <ele>1919.1999511719</ele>
        <time>2022-07-23T08:46:19.000Z</time>
      </trkpt>
      <trkpt lat="44.1226" lon="6.97319">
        <ele>1917.8000488281</ele>
        <time>2022-07-23T08:46:21.000Z</time>
      </trkpt>
      <trkpt lat="44.12259" lon="6.97322">
        <ele>1916.8000488281</ele>
        <time>2022-07-23T08:46:22.000Z</time>
      </trkpt>
      <trkpt lat="44.12258" lon="6.97325">
        <ele>1916</ele>
        <time>2022-07-23T08:46:23.000Z</time>
      </trkpt>
      <trkpt lat="44.12257" lon="6.97328">
        <ele>1915.1999511719</ele>
        <time>2022-07-23T08:46:24.000Z</time>
      </trkpt>
      <trkpt lat="44.12255" lon="6.97334">
        <ele>1913.5999755859</ele>
        <time>2022-07-23T08:46:26.000Z</time>
      </trkpt>
      <trkpt lat="44.12253" lon="6.97335">
        <ele>1913</ele>
        <time>2022-07-23T08:46:27.000Z</time>
      </trkpt>
      <trkpt lat="44.1225" lon="6.97336">
        <ele>1912.4000244141</ele>
        <time>2022-07-23T08:46:28.000Z</time>
      </trkpt>
      <trkpt lat="44.12245" lon="6.97336">
        <ele>1911</ele>
        <time>2022-07-23T08:46:30.000Z</time>
      </trkpt>
      <trkpt lat="44.12242" lon="6.97337">
        <ele>1910.8000488281</ele>
        <time>2022-07-23T08:46:31.000Z</time>
      </trkpt>
      <trkpt lat="44.12238" lon="6.97338">
        <ele>1909.5999755859</ele>
        <time>2022-07-23T08:46:33.000Z</time>
      </trkpt>
      <trkpt lat="44.12231" lon="6.97337">
        <ele>1909.1999511719</ele>
        <time>2022-07-23T08:46:35.000Z</time>
      </trkpt>
      <trkpt lat="44.12224" lon="6.97331">
        <ele>1908.4000244141</ele>
        <time>2022-07-23T08:46:37.000Z</time>
      </trkpt>
      <trkpt lat="44.1222" lon="6.97329">
        <ele>1907.5999755859</ele>
        <time>2022-07-23T08:46:38.000Z</time>
      </trkpt>
      <trkpt lat="44.12216" lon="6.97327">
        <ele>1907</ele>
        <time>2022-07-23T08:46:39.000Z</time>
      </trkpt>
      <trkpt lat="44.12212" lon="6.97325">
        <ele>1906</ele>
        <time>2022-07-23T08:46:40.000Z</time>
      </trkpt>
      <trkpt lat="44.12204" lon="6.97321">
        <ele>1904.4000244141</ele>
        <time>2022-07-23T08:46:42.000Z</time>
      </trkpt>
      <trkpt lat="44.122" lon="6.97319">
        <ele>1903</ele>
        <time>2022-07-23T08:46:43.000Z</time>
      </trkpt>
      <trkpt lat="44.12191" lon="6.97316">
        <ele>1901.4000244141</ele>
        <time>2022-07-23T08:46:45.000Z</time>
      </trkpt>
      <trkpt lat="44.12188" lon="6.97314">
        <ele>1900</ele>
        <time>2022-07-23T08:46:46.000Z</time>
      </trkpt>
      <trkpt lat="44.12182" lon="6.9731">
        <ele>1900.1999511719</ele>
        <time>2022-07-23T08:46:48.000Z</time>
      </trkpt>
      <trkpt lat="44.12179" lon="6.97307">
        <ele>1897.8000488281</ele>
        <time>2022-07-23T08:46:50.000Z</time>
      </trkpt>
      <trkpt lat="44.12176" lon="6.97307">
        <ele>1897.1999511719</ele>
        <time>2022-07-23T08:46:52.000Z</time>
      </trkpt>
      <trkpt lat="44.12171" lon="6.97303">
        <ele>1896.5999755859</ele>
        <time>2022-07-23T08:46:54.000Z</time>
      </trkpt>
      <trkpt lat="44.12168" lon="6.973">
        <ele>1895.8000488281</ele>
        <time>2022-07-23T08:46:55.000Z</time>
      </trkpt>
      <trkpt lat="44.12165" lon="6.97297">
        <ele>1895.8000488281</ele>
        <time>2022-07-23T08:46:56.000Z</time>
      </trkpt>
      <trkpt lat="44.12163" lon="6.97294">
        <ele>1895</ele>
        <time>2022-07-23T08:46:57.000Z</time>
      </trkpt>
      <trkpt lat="44.1216" lon="6.9729">
        <ele>1893</ele>
        <time>2022-07-23T08:46:58.000Z</time>
      </trkpt>
      <trkpt lat="44.12156" lon="6.97286">
        <ele>1891.8000488281</ele>
        <time>2022-07-23T08:46:59.000Z</time>
      </trkpt>
      <trkpt lat="44.12152" lon="6.97283">
        <ele>1890.8000488281</ele>
        <time>2022-07-23T08:47:00.000Z</time>
      </trkpt>
      <trkpt lat="44.12147" lon="6.97278">
        <ele>1890</ele>
        <time>2022-07-23T08:47:01.000Z</time>
      </trkpt>
      <trkpt lat="44.12143" lon="6.97275">
        <ele>1889.1999511719</ele>
        <time>2022-07-23T08:47:02.000Z</time>
      </trkpt>
      <trkpt lat="44.12135" lon="6.97268">
        <ele>1887</ele>
        <time>2022-07-23T08:47:04.000Z</time>
      </trkpt>
      <trkpt lat="44.12131" lon="6.97265">
        <ele>1886</ele>
        <time>2022-07-23T08:47:05.000Z</time>
      </trkpt>
      <trkpt lat="44.12127" lon="6.97261">
        <ele>1885</ele>
        <time>2022-07-23T08:47:06.000Z</time>
      </trkpt>
      <trkpt lat="44.12123" lon="6.97257">
        <ele>1884.1999511719</ele>
        <time>2022-07-23T08:47:07.000Z</time>
      </trkpt>
      <trkpt lat="44.12119" lon="6.97252">
        <ele>1883</ele>
        <time>2022-07-23T08:47:08.000Z</time>
      </trkpt>
      <trkpt lat="44.1211" lon="6.9724">
        <ele>1881.1999511719</ele>
        <time>2022-07-23T08:47:10.000Z</time>
      </trkpt>
      <trkpt lat="44.12106" lon="6.97233">
        <ele>1880</ele>
        <time>2022-07-23T08:47:11.000Z</time>
      </trkpt>
      <trkpt lat="44.12102" lon="6.97228">
        <ele>1879.5999755859</ele>
        <time>2022-07-23T08:47:12.000Z</time>
      </trkpt>
      <trkpt lat="44.121" lon="6.97222">
        <ele>1878.1999511719</ele>
        <time>2022-07-23T08:47:13.000Z</time>
      </trkpt>
      <trkpt lat="44.12098" lon="6.97215">
        <ele>1876.8000488281</ele>
        <time>2022-07-23T08:47:14.000Z</time>
      </trkpt>
      <trkpt lat="44.12096" lon="6.97208">
        <ele>1875.1999511719</ele>
        <time>2022-07-23T08:47:15.000Z</time>
      </trkpt>
      <trkpt lat="44.12094" lon="6.97199">
        <ele>1873.5999755859</ele>
        <time>2022-07-23T08:47:16.000Z</time>
      </trkpt>
      <trkpt lat="44.12093" lon="6.97189">
        <ele>1872</ele>
        <time>2022-07-23T08:47:17.000Z</time>
      </trkpt>
      <trkpt lat="44.12092" lon="6.97179">
        <ele>1870.8000488281</ele>
        <time>2022-07-23T08:47:18.000Z</time>
      </trkpt>
      <trkpt lat="44.12091" lon="6.97171">
        <ele>1869.5999755859</ele>
        <time>2022-07-23T08:47:19.000Z</time>
      </trkpt>
      <trkpt lat="44.1209" lon="6.97163">
        <ele>1868</ele>
        <time>2022-07-23T08:47:20.000Z</time>
      </trkpt>
      <trkpt lat="44.12089" lon="6.97156">
        <ele>1866.8000488281</ele>
        <time>2022-07-23T08:47:21.000Z</time>
      </trkpt>
      <trkpt lat="44.12088" lon="6.97148">
        <ele>1865.5999755859</ele>
        <time>2022-07-23T08:47:22.000Z</time>
      </trkpt>
      <trkpt lat="44.12086" lon="6.97136">
        <ele>1863.5999755859</ele>
        <time>2022-07-23T08:47:24.000Z</time>
      </trkpt>
      <trkpt lat="44.12086" lon="6.97133">
        <ele>1862.4000244141</ele>
        <time>2022-07-23T08:47:25.000Z</time>
      </trkpt>
      <trkpt lat="44.12085" lon="6.97132">
        <ele>1861.4000244141</ele>
        <time>2022-07-23T08:47:26.000Z</time>
      </trkpt>
      <trkpt lat="44.12082" lon="6.97134">
        <ele>1860.1999511719</ele>
        <time>2022-07-23T08:47:28.000Z</time>
      </trkpt>
      <trkpt lat="44.12073" lon="6.97145">
        <ele>1859.1999511719</ele>
        <time>2022-07-23T08:47:31.000Z</time>
      </trkpt>
      <trkpt lat="44.1207" lon="6.97148">
        <ele>1858.5999755859</ele>
        <time>2022-07-23T08:47:32.000Z</time>
      </trkpt>
      <trkpt lat="44.12063" lon="6.97156">
        <ele>1856.8000488281</ele>
        <time>2022-07-23T08:47:34.000Z</time>
      </trkpt>
      <trkpt lat="44.12059" lon="6.9716">
        <ele>1855.4000244141</ele>
        <time>2022-07-23T08:47:35.000Z</time>
      </trkpt>
      <trkpt lat="44.12055" lon="6.97164">
        <ele>1854.8000488281</ele>
        <time>2022-07-23T08:47:36.000Z</time>
      </trkpt>
      <trkpt lat="44.12052" lon="6.97167">
        <ele>1854.1999511719</ele>
        <time>2022-07-23T08:47:37.000Z</time>
      </trkpt>
      <trkpt lat="44.1205" lon="6.9717">
        <ele>1853</ele>
        <time>2022-07-23T08:47:38.000Z</time>
      </trkpt>
      <trkpt lat="44.12047" lon="6.97173">
        <ele>1851.5999755859</ele>
        <time>2022-07-23T08:47:39.000Z</time>
      </trkpt>
      <trkpt lat="44.12045" lon="6.97177">
        <ele>1851.1999511719</ele>
        <time>2022-07-23T08:47:40.000Z</time>
      </trkpt>
      <trkpt lat="44.12038" lon="6.97186">
        <ele>1849.5999755859</ele>
        <time>2022-07-23T08:47:42.000Z</time>
      </trkpt>
      <trkpt lat="44.12033" lon="6.97195">
        <ele>1848</ele>
        <time>2022-07-23T08:47:44.000Z</time>
      </trkpt>
      <trkpt lat="44.12031" lon="6.97198">
        <ele>1846.8000488281</ele>
        <time>2022-07-23T08:47:45.000Z</time>
      </trkpt>
      <trkpt lat="44.12029" lon="6.97202">
        <ele>1845.5999755859</ele>
        <time>2022-07-23T08:47:46.000Z</time>
      </trkpt>
      <trkpt lat="44.12026" lon="6.97206">
        <ele>1844.4000244141</ele>
        <time>2022-07-23T08:47:47.000Z</time>
      </trkpt>
      <trkpt lat="44.12021" lon="6.97212">
        <ele>1845</ele>
        <time>2022-07-23T08:47:49.000Z</time>
      </trkpt>
      <trkpt lat="44.12019" lon="6.97216">
        <ele>1844</ele>
        <time>2022-07-23T08:47:50.000Z</time>
      </trkpt>
      <trkpt lat="44.12017" lon="6.97219">
        <ele>1843.1999511719</ele>
        <time>2022-07-23T08:47:51.000Z</time>
      </trkpt>
      <trkpt lat="44.12013" lon="6.97226">
        <ele>1841.4000244141</ele>
        <time>2022-07-23T08:47:53.000Z</time>
      </trkpt>
      <trkpt lat="44.12009" lon="6.97233">
        <ele>1840</ele>
        <time>2022-07-23T08:47:55.000Z</time>
      </trkpt>
      <trkpt lat="44.12005" lon="6.97239">
        <ele>1838.8000488281</ele>
        <time>2022-07-23T08:47:57.000Z</time>
      </trkpt>
      <trkpt lat="44.12002" lon="6.97242">
        <ele>1838.1999511719</ele>
        <time>2022-07-23T08:47:58.000Z</time>
      </trkpt>
      <trkpt lat="44.12" lon="6.97245">
        <ele>1837.4000244141</ele>
        <time>2022-07-23T08:47:59.000Z</time>
      </trkpt>
      <trkpt lat="44.11997" lon="6.97249">
        <ele>1835.1999511719</ele>
        <time>2022-07-23T08:48:01.000Z</time>
      </trkpt>
      <trkpt lat="44.11994" lon="6.97252">
        <ele>1834.5999755859</ele>
        <time>2022-07-23T08:48:02.000Z</time>
      </trkpt>
      <trkpt lat="44.11992" lon="6.97256">
        <ele>1833.8000488281</ele>
        <time>2022-07-23T08:48:03.000Z</time>
      </trkpt>
      <trkpt lat="44.11986" lon="6.97266">
        <ele>1832.4000244141</ele>
        <time>2022-07-23T08:48:05.000Z</time>
      </trkpt>
      <trkpt lat="44.11982" lon="6.97271">
        <ele>1831.1999511719</ele>
        <time>2022-07-23T08:48:06.000Z</time>
      </trkpt>
      <trkpt lat="44.11979" lon="6.97276">
        <ele>1830</ele>
        <time>2022-07-23T08:48:07.000Z</time>
      </trkpt>
      <trkpt lat="44.11972" lon="6.97285">
        <ele>1827.8000488281</ele>
        <time>2022-07-23T08:48:09.000Z</time>
      </trkpt>
      <trkpt lat="44.11968" lon="6.97288">
        <ele>1826.8000488281</ele>
        <time>2022-07-23T08:48:10.000Z</time>
      </trkpt>
      <trkpt lat="44.11964" lon="6.9729">
        <ele>1825.4000244141</ele>
        <time>2022-07-23T08:48:11.000Z</time>
      </trkpt>
      <trkpt lat="44.11961" lon="6.97296">
        <ele>1823.1999511719</ele>
        <time>2022-07-23T08:48:13.000Z</time>
      </trkpt>
      <trkpt lat="44.1196" lon="6.97298">
        <ele>1822</ele>
        <time>2022-07-23T08:48:14.000Z</time>
      </trkpt>
      <trkpt lat="44.1196" lon="6.97299">
        <ele>1821.4000244141</ele>
        <time>2022-07-23T08:48:20.000Z</time>
      </trkpt>
      <trkpt lat="44.1196" lon="6.97299">
        <ele>1821</ele>
        <time>2022-07-23T08:48:28.000Z</time>
      </trkpt>
      <trkpt lat="44.11961" lon="6.973">
        <ele>1820.5999755859</ele>
        <time>2022-07-23T08:48:36.000Z</time>
      </trkpt>
      <trkpt lat="44.11961" lon="6.973">
        <ele>1820</ele>
        <time>2022-07-23T08:48:39.000Z</time>
      </trkpt>
      <trkpt lat="44.11961" lon="6.973">
        <ele>1819</ele>
        <time>2022-07-23T08:48:48.000Z</time>
      </trkpt>
      <trkpt lat="44.11961" lon="6.973">
        <ele>1818.1999511719</ele>
        <time>2022-07-23T08:48:54.000Z</time>
      </trkpt>
      <trkpt lat="44.11961" lon="6.973">
        <ele>1818</ele>
        <time>2022-07-23T08:48:56.000Z</time>
      </trkpt>
      <trkpt lat="44.11961" lon="6.973">
        <ele>1818.1999511719</ele>
        <time>2022-07-23T08:49:08.000Z</time>
      </trkpt>
      <trkpt lat="44.11961" lon="6.97301">
        <ele>1818</ele>
        <time>2022-07-23T08:49:28.000Z</time>
      </trkpt>
      <trkpt lat="44.11961" lon="6.97301">
        <ele>1818.1999511719</ele>
        <time>2022-07-23T08:49:49.000Z</time>
      </trkpt>
      <trkpt lat="44.11961" lon="6.97301">
        <ele>1818.1999511719</ele>
        <time>2022-07-23T08:49:57.000Z</time>
      </trkpt>
      <trkpt lat="44.11961" lon="6.97301">
        <ele>1818</ele>
        <time>2022-07-23T08:50:11.000Z</time>
      </trkpt>
      <trkpt lat="44.11961" lon="6.97301">
        <ele>1818.1999511719</ele>
        <time>2022-07-23T08:50:39.000Z</time>
      </trkpt>
      <trkpt lat="44.11963" lon="6.97312">
        <ele>1818</ele>
        <time>2022-07-23T08:50:44.000Z</time>
      </trkpt>
      <trkpt lat="44.11966" lon="6.97327">
        <ele>1818</ele>
        <time>2022-07-23T08:50:47.000Z</time>
      </trkpt>
      <trkpt lat="44.11968" lon="6.9734">
        <ele>1817.8000488281</ele>
        <time>2022-07-23T08:50:49.000Z</time>
      </trkpt>
      <trkpt lat="44.11973" lon="6.97354">
        <ele>1816.8000488281</ele>
        <time>2022-07-23T08:50:51.000Z</time>
      </trkpt>
      <trkpt lat="44.1198" lon="6.97368">
        <ele>1815.1999511719</ele>
        <time>2022-07-23T08:50:53.000Z</time>
      </trkpt>
      <trkpt lat="44.11984" lon="6.97374">
        <ele>1814.1999511719</ele>
        <time>2022-07-23T08:50:54.000Z</time>
      </trkpt>
      <trkpt lat="44.11991" lon="6.97385">
        <ele>1812.4000244141</ele>
        <time>2022-07-23T08:50:56.000Z</time>
      </trkpt>
      <trkpt lat="44.11999" lon="6.97395">
        <ele>1811.1999511719</ele>
        <time>2022-07-23T08:50:58.000Z</time>
      </trkpt>
      <trkpt lat="44.12003" lon="6.974">
        <ele>1811</ele>
        <time>2022-07-23T08:50:59.000Z</time>
      </trkpt>
      <trkpt lat="44.12008" lon="6.97405">
        <ele>1810</ele>
        <time>2022-07-23T08:51:00.000Z</time>
      </trkpt>
      <trkpt lat="44.12018" lon="6.97416">
        <ele>1809.5999755859</ele>
        <time>2022-07-23T08:51:02.000Z</time>
      </trkpt>
      <trkpt lat="44.12024" lon="6.9742">
        <ele>1809.1999511719</ele>
        <time>2022-07-23T08:51:03.000Z</time>
      </trkpt>
      <trkpt lat="44.12031" lon="6.97423">
        <ele>1808.4000244141</ele>
        <time>2022-07-23T08:51:04.000Z</time>
      </trkpt>
      <trkpt lat="44.12045" lon="6.97428">
        <ele>1807</ele>
        <time>2022-07-23T08:51:06.000Z</time>
      </trkpt>
      <trkpt lat="44.12052" lon="6.97431">
        <ele>1806</ele>
        <time>2022-07-23T08:51:07.000Z</time>
      </trkpt>
      <trkpt lat="44.12058" lon="6.97434">
        <ele>1805</ele>
        <time>2022-07-23T08:51:08.000Z</time>
      </trkpt>
      <trkpt lat="44.12065" lon="6.97435">
        <ele>1804</ele>
        <time>2022-07-23T08:51:09.000Z</time>
      </trkpt>
      <trkpt lat="44.12072" lon="6.97438">
        <ele>1803.4000244141</ele>
        <time>2022-07-23T08:51:10.000Z</time>
      </trkpt>
      <trkpt lat="44.1208" lon="6.97441">
        <ele>1802.8000488281</ele>
        <time>2022-07-23T08:51:11.000Z</time>
      </trkpt>
      <trkpt lat="44.12086" lon="6.97445">
        <ele>1802.1999511719</ele>
        <time>2022-07-23T08:51:12.000Z</time>
      </trkpt>
      <trkpt lat="44.12095" lon="6.97459">
        <ele>1801</ele>
        <time>2022-07-23T08:51:14.000Z</time>
      </trkpt>
      <trkpt lat="44.12098" lon="6.97476">
        <ele>1799.8000488281</ele>
        <time>2022-07-23T08:51:16.000Z</time>
      </trkpt>
      <trkpt lat="44.12098" lon="6.97485">
        <ele>1799.1999511719</ele>
        <time>2022-07-23T08:51:17.000Z</time>
      </trkpt>
      <trkpt lat="44.121" lon="6.97495">
        <ele>1798.1999511719</ele>
        <time>2022-07-23T08:51:18.000Z</time>
      </trkpt>
      <trkpt lat="44.12104" lon="6.97516">
        <ele>1796.4000244141</ele>
        <time>2022-07-23T08:51:20.000Z</time>
      </trkpt>
      <trkpt lat="44.12109" lon="6.97538">
        <ele>1794.4000244141</ele>
        <time>2022-07-23T08:51:22.000Z</time>
      </trkpt>
      <trkpt lat="44.12112" lon="6.97549">
        <ele>1793.8000488281</ele>
        <time>2022-07-23T08:51:23.000Z</time>
      </trkpt>
      <trkpt lat="44.12116" lon="6.97558">
        <ele>1793</ele>
        <time>2022-07-23T08:51:24.000Z</time>
      </trkpt>
      <trkpt lat="44.12127" lon="6.97577">
        <ele>1792</ele>
        <time>2022-07-23T08:51:26.000Z</time>
      </trkpt>
      <trkpt lat="44.12138" lon="6.976">
        <ele>1790.5999755859</ele>
        <time>2022-07-23T08:51:28.000Z</time>
      </trkpt>
      <trkpt lat="44.12146" lon="6.97623">
        <ele>1789.1999511719</ele>
        <time>2022-07-23T08:51:30.000Z</time>
      </trkpt>
      <trkpt lat="44.1215" lon="6.97631">
        <ele>1787.8000488281</ele>
        <time>2022-07-23T08:51:31.000Z</time>
      </trkpt>
      <trkpt lat="44.12154" lon="6.9764">
        <ele>1786.5999755859</ele>
        <time>2022-07-23T08:51:32.000Z</time>
      </trkpt>
      <trkpt lat="44.12157" lon="6.97648">
        <ele>1786</ele>
        <time>2022-07-23T08:51:33.000Z</time>
      </trkpt>
      <trkpt lat="44.1216" lon="6.97656">
        <ele>1784.8000488281</ele>
        <time>2022-07-23T08:51:34.000Z</time>
      </trkpt>
      <trkpt lat="44.12164" lon="6.97663">
        <ele>1784.1999511719</ele>
        <time>2022-07-23T08:51:35.000Z</time>
      </trkpt>
      <trkpt lat="44.1217" lon="6.9767">
        <ele>1783.1999511719</ele>
        <time>2022-07-23T08:51:36.000Z</time>
      </trkpt>
      <trkpt lat="44.12175" lon="6.97676">
        <ele>1782.1999511719</ele>
        <time>2022-07-23T08:51:37.000Z</time>
      </trkpt>
      <trkpt lat="44.1219" lon="6.97694">
        <ele>1781</ele>
        <time>2022-07-23T08:51:40.000Z</time>
      </trkpt>
      <trkpt lat="44.12201" lon="6.97709">
        <ele>1780</ele>
        <time>2022-07-23T08:51:42.000Z</time>
      </trkpt>
      <trkpt lat="44.12206" lon="6.97717">
        <ele>1779.4000244141</ele>
        <time>2022-07-23T08:51:43.000Z</time>
      </trkpt>
      <trkpt lat="44.1221" lon="6.97725">
        <ele>1778.4000244141</ele>
        <time>2022-07-23T08:51:44.000Z</time>
      </trkpt>
      <trkpt lat="44.12214" lon="6.97733">
        <ele>1777</ele>
        <time>2022-07-23T08:51:45.000Z</time>
      </trkpt>
      <trkpt lat="44.12219" lon="6.97741">
        <ele>1776.1999511719</ele>
        <time>2022-07-23T08:51:46.000Z</time>
      </trkpt>
      <trkpt lat="44.12224" lon="6.97749">
        <ele>1775</ele>
        <time>2022-07-23T08:51:47.000Z</time>
      </trkpt>
      <trkpt lat="44.12233" lon="6.97764">
        <ele>1773.5999755859</ele>
        <time>2022-07-23T08:51:49.000Z</time>
      </trkpt>
      <trkpt lat="44.1224" lon="6.97777">
        <ele>1772.8000488281</ele>
        <time>2022-07-23T08:51:51.000Z</time>
      </trkpt>
      <trkpt lat="44.12245" lon="6.97782">
        <ele>1772.1999511719</ele>
        <time>2022-07-23T08:51:52.000Z</time>
      </trkpt>
      <trkpt lat="44.12257" lon="6.97791">
        <ele>1770.8000488281</ele>
        <time>2022-07-23T08:51:54.000Z</time>
      </trkpt>
      <trkpt lat="44.12264" lon="6.97796">
        <ele>1770</ele>
        <time>2022-07-23T08:51:55.000Z</time>
      </trkpt>
      <trkpt lat="44.12271" lon="6.978">
        <ele>1769</ele>
        <time>2022-07-23T08:51:56.000Z</time>
      </trkpt>
      <trkpt lat="44.12285" lon="6.97808">
        <ele>1767.5999755859</ele>
        <time>2022-07-23T08:51:58.000Z</time>
      </trkpt>
      <trkpt lat="44.12296" lon="6.97817">
        <ele>1766</ele>
        <time>2022-07-23T08:52:00.000Z</time>
      </trkpt>
      <trkpt lat="44.12307" lon="6.97823">
        <ele>1764.8000488281</ele>
        <time>2022-07-23T08:52:02.000Z</time>
      </trkpt>
      <trkpt lat="44.12312" lon="6.97824">
        <ele>1764</ele>
        <time>2022-07-23T08:52:03.000Z</time>
      </trkpt>
      <trkpt lat="44.12317" lon="6.97825">
        <ele>1763</ele>
        <time>2022-07-23T08:52:04.000Z</time>
      </trkpt>
      <trkpt lat="44.12333" lon="6.97826">
        <ele>1761.8000488281</ele>
        <time>2022-07-23T08:52:07.000Z</time>
      </trkpt>
      <trkpt lat="44.1235" lon="6.97826">
        <ele>1760.8000488281</ele>
        <time>2022-07-23T08:52:10.000Z</time>
      </trkpt>
      <trkpt lat="44.12357" lon="6.97826">
        <ele>1759.8000488281</ele>
        <time>2022-07-23T08:52:11.000Z</time>
      </trkpt>
      <trkpt lat="44.12363" lon="6.97827">
        <ele>1759.1999511719</ele>
        <time>2022-07-23T08:52:12.000Z</time>
      </trkpt>
      <trkpt lat="44.12368" lon="6.97829">
        <ele>1758</ele>
        <time>2022-07-23T08:52:13.000Z</time>
      </trkpt>
      <trkpt lat="44.12378" lon="6.97835">
        <ele>1756.8000488281</ele>
        <time>2022-07-23T08:52:15.000Z</time>
      </trkpt>
      <trkpt lat="44.12391" lon="6.97852">
        <ele>1755.5999755859</ele>
        <time>2022-07-23T08:52:18.000Z</time>
      </trkpt>
      <trkpt lat="44.12395" lon="6.97856">
        <ele>1755</ele>
        <time>2022-07-23T08:52:19.000Z</time>
      </trkpt>
      <trkpt lat="44.12403" lon="6.97858">
        <ele>1754</ele>
        <time>2022-07-23T08:52:21.000Z</time>
      </trkpt>
      <trkpt lat="44.12414" lon="6.97856">
        <ele>1753</ele>
        <time>2022-07-23T08:52:23.000Z</time>
      </trkpt>
      <trkpt lat="44.12425" lon="6.97858">
        <ele>1751.8000488281</ele>
        <time>2022-07-23T08:52:25.000Z</time>
      </trkpt>
      <trkpt lat="44.12429" lon="6.97861">
        <ele>1751.5999755859</ele>
        <time>2022-07-23T08:52:26.000Z</time>
      </trkpt>
      <trkpt lat="44.12434" lon="6.97863">
        <ele>1751.4000244141</ele>
        <time>2022-07-23T08:52:27.000Z</time>
      </trkpt>
      <trkpt lat="44.12441" lon="6.97864">
        <ele>1750.8000488281</ele>
        <time>2022-07-23T08:52:29.000Z</time>
      </trkpt>
      <trkpt lat="44.12453" lon="6.97873">
        <ele>1751</ele>
        <time>2022-07-23T08:52:33.000Z</time>
      </trkpt>
      <trkpt lat="44.12453" lon="6.9789">
        <ele>1751.1999511719</ele>
        <time>2022-07-23T08:52:37.000Z</time>
      </trkpt>
      <trkpt lat="44.12439" lon="6.97921">
        <ele>1750.4000244141</ele>
        <time>2022-07-23T08:52:42.000Z</time>
      </trkpt>
      <trkpt lat="44.12433" lon="6.97934">
        <ele>1749.4000244141</ele>
        <time>2022-07-23T08:52:44.000Z</time>
      </trkpt>
      <trkpt lat="44.12431" lon="6.9794">
        <ele>1749.1999511719</ele>
        <time>2022-07-23T08:52:45.000Z</time>
      </trkpt>
      <trkpt lat="44.1243" lon="6.97954">
        <ele>1748.4000244141</ele>
        <time>2022-07-23T08:52:47.000Z</time>
      </trkpt>
      <trkpt lat="44.12433" lon="6.97969">
        <ele>1748</ele>
        <time>2022-07-23T08:52:49.000Z</time>
      </trkpt>
      <trkpt lat="44.12435" lon="6.97977">
        <ele>1747.8000488281</ele>
        <time>2022-07-23T08:52:50.000Z</time>
      </trkpt>
      <trkpt lat="44.12437" lon="6.97994">
        <ele>1747.1999511719</ele>
        <time>2022-07-23T08:52:52.000Z</time>
      </trkpt>
      <trkpt lat="44.12439" lon="6.98021">
        <ele>1746</ele>
        <time>2022-07-23T08:52:55.000Z</time>
      </trkpt>
      <trkpt lat="44.1244" lon="6.98032">
        <ele>1745.5999755859</ele>
        <time>2022-07-23T08:52:56.000Z</time>
      </trkpt>
      <trkpt lat="44.12439" lon="6.98053">
        <ele>1745</ele>
        <time>2022-07-23T08:52:58.000Z</time>
      </trkpt>
      <trkpt lat="44.12437" lon="6.98063">
        <ele>1744.4000244141</ele>
        <time>2022-07-23T08:52:59.000Z</time>
      </trkpt>
      <trkpt lat="44.12433" lon="6.98071">
        <ele>1743.5999755859</ele>
        <time>2022-07-23T08:53:00.000Z</time>
      </trkpt>
      <trkpt lat="44.12427" lon="6.98088">
        <ele>1742.4000244141</ele>
        <time>2022-07-23T08:53:02.000Z</time>
      </trkpt>
      <trkpt lat="44.12427" lon="6.98107">
        <ele>1741</ele>
        <time>2022-07-23T08:53:04.000Z</time>
      </trkpt>
      <trkpt lat="44.12428" lon="6.98117">
        <ele>1741</ele>
        <time>2022-07-23T08:53:05.000Z</time>
      </trkpt>
      <trkpt lat="44.12429" lon="6.98137">
        <ele>1739.8000488281</ele>
        <time>2022-07-23T08:53:07.000Z</time>
      </trkpt>
      <trkpt lat="44.1243" lon="6.98147">
        <ele>1739.4000244141</ele>
        <time>2022-07-23T08:53:08.000Z</time>
      </trkpt>
      <trkpt lat="44.12438" lon="6.98168">
        <ele>1739</ele>
        <time>2022-07-23T08:53:10.000Z</time>
      </trkpt>
      <trkpt lat="44.12442" lon="6.98176">
        <ele>1738.1999511719</ele>
        <time>2022-07-23T08:53:11.000Z</time>
      </trkpt>
      <trkpt lat="44.12453" lon="6.9819">
        <ele>1737.8000488281</ele>
        <time>2022-07-23T08:53:13.000Z</time>
      </trkpt>
      <trkpt lat="44.12472" lon="6.98216">
        <ele>1737.4000244141</ele>
        <time>2022-07-23T08:53:17.000Z</time>
      </trkpt>
      <trkpt lat="44.12473" lon="6.98224">
        <ele>1737.4000244141</ele>
        <time>2022-07-23T08:53:18.000Z</time>
      </trkpt>
      <trkpt lat="44.1247" lon="6.9824">
        <ele>1737.8000488281</ele>
        <time>2022-07-23T08:53:21.000Z</time>
      </trkpt>
      <trkpt lat="44.1246" lon="6.9824">
        <ele>1737.5999755859</ele>
        <time>2022-07-23T08:53:24.000Z</time>
      </trkpt>
      <trkpt lat="44.12456" lon="6.98239">
        <ele>1737.4000244141</ele>
        <time>2022-07-23T08:53:25.000Z</time>
      </trkpt>
      <trkpt lat="44.12438" lon="6.98238">
        <ele>1737.8000488281</ele>
        <time>2022-07-23T08:53:30.000Z</time>
      </trkpt>
      <trkpt lat="44.1242" lon="6.98245">
        <ele>1738</ele>
        <time>2022-07-23T08:53:36.000Z</time>
      </trkpt>
      <trkpt lat="44.12405" lon="6.9825">
        <ele>1738.8000488281</ele>
        <time>2022-07-23T08:53:41.000Z</time>
      </trkpt>
      <trkpt lat="44.12399" lon="6.98251">
        <ele>1739.1999511719</ele>
        <time>2022-07-23T08:53:43.000Z</time>
      </trkpt>
      <trkpt lat="44.12392" lon="6.98255">
        <ele>1740.1999511719</ele>
        <time>2022-07-23T08:53:46.000Z</time>
      </trkpt>
      <trkpt lat="44.12387" lon="6.98258">
        <ele>1740.8000488281</ele>
        <time>2022-07-23T08:53:48.000Z</time>
      </trkpt>
      <trkpt lat="44.12379" lon="6.98265">
        <ele>1741.4000244141</ele>
        <time>2022-07-23T08:53:51.000Z</time>
      </trkpt>
      <trkpt lat="44.1237" lon="6.98271">
        <ele>1742.4000244141</ele>
        <time>2022-07-23T08:53:55.000Z</time>
      </trkpt>
      <trkpt lat="44.12368" lon="6.98273">
        <ele>1742.4000244141</ele>
        <time>2022-07-23T08:53:56.000Z</time>
      </trkpt>
      <trkpt lat="44.12357" lon="6.98281">
        <ele>1743.5999755859</ele>
        <time>2022-07-23T08:54:01.000Z</time>
      </trkpt>
      <trkpt lat="44.12353" lon="6.98285">
        <ele>1744.1999511719</ele>
        <time>2022-07-23T08:54:03.000Z</time>
      </trkpt>
      <trkpt lat="44.12348" lon="6.98292">
        <ele>1744.8000488281</ele>
        <time>2022-07-23T08:54:06.000Z</time>
      </trkpt>
      <trkpt lat="44.12337" lon="6.98305">
        <ele>1746</ele>
        <time>2022-07-23T08:54:13.000Z</time>
      </trkpt>
      <trkpt lat="44.12327" lon="6.9832">
        <ele>1747</ele>
        <time>2022-07-23T08:54:20.000Z</time>
      </trkpt>
      <trkpt lat="44.12324" lon="6.98325">
        <ele>1747.4000244141</ele>
        <time>2022-07-23T08:54:22.000Z</time>
      </trkpt>
      <trkpt lat="44.12317" lon="6.98337">
        <ele>1748.4000244141</ele>
        <time>2022-07-23T08:54:27.000Z</time>
      </trkpt>
      <trkpt lat="44.12312" lon="6.98344">
        <ele>1748.8000488281</ele>
        <time>2022-07-23T08:54:30.000Z</time>
      </trkpt>
      <trkpt lat="44.12307" lon="6.98352">
        <ele>1749.5999755859</ele>
        <time>2022-07-23T08:54:33.000Z</time>
      </trkpt>
      <trkpt lat="44.12301" lon="6.98359">
        <ele>1750.4000244141</ele>
        <time>2022-07-23T08:54:36.000Z</time>
      </trkpt>
      <trkpt lat="44.12299" lon="6.98361">
        <ele>1750.5999755859</ele>
        <time>2022-07-23T08:54:37.000Z</time>
      </trkpt>
      <trkpt lat="44.12287" lon="6.98364">
        <ele>1751.4000244141</ele>
        <time>2022-07-23T08:54:41.000Z</time>
      </trkpt>
      <trkpt lat="44.1228" lon="6.98365">
        <ele>1751.8000488281</ele>
        <time>2022-07-23T08:54:43.000Z</time>
      </trkpt>
      <trkpt lat="44.12268" lon="6.98368">
        <ele>1751.8000488281</ele>
        <time>2022-07-23T08:54:47.000Z</time>
      </trkpt>
      <trkpt lat="44.12258" lon="6.98375">
        <ele>1752.8000488281</ele>
        <time>2022-07-23T08:54:52.000Z</time>
      </trkpt>
      <trkpt lat="44.12256" lon="6.98377">
        <ele>1753</ele>
        <time>2022-07-23T08:54:53.000Z</time>
      </trkpt>
      <trkpt lat="44.12256" lon="6.98378">
        <ele>1754</ele>
        <time>2022-07-23T08:54:56.000Z</time>
      </trkpt>
      <trkpt lat="44.12256" lon="6.98378">
        <ele>1754.1999511719</ele>
        <time>2022-07-23T08:54:57.000Z</time>
      </trkpt>
      <trkpt lat="44.12256" lon="6.98377">
        <ele>1754</ele>
        <time>2022-07-23T08:55:08.000Z</time>
      </trkpt>
      <trkpt lat="44.12254" lon="6.9838">
        <ele>1754.1999511719</ele>
        <time>2022-07-23T08:55:18.000Z</time>
      </trkpt>
      <trkpt lat="44.12251" lon="6.98386">
        <ele>1755</ele>
        <time>2022-07-23T08:55:22.000Z</time>
      </trkpt>
      <trkpt lat="44.1225" lon="6.98388">
        <ele>1755.1999511719</ele>
        <time>2022-07-23T08:55:23.000Z</time>
      </trkpt>
      <trkpt lat="44.12249" lon="6.98389">
        <ele>1755.5999755859</ele>
        <time>2022-07-23T08:55:24.000Z</time>
      </trkpt>
      <trkpt lat="44.12248" lon="6.9839">
        <ele>1756</ele>
        <time>2022-07-23T08:55:29.000Z</time>
      </trkpt>
      <trkpt lat="44.12249" lon="6.98392">
        <ele>1756.1999511719</ele>
        <time>2022-07-23T08:55:33.000Z</time>
      </trkpt>
      <trkpt lat="44.12249" lon="6.98393">
        <ele>1756.8000488281</ele>
        <time>2022-07-23T08:55:36.000Z</time>
      </trkpt>
      <trkpt lat="44.12248" lon="6.98393">
        <ele>1757.1999511719</ele>
        <time>2022-07-23T08:55:39.000Z</time>
      </trkpt>
      <trkpt lat="44.12245" lon="6.98395">
        <ele>1757.4000244141</ele>
        <time>2022-07-23T08:55:45.000Z</time>
      </trkpt>
      <trkpt lat="44.12238" lon="6.98401">
        <ele>1758.4000244141</ele>
        <time>2022-07-23T08:55:49.000Z</time>
      </trkpt>
      <trkpt lat="44.12235" lon="6.98403">
        <ele>1759.1999511719</ele>
        <time>2022-07-23T08:55:51.000Z</time>
      </trkpt>
      <trkpt lat="44.12231" lon="6.98407">
        <ele>1759.8000488281</ele>
        <time>2022-07-23T08:55:53.000Z</time>
      </trkpt>
      <trkpt lat="44.12225" lon="6.98413">
        <ele>1761.1999511719</ele>
        <time>2022-07-23T08:55:56.000Z</time>
      </trkpt>
      <trkpt lat="44.12222" lon="6.98414">
        <ele>1761.8000488281</ele>
        <time>2022-07-23T08:55:57.000Z</time>
      </trkpt>
      <trkpt lat="44.1222" lon="6.98416">
        <ele>1762.1999511719</ele>
        <time>2022-07-23T08:55:58.000Z</time>
      </trkpt>
      <trkpt lat="44.12213" lon="6.98421">
        <ele>1763.8000488281</ele>
        <time>2022-07-23T08:56:01.000Z</time>
      </trkpt>
      <trkpt lat="44.12209" lon="6.98424">
        <ele>1764.8000488281</ele>
        <time>2022-07-23T08:56:03.000Z</time>
      </trkpt>
      <trkpt lat="44.12206" lon="6.98425">
        <ele>1765.1999511719</ele>
        <time>2022-07-23T08:56:04.000Z</time>
      </trkpt>
      <trkpt lat="44.12202" lon="6.98428">
        <ele>1766.5999755859</ele>
        <time>2022-07-23T08:56:06.000Z</time>
      </trkpt>
      <trkpt lat="44.12198" lon="6.98431">
        <ele>1767.5999755859</ele>
        <time>2022-07-23T08:56:08.000Z</time>
      </trkpt>
      <trkpt lat="44.12196" lon="6.98432">
        <ele>1768</ele>
        <time>2022-07-23T08:56:09.000Z</time>
      </trkpt>
      <trkpt lat="44.12189" lon="6.98434">
        <ele>1768.8000488281</ele>
        <time>2022-07-23T08:56:12.000Z</time>
      </trkpt>
      <trkpt lat="44.12187" lon="6.98436">
        <ele>1769.1999511719</ele>
        <time>2022-07-23T08:56:14.000Z</time>
      </trkpt>
      <trkpt lat="44.12187" lon="6.98436">
        <ele>1769.8000488281</ele>
        <time>2022-07-23T08:56:16.000Z</time>
      </trkpt>
      <trkpt lat="44.12186" lon="6.98437">
        <ele>1770.4000244141</ele>
        <time>2022-07-23T08:56:19.000Z</time>
      </trkpt>
      <trkpt lat="44.12183" lon="6.98437">
        <ele>1770.8000488281</ele>
        <time>2022-07-23T08:56:23.000Z</time>
      </trkpt>
      <trkpt lat="44.12181" lon="6.98438">
        <ele>1771</ele>
        <time>2022-07-23T08:56:26.000Z</time>
      </trkpt>
      <trkpt lat="44.1218" lon="6.9844">
        <ele>1770.8000488281</ele>
        <time>2022-07-23T08:56:33.000Z</time>
      </trkpt>
      <trkpt lat="44.12178" lon="6.98442">
        <ele>1771.8000488281</ele>
        <time>2022-07-23T08:56:40.000Z</time>
      </trkpt>
      <trkpt lat="44.12176" lon="6.98444">
        <ele>1773</ele>
        <time>2022-07-23T08:56:46.000Z</time>
      </trkpt>
      <trkpt lat="44.12175" lon="6.98445">
        <ele>1773</ele>
        <time>2022-07-23T08:56:47.000Z</time>
      </trkpt>
      <trkpt lat="44.12172" lon="6.98447">
        <ele>1773.1999511719</ele>
        <time>2022-07-23T08:56:53.000Z</time>
      </trkpt>
      <trkpt lat="44.12171" lon="6.98448">
        <ele>1773.5999755859</ele>
        <time>2022-07-23T08:56:59.000Z</time>
      </trkpt>
      <trkpt lat="44.1217" lon="6.98448">
        <ele>1773.5999755859</ele>
        <time>2022-07-23T08:57:00.000Z</time>
      </trkpt>
      <trkpt lat="44.12165" lon="6.98453">
        <ele>1773.5999755859</ele>
        <time>2022-07-23T08:57:03.000Z</time>
      </trkpt>
      <trkpt lat="44.1216" lon="6.98455">
        <ele>1774.1999511719</ele>
        <time>2022-07-23T08:57:05.000Z</time>
      </trkpt>
      <trkpt lat="44.12155" lon="6.98457">
        <ele>1775.8000488281</ele>
        <time>2022-07-23T08:57:08.000Z</time>
      </trkpt>
      <trkpt lat="44.12152" lon="6.98459">
        <ele>1776.4000244141</ele>
        <time>2022-07-23T08:57:10.000Z</time>
      </trkpt>
      <trkpt lat="44.1215" lon="6.9846">
        <ele>1776.8000488281</ele>
        <time>2022-07-23T08:57:11.000Z</time>
      </trkpt>
      <trkpt lat="44.12144" lon="6.98467">
        <ele>1777.8000488281</ele>
        <time>2022-07-23T08:57:15.000Z</time>
      </trkpt>
      <trkpt lat="44.1214" lon="6.98471">
        <ele>1779</ele>
        <time>2022-07-23T08:57:17.000Z</time>
      </trkpt>
      <trkpt lat="44.12136" lon="6.98474">
        <ele>1780.1999511719</ele>
        <time>2022-07-23T08:57:19.000Z</time>
      </trkpt>
      <trkpt lat="44.12137" lon="6.98474">
        <ele>1781.1999511719</ele>
        <time>2022-07-23T08:57:21.000Z</time>
      </trkpt>
      <trkpt lat="44.12137" lon="6.98474">
        <ele>1781.4000244141</ele>
        <time>2022-07-23T08:57:22.000Z</time>
      </trkpt>
      <trkpt lat="44.12137" lon="6.98474">
        <ele>1781.8000488281</ele>
        <time>2022-07-23T08:57:26.000Z</time>
      </trkpt>
      <trkpt lat="44.12136" lon="6.98475">
        <ele>1782</ele>
        <time>2022-07-23T08:57:31.000Z</time>
      </trkpt>
      <trkpt lat="44.12132" lon="6.98478">
        <ele>1782</ele>
        <time>2022-07-23T08:57:33.000Z</time>
      </trkpt>
      <trkpt lat="44.12125" lon="6.98484">
        <ele>1782.4000244141</ele>
        <time>2022-07-23T08:57:36.000Z</time>
      </trkpt>
      <trkpt lat="44.12121" lon="6.98486">
        <ele>1783.8000488281</ele>
        <time>2022-07-23T08:57:38.000Z</time>
      </trkpt>
      <trkpt lat="44.12119" lon="6.98486">
        <ele>1784.4000244141</ele>
        <time>2022-07-23T08:57:39.000Z</time>
      </trkpt>
      <trkpt lat="44.12117" lon="6.98485">
        <ele>1785</ele>
        <time>2022-07-23T08:57:40.000Z</time>
      </trkpt>
      <trkpt lat="44.12114" lon="6.98484">
        <ele>1786.1999511719</ele>
        <time>2022-07-23T08:57:41.000Z</time>
      </trkpt>
      <trkpt lat="44.12114" lon="6.98484">
        <ele>1787.1999511719</ele>
        <time>2022-07-23T08:57:43.000Z</time>
      </trkpt>
      <trkpt lat="44.12114" lon="6.98484">
        <ele>1787.5999755859</ele>
        <time>2022-07-23T08:57:44.000Z</time>
      </trkpt>
      <trkpt lat="44.12111" lon="6.98484">
        <ele>1788.4000244141</ele>
        <time>2022-07-23T08:57:51.000Z</time>
      </trkpt>
      <trkpt lat="44.12111" lon="6.98484">
        <ele>1788.5999755859</ele>
        <time>2022-07-23T08:57:52.000Z</time>
      </trkpt>
      <trkpt lat="44.12111" lon="6.98487">
        <ele>1789.4000244141</ele>
        <time>2022-07-23T08:57:58.000Z</time>
      </trkpt>
      <trkpt lat="44.1211" lon="6.98488">
        <ele>1789.5999755859</ele>
        <time>2022-07-23T08:58:01.000Z</time>
      </trkpt>
      <trkpt lat="44.1211" lon="6.98491">
        <ele>1789.5999755859</ele>
        <time>2022-07-23T08:58:02.000Z</time>
      </trkpt>
      <trkpt lat="44.12108" lon="6.98503">
        <ele>1789.4000244141</ele>
        <time>2022-07-23T08:58:06.000Z</time>
      </trkpt>
      <trkpt lat="44.12104" lon="6.98504">
        <ele>1789.8000488281</ele>
        <time>2022-07-23T08:58:08.000Z</time>
      </trkpt>
      <trkpt lat="44.12103" lon="6.98503">
        <ele>1790.1999511719</ele>
        <time>2022-07-23T08:58:09.000Z</time>
      </trkpt>
      <trkpt lat="44.12099" lon="6.98503">
        <ele>1791.1999511719</ele>
        <time>2022-07-23T08:58:11.000Z</time>
      </trkpt>
      <trkpt lat="44.12096" lon="6.98507">
        <ele>1792.5999755859</ele>
        <time>2022-07-23T08:58:14.000Z</time>
      </trkpt>
      <trkpt lat="44.12095" lon="6.98509">
        <ele>1793</ele>
        <time>2022-07-23T08:58:15.000Z</time>
      </trkpt>
      <trkpt lat="44.12092" lon="6.98515">
        <ele>1793.8000488281</ele>
        <time>2022-07-23T08:58:18.000Z</time>
      </trkpt>
      <trkpt lat="44.12089" lon="6.9852">
        <ele>1794.8000488281</ele>
        <time>2022-07-23T08:58:21.000Z</time>
      </trkpt>
      <trkpt lat="44.12088" lon="6.98521">
        <ele>1795.1999511719</ele>
        <time>2022-07-23T08:58:22.000Z</time>
      </trkpt>
      <trkpt lat="44.12087" lon="6.98527">
        <ele>1795.8000488281</ele>
        <time>2022-07-23T08:58:25.000Z</time>
      </trkpt>
      <trkpt lat="44.12087" lon="6.98532">
        <ele>1796.5999755859</ele>
        <time>2022-07-23T08:58:28.000Z</time>
      </trkpt>
      <trkpt lat="44.12087" lon="6.98534">
        <ele>1796.8000488281</ele>
        <time>2022-07-23T08:58:29.000Z</time>
      </trkpt>
      <trkpt lat="44.12088" lon="6.98536">
        <ele>1797</ele>
        <time>2022-07-23T08:58:30.000Z</time>
      </trkpt>
      <trkpt lat="44.1209" lon="6.98547">
        <ele>1797.8000488281</ele>
        <time>2022-07-23T08:58:35.000Z</time>
      </trkpt>
      <trkpt lat="44.12091" lon="6.98549">
        <ele>1798</ele>
        <time>2022-07-23T08:58:36.000Z</time>
      </trkpt>
      <trkpt lat="44.12093" lon="6.98558">
        <ele>1799.1999511719</ele>
        <time>2022-07-23T08:58:40.000Z</time>
      </trkpt>
      <trkpt lat="44.12093" lon="6.98564">
        <ele>1799.5999755859</ele>
        <time>2022-07-23T08:58:42.000Z</time>
      </trkpt>
      <trkpt lat="44.12094" lon="6.9857">
        <ele>1800.1999511719</ele>
        <time>2022-07-23T08:58:44.000Z</time>
      </trkpt>
      <trkpt lat="44.12095" lon="6.98577">
        <ele>1801.4000244141</ele>
        <time>2022-07-23T08:58:47.000Z</time>
      </trkpt>
      <trkpt lat="44.12095" lon="6.98578">
        <ele>1801.8000488281</ele>
        <time>2022-07-23T08:58:48.000Z</time>
      </trkpt>
      <trkpt lat="44.12093" lon="6.9858">
        <ele>1802.4000244141</ele>
        <time>2022-07-23T08:58:50.000Z</time>
      </trkpt>
      <trkpt lat="44.12093" lon="6.98581">
        <ele>1803.1999511719</ele>
        <time>2022-07-23T08:58:53.000Z</time>
      </trkpt>
      <trkpt lat="44.12094" lon="6.98581">
        <ele>1802.5999755859</ele>
        <time>2022-07-23T08:58:58.000Z</time>
      </trkpt>
      <trkpt lat="44.12095" lon="6.98579">
        <ele>1803</ele>
        <time>2022-07-23T08:59:04.000Z</time>
      </trkpt>
      <trkpt lat="44.12095" lon="6.98579">
        <ele>1802.8000488281</ele>
        <time>2022-07-23T08:59:19.000Z</time>
      </trkpt>
      <trkpt lat="44.12095" lon="6.98578">
        <ele>1803.1999511719</ele>
        <time>2022-07-23T08:59:32.000Z</time>
      </trkpt>
      <trkpt lat="44.12096" lon="6.98577">
        <ele>1802.8000488281</ele>
        <time>2022-07-23T08:59:46.000Z</time>
      </trkpt>
      <trkpt lat="44.12096" lon="6.98577">
        <ele>1802.8000488281</ele>
        <time>2022-07-23T08:59:57.000Z</time>
      </trkpt>
      <trkpt lat="44.12097" lon="6.98577">
        <ele>1802.5999755859</ele>
        <time>2022-07-23T09:00:12.000Z</time>
      </trkpt>
      <trkpt lat="44.12098" lon="6.98576">
        <ele>1802.5999755859</ele>
        <time>2022-07-23T09:00:27.000Z</time>
      </trkpt>
      <trkpt lat="44.12099" lon="6.98576">
        <ele>1802.5999755859</ele>
        <time>2022-07-23T09:00:38.000Z</time>
      </trkpt>
      <trkpt lat="44.12098" lon="6.98576">
        <ele>1802.4000244141</ele>
        <time>2022-07-23T09:00:59.000Z</time>
      </trkpt>
      <trkpt lat="44.12098" lon="6.98576">
        <ele>1802.1999511719</ele>
        <time>2022-07-23T09:01:07.000Z</time>
      </trkpt>
      <trkpt lat="44.12098" lon="6.98576">
        <ele>1802.1999511719</ele>
        <time>2022-07-23T09:01:19.000Z</time>
      </trkpt>
      <trkpt lat="44.12098" lon="6.98576">
        <ele>1802</ele>
        <time>2022-07-23T09:01:37.000Z</time>
      </trkpt>
      <trkpt lat="44.12098" lon="6.98577">
        <ele>1801.8000488281</ele>
        <time>2022-07-23T09:01:55.000Z</time>
      </trkpt>
      <trkpt lat="44.12098" lon="6.98577">
        <ele>1801.8000488281</ele>
        <time>2022-07-23T09:02:02.000Z</time>
      </trkpt>
      <trkpt lat="44.12099" lon="6.98577">
        <ele>1801.5999755859</ele>
        <time>2022-07-23T09:02:29.000Z</time>
      </trkpt>
      <trkpt lat="44.12099" lon="6.98577">
        <ele>1801.5999755859</ele>
        <time>2022-07-23T09:02:47.000Z</time>
      </trkpt>
      <trkpt lat="44.121" lon="6.98576">
        <ele>1801.4000244141</ele>
        <time>2022-07-23T09:02:52.000Z</time>
      </trkpt>
      <trkpt lat="44.121" lon="6.98576">
        <ele>1801.4000244141</ele>
        <time>2022-07-23T09:02:54.000Z</time>
      </trkpt>
      <trkpt lat="44.12101" lon="6.98574">
        <ele>1801.1999511719</ele>
        <time>2022-07-23T09:02:59.000Z</time>
      </trkpt>
      <trkpt lat="44.12101" lon="6.98573">
        <ele>1801.1999511719</ele>
        <time>2022-07-23T09:03:17.000Z</time>
      </trkpt>
      <trkpt lat="44.121" lon="6.98572">
        <ele>1801.1999511719</ele>
        <time>2022-07-23T09:03:41.000Z</time>
      </trkpt>
      <trkpt lat="44.12099" lon="6.9857">
        <ele>1801</ele>
        <time>2022-07-23T09:03:44.000Z</time>
      </trkpt>
      <trkpt lat="44.12101" lon="6.98568">
        <ele>1800.8000488281</ele>
        <time>2022-07-23T09:03:46.000Z</time>
      </trkpt>
      <trkpt lat="44.12101" lon="6.98569">
        <ele>1801</ele>
        <time>2022-07-23T09:03:51.000Z</time>
      </trkpt>
      <trkpt lat="44.12101" lon="6.98569">
        <ele>1801.1999511719</ele>
        <time>2022-07-23T09:04:04.000Z</time>
      </trkpt>
      <trkpt lat="44.12101" lon="6.9857">
        <ele>1800.5999755859</ele>
        <time>2022-07-23T09:04:15.000Z</time>
      </trkpt>
      <trkpt lat="44.12101" lon="6.9857">
        <ele>1800.4000244141</ele>
        <time>2022-07-23T09:04:23.000Z</time>
      </trkpt>
      <trkpt lat="44.12101" lon="6.9857">
        <ele>1800.4000244141</ele>
        <time>2022-07-23T09:04:26.000Z</time>
      </trkpt>
      <trkpt lat="44.121" lon="6.9857">
        <ele>1800.1999511719</ele>
        <time>2022-07-23T09:04:37.000Z</time>
      </trkpt>
      <trkpt lat="44.12099" lon="6.98573">
        <ele>1800.5999755859</ele>
        <time>2022-07-23T09:04:45.000Z</time>
      </trkpt>
      <trkpt lat="44.12096" lon="6.98575">
        <ele>1800.4000244141</ele>
        <time>2022-07-23T09:04:51.000Z</time>
      </trkpt>
      <trkpt lat="44.12094" lon="6.98579">
        <ele>1800.8000488281</ele>
        <time>2022-07-23T09:05:00.000Z</time>
      </trkpt>
      <trkpt lat="44.12093" lon="6.9858">
        <ele>1800.4000244141</ele>
        <time>2022-07-23T09:05:09.000Z</time>
      </trkpt>
      <trkpt lat="44.12093" lon="6.98583">
        <ele>1800.8000488281</ele>
        <time>2022-07-23T09:05:17.000Z</time>
      </trkpt>
      <trkpt lat="44.12092" lon="6.98584">
        <ele>1801</ele>
        <time>2022-07-23T09:05:21.000Z</time>
      </trkpt>
      <trkpt lat="44.1209" lon="6.9859">
        <ele>1800.8000488281</ele>
        <time>2022-07-23T09:05:24.000Z</time>
      </trkpt>
      <trkpt lat="44.12085" lon="6.98607">
        <ele>1801</ele>
        <time>2022-07-23T09:05:30.000Z</time>
      </trkpt>
      <trkpt lat="44.12088" lon="6.98627">
        <ele>1800.5999755859</ele>
        <time>2022-07-23T09:05:35.000Z</time>
      </trkpt>
      <trkpt lat="44.12098" lon="6.98647">
        <ele>1800.8000488281</ele>
        <time>2022-07-23T09:05:42.000Z</time>
      </trkpt>
      <trkpt lat="44.12108" lon="6.98656">
        <ele>1801.4000244141</ele>
        <time>2022-07-23T09:05:47.000Z</time>
      </trkpt>
      <trkpt lat="44.12115" lon="6.98664">
        <ele>1802.5999755859</ele>
        <time>2022-07-23T09:05:51.000Z</time>
      </trkpt>
      <trkpt lat="44.12122" lon="6.98671">
        <ele>1803.8000488281</ele>
        <time>2022-07-23T09:05:55.000Z</time>
      </trkpt>
      <trkpt lat="44.12126" lon="6.98676">
        <ele>1804.8000488281</ele>
        <time>2022-07-23T09:05:59.000Z</time>
      </trkpt>
      <trkpt lat="44.12126" lon="6.98675">
        <ele>1804.8000488281</ele>
        <time>2022-07-23T09:06:00.000Z</time>
      </trkpt>
      <trkpt lat="44.12127" lon="6.98675">
        <ele>1805.4000244141</ele>
        <time>2022-07-23T09:06:04.000Z</time>
      </trkpt>
      <trkpt lat="44.12127" lon="6.98674">
        <ele>1805.4000244141</ele>
        <time>2022-07-23T09:06:10.000Z</time>
      </trkpt>
      <trkpt lat="44.12128" lon="6.98675">
        <ele>1805.1999511719</ele>
        <time>2022-07-23T09:06:16.000Z</time>
      </trkpt>
      <trkpt lat="44.1213" lon="6.98678">
        <ele>1805.1999511719</ele>
        <time>2022-07-23T09:06:18.000Z</time>
      </trkpt>
      <trkpt lat="44.12136" lon="6.98684">
        <ele>1805.5999755859</ele>
        <time>2022-07-23T09:06:22.000Z</time>
      </trkpt>
      <trkpt lat="44.12139" lon="6.98689">
        <ele>1805.8000488281</ele>
        <time>2022-07-23T09:06:24.000Z</time>
      </trkpt>
      <trkpt lat="44.1214" lon="6.98691">
        <ele>1806</ele>
        <time>2022-07-23T09:06:25.000Z</time>
      </trkpt>
      <trkpt lat="44.12146" lon="6.98699">
        <ele>1807</ele>
        <time>2022-07-23T09:06:29.000Z</time>
      </trkpt>
      <trkpt lat="44.12149" lon="6.98702">
        <ele>1807.5999755859</ele>
        <time>2022-07-23T09:06:31.000Z</time>
      </trkpt>
      <trkpt lat="44.12154" lon="6.98707">
        <ele>1808.1999511719</ele>
        <time>2022-07-23T09:06:34.000Z</time>
      </trkpt>
      <trkpt lat="44.12162" lon="6.98716">
        <ele>1809.1999511719</ele>
        <time>2022-07-23T09:06:39.000Z</time>
      </trkpt>
      <trkpt lat="44.12164" lon="6.98717">
        <ele>1809.1999511719</ele>
        <time>2022-07-23T09:06:40.000Z</time>
      </trkpt>
      <trkpt lat="44.12173" lon="6.98721">
        <ele>1810.1999511719</ele>
        <time>2022-07-23T09:06:45.000Z</time>
      </trkpt>
      <trkpt lat="44.12184" lon="6.98726">
        <ele>1811.5999755859</ele>
        <time>2022-07-23T09:06:51.000Z</time>
      </trkpt>
      <trkpt lat="44.12189" lon="6.98729">
        <ele>1812.4000244141</ele>
        <time>2022-07-23T09:06:54.000Z</time>
      </trkpt>
      <trkpt lat="44.12191" lon="6.98729">
        <ele>1812.5999755859</ele>
        <time>2022-07-23T09:06:55.000Z</time>
      </trkpt>
      <trkpt lat="44.122" lon="6.98728">
        <ele>1813.4000244141</ele>
        <time>2022-07-23T09:07:00.000Z</time>
      </trkpt>
      <trkpt lat="44.12204" lon="6.98726">
        <ele>1813.8000488281</ele>
        <time>2022-07-23T09:07:02.000Z</time>
      </trkpt>
      <trkpt lat="44.12211" lon="6.98722">
        <ele>1815</ele>
        <time>2022-07-23T09:07:06.000Z</time>
      </trkpt>
      <trkpt lat="44.12213" lon="6.98721">
        <ele>1815.1999511719</ele>
        <time>2022-07-23T09:07:07.000Z</time>
      </trkpt>
      <trkpt lat="44.12218" lon="6.98719">
        <ele>1816</ele>
        <time>2022-07-23T09:07:10.000Z</time>
      </trkpt>
      <trkpt lat="44.12228" lon="6.98717">
        <ele>1817</ele>
        <time>2022-07-23T09:07:15.000Z</time>
      </trkpt>
      <trkpt lat="44.12229" lon="6.98719">
        <ele>1817</ele>
        <time>2022-07-23T09:07:16.000Z</time>
      </trkpt>
      <trkpt lat="44.12236" lon="6.98724">
        <ele>1817.5999755859</ele>
        <time>2022-07-23T09:07:20.000Z</time>
      </trkpt>
      <trkpt lat="44.12239" lon="6.98727">
        <ele>1818.1999511719</ele>
        <time>2022-07-23T09:07:22.000Z</time>
      </trkpt>
      <trkpt lat="44.12245" lon="6.98732">
        <ele>1819.4000244141</ele>
        <time>2022-07-23T09:07:26.000Z</time>
      </trkpt>
      <trkpt lat="44.12246" lon="6.98733">
        <ele>1819.5999755859</ele>
        <time>2022-07-23T09:07:27.000Z</time>
      </trkpt>
      <trkpt lat="44.1225" lon="6.98744">
        <ele>1820.1999511719</ele>
        <time>2022-07-23T09:07:32.000Z</time>
      </trkpt>
      <trkpt lat="44.12251" lon="6.98747">
        <ele>1820.4000244141</ele>
        <time>2022-07-23T09:07:33.000Z</time>
      </trkpt>
      <trkpt lat="44.12254" lon="6.9876">
        <ele>1821.1999511719</ele>
        <time>2022-07-23T09:07:38.000Z</time>
      </trkpt>
      <trkpt lat="44.12255" lon="6.98765">
        <ele>1821.5999755859</ele>
        <time>2022-07-23T09:07:40.000Z</time>
      </trkpt>
      <trkpt lat="44.12259" lon="6.98778">
        <ele>1822.5999755859</ele>
        <time>2022-07-23T09:07:45.000Z</time>
      </trkpt>
      <trkpt lat="44.12264" lon="6.98792">
        <ele>1823</ele>
        <time>2022-07-23T09:07:50.000Z</time>
      </trkpt>
      <trkpt lat="44.12277" lon="6.98806">
        <ele>1823.8000488281</ele>
        <time>2022-07-23T09:07:58.000Z</time>
      </trkpt>
      <trkpt lat="44.12289" lon="6.98812">
        <ele>1824.8000488281</ele>
        <time>2022-07-23T09:08:04.000Z</time>
      </trkpt>
      <trkpt lat="44.12294" lon="6.98815">
        <ele>1825.4000244141</ele>
        <time>2022-07-23T09:08:07.000Z</time>
      </trkpt>
      <trkpt lat="44.12298" lon="6.98817">
        <ele>1825.8000488281</ele>
        <time>2022-07-23T09:08:09.000Z</time>
      </trkpt>
      <trkpt lat="44.12307" lon="6.98824">
        <ele>1827</ele>
        <time>2022-07-23T09:08:14.000Z</time>
      </trkpt>
      <trkpt lat="44.1231" lon="6.98827">
        <ele>1827.4000244141</ele>
        <time>2022-07-23T09:08:16.000Z</time>
      </trkpt>
      <trkpt lat="44.12313" lon="6.98835">
        <ele>1828</ele>
        <time>2022-07-23T09:08:19.000Z</time>
      </trkpt>
      <trkpt lat="44.12314" lon="6.98842">
        <ele>1828.5999755859</ele>
        <time>2022-07-23T09:08:22.000Z</time>
      </trkpt>
      <trkpt lat="44.12315" lon="6.98846">
        <ele>1829.1999511719</ele>
        <time>2022-07-23T09:08:24.000Z</time>
      </trkpt>
      <trkpt lat="44.12317" lon="6.98854">
        <ele>1830.4000244141</ele>
        <time>2022-07-23T09:08:27.000Z</time>
      </trkpt>
      <trkpt lat="44.12318" lon="6.98856">
        <ele>1830.4000244141</ele>
        <time>2022-07-23T09:08:28.000Z</time>
      </trkpt>
      <trkpt lat="44.12327" lon="6.9887">
        <ele>1831.4000244141</ele>
        <time>2022-07-23T09:08:35.000Z</time>
      </trkpt>
      <trkpt lat="44.12335" lon="6.98878">
        <ele>1832.4000244141</ele>
        <time>2022-07-23T09:08:40.000Z</time>
      </trkpt>
      <trkpt lat="44.12336" lon="6.9888">
        <ele>1832.5999755859</ele>
        <time>2022-07-23T09:08:42.000Z</time>
      </trkpt>
      <trkpt lat="44.12337" lon="6.98879">
        <ele>1833.1999511719</ele>
        <time>2022-07-23T09:08:46.000Z</time>
      </trkpt>
      <trkpt lat="44.12336" lon="6.9888">
        <ele>1833.4000244141</ele>
        <time>2022-07-23T09:08:53.000Z</time>
      </trkpt>
      <trkpt lat="44.12336" lon="6.9888">
        <ele>1833.5999755859</ele>
        <time>2022-07-23T09:08:56.000Z</time>
      </trkpt>
      <trkpt lat="44.12336" lon="6.9888">
        <ele>1834.1999511719</ele>
        <time>2022-07-23T09:09:15.000Z</time>
      </trkpt>
      <trkpt lat="44.12338" lon="6.9888">
        <ele>1834.1999511719</ele>
        <time>2022-07-23T09:09:35.000Z</time>
      </trkpt>
      <trkpt lat="44.12338" lon="6.9888">
        <ele>1834.4000244141</ele>
        <time>2022-07-23T09:09:39.000Z</time>
      </trkpt>
      <trkpt lat="44.12337" lon="6.98879">
        <ele>1834.1999511719</ele>
        <time>2022-07-23T09:09:41.000Z</time>
      </trkpt>
      <trkpt lat="44.12338" lon="6.98879">
        <ele>1834.1999511719</ele>
        <time>2022-07-23T09:09:43.000Z</time>
      </trkpt>
      <trkpt lat="44.12339" lon="6.98879">
        <ele>1834.1999511719</ele>
        <time>2022-07-23T09:09:48.000Z</time>
      </trkpt>
      <trkpt lat="44.12339" lon="6.98879">
        <ele>1834.4000244141</ele>
        <time>2022-07-23T09:10:06.000Z</time>
      </trkpt>
      <trkpt lat="44.12339" lon="6.98879">
        <ele>1834.1999511719</ele>
        <time>2022-07-23T09:10:15.000Z</time>
      </trkpt>
      <trkpt lat="44.12339" lon="6.98879">
        <ele>1834.1999511719</ele>
        <time>2022-07-23T09:10:27.000Z</time>
      </trkpt>
      <trkpt lat="44.12343" lon="6.98885">
        <ele>1834.1999511719</ele>
        <time>2022-07-23T09:10:33.000Z</time>
      </trkpt>
      <trkpt lat="44.12354" lon="6.98899">
        <ele>1834.5999755859</ele>
        <time>2022-07-23T09:10:39.000Z</time>
      </trkpt>
      <trkpt lat="44.12367" lon="6.98913">
        <ele>1835.5999755859</ele>
        <time>2022-07-23T09:10:45.000Z</time>
      </trkpt>
      <trkpt lat="44.12373" lon="6.98918">
        <ele>1836</ele>
        <time>2022-07-23T09:10:47.000Z</time>
      </trkpt>
      <trkpt lat="44.12378" lon="6.98921">
        <ele>1836.8000488281</ele>
        <time>2022-07-23T09:10:49.000Z</time>
      </trkpt>
      <trkpt lat="44.12389" lon="6.98928">
        <ele>1837.8000488281</ele>
        <time>2022-07-23T09:10:53.000Z</time>
      </trkpt>
      <trkpt lat="44.1239" lon="6.98931">
        <ele>1838.1999511719</ele>
        <time>2022-07-23T09:10:54.000Z</time>
      </trkpt>
      <trkpt lat="44.12401" lon="6.9895">
        <ele>1839.1999511719</ele>
        <time>2022-07-23T09:11:00.000Z</time>
      </trkpt>
      <trkpt lat="44.12404" lon="6.98952">
        <ele>1839.4000244141</ele>
        <time>2022-07-23T09:11:01.000Z</time>
      </trkpt>
      <trkpt lat="44.12413" lon="6.98963">
        <ele>1840.1999511719</ele>
        <time>2022-07-23T09:11:05.000Z</time>
      </trkpt>
      <trkpt lat="44.12417" lon="6.98969">
        <ele>1840.4000244141</ele>
        <time>2022-07-23T09:11:07.000Z</time>
      </trkpt>
      <trkpt lat="44.12425" lon="6.98975">
        <ele>1841.8000488281</ele>
        <time>2022-07-23T09:11:11.000Z</time>
      </trkpt>
      <trkpt lat="44.12427" lon="6.98977">
        <ele>1842</ele>
        <time>2022-07-23T09:11:12.000Z</time>
      </trkpt>
      <trkpt lat="44.12436" lon="6.98984">
        <ele>1843</ele>
        <time>2022-07-23T09:11:16.000Z</time>
      </trkpt>
      <trkpt lat="44.12439" lon="6.98989">
        <ele>1843.4000244141</ele>
        <time>2022-07-23T09:11:18.000Z</time>
      </trkpt>
      <trkpt lat="44.12443" lon="6.98994">
        <ele>1844</ele>
        <time>2022-07-23T09:11:20.000Z</time>
      </trkpt>
      <trkpt lat="44.12452" lon="6.99002">
        <ele>1844.4000244141</ele>
        <time>2022-07-23T09:11:24.000Z</time>
      </trkpt>
      <trkpt lat="44.1246" lon="6.99013">
        <ele>1845</ele>
        <time>2022-07-23T09:11:28.000Z</time>
      </trkpt>
      <trkpt lat="44.12462" lon="6.9902">
        <ele>1845.1999511719</ele>
        <time>2022-07-23T09:11:30.000Z</time>
      </trkpt>
      <trkpt lat="44.12467" lon="6.99035">
        <ele>1846.1999511719</ele>
        <time>2022-07-23T09:11:35.000Z</time>
      </trkpt>
      <trkpt lat="44.12468" lon="6.99051">
        <ele>1847.1999511719</ele>
        <time>2022-07-23T09:11:39.000Z</time>
      </trkpt>
      <trkpt lat="44.12471" lon="6.99057">
        <ele>1847.4000244141</ele>
        <time>2022-07-23T09:11:41.000Z</time>
      </trkpt>
      <trkpt lat="44.1248" lon="6.99072">
        <ele>1848.1999511719</ele>
        <time>2022-07-23T09:11:46.000Z</time>
      </trkpt>
      <trkpt lat="44.12482" lon="6.99075">
        <ele>1848.5999755859</ele>
        <time>2022-07-23T09:11:47.000Z</time>
      </trkpt>
      <trkpt lat="44.12491" lon="6.99086">
        <ele>1849.1999511719</ele>
        <time>2022-07-23T09:11:51.000Z</time>
      </trkpt>
      <trkpt lat="44.12496" lon="6.99091">
        <ele>1849.5999755859</ele>
        <time>2022-07-23T09:11:53.000Z</time>
      </trkpt>
      <trkpt lat="44.12508" lon="6.99104">
        <ele>1850.4000244141</ele>
        <time>2022-07-23T09:11:58.000Z</time>
      </trkpt>
      <trkpt lat="44.12513" lon="6.99109">
        <ele>1850.5999755859</ele>
        <time>2022-07-23T09:12:00.000Z</time>
      </trkpt>
      <trkpt lat="44.12534" lon="6.99127">
        <ele>1851.1999511719</ele>
        <time>2022-07-23T09:12:08.000Z</time>
      </trkpt>
      <trkpt lat="44.12547" lon="6.99138">
        <ele>1851.5999755859</ele>
        <time>2022-07-23T09:12:13.000Z</time>
      </trkpt>
      <trkpt lat="44.12555" lon="6.99146">
        <ele>1851.8000488281</ele>
        <time>2022-07-23T09:12:16.000Z</time>
      </trkpt>
      <trkpt lat="44.12573" lon="6.99162">
        <ele>1852.8000488281</ele>
        <time>2022-07-23T09:12:23.000Z</time>
      </trkpt>
      <trkpt lat="44.12596" lon="6.99177">
        <ele>1853.4000244141</ele>
        <time>2022-07-23T09:12:31.000Z</time>
      </trkpt>
      <trkpt lat="44.12602" lon="6.9918">
        <ele>1853.8000488281</ele>
        <time>2022-07-23T09:12:33.000Z</time>
      </trkpt>
      <trkpt lat="44.12619" lon="6.99191">
        <ele>1854.1999511719</ele>
        <time>2022-07-23T09:12:38.000Z</time>
      </trkpt>
      <trkpt lat="44.12638" lon="6.99204">
        <ele>1854.1999511719</ele>
        <time>2022-07-23T09:12:44.000Z</time>
      </trkpt>
      <trkpt lat="44.12658" lon="6.99218">
        <ele>1854.4000244141</ele>
        <time>2022-07-23T09:12:50.000Z</time>
      </trkpt>
      <trkpt lat="44.1268" lon="6.99233">
        <ele>1854.8000488281</ele>
        <time>2022-07-23T09:12:57.000Z</time>
      </trkpt>
      <trkpt lat="44.12683" lon="6.99235">
        <ele>1855</ele>
        <time>2022-07-23T09:12:58.000Z</time>
      </trkpt>
      <trkpt lat="44.12702" lon="6.9925">
        <ele>1855.5999755859</ele>
        <time>2022-07-23T09:13:05.000Z</time>
      </trkpt>
      <trkpt lat="44.12707" lon="6.99253">
        <ele>1856.1999511719</ele>
        <time>2022-07-23T09:13:07.000Z</time>
      </trkpt>
      <trkpt lat="44.12717" lon="6.99258">
        <ele>1857.4000244141</ele>
        <time>2022-07-23T09:13:11.000Z</time>
      </trkpt>
      <trkpt lat="44.12724" lon="6.99261">
        <ele>1858.4000244141</ele>
        <time>2022-07-23T09:13:14.000Z</time>
      </trkpt>
      <trkpt lat="44.12733" lon="6.99264">
        <ele>1859.4000244141</ele>
        <time>2022-07-23T09:13:18.000Z</time>
      </trkpt>
      <trkpt lat="44.12736" lon="6.99265">
        <ele>1859.5999755859</ele>
        <time>2022-07-23T09:13:19.000Z</time>
      </trkpt>
      <trkpt lat="44.12745" lon="6.99268">
        <ele>1860.8000488281</ele>
        <time>2022-07-23T09:13:23.000Z</time>
      </trkpt>
      <trkpt lat="44.12749" lon="6.99269">
        <ele>1861.1999511719</ele>
        <time>2022-07-23T09:13:25.000Z</time>
      </trkpt>
      <trkpt lat="44.12756" lon="6.99272">
        <ele>1862</ele>
        <time>2022-07-23T09:13:28.000Z</time>
      </trkpt>
      <trkpt lat="44.12767" lon="6.99278">
        <ele>1863.4000244141</ele>
        <time>2022-07-23T09:13:33.000Z</time>
      </trkpt>
      <trkpt lat="44.12769" lon="6.99279">
        <ele>1863.5999755859</ele>
        <time>2022-07-23T09:13:34.000Z</time>
      </trkpt>
      <trkpt lat="44.12775" lon="6.99283">
        <ele>1864.5999755859</ele>
        <time>2022-07-23T09:13:37.000Z</time>
      </trkpt>
      <trkpt lat="44.1278" lon="6.99287">
        <ele>1865.1999511719</ele>
        <time>2022-07-23T09:13:40.000Z</time>
      </trkpt>
      <trkpt lat="44.12785" lon="6.9929">
        <ele>1865.5999755859</ele>
        <time>2022-07-23T09:13:42.000Z</time>
      </trkpt>
      <trkpt lat="44.12793" lon="6.99295">
        <ele>1867</ele>
        <time>2022-07-23T09:13:46.000Z</time>
      </trkpt>
      <trkpt lat="44.12797" lon="6.99297">
        <ele>1867.8000488281</ele>
        <time>2022-07-23T09:13:48.000Z</time>
      </trkpt>
      <trkpt lat="44.12804" lon="6.99301">
        <ele>1868</ele>
        <time>2022-07-23T09:13:52.000Z</time>
      </trkpt>
      <trkpt lat="44.12812" lon="6.99304">
        <ele>1869</ele>
        <time>2022-07-23T09:13:56.000Z</time>
      </trkpt>
      <trkpt lat="44.12814" lon="6.99304">
        <ele>1869.1999511719</ele>
        <time>2022-07-23T09:13:57.000Z</time>
      </trkpt>
      <trkpt lat="44.12825" lon="6.99308">
        <ele>1870.1999511719</ele>
        <time>2022-07-23T09:14:03.000Z</time>
      </trkpt>
      <trkpt lat="44.12827" lon="6.99309">
        <ele>1870.5999755859</ele>
        <time>2022-07-23T09:14:04.000Z</time>
      </trkpt>
      <trkpt lat="44.12834" lon="6.99311">
        <ele>1871.4000244141</ele>
        <time>2022-07-23T09:14:08.000Z</time>
      </trkpt>
      <trkpt lat="44.12842" lon="6.99313">
        <ele>1872.5999755859</ele>
        <time>2022-07-23T09:14:12.000Z</time>
      </trkpt>
      <trkpt lat="44.12851" lon="6.99316">
        <ele>1873.8000488281</ele>
        <time>2022-07-23T09:14:17.000Z</time>
      </trkpt>
      <trkpt lat="44.12859" lon="6.99318">
        <ele>1874.5999755859</ele>
        <time>2022-07-23T09:14:21.000Z</time>
      </trkpt>
      <trkpt lat="44.12861" lon="6.99319">
        <ele>1874.8000488281</ele>
        <time>2022-07-23T09:14:22.000Z</time>
      </trkpt>
      <trkpt lat="44.1287" lon="6.99322">
        <ele>1876</ele>
        <time>2022-07-23T09:14:27.000Z</time>
      </trkpt>
      <trkpt lat="44.12874" lon="6.99323">
        <ele>1876.5999755859</ele>
        <time>2022-07-23T09:14:29.000Z</time>
      </trkpt>
      <trkpt lat="44.12878" lon="6.99324">
        <ele>1877</ele>
        <time>2022-07-23T09:14:31.000Z</time>
      </trkpt>
      <trkpt lat="44.12887" lon="6.99326">
        <ele>1878.1999511719</ele>
        <time>2022-07-23T09:14:36.000Z</time>
      </trkpt>
      <trkpt lat="44.12889" lon="6.99326">
        <ele>1878.4000244141</ele>
        <time>2022-07-23T09:14:37.000Z</time>
      </trkpt>
      <trkpt lat="44.12897" lon="6.99328">
        <ele>1879.1999511719</ele>
        <time>2022-07-23T09:14:42.000Z</time>
      </trkpt>
      <trkpt lat="44.12901" lon="6.99329">
        <ele>1879.5999755859</ele>
        <time>2022-07-23T09:14:44.000Z</time>
      </trkpt>
      <trkpt lat="44.12904" lon="6.99329">
        <ele>1880.1999511719</ele>
        <time>2022-07-23T09:14:46.000Z</time>
      </trkpt>
      <trkpt lat="44.12913" lon="6.9933">
        <ele>1881.1999511719</ele>
        <time>2022-07-23T09:14:51.000Z</time>
      </trkpt>
      <trkpt lat="44.12921" lon="6.99332">
        <ele>1882.1999511719</ele>
        <time>2022-07-23T09:14:56.000Z</time>
      </trkpt>
      <trkpt lat="44.1293" lon="6.99332">
        <ele>1883.1999511719</ele>
        <time>2022-07-23T09:15:02.000Z</time>
      </trkpt>
      <trkpt lat="44.12933" lon="6.99333">
        <ele>1883.5999755859</ele>
        <time>2022-07-23T09:15:04.000Z</time>
      </trkpt>
      <trkpt lat="44.12938" lon="6.99334">
        <ele>1884.1999511719</ele>
        <time>2022-07-23T09:15:07.000Z</time>
      </trkpt>
      <trkpt lat="44.12945" lon="6.99335">
        <ele>1885</ele>
        <time>2022-07-23T09:15:11.000Z</time>
      </trkpt>
      <trkpt lat="44.1295" lon="6.99335">
        <ele>1885.4000244141</ele>
        <time>2022-07-23T09:15:14.000Z</time>
      </trkpt>
      <trkpt lat="44.12958" lon="6.99334">
        <ele>1886.1999511719</ele>
        <time>2022-07-23T09:15:19.000Z</time>
      </trkpt>
      <trkpt lat="44.1296" lon="6.99333">
        <ele>1886.4000244141</ele>
        <time>2022-07-23T09:15:20.000Z</time>
      </trkpt>
      <trkpt lat="44.12969" lon="6.9933">
        <ele>1887.4000244141</ele>
        <time>2022-07-23T09:15:25.000Z</time>
      </trkpt>
      <trkpt lat="44.12971" lon="6.9933">
        <ele>1887.5999755859</ele>
        <time>2022-07-23T09:15:26.000Z</time>
      </trkpt>
      <trkpt lat="44.12978" lon="6.99327">
        <ele>1888.5999755859</ele>
        <time>2022-07-23T09:15:31.000Z</time>
      </trkpt>
      <trkpt lat="44.12987" lon="6.99324">
        <ele>1889.8000488281</ele>
        <time>2022-07-23T09:15:37.000Z</time>
      </trkpt>
      <trkpt lat="44.1299" lon="6.99323">
        <ele>1890.1999511719</ele>
        <time>2022-07-23T09:15:39.000Z</time>
      </trkpt>
      <trkpt lat="44.12995" lon="6.99321">
        <ele>1890.8000488281</ele>
        <time>2022-07-23T09:15:42.000Z</time>
      </trkpt>
      <trkpt lat="44.13001" lon="6.99319">
        <ele>1891.5999755859</ele>
        <time>2022-07-23T09:15:45.000Z</time>
      </trkpt>
      <trkpt lat="44.13005" lon="6.99317">
        <ele>1892</ele>
        <time>2022-07-23T09:15:47.000Z</time>
      </trkpt>
      <trkpt lat="44.13013" lon="6.99315">
        <ele>1893.4000244141</ele>
        <time>2022-07-23T09:15:51.000Z</time>
      </trkpt>
      <trkpt lat="44.13015" lon="6.99315">
        <ele>1893.5999755859</ele>
        <time>2022-07-23T09:15:52.000Z</time>
      </trkpt>
      <trkpt lat="44.1302" lon="6.99317">
        <ele>1894</ele>
        <time>2022-07-23T09:15:54.000Z</time>
      </trkpt>
      <trkpt lat="44.13024" lon="6.99323">
        <ele>1894.4000244141</ele>
        <time>2022-07-23T09:15:57.000Z</time>
      </trkpt>
      <trkpt lat="44.13032" lon="6.99338">
        <ele>1895.5999755859</ele>
        <time>2022-07-23T09:16:03.000Z</time>
      </trkpt>
      <trkpt lat="44.13033" lon="6.9934">
        <ele>1895.8000488281</ele>
        <time>2022-07-23T09:16:04.000Z</time>
      </trkpt>
      <trkpt lat="44.1304" lon="6.99354">
        <ele>1896.8000488281</ele>
        <time>2022-07-23T09:16:09.000Z</time>
      </trkpt>
      <trkpt lat="44.13043" lon="6.99363">
        <ele>1897.4000244141</ele>
        <time>2022-07-23T09:16:12.000Z</time>
      </trkpt>
      <trkpt lat="44.13046" lon="6.99369">
        <ele>1898</ele>
        <time>2022-07-23T09:16:14.000Z</time>
      </trkpt>
      <trkpt lat="44.13051" lon="6.9938">
        <ele>1899.1999511719</ele>
        <time>2022-07-23T09:16:18.000Z</time>
      </trkpt>
      <trkpt lat="44.13054" lon="6.99387">
        <ele>1900</ele>
        <time>2022-07-23T09:16:21.000Z</time>
      </trkpt>
      <trkpt lat="44.13056" lon="6.9939">
        <ele>1900.1999511719</ele>
        <time>2022-07-23T09:16:22.000Z</time>
      </trkpt>
      <trkpt lat="44.13063" lon="6.99401">
        <ele>1901.5999755859</ele>
        <time>2022-07-23T09:16:27.000Z</time>
      </trkpt>
      <trkpt lat="44.13068" lon="6.99406">
        <ele>1902.5999755859</ele>
        <time>2022-07-23T09:16:30.000Z</time>
      </trkpt>
      <trkpt lat="44.1307" lon="6.99408">
        <ele>1902.8000488281</ele>
        <time>2022-07-23T09:16:31.000Z</time>
      </trkpt>
      <trkpt lat="44.13078" lon="6.99419">
        <ele>1904</ele>
        <time>2022-07-23T09:16:36.000Z</time>
      </trkpt>
      <trkpt lat="44.13081" lon="6.9943">
        <ele>1905</ele>
        <time>2022-07-23T09:16:40.000Z</time>
      </trkpt>
      <trkpt lat="44.13084" lon="6.99436">
        <ele>1905.5999755859</ele>
        <time>2022-07-23T09:16:42.000Z</time>
      </trkpt>
      <trkpt lat="44.13086" lon="6.99441">
        <ele>1906.1999511719</ele>
        <time>2022-07-23T09:16:44.000Z</time>
      </trkpt>
      <trkpt lat="44.13085" lon="6.99452">
        <ele>1906.8000488281</ele>
        <time>2022-07-23T09:16:47.000Z</time>
      </trkpt>
      <trkpt lat="44.13085" lon="6.99465">
        <ele>1907.1999511719</ele>
        <time>2022-07-23T09:16:51.000Z</time>
      </trkpt>
      <trkpt lat="44.13084" lon="6.99471">
        <ele>1907.4000244141</ele>
        <time>2022-07-23T09:16:53.000Z</time>
      </trkpt>
      <trkpt lat="44.13084" lon="6.99473">
        <ele>1907.5999755859</ele>
        <time>2022-07-23T09:16:54.000Z</time>
      </trkpt>
      <trkpt lat="44.13081" lon="6.99481">
        <ele>1908.4000244141</ele>
        <time>2022-07-23T09:16:58.000Z</time>
      </trkpt>
      <trkpt lat="44.13075" lon="6.99496">
        <ele>1909.1999511719</ele>
        <time>2022-07-23T09:17:04.000Z</time>
      </trkpt>
      <trkpt lat="44.13073" lon="6.99498">
        <ele>1909.5999755859</ele>
        <time>2022-07-23T09:17:05.000Z</time>
      </trkpt>
      <trkpt lat="44.13066" lon="6.99512">
        <ele>1910.5999755859</ele>
        <time>2022-07-23T09:17:11.000Z</time>
      </trkpt>
      <trkpt lat="44.13059" lon="6.9952">
        <ele>1911.8000488281</ele>
        <time>2022-07-23T09:17:16.000Z</time>
      </trkpt>
      <trkpt lat="44.13057" lon="6.99522">
        <ele>1912</ele>
        <time>2022-07-23T09:17:17.000Z</time>
      </trkpt>
      <trkpt lat="44.13049" lon="6.99531">
        <ele>1913</ele>
        <time>2022-07-23T09:17:22.000Z</time>
      </trkpt>
      <trkpt lat="44.13047" lon="6.99534">
        <ele>1913.4000244141</ele>
        <time>2022-07-23T09:17:24.000Z</time>
      </trkpt>
      <trkpt lat="44.13042" lon="6.99539">
        <ele>1914.1999511719</ele>
        <time>2022-07-23T09:17:27.000Z</time>
      </trkpt>
      <trkpt lat="44.13038" lon="6.99543">
        <ele>1914.8000488281</ele>
        <time>2022-07-23T09:17:30.000Z</time>
      </trkpt>
      <trkpt lat="44.13035" lon="6.99547">
        <ele>1915.1999511719</ele>
        <time>2022-07-23T09:17:32.000Z</time>
      </trkpt>
      <trkpt lat="44.13028" lon="6.99555">
        <ele>1916.4000244141</ele>
        <time>2022-07-23T09:17:37.000Z</time>
      </trkpt>
      <trkpt lat="44.13027" lon="6.99557">
        <ele>1916.5999755859</ele>
        <time>2022-07-23T09:17:38.000Z</time>
      </trkpt>
      <trkpt lat="44.1302" lon="6.99562">
        <ele>1917.4000244141</ele>
        <time>2022-07-23T09:17:42.000Z</time>
      </trkpt>
      <trkpt lat="44.13013" lon="6.99569">
        <ele>1918</ele>
        <time>2022-07-23T09:17:46.000Z</time>
      </trkpt>
      <trkpt lat="44.13008" lon="6.99575">
        <ele>1918.4000244141</ele>
        <time>2022-07-23T09:17:49.000Z</time>
      </trkpt>
      <trkpt lat="44.12999" lon="6.99582">
        <ele>1919.5999755859</ele>
        <time>2022-07-23T09:17:55.000Z</time>
      </trkpt>
      <trkpt lat="44.12999" lon="6.99584">
        <ele>1920</ele>
        <time>2022-07-23T09:17:56.000Z</time>
      </trkpt>
      <trkpt lat="44.12999" lon="6.99584">
        <ele>1920.4000244141</ele>
        <time>2022-07-23T09:17:58.000Z</time>
      </trkpt>
      <trkpt lat="44.12999" lon="6.99584">
        <ele>1920.5999755859</ele>
        <time>2022-07-23T09:18:00.000Z</time>
      </trkpt>
      <trkpt lat="44.13" lon="6.99584">
        <ele>1920.5999755859</ele>
        <time>2022-07-23T09:18:03.000Z</time>
      </trkpt>
      <trkpt lat="44.13001" lon="6.99584">
        <ele>1921.1999511719</ele>
        <time>2022-07-23T09:18:09.000Z</time>
      </trkpt>
      <trkpt lat="44.13005" lon="6.99583">
        <ele>1921</ele>
        <time>2022-07-23T09:18:16.000Z</time>
      </trkpt>
      <trkpt lat="44.13013" lon="6.99581">
        <ele>1921.5999755859</ele>
        <time>2022-07-23T09:18:21.000Z</time>
      </trkpt>
      <trkpt lat="44.13023" lon="6.99576">
        <ele>1922.8000488281</ele>
        <time>2022-07-23T09:18:26.000Z</time>
      </trkpt>
      <trkpt lat="44.13026" lon="6.99574">
        <ele>1923</ele>
        <time>2022-07-23T09:18:28.000Z</time>
      </trkpt>
      <trkpt lat="44.13033" lon="6.99573">
        <ele>1923.8000488281</ele>
        <time>2022-07-23T09:18:32.000Z</time>
      </trkpt>
      <trkpt lat="44.13035" lon="6.99572">
        <ele>1924.4000244141</ele>
        <time>2022-07-23T09:18:34.000Z</time>
      </trkpt>
      <trkpt lat="44.13036" lon="6.99572">
        <ele>1924.8000488281</ele>
        <time>2022-07-23T09:18:35.000Z</time>
      </trkpt>
      <trkpt lat="44.13042" lon="6.9957">
        <ele>1925.5999755859</ele>
        <time>2022-07-23T09:18:39.000Z</time>
      </trkpt>
      <trkpt lat="44.13045" lon="6.99569">
        <ele>1926</ele>
        <time>2022-07-23T09:18:41.000Z</time>
      </trkpt>
      <trkpt lat="44.13045" lon="6.99569">
        <ele>1926.5999755859</ele>
        <time>2022-07-23T09:18:44.000Z</time>
      </trkpt>
      <trkpt lat="44.13045" lon="6.99569">
        <ele>1927</ele>
        <time>2022-07-23T09:18:47.000Z</time>
      </trkpt>
      <trkpt lat="44.13051" lon="6.99567">
        <ele>1927.1999511719</ele>
        <time>2022-07-23T09:18:51.000Z</time>
      </trkpt>
      <trkpt lat="44.13067" lon="6.99565">
        <ele>1927.4000244141</ele>
        <time>2022-07-23T09:18:58.000Z</time>
      </trkpt>
      <trkpt lat="44.13075" lon="6.99565">
        <ele>1928.1999511719</ele>
        <time>2022-07-23T09:19:02.000Z</time>
      </trkpt>
      <trkpt lat="44.13083" lon="6.99566">
        <ele>1929.1999511719</ele>
        <time>2022-07-23T09:19:06.000Z</time>
      </trkpt>
      <trkpt lat="44.13085" lon="6.99567">
        <ele>1929.4000244141</ele>
        <time>2022-07-23T09:19:07.000Z</time>
      </trkpt>
      <trkpt lat="44.13097" lon="6.99567">
        <ele>1930.5999755859</ele>
        <time>2022-07-23T09:19:13.000Z</time>
      </trkpt>
      <trkpt lat="44.13105" lon="6.99566">
        <ele>1931.5999755859</ele>
        <time>2022-07-23T09:19:17.000Z</time>
      </trkpt>
      <trkpt lat="44.13113" lon="6.99562">
        <ele>1932.1999511719</ele>
        <time>2022-07-23T09:19:21.000Z</time>
      </trkpt>
      <trkpt lat="44.13118" lon="6.99557">
        <ele>1932.8000488281</ele>
        <time>2022-07-23T09:19:24.000Z</time>
      </trkpt>
      <trkpt lat="44.13128" lon="6.99551">
        <ele>1934</ele>
        <time>2022-07-23T09:19:29.000Z</time>
      </trkpt>
      <trkpt lat="44.13133" lon="6.99547">
        <ele>1935.1999511719</ele>
        <time>2022-07-23T09:19:32.000Z</time>
      </trkpt>
      <trkpt lat="44.13141" lon="6.99538">
        <ele>1936.1999511719</ele>
        <time>2022-07-23T09:19:37.000Z</time>
      </trkpt>
      <trkpt lat="44.13147" lon="6.99531">
        <ele>1937.1999511719</ele>
        <time>2022-07-23T09:19:41.000Z</time>
      </trkpt>
      <trkpt lat="44.13151" lon="6.99528">
        <ele>1937.5999755859</ele>
        <time>2022-07-23T09:19:43.000Z</time>
      </trkpt>
      <trkpt lat="44.13159" lon="6.9952">
        <ele>1938.4000244141</ele>
        <time>2022-07-23T09:19:48.000Z</time>
      </trkpt>
      <trkpt lat="44.13162" lon="6.99518">
        <ele>1939</ele>
        <time>2022-07-23T09:19:50.000Z</time>
      </trkpt>
      <trkpt lat="44.13168" lon="6.99514">
        <ele>1939.5999755859</ele>
        <time>2022-07-23T09:19:53.000Z</time>
      </trkpt>
      <trkpt lat="44.13174" lon="6.9951">
        <ele>1940.1999511719</ele>
        <time>2022-07-23T09:19:56.000Z</time>
      </trkpt>
      <trkpt lat="44.13177" lon="6.99507">
        <ele>1940.8000488281</ele>
        <time>2022-07-23T09:19:58.000Z</time>
      </trkpt>
      <trkpt lat="44.13185" lon="6.99499">
        <ele>1941.5999755859</ele>
        <time>2022-07-23T09:20:03.000Z</time>
      </trkpt>
      <trkpt lat="44.13186" lon="6.99498">
        <ele>1941.8000488281</ele>
        <time>2022-07-23T09:20:04.000Z</time>
      </trkpt>
      <trkpt lat="44.13196" lon="6.9949">
        <ele>1942.8000488281</ele>
        <time>2022-07-23T09:20:10.000Z</time>
      </trkpt>
      <trkpt lat="44.13201" lon="6.99487">
        <ele>1944</ele>
        <time>2022-07-23T09:20:14.000Z</time>
      </trkpt>
      <trkpt lat="44.13207" lon="6.99479">
        <ele>1945.1999511719</ele>
        <time>2022-07-23T09:20:19.000Z</time>
      </trkpt>
      <trkpt lat="44.13211" lon="6.99471">
        <ele>1946.1999511719</ele>
        <time>2022-07-23T09:20:23.000Z</time>
      </trkpt>
      <trkpt lat="44.13212" lon="6.99463">
        <ele>1946.5999755859</ele>
        <time>2022-07-23T09:20:26.000Z</time>
      </trkpt>
      <trkpt lat="44.13215" lon="6.99452">
        <ele>1947.1999511719</ele>
        <time>2022-07-23T09:20:31.000Z</time>
      </trkpt>
      <trkpt lat="44.13217" lon="6.99439">
        <ele>1947.5999755859</ele>
        <time>2022-07-23T09:20:36.000Z</time>
      </trkpt>
      <trkpt lat="44.13218" lon="6.99433">
        <ele>1948.1999511719</ele>
        <time>2022-07-23T09:20:39.000Z</time>
      </trkpt>
      <trkpt lat="44.1322" lon="6.99425">
        <ele>1949.5999755859</ele>
        <time>2022-07-23T09:20:42.000Z</time>
      </trkpt>
      <trkpt lat="44.13222" lon="6.99419">
        <ele>1951</ele>
        <time>2022-07-23T09:20:45.000Z</time>
      </trkpt>
      <trkpt lat="44.13223" lon="6.99418">
        <ele>1951.4000244141</ele>
        <time>2022-07-23T09:20:46.000Z</time>
      </trkpt>
      <trkpt lat="44.13225" lon="6.99419">
        <ele>1951.8000488281</ele>
        <time>2022-07-23T09:20:47.000Z</time>
      </trkpt>
      <trkpt lat="44.13226" lon="6.99419">
        <ele>1952.1999511719</ele>
        <time>2022-07-23T09:20:48.000Z</time>
      </trkpt>
      <trkpt lat="44.13229" lon="6.99427">
        <ele>1953.1999511719</ele>
        <time>2022-07-23T09:20:52.000Z</time>
      </trkpt>
      <trkpt lat="44.1323" lon="6.99428">
        <ele>1954</ele>
        <time>2022-07-23T09:20:56.000Z</time>
      </trkpt>
      <trkpt lat="44.1323" lon="6.99427">
        <ele>1954</ele>
        <time>2022-07-23T09:21:02.000Z</time>
      </trkpt>
      <trkpt lat="44.13232" lon="6.99428">
        <ele>1954.4000244141</ele>
        <time>2022-07-23T09:21:08.000Z</time>
      </trkpt>
      <trkpt lat="44.13232" lon="6.99428">
        <ele>1954.5999755859</ele>
        <time>2022-07-23T09:21:14.000Z</time>
      </trkpt>
      <trkpt lat="44.13231" lon="6.99428">
        <ele>1954.5999755859</ele>
        <time>2022-07-23T09:21:30.000Z</time>
      </trkpt>
      <trkpt lat="44.1323" lon="6.99429">
        <ele>1954.1999511719</ele>
        <time>2022-07-23T09:21:45.000Z</time>
      </trkpt>
      <trkpt lat="44.1323" lon="6.99428">
        <ele>1954.4000244141</ele>
        <time>2022-07-23T09:22:05.000Z</time>
      </trkpt>
      <trkpt lat="44.1323" lon="6.99429">
        <ele>1955.1999511719</ele>
        <time>2022-07-23T09:22:13.000Z</time>
      </trkpt>
      <trkpt lat="44.13231" lon="6.9943">
        <ele>1954.8000488281</ele>
        <time>2022-07-23T09:22:19.000Z</time>
      </trkpt>
      <trkpt lat="44.1323" lon="6.9943">
        <ele>1955.4000244141</ele>
        <time>2022-07-23T09:22:24.000Z</time>
      </trkpt>
      <trkpt lat="44.1323" lon="6.9943">
        <ele>1955.4000244141</ele>
        <time>2022-07-23T09:22:26.000Z</time>
      </trkpt>
      <trkpt lat="44.1323" lon="6.99429">
        <ele>1954.4000244141</ele>
        <time>2022-07-23T09:22:31.000Z</time>
      </trkpt>
      <trkpt lat="44.1323" lon="6.99429">
        <ele>1954.4000244141</ele>
        <time>2022-07-23T09:22:34.000Z</time>
      </trkpt>
      <trkpt lat="44.13231" lon="6.99429">
        <ele>1955.1999511719</ele>
        <time>2022-07-23T09:22:44.000Z</time>
      </trkpt>
      <trkpt lat="44.13231" lon="6.99429">
        <ele>1955</ele>
        <time>2022-07-23T09:22:53.000Z</time>
      </trkpt>
      <trkpt lat="44.1323" lon="6.99428">
        <ele>1955</ele>
        <time>2022-07-23T09:23:04.000Z</time>
      </trkpt>
      <trkpt lat="44.1323" lon="6.99428">
        <ele>1954.8000488281</ele>
        <time>2022-07-23T09:23:13.000Z</time>
      </trkpt>
      <trkpt lat="44.1323" lon="6.99427">
        <ele>1955.1999511719</ele>
        <time>2022-07-23T09:23:32.000Z</time>
      </trkpt>
      <trkpt lat="44.1323" lon="6.99428">
        <ele>1955.4000244141</ele>
        <time>2022-07-23T09:23:35.000Z</time>
      </trkpt>
      <trkpt lat="44.1323" lon="6.99428">
        <ele>1955.5999755859</ele>
        <time>2022-07-23T09:23:39.000Z</time>
      </trkpt>
      <trkpt lat="44.1323" lon="6.99428">
        <ele>1955.8000488281</ele>
        <time>2022-07-23T09:23:48.000Z</time>
      </trkpt>
      <trkpt lat="44.13231" lon="6.99431">
        <ele>1956.1999511719</ele>
        <time>2022-07-23T09:23:55.000Z</time>
      </trkpt>
      <trkpt lat="44.13231" lon="6.99432">
        <ele>1955.5999755859</ele>
        <time>2022-07-23T09:24:03.000Z</time>
      </trkpt>
      <trkpt lat="44.13226" lon="6.99439">
        <ele>1955.4000244141</ele>
        <time>2022-07-23T09:24:07.000Z</time>
      </trkpt>
      <trkpt lat="44.13221" lon="6.99452">
        <ele>1953.8000488281</ele>
        <time>2022-07-23T09:24:10.000Z</time>
      </trkpt>
      <trkpt lat="44.13219" lon="6.99463">
        <ele>1952.8000488281</ele>
        <time>2022-07-23T09:24:12.000Z</time>
      </trkpt>
      <trkpt lat="44.13218" lon="6.99474">
        <ele>1951.1999511719</ele>
        <time>2022-07-23T09:24:14.000Z</time>
      </trkpt>
      <trkpt lat="44.13215" lon="6.99484">
        <ele>1950.1999511719</ele>
        <time>2022-07-23T09:24:16.000Z</time>
      </trkpt>
      <trkpt lat="44.13213" lon="6.99489">
        <ele>1949.8000488281</ele>
        <time>2022-07-23T09:24:17.000Z</time>
      </trkpt>
      <trkpt lat="44.13205" lon="6.99509">
        <ele>1949.1999511719</ele>
        <time>2022-07-23T09:24:22.000Z</time>
      </trkpt>
      <trkpt lat="44.13195" lon="6.99526">
        <ele>1950.1999511719</ele>
        <time>2022-07-23T09:24:27.000Z</time>
      </trkpt>
      <trkpt lat="44.13185" lon="6.99547">
        <ele>1949.8000488281</ele>
        <time>2022-07-23T09:24:32.000Z</time>
      </trkpt>
      <trkpt lat="44.13176" lon="6.99564">
        <ele>1950.8000488281</ele>
        <time>2022-07-23T09:24:37.000Z</time>
      </trkpt>
      <trkpt lat="44.13174" lon="6.99569">
        <ele>1951</ele>
        <time>2022-07-23T09:24:38.000Z</time>
      </trkpt>
      <trkpt lat="44.1316" lon="6.99598">
        <ele>1949.8000488281</ele>
        <time>2022-07-23T09:24:43.000Z</time>
      </trkpt>
      <trkpt lat="44.13151" lon="6.99613">
        <ele>1948.5999755859</ele>
        <time>2022-07-23T09:24:46.000Z</time>
      </trkpt>
      <trkpt lat="44.13145" lon="6.99621">
        <ele>1948.4000244141</ele>
        <time>2022-07-23T09:24:48.000Z</time>
      </trkpt>
      <trkpt lat="44.13129" lon="6.99636">
        <ele>1948.1999511719</ele>
        <time>2022-07-23T09:24:53.000Z</time>
      </trkpt>
      <trkpt lat="44.13116" lon="6.99643">
        <ele>1950</ele>
        <time>2022-07-23T09:24:58.000Z</time>
      </trkpt>
      <trkpt lat="44.13105" lon="6.9965">
        <ele>1951</ele>
        <time>2022-07-23T09:25:02.000Z</time>
      </trkpt>
      <trkpt lat="44.13098" lon="6.99651">
        <ele>1951.5999755859</ele>
        <time>2022-07-23T09:25:04.000Z</time>
      </trkpt>
      <trkpt lat="44.13094" lon="6.99651">
        <ele>1952</ele>
        <time>2022-07-23T09:25:05.000Z</time>
      </trkpt>
      <trkpt lat="44.13085" lon="6.9965">
        <ele>1953.1999511719</ele>
        <time>2022-07-23T09:25:08.000Z</time>
      </trkpt>
      <trkpt lat="44.13082" lon="6.9965">
        <ele>1953.8000488281</ele>
        <time>2022-07-23T09:25:09.000Z</time>
      </trkpt>
      <trkpt lat="44.13077" lon="6.99653">
        <ele>1954.1999511719</ele>
        <time>2022-07-23T09:25:11.000Z</time>
      </trkpt>
      <trkpt lat="44.13068" lon="6.99655">
        <ele>1955.1999511719</ele>
        <time>2022-07-23T09:25:14.000Z</time>
      </trkpt>
      <trkpt lat="44.13065" lon="6.99658">
        <ele>1955.5999755859</ele>
        <time>2022-07-23T09:25:15.000Z</time>
      </trkpt>
      <trkpt lat="44.13058" lon="6.99665">
        <ele>1956.8000488281</ele>
        <time>2022-07-23T09:25:18.000Z</time>
      </trkpt>
      <trkpt lat="44.13052" lon="6.9967">
        <ele>1958.5999755859</ele>
        <time>2022-07-23T09:25:21.000Z</time>
      </trkpt>
      <trkpt lat="44.13046" lon="6.99674">
        <ele>1960</ele>
        <time>2022-07-23T09:25:24.000Z</time>
      </trkpt>
      <trkpt lat="44.13045" lon="6.99676">
        <ele>1960.4000244141</ele>
        <time>2022-07-23T09:25:25.000Z</time>
      </trkpt>
      <trkpt lat="44.13043" lon="6.99678">
        <ele>1961</ele>
        <time>2022-07-23T09:25:26.000Z</time>
      </trkpt>
      <trkpt lat="44.13039" lon="6.99684">
        <ele>1962.4000244141</ele>
        <time>2022-07-23T09:25:29.000Z</time>
      </trkpt>
      <trkpt lat="44.13037" lon="6.99688">
        <ele>1963.4000244141</ele>
        <time>2022-07-23T09:25:31.000Z</time>
      </trkpt>
      <trkpt lat="44.13034" lon="6.99692">
        <ele>1964.5999755859</ele>
        <time>2022-07-23T09:25:33.000Z</time>
      </trkpt>
      <trkpt lat="44.13027" lon="6.99698">
        <ele>1965.8000488281</ele>
        <time>2022-07-23T09:25:36.000Z</time>
      </trkpt>
      <trkpt lat="44.13021" lon="6.99702">
        <ele>1967</ele>
        <time>2022-07-23T09:25:40.000Z</time>
      </trkpt>
      <trkpt lat="44.13019" lon="6.99704">
        <ele>1967.1999511719</ele>
        <time>2022-07-23T09:25:41.000Z</time>
      </trkpt>
      <trkpt lat="44.13015" lon="6.99708">
        <ele>1968.1999511719</ele>
        <time>2022-07-23T09:25:43.000Z</time>
      </trkpt>
      <trkpt lat="44.13013" lon="6.99712">
        <ele>1969.4000244141</ele>
        <time>2022-07-23T09:25:45.000Z</time>
      </trkpt>
      <trkpt lat="44.13011" lon="6.99714">
        <ele>1970</ele>
        <time>2022-07-23T09:25:46.000Z</time>
      </trkpt>
      <trkpt lat="44.13009" lon="6.99715">
        <ele>1970.4000244141</ele>
        <time>2022-07-23T09:25:47.000Z</time>
      </trkpt>
      <trkpt lat="44.13005" lon="6.99719">
        <ele>1971.8000488281</ele>
        <time>2022-07-23T09:25:50.000Z</time>
      </trkpt>
      <trkpt lat="44.12999" lon="6.99722">
        <ele>1973.1999511719</ele>
        <time>2022-07-23T09:25:53.000Z</time>
      </trkpt>
      <trkpt lat="44.12992" lon="6.99726">
        <ele>1974.5999755859</ele>
        <time>2022-07-23T09:25:57.000Z</time>
      </trkpt>
      <trkpt lat="44.12991" lon="6.99727">
        <ele>1975.1999511719</ele>
        <time>2022-07-23T09:25:58.000Z</time>
      </trkpt>
      <trkpt lat="44.12989" lon="6.99728">
        <ele>1975.8000488281</ele>
        <time>2022-07-23T09:25:59.000Z</time>
      </trkpt>
      <trkpt lat="44.12985" lon="6.9973">
        <ele>1977</ele>
        <time>2022-07-23T09:26:01.000Z</time>
      </trkpt>
      <trkpt lat="44.12981" lon="6.99733">
        <ele>1978</ele>
        <time>2022-07-23T09:26:03.000Z</time>
      </trkpt>
      <trkpt lat="44.12979" lon="6.99735">
        <ele>1978.4000244141</ele>
        <time>2022-07-23T09:26:04.000Z</time>
      </trkpt>
      <trkpt lat="44.12974" lon="6.99738">
        <ele>1979.5999755859</ele>
        <time>2022-07-23T09:26:07.000Z</time>
      </trkpt>
      <trkpt lat="44.12971" lon="6.99741">
        <ele>1980.8000488281</ele>
        <time>2022-07-23T09:26:09.000Z</time>
      </trkpt>
      <trkpt lat="44.12965" lon="6.99746">
        <ele>1982</ele>
        <time>2022-07-23T09:26:12.000Z</time>
      </trkpt>
      <trkpt lat="44.1296" lon="6.99751">
        <ele>1983.1999511719</ele>
        <time>2022-07-23T09:26:15.000Z</time>
      </trkpt>
      <trkpt lat="44.12959" lon="6.99753">
        <ele>1983.5999755859</ele>
        <time>2022-07-23T09:26:16.000Z</time>
      </trkpt>
      <trkpt lat="44.12956" lon="6.99757">
        <ele>1984.5999755859</ele>
        <time>2022-07-23T09:26:18.000Z</time>
      </trkpt>
      <trkpt lat="44.12952" lon="6.99762">
        <ele>1986</ele>
        <time>2022-07-23T09:26:21.000Z</time>
      </trkpt>
      <trkpt lat="44.12949" lon="6.99767">
        <ele>1986.8000488281</ele>
        <time>2022-07-23T09:26:23.000Z</time>
      </trkpt>
      <trkpt lat="44.12948" lon="6.99769">
        <ele>1987.1999511719</ele>
        <time>2022-07-23T09:26:24.000Z</time>
      </trkpt>
      <trkpt lat="44.12945" lon="6.99775">
        <ele>1988.5999755859</ele>
        <time>2022-07-23T09:26:27.000Z</time>
      </trkpt>
      <trkpt lat="44.12943" lon="6.99779">
        <ele>1989.8000488281</ele>
        <time>2022-07-23T09:26:29.000Z</time>
      </trkpt>
      <trkpt lat="44.12942" lon="6.99781">
        <ele>1990</ele>
        <time>2022-07-23T09:26:30.000Z</time>
      </trkpt>
      <trkpt lat="44.1294" lon="6.99787">
        <ele>1990.8000488281</ele>
        <time>2022-07-23T09:26:32.000Z</time>
      </trkpt>
      <trkpt lat="44.12937" lon="6.998">
        <ele>1991.4000244141</ele>
        <time>2022-07-23T09:26:37.000Z</time>
      </trkpt>
      <trkpt lat="44.12929" lon="6.99822">
        <ele>1990.5999755859</ele>
        <time>2022-07-23T09:26:42.000Z</time>
      </trkpt>
      <trkpt lat="44.12924" lon="6.99831">
        <ele>1989.1999511719</ele>
        <time>2022-07-23T09:26:44.000Z</time>
      </trkpt>
      <trkpt lat="44.1292" lon="6.99835">
        <ele>1988</ele>
        <time>2022-07-23T09:26:46.000Z</time>
      </trkpt>
      <trkpt lat="44.12919" lon="6.99838">
        <ele>1987.5999755859</ele>
        <time>2022-07-23T09:26:47.000Z</time>
      </trkpt>
      <trkpt lat="44.12919" lon="6.99846">
        <ele>1988</ele>
        <time>2022-07-23T09:26:50.000Z</time>
      </trkpt>
      <trkpt lat="44.12918" lon="6.99852">
        <ele>1989</ele>
        <time>2022-07-23T09:26:52.000Z</time>
      </trkpt>
      <trkpt lat="44.12917" lon="6.9986">
        <ele>1990.4000244141</ele>
        <time>2022-07-23T09:26:55.000Z</time>
      </trkpt>
      <trkpt lat="44.12916" lon="6.99876">
        <ele>1991</ele>
        <time>2022-07-23T09:27:00.000Z</time>
      </trkpt>
      <trkpt lat="44.12909" lon="6.99894">
        <ele>1990.1999511719</ele>
        <time>2022-07-23T09:27:05.000Z</time>
      </trkpt>
      <trkpt lat="44.12904" lon="6.99906">
        <ele>1988.5999755859</ele>
        <time>2022-07-23T09:27:08.000Z</time>
      </trkpt>
      <trkpt lat="44.12903" lon="6.99914">
        <ele>1987.5999755859</ele>
        <time>2022-07-23T09:27:10.000Z</time>
      </trkpt>
      <trkpt lat="44.12902" lon="6.99918">
        <ele>1987</ele>
        <time>2022-07-23T09:27:11.000Z</time>
      </trkpt>
      <trkpt lat="44.12902" lon="6.99922">
        <ele>1985.5999755859</ele>
        <time>2022-07-23T09:27:12.000Z</time>
      </trkpt>
      <trkpt lat="44.12902" lon="6.9993">
        <ele>1984.5999755859</ele>
        <time>2022-07-23T09:27:14.000Z</time>
      </trkpt>
      <trkpt lat="44.12902" lon="6.99934">
        <ele>1983.8000488281</ele>
        <time>2022-07-23T09:27:15.000Z</time>
      </trkpt>
      <trkpt lat="44.12903" lon="6.99939">
        <ele>1983</ele>
        <time>2022-07-23T09:27:16.000Z</time>
      </trkpt>
      <trkpt lat="44.12904" lon="6.9995">
        <ele>1983</ele>
        <time>2022-07-23T09:27:18.000Z</time>
      </trkpt>
      <trkpt lat="44.12907" lon="6.99961">
        <ele>1982.1999511719</ele>
        <time>2022-07-23T09:27:20.000Z</time>
      </trkpt>
      <trkpt lat="44.12909" lon="6.99966">
        <ele>1981.5999755859</ele>
        <time>2022-07-23T09:27:21.000Z</time>
      </trkpt>
      <trkpt lat="44.12913" lon="6.99977">
        <ele>1980.4000244141</ele>
        <time>2022-07-23T09:27:23.000Z</time>
      </trkpt>
      <trkpt lat="44.12916" lon="6.99989">
        <ele>1979</ele>
        <time>2022-07-23T09:27:25.000Z</time>
      </trkpt>
      <trkpt lat="44.12916" lon="6.99995">
        <ele>1978.8000488281</ele>
        <time>2022-07-23T09:27:26.000Z</time>
      </trkpt>
      <trkpt lat="44.12918" lon="7.00004">
        <ele>1977.8000488281</ele>
        <time>2022-07-23T09:27:28.000Z</time>
      </trkpt>
      <trkpt lat="44.1292" lon="7.00008">
        <ele>1977</ele>
        <time>2022-07-23T09:27:29.000Z</time>
      </trkpt>
      <trkpt lat="44.12921" lon="7.00013">
        <ele>1975.8000488281</ele>
        <time>2022-07-23T09:27:30.000Z</time>
      </trkpt>
      <trkpt lat="44.12921" lon="7.00019">
        <ele>1974.5999755859</ele>
        <time>2022-07-23T09:27:31.000Z</time>
      </trkpt>
      <trkpt lat="44.12922" lon="7.00026">
        <ele>1973.5999755859</ele>
        <time>2022-07-23T09:27:32.000Z</time>
      </trkpt>
      <trkpt lat="44.12923" lon="7.00033">
        <ele>1972.5999755859</ele>
        <time>2022-07-23T09:27:33.000Z</time>
      </trkpt>
      <trkpt lat="44.12924" lon="7.0004">
        <ele>1972</ele>
        <time>2022-07-23T09:27:34.000Z</time>
      </trkpt>
      <trkpt lat="44.12925" lon="7.00047">
        <ele>1971</ele>
        <time>2022-07-23T09:27:35.000Z</time>
      </trkpt>
      <trkpt lat="44.12926" lon="7.00053">
        <ele>1969.8000488281</ele>
        <time>2022-07-23T09:27:36.000Z</time>
      </trkpt>
      <trkpt lat="44.12927" lon="7.00067">
        <ele>1968.4000244141</ele>
        <time>2022-07-23T09:27:38.000Z</time>
      </trkpt>
      <trkpt lat="44.12925" lon="7.00079">
        <ele>1967.4000244141</ele>
        <time>2022-07-23T09:27:40.000Z</time>
      </trkpt>
      <trkpt lat="44.12922" lon="7.00091">
        <ele>1966.5999755859</ele>
        <time>2022-07-23T09:27:42.000Z</time>
      </trkpt>
      <trkpt lat="44.12922" lon="7.001">
        <ele>1965.8000488281</ele>
        <time>2022-07-23T09:27:44.000Z</time>
      </trkpt>
      <trkpt lat="44.12923" lon="7.00105">
        <ele>1965</ele>
        <time>2022-07-23T09:27:45.000Z</time>
      </trkpt>
      <trkpt lat="44.12923" lon="7.00111">
        <ele>1964.1999511719</ele>
        <time>2022-07-23T09:27:46.000Z</time>
      </trkpt>
      <trkpt lat="44.12922" lon="7.00118">
        <ele>1963</ele>
        <time>2022-07-23T09:27:47.000Z</time>
      </trkpt>
      <trkpt lat="44.12921" lon="7.00123">
        <ele>1961.8000488281</ele>
        <time>2022-07-23T09:27:48.000Z</time>
      </trkpt>
      <trkpt lat="44.12919" lon="7.00128">
        <ele>1960.5999755859</ele>
        <time>2022-07-23T09:27:49.000Z</time>
      </trkpt>
      <trkpt lat="44.12913" lon="7.00138">
        <ele>1959.5999755859</ele>
        <time>2022-07-23T09:27:51.000Z</time>
      </trkpt>
      <trkpt lat="44.12909" lon="7.00149">
        <ele>1958.5999755859</ele>
        <time>2022-07-23T09:27:53.000Z</time>
      </trkpt>
      <trkpt lat="44.12907" lon="7.00152">
        <ele>1958.4000244141</ele>
        <time>2022-07-23T09:27:54.000Z</time>
      </trkpt>
      <trkpt lat="44.12902" lon="7.00168">
        <ele>1959.4000244141</ele>
        <time>2022-07-23T09:28:00.000Z</time>
      </trkpt>
      <trkpt lat="44.12899" lon="7.00174">
        <ele>1960.8000488281</ele>
        <time>2022-07-23T09:28:02.000Z</time>
      </trkpt>
      <trkpt lat="44.12899" lon="7.00178">
        <ele>1962</ele>
        <time>2022-07-23T09:28:04.000Z</time>
      </trkpt>
      <trkpt lat="44.12899" lon="7.00181">
        <ele>1962.5999755859</ele>
        <time>2022-07-23T09:28:05.000Z</time>
      </trkpt>
      <trkpt lat="44.12898" lon="7.00185">
        <ele>1963.1999511719</ele>
        <time>2022-07-23T09:28:06.000Z</time>
      </trkpt>
      <trkpt lat="44.12898" lon="7.00191">
        <ele>1964.4000244141</ele>
        <time>2022-07-23T09:28:08.000Z</time>
      </trkpt>
      <trkpt lat="44.12896" lon="7.002">
        <ele>1965.8000488281</ele>
        <time>2022-07-23T09:28:11.000Z</time>
      </trkpt>
      <trkpt lat="44.12895" lon="7.00203">
        <ele>1966.4000244141</ele>
        <time>2022-07-23T09:28:12.000Z</time>
      </trkpt>
      <trkpt lat="44.12895" lon="7.00205">
        <ele>1967</ele>
        <time>2022-07-23T09:28:13.000Z</time>
      </trkpt>
      <trkpt lat="44.12894" lon="7.0021">
        <ele>1968.1999511719</ele>
        <time>2022-07-23T09:28:15.000Z</time>
      </trkpt>
      <trkpt lat="44.12895" lon="7.00216">
        <ele>1969.5999755859</ele>
        <time>2022-07-23T09:28:17.000Z</time>
      </trkpt>
      <trkpt lat="44.12895" lon="7.00219">
        <ele>1970</ele>
        <time>2022-07-23T09:28:18.000Z</time>
      </trkpt>
      <trkpt lat="44.12894" lon="7.00221">
        <ele>1970.8000488281</ele>
        <time>2022-07-23T09:28:19.000Z</time>
      </trkpt>
      <trkpt lat="44.12894" lon="7.00225">
        <ele>1971.5999755859</ele>
        <time>2022-07-23T09:28:21.000Z</time>
      </trkpt>
      <trkpt lat="44.12894" lon="7.00226">
        <ele>1972.1999511719</ele>
        <time>2022-07-23T09:28:22.000Z</time>
      </trkpt>
      <trkpt lat="44.12894" lon="7.00226">
        <ele>1973.5999755859</ele>
        <time>2022-07-23T09:28:25.000Z</time>
      </trkpt>
      <trkpt lat="44.12894" lon="7.00228">
        <ele>1974</ele>
        <time>2022-07-23T09:28:28.000Z</time>
      </trkpt>
      <trkpt lat="44.12894" lon="7.00232">
        <ele>1974.8000488281</ele>
        <time>2022-07-23T09:28:33.000Z</time>
      </trkpt>
      <trkpt lat="44.12894" lon="7.00234">
        <ele>1975</ele>
        <time>2022-07-23T09:28:35.000Z</time>
      </trkpt>
      <trkpt lat="44.12892" lon="7.00236">
        <ele>1975.8000488281</ele>
        <time>2022-07-23T09:28:38.000Z</time>
      </trkpt>
      <trkpt lat="44.12891" lon="7.00239">
        <ele>1976.8000488281</ele>
        <time>2022-07-23T09:28:42.000Z</time>
      </trkpt>
      <trkpt lat="44.1289" lon="7.00241">
        <ele>1977.1999511719</ele>
        <time>2022-07-23T09:28:44.000Z</time>
      </trkpt>
      <trkpt lat="44.12889" lon="7.00241">
        <ele>1978</ele>
        <time>2022-07-23T09:28:48.000Z</time>
      </trkpt>
      <trkpt lat="44.1289" lon="7.00241">
        <ele>1978.1999511719</ele>
        <time>2022-07-23T09:28:51.000Z</time>
      </trkpt>
      <trkpt lat="44.12889" lon="7.00239">
        <ele>1978.1999511719</ele>
        <time>2022-07-23T09:28:54.000Z</time>
      </trkpt>
      <trkpt lat="44.12887" lon="7.00236">
        <ele>1978.1999511719</ele>
        <time>2022-07-23T09:28:56.000Z</time>
      </trkpt>
      <trkpt lat="44.12882" lon="7.00225">
        <ele>1979.1999511719</ele>
        <time>2022-07-23T09:29:01.000Z</time>
      </trkpt>
      <trkpt lat="44.12881" lon="7.00221">
        <ele>1980</ele>
        <time>2022-07-23T09:29:03.000Z</time>
      </trkpt>
      <trkpt lat="44.12879" lon="7.0022">
        <ele>1980.4000244141</ele>
        <time>2022-07-23T09:29:04.000Z</time>
      </trkpt>
      <trkpt lat="44.12875" lon="7.00219">
        <ele>1981.8000488281</ele>
        <time>2022-07-23T09:29:07.000Z</time>
      </trkpt>
      <trkpt lat="44.12872" lon="7.00221">
        <ele>1983</ele>
        <time>2022-07-23T09:29:10.000Z</time>
      </trkpt>
      <trkpt lat="44.12871" lon="7.00223">
        <ele>1983.4000244141</ele>
        <time>2022-07-23T09:29:12.000Z</time>
      </trkpt>
      <trkpt lat="44.1287" lon="7.00225">
        <ele>1983.5999755859</ele>
        <time>2022-07-23T09:29:13.000Z</time>
      </trkpt>
      <trkpt lat="44.12868" lon="7.00229">
        <ele>1984</ele>
        <time>2022-07-23T09:29:15.000Z</time>
      </trkpt>
      <trkpt lat="44.12865" lon="7.00235">
        <ele>1984</ele>
        <time>2022-07-23T09:29:18.000Z</time>
      </trkpt>
      <trkpt lat="44.12856" lon="7.00244">
        <ele>1983.4000244141</ele>
        <time>2022-07-23T09:29:22.000Z</time>
      </trkpt>
      <trkpt lat="44.12854" lon="7.00247">
        <ele>1983</ele>
        <time>2022-07-23T09:29:23.000Z</time>
      </trkpt>
      <trkpt lat="44.12845" lon="7.00255">
        <ele>1981.5999755859</ele>
        <time>2022-07-23T09:29:26.000Z</time>
      </trkpt>
      <trkpt lat="44.12835" lon="7.00261">
        <ele>1980.4000244141</ele>
        <time>2022-07-23T09:29:29.000Z</time>
      </trkpt>
      <trkpt lat="44.12828" lon="7.00263">
        <ele>1979.4000244141</ele>
        <time>2022-07-23T09:29:31.000Z</time>
      </trkpt>
      <trkpt lat="44.12822" lon="7.00264">
        <ele>1978.1999511719</ele>
        <time>2022-07-23T09:29:33.000Z</time>
      </trkpt>
      <trkpt lat="44.12815" lon="7.00266">
        <ele>1976.5999755859</ele>
        <time>2022-07-23T09:29:35.000Z</time>
      </trkpt>
      <trkpt lat="44.12811" lon="7.00268">
        <ele>1975.5999755859</ele>
        <time>2022-07-23T09:29:36.000Z</time>
      </trkpt>
      <trkpt lat="44.12807" lon="7.0027">
        <ele>1974.5999755859</ele>
        <time>2022-07-23T09:29:37.000Z</time>
      </trkpt>
      <trkpt lat="44.12799" lon="7.00274">
        <ele>1972.8000488281</ele>
        <time>2022-07-23T09:29:39.000Z</time>
      </trkpt>
      <trkpt lat="44.12791" lon="7.0028">
        <ele>1971.1999511719</ele>
        <time>2022-07-23T09:29:41.000Z</time>
      </trkpt>
      <trkpt lat="44.12783" lon="7.00286">
        <ele>1969.1999511719</ele>
        <time>2022-07-23T09:29:43.000Z</time>
      </trkpt>
      <trkpt lat="44.12778" lon="7.00291">
        <ele>1968</ele>
        <time>2022-07-23T09:29:45.000Z</time>
      </trkpt>
      <trkpt lat="44.12777" lon="7.00292">
        <ele>1967.4000244141</ele>
        <time>2022-07-23T09:29:46.000Z</time>
      </trkpt>
      <trkpt lat="44.12777" lon="7.00292">
        <ele>1966.5999755859</ele>
        <time>2022-07-23T09:29:47.000Z</time>
      </trkpt>
      <trkpt lat="44.12776" lon="7.00293">
        <ele>1965.4000244141</ele>
        <time>2022-07-23T09:29:50.000Z</time>
      </trkpt>
      <trkpt lat="44.12776" lon="7.00293">
        <ele>1965.1999511719</ele>
        <time>2022-07-23T09:29:52.000Z</time>
      </trkpt>
      <trkpt lat="44.12776" lon="7.00294">
        <ele>1965.1999511719</ele>
        <time>2022-07-23T09:30:20.000Z</time>
      </trkpt>
      <trkpt lat="44.12775" lon="7.00295">
        <ele>1965.4000244141</ele>
        <time>2022-07-23T09:30:41.000Z</time>
      </trkpt>
      <trkpt lat="44.12775" lon="7.00297">
        <ele>1965.4000244141</ele>
        <time>2022-07-23T09:30:47.000Z</time>
      </trkpt>
      <trkpt lat="44.12775" lon="7.00298">
        <ele>1965</ele>
        <time>2022-07-23T09:31:04.000Z</time>
      </trkpt>
      <trkpt lat="44.12775" lon="7.003">
        <ele>1965</ele>
        <time>2022-07-23T09:31:21.000Z</time>
      </trkpt>
      <trkpt lat="44.12776" lon="7.00302">
        <ele>1964.4000244141</ele>
        <time>2022-07-23T09:31:25.000Z</time>
      </trkpt>
      <trkpt lat="44.12776" lon="7.00302">
        <ele>1964.1999511719</ele>
        <time>2022-07-23T09:31:26.000Z</time>
      </trkpt>
      <trkpt lat="44.12776" lon="7.00302">
        <ele>1964.1999511719</ele>
        <time>2022-07-23T09:31:34.000Z</time>
      </trkpt>
      <trkpt lat="44.12776" lon="7.00304">
        <ele>1964.1999511719</ele>
        <time>2022-07-23T09:31:35.000Z</time>
      </trkpt>
      <trkpt lat="44.12779" lon="7.00314">
        <ele>1964</ele>
        <time>2022-07-23T09:31:38.000Z</time>
      </trkpt>
      <trkpt lat="44.12782" lon="7.00324">
        <ele>1963</ele>
        <time>2022-07-23T09:31:40.000Z</time>
      </trkpt>
      <trkpt lat="44.12784" lon="7.00335">
        <ele>1961.5999755859</ele>
        <time>2022-07-23T09:31:42.000Z</time>
      </trkpt>
      <trkpt lat="44.12785" lon="7.00341">
        <ele>1960.8000488281</ele>
        <time>2022-07-23T09:31:43.000Z</time>
      </trkpt>
      <trkpt lat="44.12787" lon="7.00348">
        <ele>1960.4000244141</ele>
        <time>2022-07-23T09:31:44.000Z</time>
      </trkpt>
      <trkpt lat="44.12791" lon="7.00363">
        <ele>1958.8000488281</ele>
        <time>2022-07-23T09:31:46.000Z</time>
      </trkpt>
      <trkpt lat="44.12793" lon="7.00371">
        <ele>1958.1999511719</ele>
        <time>2022-07-23T09:31:47.000Z</time>
      </trkpt>
      <trkpt lat="44.12795" lon="7.00379">
        <ele>1957.4000244141</ele>
        <time>2022-07-23T09:31:48.000Z</time>
      </trkpt>
      <trkpt lat="44.12797" lon="7.00387">
        <ele>1956.1999511719</ele>
        <time>2022-07-23T09:31:49.000Z</time>
      </trkpt>
      <trkpt lat="44.12798" lon="7.00394">
        <ele>1955</ele>
        <time>2022-07-23T09:31:50.000Z</time>
      </trkpt>
      <trkpt lat="44.12801" lon="7.00417">
        <ele>1953.8000488281</ele>
        <time>2022-07-23T09:31:53.000Z</time>
      </trkpt>
      <trkpt lat="44.12803" lon="7.00424">
        <ele>1953.1999511719</ele>
        <time>2022-07-23T09:31:54.000Z</time>
      </trkpt>
      <trkpt lat="44.12804" lon="7.00431">
        <ele>1952.5999755859</ele>
        <time>2022-07-23T09:31:55.000Z</time>
      </trkpt>
      <trkpt lat="44.12806" lon="7.00445">
        <ele>1950.5999755859</ele>
        <time>2022-07-23T09:31:57.000Z</time>
      </trkpt>
      <trkpt lat="44.12804" lon="7.00459">
        <ele>1948.8000488281</ele>
        <time>2022-07-23T09:31:59.000Z</time>
      </trkpt>
      <trkpt lat="44.12804" lon="7.00466">
        <ele>1948</ele>
        <time>2022-07-23T09:32:00.000Z</time>
      </trkpt>
      <trkpt lat="44.12804" lon="7.00473">
        <ele>1947.1999511719</ele>
        <time>2022-07-23T09:32:01.000Z</time>
      </trkpt>
      <trkpt lat="44.12803" lon="7.00492">
        <ele>1945.8000488281</ele>
        <time>2022-07-23T09:32:03.000Z</time>
      </trkpt>
      <trkpt lat="44.12796" lon="7.00509">
        <ele>1943.5999755859</ele>
        <time>2022-07-23T09:32:05.000Z</time>
      </trkpt>
      <trkpt lat="44.1279" lon="7.00514">
        <ele>1942.1999511719</ele>
        <time>2022-07-23T09:32:06.000Z</time>
      </trkpt>
      <trkpt lat="44.12784" lon="7.00518">
        <ele>1940.8000488281</ele>
        <time>2022-07-23T09:32:07.000Z</time>
      </trkpt>
      <trkpt lat="44.12773" lon="7.00526">
        <ele>1939.1999511719</ele>
        <time>2022-07-23T09:32:09.000Z</time>
      </trkpt>
      <trkpt lat="44.12767" lon="7.00527">
        <ele>1938.5999755859</ele>
        <time>2022-07-23T09:32:10.000Z</time>
      </trkpt>
      <trkpt lat="44.1276" lon="7.00527">
        <ele>1938.1999511719</ele>
        <time>2022-07-23T09:32:11.000Z</time>
      </trkpt>
      <trkpt lat="44.12747" lon="7.00523">
        <ele>1937.5999755859</ele>
        <time>2022-07-23T09:32:13.000Z</time>
      </trkpt>
      <trkpt lat="44.12736" lon="7.00522">
        <ele>1936.1999511719</ele>
        <time>2022-07-23T09:32:15.000Z</time>
      </trkpt>
      <trkpt lat="44.1273" lon="7.00523">
        <ele>1934.8000488281</ele>
        <time>2022-07-23T09:32:16.000Z</time>
      </trkpt>
      <trkpt lat="44.12724" lon="7.00525">
        <ele>1933.5999755859</ele>
        <time>2022-07-23T09:32:17.000Z</time>
      </trkpt>
      <trkpt lat="44.12713" lon="7.00527">
        <ele>1932.1999511719</ele>
        <time>2022-07-23T09:32:19.000Z</time>
      </trkpt>
      <trkpt lat="44.12708" lon="7.00527">
        <ele>1931.5999755859</ele>
        <time>2022-07-23T09:32:20.000Z</time>
      </trkpt>
      <trkpt lat="44.12695" lon="7.00528">
        <ele>1931.4000244141</ele>
        <time>2022-07-23T09:32:23.000Z</time>
      </trkpt>
      <trkpt lat="44.12687" lon="7.00528">
        <ele>1931.1999511719</ele>
        <time>2022-07-23T09:32:25.000Z</time>
      </trkpt>
      <trkpt lat="44.12683" lon="7.00529">
        <ele>1931.4000244141</ele>
        <time>2022-07-23T09:32:26.000Z</time>
      </trkpt>
      <trkpt lat="44.1266" lon="7.00532">
        <ele>1931</ele>
        <time>2022-07-23T09:32:32.000Z</time>
      </trkpt>
      <trkpt lat="44.12634" lon="7.00528">
        <ele>1930</ele>
        <time>2022-07-23T09:32:38.000Z</time>
      </trkpt>
      <trkpt lat="44.12624" lon="7.00526">
        <ele>1929.1999511719</ele>
        <time>2022-07-23T09:32:40.000Z</time>
      </trkpt>
      <trkpt lat="44.12619" lon="7.00527">
        <ele>1928.5999755859</ele>
        <time>2022-07-23T09:32:41.000Z</time>
      </trkpt>
      <trkpt lat="44.12614" lon="7.00528">
        <ele>1928.1999511719</ele>
        <time>2022-07-23T09:32:42.000Z</time>
      </trkpt>
      <trkpt lat="44.12604" lon="7.00533">
        <ele>1927.1999511719</ele>
        <time>2022-07-23T09:32:44.000Z</time>
      </trkpt>
      <trkpt lat="44.12595" lon="7.0054">
        <ele>1926.5999755859</ele>
        <time>2022-07-23T09:32:46.000Z</time>
      </trkpt>
      <trkpt lat="44.1259" lon="7.00553">
        <ele>1925.8000488281</ele>
        <time>2022-07-23T09:32:48.000Z</time>
      </trkpt>
      <trkpt lat="44.12587" lon="7.0056">
        <ele>1925.4000244141</ele>
        <time>2022-07-23T09:32:49.000Z</time>
      </trkpt>
      <trkpt lat="44.12586" lon="7.00566">
        <ele>1924.5999755859</ele>
        <time>2022-07-23T09:32:50.000Z</time>
      </trkpt>
      <trkpt lat="44.12581" lon="7.00577">
        <ele>1923</ele>
        <time>2022-07-23T09:32:52.000Z</time>
      </trkpt>
      <trkpt lat="44.12576" lon="7.0059">
        <ele>1921.1999511719</ele>
        <time>2022-07-23T09:32:54.000Z</time>
      </trkpt>
      <trkpt lat="44.12574" lon="7.00596">
        <ele>1920.4000244141</ele>
        <time>2022-07-23T09:32:55.000Z</time>
      </trkpt>
      <trkpt lat="44.12572" lon="7.00604">
        <ele>1919</ele>
        <time>2022-07-23T09:32:56.000Z</time>
      </trkpt>
      <trkpt lat="44.12569" lon="7.00606">
        <ele>1918.1999511719</ele>
        <time>2022-07-23T09:32:57.000Z</time>
      </trkpt>
      <trkpt lat="44.12566" lon="7.00603">
        <ele>1917</ele>
        <time>2022-07-23T09:32:58.000Z</time>
      </trkpt>
      <trkpt lat="44.12561" lon="7.00595">
        <ele>1915.1999511719</ele>
        <time>2022-07-23T09:33:00.000Z</time>
      </trkpt>
      <trkpt lat="44.12549" lon="7.00584">
        <ele>1915</ele>
        <time>2022-07-23T09:33:04.000Z</time>
      </trkpt>
      <trkpt lat="44.12529" lon="7.00568">
        <ele>1915.1999511719</ele>
        <time>2022-07-23T09:33:10.000Z</time>
      </trkpt>
      <trkpt lat="44.12518" lon="7.0056">
        <ele>1916</ele>
        <time>2022-07-23T09:33:14.000Z</time>
      </trkpt>
      <trkpt lat="44.12515" lon="7.00558">
        <ele>1916.5999755859</ele>
        <time>2022-07-23T09:33:15.000Z</time>
      </trkpt>
      <trkpt lat="44.1251" lon="7.00554">
        <ele>1917.5999755859</ele>
        <time>2022-07-23T09:33:17.000Z</time>
      </trkpt>
      <trkpt lat="44.12502" lon="7.00545">
        <ele>1918.5999755859</ele>
        <time>2022-07-23T09:33:20.000Z</time>
      </trkpt>
      <trkpt lat="44.12496" lon="7.00539">
        <ele>1918.8000488281</ele>
        <time>2022-07-23T09:33:22.000Z</time>
      </trkpt>
      <trkpt lat="44.12486" lon="7.00528">
        <ele>1918.8000488281</ele>
        <time>2022-07-23T09:33:26.000Z</time>
      </trkpt>
      <trkpt lat="44.12475" lon="7.00513">
        <ele>1919.4000244141</ele>
        <time>2022-07-23T09:33:32.000Z</time>
      </trkpt>
      <trkpt lat="44.12466" lon="7.00504">
        <ele>1919.4000244141</ele>
        <time>2022-07-23T09:33:36.000Z</time>
      </trkpt>
      <trkpt lat="44.12462" lon="7.00501">
        <ele>1920.1999511719</ele>
        <time>2022-07-23T09:33:38.000Z</time>
      </trkpt>
      <trkpt lat="44.12455" lon="7.00494">
        <ele>1920.4000244141</ele>
        <time>2022-07-23T09:33:42.000Z</time>
      </trkpt>
      <trkpt lat="44.12445" lon="7.00486">
        <ele>1921.1999511719</ele>
        <time>2022-07-23T09:33:46.000Z</time>
      </trkpt>
      <trkpt lat="44.1244" lon="7.00483">
        <ele>1921.8000488281</ele>
        <time>2022-07-23T09:33:48.000Z</time>
      </trkpt>
      <trkpt lat="44.12425" lon="7.00476">
        <ele>1922.1999511719</ele>
        <time>2022-07-23T09:33:54.000Z</time>
      </trkpt>
      <trkpt lat="44.12423" lon="7.00475">
        <ele>1922.4000244141</ele>
        <time>2022-07-23T09:33:55.000Z</time>
      </trkpt>
      <trkpt lat="44.12406" lon="7.00467">
        <ele>1922.5999755859</ele>
        <time>2022-07-23T09:34:01.000Z</time>
      </trkpt>
      <trkpt lat="44.12389" lon="7.00457">
        <ele>1922.5999755859</ele>
        <time>2022-07-23T09:34:07.000Z</time>
      </trkpt>
      <trkpt lat="44.1237" lon="7.00446">
        <ele>1923.5999755859</ele>
        <time>2022-07-23T09:34:14.000Z</time>
      </trkpt>
      <trkpt lat="44.12364" lon="7.00443">
        <ele>1923.8000488281</ele>
        <time>2022-07-23T09:34:16.000Z</time>
      </trkpt>
      <trkpt lat="44.12347" lon="7.00436">
        <ele>1924.1999511719</ele>
        <time>2022-07-23T09:34:22.000Z</time>
      </trkpt>
      <trkpt lat="44.12332" lon="7.00433">
        <ele>1924.5999755859</ele>
        <time>2022-07-23T09:34:27.000Z</time>
      </trkpt>
      <trkpt lat="44.12329" lon="7.00433">
        <ele>1924.8000488281</ele>
        <time>2022-07-23T09:34:28.000Z</time>
      </trkpt>
      <trkpt lat="44.12314" lon="7.00434">
        <ele>1925.8000488281</ele>
        <time>2022-07-23T09:34:33.000Z</time>
      </trkpt>
      <trkpt lat="44.12311" lon="7.00434">
        <ele>1926</ele>
        <time>2022-07-23T09:34:34.000Z</time>
      </trkpt>
      <trkpt lat="44.12284" lon="7.00443">
        <ele>1926</ele>
        <time>2022-07-23T09:34:42.000Z</time>
      </trkpt>
      <trkpt lat="44.12273" lon="7.00448">
        <ele>1926.4000244141</ele>
        <time>2022-07-23T09:34:45.000Z</time>
      </trkpt>
      <trkpt lat="44.12265" lon="7.00454">
        <ele>1925.8000488281</ele>
        <time>2022-07-23T09:34:47.000Z</time>
      </trkpt>
      <trkpt lat="44.12236" lon="7.00479">
        <ele>1925.5999755859</ele>
        <time>2022-07-23T09:34:55.000Z</time>
      </trkpt>
      <trkpt lat="44.1222" lon="7.00491">
        <ele>1924.5999755859</ele>
        <time>2022-07-23T09:34:59.000Z</time>
      </trkpt>
      <trkpt lat="44.12217" lon="7.00493">
        <ele>1924.5999755859</ele>
        <time>2022-07-23T09:35:00.000Z</time>
      </trkpt>
      <trkpt lat="44.12197" lon="7.00503">
        <ele>1923.8000488281</ele>
        <time>2022-07-23T09:35:06.000Z</time>
      </trkpt>
      <trkpt lat="44.12174" lon="7.00515">
        <ele>1924.1999511719</ele>
        <time>2022-07-23T09:35:13.000Z</time>
      </trkpt>
      <trkpt lat="44.12151" lon="7.00527">
        <ele>1924.1999511719</ele>
        <time>2022-07-23T09:35:20.000Z</time>
      </trkpt>
      <trkpt lat="44.12134" lon="7.00532">
        <ele>1924.4000244141</ele>
        <time>2022-07-23T09:35:25.000Z</time>
      </trkpt>
      <trkpt lat="44.12116" lon="7.00538">
        <ele>1925.4000244141</ele>
        <time>2022-07-23T09:35:31.000Z</time>
      </trkpt>
      <trkpt lat="44.1211" lon="7.0054">
        <ele>1925.5999755859</ele>
        <time>2022-07-23T09:35:33.000Z</time>
      </trkpt>
      <trkpt lat="44.12101" lon="7.00546">
        <ele>1926.5999755859</ele>
        <time>2022-07-23T09:35:36.000Z</time>
      </trkpt>
      <trkpt lat="44.12081" lon="7.00552">
        <ele>1927.5999755859</ele>
        <time>2022-07-23T09:35:42.000Z</time>
      </trkpt>
      <trkpt lat="44.12078" lon="7.00553">
        <ele>1927.5999755859</ele>
        <time>2022-07-23T09:35:43.000Z</time>
      </trkpt>
      <trkpt lat="44.12061" lon="7.00563">
        <ele>1927.5999755859</ele>
        <time>2022-07-23T09:35:48.000Z</time>
      </trkpt>
      <trkpt lat="44.12041" lon="7.00576">
        <ele>1928.5999755859</ele>
        <time>2022-07-23T09:35:54.000Z</time>
      </trkpt>
      <trkpt lat="44.12039" lon="7.00578">
        <ele>1928.8000488281</ele>
        <time>2022-07-23T09:35:55.000Z</time>
      </trkpt>
      <trkpt lat="44.1203" lon="7.00587">
        <ele>1929.8000488281</ele>
        <time>2022-07-23T09:35:59.000Z</time>
      </trkpt>
      <trkpt lat="44.12028" lon="7.00588">
        <ele>1930.4000244141</ele>
        <time>2022-07-23T09:36:00.000Z</time>
      </trkpt>
      <trkpt lat="44.12026" lon="7.0059">
        <ele>1930.8000488281</ele>
        <time>2022-07-23T09:36:01.000Z</time>
      </trkpt>
      <trkpt lat="44.1202" lon="7.00595">
        <ele>1932</ele>
        <time>2022-07-23T09:36:04.000Z</time>
      </trkpt>
      <trkpt lat="44.12015" lon="7.00598">
        <ele>1932.1999511719</ele>
        <time>2022-07-23T09:36:06.000Z</time>
      </trkpt>
      <trkpt lat="44.12003" lon="7.00608">
        <ele>1933.1999511719</ele>
        <time>2022-07-23T09:36:12.000Z</time>
      </trkpt>
      <trkpt lat="44.12" lon="7.00611">
        <ele>1934.1999511719</ele>
        <time>2022-07-23T09:36:16.000Z</time>
      </trkpt>
      <trkpt lat="44.12" lon="7.00611">
        <ele>1934.4000244141</ele>
        <time>2022-07-23T09:36:17.000Z</time>
      </trkpt>
      <trkpt lat="44.11998" lon="7.00612">
        <ele>1934.5999755859</ele>
        <time>2022-07-23T09:36:22.000Z</time>
      </trkpt>
      <trkpt lat="44.11997" lon="7.00612">
        <ele>1935</ele>
        <time>2022-07-23T09:36:24.000Z</time>
      </trkpt>
      <trkpt lat="44.11993" lon="7.00614">
        <ele>1934.8000488281</ele>
        <time>2022-07-23T09:36:26.000Z</time>
      </trkpt>
      <trkpt lat="44.1199" lon="7.00617">
        <ele>1935</ele>
        <time>2022-07-23T09:36:29.000Z</time>
      </trkpt>
      <trkpt lat="44.11988" lon="7.00618">
        <ele>1935.1999511719</ele>
        <time>2022-07-23T09:36:30.000Z</time>
      </trkpt>
      <trkpt lat="44.11986" lon="7.0062">
        <ele>1935.4000244141</ele>
        <time>2022-07-23T09:36:31.000Z</time>
      </trkpt>
      <trkpt lat="44.11978" lon="7.00627">
        <ele>1936.4000244141</ele>
        <time>2022-07-23T09:36:35.000Z</time>
      </trkpt>
      <trkpt lat="44.11968" lon="7.00639">
        <ele>1937.5999755859</ele>
        <time>2022-07-23T09:36:41.000Z</time>
      </trkpt>
      <trkpt lat="44.11967" lon="7.0064">
        <ele>1938</ele>
        <time>2022-07-23T09:36:42.000Z</time>
      </trkpt>
      <trkpt lat="44.11966" lon="7.00644">
        <ele>1938.5999755859</ele>
        <time>2022-07-23T09:36:46.000Z</time>
      </trkpt>
      <trkpt lat="44.11965" lon="7.00646">
        <ele>1938.8000488281</ele>
        <time>2022-07-23T09:36:47.000Z</time>
      </trkpt>
      <trkpt lat="44.11957" lon="7.00657">
        <ele>1939.1999511719</ele>
        <time>2022-07-23T09:36:52.000Z</time>
      </trkpt>
      <trkpt lat="44.11953" lon="7.0066">
        <ele>1940</ele>
        <time>2022-07-23T09:36:55.000Z</time>
      </trkpt>
      <trkpt lat="44.1195" lon="7.00663">
        <ele>1941.5999755859</ele>
        <time>2022-07-23T09:36:57.000Z</time>
      </trkpt>
      <trkpt lat="44.11947" lon="7.00669">
        <ele>1943</ele>
        <time>2022-07-23T09:37:00.000Z</time>
      </trkpt>
      <trkpt lat="44.11943" lon="7.00672">
        <ele>1943.8000488281</ele>
        <time>2022-07-23T09:37:02.000Z</time>
      </trkpt>
      <trkpt lat="44.11942" lon="7.00673">
        <ele>1944.4000244141</ele>
        <time>2022-07-23T09:37:03.000Z</time>
      </trkpt>
      <trkpt lat="44.11936" lon="7.00677">
        <ele>1945.4000244141</ele>
        <time>2022-07-23T09:37:06.000Z</time>
      </trkpt>
      <trkpt lat="44.11933" lon="7.00682">
        <ele>1946</ele>
        <time>2022-07-23T09:37:09.000Z</time>
      </trkpt>
      <trkpt lat="44.11929" lon="7.00687">
        <ele>1946.5999755859</ele>
        <time>2022-07-23T09:37:12.000Z</time>
      </trkpt>
      <trkpt lat="44.11924" lon="7.00691">
        <ele>1947.5999755859</ele>
        <time>2022-07-23T09:37:16.000Z</time>
      </trkpt>
      <trkpt lat="44.11922" lon="7.00693">
        <ele>1948.1999511719</ele>
        <time>2022-07-23T09:37:21.000Z</time>
      </trkpt>
      <trkpt lat="44.11922" lon="7.00694">
        <ele>1948.4000244141</ele>
        <time>2022-07-23T09:37:29.000Z</time>
      </trkpt>
      <trkpt lat="44.11922" lon="7.00693">
        <ele>1948.5999755859</ele>
        <time>2022-07-23T09:37:37.000Z</time>
      </trkpt>
      <trkpt lat="44.11921" lon="7.00693">
        <ele>1948.8000488281</ele>
        <time>2022-07-23T09:37:39.000Z</time>
      </trkpt>
      <trkpt lat="44.11921" lon="7.00694">
        <ele>1949.1999511719</ele>
        <time>2022-07-23T09:38:02.000Z</time>
      </trkpt>
      <trkpt lat="44.11913" lon="7.007">
        <ele>1948.8000488281</ele>
        <time>2022-07-23T09:38:07.000Z</time>
      </trkpt>
      <trkpt lat="44.11902" lon="7.00707">
        <ele>1949</ele>
        <time>2022-07-23T09:38:13.000Z</time>
      </trkpt>
      <trkpt lat="44.11891" lon="7.00713">
        <ele>1949.4000244141</ele>
        <time>2022-07-23T09:38:17.000Z</time>
      </trkpt>
      <trkpt lat="44.11886" lon="7.00715">
        <ele>1949.4000244141</ele>
        <time>2022-07-23T09:38:18.000Z</time>
      </trkpt>
      <trkpt lat="44.11866" lon="7.00723">
        <ele>1947</ele>
        <time>2022-07-23T09:38:22.000Z</time>
      </trkpt>
      <trkpt lat="44.1186" lon="7.00729">
        <ele>1945</ele>
        <time>2022-07-23T09:38:24.000Z</time>
      </trkpt>
      <trkpt lat="44.11855" lon="7.00731">
        <ele>1944.1999511719</ele>
        <time>2022-07-23T09:38:25.000Z</time>
      </trkpt>
      <trkpt lat="44.11852" lon="7.00731">
        <ele>1943.5999755859</ele>
        <time>2022-07-23T09:38:26.000Z</time>
      </trkpt>
      <trkpt lat="44.11842" lon="7.00728">
        <ele>1942.5999755859</ele>
        <time>2022-07-23T09:38:28.000Z</time>
      </trkpt>
      <trkpt lat="44.11837" lon="7.00727">
        <ele>1941.5999755859</ele>
        <time>2022-07-23T09:38:29.000Z</time>
      </trkpt>
      <trkpt lat="44.11832" lon="7.00726">
        <ele>1941</ele>
        <time>2022-07-23T09:38:30.000Z</time>
      </trkpt>
      <trkpt lat="44.11827" lon="7.00722">
        <ele>1940.1999511719</ele>
        <time>2022-07-23T09:38:31.000Z</time>
      </trkpt>
      <trkpt lat="44.11823" lon="7.00717">
        <ele>1939.1999511719</ele>
        <time>2022-07-23T09:38:32.000Z</time>
      </trkpt>
      <trkpt lat="44.11818" lon="7.00709">
        <ele>1937.8000488281</ele>
        <time>2022-07-23T09:38:34.000Z</time>
      </trkpt>
      <trkpt lat="44.11813" lon="7.00705">
        <ele>1936.4000244141</ele>
        <time>2022-07-23T09:38:36.000Z</time>
      </trkpt>
      <trkpt lat="44.11805" lon="7.00699">
        <ele>1934.4000244141</ele>
        <time>2022-07-23T09:38:39.000Z</time>
      </trkpt>
      <trkpt lat="44.11803" lon="7.00698">
        <ele>1933.4000244141</ele>
        <time>2022-07-23T09:38:40.000Z</time>
      </trkpt>
      <trkpt lat="44.11798" lon="7.00694">
        <ele>1931.8000488281</ele>
        <time>2022-07-23T09:38:42.000Z</time>
      </trkpt>
      <trkpt lat="44.11792" lon="7.00692">
        <ele>1930.4000244141</ele>
        <time>2022-07-23T09:38:44.000Z</time>
      </trkpt>
      <trkpt lat="44.11787" lon="7.0069">
        <ele>1930</ele>
        <time>2022-07-23T09:38:45.000Z</time>
      </trkpt>
      <trkpt lat="44.11783" lon="7.00689">
        <ele>1929.1999511719</ele>
        <time>2022-07-23T09:38:46.000Z</time>
      </trkpt>
      <trkpt lat="44.11776" lon="7.00684">
        <ele>1928.1999511719</ele>
        <time>2022-07-23T09:38:48.000Z</time>
      </trkpt>
      <trkpt lat="44.11759" lon="7.00672">
        <ele>1926.8000488281</ele>
        <time>2022-07-23T09:38:51.000Z</time>
      </trkpt>
      <trkpt lat="44.11747" lon="7.00665">
        <ele>1925.4000244141</ele>
        <time>2022-07-23T09:38:53.000Z</time>
      </trkpt>
      <trkpt lat="44.11742" lon="7.00661">
        <ele>1924.4000244141</ele>
        <time>2022-07-23T09:38:54.000Z</time>
      </trkpt>
      <trkpt lat="44.11737" lon="7.00658">
        <ele>1922.8000488281</ele>
        <time>2022-07-23T09:38:55.000Z</time>
      </trkpt>
      <trkpt lat="44.11729" lon="7.00651">
        <ele>1921</ele>
        <time>2022-07-23T09:38:57.000Z</time>
      </trkpt>
      <trkpt lat="44.11722" lon="7.00648">
        <ele>1921.1999511719</ele>
        <time>2022-07-23T09:38:58.000Z</time>
      </trkpt>
      <trkpt lat="44.11715" lon="7.00644">
        <ele>1921.1999511719</ele>
        <time>2022-07-23T09:38:59.000Z</time>
      </trkpt>
      <trkpt lat="44.11708" lon="7.00639">
        <ele>1920.1999511719</ele>
        <time>2022-07-23T09:39:00.000Z</time>
      </trkpt>
      <trkpt lat="44.11702" lon="7.00635">
        <ele>1919</ele>
        <time>2022-07-23T09:39:01.000Z</time>
      </trkpt>
      <trkpt lat="44.11696" lon="7.00633">
        <ele>1918</ele>
        <time>2022-07-23T09:39:02.000Z</time>
      </trkpt>
      <trkpt lat="44.11691" lon="7.0063">
        <ele>1917</ele>
        <time>2022-07-23T09:39:03.000Z</time>
      </trkpt>
      <trkpt lat="44.11688" lon="7.0063">
        <ele>1916.1999511719</ele>
        <time>2022-07-23T09:39:05.000Z</time>
      </trkpt>
      <trkpt lat="44.11686" lon="7.00632">
        <ele>1915.5999755859</ele>
        <time>2022-07-23T09:39:06.000Z</time>
      </trkpt>
      <trkpt lat="44.11685" lon="7.00635">
        <ele>1914.4000244141</ele>
        <time>2022-07-23T09:39:08.000Z</time>
      </trkpt>
      <trkpt lat="44.11685" lon="7.00636">
        <ele>1913.8000488281</ele>
        <time>2022-07-23T09:39:09.000Z</time>
      </trkpt>
      <trkpt lat="44.11685" lon="7.00638">
        <ele>1913.8000488281</ele>
        <time>2022-07-23T09:39:10.000Z</time>
      </trkpt>
      <trkpt lat="44.11685" lon="7.00642">
        <ele>1913.5999755859</ele>
        <time>2022-07-23T09:39:11.000Z</time>
      </trkpt>
      <trkpt lat="44.11683" lon="7.00647">
        <ele>1913.1999511719</ele>
        <time>2022-07-23T09:39:12.000Z</time>
      </trkpt>
      <trkpt lat="44.1168" lon="7.00657">
        <ele>1913.1999511719</ele>
        <time>2022-07-23T09:39:14.000Z</time>
      </trkpt>
      <trkpt lat="44.11679" lon="7.00663">
        <ele>1912.5999755859</ele>
        <time>2022-07-23T09:39:15.000Z</time>
      </trkpt>
      <trkpt lat="44.11678" lon="7.00668">
        <ele>1912</ele>
        <time>2022-07-23T09:39:16.000Z</time>
      </trkpt>
      <trkpt lat="44.11676" lon="7.00679">
        <ele>1911</ele>
        <time>2022-07-23T09:39:18.000Z</time>
      </trkpt>
      <trkpt lat="44.11673" lon="7.00695">
        <ele>1910.4000244141</ele>
        <time>2022-07-23T09:39:21.000Z</time>
      </trkpt>
      <trkpt lat="44.11671" lon="7.00702">
        <ele>1910.1999511719</ele>
        <time>2022-07-23T09:39:22.000Z</time>
      </trkpt>
      <trkpt lat="44.1167" lon="7.00708">
        <ele>1909.5999755859</ele>
        <time>2022-07-23T09:39:23.000Z</time>
      </trkpt>
      <trkpt lat="44.11669" lon="7.00718">
        <ele>1908.5999755859</ele>
        <time>2022-07-23T09:39:25.000Z</time>
      </trkpt>
      <trkpt lat="44.1167" lon="7.00722">
        <ele>1908.4000244141</ele>
        <time>2022-07-23T09:39:26.000Z</time>
      </trkpt>
      <trkpt lat="44.11672" lon="7.00733">
        <ele>1907.4000244141</ele>
        <time>2022-07-23T09:39:29.000Z</time>
      </trkpt>
      <trkpt lat="44.11673" lon="7.00738">
        <ele>1907.4000244141</ele>
        <time>2022-07-23T09:39:30.000Z</time>
      </trkpt>
      <trkpt lat="44.11675" lon="7.00746">
        <ele>1907.5999755859</ele>
        <time>2022-07-23T09:39:31.000Z</time>
      </trkpt>
      <trkpt lat="44.11675" lon="7.0077">
        <ele>1907.5999755859</ele>
        <time>2022-07-23T09:39:35.000Z</time>
      </trkpt>
      <trkpt lat="44.11669" lon="7.00794">
        <ele>1906.8000488281</ele>
        <time>2022-07-23T09:39:40.000Z</time>
      </trkpt>
      <trkpt lat="44.1167" lon="7.00798">
        <ele>1906.1999511719</ele>
        <time>2022-07-23T09:39:41.000Z</time>
      </trkpt>
      <trkpt lat="44.11671" lon="7.00806">
        <ele>1905.4000244141</ele>
        <time>2022-07-23T09:39:43.000Z</time>
      </trkpt>
      <trkpt lat="44.11671" lon="7.0081">
        <ele>1905</ele>
        <time>2022-07-23T09:39:44.000Z</time>
      </trkpt>
      <trkpt lat="44.11671" lon="7.00814">
        <ele>1904.8000488281</ele>
        <time>2022-07-23T09:39:45.000Z</time>
      </trkpt>
      <trkpt lat="44.11673" lon="7.0082">
        <ele>1903.8000488281</ele>
        <time>2022-07-23T09:39:47.000Z</time>
      </trkpt>
      <trkpt lat="44.11673" lon="7.00823">
        <ele>1903.5999755859</ele>
        <time>2022-07-23T09:39:48.000Z</time>
      </trkpt>
      <trkpt lat="44.11675" lon="7.00841">
        <ele>1903</ele>
        <time>2022-07-23T09:39:52.000Z</time>
      </trkpt>
      <trkpt lat="44.11677" lon="7.00851">
        <ele>1902.5999755859</ele>
        <time>2022-07-23T09:39:54.000Z</time>
      </trkpt>
      <trkpt lat="44.11676" lon="7.00859">
        <ele>1901.4000244141</ele>
        <time>2022-07-23T09:39:56.000Z</time>
      </trkpt>
      <trkpt lat="44.11676" lon="7.00863">
        <ele>1901</ele>
        <time>2022-07-23T09:39:57.000Z</time>
      </trkpt>
      <trkpt lat="44.11675" lon="7.00873">
        <ele>1900.1999511719</ele>
        <time>2022-07-23T09:39:59.000Z</time>
      </trkpt>
      <trkpt lat="44.11677" lon="7.00883">
        <ele>1899</ele>
        <time>2022-07-23T09:40:01.000Z</time>
      </trkpt>
      <trkpt lat="44.11678" lon="7.00889">
        <ele>1898.5999755859</ele>
        <time>2022-07-23T09:40:02.000Z</time>
      </trkpt>
      <trkpt lat="44.11679" lon="7.00895">
        <ele>1898</ele>
        <time>2022-07-23T09:40:03.000Z</time>
      </trkpt>
      <trkpt lat="44.11679" lon="7.0091">
        <ele>1897.5999755859</ele>
        <time>2022-07-23T09:40:05.000Z</time>
      </trkpt>
      <trkpt lat="44.11679" lon="7.00917">
        <ele>1897.4000244141</ele>
        <time>2022-07-23T09:40:06.000Z</time>
      </trkpt>
      <trkpt lat="44.11681" lon="7.00934">
        <ele>1896.8000488281</ele>
        <time>2022-07-23T09:40:09.000Z</time>
      </trkpt>
      <trkpt lat="44.11683" lon="7.0095">
        <ele>1895.8000488281</ele>
        <time>2022-07-23T09:40:12.000Z</time>
      </trkpt>
      <trkpt lat="44.11683" lon="7.00959">
        <ele>1895.8000488281</ele>
        <time>2022-07-23T09:40:14.000Z</time>
      </trkpt>
      <trkpt lat="44.11686" lon="7.0099">
        <ele>1896.1999511719</ele>
        <time>2022-07-23T09:40:20.000Z</time>
      </trkpt>
      <trkpt lat="44.11686" lon="7.00996">
        <ele>1896.1999511719</ele>
        <time>2022-07-23T09:40:21.000Z</time>
      </trkpt>
      <trkpt lat="44.11684" lon="7.01012">
        <ele>1896</ele>
        <time>2022-07-23T09:40:24.000Z</time>
      </trkpt>
      <trkpt lat="44.11684" lon="7.01022">
        <ele>1895.5999755859</ele>
        <time>2022-07-23T09:40:26.000Z</time>
      </trkpt>
      <trkpt lat="44.11685" lon="7.01035">
        <ele>1894.5999755859</ele>
        <time>2022-07-23T09:40:28.000Z</time>
      </trkpt>
      <trkpt lat="44.11684" lon="7.01043">
        <ele>1894</ele>
        <time>2022-07-23T09:40:29.000Z</time>
      </trkpt>
      <trkpt lat="44.11676" lon="7.01057">
        <ele>1893</ele>
        <time>2022-07-23T09:40:31.000Z</time>
      </trkpt>
      <trkpt lat="44.1167" lon="7.01062">
        <ele>1892</ele>
        <time>2022-07-23T09:40:32.000Z</time>
      </trkpt>
      <trkpt lat="44.11665" lon="7.01066">
        <ele>1891</ele>
        <time>2022-07-23T09:40:33.000Z</time>
      </trkpt>
      <trkpt lat="44.11654" lon="7.01073">
        <ele>1889.4000244141</ele>
        <time>2022-07-23T09:40:35.000Z</time>
      </trkpt>
      <trkpt lat="44.1165" lon="7.01075">
        <ele>1888.4000244141</ele>
        <time>2022-07-23T09:40:36.000Z</time>
      </trkpt>
      <trkpt lat="44.11646" lon="7.01077">
        <ele>1888</ele>
        <time>2022-07-23T09:40:37.000Z</time>
      </trkpt>
      <trkpt lat="44.11628" lon="7.01089">
        <ele>1888.5999755859</ele>
        <time>2022-07-23T09:40:41.000Z</time>
      </trkpt>
      <trkpt lat="44.11615" lon="7.01106">
        <ele>1888</ele>
        <time>2022-07-23T09:40:45.000Z</time>
      </trkpt>
      <trkpt lat="44.11608" lon="7.01116">
        <ele>1888</ele>
        <time>2022-07-23T09:40:49.000Z</time>
      </trkpt>
      <trkpt lat="44.11601" lon="7.01125">
        <ele>1889.4000244141</ele>
        <time>2022-07-23T09:40:53.000Z</time>
      </trkpt>
      <trkpt lat="44.11594" lon="7.01137">
        <ele>1889.4000244141</ele>
        <time>2022-07-23T09:40:58.000Z</time>
      </trkpt>
      <trkpt lat="44.11587" lon="7.01146">
        <ele>1890.1999511719</ele>
        <time>2022-07-23T09:41:04.000Z</time>
      </trkpt>
      <trkpt lat="44.11584" lon="7.0115">
        <ele>1890.4000244141</ele>
        <time>2022-07-23T09:41:07.000Z</time>
      </trkpt>
      <trkpt lat="44.11582" lon="7.01153">
        <ele>1890.5999755859</ele>
        <time>2022-07-23T09:41:09.000Z</time>
      </trkpt>
      <trkpt lat="44.11581" lon="7.01154">
        <ele>1890.8000488281</ele>
        <time>2022-07-23T09:41:10.000Z</time>
      </trkpt>
      <trkpt lat="44.11572" lon="7.01168">
        <ele>1890.5999755859</ele>
        <time>2022-07-23T09:41:15.000Z</time>
      </trkpt>
      <trkpt lat="44.11564" lon="7.01185">
        <ele>1890.5999755859</ele>
        <time>2022-07-23T09:41:20.000Z</time>
      </trkpt>
      <trkpt lat="44.1156" lon="7.01195">
        <ele>1891.5999755859</ele>
        <time>2022-07-23T09:41:24.000Z</time>
      </trkpt>
      <trkpt lat="44.11556" lon="7.01203">
        <ele>1892.8000488281</ele>
        <time>2022-07-23T09:41:27.000Z</time>
      </trkpt>
      <trkpt lat="44.1155" lon="7.01213">
        <ele>1893.4000244141</ele>
        <time>2022-07-23T09:41:31.000Z</time>
      </trkpt>
      <trkpt lat="44.11547" lon="7.01218">
        <ele>1893.8000488281</ele>
        <time>2022-07-23T09:41:33.000Z</time>
      </trkpt>
      <trkpt lat="44.11539" lon="7.01233">
        <ele>1894.1999511719</ele>
        <time>2022-07-23T09:41:38.000Z</time>
      </trkpt>
      <trkpt lat="44.11534" lon="7.01246">
        <ele>1894.5999755859</ele>
        <time>2022-07-23T09:41:43.000Z</time>
      </trkpt>
      <trkpt lat="44.11532" lon="7.01249">
        <ele>1895</ele>
        <time>2022-07-23T09:41:44.000Z</time>
      </trkpt>
      <trkpt lat="44.11526" lon="7.01262">
        <ele>1896</ele>
        <time>2022-07-23T09:41:49.000Z</time>
      </trkpt>
      <trkpt lat="44.11519" lon="7.01274">
        <ele>1897</ele>
        <time>2022-07-23T09:41:54.000Z</time>
      </trkpt>
      <trkpt lat="44.11516" lon="7.0128">
        <ele>1897.1999511719</ele>
        <time>2022-07-23T09:41:56.000Z</time>
      </trkpt>
      <trkpt lat="44.11503" lon="7.01303">
        <ele>1897.8000488281</ele>
        <time>2022-07-23T09:42:03.000Z</time>
      </trkpt>
      <trkpt lat="44.11495" lon="7.01318">
        <ele>1897.5999755859</ele>
        <time>2022-07-23T09:42:08.000Z</time>
      </trkpt>
      <trkpt lat="44.11488" lon="7.01333">
        <ele>1897</ele>
        <time>2022-07-23T09:42:11.000Z</time>
      </trkpt>
      <trkpt lat="44.11486" lon="7.01339">
        <ele>1896.8000488281</ele>
        <time>2022-07-23T09:42:12.000Z</time>
      </trkpt>
      <trkpt lat="44.11478" lon="7.01358">
        <ele>1896</ele>
        <time>2022-07-23T09:42:15.000Z</time>
      </trkpt>
      <trkpt lat="44.11477" lon="7.01364">
        <ele>1895.8000488281</ele>
        <time>2022-07-23T09:42:16.000Z</time>
      </trkpt>
      <trkpt lat="44.11477" lon="7.01369">
        <ele>1895.5999755859</ele>
        <time>2022-07-23T09:42:17.000Z</time>
      </trkpt>
      <trkpt lat="44.11472" lon="7.01394">
        <ele>1895.8000488281</ele>
        <time>2022-07-23T09:42:22.000Z</time>
      </trkpt>
      <trkpt lat="44.11467" lon="7.01428">
        <ele>1896.1999511719</ele>
        <time>2022-07-23T09:42:28.000Z</time>
      </trkpt>
      <trkpt lat="44.11465" lon="7.01464">
        <ele>1897</ele>
        <time>2022-07-23T09:42:35.000Z</time>
      </trkpt>
      <trkpt lat="44.11466" lon="7.01477">
        <ele>1898.1999511719</ele>
        <time>2022-07-23T09:42:38.000Z</time>
      </trkpt>
      <trkpt lat="44.11464" lon="7.01484">
        <ele>1899</ele>
        <time>2022-07-23T09:42:40.000Z</time>
      </trkpt>
      <trkpt lat="44.11463" lon="7.01488">
        <ele>1899.4000244141</ele>
        <time>2022-07-23T09:42:41.000Z</time>
      </trkpt>
      <trkpt lat="44.11465" lon="7.01506">
        <ele>1900</ele>
        <time>2022-07-23T09:42:45.000Z</time>
      </trkpt>
      <trkpt lat="44.11466" lon="7.01538">
        <ele>1899.1999511719</ele>
        <time>2022-07-23T09:42:49.000Z</time>
      </trkpt>
      <trkpt lat="44.11466" lon="7.0155">
        <ele>1897.8000488281</ele>
        <time>2022-07-23T09:42:51.000Z</time>
      </trkpt>
      <trkpt lat="44.11466" lon="7.01556">
        <ele>1897</ele>
        <time>2022-07-23T09:42:52.000Z</time>
      </trkpt>
      <trkpt lat="44.11466" lon="7.01574">
        <ele>1897.4000244141</ele>
        <time>2022-07-23T09:42:55.000Z</time>
      </trkpt>
      <trkpt lat="44.11464" lon="7.01583">
        <ele>1898</ele>
        <time>2022-07-23T09:42:57.000Z</time>
      </trkpt>
      <trkpt lat="44.11462" lon="7.01589">
        <ele>1899</ele>
        <time>2022-07-23T09:43:01.000Z</time>
      </trkpt>
      <trkpt lat="44.11462" lon="7.01588">
        <ele>1900.1999511719</ele>
        <time>2022-07-23T09:43:03.000Z</time>
      </trkpt>
      <trkpt lat="44.11462" lon="7.01588">
        <ele>1901.4000244141</ele>
        <time>2022-07-23T09:43:06.000Z</time>
      </trkpt>
      <trkpt lat="44.11462" lon="7.01588">
        <ele>1901.4000244141</ele>
        <time>2022-07-23T09:43:07.000Z</time>
      </trkpt>
      <trkpt lat="44.11462" lon="7.01588">
        <ele>1901.5999755859</ele>
        <time>2022-07-23T09:43:40.000Z</time>
      </trkpt>
      <trkpt lat="44.11462" lon="7.01588">
        <ele>1901.8000488281</ele>
        <time>2022-07-23T09:44:01.000Z</time>
      </trkpt>
      <trkpt lat="44.11462" lon="7.01588">
        <ele>1901.8000488281</ele>
        <time>2022-07-23T09:44:29.000Z</time>
      </trkpt>
      <trkpt lat="44.11461" lon="7.0159">
        <ele>1902</ele>
        <time>2022-07-23T09:44:44.000Z</time>
      </trkpt>
      <trkpt lat="44.1146" lon="7.0159">
        <ele>1902.4000244141</ele>
        <time>2022-07-23T09:44:56.000Z</time>
      </trkpt>
      <trkpt lat="44.1146" lon="7.0159">
        <ele>1902.4000244141</ele>
        <time>2022-07-23T09:44:57.000Z</time>
      </trkpt>
      <trkpt lat="44.11459" lon="7.0159">
        <ele>1902</ele>
        <time>2022-07-23T09:45:05.000Z</time>
      </trkpt>
      <trkpt lat="44.11459" lon="7.0159">
        <ele>1901.4000244141</ele>
        <time>2022-07-23T09:45:09.000Z</time>
      </trkpt>
      <trkpt lat="44.11459" lon="7.01591">
        <ele>1901.1999511719</ele>
        <time>2022-07-23T09:45:27.000Z</time>
      </trkpt>
      <trkpt lat="44.11459" lon="7.0159">
        <ele>1901.1999511719</ele>
        <time>2022-07-23T09:45:49.000Z</time>
      </trkpt>
      <trkpt lat="44.11461" lon="7.01591">
        <ele>1901</ele>
        <time>2022-07-23T09:46:04.000Z</time>
      </trkpt>
      <trkpt lat="44.11465" lon="7.01597">
        <ele>1901</ele>
        <time>2022-07-23T09:46:13.000Z</time>
      </trkpt>
      <trkpt lat="44.11462" lon="7.01608">
        <ele>1900.5999755859</ele>
        <time>2022-07-23T09:46:18.000Z</time>
      </trkpt>
      <trkpt lat="44.1146" lon="7.0161">
        <ele>1900.1999511719</ele>
        <time>2022-07-23T09:46:19.000Z</time>
      </trkpt>
      <trkpt lat="44.11459" lon="7.01611">
        <ele>1899.5999755859</ele>
        <time>2022-07-23T09:46:20.000Z</time>
      </trkpt>
      <trkpt lat="44.11458" lon="7.0161">
        <ele>1899</ele>
        <time>2022-07-23T09:46:21.000Z</time>
      </trkpt>
      <trkpt lat="44.11458" lon="7.0161">
        <ele>1897.8000488281</ele>
        <time>2022-07-23T09:46:23.000Z</time>
      </trkpt>
      <trkpt lat="44.11459" lon="7.0161">
        <ele>1897.1999511719</ele>
        <time>2022-07-23T09:46:45.000Z</time>
      </trkpt>
      <trkpt lat="44.11458" lon="7.0161">
        <ele>1897.1999511719</ele>
        <time>2022-07-23T09:47:04.000Z</time>
      </trkpt>
      <trkpt lat="44.11458" lon="7.0161">
        <ele>1897.1999511719</ele>
        <time>2022-07-23T09:47:27.000Z</time>
      </trkpt>
      <trkpt lat="44.11457" lon="7.01609">
        <ele>1897.1999511719</ele>
        <time>2022-07-23T09:47:46.000Z</time>
      </trkpt>
      <trkpt lat="44.11453" lon="7.0161">
        <ele>1897</ele>
        <time>2022-07-23T09:47:59.000Z</time>
      </trkpt>
      <trkpt lat="44.11451" lon="7.01612">
        <ele>1896.8000488281</ele>
        <time>2022-07-23T09:48:01.000Z</time>
      </trkpt>
      <trkpt lat="44.1145" lon="7.01613">
        <ele>1896.5999755859</ele>
        <time>2022-07-23T09:48:02.000Z</time>
      </trkpt>
      <trkpt lat="44.11446" lon="7.0162">
        <ele>1895.1999511719</ele>
        <time>2022-07-23T09:48:06.000Z</time>
      </trkpt>
      <trkpt lat="44.1144" lon="7.01627">
        <ele>1893.4000244141</ele>
        <time>2022-07-23T09:48:09.000Z</time>
      </trkpt>
      <trkpt lat="44.11437" lon="7.0163">
        <ele>1892.5999755859</ele>
        <time>2022-07-23T09:48:10.000Z</time>
      </trkpt>
      <trkpt lat="44.11432" lon="7.01634">
        <ele>1890.8000488281</ele>
        <time>2022-07-23T09:48:11.000Z</time>
      </trkpt>
      <trkpt lat="44.11428" lon="7.01638">
        <ele>1889.4000244141</ele>
        <time>2022-07-23T09:48:12.000Z</time>
      </trkpt>
      <trkpt lat="44.11422" lon="7.01642">
        <ele>1887.8000488281</ele>
        <time>2022-07-23T09:48:13.000Z</time>
      </trkpt>
      <trkpt lat="44.11416" lon="7.01645">
        <ele>1886.4000244141</ele>
        <time>2022-07-23T09:48:14.000Z</time>
      </trkpt>
      <trkpt lat="44.11403" lon="7.01649">
        <ele>1884.1999511719</ele>
        <time>2022-07-23T09:48:16.000Z</time>
      </trkpt>
      <trkpt lat="44.11397" lon="7.01652">
        <ele>1882.5999755859</ele>
        <time>2022-07-23T09:48:17.000Z</time>
      </trkpt>
      <trkpt lat="44.1139" lon="7.01654">
        <ele>1881.1999511719</ele>
        <time>2022-07-23T09:48:18.000Z</time>
      </trkpt>
      <trkpt lat="44.11384" lon="7.01656">
        <ele>1880.1999511719</ele>
        <time>2022-07-23T09:48:19.000Z</time>
      </trkpt>
      <trkpt lat="44.11372" lon="7.01659">
        <ele>1878.5999755859</ele>
        <time>2022-07-23T09:48:21.000Z</time>
      </trkpt>
      <trkpt lat="44.11368" lon="7.01661">
        <ele>1878</ele>
        <time>2022-07-23T09:48:22.000Z</time>
      </trkpt>
      <trkpt lat="44.11363" lon="7.01662">
        <ele>1877.4000244141</ele>
        <time>2022-07-23T09:48:23.000Z</time>
      </trkpt>
      <trkpt lat="44.11357" lon="7.01664">
        <ele>1876.4000244141</ele>
        <time>2022-07-23T09:48:26.000Z</time>
      </trkpt>
      <trkpt lat="44.11356" lon="7.01664">
        <ele>1875.1999511719</ele>
        <time>2022-07-23T09:48:36.000Z</time>
      </trkpt>
      <trkpt lat="44.11353" lon="7.01665">
        <ele>1875.1999511719</ele>
        <time>2022-07-23T09:48:47.000Z</time>
      </trkpt>
      <trkpt lat="44.11351" lon="7.01667">
        <ele>1875.1999511719</ele>
        <time>2022-07-23T09:48:48.000Z</time>
      </trkpt>
      <trkpt lat="44.11348" lon="7.01682">
        <ele>1875</ele>
        <time>2022-07-23T09:48:51.000Z</time>
      </trkpt>
      <trkpt lat="44.11347" lon="7.017">
        <ele>1873.8000488281</ele>
        <time>2022-07-23T09:48:53.000Z</time>
      </trkpt>
      <trkpt lat="44.11346" lon="7.01709">
        <ele>1872.8000488281</ele>
        <time>2022-07-23T09:48:54.000Z</time>
      </trkpt>
      <trkpt lat="44.11345" lon="7.01717">
        <ele>1872.4000244141</ele>
        <time>2022-07-23T09:48:55.000Z</time>
      </trkpt>
      <trkpt lat="44.11343" lon="7.01727">
        <ele>1871.4000244141</ele>
        <time>2022-07-23T09:48:56.000Z</time>
      </trkpt>
      <trkpt lat="44.11341" lon="7.01738">
        <ele>1869.8000488281</ele>
        <time>2022-07-23T09:48:57.000Z</time>
      </trkpt>
      <trkpt lat="44.11341" lon="7.01749">
        <ele>1867.8000488281</ele>
        <time>2022-07-23T09:48:58.000Z</time>
      </trkpt>
      <trkpt lat="44.1134" lon="7.0176">
        <ele>1866.8000488281</ele>
        <time>2022-07-23T09:48:59.000Z</time>
      </trkpt>
      <trkpt lat="44.11339" lon="7.01771">
        <ele>1865.4000244141</ele>
        <time>2022-07-23T09:49:00.000Z</time>
      </trkpt>
      <trkpt lat="44.11337" lon="7.01782">
        <ele>1862.8000488281</ele>
        <time>2022-07-23T09:49:01.000Z</time>
      </trkpt>
      <trkpt lat="44.11336" lon="7.01793">
        <ele>1860.5999755859</ele>
        <time>2022-07-23T09:49:02.000Z</time>
      </trkpt>
      <trkpt lat="44.11335" lon="7.01804">
        <ele>1858.1999511719</ele>
        <time>2022-07-23T09:49:03.000Z</time>
      </trkpt>
      <trkpt lat="44.11333" lon="7.01816">
        <ele>1856.4000244141</ele>
        <time>2022-07-23T09:49:04.000Z</time>
      </trkpt>
      <trkpt lat="44.11332" lon="7.01829">
        <ele>1854.5999755859</ele>
        <time>2022-07-23T09:49:05.000Z</time>
      </trkpt>
      <trkpt lat="44.11331" lon="7.01842">
        <ele>1853.4000244141</ele>
        <time>2022-07-23T09:49:06.000Z</time>
      </trkpt>
      <trkpt lat="44.11329" lon="7.01854">
        <ele>1852.1999511719</ele>
        <time>2022-07-23T09:49:07.000Z</time>
      </trkpt>
      <trkpt lat="44.11326" lon="7.01866">
        <ele>1850.8000488281</ele>
        <time>2022-07-23T09:49:08.000Z</time>
      </trkpt>
      <trkpt lat="44.11324" lon="7.01875">
        <ele>1849</ele>
        <time>2022-07-23T09:49:09.000Z</time>
      </trkpt>
      <trkpt lat="44.11322" lon="7.01883">
        <ele>1847.8000488281</ele>
        <time>2022-07-23T09:49:10.000Z</time>
      </trkpt>
      <trkpt lat="44.11318" lon="7.01892">
        <ele>1845.8000488281</ele>
        <time>2022-07-23T09:49:11.000Z</time>
      </trkpt>
      <trkpt lat="44.11312" lon="7.01906">
        <ele>1844.8000488281</ele>
        <time>2022-07-23T09:49:13.000Z</time>
      </trkpt>
      <trkpt lat="44.1131" lon="7.01915">
        <ele>1844.5999755859</ele>
        <time>2022-07-23T09:49:14.000Z</time>
      </trkpt>
      <trkpt lat="44.11306" lon="7.01933">
        <ele>1844.1999511719</ele>
        <time>2022-07-23T09:49:16.000Z</time>
      </trkpt>
      <trkpt lat="44.11301" lon="7.01942">
        <ele>1843.5999755859</ele>
        <time>2022-07-23T09:49:17.000Z</time>
      </trkpt>
      <trkpt lat="44.1129" lon="7.0196">
        <ele>1841.5999755859</ele>
        <time>2022-07-23T09:49:19.000Z</time>
      </trkpt>
      <trkpt lat="44.11281" lon="7.01975">
        <ele>1840.1999511719</ele>
        <time>2022-07-23T09:49:21.000Z</time>
      </trkpt>
      <trkpt lat="44.11272" lon="7.01987">
        <ele>1838.8000488281</ele>
        <time>2022-07-23T09:49:23.000Z</time>
      </trkpt>
      <trkpt lat="44.11267" lon="7.01993">
        <ele>1837.8000488281</ele>
        <time>2022-07-23T09:49:24.000Z</time>
      </trkpt>
      <trkpt lat="44.11263" lon="7.01998">
        <ele>1836.1999511719</ele>
        <time>2022-07-23T09:49:25.000Z</time>
      </trkpt>
      <trkpt lat="44.11258" lon="7.02006">
        <ele>1835.1999511719</ele>
        <time>2022-07-23T09:49:26.000Z</time>
      </trkpt>
      <trkpt lat="44.11253" lon="7.02012">
        <ele>1834.1999511719</ele>
        <time>2022-07-23T09:49:27.000Z</time>
      </trkpt>
      <trkpt lat="44.11248" lon="7.02017">
        <ele>1833</ele>
        <time>2022-07-23T09:49:28.000Z</time>
      </trkpt>
      <trkpt lat="44.11244" lon="7.02022">
        <ele>1832</ele>
        <time>2022-07-23T09:49:29.000Z</time>
      </trkpt>
      <trkpt lat="44.1124" lon="7.02026">
        <ele>1831.1999511719</ele>
        <time>2022-07-23T09:49:30.000Z</time>
      </trkpt>
      <trkpt lat="44.11225" lon="7.02042">
        <ele>1829.1999511719</ele>
        <time>2022-07-23T09:49:33.000Z</time>
      </trkpt>
      <trkpt lat="44.11219" lon="7.02048">
        <ele>1829</ele>
        <time>2022-07-23T09:49:34.000Z</time>
      </trkpt>
      <trkpt lat="44.11205" lon="7.02063">
        <ele>1827.8000488281</ele>
        <time>2022-07-23T09:49:36.000Z</time>
      </trkpt>
      <trkpt lat="44.11197" lon="7.02071">
        <ele>1826.8000488281</ele>
        <time>2022-07-23T09:49:37.000Z</time>
      </trkpt>
      <trkpt lat="44.1119" lon="7.0208">
        <ele>1825.1999511719</ele>
        <time>2022-07-23T09:49:38.000Z</time>
      </trkpt>
      <trkpt lat="44.11167" lon="7.02107">
        <ele>1823.5999755859</ele>
        <time>2022-07-23T09:49:41.000Z</time>
      </trkpt>
      <trkpt lat="44.11161" lon="7.02116">
        <ele>1822.5999755859</ele>
        <time>2022-07-23T09:49:42.000Z</time>
      </trkpt>
      <trkpt lat="44.11155" lon="7.02124">
        <ele>1821.5999755859</ele>
        <time>2022-07-23T09:49:43.000Z</time>
      </trkpt>
      <trkpt lat="44.11151" lon="7.02132">
        <ele>1820.5999755859</ele>
        <time>2022-07-23T09:49:44.000Z</time>
      </trkpt>
      <trkpt lat="44.11146" lon="7.02139">
        <ele>1819.4000244141</ele>
        <time>2022-07-23T09:49:45.000Z</time>
      </trkpt>
      <trkpt lat="44.11141" lon="7.02143">
        <ele>1818</ele>
        <time>2022-07-23T09:49:46.000Z</time>
      </trkpt>
      <trkpt lat="44.11137" lon="7.0215">
        <ele>1817</ele>
        <time>2022-07-23T09:49:47.000Z</time>
      </trkpt>
      <trkpt lat="44.11133" lon="7.02157">
        <ele>1815.8000488281</ele>
        <time>2022-07-23T09:49:48.000Z</time>
      </trkpt>
      <trkpt lat="44.11128" lon="7.02163">
        <ele>1814.8000488281</ele>
        <time>2022-07-23T09:49:49.000Z</time>
      </trkpt>
      <trkpt lat="44.11122" lon="7.02168">
        <ele>1813.5999755859</ele>
        <time>2022-07-23T09:49:50.000Z</time>
      </trkpt>
      <trkpt lat="44.11116" lon="7.02174">
        <ele>1811.8000488281</ele>
        <time>2022-07-23T09:49:51.000Z</time>
      </trkpt>
      <trkpt lat="44.1111" lon="7.0218">
        <ele>1811</ele>
        <time>2022-07-23T09:49:52.000Z</time>
      </trkpt>
      <trkpt lat="44.11104" lon="7.02187">
        <ele>1810</ele>
        <time>2022-07-23T09:49:53.000Z</time>
      </trkpt>
      <trkpt lat="44.11099" lon="7.02192">
        <ele>1809.1999511719</ele>
        <time>2022-07-23T09:49:54.000Z</time>
      </trkpt>
      <trkpt lat="44.11094" lon="7.02197">
        <ele>1808.5999755859</ele>
        <time>2022-07-23T09:49:55.000Z</time>
      </trkpt>
      <trkpt lat="44.11084" lon="7.02209">
        <ele>1808</ele>
        <time>2022-07-23T09:49:57.000Z</time>
      </trkpt>
      <trkpt lat="44.11079" lon="7.02213">
        <ele>1807.4000244141</ele>
        <time>2022-07-23T09:49:58.000Z</time>
      </trkpt>
      <trkpt lat="44.1107" lon="7.02217">
        <ele>1805.8000488281</ele>
        <time>2022-07-23T09:50:00.000Z</time>
      </trkpt>
      <trkpt lat="44.11063" lon="7.02219">
        <ele>1804</ele>
        <time>2022-07-23T09:50:01.000Z</time>
      </trkpt>
      <trkpt lat="44.11056" lon="7.02221">
        <ele>1802.8000488281</ele>
        <time>2022-07-23T09:50:02.000Z</time>
      </trkpt>
      <trkpt lat="44.1105" lon="7.02223">
        <ele>1801.4000244141</ele>
        <time>2022-07-23T09:50:03.000Z</time>
      </trkpt>
      <trkpt lat="44.11044" lon="7.02225">
        <ele>1800</ele>
        <time>2022-07-23T09:50:04.000Z</time>
      </trkpt>
      <trkpt lat="44.1104" lon="7.02227">
        <ele>1798.4000244141</ele>
        <time>2022-07-23T09:50:05.000Z</time>
      </trkpt>
      <trkpt lat="44.11035" lon="7.0223">
        <ele>1797.1999511719</ele>
        <time>2022-07-23T09:50:06.000Z</time>
      </trkpt>
      <trkpt lat="44.1103" lon="7.02233">
        <ele>1796</ele>
        <time>2022-07-23T09:50:07.000Z</time>
      </trkpt>
      <trkpt lat="44.11024" lon="7.02236">
        <ele>1794.8000488281</ele>
        <time>2022-07-23T09:50:08.000Z</time>
      </trkpt>
      <trkpt lat="44.11018" lon="7.02239">
        <ele>1793.5999755859</ele>
        <time>2022-07-23T09:50:09.000Z</time>
      </trkpt>
      <trkpt lat="44.11007" lon="7.02245">
        <ele>1792.5999755859</ele>
        <time>2022-07-23T09:50:11.000Z</time>
      </trkpt>
      <trkpt lat="44.11002" lon="7.0225">
        <ele>1792.1999511719</ele>
        <time>2022-07-23T09:50:12.000Z</time>
      </trkpt>
      <trkpt lat="44.10993" lon="7.02262">
        <ele>1791</ele>
        <time>2022-07-23T09:50:14.000Z</time>
      </trkpt>
      <trkpt lat="44.10989" lon="7.0227">
        <ele>1790.5999755859</ele>
        <time>2022-07-23T09:50:15.000Z</time>
      </trkpt>
      <trkpt lat="44.10985" lon="7.02279">
        <ele>1790.1999511719</ele>
        <time>2022-07-23T09:50:16.000Z</time>
      </trkpt>
      <trkpt lat="44.1098" lon="7.02289">
        <ele>1789.8000488281</ele>
        <time>2022-07-23T09:50:17.000Z</time>
      </trkpt>
      <trkpt lat="44.10976" lon="7.02297">
        <ele>1789.1999511719</ele>
        <time>2022-07-23T09:50:18.000Z</time>
      </trkpt>
      <trkpt lat="44.10973" lon="7.02305">
        <ele>1788.5999755859</ele>
        <time>2022-07-23T09:50:19.000Z</time>
      </trkpt>
      <trkpt lat="44.10965" lon="7.02329">
        <ele>1787.4000244141</ele>
        <time>2022-07-23T09:50:22.000Z</time>
      </trkpt>
      <trkpt lat="44.10953" lon="7.02365">
        <ele>1788.5999755859</ele>
        <time>2022-07-23T09:50:27.000Z</time>
      </trkpt>
      <trkpt lat="44.10948" lon="7.0238">
        <ele>1788.4000244141</ele>
        <time>2022-07-23T09:50:29.000Z</time>
      </trkpt>
      <trkpt lat="44.10935" lon="7.02419">
        <ele>1788.4000244141</ele>
        <time>2022-07-23T09:50:35.000Z</time>
      </trkpt>
      <trkpt lat="44.10929" lon="7.02436">
        <ele>1788.5999755859</ele>
        <time>2022-07-23T09:50:38.000Z</time>
      </trkpt>
      <trkpt lat="44.1092" lon="7.02457">
        <ele>1788.5999755859</ele>
        <time>2022-07-23T09:50:42.000Z</time>
      </trkpt>
      <trkpt lat="44.10916" lon="7.02467">
        <ele>1788.5999755859</ele>
        <time>2022-07-23T09:50:44.000Z</time>
      </trkpt>
      <trkpt lat="44.10911" lon="7.02487">
        <ele>1788.1999511719</ele>
        <time>2022-07-23T09:50:47.000Z</time>
      </trkpt>
      <trkpt lat="44.10905" lon="7.02502">
        <ele>1787.8000488281</ele>
        <time>2022-07-23T09:50:49.000Z</time>
      </trkpt>
      <trkpt lat="44.10902" lon="7.02508">
        <ele>1787.4000244141</ele>
        <time>2022-07-23T09:50:50.000Z</time>
      </trkpt>
      <trkpt lat="44.10894" lon="7.02523">
        <ele>1786.4000244141</ele>
        <time>2022-07-23T09:50:52.000Z</time>
      </trkpt>
      <trkpt lat="44.1089" lon="7.02531">
        <ele>1786.1999511719</ele>
        <time>2022-07-23T09:50:53.000Z</time>
      </trkpt>
      <trkpt lat="44.10886" lon="7.02539">
        <ele>1785.8000488281</ele>
        <time>2022-07-23T09:50:54.000Z</time>
      </trkpt>
      <trkpt lat="44.10871" lon="7.02561">
        <ele>1785.4000244141</ele>
        <time>2022-07-23T09:50:57.000Z</time>
      </trkpt>
      <trkpt lat="44.10867" lon="7.02571">
        <ele>1784.8000488281</ele>
        <time>2022-07-23T09:50:58.000Z</time>
      </trkpt>
      <trkpt lat="44.10862" lon="7.0259">
        <ele>1783</ele>
        <time>2022-07-23T09:51:00.000Z</time>
      </trkpt>
      <trkpt lat="44.10861" lon="7.02613">
        <ele>1781</ele>
        <time>2022-07-23T09:51:02.000Z</time>
      </trkpt>
      <trkpt lat="44.1086" lon="7.02624">
        <ele>1780.1999511719</ele>
        <time>2022-07-23T09:51:03.000Z</time>
      </trkpt>
      <trkpt lat="44.10857" lon="7.02636">
        <ele>1779.1999511719</ele>
        <time>2022-07-23T09:51:04.000Z</time>
      </trkpt>
      <trkpt lat="44.10846" lon="7.02654">
        <ele>1777.5999755859</ele>
        <time>2022-07-23T09:51:06.000Z</time>
      </trkpt>
      <trkpt lat="44.10839" lon="7.02661">
        <ele>1776.8000488281</ele>
        <time>2022-07-23T09:51:07.000Z</time>
      </trkpt>
      <trkpt lat="44.10832" lon="7.02668">
        <ele>1776</ele>
        <time>2022-07-23T09:51:08.000Z</time>
      </trkpt>
      <trkpt lat="44.10824" lon="7.02673">
        <ele>1775</ele>
        <time>2022-07-23T09:51:09.000Z</time>
      </trkpt>
      <trkpt lat="44.10815" lon="7.02678">
        <ele>1773.5999755859</ele>
        <time>2022-07-23T09:51:10.000Z</time>
      </trkpt>
      <trkpt lat="44.10806" lon="7.02683">
        <ele>1771.8000488281</ele>
        <time>2022-07-23T09:51:11.000Z</time>
      </trkpt>
      <trkpt lat="44.10796" lon="7.02686">
        <ele>1770.4000244141</ele>
        <time>2022-07-23T09:51:12.000Z</time>
      </trkpt>
      <trkpt lat="44.10785" lon="7.02687">
        <ele>1768.8000488281</ele>
        <time>2022-07-23T09:51:13.000Z</time>
      </trkpt>
      <trkpt lat="44.10776" lon="7.02689">
        <ele>1767.4000244141</ele>
        <time>2022-07-23T09:51:14.000Z</time>
      </trkpt>
      <trkpt lat="44.10765" lon="7.02691">
        <ele>1766.1999511719</ele>
        <time>2022-07-23T09:51:15.000Z</time>
      </trkpt>
      <trkpt lat="44.10755" lon="7.02689">
        <ele>1764.4000244141</ele>
        <time>2022-07-23T09:51:16.000Z</time>
      </trkpt>
      <trkpt lat="44.10745" lon="7.02687">
        <ele>1762.4000244141</ele>
        <time>2022-07-23T09:51:17.000Z</time>
      </trkpt>
      <trkpt lat="44.10737" lon="7.02684">
        <ele>1760.5999755859</ele>
        <time>2022-07-23T09:51:18.000Z</time>
      </trkpt>
      <trkpt lat="44.10729" lon="7.0268">
        <ele>1758.8000488281</ele>
        <time>2022-07-23T09:51:19.000Z</time>
      </trkpt>
      <trkpt lat="44.10723" lon="7.02678">
        <ele>1757.8000488281</ele>
        <time>2022-07-23T09:51:20.000Z</time>
      </trkpt>
      <trkpt lat="44.10718" lon="7.02677">
        <ele>1757.4000244141</ele>
        <time>2022-07-23T09:51:21.000Z</time>
      </trkpt>
      <trkpt lat="44.10712" lon="7.02678">
        <ele>1756.4000244141</ele>
        <time>2022-07-23T09:51:22.000Z</time>
      </trkpt>
      <trkpt lat="44.10699" lon="7.02679">
        <ele>1755.5999755859</ele>
        <time>2022-07-23T09:51:24.000Z</time>
      </trkpt>
      <trkpt lat="44.10692" lon="7.02679">
        <ele>1755.1999511719</ele>
        <time>2022-07-23T09:51:25.000Z</time>
      </trkpt>
      <trkpt lat="44.1067" lon="7.02676">
        <ele>1753.5999755859</ele>
        <time>2022-07-23T09:51:28.000Z</time>
      </trkpt>
      <trkpt lat="44.10663" lon="7.02673">
        <ele>1752.5999755859</ele>
        <time>2022-07-23T09:51:29.000Z</time>
      </trkpt>
      <trkpt lat="44.10656" lon="7.02668">
        <ele>1751.5999755859</ele>
        <time>2022-07-23T09:51:30.000Z</time>
      </trkpt>
      <trkpt lat="44.1065" lon="7.02661">
        <ele>1750.5999755859</ele>
        <time>2022-07-23T09:51:31.000Z</time>
      </trkpt>
      <trkpt lat="44.10643" lon="7.02655">
        <ele>1749.1999511719</ele>
        <time>2022-07-23T09:51:32.000Z</time>
      </trkpt>
      <trkpt lat="44.10637" lon="7.0265">
        <ele>1748</ele>
        <time>2022-07-23T09:51:33.000Z</time>
      </trkpt>
      <trkpt lat="44.10631" lon="7.02646">
        <ele>1747.1999511719</ele>
        <time>2022-07-23T09:51:34.000Z</time>
      </trkpt>
      <trkpt lat="44.10625" lon="7.02643">
        <ele>1746</ele>
        <time>2022-07-23T09:51:35.000Z</time>
      </trkpt>
      <trkpt lat="44.10618" lon="7.0264">
        <ele>1745</ele>
        <time>2022-07-23T09:51:36.000Z</time>
      </trkpt>
      <trkpt lat="44.10611" lon="7.02636">
        <ele>1743</ele>
        <time>2022-07-23T09:51:37.000Z</time>
      </trkpt>
      <trkpt lat="44.10604" lon="7.02632">
        <ele>1741.5999755859</ele>
        <time>2022-07-23T09:51:38.000Z</time>
      </trkpt>
      <trkpt lat="44.10597" lon="7.02628">
        <ele>1740.4000244141</ele>
        <time>2022-07-23T09:51:39.000Z</time>
      </trkpt>
      <trkpt lat="44.10581" lon="7.02621">
        <ele>1738.8000488281</ele>
        <time>2022-07-23T09:51:41.000Z</time>
      </trkpt>
      <trkpt lat="44.10573" lon="7.02618">
        <ele>1737.5999755859</ele>
        <time>2022-07-23T09:51:42.000Z</time>
      </trkpt>
      <trkpt lat="44.10556" lon="7.02611">
        <ele>1736.1999511719</ele>
        <time>2022-07-23T09:51:44.000Z</time>
      </trkpt>
      <trkpt lat="44.10548" lon="7.02608">
        <ele>1735.4000244141</ele>
        <time>2022-07-23T09:51:45.000Z</time>
      </trkpt>
      <trkpt lat="44.10539" lon="7.02606">
        <ele>1733.8000488281</ele>
        <time>2022-07-23T09:51:46.000Z</time>
      </trkpt>
      <trkpt lat="44.10521" lon="7.02604">
        <ele>1731.5999755859</ele>
        <time>2022-07-23T09:51:48.000Z</time>
      </trkpt>
      <trkpt lat="44.10513" lon="7.02605">
        <ele>1730</ele>
        <time>2022-07-23T09:51:49.000Z</time>
      </trkpt>
      <trkpt lat="44.10498" lon="7.0261">
        <ele>1727.5999755859</ele>
        <time>2022-07-23T09:51:51.000Z</time>
      </trkpt>
      <trkpt lat="44.1049" lon="7.02613">
        <ele>1726.1999511719</ele>
        <time>2022-07-23T09:51:52.000Z</time>
      </trkpt>
      <trkpt lat="44.10482" lon="7.02615">
        <ele>1724.8000488281</ele>
        <time>2022-07-23T09:51:53.000Z</time>
      </trkpt>
      <trkpt lat="44.10473" lon="7.02617">
        <ele>1723.8000488281</ele>
        <time>2022-07-23T09:51:54.000Z</time>
      </trkpt>
      <trkpt lat="44.10465" lon="7.02619">
        <ele>1722.1999511719</ele>
        <time>2022-07-23T09:51:55.000Z</time>
      </trkpt>
      <trkpt lat="44.10456" lon="7.0262">
        <ele>1721</ele>
        <time>2022-07-23T09:51:56.000Z</time>
      </trkpt>
      <trkpt lat="44.10437" lon="7.0262">
        <ele>1721.5999755859</ele>
        <time>2022-07-23T09:51:58.000Z</time>
      </trkpt>
      <trkpt lat="44.10421" lon="7.02617">
        <ele>1718.5999755859</ele>
        <time>2022-07-23T09:52:00.000Z</time>
      </trkpt>
      <trkpt lat="44.10414" lon="7.02616">
        <ele>1717.1999511719</ele>
        <time>2022-07-23T09:52:01.000Z</time>
      </trkpt>
      <trkpt lat="44.10409" lon="7.02615">
        <ele>1716.4000244141</ele>
        <time>2022-07-23T09:52:02.000Z</time>
      </trkpt>
      <trkpt lat="44.10405" lon="7.02614">
        <ele>1715.4000244141</ele>
        <time>2022-07-23T09:52:03.000Z</time>
      </trkpt>
      <trkpt lat="44.104" lon="7.02611">
        <ele>1714</ele>
        <time>2022-07-23T09:52:05.000Z</time>
      </trkpt>
      <trkpt lat="44.10398" lon="7.02609">
        <ele>1713.5999755859</ele>
        <time>2022-07-23T09:52:06.000Z</time>
      </trkpt>
      <trkpt lat="44.10396" lon="7.02605">
        <ele>1712.8000488281</ele>
        <time>2022-07-23T09:52:08.000Z</time>
      </trkpt>
      <trkpt lat="44.10395" lon="7.02597">
        <ele>1712.1999511719</ele>
        <time>2022-07-23T09:52:10.000Z</time>
      </trkpt>
      <trkpt lat="44.10395" lon="7.02587">
        <ele>1711.4000244141</ele>
        <time>2022-07-23T09:52:12.000Z</time>
      </trkpt>
      <trkpt lat="44.10392" lon="7.02579">
        <ele>1710.4000244141</ele>
        <time>2022-07-23T09:52:14.000Z</time>
      </trkpt>
      <trkpt lat="44.10391" lon="7.02576">
        <ele>1709.5999755859</ele>
        <time>2022-07-23T09:52:18.000Z</time>
      </trkpt>
      <trkpt lat="44.10391" lon="7.02576">
        <ele>1709.4000244141</ele>
        <time>2022-07-23T09:52:20.000Z</time>
      </trkpt>
      <trkpt lat="44.10391" lon="7.02577">
        <ele>1709.4000244141</ele>
        <time>2022-07-23T09:52:26.000Z</time>
      </trkpt>
      <trkpt lat="44.10392" lon="7.02577">
        <ele>1708.4000244141</ele>
        <time>2022-07-23T09:52:36.000Z</time>
      </trkpt>
      <trkpt lat="44.10392" lon="7.02578">
        <ele>1709.4000244141</ele>
        <time>2022-07-23T09:52:47.000Z</time>
      </trkpt>
      <trkpt lat="44.10392" lon="7.02578">
        <ele>1709.5999755859</ele>
        <time>2022-07-23T09:52:48.000Z</time>
      </trkpt>
      <trkpt lat="44.10392" lon="7.02578">
        <ele>1710.4000244141</ele>
        <time>2022-07-23T09:52:55.000Z</time>
      </trkpt>
      <trkpt lat="44.10392" lon="7.02578">
        <ele>1711.4000244141</ele>
        <time>2022-07-23T09:53:01.000Z</time>
      </trkpt>
      <trkpt lat="44.10392" lon="7.02578">
        <ele>1712</ele>
        <time>2022-07-23T09:53:07.000Z</time>
      </trkpt>
      <trkpt lat="44.10392" lon="7.02578">
        <ele>1712</ele>
        <time>2022-07-23T09:53:28.000Z</time>
      </trkpt>
      <trkpt lat="44.10391" lon="7.02576">
        <ele>1712</ele>
        <time>2022-07-23T09:53:49.000Z</time>
      </trkpt>
      <trkpt lat="44.1039" lon="7.02576">
        <ele>1712.1999511719</ele>
        <time>2022-07-23T09:53:58.000Z</time>
      </trkpt>
      <trkpt lat="44.10391" lon="7.02576">
        <ele>1712.4000244141</ele>
        <time>2022-07-23T09:54:04.000Z</time>
      </trkpt>
      <trkpt lat="44.10391" lon="7.02575">
        <ele>1712</ele>
        <time>2022-07-23T09:54:15.000Z</time>
      </trkpt>
      <trkpt lat="44.10391" lon="7.02575">
        <ele>1712.1999511719</ele>
        <time>2022-07-23T09:54:22.000Z</time>
      </trkpt>
      <trkpt lat="44.1039" lon="7.0258">
        <ele>1712.1999511719</ele>
        <time>2022-07-23T09:54:27.000Z</time>
      </trkpt>
      <trkpt lat="44.10391" lon="7.02581">
        <ele>1712.1999511719</ele>
        <time>2022-07-23T09:54:32.000Z</time>
      </trkpt>
      <trkpt lat="44.10391" lon="7.02583">
        <ele>1712.1999511719</ele>
        <time>2022-07-23T09:54:39.000Z</time>
      </trkpt>
      <trkpt lat="44.10394" lon="7.02583">
        <ele>1712.1999511719</ele>
        <time>2022-07-23T09:54:51.000Z</time>
      </trkpt>
      <trkpt lat="44.10394" lon="7.02584">
        <ele>1712</ele>
        <time>2022-07-23T09:54:57.000Z</time>
      </trkpt>
      <trkpt lat="44.10393" lon="7.02584">
        <ele>1712</ele>
        <time>2022-07-23T09:55:05.000Z</time>
      </trkpt>
      <trkpt lat="44.10392" lon="7.02583">
        <ele>1711.8000488281</ele>
        <time>2022-07-23T09:55:10.000Z</time>
      </trkpt>
      <trkpt lat="44.10392" lon="7.02583">
        <ele>1711.8000488281</ele>
        <time>2022-07-23T09:55:15.000Z</time>
      </trkpt>
      <trkpt lat="44.10397" lon="7.02587">
        <ele>1711.8000488281</ele>
        <time>2022-07-23T09:55:22.000Z</time>
      </trkpt>
      <trkpt lat="44.10398" lon="7.02587">
        <ele>1711.5999755859</ele>
        <time>2022-07-23T09:55:27.000Z</time>
      </trkpt>
      <trkpt lat="44.10399" lon="7.02586">
        <ele>1711.5999755859</ele>
        <time>2022-07-23T09:55:32.000Z</time>
      </trkpt>
      <trkpt lat="44.10397" lon="7.02584">
        <ele>1711.8000488281</ele>
        <time>2022-07-23T09:55:37.000Z</time>
      </trkpt>
      <trkpt lat="44.10393" lon="7.02581">
        <ele>1711.5999755859</ele>
        <time>2022-07-23T09:55:43.000Z</time>
      </trkpt>
      <trkpt lat="44.10393" lon="7.0258">
        <ele>1711.5999755859</ele>
        <time>2022-07-23T09:55:48.000Z</time>
      </trkpt>
      <trkpt lat="44.10393" lon="7.02581">
        <ele>1711.8000488281</ele>
        <time>2022-07-23T09:55:49.000Z</time>
      </trkpt>
      <trkpt lat="44.10392" lon="7.02579">
        <ele>1711.8000488281</ele>
        <time>2022-07-23T09:55:53.000Z</time>
      </trkpt>
      <trkpt lat="44.10394" lon="7.02579">
        <ele>1711.5999755859</ele>
        <time>2022-07-23T09:55:57.000Z</time>
      </trkpt>
      <trkpt lat="44.10396" lon="7.02579">
        <ele>1711.5999755859</ele>
        <time>2022-07-23T09:56:03.000Z</time>
      </trkpt>
      <trkpt lat="44.10394" lon="7.02578">
        <ele>1711.5999755859</ele>
        <time>2022-07-23T09:56:05.000Z</time>
      </trkpt>
      <trkpt lat="44.10393" lon="7.02577">
        <ele>1711.5999755859</ele>
        <time>2022-07-23T09:56:08.000Z</time>
      </trkpt>
      <trkpt lat="44.10393" lon="7.02576">
        <ele>1711.5999755859</ele>
        <time>2022-07-23T09:56:14.000Z</time>
      </trkpt>
      <trkpt lat="44.10392" lon="7.02577">
        <ele>1711.5999755859</ele>
        <time>2022-07-23T09:56:19.000Z</time>
      </trkpt>
      <trkpt lat="44.10392" lon="7.02575">
        <ele>1711.5999755859</ele>
        <time>2022-07-23T09:56:27.000Z</time>
      </trkpt>
      <trkpt lat="44.1039" lon="7.02565">
        <ele>1711.4000244141</ele>
        <time>2022-07-23T09:56:32.000Z</time>
      </trkpt>
      <trkpt lat="44.10387" lon="7.02548">
        <ele>1711</ele>
        <time>2022-07-23T09:56:38.000Z</time>
      </trkpt>
      <trkpt lat="44.10383" lon="7.02527">
        <ele>1711</ele>
        <time>2022-07-23T09:56:43.000Z</time>
      </trkpt>
      <trkpt lat="44.10382" lon="7.02521">
        <ele>1710.8000488281</ele>
        <time>2022-07-23T09:56:44.000Z</time>
      </trkpt>
      <trkpt lat="44.10377" lon="7.02505">
        <ele>1710.4000244141</ele>
        <time>2022-07-23T09:56:47.000Z</time>
      </trkpt>
      <trkpt lat="44.10375" lon="7.025">
        <ele>1710.4000244141</ele>
        <time>2022-07-23T09:56:48.000Z</time>
      </trkpt>
      <trkpt lat="44.10371" lon="7.02491">
        <ele>1710.4000244141</ele>
        <time>2022-07-23T09:56:50.000Z</time>
      </trkpt>
      <trkpt lat="44.10368" lon="7.02482">
        <ele>1710.5999755859</ele>
        <time>2022-07-23T09:56:52.000Z</time>
      </trkpt>
      <trkpt lat="44.10363" lon="7.02472">
        <ele>1710.8000488281</ele>
        <time>2022-07-23T09:56:54.000Z</time>
      </trkpt>
      <trkpt lat="44.10356" lon="7.02458">
        <ele>1710.8000488281</ele>
        <time>2022-07-23T09:56:57.000Z</time>
      </trkpt>
      <trkpt lat="44.10343" lon="7.02438">
        <ele>1710.1999511719</ele>
        <time>2022-07-23T09:57:03.000Z</time>
      </trkpt>
      <trkpt lat="44.1034" lon="7.02433">
        <ele>1710</ele>
        <time>2022-07-23T09:57:04.000Z</time>
      </trkpt>
      <trkpt lat="44.10331" lon="7.02416">
        <ele>1709.4000244141</ele>
        <time>2022-07-23T09:57:07.000Z</time>
      </trkpt>
      <trkpt lat="44.10326" lon="7.0241">
        <ele>1709</ele>
        <time>2022-07-23T09:57:08.000Z</time>
      </trkpt>
      <trkpt lat="44.10311" lon="7.02388">
        <ele>1707.4000244141</ele>
        <time>2022-07-23T09:57:11.000Z</time>
      </trkpt>
      <trkpt lat="44.10306" lon="7.02382">
        <ele>1706.5999755859</ele>
        <time>2022-07-23T09:57:12.000Z</time>
      </trkpt>
      <trkpt lat="44.103" lon="7.02376">
        <ele>1705.8000488281</ele>
        <time>2022-07-23T09:57:13.000Z</time>
      </trkpt>
      <trkpt lat="44.10294" lon="7.02371">
        <ele>1704.8000488281</ele>
        <time>2022-07-23T09:57:14.000Z</time>
      </trkpt>
      <trkpt lat="44.10281" lon="7.0236">
        <ele>1703.4000244141</ele>
        <time>2022-07-23T09:57:16.000Z</time>
      </trkpt>
      <trkpt lat="44.10269" lon="7.0235">
        <ele>1702.4000244141</ele>
        <time>2022-07-23T09:57:18.000Z</time>
      </trkpt>
      <trkpt lat="44.10256" lon="7.02339">
        <ele>1701</ele>
        <time>2022-07-23T09:57:20.000Z</time>
      </trkpt>
      <trkpt lat="44.10243" lon="7.02326">
        <ele>1699.4000244141</ele>
        <time>2022-07-23T09:57:22.000Z</time>
      </trkpt>
      <trkpt lat="44.10229" lon="7.02314">
        <ele>1697.5999755859</ele>
        <time>2022-07-23T09:57:24.000Z</time>
      </trkpt>
      <trkpt lat="44.10223" lon="7.0231">
        <ele>1696.8000488281</ele>
        <time>2022-07-23T09:57:25.000Z</time>
      </trkpt>
      <trkpt lat="44.10218" lon="7.02307">
        <ele>1695</ele>
        <time>2022-07-23T09:57:26.000Z</time>
      </trkpt>
      <trkpt lat="44.10214" lon="7.02305">
        <ele>1694</ele>
        <time>2022-07-23T09:57:27.000Z</time>
      </trkpt>
      <trkpt lat="44.10209" lon="7.02303">
        <ele>1692.8000488281</ele>
        <time>2022-07-23T09:57:28.000Z</time>
      </trkpt>
      <trkpt lat="44.10203" lon="7.02301">
        <ele>1691.1999511719</ele>
        <time>2022-07-23T09:57:30.000Z</time>
      </trkpt>
      <trkpt lat="44.10196" lon="7.02299">
        <ele>1691.1999511719</ele>
        <time>2022-07-23T09:57:32.000Z</time>
      </trkpt>
      <trkpt lat="44.10179" lon="7.02293">
        <ele>1691</ele>
        <time>2022-07-23T09:57:36.000Z</time>
      </trkpt>
      <trkpt lat="44.10175" lon="7.02292">
        <ele>1690.4000244141</ele>
        <time>2022-07-23T09:57:37.000Z</time>
      </trkpt>
      <trkpt lat="44.10166" lon="7.02293">
        <ele>1689.4000244141</ele>
        <time>2022-07-23T09:57:39.000Z</time>
      </trkpt>
      <trkpt lat="44.10161" lon="7.02295">
        <ele>1688.5999755859</ele>
        <time>2022-07-23T09:57:40.000Z</time>
      </trkpt>
      <trkpt lat="44.10156" lon="7.02297">
        <ele>1687.5999755859</ele>
        <time>2022-07-23T09:57:41.000Z</time>
      </trkpt>
      <trkpt lat="44.10146" lon="7.023">
        <ele>1686.1999511719</ele>
        <time>2022-07-23T09:57:43.000Z</time>
      </trkpt>
      <trkpt lat="44.10141" lon="7.02302">
        <ele>1685.8000488281</ele>
        <time>2022-07-23T09:57:44.000Z</time>
      </trkpt>
      <trkpt lat="44.10136" lon="7.02305">
        <ele>1685.4000244141</ele>
        <time>2022-07-23T09:57:45.000Z</time>
      </trkpt>
      <trkpt lat="44.1013" lon="7.02308">
        <ele>1684.4000244141</ele>
        <time>2022-07-23T09:57:46.000Z</time>
      </trkpt>
      <trkpt lat="44.10123" lon="7.0231">
        <ele>1683.4000244141</ele>
        <time>2022-07-23T09:57:47.000Z</time>
      </trkpt>
      <trkpt lat="44.10116" lon="7.0231">
        <ele>1682.4000244141</ele>
        <time>2022-07-23T09:57:48.000Z</time>
      </trkpt>
      <trkpt lat="44.10109" lon="7.02309">
        <ele>1681</ele>
        <time>2022-07-23T09:57:49.000Z</time>
      </trkpt>
      <trkpt lat="44.10095" lon="7.02312">
        <ele>1680</ele>
        <time>2022-07-23T09:57:51.000Z</time>
      </trkpt>
      <trkpt lat="44.10088" lon="7.02314">
        <ele>1679.5999755859</ele>
        <time>2022-07-23T09:57:52.000Z</time>
      </trkpt>
      <trkpt lat="44.10081" lon="7.02315">
        <ele>1679.5999755859</ele>
        <time>2022-07-23T09:57:53.000Z</time>
      </trkpt>
      <trkpt lat="44.10068" lon="7.02311">
        <ele>1678.4000244141</ele>
        <time>2022-07-23T09:57:55.000Z</time>
      </trkpt>
      <trkpt lat="44.10056" lon="7.02309">
        <ele>1677.4000244141</ele>
        <time>2022-07-23T09:57:57.000Z</time>
      </trkpt>
      <trkpt lat="44.10051" lon="7.02307">
        <ele>1676.1999511719</ele>
        <time>2022-07-23T09:57:58.000Z</time>
      </trkpt>
      <trkpt lat="44.10046" lon="7.02308">
        <ele>1675.5999755859</ele>
        <time>2022-07-23T09:57:59.000Z</time>
      </trkpt>
      <trkpt lat="44.10043" lon="7.02309">
        <ele>1675</ele>
        <time>2022-07-23T09:58:00.000Z</time>
      </trkpt>
      <trkpt lat="44.10037" lon="7.02312">
        <ele>1673.4000244141</ele>
        <time>2022-07-23T09:58:02.000Z</time>
      </trkpt>
      <trkpt lat="44.10035" lon="7.02314">
        <ele>1672.8000488281</ele>
        <time>2022-07-23T09:58:03.000Z</time>
      </trkpt>
      <trkpt lat="44.10034" lon="7.02318">
        <ele>1672</ele>
        <time>2022-07-23T09:58:04.000Z</time>
      </trkpt>
      <trkpt lat="44.10034" lon="7.02326">
        <ele>1671.1999511719</ele>
        <time>2022-07-23T09:58:06.000Z</time>
      </trkpt>
      <trkpt lat="44.10036" lon="7.02333">
        <ele>1670.4000244141</ele>
        <time>2022-07-23T09:58:08.000Z</time>
      </trkpt>
      <trkpt lat="44.10033" lon="7.02337">
        <ele>1669.8000488281</ele>
        <time>2022-07-23T09:58:10.000Z</time>
      </trkpt>
      <trkpt lat="44.1003" lon="7.02334">
        <ele>1669</ele>
        <time>2022-07-23T09:58:12.000Z</time>
      </trkpt>
      <trkpt lat="44.10029" lon="7.02331">
        <ele>1668.5999755859</ele>
        <time>2022-07-23T09:58:13.000Z</time>
      </trkpt>
      <trkpt lat="44.10024" lon="7.02323">
        <ele>1668</ele>
        <time>2022-07-23T09:58:16.000Z</time>
      </trkpt>
      <trkpt lat="44.10022" lon="7.02318">
        <ele>1667.8000488281</ele>
        <time>2022-07-23T09:58:18.000Z</time>
      </trkpt>
      <trkpt lat="44.10017" lon="7.02312">
        <ele>1667.8000488281</ele>
        <time>2022-07-23T09:58:22.000Z</time>
      </trkpt>
      <trkpt lat="44.10016" lon="7.0231">
        <ele>1668</ele>
        <time>2022-07-23T09:58:24.000Z</time>
      </trkpt>
      <trkpt lat="44.10015" lon="7.02305">
        <ele>1667.8000488281</ele>
        <time>2022-07-23T09:58:26.000Z</time>
      </trkpt>
      <trkpt lat="44.10016" lon="7.02302">
        <ele>1668</ele>
        <time>2022-07-23T09:58:28.000Z</time>
      </trkpt>
      <trkpt lat="44.1002" lon="7.02293">
        <ele>1668</ele>
        <time>2022-07-23T09:58:33.000Z</time>
      </trkpt>
      <trkpt lat="44.10021" lon="7.02285">
        <ele>1668.4000244141</ele>
        <time>2022-07-23T09:58:37.000Z</time>
      </trkpt>
      <trkpt lat="44.1002" lon="7.02283">
        <ele>1668.5999755859</ele>
        <time>2022-07-23T09:58:39.000Z</time>
      </trkpt>
      <trkpt lat="44.1002" lon="7.02281">
        <ele>1668.5999755859</ele>
        <time>2022-07-23T09:58:44.000Z</time>
      </trkpt>
      <trkpt lat="44.10021" lon="7.0228">
        <ele>1669</ele>
        <time>2022-07-23T09:58:54.000Z</time>
      </trkpt>
      <trkpt lat="44.10021" lon="7.02282">
        <ele>1669</ele>
        <time>2022-07-23T09:59:00.000Z</time>
      </trkpt>
      <trkpt lat="44.10022" lon="7.02283">
        <ele>1668.8000488281</ele>
        <time>2022-07-23T09:59:06.000Z</time>
      </trkpt>
      <trkpt lat="44.10023" lon="7.02283">
        <ele>1668.5999755859</ele>
        <time>2022-07-23T09:59:12.000Z</time>
      </trkpt>
      <trkpt lat="44.10023" lon="7.02283">
        <ele>1668.5999755859</ele>
        <time>2022-07-23T09:59:21.000Z</time>
      </trkpt>
      <trkpt lat="44.10022" lon="7.0228">
        <ele>1669</ele>
        <time>2022-07-23T09:59:27.000Z</time>
      </trkpt>
      <trkpt lat="44.10022" lon="7.02279">
        <ele>1669</ele>
        <time>2022-07-23T09:59:33.000Z</time>
      </trkpt>
      <trkpt lat="44.10022" lon="7.02278">
        <ele>1669</ele>
        <time>2022-07-23T09:59:44.000Z</time>
      </trkpt>
      <trkpt lat="44.10022" lon="7.02278">
        <ele>1668.5999755859</ele>
        <time>2022-07-23T09:59:50.000Z</time>
      </trkpt>
      <trkpt lat="44.10023" lon="7.02279">
        <ele>1668.5999755859</ele>
        <time>2022-07-23T09:59:56.000Z</time>
      </trkpt>
      <trkpt lat="44.10023" lon="7.02279">
        <ele>1668.8000488281</ele>
        <time>2022-07-23T10:00:09.000Z</time>
      </trkpt>
      <trkpt lat="44.10024" lon="7.02279">
        <ele>1668.5999755859</ele>
        <time>2022-07-23T10:00:23.000Z</time>
      </trkpt>
      <trkpt lat="44.10025" lon="7.02279">
        <ele>1668.5999755859</ele>
        <time>2022-07-23T10:00:38.000Z</time>
      </trkpt>
      <trkpt lat="44.10026" lon="7.02279">
        <ele>1668.5999755859</ele>
        <time>2022-07-23T10:00:48.000Z</time>
      </trkpt>
      <trkpt lat="44.10026" lon="7.02279">
        <ele>1669</ele>
        <time>2022-07-23T10:00:54.000Z</time>
      </trkpt>
      <trkpt lat="44.10027" lon="7.02281">
        <ele>1669</ele>
        <time>2022-07-23T10:01:00.000Z</time>
      </trkpt>
      <trkpt lat="44.10028" lon="7.02281">
        <ele>1668.8000488281</ele>
        <time>2022-07-23T10:01:08.000Z</time>
      </trkpt>
      <trkpt lat="44.10028" lon="7.02281">
        <ele>1668.8000488281</ele>
        <time>2022-07-23T10:01:15.000Z</time>
      </trkpt>
      <trkpt lat="44.10027" lon="7.02281">
        <ele>1669.4000244141</ele>
        <time>2022-07-23T10:01:21.000Z</time>
      </trkpt>
      <trkpt lat="44.10027" lon="7.02282">
        <ele>1669</ele>
        <time>2022-07-23T10:01:30.000Z</time>
      </trkpt>
      <trkpt lat="44.10026" lon="7.02282">
        <ele>1669.4000244141</ele>
        <time>2022-07-23T10:01:38.000Z</time>
      </trkpt>
      <trkpt lat="44.10026" lon="7.02283">
        <ele>1669.1999511719</ele>
        <time>2022-07-23T10:01:47.000Z</time>
      </trkpt>
      <trkpt lat="44.10026" lon="7.02282">
        <ele>1668.4000244141</ele>
        <time>2022-07-23T10:01:52.000Z</time>
      </trkpt>
      <trkpt lat="44.10026" lon="7.02281">
        <ele>1669</ele>
        <time>2022-07-23T10:02:01.000Z</time>
      </trkpt>
      <trkpt lat="44.10025" lon="7.02281">
        <ele>1668.5999755859</ele>
        <time>2022-07-23T10:02:11.000Z</time>
      </trkpt>
      <trkpt lat="44.10025" lon="7.0228">
        <ele>1668.1999511719</ele>
        <time>2022-07-23T10:02:26.000Z</time>
      </trkpt>
      <trkpt lat="44.10025" lon="7.0228">
        <ele>1668.1999511719</ele>
        <time>2022-07-23T10:02:38.000Z</time>
      </trkpt>
      <trkpt lat="44.10024" lon="7.0228">
        <ele>1668.8000488281</ele>
        <time>2022-07-23T10:02:48.000Z</time>
      </trkpt>
      <trkpt lat="44.10024" lon="7.02281">
        <ele>1668.8000488281</ele>
        <time>2022-07-23T10:02:57.000Z</time>
      </trkpt>
      <trkpt lat="44.10022" lon="7.02281">
        <ele>1668.8000488281</ele>
        <time>2022-07-23T10:03:03.000Z</time>
      </trkpt>
      <trkpt lat="44.10023" lon="7.0228">
        <ele>1668.4000244141</ele>
        <time>2022-07-23T10:03:09.000Z</time>
      </trkpt>
      <trkpt lat="44.10023" lon="7.02279">
        <ele>1668.4000244141</ele>
        <time>2022-07-23T10:03:16.000Z</time>
      </trkpt>
      <trkpt lat="44.10021" lon="7.0228">
        <ele>1668.1999511719</ele>
        <time>2022-07-23T10:03:28.000Z</time>
      </trkpt>
      <trkpt lat="44.10019" lon="7.02279">
        <ele>1668.4000244141</ele>
        <time>2022-07-23T10:03:31.000Z</time>
      </trkpt>
      <trkpt lat="44.10019" lon="7.02279">
        <ele>1668.4000244141</ele>
        <time>2022-07-23T10:03:33.000Z</time>
      </trkpt>
      <trkpt lat="44.10018" lon="7.02279">
        <ele>1668.5999755859</ele>
        <time>2022-07-23T10:03:41.000Z</time>
      </trkpt>
      <trkpt lat="44.10017" lon="7.02278">
        <ele>1668.5999755859</ele>
        <time>2022-07-23T10:03:46.000Z</time>
      </trkpt>
      <trkpt lat="44.10016" lon="7.02278">
        <ele>1668.5999755859</ele>
        <time>2022-07-23T10:03:48.000Z</time>
      </trkpt>
      <trkpt lat="44.10012" lon="7.02275">
        <ele>1668.8000488281</ele>
        <time>2022-07-23T10:03:51.000Z</time>
      </trkpt>
      <trkpt lat="44.10013" lon="7.02263">
        <ele>1668.5999755859</ele>
        <time>2022-07-23T10:03:56.000Z</time>
      </trkpt>
      <trkpt lat="44.10019" lon="7.02261">
        <ele>1668</ele>
        <time>2022-07-23T10:03:58.000Z</time>
      </trkpt>
      <trkpt lat="44.10023" lon="7.02262">
        <ele>1667.5999755859</ele>
        <time>2022-07-23T10:03:59.000Z</time>
      </trkpt>
      <trkpt lat="44.10028" lon="7.02263">
        <ele>1666.8000488281</ele>
        <time>2022-07-23T10:04:00.000Z</time>
      </trkpt>
      <trkpt lat="44.10033" lon="7.02264">
        <ele>1666</ele>
        <time>2022-07-23T10:04:01.000Z</time>
      </trkpt>
      <trkpt lat="44.10037" lon="7.02263">
        <ele>1665</ele>
        <time>2022-07-23T10:04:02.000Z</time>
      </trkpt>
      <trkpt lat="44.10041" lon="7.02261">
        <ele>1664</ele>
        <time>2022-07-23T10:04:03.000Z</time>
      </trkpt>
      <trkpt lat="44.10046" lon="7.02259">
        <ele>1662.8000488281</ele>
        <time>2022-07-23T10:04:04.000Z</time>
      </trkpt>
      <trkpt lat="44.10064" lon="7.0225">
        <ele>1662.8000488281</ele>
        <time>2022-07-23T10:04:07.000Z</time>
      </trkpt>
      <trkpt lat="44.10075" lon="7.02245">
        <ele>1661.5999755859</ele>
        <time>2022-07-23T10:04:09.000Z</time>
      </trkpt>
      <trkpt lat="44.10079" lon="7.02241">
        <ele>1660.5999755859</ele>
        <time>2022-07-23T10:04:10.000Z</time>
      </trkpt>
      <trkpt lat="44.10085" lon="7.02238">
        <ele>1659.4000244141</ele>
        <time>2022-07-23T10:04:11.000Z</time>
      </trkpt>
      <trkpt lat="44.10094" lon="7.02228">
        <ele>1657.5999755859</ele>
        <time>2022-07-23T10:04:13.000Z</time>
      </trkpt>
      <trkpt lat="44.101" lon="7.02223">
        <ele>1657</ele>
        <time>2022-07-23T10:04:14.000Z</time>
      </trkpt>
      <trkpt lat="44.10104" lon="7.02219">
        <ele>1656</ele>
        <time>2022-07-23T10:04:15.000Z</time>
      </trkpt>
      <trkpt lat="44.10111" lon="7.02212">
        <ele>1655</ele>
        <time>2022-07-23T10:04:16.000Z</time>
      </trkpt>
      <trkpt lat="44.10116" lon="7.02205">
        <ele>1653.8000488281</ele>
        <time>2022-07-23T10:04:17.000Z</time>
      </trkpt>
      <trkpt lat="44.1012" lon="7.02197">
        <ele>1652.5999755859</ele>
        <time>2022-07-23T10:04:18.000Z</time>
      </trkpt>
      <trkpt lat="44.10124" lon="7.02189">
        <ele>1651</ele>
        <time>2022-07-23T10:04:19.000Z</time>
      </trkpt>
      <trkpt lat="44.10127" lon="7.02181">
        <ele>1649.8000488281</ele>
        <time>2022-07-23T10:04:20.000Z</time>
      </trkpt>
      <trkpt lat="44.10131" lon="7.02175">
        <ele>1649.1999511719</ele>
        <time>2022-07-23T10:04:21.000Z</time>
      </trkpt>
      <trkpt lat="44.10136" lon="7.02171">
        <ele>1648.4000244141</ele>
        <time>2022-07-23T10:04:22.000Z</time>
      </trkpt>
      <trkpt lat="44.10147" lon="7.02166">
        <ele>1647.1999511719</ele>
        <time>2022-07-23T10:04:24.000Z</time>
      </trkpt>
      <trkpt lat="44.10152" lon="7.02164">
        <ele>1646.5999755859</ele>
        <time>2022-07-23T10:04:25.000Z</time>
      </trkpt>
      <trkpt lat="44.1016" lon="7.02161">
        <ele>1645.5999755859</ele>
        <time>2022-07-23T10:04:26.000Z</time>
      </trkpt>
      <trkpt lat="44.10166" lon="7.02158">
        <ele>1644.4000244141</ele>
        <time>2022-07-23T10:04:27.000Z</time>
      </trkpt>
      <trkpt lat="44.10173" lon="7.02155">
        <ele>1643.1999511719</ele>
        <time>2022-07-23T10:04:28.000Z</time>
      </trkpt>
      <trkpt lat="44.1018" lon="7.02154">
        <ele>1641.5999755859</ele>
        <time>2022-07-23T10:04:29.000Z</time>
      </trkpt>
      <trkpt lat="44.10187" lon="7.02152">
        <ele>1640.4000244141</ele>
        <time>2022-07-23T10:04:30.000Z</time>
      </trkpt>
      <trkpt lat="44.10194" lon="7.02148">
        <ele>1639.1999511719</ele>
        <time>2022-07-23T10:04:31.000Z</time>
      </trkpt>
      <trkpt lat="44.10205" lon="7.02139">
        <ele>1637.5999755859</ele>
        <time>2022-07-23T10:04:33.000Z</time>
      </trkpt>
      <trkpt lat="44.1021" lon="7.02135">
        <ele>1637.4000244141</ele>
        <time>2022-07-23T10:04:34.000Z</time>
      </trkpt>
      <trkpt lat="44.10216" lon="7.02119">
        <ele>1637.4000244141</ele>
        <time>2022-07-23T10:04:37.000Z</time>
      </trkpt>
      <trkpt lat="44.10216" lon="7.02108">
        <ele>1637.4000244141</ele>
        <time>2022-07-23T10:04:40.000Z</time>
      </trkpt>
      <trkpt lat="44.10213" lon="7.02098">
        <ele>1638.1999511719</ele>
        <time>2022-07-23T10:04:45.000Z</time>
      </trkpt>
      <trkpt lat="44.1021" lon="7.02096">
        <ele>1638.1999511719</ele>
        <time>2022-07-23T10:04:46.000Z</time>
      </trkpt>
      <trkpt lat="44.10208" lon="7.02094">
        <ele>1639</ele>
        <time>2022-07-23T10:04:47.000Z</time>
      </trkpt>
      <trkpt lat="44.10205" lon="7.02088">
        <ele>1640</ele>
        <time>2022-07-23T10:04:49.000Z</time>
      </trkpt>
      <trkpt lat="44.10206" lon="7.02085">
        <ele>1640.4000244141</ele>
        <time>2022-07-23T10:04:50.000Z</time>
      </trkpt>
      <trkpt lat="44.10215" lon="7.02085">
        <ele>1641</ele>
        <time>2022-07-23T10:04:53.000Z</time>
      </trkpt>
      <trkpt lat="44.1022" lon="7.02087">
        <ele>1641.1999511719</ele>
        <time>2022-07-23T10:04:55.000Z</time>
      </trkpt>
      <trkpt lat="44.10225" lon="7.02085">
        <ele>1641.1999511719</ele>
        <time>2022-07-23T10:04:57.000Z</time>
      </trkpt>
      <trkpt lat="44.10219" lon="7.02078">
        <ele>1641.4000244141</ele>
        <time>2022-07-23T10:05:00.000Z</time>
      </trkpt>
      <trkpt lat="44.10208" lon="7.02075">
        <ele>1641.8000488281</ele>
        <time>2022-07-23T10:05:03.000Z</time>
      </trkpt>
      <trkpt lat="44.10202" lon="7.02071">
        <ele>1642.1999511719</ele>
        <time>2022-07-23T10:05:05.000Z</time>
      </trkpt>
      <trkpt lat="44.10194" lon="7.02065">
        <ele>1643.5999755859</ele>
        <time>2022-07-23T10:05:08.000Z</time>
      </trkpt>
      <trkpt lat="44.1019" lon="7.02061">
        <ele>1644.8000488281</ele>
        <time>2022-07-23T10:05:10.000Z</time>
      </trkpt>
      <trkpt lat="44.10187" lon="7.02056">
        <ele>1646.1999511719</ele>
        <time>2022-07-23T10:05:12.000Z</time>
      </trkpt>
      <trkpt lat="44.10184" lon="7.0205">
        <ele>1647.1999511719</ele>
        <time>2022-07-23T10:05:14.000Z</time>
      </trkpt>
      <trkpt lat="44.10181" lon="7.02045">
        <ele>1648.4000244141</ele>
        <time>2022-07-23T10:05:16.000Z</time>
      </trkpt>
      <trkpt lat="44.10177" lon="7.02039">
        <ele>1649.4000244141</ele>
        <time>2022-07-23T10:05:18.000Z</time>
      </trkpt>
      <trkpt lat="44.10175" lon="7.02028">
        <ele>1650.8000488281</ele>
        <time>2022-07-23T10:05:21.000Z</time>
      </trkpt>
      <trkpt lat="44.10176" lon="7.02011">
        <ele>1651.8000488281</ele>
        <time>2022-07-23T10:05:26.000Z</time>
      </trkpt>
      <trkpt lat="44.10177" lon="7.02005">
        <ele>1652.1999511719</ele>
        <time>2022-07-23T10:05:28.000Z</time>
      </trkpt>
      <trkpt lat="44.10181" lon="7.01995">
        <ele>1652.8000488281</ele>
        <time>2022-07-23T10:05:31.000Z</time>
      </trkpt>
      <trkpt lat="44.10182" lon="7.01992">
        <ele>1653</ele>
        <time>2022-07-23T10:05:32.000Z</time>
      </trkpt>
      <trkpt lat="44.10189" lon="7.01978">
        <ele>1654</ele>
        <time>2022-07-23T10:05:37.000Z</time>
      </trkpt>
      <trkpt lat="44.10193" lon="7.01969">
        <ele>1655.4000244141</ele>
        <time>2022-07-23T10:05:40.000Z</time>
      </trkpt>
      <trkpt lat="44.10195" lon="7.01963">
        <ele>1656</ele>
        <time>2022-07-23T10:05:42.000Z</time>
      </trkpt>
      <trkpt lat="44.10196" lon="7.0196">
        <ele>1656.5999755859</ele>
        <time>2022-07-23T10:05:43.000Z</time>
      </trkpt>
      <trkpt lat="44.10197" lon="7.01953">
        <ele>1657.8000488281</ele>
        <time>2022-07-23T10:05:45.000Z</time>
      </trkpt>
      <trkpt lat="44.10196" lon="7.01941">
        <ele>1658.8000488281</ele>
        <time>2022-07-23T10:05:48.000Z</time>
      </trkpt>
      <trkpt lat="44.102" lon="7.0193">
        <ele>1659.8000488281</ele>
        <time>2022-07-23T10:05:52.000Z</time>
      </trkpt>
      <trkpt lat="44.10201" lon="7.01928">
        <ele>1660.1999511719</ele>
        <time>2022-07-23T10:05:53.000Z</time>
      </trkpt>
      <trkpt lat="44.10202" lon="7.01922">
        <ele>1660.8000488281</ele>
        <time>2022-07-23T10:05:55.000Z</time>
      </trkpt>
      <trkpt lat="44.10205" lon="7.01917">
        <ele>1661.5999755859</ele>
        <time>2022-07-23T10:05:57.000Z</time>
      </trkpt>
      <trkpt lat="44.10205" lon="7.01915">
        <ele>1661.8000488281</ele>
        <time>2022-07-23T10:05:58.000Z</time>
      </trkpt>
      <trkpt lat="44.10204" lon="7.01914">
        <ele>1662</ele>
        <time>2022-07-23T10:05:59.000Z</time>
      </trkpt>
      <trkpt lat="44.10202" lon="7.01909">
        <ele>1662.5999755859</ele>
        <time>2022-07-23T10:06:01.000Z</time>
      </trkpt>
      <trkpt lat="44.102" lon="7.01905">
        <ele>1663.1999511719</ele>
        <time>2022-07-23T10:06:03.000Z</time>
      </trkpt>
      <trkpt lat="44.10199" lon="7.01904">
        <ele>1664</ele>
        <time>2022-07-23T10:06:04.000Z</time>
      </trkpt>
      <trkpt lat="44.10197" lon="7.01903">
        <ele>1664.5999755859</ele>
        <time>2022-07-23T10:06:05.000Z</time>
      </trkpt>
      <trkpt lat="44.10195" lon="7.01902">
        <ele>1665</ele>
        <time>2022-07-23T10:06:06.000Z</time>
      </trkpt>
      <trkpt lat="44.10191" lon="7.019">
        <ele>1666</ele>
        <time>2022-07-23T10:06:08.000Z</time>
      </trkpt>
      <trkpt lat="44.10182" lon="7.01897">
        <ele>1667</ele>
        <time>2022-07-23T10:06:12.000Z</time>
      </trkpt>
      <trkpt lat="44.10174" lon="7.01895">
        <ele>1668.4000244141</ele>
        <time>2022-07-23T10:06:16.000Z</time>
      </trkpt>
      <trkpt lat="44.10168" lon="7.01893">
        <ele>1669.4000244141</ele>
        <time>2022-07-23T10:06:19.000Z</time>
      </trkpt>
      <trkpt lat="44.10166" lon="7.01892">
        <ele>1669.8000488281</ele>
        <time>2022-07-23T10:06:20.000Z</time>
      </trkpt>
      <trkpt lat="44.10163" lon="7.01888">
        <ele>1670.4000244141</ele>
        <time>2022-07-23T10:06:22.000Z</time>
      </trkpt>
      <trkpt lat="44.1016" lon="7.01881">
        <ele>1671.5999755859</ele>
        <time>2022-07-23T10:06:25.000Z</time>
      </trkpt>
      <trkpt lat="44.10155" lon="7.01868">
        <ele>1672.4000244141</ele>
        <time>2022-07-23T10:06:30.000Z</time>
      </trkpt>
      <trkpt lat="44.10155" lon="7.01865">
        <ele>1672.8000488281</ele>
        <time>2022-07-23T10:06:31.000Z</time>
      </trkpt>
      <trkpt lat="44.10156" lon="7.01857">
        <ele>1673.8000488281</ele>
        <time>2022-07-23T10:06:34.000Z</time>
      </trkpt>
      <trkpt lat="44.10157" lon="7.01852">
        <ele>1674.8000488281</ele>
        <time>2022-07-23T10:06:36.000Z</time>
      </trkpt>
      <trkpt lat="44.10159" lon="7.0185">
        <ele>1675.1999511719</ele>
        <time>2022-07-23T10:06:37.000Z</time>
      </trkpt>
      <trkpt lat="44.10168" lon="7.0184">
        <ele>1675.8000488281</ele>
        <time>2022-07-23T10:06:42.000Z</time>
      </trkpt>
      <trkpt lat="44.10171" lon="7.01836">
        <ele>1676.4000244141</ele>
        <time>2022-07-23T10:06:44.000Z</time>
      </trkpt>
      <trkpt lat="44.10181" lon="7.01827">
        <ele>1677.5999755859</ele>
        <time>2022-07-23T10:06:49.000Z</time>
      </trkpt>
      <trkpt lat="44.10185" lon="7.01824">
        <ele>1678</ele>
        <time>2022-07-23T10:06:51.000Z</time>
      </trkpt>
      <trkpt lat="44.1019" lon="7.01818">
        <ele>1678.8000488281</ele>
        <time>2022-07-23T10:06:54.000Z</time>
      </trkpt>
      <trkpt lat="44.10194" lon="7.01812">
        <ele>1679.5999755859</ele>
        <time>2022-07-23T10:06:57.000Z</time>
      </trkpt>
      <trkpt lat="44.10196" lon="7.0181">
        <ele>1680</ele>
        <time>2022-07-23T10:06:58.000Z</time>
      </trkpt>
      <trkpt lat="44.10203" lon="7.018">
        <ele>1681.1999511719</ele>
        <time>2022-07-23T10:07:02.000Z</time>
      </trkpt>
      <trkpt lat="44.10205" lon="7.01798">
        <ele>1681.4000244141</ele>
        <time>2022-07-23T10:07:03.000Z</time>
      </trkpt>
      <trkpt lat="44.10212" lon="7.01787">
        <ele>1682.1999511719</ele>
        <time>2022-07-23T10:07:07.000Z</time>
      </trkpt>
      <trkpt lat="44.1022" lon="7.01775">
        <ele>1683.4000244141</ele>
        <time>2022-07-23T10:07:11.000Z</time>
      </trkpt>
      <trkpt lat="44.10227" lon="7.01767">
        <ele>1684.5999755859</ele>
        <time>2022-07-23T10:07:15.000Z</time>
      </trkpt>
      <trkpt lat="44.10231" lon="7.01763">
        <ele>1685.4000244141</ele>
        <time>2022-07-23T10:07:17.000Z</time>
      </trkpt>
      <trkpt lat="44.10232" lon="7.01762">
        <ele>1685.8000488281</ele>
        <time>2022-07-23T10:07:18.000Z</time>
      </trkpt>
      <trkpt lat="44.10237" lon="7.01757">
        <ele>1686.8000488281</ele>
        <time>2022-07-23T10:07:21.000Z</time>
      </trkpt>
      <trkpt lat="44.10246" lon="7.01743">
        <ele>1687.8000488281</ele>
        <time>2022-07-23T10:07:26.000Z</time>
      </trkpt>
      <trkpt lat="44.10248" lon="7.0174">
        <ele>1687.8000488281</ele>
        <time>2022-07-23T10:07:27.000Z</time>
      </trkpt>
      <trkpt lat="44.10258" lon="7.0173">
        <ele>1688.5999755859</ele>
        <time>2022-07-23T10:07:31.000Z</time>
      </trkpt>
      <trkpt lat="44.1026" lon="7.01727">
        <ele>1689</ele>
        <time>2022-07-23T10:07:32.000Z</time>
      </trkpt>
      <trkpt lat="44.10266" lon="7.01717">
        <ele>1690.1999511719</ele>
        <time>2022-07-23T10:07:35.000Z</time>
      </trkpt>
      <trkpt lat="44.10269" lon="7.01714">
        <ele>1690.5999755859</ele>
        <time>2022-07-23T10:07:36.000Z</time>
      </trkpt>
      <trkpt lat="44.10278" lon="7.01704">
        <ele>1691.1999511719</ele>
        <time>2022-07-23T10:07:40.000Z</time>
      </trkpt>
      <trkpt lat="44.1028" lon="7.01702">
        <ele>1691.1999511719</ele>
        <time>2022-07-23T10:07:41.000Z</time>
      </trkpt>
      <trkpt lat="44.10292" lon="7.01685">
        <ele>1692.4000244141</ele>
        <time>2022-07-23T10:07:46.000Z</time>
      </trkpt>
      <trkpt lat="44.10298" lon="7.01665">
        <ele>1693</ele>
        <time>2022-07-23T10:07:51.000Z</time>
      </trkpt>
      <trkpt lat="44.10306" lon="7.0164">
        <ele>1692.4000244141</ele>
        <time>2022-07-23T10:07:56.000Z</time>
      </trkpt>
      <trkpt lat="44.10312" lon="7.01612">
        <ele>1691.4000244141</ele>
        <time>2022-07-23T10:08:01.000Z</time>
      </trkpt>
      <trkpt lat="44.10314" lon="7.01605">
        <ele>1691.1999511719</ele>
        <time>2022-07-23T10:08:02.000Z</time>
      </trkpt>
      <trkpt lat="44.10316" lon="7.01598">
        <ele>1691</ele>
        <time>2022-07-23T10:08:03.000Z</time>
      </trkpt>
      <trkpt lat="44.1032" lon="7.01586">
        <ele>1690.4000244141</ele>
        <time>2022-07-23T10:08:05.000Z</time>
      </trkpt>
      <trkpt lat="44.10322" lon="7.01582">
        <ele>1689.8000488281</ele>
        <time>2022-07-23T10:08:06.000Z</time>
      </trkpt>
      <trkpt lat="44.10326" lon="7.01574">
        <ele>1689</ele>
        <time>2022-07-23T10:08:08.000Z</time>
      </trkpt>
      <trkpt lat="44.10331" lon="7.01564">
        <ele>1688.8000488281</ele>
        <time>2022-07-23T10:08:10.000Z</time>
      </trkpt>
      <trkpt lat="44.10334" lon="7.01559">
        <ele>1688.8000488281</ele>
        <time>2022-07-23T10:08:11.000Z</time>
      </trkpt>
      <trkpt lat="44.10342" lon="7.01549">
        <ele>1688.5999755859</ele>
        <time>2022-07-23T10:08:13.000Z</time>
      </trkpt>
      <trkpt lat="44.10361" lon="7.01528">
        <ele>1687.1999511719</ele>
        <time>2022-07-23T10:08:17.000Z</time>
      </trkpt>
      <trkpt lat="44.10366" lon="7.01523">
        <ele>1686.8000488281</ele>
        <time>2022-07-23T10:08:18.000Z</time>
      </trkpt>
      <trkpt lat="44.10371" lon="7.01519">
        <ele>1686.4000244141</ele>
        <time>2022-07-23T10:08:19.000Z</time>
      </trkpt>
      <trkpt lat="44.10376" lon="7.01515">
        <ele>1686</ele>
        <time>2022-07-23T10:08:20.000Z</time>
      </trkpt>
      <trkpt lat="44.10385" lon="7.01506">
        <ele>1685.1999511719</ele>
        <time>2022-07-23T10:08:22.000Z</time>
      </trkpt>
      <trkpt lat="44.10388" lon="7.015">
        <ele>1684.8000488281</ele>
        <time>2022-07-23T10:08:23.000Z</time>
      </trkpt>
      <trkpt lat="44.10393" lon="7.01482">
        <ele>1685.1999511719</ele>
        <time>2022-07-23T10:08:27.000Z</time>
      </trkpt>
      <trkpt lat="44.10394" lon="7.01472">
        <ele>1686</ele>
        <time>2022-07-23T10:08:29.000Z</time>
      </trkpt>
      <trkpt lat="44.1039" lon="7.01462">
        <ele>1686.5999755859</ele>
        <time>2022-07-23T10:08:32.000Z</time>
      </trkpt>
      <trkpt lat="44.10387" lon="7.01454">
        <ele>1687.1999511719</ele>
        <time>2022-07-23T10:08:34.000Z</time>
      </trkpt>
      <trkpt lat="44.10381" lon="7.01441">
        <ele>1688.4000244141</ele>
        <time>2022-07-23T10:08:37.000Z</time>
      </trkpt>
      <trkpt lat="44.10374" lon="7.01431">
        <ele>1689.5999755859</ele>
        <time>2022-07-23T10:08:40.000Z</time>
      </trkpt>
      <trkpt lat="44.10372" lon="7.01427">
        <ele>1690.1999511719</ele>
        <time>2022-07-23T10:08:41.000Z</time>
      </trkpt>
      <trkpt lat="44.1037" lon="7.01424">
        <ele>1690.5999755859</ele>
        <time>2022-07-23T10:08:42.000Z</time>
      </trkpt>
      <trkpt lat="44.10364" lon="7.01416">
        <ele>1692</ele>
        <time>2022-07-23T10:08:45.000Z</time>
      </trkpt>
      <trkpt lat="44.10362" lon="7.01412">
        <ele>1692.5999755859</ele>
        <time>2022-07-23T10:08:46.000Z</time>
      </trkpt>
      <trkpt lat="44.1036" lon="7.01408">
        <ele>1693.1999511719</ele>
        <time>2022-07-23T10:08:47.000Z</time>
      </trkpt>
      <trkpt lat="44.10357" lon="7.01397">
        <ele>1694.4000244141</ele>
        <time>2022-07-23T10:08:51.000Z</time>
      </trkpt>
      <trkpt lat="44.10357" lon="7.01394">
        <ele>1695.8000488281</ele>
        <time>2022-07-23T10:08:54.000Z</time>
      </trkpt>
      <trkpt lat="44.10357" lon="7.01391">
        <ele>1696.1999511719</ele>
        <time>2022-07-23T10:08:56.000Z</time>
      </trkpt>
      <trkpt lat="44.10356" lon="7.01378">
        <ele>1696.8000488281</ele>
        <time>2022-07-23T10:09:00.000Z</time>
      </trkpt>
      <trkpt lat="44.10356" lon="7.01373">
        <ele>1697</ele>
        <time>2022-07-23T10:09:01.000Z</time>
      </trkpt>
      <trkpt lat="44.10355" lon="7.01353">
        <ele>1697.8000488281</ele>
        <time>2022-07-23T10:09:06.000Z</time>
      </trkpt>
      <trkpt lat="44.10355" lon="7.0135">
        <ele>1698.1999511719</ele>
        <time>2022-07-23T10:09:07.000Z</time>
      </trkpt>
      <trkpt lat="44.10355" lon="7.01341">
        <ele>1699.1999511719</ele>
        <time>2022-07-23T10:09:10.000Z</time>
      </trkpt>
      <trkpt lat="44.10356" lon="7.01339">
        <ele>1699.5999755859</ele>
        <time>2022-07-23T10:09:11.000Z</time>
      </trkpt>
      <trkpt lat="44.10357" lon="7.01338">
        <ele>1700</ele>
        <time>2022-07-23T10:09:16.000Z</time>
      </trkpt>
      <trkpt lat="44.10357" lon="7.01338">
        <ele>1700.1999511719</ele>
        <time>2022-07-23T10:09:23.000Z</time>
      </trkpt>
      <trkpt lat="44.10356" lon="7.01337">
        <ele>1700</ele>
        <time>2022-07-23T10:09:39.000Z</time>
      </trkpt>
      <trkpt lat="44.10357" lon="7.01332">
        <ele>1700</ele>
        <time>2022-07-23T10:09:44.000Z</time>
      </trkpt>
      <trkpt lat="44.10362" lon="7.01318">
        <ele>1700</ele>
        <time>2022-07-23T10:09:48.000Z</time>
      </trkpt>
      <trkpt lat="44.1038" lon="7.01289">
        <ele>1698.8000488281</ele>
        <time>2022-07-23T10:09:55.000Z</time>
      </trkpt>
      <trkpt lat="44.10386" lon="7.01283">
        <ele>1698.1999511719</ele>
        <time>2022-07-23T10:09:57.000Z</time>
      </trkpt>
      <trkpt lat="44.10394" lon="7.0128">
        <ele>1697.5999755859</ele>
        <time>2022-07-23T10:09:59.000Z</time>
      </trkpt>
      <trkpt lat="44.10397" lon="7.01278">
        <ele>1697.1999511719</ele>
        <time>2022-07-23T10:10:00.000Z</time>
      </trkpt>
      <trkpt lat="44.10398" lon="7.01275">
        <ele>1696.4000244141</ele>
        <time>2022-07-23T10:10:01.000Z</time>
      </trkpt>
      <trkpt lat="44.10399" lon="7.01271">
        <ele>1696</ele>
        <time>2022-07-23T10:10:02.000Z</time>
      </trkpt>
      <trkpt lat="44.10401" lon="7.01263">
        <ele>1695</ele>
        <time>2022-07-23T10:10:04.000Z</time>
      </trkpt>
      <trkpt lat="44.10403" lon="7.0126">
        <ele>1694.5999755859</ele>
        <time>2022-07-23T10:10:05.000Z</time>
      </trkpt>
      <trkpt lat="44.10406" lon="7.01252">
        <ele>1693.8000488281</ele>
        <time>2022-07-23T10:10:07.000Z</time>
      </trkpt>
      <trkpt lat="44.10406" lon="7.01243">
        <ele>1692.8000488281</ele>
        <time>2022-07-23T10:10:09.000Z</time>
      </trkpt>
      <trkpt lat="44.10407" lon="7.01238">
        <ele>1692.5999755859</ele>
        <time>2022-07-23T10:10:10.000Z</time>
      </trkpt>
      <trkpt lat="44.10409" lon="7.01232">
        <ele>1693</ele>
        <time>2022-07-23T10:10:11.000Z</time>
      </trkpt>
      <trkpt lat="44.10419" lon="7.01221">
        <ele>1692.4000244141</ele>
        <time>2022-07-23T10:10:14.000Z</time>
      </trkpt>
      <trkpt lat="44.10423" lon="7.01219">
        <ele>1691.8000488281</ele>
        <time>2022-07-23T10:10:15.000Z</time>
      </trkpt>
      <trkpt lat="44.10427" lon="7.01215">
        <ele>1691.1999511719</ele>
        <time>2022-07-23T10:10:16.000Z</time>
      </trkpt>
      <trkpt lat="44.10433" lon="7.01203">
        <ele>1690</ele>
        <time>2022-07-23T10:10:18.000Z</time>
      </trkpt>
      <trkpt lat="44.10439" lon="7.01193">
        <ele>1689</ele>
        <time>2022-07-23T10:10:20.000Z</time>
      </trkpt>
      <trkpt lat="44.10442" lon="7.01184">
        <ele>1687.8000488281</ele>
        <time>2022-07-23T10:10:22.000Z</time>
      </trkpt>
      <trkpt lat="44.10444" lon="7.01179">
        <ele>1687.1999511719</ele>
        <time>2022-07-23T10:10:23.000Z</time>
      </trkpt>
      <trkpt lat="44.10446" lon="7.01175">
        <ele>1686.5999755859</ele>
        <time>2022-07-23T10:10:24.000Z</time>
      </trkpt>
      <trkpt lat="44.10447" lon="7.0117">
        <ele>1686</ele>
        <time>2022-07-23T10:10:25.000Z</time>
      </trkpt>
      <trkpt lat="44.10448" lon="7.01166">
        <ele>1685.1999511719</ele>
        <time>2022-07-23T10:10:26.000Z</time>
      </trkpt>
      <trkpt lat="44.10451" lon="7.01151">
        <ele>1684</ele>
        <time>2022-07-23T10:10:28.000Z</time>
      </trkpt>
      <trkpt lat="44.10455" lon="7.01145">
        <ele>1682.8000488281</ele>
        <time>2022-07-23T10:10:29.000Z</time>
      </trkpt>
      <trkpt lat="44.10458" lon="7.01139">
        <ele>1681.4000244141</ele>
        <time>2022-07-23T10:10:30.000Z</time>
      </trkpt>
      <trkpt lat="44.10461" lon="7.01133">
        <ele>1680</ele>
        <time>2022-07-23T10:10:31.000Z</time>
      </trkpt>
      <trkpt lat="44.10464" lon="7.01129">
        <ele>1678.1999511719</ele>
        <time>2022-07-23T10:10:32.000Z</time>
      </trkpt>
      <trkpt lat="44.10467" lon="7.01126">
        <ele>1676.8000488281</ele>
        <time>2022-07-23T10:10:33.000Z</time>
      </trkpt>
      <trkpt lat="44.1047" lon="7.01123">
        <ele>1675.4000244141</ele>
        <time>2022-07-23T10:10:34.000Z</time>
      </trkpt>
      <trkpt lat="44.10472" lon="7.0112">
        <ele>1674.5999755859</ele>
        <time>2022-07-23T10:10:35.000Z</time>
      </trkpt>
      <trkpt lat="44.10475" lon="7.01114">
        <ele>1673.4000244141</ele>
        <time>2022-07-23T10:10:36.000Z</time>
      </trkpt>
      <trkpt lat="44.10477" lon="7.01108">
        <ele>1672.8000488281</ele>
        <time>2022-07-23T10:10:37.000Z</time>
      </trkpt>
      <trkpt lat="44.10478" lon="7.01101">
        <ele>1672</ele>
        <time>2022-07-23T10:10:38.000Z</time>
      </trkpt>
      <trkpt lat="44.10478" lon="7.01093">
        <ele>1670.1999511719</ele>
        <time>2022-07-23T10:10:40.000Z</time>
      </trkpt>
      <trkpt lat="44.10477" lon="7.01087">
        <ele>1669</ele>
        <time>2022-07-23T10:10:41.000Z</time>
      </trkpt>
      <trkpt lat="44.10477" lon="7.01072">
        <ele>1667.8000488281</ele>
        <time>2022-07-23T10:10:43.000Z</time>
      </trkpt>
      <trkpt lat="44.10477" lon="7.01064">
        <ele>1667</ele>
        <time>2022-07-23T10:10:44.000Z</time>
      </trkpt>
      <trkpt lat="44.10477" lon="7.01057">
        <ele>1665.8000488281</ele>
        <time>2022-07-23T10:10:45.000Z</time>
      </trkpt>
      <trkpt lat="44.10478" lon="7.01048">
        <ele>1664.8000488281</ele>
        <time>2022-07-23T10:10:46.000Z</time>
      </trkpt>
      <trkpt lat="44.10479" lon="7.01039">
        <ele>1663.8000488281</ele>
        <time>2022-07-23T10:10:47.000Z</time>
      </trkpt>
      <trkpt lat="44.1048" lon="7.01031">
        <ele>1662.5999755859</ele>
        <time>2022-07-23T10:10:48.000Z</time>
      </trkpt>
      <trkpt lat="44.10482" lon="7.01016">
        <ele>1662</ele>
        <time>2022-07-23T10:10:50.000Z</time>
      </trkpt>
      <trkpt lat="44.10488" lon="7.01003">
        <ele>1661.4000244141</ele>
        <time>2022-07-23T10:10:52.000Z</time>
      </trkpt>
      <trkpt lat="44.10497" lon="7.00991">
        <ele>1660.8000488281</ele>
        <time>2022-07-23T10:10:54.000Z</time>
      </trkpt>
      <trkpt lat="44.10507" lon="7.0098">
        <ele>1659.5999755859</ele>
        <time>2022-07-23T10:10:56.000Z</time>
      </trkpt>
      <trkpt lat="44.1051" lon="7.00975">
        <ele>1659</ele>
        <time>2022-07-23T10:10:57.000Z</time>
      </trkpt>
      <trkpt lat="44.10513" lon="7.00969">
        <ele>1657.8000488281</ele>
        <time>2022-07-23T10:10:58.000Z</time>
      </trkpt>
      <trkpt lat="44.10517" lon="7.00964">
        <ele>1656.5999755859</ele>
        <time>2022-07-23T10:10:59.000Z</time>
      </trkpt>
      <trkpt lat="44.10525" lon="7.00957">
        <ele>1654.8000488281</ele>
        <time>2022-07-23T10:11:01.000Z</time>
      </trkpt>
      <trkpt lat="44.10529" lon="7.00955">
        <ele>1653.1999511719</ele>
        <time>2022-07-23T10:11:02.000Z</time>
      </trkpt>
      <trkpt lat="44.10533" lon="7.00952">
        <ele>1652</ele>
        <time>2022-07-23T10:11:03.000Z</time>
      </trkpt>
      <trkpt lat="44.10537" lon="7.00948">
        <ele>1650.8000488281</ele>
        <time>2022-07-23T10:11:04.000Z</time>
      </trkpt>
      <trkpt lat="44.10543" lon="7.00944">
        <ele>1649</ele>
        <time>2022-07-23T10:11:05.000Z</time>
      </trkpt>
      <trkpt lat="44.10551" lon="7.00939">
        <ele>1647.5999755859</ele>
        <time>2022-07-23T10:11:06.000Z</time>
      </trkpt>
      <trkpt lat="44.10558" lon="7.00935">
        <ele>1646.5999755859</ele>
        <time>2022-07-23T10:11:07.000Z</time>
      </trkpt>
      <trkpt lat="44.10566" lon="7.00933">
        <ele>1645.4000244141</ele>
        <time>2022-07-23T10:11:08.000Z</time>
      </trkpt>
      <trkpt lat="44.10574" lon="7.00931">
        <ele>1643.8000488281</ele>
        <time>2022-07-23T10:11:09.000Z</time>
      </trkpt>
      <trkpt lat="44.10582" lon="7.00929">
        <ele>1642</ele>
        <time>2022-07-23T10:11:10.000Z</time>
      </trkpt>
      <trkpt lat="44.10592" lon="7.00927">
        <ele>1640.1999511719</ele>
        <time>2022-07-23T10:11:11.000Z</time>
      </trkpt>
      <trkpt lat="44.106" lon="7.00926">
        <ele>1638.4000244141</ele>
        <time>2022-07-23T10:11:12.000Z</time>
      </trkpt>
      <trkpt lat="44.10608" lon="7.00923">
        <ele>1636.1999511719</ele>
        <time>2022-07-23T10:11:13.000Z</time>
      </trkpt>
      <trkpt lat="44.10615" lon="7.00924">
        <ele>1634.1999511719</ele>
        <time>2022-07-23T10:11:14.000Z</time>
      </trkpt>
      <trkpt lat="44.10622" lon="7.00924">
        <ele>1632.1999511719</ele>
        <time>2022-07-23T10:11:15.000Z</time>
      </trkpt>
      <trkpt lat="44.10631" lon="7.00924">
        <ele>1630</ele>
        <time>2022-07-23T10:11:16.000Z</time>
      </trkpt>
      <trkpt lat="44.1064" lon="7.00924">
        <ele>1628.5999755859</ele>
        <time>2022-07-23T10:11:17.000Z</time>
      </trkpt>
      <trkpt lat="44.10647" lon="7.00924">
        <ele>1627</ele>
        <time>2022-07-23T10:11:18.000Z</time>
      </trkpt>
      <trkpt lat="44.10652" lon="7.00924">
        <ele>1626</ele>
        <time>2022-07-23T10:11:19.000Z</time>
      </trkpt>
      <trkpt lat="44.10655" lon="7.00924">
        <ele>1625.4000244141</ele>
        <time>2022-07-23T10:11:20.000Z</time>
      </trkpt>
      <trkpt lat="44.10658" lon="7.00924">
        <ele>1624.5999755859</ele>
        <time>2022-07-23T10:11:21.000Z</time>
      </trkpt>
      <trkpt lat="44.10672" lon="7.00922">
        <ele>1623.5999755859</ele>
        <time>2022-07-23T10:11:24.000Z</time>
      </trkpt>
      <trkpt lat="44.10684" lon="7.00921">
        <ele>1622.5999755859</ele>
        <time>2022-07-23T10:11:26.000Z</time>
      </trkpt>
      <trkpt lat="44.10696" lon="7.00923">
        <ele>1621</ele>
        <time>2022-07-23T10:11:28.000Z</time>
      </trkpt>
      <trkpt lat="44.10702" lon="7.00923">
        <ele>1620.5999755859</ele>
        <time>2022-07-23T10:11:29.000Z</time>
      </trkpt>
      <trkpt lat="44.10707" lon="7.00922">
        <ele>1619.5999755859</ele>
        <time>2022-07-23T10:11:30.000Z</time>
      </trkpt>
      <trkpt lat="44.10718" lon="7.00919">
        <ele>1618.5999755859</ele>
        <time>2022-07-23T10:11:32.000Z</time>
      </trkpt>
      <trkpt lat="44.10725" lon="7.00919">
        <ele>1617.1999511719</ele>
        <time>2022-07-23T10:11:34.000Z</time>
      </trkpt>
      <trkpt lat="44.10727" lon="7.00919">
        <ele>1617.1999511719</ele>
        <time>2022-07-23T10:11:35.000Z</time>
      </trkpt>
      <trkpt lat="44.10733" lon="7.00919">
        <ele>1618</ele>
        <time>2022-07-23T10:11:38.000Z</time>
      </trkpt>
      <trkpt lat="44.10734" lon="7.0092">
        <ele>1618.4000244141</ele>
        <time>2022-07-23T10:11:39.000Z</time>
      </trkpt>
      <trkpt lat="44.1074" lon="7.0092">
        <ele>1619.4000244141</ele>
        <time>2022-07-23T10:11:43.000Z</time>
      </trkpt>
      <trkpt lat="44.10742" lon="7.0092">
        <ele>1619.8000488281</ele>
        <time>2022-07-23T10:11:44.000Z</time>
      </trkpt>
      <trkpt lat="44.10745" lon="7.00921">
        <ele>1620</ele>
        <time>2022-07-23T10:11:46.000Z</time>
      </trkpt>
      <trkpt lat="44.10753" lon="7.00922">
        <ele>1620.4000244141</ele>
        <time>2022-07-23T10:11:49.000Z</time>
      </trkpt>
      <trkpt lat="44.10757" lon="7.00923">
        <ele>1620.5999755859</ele>
        <time>2022-07-23T10:11:51.000Z</time>
      </trkpt>
      <trkpt lat="44.10765" lon="7.00924">
        <ele>1621.4000244141</ele>
        <time>2022-07-23T10:11:54.000Z</time>
      </trkpt>
      <trkpt lat="44.10767" lon="7.00925">
        <ele>1621.8000488281</ele>
        <time>2022-07-23T10:11:55.000Z</time>
      </trkpt>
      <trkpt lat="44.10779" lon="7.00927">
        <ele>1623</ele>
        <time>2022-07-23T10:12:00.000Z</time>
      </trkpt>
      <trkpt lat="44.10788" lon="7.00926">
        <ele>1623.8000488281</ele>
        <time>2022-07-23T10:12:05.000Z</time>
      </trkpt>
      <trkpt lat="44.10791" lon="7.00923">
        <ele>1624</ele>
        <time>2022-07-23T10:12:06.000Z</time>
      </trkpt>
      <trkpt lat="44.10795" lon="7.00916">
        <ele>1624</ele>
        <time>2022-07-23T10:12:09.000Z</time>
      </trkpt>
      <trkpt lat="44.10797" lon="7.00908">
        <ele>1623.8000488281</ele>
        <time>2022-07-23T10:12:13.000Z</time>
      </trkpt>
      <trkpt lat="44.10797" lon="7.00907">
        <ele>1623.8000488281</ele>
        <time>2022-07-23T10:12:14.000Z</time>
      </trkpt>
      <trkpt lat="44.10793" lon="7.00906">
        <ele>1624.4000244141</ele>
        <time>2022-07-23T10:12:19.000Z</time>
      </trkpt>
      <trkpt lat="44.10785" lon="7.00901">
        <ele>1625.4000244141</ele>
        <time>2022-07-23T10:12:23.000Z</time>
      </trkpt>
      <trkpt lat="44.10772" lon="7.00889">
        <ele>1626.1999511719</ele>
        <time>2022-07-23T10:12:30.000Z</time>
      </trkpt>
      <trkpt lat="44.10769" lon="7.00887">
        <ele>1626.5999755859</ele>
        <time>2022-07-23T10:12:32.000Z</time>
      </trkpt>
      <trkpt lat="44.10762" lon="7.00883">
        <ele>1627.5999755859</ele>
        <time>2022-07-23T10:12:35.000Z</time>
      </trkpt>
      <trkpt lat="44.10759" lon="7.00882">
        <ele>1627.5999755859</ele>
        <time>2022-07-23T10:12:36.000Z</time>
      </trkpt>
      <trkpt lat="44.10746" lon="7.00873">
        <ele>1627.4000244141</ele>
        <time>2022-07-23T10:12:41.000Z</time>
      </trkpt>
      <trkpt lat="44.10733" lon="7.00861">
        <ele>1628.5999755859</ele>
        <time>2022-07-23T10:12:47.000Z</time>
      </trkpt>
      <trkpt lat="44.10731" lon="7.00859">
        <ele>1629</ele>
        <time>2022-07-23T10:12:48.000Z</time>
      </trkpt>
      <trkpt lat="44.10724" lon="7.00851">
        <ele>1630.1999511719</ele>
        <time>2022-07-23T10:12:52.000Z</time>
      </trkpt>
      <trkpt lat="44.10723" lon="7.00849">
        <ele>1630.4000244141</ele>
        <time>2022-07-23T10:12:53.000Z</time>
      </trkpt>
      <trkpt lat="44.1072" lon="7.00845">
        <ele>1631.1999511719</ele>
        <time>2022-07-23T10:12:55.000Z</time>
      </trkpt>
      <trkpt lat="44.10713" lon="7.00832">
        <ele>1632.4000244141</ele>
        <time>2022-07-23T10:13:00.000Z</time>
      </trkpt>
      <trkpt lat="44.1071" lon="7.00818">
        <ele>1633.4000244141</ele>
        <time>2022-07-23T10:13:04.000Z</time>
      </trkpt>
      <trkpt lat="44.1071" lon="7.00811">
        <ele>1634</ele>
        <time>2022-07-23T10:13:06.000Z</time>
      </trkpt>
      <trkpt lat="44.10709" lon="7.00804">
        <ele>1634.4000244141</ele>
        <time>2022-07-23T10:13:08.000Z</time>
      </trkpt>
      <trkpt lat="44.10706" lon="7.00785">
        <ele>1635.4000244141</ele>
        <time>2022-07-23T10:13:13.000Z</time>
      </trkpt>
      <trkpt lat="44.10705" lon="7.00781">
        <ele>1635.5999755859</ele>
        <time>2022-07-23T10:13:14.000Z</time>
      </trkpt>
      <trkpt lat="44.10697" lon="7.00771">
        <ele>1635.5999755859</ele>
        <time>2022-07-23T10:13:18.000Z</time>
      </trkpt>
      <trkpt lat="44.10691" lon="7.0076">
        <ele>1636.5999755859</ele>
        <time>2022-07-23T10:13:23.000Z</time>
      </trkpt>
      <trkpt lat="44.10688" lon="7.00754">
        <ele>1637.5999755859</ele>
        <time>2022-07-23T10:13:26.000Z</time>
      </trkpt>
      <trkpt lat="44.10684" lon="7.00748">
        <ele>1638.5999755859</ele>
        <time>2022-07-23T10:13:29.000Z</time>
      </trkpt>
      <trkpt lat="44.10681" lon="7.00745">
        <ele>1639.4000244141</ele>
        <time>2022-07-23T10:13:31.000Z</time>
      </trkpt>
      <trkpt lat="44.1068" lon="7.00744">
        <ele>1640</ele>
        <time>2022-07-23T10:13:32.000Z</time>
      </trkpt>
      <trkpt lat="44.10674" lon="7.00741">
        <ele>1641</ele>
        <time>2022-07-23T10:13:38.000Z</time>
      </trkpt>
      <trkpt lat="44.10672" lon="7.00739">
        <ele>1641.1999511719</ele>
        <time>2022-07-23T10:13:44.000Z</time>
      </trkpt>
      <trkpt lat="44.10673" lon="7.00739">
        <ele>1641.4000244141</ele>
        <time>2022-07-23T10:13:56.000Z</time>
      </trkpt>
      <trkpt lat="44.10672" lon="7.00739">
        <ele>1641.4000244141</ele>
        <time>2022-07-23T10:14:06.000Z</time>
      </trkpt>
      <trkpt lat="44.10672" lon="7.00738">
        <ele>1641.5999755859</ele>
        <time>2022-07-23T10:14:24.000Z</time>
      </trkpt>
      <trkpt lat="44.10668" lon="7.00736">
        <ele>1641.4000244141</ele>
        <time>2022-07-23T10:14:31.000Z</time>
      </trkpt>
      <trkpt lat="44.10656" lon="7.00731">
        <ele>1641.1999511719</ele>
        <time>2022-07-23T10:14:36.000Z</time>
      </trkpt>
      <trkpt lat="44.10652" lon="7.00728">
        <ele>1641.1999511719</ele>
        <time>2022-07-23T10:14:38.000Z</time>
      </trkpt>
      <trkpt lat="44.10637" lon="7.00711">
        <ele>1640.1999511719</ele>
        <time>2022-07-23T10:14:43.000Z</time>
      </trkpt>
      <trkpt lat="44.10634" lon="7.00708">
        <ele>1640</ele>
        <time>2022-07-23T10:14:44.000Z</time>
      </trkpt>
      <trkpt lat="44.10617" lon="7.00682">
        <ele>1639.5999755859</ele>
        <time>2022-07-23T10:14:52.000Z</time>
      </trkpt>
      <trkpt lat="44.10604" lon="7.00665">
        <ele>1640.8000488281</ele>
        <time>2022-07-23T10:14:58.000Z</time>
      </trkpt>
      <trkpt lat="44.10599" lon="7.00662">
        <ele>1641.1999511719</ele>
        <time>2022-07-23T10:15:00.000Z</time>
      </trkpt>
      <trkpt lat="44.10582" lon="7.00648">
        <ele>1641.1999511719</ele>
        <time>2022-07-23T10:15:06.000Z</time>
      </trkpt>
      <trkpt lat="44.10569" lon="7.00638">
        <ele>1642</ele>
        <time>2022-07-23T10:15:11.000Z</time>
      </trkpt>
      <trkpt lat="44.10566" lon="7.00636">
        <ele>1642.4000244141</ele>
        <time>2022-07-23T10:15:12.000Z</time>
      </trkpt>
      <trkpt lat="44.10555" lon="7.00627">
        <ele>1643.8000488281</ele>
        <time>2022-07-23T10:15:16.000Z</time>
      </trkpt>
      <trkpt lat="44.1055" lon="7.00622">
        <ele>1644.1999511719</ele>
        <time>2022-07-23T10:15:18.000Z</time>
      </trkpt>
      <trkpt lat="44.10544" lon="7.00613">
        <ele>1644.8000488281</ele>
        <time>2022-07-23T10:15:21.000Z</time>
      </trkpt>
      <trkpt lat="44.10538" lon="7.00605">
        <ele>1646</ele>
        <time>2022-07-23T10:15:24.000Z</time>
      </trkpt>
      <trkpt lat="44.10533" lon="7.006">
        <ele>1647.4000244141</ele>
        <time>2022-07-23T10:15:26.000Z</time>
      </trkpt>
      <trkpt lat="44.1053" lon="7.00594">
        <ele>1648.5999755859</ele>
        <time>2022-07-23T10:15:28.000Z</time>
      </trkpt>
      <trkpt lat="44.10526" lon="7.00587">
        <ele>1649.5999755859</ele>
        <time>2022-07-23T10:15:30.000Z</time>
      </trkpt>
      <trkpt lat="44.10524" lon="7.0058">
        <ele>1650.4000244141</ele>
        <time>2022-07-23T10:15:32.000Z</time>
      </trkpt>
      <trkpt lat="44.10521" lon="7.00572">
        <ele>1650.8000488281</ele>
        <time>2022-07-23T10:15:34.000Z</time>
      </trkpt>
      <trkpt lat="44.10517" lon="7.00562">
        <ele>1652.1999511719</ele>
        <time>2022-07-23T10:15:37.000Z</time>
      </trkpt>
      <trkpt lat="44.10516" lon="7.00559">
        <ele>1652.8000488281</ele>
        <time>2022-07-23T10:15:38.000Z</time>
      </trkpt>
      <trkpt lat="44.10516" lon="7.00551">
        <ele>1653.1999511719</ele>
        <time>2022-07-23T10:15:40.000Z</time>
      </trkpt>
      <trkpt lat="44.10516" lon="7.00541">
        <ele>1654</ele>
        <time>2022-07-23T10:15:43.000Z</time>
      </trkpt>
      <trkpt lat="44.10515" lon="7.00538">
        <ele>1654.4000244141</ele>
        <time>2022-07-23T10:15:44.000Z</time>
      </trkpt>
      <trkpt lat="44.10515" lon="7.0053">
        <ele>1655.8000488281</ele>
        <time>2022-07-23T10:15:47.000Z</time>
      </trkpt>
      <trkpt lat="44.10514" lon="7.00525">
        <ele>1656.4000244141</ele>
        <time>2022-07-23T10:15:49.000Z</time>
      </trkpt>
      <trkpt lat="44.10513" lon="7.0052">
        <ele>1656.8000488281</ele>
        <time>2022-07-23T10:15:51.000Z</time>
      </trkpt>
      <trkpt lat="44.1051" lon="7.00513">
        <ele>1657.1999511719</ele>
        <time>2022-07-23T10:15:54.000Z</time>
      </trkpt>
      <trkpt lat="44.105" lon="7.00494">
        <ele>1657.1999511719</ele>
        <time>2022-07-23T10:16:01.000Z</time>
      </trkpt>
      <trkpt lat="44.10488" lon="7.00484">
        <ele>1656.4000244141</ele>
        <time>2022-07-23T10:16:06.000Z</time>
      </trkpt>
      <trkpt lat="44.10483" lon="7.00476">
        <ele>1655.8000488281</ele>
        <time>2022-07-23T10:16:10.000Z</time>
      </trkpt>
      <trkpt lat="44.10482" lon="7.00475">
        <ele>1655.8000488281</ele>
        <time>2022-07-23T10:16:11.000Z</time>
      </trkpt>
      <trkpt lat="44.10477" lon="7.00468">
        <ele>1655.1999511719</ele>
        <time>2022-07-23T10:16:16.000Z</time>
      </trkpt>
      <trkpt lat="44.10474" lon="7.00467">
        <ele>1654.8000488281</ele>
        <time>2022-07-23T10:16:20.000Z</time>
      </trkpt>
      <trkpt lat="44.10474" lon="7.00467">
        <ele>1654.4000244141</ele>
        <time>2022-07-23T10:16:29.000Z</time>
      </trkpt>
      <trkpt lat="44.10474" lon="7.00467">
        <ele>1654.4000244141</ele>
        <time>2022-07-23T10:16:42.000Z</time>
      </trkpt>
      <trkpt lat="44.1047" lon="7.00464">
        <ele>1654.1999511719</ele>
        <time>2022-07-23T10:16:51.000Z</time>
      </trkpt>
      <trkpt lat="44.1046" lon="7.00454">
        <ele>1654</ele>
        <time>2022-07-23T10:16:55.000Z</time>
      </trkpt>
      <trkpt lat="44.10457" lon="7.00451">
        <ele>1653.8000488281</ele>
        <time>2022-07-23T10:16:56.000Z</time>
      </trkpt>
      <trkpt lat="44.10443" lon="7.00435">
        <ele>1653.4000244141</ele>
        <time>2022-07-23T10:17:01.000Z</time>
      </trkpt>
      <trkpt lat="44.10435" lon="7.00428">
        <ele>1653.1999511719</ele>
        <time>2022-07-23T10:17:05.000Z</time>
      </trkpt>
      <trkpt lat="44.10422" lon="7.00418">
        <ele>1653</ele>
        <time>2022-07-23T10:17:10.000Z</time>
      </trkpt>
      <trkpt lat="44.10402" lon="7.00409">
        <ele>1653.8000488281</ele>
        <time>2022-07-23T10:17:17.000Z</time>
      </trkpt>
      <trkpt lat="44.10387" lon="7.00404">
        <ele>1654.8000488281</ele>
        <time>2022-07-23T10:17:22.000Z</time>
      </trkpt>
      <trkpt lat="44.10382" lon="7.00403">
        <ele>1655</ele>
        <time>2022-07-23T10:17:24.000Z</time>
      </trkpt>
      <trkpt lat="44.10362" lon="7.00399">
        <ele>1655.5999755859</ele>
        <time>2022-07-23T10:17:30.000Z</time>
      </trkpt>
      <trkpt lat="44.10347" lon="7.00396">
        <ele>1655.5999755859</ele>
        <time>2022-07-23T10:17:36.000Z</time>
      </trkpt>
      <trkpt lat="44.10342" lon="7.00395">
        <ele>1656</ele>
        <time>2022-07-23T10:17:38.000Z</time>
      </trkpt>
      <trkpt lat="44.10329" lon="7.00393">
        <ele>1657</ele>
        <time>2022-07-23T10:17:43.000Z</time>
      </trkpt>
      <trkpt lat="44.10316" lon="7.00392">
        <ele>1658.4000244141</ele>
        <time>2022-07-23T10:17:48.000Z</time>
      </trkpt>
      <trkpt lat="44.10314" lon="7.00391">
        <ele>1658.8000488281</ele>
        <time>2022-07-23T10:17:49.000Z</time>
      </trkpt>
      <trkpt lat="44.10307" lon="7.00391">
        <ele>1659.5999755859</ele>
        <time>2022-07-23T10:17:52.000Z</time>
      </trkpt>
      <trkpt lat="44.103" lon="7.00388">
        <ele>1660.4000244141</ele>
        <time>2022-07-23T10:17:56.000Z</time>
      </trkpt>
      <trkpt lat="44.10292" lon="7.00385">
        <ele>1660.8000488281</ele>
        <time>2022-07-23T10:18:00.000Z</time>
      </trkpt>
      <trkpt lat="44.10289" lon="7.00384">
        <ele>1661</ele>
        <time>2022-07-23T10:18:01.000Z</time>
      </trkpt>
      <trkpt lat="44.10269" lon="7.0038">
        <ele>1661.1999511719</ele>
        <time>2022-07-23T10:18:08.000Z</time>
      </trkpt>
      <trkpt lat="44.1026" lon="7.00371">
        <ele>1661</ele>
        <time>2022-07-23T10:18:13.000Z</time>
      </trkpt>
      <trkpt lat="44.10252" lon="7.00357">
        <ele>1661.1999511719</ele>
        <time>2022-07-23T10:18:19.000Z</time>
      </trkpt>
      <trkpt lat="44.10244" lon="7.00335">
        <ele>1661.8000488281</ele>
        <time>2022-07-23T10:18:26.000Z</time>
      </trkpt>
      <trkpt lat="44.10238" lon="7.00318">
        <ele>1662</ele>
        <time>2022-07-23T10:18:31.000Z</time>
      </trkpt>
      <trkpt lat="44.10229" lon="7.00297">
        <ele>1661.8000488281</ele>
        <time>2022-07-23T10:18:36.000Z</time>
      </trkpt>
      <trkpt lat="44.10225" lon="7.00284">
        <ele>1661</ele>
        <time>2022-07-23T10:18:40.000Z</time>
      </trkpt>
      <trkpt lat="44.10223" lon="7.00282">
        <ele>1661</ele>
        <time>2022-07-23T10:18:41.000Z</time>
      </trkpt>
      <trkpt lat="44.10218" lon="7.00274">
        <ele>1661.5999755859</ele>
        <time>2022-07-23T10:18:44.000Z</time>
      </trkpt>
      <trkpt lat="44.10211" lon="7.0026">
        <ele>1661.4000244141</ele>
        <time>2022-07-23T10:18:49.000Z</time>
      </trkpt>
      <trkpt lat="44.10205" lon="7.00248">
        <ele>1660.5999755859</ele>
        <time>2022-07-23T10:18:52.000Z</time>
      </trkpt>
      <trkpt lat="44.10203" lon="7.0024">
        <ele>1660</ele>
        <time>2022-07-23T10:18:54.000Z</time>
      </trkpt>
      <trkpt lat="44.10202" lon="7.00234">
        <ele>1659.5999755859</ele>
        <time>2022-07-23T10:18:56.000Z</time>
      </trkpt>
      <trkpt lat="44.10201" lon="7.00233">
        <ele>1659.4000244141</ele>
        <time>2022-07-23T10:18:57.000Z</time>
      </trkpt>
      <trkpt lat="44.102" lon="7.00234">
        <ele>1659.4000244141</ele>
        <time>2022-07-23T10:18:58.000Z</time>
      </trkpt>
      <trkpt lat="44.102" lon="7.00244">
        <ele>1659</ele>
        <time>2022-07-23T10:19:01.000Z</time>
      </trkpt>
      <trkpt lat="44.10196" lon="7.00242">
        <ele>1658</ele>
        <time>2022-07-23T10:19:03.000Z</time>
      </trkpt>
      <trkpt lat="44.10191" lon="7.00232">
        <ele>1657</ele>
        <time>2022-07-23T10:19:05.000Z</time>
      </trkpt>
      <trkpt lat="44.1019" lon="7.00223">
        <ele>1656</ele>
        <time>2022-07-23T10:19:07.000Z</time>
      </trkpt>
      <trkpt lat="44.1019" lon="7.00222">
        <ele>1655.8000488281</ele>
        <time>2022-07-23T10:19:08.000Z</time>
      </trkpt>
      <trkpt lat="44.1019" lon="7.00223">
        <ele>1654.8000488281</ele>
        <time>2022-07-23T10:19:12.000Z</time>
      </trkpt>
      <trkpt lat="44.1019" lon="7.00223">
        <ele>1654.5999755859</ele>
        <time>2022-07-23T10:19:26.000Z</time>
      </trkpt>
      <trkpt lat="44.10189" lon="7.0022">
        <ele>1654.5999755859</ele>
        <time>2022-07-23T10:19:40.000Z</time>
      </trkpt>
      <trkpt lat="44.10181" lon="7.00208">
        <ele>1654.4000244141</ele>
        <time>2022-07-23T10:19:43.000Z</time>
      </trkpt>
      <trkpt lat="44.10173" lon="7.00193">
        <ele>1653.5999755859</ele>
        <time>2022-07-23T10:19:45.000Z</time>
      </trkpt>
      <trkpt lat="44.10167" lon="7.00182">
        <ele>1653</ele>
        <time>2022-07-23T10:19:46.000Z</time>
      </trkpt>
      <trkpt lat="44.10162" lon="7.00172">
        <ele>1651.5999755859</ele>
        <time>2022-07-23T10:19:47.000Z</time>
      </trkpt>
      <trkpt lat="44.10157" lon="7.00162">
        <ele>1649.5999755859</ele>
        <time>2022-07-23T10:19:48.000Z</time>
      </trkpt>
      <trkpt lat="44.10152" lon="7.00152">
        <ele>1647.4000244141</ele>
        <time>2022-07-23T10:19:49.000Z</time>
      </trkpt>
      <trkpt lat="44.10149" lon="7.00141">
        <ele>1645.4000244141</ele>
        <time>2022-07-23T10:19:50.000Z</time>
      </trkpt>
      <trkpt lat="44.10146" lon="7.0013">
        <ele>1643.5999755859</ele>
        <time>2022-07-23T10:19:51.000Z</time>
      </trkpt>
      <trkpt lat="44.10145" lon="7.00118">
        <ele>1642</ele>
        <time>2022-07-23T10:19:52.000Z</time>
      </trkpt>
      <trkpt lat="44.10143" lon="7.00106">
        <ele>1640.5999755859</ele>
        <time>2022-07-23T10:19:53.000Z</time>
      </trkpt>
      <trkpt lat="44.1014" lon="7.00094">
        <ele>1639.4000244141</ele>
        <time>2022-07-23T10:19:54.000Z</time>
      </trkpt>
      <trkpt lat="44.10137" lon="7.00082">
        <ele>1638.4000244141</ele>
        <time>2022-07-23T10:19:55.000Z</time>
      </trkpt>
      <trkpt lat="44.10135" lon="7.00069">
        <ele>1637</ele>
        <time>2022-07-23T10:19:56.000Z</time>
      </trkpt>
      <trkpt lat="44.10135" lon="7.00057">
        <ele>1636.1999511719</ele>
        <time>2022-07-23T10:19:57.000Z</time>
      </trkpt>
      <trkpt lat="44.10135" lon="7.00043">
        <ele>1634.8000488281</ele>
        <time>2022-07-23T10:19:58.000Z</time>
      </trkpt>
      <trkpt lat="44.10136" lon="7.0003">
        <ele>1634</ele>
        <time>2022-07-23T10:19:59.000Z</time>
      </trkpt>
      <trkpt lat="44.10138" lon="7.00018">
        <ele>1633.1999511719</ele>
        <time>2022-07-23T10:20:00.000Z</time>
      </trkpt>
      <trkpt lat="44.10143" lon="6.99994">
        <ele>1632.5999755859</ele>
        <time>2022-07-23T10:20:02.000Z</time>
      </trkpt>
      <trkpt lat="44.10145" lon="6.99982">
        <ele>1631.8000488281</ele>
        <time>2022-07-23T10:20:03.000Z</time>
      </trkpt>
      <trkpt lat="44.10144" lon="6.99955">
        <ele>1631.1999511719</ele>
        <time>2022-07-23T10:20:06.000Z</time>
      </trkpt>
      <trkpt lat="44.10145" lon="6.99946">
        <ele>1630.5999755859</ele>
        <time>2022-07-23T10:20:07.000Z</time>
      </trkpt>
      <trkpt lat="44.10155" lon="6.99934">
        <ele>1629.8000488281</ele>
        <time>2022-07-23T10:20:09.000Z</time>
      </trkpt>
      <trkpt lat="44.1016" lon="6.99932">
        <ele>1628.8000488281</ele>
        <time>2022-07-23T10:20:10.000Z</time>
      </trkpt>
      <trkpt lat="44.10164" lon="6.9993">
        <ele>1627.5999755859</ele>
        <time>2022-07-23T10:20:11.000Z</time>
      </trkpt>
      <trkpt lat="44.10168" lon="6.99928">
        <ele>1627</ele>
        <time>2022-07-23T10:20:12.000Z</time>
      </trkpt>
      <trkpt lat="44.10171" lon="6.99925">
        <ele>1626.5999755859</ele>
        <time>2022-07-23T10:20:13.000Z</time>
      </trkpt>
      <trkpt lat="44.10173" lon="6.99923">
        <ele>1626</ele>
        <time>2022-07-23T10:20:14.000Z</time>
      </trkpt>
      <trkpt lat="44.10175" lon="6.99922">
        <ele>1625.8000488281</ele>
        <time>2022-07-23T10:20:15.000Z</time>
      </trkpt>
      <trkpt lat="44.10179" lon="6.99921">
        <ele>1625.4000244141</ele>
        <time>2022-07-23T10:20:17.000Z</time>
      </trkpt>
      <trkpt lat="44.10186" lon="6.99911">
        <ele>1625.8000488281</ele>
        <time>2022-07-23T10:20:20.000Z</time>
      </trkpt>
      <trkpt lat="44.1019" lon="6.99908">
        <ele>1625.5999755859</ele>
        <time>2022-07-23T10:20:21.000Z</time>
      </trkpt>
      <trkpt lat="44.10196" lon="6.99906">
        <ele>1624.8000488281</ele>
        <time>2022-07-23T10:20:23.000Z</time>
      </trkpt>
      <trkpt lat="44.10195" lon="6.99906">
        <ele>1624.4000244141</ele>
        <time>2022-07-23T10:20:24.000Z</time>
      </trkpt>
      <trkpt lat="44.10197" lon="6.99906">
        <ele>1623.1999511719</ele>
        <time>2022-07-23T10:20:26.000Z</time>
      </trkpt>
      <trkpt lat="44.10199" lon="6.99906">
        <ele>1623.4000244141</ele>
        <time>2022-07-23T10:20:31.000Z</time>
      </trkpt>
      <trkpt lat="44.10203" lon="6.99904">
        <ele>1623.4000244141</ele>
        <time>2022-07-23T10:20:33.000Z</time>
      </trkpt>
      <trkpt lat="44.10214" lon="6.999">
        <ele>1623.1999511719</ele>
        <time>2022-07-23T10:20:36.000Z</time>
      </trkpt>
      <trkpt lat="44.10218" lon="6.99899">
        <ele>1623</ele>
        <time>2022-07-23T10:20:37.000Z</time>
      </trkpt>
      <trkpt lat="44.10241" lon="6.99892">
        <ele>1622.1999511719</ele>
        <time>2022-07-23T10:20:42.000Z</time>
      </trkpt>
      <trkpt lat="44.10246" lon="6.9989">
        <ele>1622</ele>
        <time>2022-07-23T10:20:43.000Z</time>
      </trkpt>
      <trkpt lat="44.10261" lon="6.99883">
        <ele>1621</ele>
        <time>2022-07-23T10:20:46.000Z</time>
      </trkpt>
      <trkpt lat="44.10271" lon="6.99877">
        <ele>1620</ele>
        <time>2022-07-23T10:20:48.000Z</time>
      </trkpt>
      <trkpt lat="44.10276" lon="6.99874">
        <ele>1619.4000244141</ele>
        <time>2022-07-23T10:20:49.000Z</time>
      </trkpt>
      <trkpt lat="44.10282" lon="6.99873">
        <ele>1618.8000488281</ele>
        <time>2022-07-23T10:20:50.000Z</time>
      </trkpt>
      <trkpt lat="44.10298" lon="6.99868">
        <ele>1617.1999511719</ele>
        <time>2022-07-23T10:20:53.000Z</time>
      </trkpt>
      <trkpt lat="44.10314" lon="6.99864">
        <ele>1616.1999511719</ele>
        <time>2022-07-23T10:20:56.000Z</time>
      </trkpt>
      <trkpt lat="44.10329" lon="6.99861">
        <ele>1616.5999755859</ele>
        <time>2022-07-23T10:20:59.000Z</time>
      </trkpt>
      <trkpt lat="44.10344" lon="6.99855">
        <ele>1616.8000488281</ele>
        <time>2022-07-23T10:21:02.000Z</time>
      </trkpt>
      <trkpt lat="44.10352" lon="6.9985">
        <ele>1615.1999511719</ele>
        <time>2022-07-23T10:21:04.000Z</time>
      </trkpt>
      <trkpt lat="44.10357" lon="6.99846">
        <ele>1614.4000244141</ele>
        <time>2022-07-23T10:21:05.000Z</time>
      </trkpt>
      <trkpt lat="44.10371" lon="6.99839">
        <ele>1613.4000244141</ele>
        <time>2022-07-23T10:21:07.000Z</time>
      </trkpt>
      <trkpt lat="44.1038" lon="6.99832">
        <ele>1612</ele>
        <time>2022-07-23T10:21:09.000Z</time>
      </trkpt>
      <trkpt lat="44.10392" lon="6.99824">
        <ele>1610.4000244141</ele>
        <time>2022-07-23T10:21:11.000Z</time>
      </trkpt>
      <trkpt lat="44.10399" lon="6.99819">
        <ele>1609.1999511719</ele>
        <time>2022-07-23T10:21:12.000Z</time>
      </trkpt>
      <trkpt lat="44.10405" lon="6.99814">
        <ele>1608.4000244141</ele>
        <time>2022-07-23T10:21:13.000Z</time>
      </trkpt>
      <trkpt lat="44.10412" lon="6.99809">
        <ele>1607.4000244141</ele>
        <time>2022-07-23T10:21:14.000Z</time>
      </trkpt>
      <trkpt lat="44.10416" lon="6.99807">
        <ele>1606.4000244141</ele>
        <time>2022-07-23T10:21:15.000Z</time>
      </trkpt>
      <trkpt lat="44.10422" lon="6.99804">
        <ele>1605.4000244141</ele>
        <time>2022-07-23T10:21:16.000Z</time>
      </trkpt>
      <trkpt lat="44.10426" lon="6.99801">
        <ele>1604</ele>
        <time>2022-07-23T10:21:17.000Z</time>
      </trkpt>
      <trkpt lat="44.10439" lon="6.99788">
        <ele>1604.4000244141</ele>
        <time>2022-07-23T10:21:21.000Z</time>
      </trkpt>
      <trkpt lat="44.10456" lon="6.99771">
        <ele>1604</ele>
        <time>2022-07-23T10:21:26.000Z</time>
      </trkpt>
      <trkpt lat="44.10459" lon="6.99768">
        <ele>1603.5999755859</ele>
        <time>2022-07-23T10:21:27.000Z</time>
      </trkpt>
      <trkpt lat="44.10467" lon="6.99758">
        <ele>1603</ele>
        <time>2022-07-23T10:21:29.000Z</time>
      </trkpt>
      <trkpt lat="44.10471" lon="6.99754">
        <ele>1602.8000488281</ele>
        <time>2022-07-23T10:21:30.000Z</time>
      </trkpt>
      <trkpt lat="44.10476" lon="6.99748">
        <ele>1602.5999755859</ele>
        <time>2022-07-23T10:21:31.000Z</time>
      </trkpt>
      <trkpt lat="44.1049" lon="6.99732">
        <ele>1601.5999755859</ele>
        <time>2022-07-23T10:21:34.000Z</time>
      </trkpt>
      <trkpt lat="44.105" lon="6.99721">
        <ele>1600</ele>
        <time>2022-07-23T10:21:36.000Z</time>
      </trkpt>
      <trkpt lat="44.10507" lon="6.9971">
        <ele>1598.8000488281</ele>
        <time>2022-07-23T10:21:38.000Z</time>
      </trkpt>
      <trkpt lat="44.10512" lon="6.99704">
        <ele>1597.1999511719</ele>
        <time>2022-07-23T10:21:39.000Z</time>
      </trkpt>
      <trkpt lat="44.10515" lon="6.99698">
        <ele>1596.5999755859</ele>
        <time>2022-07-23T10:21:40.000Z</time>
      </trkpt>
      <trkpt lat="44.10519" lon="6.99692">
        <ele>1595.1999511719</ele>
        <time>2022-07-23T10:21:41.000Z</time>
      </trkpt>
      <trkpt lat="44.10523" lon="6.99677">
        <ele>1593.1999511719</ele>
        <time>2022-07-23T10:21:43.000Z</time>
      </trkpt>
      <trkpt lat="44.10529" lon="6.99664">
        <ele>1591.1999511719</ele>
        <time>2022-07-23T10:21:45.000Z</time>
      </trkpt>
      <trkpt lat="44.10533" lon="6.99656">
        <ele>1590.4000244141</ele>
        <time>2022-07-23T10:21:46.000Z</time>
      </trkpt>
      <trkpt lat="44.10537" lon="6.9965">
        <ele>1588.5999755859</ele>
        <time>2022-07-23T10:21:47.000Z</time>
      </trkpt>
      <trkpt lat="44.1054" lon="6.99647">
        <ele>1587.5999755859</ele>
        <time>2022-07-23T10:21:48.000Z</time>
      </trkpt>
      <trkpt lat="44.10545" lon="6.9964">
        <ele>1586</ele>
        <time>2022-07-23T10:21:50.000Z</time>
      </trkpt>
      <trkpt lat="44.10552" lon="6.99634">
        <ele>1584.5999755859</ele>
        <time>2022-07-23T10:21:52.000Z</time>
      </trkpt>
      <trkpt lat="44.10555" lon="6.99631">
        <ele>1584</ele>
        <time>2022-07-23T10:21:53.000Z</time>
      </trkpt>
      <trkpt lat="44.10558" lon="6.99628">
        <ele>1583.4000244141</ele>
        <time>2022-07-23T10:21:54.000Z</time>
      </trkpt>
      <trkpt lat="44.10571" lon="6.99609">
        <ele>1583.4000244141</ele>
        <time>2022-07-23T10:21:59.000Z</time>
      </trkpt>
      <trkpt lat="44.10575" lon="6.99601">
        <ele>1582</ele>
        <time>2022-07-23T10:22:01.000Z</time>
      </trkpt>
      <trkpt lat="44.10574" lon="6.99596">
        <ele>1580.8000488281</ele>
        <time>2022-07-23T10:22:03.000Z</time>
      </trkpt>
      <trkpt lat="44.1057" lon="6.99592">
        <ele>1579.5999755859</ele>
        <time>2022-07-23T10:22:05.000Z</time>
      </trkpt>
      <trkpt lat="44.10565" lon="6.99588">
        <ele>1579</ele>
        <time>2022-07-23T10:22:07.000Z</time>
      </trkpt>
      <trkpt lat="44.10564" lon="6.99587">
        <ele>1578.4000244141</ele>
        <time>2022-07-23T10:22:08.000Z</time>
      </trkpt>
      <trkpt lat="44.10556" lon="6.99583">
        <ele>1579.5999755859</ele>
        <time>2022-07-23T10:22:11.000Z</time>
      </trkpt>
      <trkpt lat="44.10554" lon="6.99582">
        <ele>1580.1999511719</ele>
        <time>2022-07-23T10:22:12.000Z</time>
      </trkpt>
      <trkpt lat="44.10552" lon="6.99581">
        <ele>1581.4000244141</ele>
        <time>2022-07-23T10:22:13.000Z</time>
      </trkpt>
      <trkpt lat="44.10549" lon="6.99579">
        <ele>1582.4000244141</ele>
        <time>2022-07-23T10:22:15.000Z</time>
      </trkpt>
      <trkpt lat="44.10546" lon="6.99578">
        <ele>1583.1999511719</ele>
        <time>2022-07-23T10:22:17.000Z</time>
      </trkpt>
      <trkpt lat="44.10547" lon="6.99578">
        <ele>1583.5999755859</ele>
        <time>2022-07-23T10:22:18.000Z</time>
      </trkpt>
      <trkpt lat="44.10545" lon="6.99578">
        <ele>1584</ele>
        <time>2022-07-23T10:22:20.000Z</time>
      </trkpt>
      <trkpt lat="44.10542" lon="6.99577">
        <ele>1584.1999511719</ele>
        <time>2022-07-23T10:22:26.000Z</time>
      </trkpt>
      <trkpt lat="44.10538" lon="6.99574">
        <ele>1584.8000488281</ele>
        <time>2022-07-23T10:22:29.000Z</time>
      </trkpt>
      <trkpt lat="44.10536" lon="6.99573">
        <ele>1585.1999511719</ele>
        <time>2022-07-23T10:22:30.000Z</time>
      </trkpt>
      <trkpt lat="44.10534" lon="6.99572">
        <ele>1586</ele>
        <time>2022-07-23T10:22:33.000Z</time>
      </trkpt>
      <trkpt lat="44.10532" lon="6.99571">
        <ele>1585.8000488281</ele>
        <time>2022-07-23T10:22:34.000Z</time>
      </trkpt>
      <trkpt lat="44.10524" lon="6.99566">
        <ele>1586.1999511719</ele>
        <time>2022-07-23T10:22:38.000Z</time>
      </trkpt>
      <trkpt lat="44.10522" lon="6.99565">
        <ele>1586.8000488281</ele>
        <time>2022-07-23T10:22:42.000Z</time>
      </trkpt>
      <trkpt lat="44.10517" lon="6.99561">
        <ele>1587</ele>
        <time>2022-07-23T10:22:45.000Z</time>
      </trkpt>
      <trkpt lat="44.10515" lon="6.99561">
        <ele>1587.4000244141</ele>
        <time>2022-07-23T10:22:46.000Z</time>
      </trkpt>
      <trkpt lat="44.10504" lon="6.99553">
        <ele>1587.8000488281</ele>
        <time>2022-07-23T10:22:51.000Z</time>
      </trkpt>
      <trkpt lat="44.10497" lon="6.99548">
        <ele>1588.4000244141</ele>
        <time>2022-07-23T10:22:54.000Z</time>
      </trkpt>
      <trkpt lat="44.10492" lon="6.99542">
        <ele>1588.8000488281</ele>
        <time>2022-07-23T10:22:56.000Z</time>
      </trkpt>
      <trkpt lat="44.10488" lon="6.99538">
        <ele>1589.4000244141</ele>
        <time>2022-07-23T10:22:58.000Z</time>
      </trkpt>
      <trkpt lat="44.10482" lon="6.9953">
        <ele>1590.4000244141</ele>
        <time>2022-07-23T10:23:01.000Z</time>
      </trkpt>
      <trkpt lat="44.1048" lon="6.99528">
        <ele>1590.8000488281</ele>
        <time>2022-07-23T10:23:02.000Z</time>
      </trkpt>
      <trkpt lat="44.10475" lon="6.9952">
        <ele>1592</ele>
        <time>2022-07-23T10:23:05.000Z</time>
      </trkpt>
      <trkpt lat="44.10474" lon="6.99518">
        <ele>1593.4000244141</ele>
        <time>2022-07-23T10:23:07.000Z</time>
      </trkpt>
      <trkpt lat="44.10473" lon="6.99516">
        <ele>1594.8000488281</ele>
        <time>2022-07-23T10:23:09.000Z</time>
      </trkpt>
      <trkpt lat="44.10471" lon="6.99509">
        <ele>1595.4000244141</ele>
        <time>2022-07-23T10:23:12.000Z</time>
      </trkpt>
      <trkpt lat="44.10469" lon="6.99504">
        <ele>1596</ele>
        <time>2022-07-23T10:23:14.000Z</time>
      </trkpt>
      <trkpt lat="44.10465" lon="6.99497">
        <ele>1596.8000488281</ele>
        <time>2022-07-23T10:23:18.000Z</time>
      </trkpt>
      <trkpt lat="44.10463" lon="6.99495">
        <ele>1597</ele>
        <time>2022-07-23T10:23:19.000Z</time>
      </trkpt>
      <trkpt lat="44.10459" lon="6.99487">
        <ele>1598.1999511719</ele>
        <time>2022-07-23T10:23:23.000Z</time>
      </trkpt>
      <trkpt lat="44.10458" lon="6.99485">
        <ele>1598.5999755859</ele>
        <time>2022-07-23T10:23:24.000Z</time>
      </trkpt>
      <trkpt lat="44.10456" lon="6.99481">
        <ele>1599.4000244141</ele>
        <time>2022-07-23T10:23:26.000Z</time>
      </trkpt>
      <trkpt lat="44.10456" lon="6.9948">
        <ele>1600.1999511719</ele>
        <time>2022-07-23T10:23:28.000Z</time>
      </trkpt>
      <trkpt lat="44.10456" lon="6.99479">
        <ele>1600.4000244141</ele>
        <time>2022-07-23T10:23:30.000Z</time>
      </trkpt>
      <trkpt lat="44.10456" lon="6.99478">
        <ele>1600.8000488281</ele>
        <time>2022-07-23T10:23:34.000Z</time>
      </trkpt>
      <trkpt lat="44.10455" lon="6.99475">
        <ele>1601</ele>
        <time>2022-07-23T10:23:40.000Z</time>
      </trkpt>
      <trkpt lat="44.10455" lon="6.99473">
        <ele>1601.5999755859</ele>
        <time>2022-07-23T10:23:45.000Z</time>
      </trkpt>
      <trkpt lat="44.10455" lon="6.99473">
        <ele>1601.5999755859</ele>
        <time>2022-07-23T10:23:46.000Z</time>
      </trkpt>
      <trkpt lat="44.10453" lon="6.99469">
        <ele>1601.8000488281</ele>
        <time>2022-07-23T10:23:50.000Z</time>
      </trkpt>
      <trkpt lat="44.10453" lon="6.99467">
        <ele>1601.8000488281</ele>
        <time>2022-07-23T10:23:51.000Z</time>
      </trkpt>
      <trkpt lat="44.10451" lon="6.99456">
        <ele>1602.5999755859</ele>
        <time>2022-07-23T10:23:55.000Z</time>
      </trkpt>
      <trkpt lat="44.1045" lon="6.99451">
        <ele>1603.1999511719</ele>
        <time>2022-07-23T10:23:57.000Z</time>
      </trkpt>
      <trkpt lat="44.10449" lon="6.99445">
        <ele>1603.8000488281</ele>
        <time>2022-07-23T10:23:59.000Z</time>
      </trkpt>
      <trkpt lat="44.10448" lon="6.99434">
        <ele>1605</ele>
        <time>2022-07-23T10:24:03.000Z</time>
      </trkpt>
      <trkpt lat="44.10449" lon="6.99428">
        <ele>1605.4000244141</ele>
        <time>2022-07-23T10:24:05.000Z</time>
      </trkpt>
      <trkpt lat="44.10449" lon="6.99419">
        <ele>1606</ele>
        <time>2022-07-23T10:24:08.000Z</time>
      </trkpt>
      <trkpt lat="44.1045" lon="6.99404">
        <ele>1606.4000244141</ele>
        <time>2022-07-23T10:24:13.000Z</time>
      </trkpt>
      <trkpt lat="44.10453" lon="6.99393">
        <ele>1607.1999511719</ele>
        <time>2022-07-23T10:24:17.000Z</time>
      </trkpt>
      <trkpt lat="44.10455" lon="6.99387">
        <ele>1607.5999755859</ele>
        <time>2022-07-23T10:24:19.000Z</time>
      </trkpt>
      <trkpt lat="44.10457" lon="6.99371">
        <ele>1607.4000244141</ele>
        <time>2022-07-23T10:24:25.000Z</time>
      </trkpt>
      <trkpt lat="44.10458" lon="6.99369">
        <ele>1606.8000488281</ele>
        <time>2022-07-23T10:24:29.000Z</time>
      </trkpt>
      <trkpt lat="44.10458" lon="6.99369">
        <ele>1607</ele>
        <time>2022-07-23T10:24:41.000Z</time>
      </trkpt>
      <trkpt lat="44.10458" lon="6.9937">
        <ele>1606.1999511719</ele>
        <time>2022-07-23T10:24:50.000Z</time>
      </trkpt>
      <trkpt lat="44.10458" lon="6.9937">
        <ele>1606.4000244141</ele>
        <time>2022-07-23T10:24:58.000Z</time>
      </trkpt>
      <trkpt lat="44.10458" lon="6.9937">
        <ele>1606</ele>
        <time>2022-07-23T10:25:15.000Z</time>
      </trkpt>
      <trkpt lat="44.10458" lon="6.99371">
        <ele>1606.5999755859</ele>
        <time>2022-07-23T10:25:28.000Z</time>
      </trkpt>
      <trkpt lat="44.10459" lon="6.99371">
        <ele>1606.4000244141</ele>
        <time>2022-07-23T10:25:45.000Z</time>
      </trkpt>
      <trkpt lat="44.10459" lon="6.99371">
        <ele>1606</ele>
        <time>2022-07-23T10:26:02.000Z</time>
      </trkpt>
      <trkpt lat="44.1046" lon="6.9937">
        <ele>1606.8000488281</ele>
        <time>2022-07-23T10:26:09.000Z</time>
      </trkpt>
      <trkpt lat="44.1046" lon="6.99363">
        <ele>1607.1999511719</ele>
        <time>2022-07-23T10:26:15.000Z</time>
      </trkpt>
      <trkpt lat="44.10458" lon="6.99344">
        <ele>1606.1999511719</ele>
        <time>2022-07-23T10:26:19.000Z</time>
      </trkpt>
      <trkpt lat="44.1046" lon="6.99337">
        <ele>1604.4000244141</ele>
        <time>2022-07-23T10:26:21.000Z</time>
      </trkpt>
      <trkpt lat="44.10461" lon="6.99333">
        <ele>1603</ele>
        <time>2022-07-23T10:26:22.000Z</time>
      </trkpt>
      <trkpt lat="44.10461" lon="6.99329">
        <ele>1601.8000488281</ele>
        <time>2022-07-23T10:26:23.000Z</time>
      </trkpt>
      <trkpt lat="44.10459" lon="6.99326">
        <ele>1600.4000244141</ele>
        <time>2022-07-23T10:26:24.000Z</time>
      </trkpt>
      <trkpt lat="44.10458" lon="6.99322">
        <ele>1599</ele>
        <time>2022-07-23T10:26:25.000Z</time>
      </trkpt>
      <trkpt lat="44.10458" lon="6.99318">
        <ele>1599</ele>
        <time>2022-07-23T10:26:26.000Z</time>
      </trkpt>
      <trkpt lat="44.10457" lon="6.99315">
        <ele>1598.5999755859</ele>
        <time>2022-07-23T10:26:27.000Z</time>
      </trkpt>
      <trkpt lat="44.10454" lon="6.99313">
        <ele>1597.8000488281</ele>
        <time>2022-07-23T10:26:28.000Z</time>
      </trkpt>
      <trkpt lat="44.10448" lon="6.9931">
        <ele>1596.5999755859</ele>
        <time>2022-07-23T10:26:30.000Z</time>
      </trkpt>
      <trkpt lat="44.10445" lon="6.9931">
        <ele>1595.1999511719</ele>
        <time>2022-07-23T10:26:31.000Z</time>
      </trkpt>
      <trkpt lat="44.10442" lon="6.99309">
        <ele>1593.8000488281</ele>
        <time>2022-07-23T10:26:32.000Z</time>
      </trkpt>
      <trkpt lat="44.1044" lon="6.99307">
        <ele>1593</ele>
        <time>2022-07-23T10:26:33.000Z</time>
      </trkpt>
      <trkpt lat="44.10438" lon="6.99306">
        <ele>1592.1999511719</ele>
        <time>2022-07-23T10:26:34.000Z</time>
      </trkpt>
      <trkpt lat="44.10432" lon="6.99309">
        <ele>1590.8000488281</ele>
        <time>2022-07-23T10:26:36.000Z</time>
      </trkpt>
      <trkpt lat="44.10423" lon="6.99313">
        <ele>1589</ele>
        <time>2022-07-23T10:26:38.000Z</time>
      </trkpt>
      <trkpt lat="44.1042" lon="6.99314">
        <ele>1588</ele>
        <time>2022-07-23T10:26:39.000Z</time>
      </trkpt>
      <trkpt lat="44.10416" lon="6.99315">
        <ele>1586.8000488281</ele>
        <time>2022-07-23T10:26:40.000Z</time>
      </trkpt>
      <trkpt lat="44.10413" lon="6.99316">
        <ele>1585.5999755859</ele>
        <time>2022-07-23T10:26:41.000Z</time>
      </trkpt>
      <trkpt lat="44.1041" lon="6.99318">
        <ele>1584</ele>
        <time>2022-07-23T10:26:42.000Z</time>
      </trkpt>
      <trkpt lat="44.10408" lon="6.99318">
        <ele>1582.8000488281</ele>
        <time>2022-07-23T10:26:43.000Z</time>
      </trkpt>
      <trkpt lat="44.10408" lon="6.99314">
        <ele>1581.8000488281</ele>
        <time>2022-07-23T10:26:44.000Z</time>
      </trkpt>
      <trkpt lat="44.10408" lon="6.99312">
        <ele>1580.5999755859</ele>
        <time>2022-07-23T10:26:45.000Z</time>
      </trkpt>
      <trkpt lat="44.10406" lon="6.99309">
        <ele>1579.1999511719</ele>
        <time>2022-07-23T10:26:47.000Z</time>
      </trkpt>
      <trkpt lat="44.10398" lon="6.99314">
        <ele>1578.1999511719</ele>
        <time>2022-07-23T10:26:49.000Z</time>
      </trkpt>
      <trkpt lat="44.10395" lon="6.99317">
        <ele>1577.4000244141</ele>
        <time>2022-07-23T10:26:50.000Z</time>
      </trkpt>
      <trkpt lat="44.10391" lon="6.9932">
        <ele>1576.4000244141</ele>
        <time>2022-07-23T10:26:51.000Z</time>
      </trkpt>
      <trkpt lat="44.10386" lon="6.99325">
        <ele>1574.8000488281</ele>
        <time>2022-07-23T10:26:53.000Z</time>
      </trkpt>
      <trkpt lat="44.10383" lon="6.99329">
        <ele>1573.5999755859</ele>
        <time>2022-07-23T10:26:54.000Z</time>
      </trkpt>
      <trkpt lat="44.10377" lon="6.99338">
        <ele>1571.5999755859</ele>
        <time>2022-07-23T10:26:56.000Z</time>
      </trkpt>
      <trkpt lat="44.10373" lon="6.99347">
        <ele>1569.1999511719</ele>
        <time>2022-07-23T10:26:58.000Z</time>
      </trkpt>
      <trkpt lat="44.10369" lon="6.99356">
        <ele>1568.5999755859</ele>
        <time>2022-07-23T10:27:00.000Z</time>
      </trkpt>
      <trkpt lat="44.10363" lon="6.99364">
        <ele>1567.5999755859</ele>
        <time>2022-07-23T10:27:02.000Z</time>
      </trkpt>
      <trkpt lat="44.10356" lon="6.99374">
        <ele>1565.4000244141</ele>
        <time>2022-07-23T10:27:04.000Z</time>
      </trkpt>
      <trkpt lat="44.10353" lon="6.99378">
        <ele>1564.1999511719</ele>
        <time>2022-07-23T10:27:05.000Z</time>
      </trkpt>
      <trkpt lat="44.1035" lon="6.9938">
        <ele>1562.8000488281</ele>
        <time>2022-07-23T10:27:06.000Z</time>
      </trkpt>
      <trkpt lat="44.10347" lon="6.99382">
        <ele>1561.8000488281</ele>
        <time>2022-07-23T10:27:07.000Z</time>
      </trkpt>
      <trkpt lat="44.10344" lon="6.99387">
        <ele>1560.5999755859</ele>
        <time>2022-07-23T10:27:08.000Z</time>
      </trkpt>
      <trkpt lat="44.10339" lon="6.99401">
        <ele>1559.5999755859</ele>
        <time>2022-07-23T10:27:10.000Z</time>
      </trkpt>
      <trkpt lat="44.10333" lon="6.99414">
        <ele>1557.8000488281</ele>
        <time>2022-07-23T10:27:12.000Z</time>
      </trkpt>
      <trkpt lat="44.10328" lon="6.9943">
        <ele>1556</ele>
        <time>2022-07-23T10:27:14.000Z</time>
      </trkpt>
      <trkpt lat="44.10326" lon="6.99449">
        <ele>1554.1999511719</ele>
        <time>2022-07-23T10:27:17.000Z</time>
      </trkpt>
      <trkpt lat="44.10326" lon="6.9946">
        <ele>1553</ele>
        <time>2022-07-23T10:27:18.000Z</time>
      </trkpt>
      <trkpt lat="44.10326" lon="6.99467">
        <ele>1552</ele>
        <time>2022-07-23T10:27:19.000Z</time>
      </trkpt>
      <trkpt lat="44.10325" lon="6.99474">
        <ele>1550.8000488281</ele>
        <time>2022-07-23T10:27:20.000Z</time>
      </trkpt>
      <trkpt lat="44.10323" lon="6.99493">
        <ele>1550</ele>
        <time>2022-07-23T10:27:23.000Z</time>
      </trkpt>
      <trkpt lat="44.1032" lon="6.99497">
        <ele>1549.5999755859</ele>
        <time>2022-07-23T10:27:24.000Z</time>
      </trkpt>
      <trkpt lat="44.10315" lon="6.99503">
        <ele>1548.8000488281</ele>
        <time>2022-07-23T10:27:26.000Z</time>
      </trkpt>
      <trkpt lat="44.10311" lon="6.99504">
        <ele>1548.4000244141</ele>
        <time>2022-07-23T10:27:27.000Z</time>
      </trkpt>
      <trkpt lat="44.10302" lon="6.99499">
        <ele>1547.1999511719</ele>
        <time>2022-07-23T10:27:29.000Z</time>
      </trkpt>
      <trkpt lat="44.10295" lon="6.99491">
        <ele>1545.1999511719</ele>
        <time>2022-07-23T10:27:31.000Z</time>
      </trkpt>
      <trkpt lat="44.10293" lon="6.9949">
        <ele>1544</ele>
        <time>2022-07-23T10:27:32.000Z</time>
      </trkpt>
      <trkpt lat="44.10292" lon="6.99492">
        <ele>1542.5999755859</ele>
        <time>2022-07-23T10:27:33.000Z</time>
      </trkpt>
      <trkpt lat="44.10289" lon="6.99493">
        <ele>1541.1999511719</ele>
        <time>2022-07-23T10:27:34.000Z</time>
      </trkpt>
      <trkpt lat="44.10287" lon="6.99492">
        <ele>1540.1999511719</ele>
        <time>2022-07-23T10:27:35.000Z</time>
      </trkpt>
      <trkpt lat="44.10282" lon="6.99486">
        <ele>1538.1999511719</ele>
        <time>2022-07-23T10:27:37.000Z</time>
      </trkpt>
      <trkpt lat="44.1028" lon="6.99477">
        <ele>1537</ele>
        <time>2022-07-23T10:27:39.000Z</time>
      </trkpt>
      <trkpt lat="44.10279" lon="6.99471">
        <ele>1536</ele>
        <time>2022-07-23T10:27:40.000Z</time>
      </trkpt>
      <trkpt lat="44.10279" lon="6.99464">
        <ele>1535</ele>
        <time>2022-07-23T10:27:41.000Z</time>
      </trkpt>
      <trkpt lat="44.10279" lon="6.99448">
        <ele>1533.4000244141</ele>
        <time>2022-07-23T10:27:43.000Z</time>
      </trkpt>
      <trkpt lat="44.10279" lon="6.9944">
        <ele>1532.1999511719</ele>
        <time>2022-07-23T10:27:44.000Z</time>
      </trkpt>
      <trkpt lat="44.1028" lon="6.99433">
        <ele>1530.8000488281</ele>
        <time>2022-07-23T10:27:45.000Z</time>
      </trkpt>
      <trkpt lat="44.1028" lon="6.99429">
        <ele>1530</ele>
        <time>2022-07-23T10:27:46.000Z</time>
      </trkpt>
      <trkpt lat="44.1028" lon="6.99422">
        <ele>1529</ele>
        <time>2022-07-23T10:27:47.000Z</time>
      </trkpt>
      <trkpt lat="44.10279" lon="6.99415">
        <ele>1528.4000244141</ele>
        <time>2022-07-23T10:27:48.000Z</time>
      </trkpt>
      <trkpt lat="44.10278" lon="6.99399">
        <ele>1528</ele>
        <time>2022-07-23T10:27:50.000Z</time>
      </trkpt>
      <trkpt lat="44.10276" lon="6.99393">
        <ele>1528</ele>
        <time>2022-07-23T10:27:51.000Z</time>
      </trkpt>
      <trkpt lat="44.10275" lon="6.99377">
        <ele>1527</ele>
        <time>2022-07-23T10:27:53.000Z</time>
      </trkpt>
      <trkpt lat="44.10274" lon="6.99369">
        <ele>1526.1999511719</ele>
        <time>2022-07-23T10:27:54.000Z</time>
      </trkpt>
      <trkpt lat="44.10271" lon="6.99356">
        <ele>1524.1999511719</ele>
        <time>2022-07-23T10:27:56.000Z</time>
      </trkpt>
      <trkpt lat="44.10269" lon="6.99352">
        <ele>1524.1999511719</ele>
        <time>2022-07-23T10:27:57.000Z</time>
      </trkpt>
      <trkpt lat="44.10265" lon="6.99346">
        <ele>1523</ele>
        <time>2022-07-23T10:27:59.000Z</time>
      </trkpt>
      <trkpt lat="44.10259" lon="6.99341">
        <ele>1521.1999511719</ele>
        <time>2022-07-23T10:28:01.000Z</time>
      </trkpt>
      <trkpt lat="44.10255" lon="6.99338">
        <ele>1519.5999755859</ele>
        <time>2022-07-23T10:28:02.000Z</time>
      </trkpt>
      <trkpt lat="44.1025" lon="6.99334">
        <ele>1518.4000244141</ele>
        <time>2022-07-23T10:28:03.000Z</time>
      </trkpt>
      <trkpt lat="44.10246" lon="6.99329">
        <ele>1517</ele>
        <time>2022-07-23T10:28:04.000Z</time>
      </trkpt>
      <trkpt lat="44.10242" lon="6.99322">
        <ele>1516</ele>
        <time>2022-07-23T10:28:05.000Z</time>
      </trkpt>
      <trkpt lat="44.10238" lon="6.99316">
        <ele>1514.8000488281</ele>
        <time>2022-07-23T10:28:06.000Z</time>
      </trkpt>
      <trkpt lat="44.10235" lon="6.99309">
        <ele>1513.5999755859</ele>
        <time>2022-07-23T10:28:07.000Z</time>
      </trkpt>
      <trkpt lat="44.1023" lon="6.99305">
        <ele>1512.1999511719</ele>
        <time>2022-07-23T10:28:08.000Z</time>
      </trkpt>
      <trkpt lat="44.10224" lon="6.99301">
        <ele>1511</ele>
        <time>2022-07-23T10:28:09.000Z</time>
      </trkpt>
      <trkpt lat="44.10218" lon="6.99294">
        <ele>1509.8000488281</ele>
        <time>2022-07-23T10:28:10.000Z</time>
      </trkpt>
      <trkpt lat="44.10212" lon="6.99288">
        <ele>1508.1999511719</ele>
        <time>2022-07-23T10:28:11.000Z</time>
      </trkpt>
      <trkpt lat="44.10203" lon="6.99281">
        <ele>1507</ele>
        <time>2022-07-23T10:28:12.000Z</time>
      </trkpt>
      <trkpt lat="44.10195" lon="6.99273">
        <ele>1505.1999511719</ele>
        <time>2022-07-23T10:28:13.000Z</time>
      </trkpt>
      <trkpt lat="44.10187" lon="6.99266">
        <ele>1503.1999511719</ele>
        <time>2022-07-23T10:28:14.000Z</time>
      </trkpt>
      <trkpt lat="44.10179" lon="6.99262">
        <ele>1500.4000244141</ele>
        <time>2022-07-23T10:28:15.000Z</time>
      </trkpt>
      <trkpt lat="44.10172" lon="6.9926">
        <ele>1498.4000244141</ele>
        <time>2022-07-23T10:28:16.000Z</time>
      </trkpt>
      <trkpt lat="44.10164" lon="6.99257">
        <ele>1496.1999511719</ele>
        <time>2022-07-23T10:28:17.000Z</time>
      </trkpt>
      <trkpt lat="44.10157" lon="6.99251">
        <ele>1493.8000488281</ele>
        <time>2022-07-23T10:28:18.000Z</time>
      </trkpt>
      <trkpt lat="44.10151" lon="6.99245">
        <ele>1492</ele>
        <time>2022-07-23T10:28:19.000Z</time>
      </trkpt>
      <trkpt lat="44.10146" lon="6.99239">
        <ele>1491</ele>
        <time>2022-07-23T10:28:20.000Z</time>
      </trkpt>
      <trkpt lat="44.10142" lon="6.99235">
        <ele>1489</ele>
        <time>2022-07-23T10:28:21.000Z</time>
      </trkpt>
      <trkpt lat="44.10137" lon="6.99228">
        <ele>1489.4000244141</ele>
        <time>2022-07-23T10:28:23.000Z</time>
      </trkpt>
      <trkpt lat="44.10138" lon="6.99227">
        <ele>1488</ele>
        <time>2022-07-23T10:28:24.000Z</time>
      </trkpt>
      <trkpt lat="44.10138" lon="6.99228">
        <ele>1486.5999755859</ele>
        <time>2022-07-23T10:28:26.000Z</time>
      </trkpt>
      <trkpt lat="44.10138" lon="6.99228">
        <ele>1487</ele>
        <time>2022-07-23T10:28:33.000Z</time>
      </trkpt>
      <trkpt lat="44.10138" lon="6.99227">
        <ele>1487.5999755859</ele>
        <time>2022-07-23T10:28:45.000Z</time>
      </trkpt>
      <trkpt lat="44.10138" lon="6.99227">
        <ele>1488</ele>
        <time>2022-07-23T10:28:54.000Z</time>
      </trkpt>
      <trkpt lat="44.10138" lon="6.99227">
        <ele>1486.4000244141</ele>
        <time>2022-07-23T10:29:10.000Z</time>
      </trkpt>
      <trkpt lat="44.10138" lon="6.99227">
        <ele>1485.8000488281</ele>
        <time>2022-07-23T10:29:15.000Z</time>
      </trkpt>
      <trkpt lat="44.10144" lon="6.9922">
        <ele>1485.4000244141</ele>
        <time>2022-07-23T10:29:19.000Z</time>
      </trkpt>
      <trkpt lat="44.10145" lon="6.99217">
        <ele>1485</ele>
        <time>2022-07-23T10:29:20.000Z</time>
      </trkpt>
      <trkpt lat="44.10142" lon="6.99211">
        <ele>1484</ele>
        <time>2022-07-23T10:29:22.000Z</time>
      </trkpt>
      <trkpt lat="44.10139" lon="6.99214">
        <ele>1482.8000488281</ele>
        <time>2022-07-23T10:29:24.000Z</time>
      </trkpt>
      <trkpt lat="44.10137" lon="6.99218">
        <ele>1482.1999511719</ele>
        <time>2022-07-23T10:29:25.000Z</time>
      </trkpt>
      <trkpt lat="44.10126" lon="6.99223">
        <ele>1482</ele>
        <time>2022-07-23T10:29:29.000Z</time>
      </trkpt>
      <trkpt lat="44.10119" lon="6.99221">
        <ele>1482.4000244141</ele>
        <time>2022-07-23T10:29:31.000Z</time>
      </trkpt>
      <trkpt lat="44.10114" lon="6.99218">
        <ele>1482.5999755859</ele>
        <time>2022-07-23T10:29:32.000Z</time>
      </trkpt>
      <trkpt lat="44.10106" lon="6.99215">
        <ele>1482.8000488281</ele>
        <time>2022-07-23T10:29:33.000Z</time>
      </trkpt>
      <trkpt lat="44.10093" lon="6.99207">
        <ele>1482.5999755859</ele>
        <time>2022-07-23T10:29:35.000Z</time>
      </trkpt>
      <trkpt lat="44.1009" lon="6.99202">
        <ele>1481.8000488281</ele>
        <time>2022-07-23T10:29:36.000Z</time>
      </trkpt>
      <trkpt lat="44.10088" lon="6.992">
        <ele>1480.4000244141</ele>
        <time>2022-07-23T10:29:37.000Z</time>
      </trkpt>
      <trkpt lat="44.10082" lon="6.99199">
        <ele>1479</ele>
        <time>2022-07-23T10:29:38.000Z</time>
      </trkpt>
      <trkpt lat="44.10075" lon="6.99196">
        <ele>1477.5999755859</ele>
        <time>2022-07-23T10:29:39.000Z</time>
      </trkpt>
      <trkpt lat="44.10069" lon="6.99195">
        <ele>1476.5999755859</ele>
        <time>2022-07-23T10:29:40.000Z</time>
      </trkpt>
      <trkpt lat="44.10062" lon="6.99195">
        <ele>1475.4000244141</ele>
        <time>2022-07-23T10:29:41.000Z</time>
      </trkpt>
      <trkpt lat="44.10053" lon="6.99195">
        <ele>1473.5999755859</ele>
        <time>2022-07-23T10:29:42.000Z</time>
      </trkpt>
      <trkpt lat="44.10046" lon="6.99195">
        <ele>1472.5999755859</ele>
        <time>2022-07-23T10:29:43.000Z</time>
      </trkpt>
      <trkpt lat="44.1004" lon="6.99197">
        <ele>1471.5999755859</ele>
        <time>2022-07-23T10:29:44.000Z</time>
      </trkpt>
      <trkpt lat="44.10037" lon="6.992">
        <ele>1470.4000244141</ele>
        <time>2022-07-23T10:29:45.000Z</time>
      </trkpt>
      <trkpt lat="44.10035" lon="6.99205">
        <ele>1469.8000488281</ele>
        <time>2022-07-23T10:29:46.000Z</time>
      </trkpt>
      <trkpt lat="44.10032" lon="6.99214">
        <ele>1468.1999511719</ele>
        <time>2022-07-23T10:29:47.000Z</time>
      </trkpt>
      <trkpt lat="44.10028" lon="6.99219">
        <ele>1466.8000488281</ele>
        <time>2022-07-23T10:29:48.000Z</time>
      </trkpt>
      <trkpt lat="44.10022" lon="6.99222">
        <ele>1465.5999755859</ele>
        <time>2022-07-23T10:29:49.000Z</time>
      </trkpt>
      <trkpt lat="44.10011" lon="6.99219">
        <ele>1464.1999511719</ele>
        <time>2022-07-23T10:29:51.000Z</time>
      </trkpt>
      <trkpt lat="44.1" lon="6.99209">
        <ele>1462.1999511719</ele>
        <time>2022-07-23T10:29:53.000Z</time>
      </trkpt>
      <trkpt lat="44.09994" lon="6.99204">
        <ele>1460.5999755859</ele>
        <time>2022-07-23T10:29:54.000Z</time>
      </trkpt>
      <trkpt lat="44.09989" lon="6.99199">
        <ele>1459.1999511719</ele>
        <time>2022-07-23T10:29:55.000Z</time>
      </trkpt>
      <trkpt lat="44.09986" lon="6.99195">
        <ele>1457.5999755859</ele>
        <time>2022-07-23T10:29:56.000Z</time>
      </trkpt>
      <trkpt lat="44.09983" lon="6.99189">
        <ele>1455.5999755859</ele>
        <time>2022-07-23T10:29:57.000Z</time>
      </trkpt>
      <trkpt lat="44.09981" lon="6.99184">
        <ele>1453.8000488281</ele>
        <time>2022-07-23T10:29:58.000Z</time>
      </trkpt>
      <trkpt lat="44.09982" lon="6.99179">
        <ele>1452.1999511719</ele>
        <time>2022-07-23T10:29:59.000Z</time>
      </trkpt>
      <trkpt lat="44.09982" lon="6.99175">
        <ele>1450.8000488281</ele>
        <time>2022-07-23T10:30:00.000Z</time>
      </trkpt>
      <trkpt lat="44.09981" lon="6.99174">
        <ele>1449.8000488281</ele>
        <time>2022-07-23T10:30:01.000Z</time>
      </trkpt>
      <trkpt lat="44.09979" lon="6.99174">
        <ele>1448.8000488281</ele>
        <time>2022-07-23T10:30:02.000Z</time>
      </trkpt>
      <trkpt lat="44.09973" lon="6.99179">
        <ele>1446.8000488281</ele>
        <time>2022-07-23T10:30:04.000Z</time>
      </trkpt>
      <trkpt lat="44.09966" lon="6.99182">
        <ele>1445.1999511719</ele>
        <time>2022-07-23T10:30:06.000Z</time>
      </trkpt>
      <trkpt lat="44.0996" lon="6.99176">
        <ele>1443.4000244141</ele>
        <time>2022-07-23T10:30:08.000Z</time>
      </trkpt>
      <trkpt lat="44.09958" lon="6.99175">
        <ele>1442.1999511719</ele>
        <time>2022-07-23T10:30:09.000Z</time>
      </trkpt>
      <trkpt lat="44.09955" lon="6.99174">
        <ele>1441</ele>
        <time>2022-07-23T10:30:10.000Z</time>
      </trkpt>
      <trkpt lat="44.09951" lon="6.99172">
        <ele>1440</ele>
        <time>2022-07-23T10:30:11.000Z</time>
      </trkpt>
      <trkpt lat="44.09945" lon="6.99168">
        <ele>1439</ele>
        <time>2022-07-23T10:30:12.000Z</time>
      </trkpt>
      <trkpt lat="44.09939" lon="6.99164">
        <ele>1438</ele>
        <time>2022-07-23T10:30:13.000Z</time>
      </trkpt>
      <trkpt lat="44.09934" lon="6.99159">
        <ele>1436.8000488281</ele>
        <time>2022-07-23T10:30:14.000Z</time>
      </trkpt>
      <trkpt lat="44.0993" lon="6.99156">
        <ele>1435.8000488281</ele>
        <time>2022-07-23T10:30:15.000Z</time>
      </trkpt>
      <trkpt lat="44.09927" lon="6.99153">
        <ele>1434.5999755859</ele>
        <time>2022-07-23T10:30:16.000Z</time>
      </trkpt>
      <trkpt lat="44.09918" lon="6.99145">
        <ele>1433</ele>
        <time>2022-07-23T10:30:18.000Z</time>
      </trkpt>
      <trkpt lat="44.09914" lon="6.99142">
        <ele>1432</ele>
        <time>2022-07-23T10:30:19.000Z</time>
      </trkpt>
      <trkpt lat="44.09909" lon="6.99142">
        <ele>1431.1999511719</ele>
        <time>2022-07-23T10:30:20.000Z</time>
      </trkpt>
      <trkpt lat="44.09905" lon="6.99143">
        <ele>1429.8000488281</ele>
        <time>2022-07-23T10:30:21.000Z</time>
      </trkpt>
      <trkpt lat="44.09901" lon="6.99143">
        <ele>1428.5999755859</ele>
        <time>2022-07-23T10:30:22.000Z</time>
      </trkpt>
      <trkpt lat="44.09894" lon="6.99144">
        <ele>1426.8000488281</ele>
        <time>2022-07-23T10:30:24.000Z</time>
      </trkpt>
      <trkpt lat="44.0989" lon="6.99145">
        <ele>1426</ele>
        <time>2022-07-23T10:30:25.000Z</time>
      </trkpt>
      <trkpt lat="44.09888" lon="6.99149">
        <ele>1425.8000488281</ele>
        <time>2022-07-23T10:30:26.000Z</time>
      </trkpt>
      <trkpt lat="44.09885" lon="6.99154">
        <ele>1424.1999511719</ele>
        <time>2022-07-23T10:30:27.000Z</time>
      </trkpt>
      <trkpt lat="44.09884" lon="6.99157">
        <ele>1423</ele>
        <time>2022-07-23T10:30:28.000Z</time>
      </trkpt>
      <trkpt lat="44.09884" lon="6.99159">
        <ele>1422</ele>
        <time>2022-07-23T10:30:29.000Z</time>
      </trkpt>
      <trkpt lat="44.09886" lon="6.99161">
        <ele>1421</ele>
        <time>2022-07-23T10:30:30.000Z</time>
      </trkpt>
      <trkpt lat="44.09886" lon="6.99162">
        <ele>1420</ele>
        <time>2022-07-23T10:30:31.000Z</time>
      </trkpt>
      <trkpt lat="44.09886" lon="6.99164">
        <ele>1419.1999511719</ele>
        <time>2022-07-23T10:30:32.000Z</time>
      </trkpt>
      <trkpt lat="44.09881" lon="6.99166">
        <ele>1418.4000244141</ele>
        <time>2022-07-23T10:30:34.000Z</time>
      </trkpt>
      <trkpt lat="44.09878" lon="6.99164">
        <ele>1418</ele>
        <time>2022-07-23T10:30:35.000Z</time>
      </trkpt>
      <trkpt lat="44.09875" lon="6.99157">
        <ele>1416.5999755859</ele>
        <time>2022-07-23T10:30:37.000Z</time>
      </trkpt>
      <trkpt lat="44.09871" lon="6.99153">
        <ele>1415</ele>
        <time>2022-07-23T10:30:39.000Z</time>
      </trkpt>
      <trkpt lat="44.0987" lon="6.99152">
        <ele>1414.4000244141</ele>
        <time>2022-07-23T10:30:40.000Z</time>
      </trkpt>
      <trkpt lat="44.09869" lon="6.9916">
        <ele>1413.4000244141</ele>
        <time>2022-07-23T10:30:42.000Z</time>
      </trkpt>
      <trkpt lat="44.09867" lon="6.99166">
        <ele>1413</ele>
        <time>2022-07-23T10:30:43.000Z</time>
      </trkpt>
      <trkpt lat="44.09863" lon="6.9917">
        <ele>1411.8000488281</ele>
        <time>2022-07-23T10:30:44.000Z</time>
      </trkpt>
      <trkpt lat="44.0986" lon="6.99173">
        <ele>1410.4000244141</ele>
        <time>2022-07-23T10:30:45.000Z</time>
      </trkpt>
      <trkpt lat="44.09856" lon="6.99176">
        <ele>1409.5999755859</ele>
        <time>2022-07-23T10:30:46.000Z</time>
      </trkpt>
      <trkpt lat="44.09856" lon="6.99182">
        <ele>1408.5999755859</ele>
        <time>2022-07-23T10:30:47.000Z</time>
      </trkpt>
      <trkpt lat="44.09855" lon="6.9919">
        <ele>1408</ele>
        <time>2022-07-23T10:30:48.000Z</time>
      </trkpt>
      <trkpt lat="44.09853" lon="6.99193">
        <ele>1407.5999755859</ele>
        <time>2022-07-23T10:30:49.000Z</time>
      </trkpt>
      <trkpt lat="44.09848" lon="6.99193">
        <ele>1407.1999511719</ele>
        <time>2022-07-23T10:30:50.000Z</time>
      </trkpt>
      <trkpt lat="44.09844" lon="6.99185">
        <ele>1406.1999511719</ele>
        <time>2022-07-23T10:30:52.000Z</time>
      </trkpt>
      <trkpt lat="44.09844" lon="6.99182">
        <ele>1406.1999511719</ele>
        <time>2022-07-23T10:30:53.000Z</time>
      </trkpt>
      <trkpt lat="44.09845" lon="6.99182">
        <ele>1405.8000488281</ele>
        <time>2022-07-23T10:30:56.000Z</time>
      </trkpt>
      <trkpt lat="44.09845" lon="6.99182">
        <ele>1407.1999511719</ele>
        <time>2022-07-23T10:31:08.000Z</time>
      </trkpt>
      <trkpt lat="44.09845" lon="6.99182">
        <ele>1407.4000244141</ele>
        <time>2022-07-23T10:31:09.000Z</time>
      </trkpt>
      <trkpt lat="44.09844" lon="6.99182">
        <ele>1408</ele>
        <time>2022-07-23T10:31:24.000Z</time>
      </trkpt>
      <trkpt lat="44.09843" lon="6.99182">
        <ele>1408</ele>
        <time>2022-07-23T10:31:41.000Z</time>
      </trkpt>
      <trkpt lat="44.09843" lon="6.9918">
        <ele>1408.1999511719</ele>
        <time>2022-07-23T10:31:45.000Z</time>
      </trkpt>
      <trkpt lat="44.09843" lon="6.9918">
        <ele>1408.1999511719</ele>
        <time>2022-07-23T10:31:48.000Z</time>
      </trkpt>
      <trkpt lat="44.09843" lon="6.99175">
        <ele>1408</ele>
        <time>2022-07-23T10:31:54.000Z</time>
      </trkpt>
      <trkpt lat="44.0984" lon="6.9917">
        <ele>1408</ele>
        <time>2022-07-23T10:31:55.000Z</time>
      </trkpt>
      <trkpt lat="44.0983" lon="6.99158">
        <ele>1407.1999511719</ele>
        <time>2022-07-23T10:31:58.000Z</time>
      </trkpt>
      <trkpt lat="44.09822" lon="6.9915">
        <ele>1406.1999511719</ele>
        <time>2022-07-23T10:32:00.000Z</time>
      </trkpt>
      <trkpt lat="44.09816" lon="6.99142">
        <ele>1405</ele>
        <time>2022-07-23T10:32:02.000Z</time>
      </trkpt>
      <trkpt lat="44.09815" lon="6.99139">
        <ele>1404.4000244141</ele>
        <time>2022-07-23T10:32:03.000Z</time>
      </trkpt>
      <trkpt lat="44.09816" lon="6.99135">
        <ele>1403.4000244141</ele>
        <time>2022-07-23T10:32:04.000Z</time>
      </trkpt>
      <trkpt lat="44.09822" lon="6.99128">
        <ele>1402.8000488281</ele>
        <time>2022-07-23T10:32:06.000Z</time>
      </trkpt>
      <trkpt lat="44.09827" lon="6.99116">
        <ele>1402</ele>
        <time>2022-07-23T10:32:08.000Z</time>
      </trkpt>
      <trkpt lat="44.09831" lon="6.99108">
        <ele>1400.4000244141</ele>
        <time>2022-07-23T10:32:10.000Z</time>
      </trkpt>
      <trkpt lat="44.09834" lon="6.99099">
        <ele>1399</ele>
        <time>2022-07-23T10:32:12.000Z</time>
      </trkpt>
      <trkpt lat="44.09837" lon="6.99093">
        <ele>1398.4000244141</ele>
        <time>2022-07-23T10:32:15.000Z</time>
      </trkpt>
      <trkpt lat="44.09836" lon="6.99083">
        <ele>1399</ele>
        <time>2022-07-23T10:32:19.000Z</time>
      </trkpt>
      <trkpt lat="44.09831" lon="6.99073">
        <ele>1399.1999511719</ele>
        <time>2022-07-23T10:32:23.000Z</time>
      </trkpt>
      <trkpt lat="44.09822" lon="6.99071">
        <ele>1399</ele>
        <time>2022-07-23T10:32:26.000Z</time>
      </trkpt>
      <trkpt lat="44.09819" lon="6.99072">
        <ele>1398.8000488281</ele>
        <time>2022-07-23T10:32:27.000Z</time>
      </trkpt>
      <trkpt lat="44.09809" lon="6.99075">
        <ele>1397.8000488281</ele>
        <time>2022-07-23T10:32:30.000Z</time>
      </trkpt>
      <trkpt lat="44.09808" lon="6.99072">
        <ele>1397.8000488281</ele>
        <time>2022-07-23T10:32:31.000Z</time>
      </trkpt>
      <trkpt lat="44.09805" lon="6.99069">
        <ele>1397.8000488281</ele>
        <time>2022-07-23T10:32:32.000Z</time>
      </trkpt>
      <trkpt lat="44.09798" lon="6.99065">
        <ele>1398.4000244141</ele>
        <time>2022-07-23T10:32:36.000Z</time>
      </trkpt>
      <trkpt lat="44.09786" lon="6.99064">
        <ele>1398.5999755859</ele>
        <time>2022-07-23T10:32:40.000Z</time>
      </trkpt>
      <trkpt lat="44.09784" lon="6.99064">
        <ele>1399</ele>
        <time>2022-07-23T10:32:41.000Z</time>
      </trkpt>
      <trkpt lat="44.09774" lon="6.99066">
        <ele>1400.1999511719</ele>
        <time>2022-07-23T10:32:44.000Z</time>
      </trkpt>
      <trkpt lat="44.09768" lon="6.99065">
        <ele>1401.1999511719</ele>
        <time>2022-07-23T10:32:47.000Z</time>
      </trkpt>
      <trkpt lat="44.09766" lon="6.99064">
        <ele>1401.5999755859</ele>
        <time>2022-07-23T10:32:48.000Z</time>
      </trkpt>
      <trkpt lat="44.09761" lon="6.99064">
        <ele>1402.8000488281</ele>
        <time>2022-07-23T10:32:50.000Z</time>
      </trkpt>
      <trkpt lat="44.09757" lon="6.99065">
        <ele>1403.8000488281</ele>
        <time>2022-07-23T10:32:52.000Z</time>
      </trkpt>
      <trkpt lat="44.09751" lon="6.99066">
        <ele>1405.1999511719</ele>
        <time>2022-07-23T10:32:54.000Z</time>
      </trkpt>
      <trkpt lat="44.09747" lon="6.99064">
        <ele>1406.1999511719</ele>
        <time>2022-07-23T10:32:56.000Z</time>
      </trkpt>
      <trkpt lat="44.09743" lon="6.99063">
        <ele>1407.1999511719</ele>
        <time>2022-07-23T10:32:58.000Z</time>
      </trkpt>
      <trkpt lat="44.09738" lon="6.99063">
        <ele>1408.4000244141</ele>
        <time>2022-07-23T10:33:00.000Z</time>
      </trkpt>
      <trkpt lat="44.09732" lon="6.99064">
        <ele>1409.8000488281</ele>
        <time>2022-07-23T10:33:03.000Z</time>
      </trkpt>
      <trkpt lat="44.0973" lon="6.99064">
        <ele>1410.4000244141</ele>
        <time>2022-07-23T10:33:04.000Z</time>
      </trkpt>
      <trkpt lat="44.09728" lon="6.99064">
        <ele>1411</ele>
        <time>2022-07-23T10:33:05.000Z</time>
      </trkpt>
      <trkpt lat="44.09723" lon="6.99065">
        <ele>1412.8000488281</ele>
        <time>2022-07-23T10:33:08.000Z</time>
      </trkpt>
      <trkpt lat="44.09717" lon="6.99067">
        <ele>1414</ele>
        <time>2022-07-23T10:33:11.000Z</time>
      </trkpt>
      <trkpt lat="44.09712" lon="6.99071">
        <ele>1415.4000244141</ele>
        <time>2022-07-23T10:33:14.000Z</time>
      </trkpt>
      <trkpt lat="44.09709" lon="6.99073">
        <ele>1416.1999511719</ele>
        <time>2022-07-23T10:33:16.000Z</time>
      </trkpt>
      <trkpt lat="44.09705" lon="6.99074">
        <ele>1416.8000488281</ele>
        <time>2022-07-23T10:33:18.000Z</time>
      </trkpt>
      <trkpt lat="44.09698" lon="6.9908">
        <ele>1417.8000488281</ele>
        <time>2022-07-23T10:33:22.000Z</time>
      </trkpt>
      <trkpt lat="44.09696" lon="6.99082">
        <ele>1418.1999511719</ele>
        <time>2022-07-23T10:33:23.000Z</time>
      </trkpt>
      <trkpt lat="44.09692" lon="6.99086">
        <ele>1419</ele>
        <time>2022-07-23T10:33:26.000Z</time>
      </trkpt>
      <trkpt lat="44.09688" lon="6.99091">
        <ele>1420</ele>
        <time>2022-07-23T10:33:29.000Z</time>
      </trkpt>
      <trkpt lat="44.09686" lon="6.99092">
        <ele>1420.1999511719</ele>
        <time>2022-07-23T10:33:30.000Z</time>
      </trkpt>
      <trkpt lat="44.09683" lon="6.99095">
        <ele>1421</ele>
        <time>2022-07-23T10:33:32.000Z</time>
      </trkpt>
      <trkpt lat="44.09677" lon="6.991">
        <ele>1422.1999511719</ele>
        <time>2022-07-23T10:33:35.000Z</time>
      </trkpt>
      <trkpt lat="44.09668" lon="6.99104">
        <ele>1423.4000244141</ele>
        <time>2022-07-23T10:33:38.000Z</time>
      </trkpt>
      <trkpt lat="44.09662" lon="6.99107">
        <ele>1424.1999511719</ele>
        <time>2022-07-23T10:33:40.000Z</time>
      </trkpt>
      <trkpt lat="44.09659" lon="6.99109">
        <ele>1424.5999755859</ele>
        <time>2022-07-23T10:33:41.000Z</time>
      </trkpt>
      <trkpt lat="44.09651" lon="6.99114">
        <ele>1426.1999511719</ele>
        <time>2022-07-23T10:33:44.000Z</time>
      </trkpt>
      <trkpt lat="44.09646" lon="6.99118">
        <ele>1427.4000244141</ele>
        <time>2022-07-23T10:33:46.000Z</time>
      </trkpt>
      <trkpt lat="44.09644" lon="6.9912">
        <ele>1428</ele>
        <time>2022-07-23T10:33:47.000Z</time>
      </trkpt>
      <trkpt lat="44.09642" lon="6.99122">
        <ele>1428.4000244141</ele>
        <time>2022-07-23T10:33:48.000Z</time>
      </trkpt>
      <trkpt lat="44.09638" lon="6.99124">
        <ele>1429.5999755859</ele>
        <time>2022-07-23T10:33:51.000Z</time>
      </trkpt>
      <trkpt lat="44.09637" lon="6.99126">
        <ele>1430.1999511719</ele>
        <time>2022-07-23T10:33:52.000Z</time>
      </trkpt>
      <trkpt lat="44.09635" lon="6.99128">
        <ele>1430.8000488281</ele>
        <time>2022-07-23T10:33:54.000Z</time>
      </trkpt>
      <trkpt lat="44.09633" lon="6.99129">
        <ele>1431.1999511719</ele>
        <time>2022-07-23T10:33:55.000Z</time>
      </trkpt>
      <trkpt lat="44.09629" lon="6.99131">
        <ele>1431.8000488281</ele>
        <time>2022-07-23T10:33:57.000Z</time>
      </trkpt>
      <trkpt lat="44.09628" lon="6.99134">
        <ele>1432.1999511719</ele>
        <time>2022-07-23T10:33:58.000Z</time>
      </trkpt>
      <trkpt lat="44.09623" lon="6.9914">
        <ele>1432.8000488281</ele>
        <time>2022-07-23T10:34:01.000Z</time>
      </trkpt>
      <trkpt lat="44.09621" lon="6.99142">
        <ele>1433.1999511719</ele>
        <time>2022-07-23T10:34:02.000Z</time>
      </trkpt>
      <trkpt lat="44.09612" lon="6.99147">
        <ele>1434.5999755859</ele>
        <time>2022-07-23T10:34:06.000Z</time>
      </trkpt>
      <trkpt lat="44.09609" lon="6.99149">
        <ele>1435</ele>
        <time>2022-07-23T10:34:07.000Z</time>
      </trkpt>
      <trkpt lat="44.09605" lon="6.9915">
        <ele>1435.8000488281</ele>
        <time>2022-07-23T10:34:09.000Z</time>
      </trkpt>
      <trkpt lat="44.09601" lon="6.99151">
        <ele>1436.5999755859</ele>
        <time>2022-07-23T10:34:11.000Z</time>
      </trkpt>
      <trkpt lat="44.09599" lon="6.99152">
        <ele>1437.1999511719</ele>
        <time>2022-07-23T10:34:12.000Z</time>
      </trkpt>
      <trkpt lat="44.09592" lon="6.99155">
        <ele>1438.4000244141</ele>
        <time>2022-07-23T10:34:15.000Z</time>
      </trkpt>
      <trkpt lat="44.0959" lon="6.99156">
        <ele>1438.5999755859</ele>
        <time>2022-07-23T10:34:16.000Z</time>
      </trkpt>
      <trkpt lat="44.09587" lon="6.99159">
        <ele>1439.4000244141</ele>
        <time>2022-07-23T10:34:18.000Z</time>
      </trkpt>
      <trkpt lat="44.09583" lon="6.99161">
        <ele>1440.4000244141</ele>
        <time>2022-07-23T10:34:20.000Z</time>
      </trkpt>
      <trkpt lat="44.09581" lon="6.99162">
        <ele>1440.8000488281</ele>
        <time>2022-07-23T10:34:21.000Z</time>
      </trkpt>
      <trkpt lat="44.09577" lon="6.99164">
        <ele>1441.5999755859</ele>
        <time>2022-07-23T10:34:23.000Z</time>
      </trkpt>
      <trkpt lat="44.0957" lon="6.99165">
        <ele>1442.8000488281</ele>
        <time>2022-07-23T10:34:26.000Z</time>
      </trkpt>
      <trkpt lat="44.09562" lon="6.99167">
        <ele>1443.8000488281</ele>
        <time>2022-07-23T10:34:29.000Z</time>
      </trkpt>
      <trkpt lat="44.09557" lon="6.99169">
        <ele>1445</ele>
        <time>2022-07-23T10:34:32.000Z</time>
      </trkpt>
      <trkpt lat="44.09553" lon="6.99168">
        <ele>1446</ele>
        <time>2022-07-23T10:34:34.000Z</time>
      </trkpt>
      <trkpt lat="44.09546" lon="6.99167">
        <ele>1447.1999511719</ele>
        <time>2022-07-23T10:34:37.000Z</time>
      </trkpt>
      <trkpt lat="44.09544" lon="6.99167">
        <ele>1447.5999755859</ele>
        <time>2022-07-23T10:34:38.000Z</time>
      </trkpt>
      <trkpt lat="44.09542" lon="6.99167">
        <ele>1448.1999511719</ele>
        <time>2022-07-23T10:34:39.000Z</time>
      </trkpt>
      <trkpt lat="44.0954" lon="6.99167">
        <ele>1448.4000244141</ele>
        <time>2022-07-23T10:34:40.000Z</time>
      </trkpt>
      <trkpt lat="44.09536" lon="6.99167">
        <ele>1449.4000244141</ele>
        <time>2022-07-23T10:34:42.000Z</time>
      </trkpt>
      <trkpt lat="44.09535" lon="6.99167">
        <ele>1449.8000488281</ele>
        <time>2022-07-23T10:34:43.000Z</time>
      </trkpt>
      <trkpt lat="44.09534" lon="6.99169">
        <ele>1450</ele>
        <time>2022-07-23T10:34:44.000Z</time>
      </trkpt>
      <trkpt lat="44.09527" lon="6.99174">
        <ele>1451</ele>
        <time>2022-07-23T10:34:47.000Z</time>
      </trkpt>
      <trkpt lat="44.09518" lon="6.99178">
        <ele>1451</ele>
        <time>2022-07-23T10:34:49.000Z</time>
      </trkpt>
      <trkpt lat="44.09511" lon="6.99179">
        <ele>1450.1999511719</ele>
        <time>2022-07-23T10:34:51.000Z</time>
      </trkpt>
      <trkpt lat="44.09505" lon="6.99182">
        <ele>1449.8000488281</ele>
        <time>2022-07-23T10:34:53.000Z</time>
      </trkpt>
      <trkpt lat="44.09494" lon="6.99185">
        <ele>1450.5999755859</ele>
        <time>2022-07-23T10:34:57.000Z</time>
      </trkpt>
      <trkpt lat="44.09489" lon="6.99187">
        <ele>1451</ele>
        <time>2022-07-23T10:34:59.000Z</time>
      </trkpt>
      <trkpt lat="44.09475" lon="6.99189">
        <ele>1452.1999511719</ele>
        <time>2022-07-23T10:35:04.000Z</time>
      </trkpt>
      <trkpt lat="44.09471" lon="6.9919">
        <ele>1452.8000488281</ele>
        <time>2022-07-23T10:35:06.000Z</time>
      </trkpt>
      <trkpt lat="44.09468" lon="6.99191">
        <ele>1453.4000244141</ele>
        <time>2022-07-23T10:35:07.000Z</time>
      </trkpt>
      <trkpt lat="44.09465" lon="6.99191">
        <ele>1453.8000488281</ele>
        <time>2022-07-23T10:35:08.000Z</time>
      </trkpt>
      <trkpt lat="44.09454" lon="6.99187">
        <ele>1454.4000244141</ele>
        <time>2022-07-23T10:35:12.000Z</time>
      </trkpt>
      <trkpt lat="44.09453" lon="6.99186">
        <ele>1454.8000488281</ele>
        <time>2022-07-23T10:35:13.000Z</time>
      </trkpt>
      <trkpt lat="44.09452" lon="6.99183">
        <ele>1456</ele>
        <time>2022-07-23T10:35:15.000Z</time>
      </trkpt>
      <trkpt lat="44.09453" lon="6.99184">
        <ele>1457</ele>
        <time>2022-07-23T10:35:17.000Z</time>
      </trkpt>
      <trkpt lat="44.09455" lon="6.99184">
        <ele>1457.5999755859</ele>
        <time>2022-07-23T10:35:21.000Z</time>
      </trkpt>
      <trkpt lat="44.09456" lon="6.99184">
        <ele>1457.8000488281</ele>
        <time>2022-07-23T10:35:22.000Z</time>
      </trkpt>
      <trkpt lat="44.09457" lon="6.99186">
        <ele>1458</ele>
        <time>2022-07-23T10:35:27.000Z</time>
      </trkpt>
      <trkpt lat="44.09456" lon="6.99186">
        <ele>1458</ele>
        <time>2022-07-23T10:35:32.000Z</time>
      </trkpt>
      <trkpt lat="44.09456" lon="6.99187">
        <ele>1458</ele>
        <time>2022-07-23T10:35:36.000Z</time>
      </trkpt>
      <trkpt lat="44.09455" lon="6.99187">
        <ele>1458</ele>
        <time>2022-07-23T10:35:49.000Z</time>
      </trkpt>
      <trkpt lat="44.09454" lon="6.99187">
        <ele>1457.8000488281</ele>
        <time>2022-07-23T10:36:01.000Z</time>
      </trkpt>
      <trkpt lat="44.09455" lon="6.99188">
        <ele>1457.8000488281</ele>
        <time>2022-07-23T10:36:07.000Z</time>
      </trkpt>
      <trkpt lat="44.09456" lon="6.99186">
        <ele>1457.8000488281</ele>
        <time>2022-07-23T10:36:09.000Z</time>
      </trkpt>
      <trkpt lat="44.09459" lon="6.99187">
        <ele>1458.4000244141</ele>
        <time>2022-07-23T10:36:12.000Z</time>
      </trkpt>
      <trkpt lat="44.09466" lon="6.99184">
        <ele>1458.8000488281</ele>
        <time>2022-07-23T10:36:17.000Z</time>
      </trkpt>
      <trkpt lat="44.09469" lon="6.99183">
        <ele>1459.1999511719</ele>
        <time>2022-07-23T10:36:19.000Z</time>
      </trkpt>
      <trkpt lat="44.09474" lon="6.9918">
        <ele>1459.8000488281</ele>
        <time>2022-07-23T10:36:22.000Z</time>
      </trkpt>
      <trkpt lat="44.09478" lon="6.99177">
        <ele>1460.4000244141</ele>
        <time>2022-07-23T10:36:24.000Z</time>
      </trkpt>
      <trkpt lat="44.09489" lon="6.9917">
        <ele>1461.1999511719</ele>
        <time>2022-07-23T10:36:29.000Z</time>
      </trkpt>
      <trkpt lat="44.09491" lon="6.99168">
        <ele>1461.4000244141</ele>
        <time>2022-07-23T10:36:30.000Z</time>
      </trkpt>
      <trkpt lat="44.09501" lon="6.99163">
        <ele>1462.1999511719</ele>
        <time>2022-07-23T10:36:34.000Z</time>
      </trkpt>
      <trkpt lat="44.09503" lon="6.99161">
        <ele>1462.4000244141</ele>
        <time>2022-07-23T10:36:35.000Z</time>
      </trkpt>
      <trkpt lat="44.09514" lon="6.99153">
        <ele>1463.5999755859</ele>
        <time>2022-07-23T10:36:39.000Z</time>
      </trkpt>
      <trkpt lat="44.09517" lon="6.99151">
        <ele>1463.8000488281</ele>
        <time>2022-07-23T10:36:40.000Z</time>
      </trkpt>
      <trkpt lat="44.09528" lon="6.99151">
        <ele>1464.4000244141</ele>
        <time>2022-07-23T10:36:44.000Z</time>
      </trkpt>
      <trkpt lat="44.09534" lon="6.99146">
        <ele>1464.1999511719</ele>
        <time>2022-07-23T10:36:48.000Z</time>
      </trkpt>
      <trkpt lat="44.09541" lon="6.99145">
        <ele>1464.5999755859</ele>
        <time>2022-07-23T10:36:51.000Z</time>
      </trkpt>
      <trkpt lat="44.09543" lon="6.99146">
        <ele>1464.8000488281</ele>
        <time>2022-07-23T10:36:52.000Z</time>
      </trkpt>
      <trkpt lat="44.09549" lon="6.99143">
        <ele>1464.5999755859</ele>
        <time>2022-07-23T10:36:54.000Z</time>
      </trkpt>
      <trkpt lat="44.09555" lon="6.99139">
        <ele>1464.1999511719</ele>
        <time>2022-07-23T10:36:56.000Z</time>
      </trkpt>
      <trkpt lat="44.09563" lon="6.99136">
        <ele>1463.5999755859</ele>
        <time>2022-07-23T10:36:58.000Z</time>
      </trkpt>
      <trkpt lat="44.09569" lon="6.99134">
        <ele>1463.4000244141</ele>
        <time>2022-07-23T10:37:00.000Z</time>
      </trkpt>
      <trkpt lat="44.09571" lon="6.99131">
        <ele>1463.1999511719</ele>
        <time>2022-07-23T10:37:01.000Z</time>
      </trkpt>
      <trkpt lat="44.09581" lon="6.99117">
        <ele>1462.5999755859</ele>
        <time>2022-07-23T10:37:04.000Z</time>
      </trkpt>
      <trkpt lat="44.09585" lon="6.99112">
        <ele>1462.1999511719</ele>
        <time>2022-07-23T10:37:05.000Z</time>
      </trkpt>
      <trkpt lat="44.0959" lon="6.99106">
        <ele>1461.5999755859</ele>
        <time>2022-07-23T10:37:06.000Z</time>
      </trkpt>
      <trkpt lat="44.09596" lon="6.991">
        <ele>1460.5999755859</ele>
        <time>2022-07-23T10:37:07.000Z</time>
      </trkpt>
      <trkpt lat="44.096" lon="6.99096">
        <ele>1459.8000488281</ele>
        <time>2022-07-23T10:37:08.000Z</time>
      </trkpt>
      <trkpt lat="44.09605" lon="6.9909">
        <ele>1459.1999511719</ele>
        <time>2022-07-23T10:37:09.000Z</time>
      </trkpt>
      <trkpt lat="44.09611" lon="6.99085">
        <ele>1458</ele>
        <time>2022-07-23T10:37:10.000Z</time>
      </trkpt>
      <trkpt lat="44.09614" lon="6.99081">
        <ele>1456.5999755859</ele>
        <time>2022-07-23T10:37:11.000Z</time>
      </trkpt>
      <trkpt lat="44.09619" lon="6.99077">
        <ele>1456</ele>
        <time>2022-07-23T10:37:12.000Z</time>
      </trkpt>
      <trkpt lat="44.0962" lon="6.99076">
        <ele>1455.4000244141</ele>
        <time>2022-07-23T10:37:13.000Z</time>
      </trkpt>
      <trkpt lat="44.09622" lon="6.99074">
        <ele>1454.1999511719</ele>
        <time>2022-07-23T10:37:15.000Z</time>
      </trkpt>
      <trkpt lat="44.09623" lon="6.99074">
        <ele>1453.8000488281</ele>
        <time>2022-07-23T10:37:17.000Z</time>
      </trkpt>
      <trkpt lat="44.0963" lon="6.99067">
        <ele>1453.1999511719</ele>
        <time>2022-07-23T10:37:21.000Z</time>
      </trkpt>
      <trkpt lat="44.09632" lon="6.99064">
        <ele>1453</ele>
        <time>2022-07-23T10:37:22.000Z</time>
      </trkpt>
      <trkpt lat="44.09636" lon="6.99063">
        <ele>1452.5999755859</ele>
        <time>2022-07-23T10:37:23.000Z</time>
      </trkpt>
      <trkpt lat="44.09641" lon="6.99056">
        <ele>1452.1999511719</ele>
        <time>2022-07-23T10:37:25.000Z</time>
      </trkpt>
      <trkpt lat="44.09643" lon="6.99052">
        <ele>1451.5999755859</ele>
        <time>2022-07-23T10:37:26.000Z</time>
      </trkpt>
      <trkpt lat="44.09645" lon="6.99048">
        <ele>1450.4000244141</ele>
        <time>2022-07-23T10:37:28.000Z</time>
      </trkpt>
      <trkpt lat="44.09647" lon="6.99044">
        <ele>1449.8000488281</ele>
        <time>2022-07-23T10:37:30.000Z</time>
      </trkpt>
      <trkpt lat="44.0965" lon="6.9903">
        <ele>1452</ele>
        <time>2022-07-23T10:37:34.000Z</time>
      </trkpt>
      <trkpt lat="44.09651" lon="6.99018">
        <ele>1453.1999511719</ele>
        <time>2022-07-23T10:37:37.000Z</time>
      </trkpt>
      <trkpt lat="44.09655" lon="6.99005">
        <ele>1454.8000488281</ele>
        <time>2022-07-23T10:37:40.000Z</time>
      </trkpt>
      <trkpt lat="44.09658" lon="6.99">
        <ele>1456</ele>
        <time>2022-07-23T10:37:42.000Z</time>
      </trkpt>
      <trkpt lat="44.09658" lon="6.98997">
        <ele>1456.8000488281</ele>
        <time>2022-07-23T10:37:43.000Z</time>
      </trkpt>
      <trkpt lat="44.09658" lon="6.98993">
        <ele>1457.1999511719</ele>
        <time>2022-07-23T10:37:44.000Z</time>
      </trkpt>
      <trkpt lat="44.09659" lon="6.98986">
        <ele>1458.1999511719</ele>
        <time>2022-07-23T10:37:46.000Z</time>
      </trkpt>
      <trkpt lat="44.09659" lon="6.98982">
        <ele>1458.5999755859</ele>
        <time>2022-07-23T10:37:47.000Z</time>
      </trkpt>
      <trkpt lat="44.09661" lon="6.98975">
        <ele>1460</ele>
        <time>2022-07-23T10:37:49.000Z</time>
      </trkpt>
      <trkpt lat="44.09663" lon="6.98968">
        <ele>1461.1999511719</ele>
        <time>2022-07-23T10:37:51.000Z</time>
      </trkpt>
      <trkpt lat="44.09664" lon="6.98964">
        <ele>1462</ele>
        <time>2022-07-23T10:37:52.000Z</time>
      </trkpt>
      <trkpt lat="44.09663" lon="6.98957">
        <ele>1462.4000244141</ele>
        <time>2022-07-23T10:37:54.000Z</time>
      </trkpt>
      <trkpt lat="44.09663" lon="6.98951">
        <ele>1463</ele>
        <time>2022-07-23T10:37:56.000Z</time>
      </trkpt>
      <trkpt lat="44.09661" lon="6.98945">
        <ele>1463.8000488281</ele>
        <time>2022-07-23T10:37:58.000Z</time>
      </trkpt>
      <trkpt lat="44.09658" lon="6.9894">
        <ele>1464.5999755859</ele>
        <time>2022-07-23T10:38:00.000Z</time>
      </trkpt>
      <trkpt lat="44.09657" lon="6.98938">
        <ele>1465</ele>
        <time>2022-07-23T10:38:01.000Z</time>
      </trkpt>
      <trkpt lat="44.09653" lon="6.9893">
        <ele>1466.1999511719</ele>
        <time>2022-07-23T10:38:04.000Z</time>
      </trkpt>
      <trkpt lat="44.09651" lon="6.98922">
        <ele>1467</ele>
        <time>2022-07-23T10:38:07.000Z</time>
      </trkpt>
      <trkpt lat="44.09651" lon="6.98919">
        <ele>1467.1999511719</ele>
        <time>2022-07-23T10:38:08.000Z</time>
      </trkpt>
      <trkpt lat="44.09649" lon="6.98902">
        <ele>1467.5999755859</ele>
        <time>2022-07-23T10:38:14.000Z</time>
      </trkpt>
      <trkpt lat="44.09648" lon="6.98893">
        <ele>1468.1999511719</ele>
        <time>2022-07-23T10:38:17.000Z</time>
      </trkpt>
      <trkpt lat="44.09647" lon="6.98886">
        <ele>1468.8000488281</ele>
        <time>2022-07-23T10:38:21.000Z</time>
      </trkpt>
      <trkpt lat="44.09644" lon="6.98876">
        <ele>1468.8000488281</ele>
        <time>2022-07-23T10:38:28.000Z</time>
      </trkpt>
      <trkpt lat="44.09644" lon="6.98874">
        <ele>1468</ele>
        <time>2022-07-23T10:38:37.000Z</time>
      </trkpt>
      <trkpt lat="44.09644" lon="6.98872">
        <ele>1468</ele>
        <time>2022-07-23T10:38:45.000Z</time>
      </trkpt>
      <trkpt lat="44.09646" lon="6.98864">
        <ele>1468</ele>
        <time>2022-07-23T10:38:47.000Z</time>
      </trkpt>
      <trkpt lat="44.09645" lon="6.98842">
        <ele>1467</ele>
        <time>2022-07-23T10:38:50.000Z</time>
      </trkpt>
      <trkpt lat="44.0964" lon="6.98826">
        <ele>1466</ele>
        <time>2022-07-23T10:38:52.000Z</time>
      </trkpt>
      <trkpt lat="44.09637" lon="6.98818">
        <ele>1465.4000244141</ele>
        <time>2022-07-23T10:38:53.000Z</time>
      </trkpt>
      <trkpt lat="44.09634" lon="6.98812">
        <ele>1464.5999755859</ele>
        <time>2022-07-23T10:38:54.000Z</time>
      </trkpt>
      <trkpt lat="44.09636" lon="6.98807">
        <ele>1463.8000488281</ele>
        <time>2022-07-23T10:38:56.000Z</time>
      </trkpt>
      <trkpt lat="44.09639" lon="6.98805">
        <ele>1463.5999755859</ele>
        <time>2022-07-23T10:38:57.000Z</time>
      </trkpt>
      <trkpt lat="44.0965" lon="6.98804">
        <ele>1463.5999755859</ele>
        <time>2022-07-23T10:38:59.000Z</time>
      </trkpt>
      <trkpt lat="44.09662" lon="6.98789">
        <ele>1461.8000488281</ele>
        <time>2022-07-23T10:39:02.000Z</time>
      </trkpt>
      <trkpt lat="44.09672" lon="6.98761">
        <ele>1460</ele>
        <time>2022-07-23T10:39:05.000Z</time>
      </trkpt>
      <trkpt lat="44.09675" lon="6.9875">
        <ele>1458.1999511719</ele>
        <time>2022-07-23T10:39:06.000Z</time>
      </trkpt>
      <trkpt lat="44.09678" lon="6.98738">
        <ele>1455.8000488281</ele>
        <time>2022-07-23T10:39:07.000Z</time>
      </trkpt>
      <trkpt lat="44.09683" lon="6.98726">
        <ele>1454.4000244141</ele>
        <time>2022-07-23T10:39:08.000Z</time>
      </trkpt>
      <trkpt lat="44.09687" lon="6.98716">
        <ele>1452.5999755859</ele>
        <time>2022-07-23T10:39:09.000Z</time>
      </trkpt>
      <trkpt lat="44.09693" lon="6.98706">
        <ele>1451.1999511719</ele>
        <time>2022-07-23T10:39:10.000Z</time>
      </trkpt>
      <trkpt lat="44.09698" lon="6.987">
        <ele>1449.4000244141</ele>
        <time>2022-07-23T10:39:11.000Z</time>
      </trkpt>
      <trkpt lat="44.09701" lon="6.98696">
        <ele>1448</ele>
        <time>2022-07-23T10:39:12.000Z</time>
      </trkpt>
      <trkpt lat="44.09703" lon="6.98689">
        <ele>1446.1999511719</ele>
        <time>2022-07-23T10:39:14.000Z</time>
      </trkpt>
      <trkpt lat="44.09703" lon="6.98685">
        <ele>1445.8000488281</ele>
        <time>2022-07-23T10:39:15.000Z</time>
      </trkpt>
      <trkpt lat="44.09693" lon="6.98677">
        <ele>1445.5999755859</ele>
        <time>2022-07-23T10:39:19.000Z</time>
      </trkpt>
      <trkpt lat="44.09687" lon="6.98675">
        <ele>1445.5999755859</ele>
        <time>2022-07-23T10:39:21.000Z</time>
      </trkpt>
      <trkpt lat="44.09675" lon="6.9867">
        <ele>1446.5999755859</ele>
        <time>2022-07-23T10:39:26.000Z</time>
      </trkpt>
      <trkpt lat="44.09667" lon="6.98664">
        <ele>1447.1999511719</ele>
        <time>2022-07-23T10:39:30.000Z</time>
      </trkpt>
      <trkpt lat="44.09665" lon="6.98663">
        <ele>1447.4000244141</ele>
        <time>2022-07-23T10:39:31.000Z</time>
      </trkpt>
      <trkpt lat="44.09652" lon="6.98654">
        <ele>1448.4000244141</ele>
        <time>2022-07-23T10:39:37.000Z</time>
      </trkpt>
      <trkpt lat="44.09648" lon="6.98651">
        <ele>1448.8000488281</ele>
        <time>2022-07-23T10:39:39.000Z</time>
      </trkpt>
      <trkpt lat="44.09634" lon="6.98643">
        <ele>1449.1999511719</ele>
        <time>2022-07-23T10:39:46.000Z</time>
      </trkpt>
      <trkpt lat="44.09624" lon="6.98631">
        <ele>1449.1999511719</ele>
        <time>2022-07-23T10:39:53.000Z</time>
      </trkpt>
      <trkpt lat="44.09623" lon="6.98618">
        <ele>1449.1999511719</ele>
        <time>2022-07-23T10:39:58.000Z</time>
      </trkpt>
      <trkpt lat="44.09624" lon="6.9861">
        <ele>1448.8000488281</ele>
        <time>2022-07-23T10:40:03.000Z</time>
      </trkpt>
      <trkpt lat="44.09623" lon="6.98608">
        <ele>1448</ele>
        <time>2022-07-23T10:40:09.000Z</time>
      </trkpt>
      <trkpt lat="44.09622" lon="6.98605">
        <ele>1447.4000244141</ele>
        <time>2022-07-23T10:40:15.000Z</time>
      </trkpt>
      <trkpt lat="44.09622" lon="6.98604">
        <ele>1447.1999511719</ele>
        <time>2022-07-23T10:40:22.000Z</time>
      </trkpt>
      <trkpt lat="44.09623" lon="6.98605">
        <ele>1447</ele>
        <time>2022-07-23T10:40:28.000Z</time>
      </trkpt>
      <trkpt lat="44.09625" lon="6.98605">
        <ele>1446.8000488281</ele>
        <time>2022-07-23T10:40:35.000Z</time>
      </trkpt>
      <trkpt lat="44.09624" lon="6.98605">
        <ele>1446.8000488281</ele>
        <time>2022-07-23T10:40:41.000Z</time>
      </trkpt>
      <trkpt lat="44.09624" lon="6.98605">
        <ele>1446.5999755859</ele>
        <time>2022-07-23T10:40:47.000Z</time>
      </trkpt>
      <trkpt lat="44.09625" lon="6.98603">
        <ele>1447</ele>
        <time>2022-07-23T10:40:55.000Z</time>
      </trkpt>
      <trkpt lat="44.09625" lon="6.98603">
        <ele>1446.8000488281</ele>
        <time>2022-07-23T10:41:00.000Z</time>
      </trkpt>
      <trkpt lat="44.09624" lon="6.98602">
        <ele>1447.1999511719</ele>
        <time>2022-07-23T10:41:10.000Z</time>
      </trkpt>
      <trkpt lat="44.09624" lon="6.98603">
        <ele>1447</ele>
        <time>2022-07-23T10:41:20.000Z</time>
      </trkpt>
      <trkpt lat="44.09624" lon="6.98603">
        <ele>1446.8000488281</ele>
        <time>2022-07-23T10:41:30.000Z</time>
      </trkpt>
      <trkpt lat="44.09625" lon="6.98603">
        <ele>1446.4000244141</ele>
        <time>2022-07-23T10:41:38.000Z</time>
      </trkpt>
      <trkpt lat="44.09624" lon="6.98602">
        <ele>1446.1999511719</ele>
        <time>2022-07-23T10:41:44.000Z</time>
      </trkpt>
      <trkpt lat="44.09624" lon="6.98602">
        <ele>1446</ele>
        <time>2022-07-23T10:41:47.000Z</time>
      </trkpt>
      <trkpt lat="44.09624" lon="6.98603">
        <ele>1446.4000244141</ele>
        <time>2022-07-23T10:41:57.000Z</time>
      </trkpt>
      <trkpt lat="44.09623" lon="6.98603">
        <ele>1445.8000488281</ele>
        <time>2022-07-23T10:42:11.000Z</time>
      </trkpt>
      <trkpt lat="44.09622" lon="6.98603">
        <ele>1446.4000244141</ele>
        <time>2022-07-23T10:42:22.000Z</time>
      </trkpt>
      <trkpt lat="44.09622" lon="6.98604">
        <ele>1446.5999755859</ele>
        <time>2022-07-23T10:42:36.000Z</time>
      </trkpt>
      <trkpt lat="44.09622" lon="6.98604">
        <ele>1446.4000244141</ele>
        <time>2022-07-23T10:42:48.000Z</time>
      </trkpt>
      <trkpt lat="44.09622" lon="6.98604">
        <ele>1446.4000244141</ele>
        <time>2022-07-23T10:43:11.000Z</time>
      </trkpt>
      <trkpt lat="44.09622" lon="6.98605">
        <ele>1446.4000244141</ele>
        <time>2022-07-23T10:43:22.000Z</time>
      </trkpt>
      <trkpt lat="44.09623" lon="6.98603">
        <ele>1446.1999511719</ele>
        <time>2022-07-23T10:43:36.000Z</time>
      </trkpt>
      <trkpt lat="44.09624" lon="6.98605">
        <ele>1446.1999511719</ele>
        <time>2022-07-23T10:43:44.000Z</time>
      </trkpt>
      <trkpt lat="44.09624" lon="6.98605">
        <ele>1446.4000244141</ele>
        <time>2022-07-23T10:43:52.000Z</time>
      </trkpt>
      <trkpt lat="44.09624" lon="6.98605">
        <ele>1446.1999511719</ele>
        <time>2022-07-23T10:43:58.000Z</time>
      </trkpt>
      <trkpt lat="44.09625" lon="6.98605">
        <ele>1446.1999511719</ele>
        <time>2022-07-23T10:44:08.000Z</time>
      </trkpt>
      <trkpt lat="44.09625" lon="6.98605">
        <ele>1446.1999511719</ele>
        <time>2022-07-23T10:44:22.000Z</time>
      </trkpt>
      <trkpt lat="44.09625" lon="6.98606">
        <ele>1446.1999511719</ele>
        <time>2022-07-23T10:44:33.000Z</time>
      </trkpt>
      <trkpt lat="44.09625" lon="6.98606">
        <ele>1446.1999511719</ele>
        <time>2022-07-23T10:44:47.000Z</time>
      </trkpt>
      <trkpt lat="44.09624" lon="6.98606">
        <ele>1445.8000488281</ele>
        <time>2022-07-23T10:45:01.000Z</time>
      </trkpt>
      <trkpt lat="44.09623" lon="6.98606">
        <ele>1445.8000488281</ele>
        <time>2022-07-23T10:45:17.000Z</time>
      </trkpt>
      <trkpt lat="44.09623" lon="6.98605">
        <ele>1446</ele>
        <time>2022-07-23T10:45:31.000Z</time>
      </trkpt>
      <trkpt lat="44.09623" lon="6.98606">
        <ele>1446.1999511719</ele>
        <time>2022-07-23T10:45:48.000Z</time>
      </trkpt>
      <trkpt lat="44.09623" lon="6.98606">
        <ele>1446</ele>
        <time>2022-07-23T10:46:01.000Z</time>
      </trkpt>
      <trkpt lat="44.09623" lon="6.98606">
        <ele>1446.1999511719</ele>
        <time>2022-07-23T10:46:18.000Z</time>
      </trkpt>
      <trkpt lat="44.09623" lon="6.98606">
        <ele>1446.1999511719</ele>
        <time>2022-07-23T10:46:35.000Z</time>
      </trkpt>
      <trkpt lat="44.09623" lon="6.98606">
        <ele>1446</ele>
        <time>2022-07-23T10:46:46.000Z</time>
      </trkpt>
      <trkpt lat="44.09623" lon="6.98606">
        <ele>1445.8000488281</ele>
        <time>2022-07-23T10:46:56.000Z</time>
      </trkpt>
      <trkpt lat="44.09624" lon="6.98606">
        <ele>1446</ele>
        <time>2022-07-23T10:47:05.000Z</time>
      </trkpt>
      <trkpt lat="44.09624" lon="6.98607">
        <ele>1446.1999511719</ele>
        <time>2022-07-23T10:47:20.000Z</time>
      </trkpt>
      <trkpt lat="44.09624" lon="6.98607">
        <ele>1446</ele>
        <time>2022-07-23T10:47:35.000Z</time>
      </trkpt>
      <trkpt lat="44.09625" lon="6.9861">
        <ele>1445.8000488281</ele>
        <time>2022-07-23T10:47:56.000Z</time>
      </trkpt>
      <trkpt lat="44.09625" lon="6.98611">
        <ele>1446</ele>
        <time>2022-07-23T10:48:08.000Z</time>
      </trkpt>
      <trkpt lat="44.09625" lon="6.9861">
        <ele>1446</ele>
        <time>2022-07-23T10:48:19.000Z</time>
      </trkpt>
      <trkpt lat="44.09625" lon="6.9861">
        <ele>1446</ele>
        <time>2022-07-23T10:48:36.000Z</time>
      </trkpt>
      <trkpt lat="44.09626" lon="6.98608">
        <ele>1445.5999755859</ele>
        <time>2022-07-23T10:48:47.000Z</time>
      </trkpt>
      <trkpt lat="44.09626" lon="6.98608">
        <ele>1445.8000488281</ele>
        <time>2022-07-23T10:48:55.000Z</time>
      </trkpt>
      <trkpt lat="44.09625" lon="6.98609">
        <ele>1445.8000488281</ele>
        <time>2022-07-23T10:49:06.000Z</time>
      </trkpt>
      <trkpt lat="44.09625" lon="6.98611">
        <ele>1445.8000488281</ele>
        <time>2022-07-23T10:49:16.000Z</time>
      </trkpt>
      <trkpt lat="44.09625" lon="6.98611">
        <ele>1445.8000488281</ele>
        <time>2022-07-23T10:49:27.000Z</time>
      </trkpt>
      <trkpt lat="44.09625" lon="6.98611">
        <ele>1445.5999755859</ele>
        <time>2022-07-23T10:49:41.000Z</time>
      </trkpt>
      <trkpt lat="44.09626" lon="6.98612">
        <ele>1445.8000488281</ele>
        <time>2022-07-23T10:49:58.000Z</time>
      </trkpt>
      <trkpt lat="44.09626" lon="6.98612">
        <ele>1446</ele>
        <time>2022-07-23T10:50:09.000Z</time>
      </trkpt>
      <trkpt lat="44.09626" lon="6.98613">
        <ele>1446</ele>
        <time>2022-07-23T10:50:23.000Z</time>
      </trkpt>
      <trkpt lat="44.09625" lon="6.98612">
        <ele>1446</ele>
        <time>2022-07-23T10:50:32.000Z</time>
      </trkpt>
      <trkpt lat="44.09625" lon="6.98609">
        <ele>1446</ele>
        <time>2022-07-23T10:50:48.000Z</time>
      </trkpt>
      <trkpt lat="44.09625" lon="6.9861">
        <ele>1446.1999511719</ele>
        <time>2022-07-23T10:51:01.000Z</time>
      </trkpt>
      <trkpt lat="44.09625" lon="6.98613">
        <ele>1446.1999511719</ele>
        <time>2022-07-23T10:51:17.000Z</time>
      </trkpt>
      <trkpt lat="44.09626" lon="6.98614">
        <ele>1446.4000244141</ele>
        <time>2022-07-23T10:51:28.000Z</time>
      </trkpt>
      <trkpt lat="44.09625" lon="6.98613">
        <ele>1446.1999511719</ele>
        <time>2022-07-23T10:51:37.000Z</time>
      </trkpt>
      <trkpt lat="44.09625" lon="6.98611">
        <ele>1446.5999755859</ele>
        <time>2022-07-23T10:51:49.000Z</time>
      </trkpt>
      <trkpt lat="44.09625" lon="6.9861">
        <ele>1446.5999755859</ele>
        <time>2022-07-23T10:52:00.000Z</time>
      </trkpt>
      <trkpt lat="44.09624" lon="6.9861">
        <ele>1446.5999755859</ele>
        <time>2022-07-23T10:52:07.000Z</time>
      </trkpt>
      <trkpt lat="44.09624" lon="6.9861">
        <ele>1446.1999511719</ele>
        <time>2022-07-23T10:52:18.000Z</time>
      </trkpt>
      <trkpt lat="44.09625" lon="6.98608">
        <ele>1446.4000244141</ele>
        <time>2022-07-23T10:52:28.000Z</time>
      </trkpt>
      <trkpt lat="44.09626" lon="6.98605">
        <ele>1447</ele>
        <time>2022-07-23T10:52:38.000Z</time>
      </trkpt>
      <trkpt lat="44.09624" lon="6.98604">
        <ele>1447.1999511719</ele>
        <time>2022-07-23T10:52:52.000Z</time>
      </trkpt>
      <trkpt lat="44.09623" lon="6.98603">
        <ele>1447</ele>
        <time>2022-07-23T10:53:05.000Z</time>
      </trkpt>
      <trkpt lat="44.09622" lon="6.98603">
        <ele>1447</ele>
        <time>2022-07-23T10:53:16.000Z</time>
      </trkpt>
      <trkpt lat="44.09623" lon="6.98603">
        <ele>1446.8000488281</ele>
        <time>2022-07-23T10:53:28.000Z</time>
      </trkpt>
      <trkpt lat="44.09625" lon="6.98603">
        <ele>1446.8000488281</ele>
        <time>2022-07-23T10:53:40.000Z</time>
      </trkpt>
      <trkpt lat="44.09626" lon="6.98603">
        <ele>1447</ele>
        <time>2022-07-23T10:53:49.000Z</time>
      </trkpt>
      <trkpt lat="44.09627" lon="6.98603">
        <ele>1446.8000488281</ele>
        <time>2022-07-23T10:53:57.000Z</time>
      </trkpt>
      <trkpt lat="44.09627" lon="6.98603">
        <ele>1447</ele>
        <time>2022-07-23T10:54:03.000Z</time>
      </trkpt>
      <trkpt lat="44.09628" lon="6.98603">
        <ele>1447</ele>
        <time>2022-07-23T10:54:12.000Z</time>
      </trkpt>
      <trkpt lat="44.09627" lon="6.98603">
        <ele>1447</ele>
        <time>2022-07-23T10:54:25.000Z</time>
      </trkpt>
      <trkpt lat="44.09625" lon="6.98602">
        <ele>1447.1999511719</ele>
        <time>2022-07-23T10:54:32.000Z</time>
      </trkpt>
      <trkpt lat="44.09624" lon="6.98603">
        <ele>1447.4000244141</ele>
        <time>2022-07-23T10:54:35.000Z</time>
      </trkpt>
      <trkpt lat="44.09624" lon="6.98605">
        <ele>1447</ele>
        <time>2022-07-23T10:54:41.000Z</time>
      </trkpt>
      <trkpt lat="44.09623" lon="6.98605">
        <ele>1446.4000244141</ele>
        <time>2022-07-23T10:54:47.000Z</time>
      </trkpt>
      <trkpt lat="44.09623" lon="6.98605">
        <ele>1447.1999511719</ele>
        <time>2022-07-23T10:54:59.000Z</time>
      </trkpt>
      <trkpt lat="44.09623" lon="6.98605">
        <ele>1447</ele>
        <time>2022-07-23T10:55:05.000Z</time>
      </trkpt>
      <trkpt lat="44.09621" lon="6.98604">
        <ele>1447</ele>
        <time>2022-07-23T10:55:24.000Z</time>
      </trkpt>
      <trkpt lat="44.09619" lon="6.98603">
        <ele>1447</ele>
        <time>2022-07-23T10:55:46.000Z</time>
      </trkpt>
      <trkpt lat="44.09619" lon="6.98603">
        <ele>1447</ele>
        <time>2022-07-23T10:55:56.000Z</time>
      </trkpt>
      <trkpt lat="44.09619" lon="6.98604">
        <ele>1446.8000488281</ele>
        <time>2022-07-23T10:56:08.000Z</time>
      </trkpt>
      <trkpt lat="44.09617" lon="6.98602">
        <ele>1446.8000488281</ele>
        <time>2022-07-23T10:56:23.000Z</time>
      </trkpt>
      <trkpt lat="44.09616" lon="6.98598">
        <ele>1446.8000488281</ele>
        <time>2022-07-23T10:56:33.000Z</time>
      </trkpt>
      <trkpt lat="44.09618" lon="6.98598">
        <ele>1447.1999511719</ele>
        <time>2022-07-23T10:56:38.000Z</time>
      </trkpt>
      <trkpt lat="44.09618" lon="6.98601">
        <ele>1447</ele>
        <time>2022-07-23T10:56:45.000Z</time>
      </trkpt>
      <trkpt lat="44.09619" lon="6.98602">
        <ele>1447</ele>
        <time>2022-07-23T10:56:56.000Z</time>
      </trkpt>
      <trkpt lat="44.0962" lon="6.98603">
        <ele>1447</ele>
        <time>2022-07-23T10:57:06.000Z</time>
      </trkpt>
      <trkpt lat="44.09621" lon="6.98604">
        <ele>1447.5999755859</ele>
        <time>2022-07-23T10:57:21.000Z</time>
      </trkpt>
      <trkpt lat="44.09622" lon="6.98603">
        <ele>1447.4000244141</ele>
        <time>2022-07-23T10:57:32.000Z</time>
      </trkpt>
      <trkpt lat="44.09622" lon="6.98603">
        <ele>1447</ele>
        <time>2022-07-23T10:57:47.000Z</time>
      </trkpt>
      <trkpt lat="44.09623" lon="6.98603">
        <ele>1447</ele>
        <time>2022-07-23T10:57:58.000Z</time>
      </trkpt>
      <trkpt lat="44.09623" lon="6.98603">
        <ele>1447</ele>
        <time>2022-07-23T10:58:08.000Z</time>
      </trkpt>
      <trkpt lat="44.09628" lon="6.986">
        <ele>1447</ele>
        <time>2022-07-23T10:58:19.000Z</time>
      </trkpt>
      <trkpt lat="44.09634" lon="6.98595">
        <ele>1447.4000244141</ele>
        <time>2022-07-23T10:58:25.000Z</time>
      </trkpt>
      <trkpt lat="44.09633" lon="6.98596">
        <ele>1447.5999755859</ele>
        <time>2022-07-23T10:58:28.000Z</time>
      </trkpt>
      <trkpt lat="44.09633" lon="6.98596">
        <ele>1447.5999755859</ele>
        <time>2022-07-23T10:58:29.000Z</time>
      </trkpt>
      <trkpt lat="44.09632" lon="6.98597">
        <ele>1447.8000488281</ele>
        <time>2022-07-23T10:58:35.000Z</time>
      </trkpt>
      <trkpt lat="44.09631" lon="6.98597">
        <ele>1447.5999755859</ele>
        <time>2022-07-23T10:58:53.000Z</time>
      </trkpt>
      <trkpt lat="44.0963" lon="6.98598">
        <ele>1447.5999755859</ele>
        <time>2022-07-23T10:59:01.000Z</time>
      </trkpt>
      <trkpt lat="44.0963" lon="6.98598">
        <ele>1447.5999755859</ele>
        <time>2022-07-23T10:59:15.000Z</time>
      </trkpt>
      <trkpt lat="44.09629" lon="6.98598">
        <ele>1447.5999755859</ele>
        <time>2022-07-23T10:59:29.000Z</time>
      </trkpt>
      <trkpt lat="44.09629" lon="6.98598">
        <ele>1447.5999755859</ele>
        <time>2022-07-23T10:59:35.000Z</time>
      </trkpt>
      <trkpt lat="44.09631" lon="6.98594">
        <ele>1447.4000244141</ele>
        <time>2022-07-23T10:59:41.000Z</time>
      </trkpt>
      <trkpt lat="44.09629" lon="6.98591">
        <ele>1447.5999755859</ele>
        <time>2022-07-23T10:59:47.000Z</time>
      </trkpt>
      <trkpt lat="44.09628" lon="6.98592">
        <ele>1447.4000244141</ele>
        <time>2022-07-23T10:59:48.000Z</time>
      </trkpt>
      <trkpt lat="44.09624" lon="6.98594">
        <ele>1446.4000244141</ele>
        <time>2022-07-23T10:59:52.000Z</time>
      </trkpt>
      <trkpt lat="44.09625" lon="6.98594">
        <ele>1446.1999511719</ele>
        <time>2022-07-23T10:59:53.000Z</time>
      </trkpt>
      <trkpt lat="44.09623" lon="6.98594">
        <ele>1445.1999511719</ele>
        <time>2022-07-23T10:59:59.000Z</time>
      </trkpt>
      <trkpt lat="44.09623" lon="6.98594">
        <ele>1445.4000244141</ele>
        <time>2022-07-23T11:00:04.000Z</time>
      </trkpt>
      <trkpt lat="44.09624" lon="6.98594">
        <ele>1445.8000488281</ele>
        <time>2022-07-23T11:00:10.000Z</time>
      </trkpt>
      <trkpt lat="44.09626" lon="6.98592">
        <ele>1446</ele>
        <time>2022-07-23T11:00:17.000Z</time>
      </trkpt>
      <trkpt lat="44.09628" lon="6.98592">
        <ele>1446</ele>
        <time>2022-07-23T11:00:18.000Z</time>
      </trkpt>
      <trkpt lat="44.09631" lon="6.98592">
        <ele>1446.1999511719</ele>
        <time>2022-07-23T11:00:23.000Z</time>
      </trkpt>
      <trkpt lat="44.09631" lon="6.98596">
        <ele>1447.1999511719</ele>
        <time>2022-07-23T11:00:29.000Z</time>
      </trkpt>
      <trkpt lat="44.0963" lon="6.98597">
        <ele>1447.4000244141</ele>
        <time>2022-07-23T11:00:30.000Z</time>
      </trkpt>
      <trkpt lat="44.09628" lon="6.98598">
        <ele>1447.5999755859</ele>
        <time>2022-07-23T11:00:34.000Z</time>
      </trkpt>
      <trkpt lat="44.09628" lon="6.98598">
        <ele>1447.5999755859</ele>
        <time>2022-07-23T11:00:41.000Z</time>
      </trkpt>
      <trkpt lat="44.09628" lon="6.98597">
        <ele>1447.5999755859</ele>
        <time>2022-07-23T11:00:51.000Z</time>
      </trkpt>
      <trkpt lat="44.09628" lon="6.98598">
        <ele>1448.1999511719</ele>
        <time>2022-07-23T11:01:00.000Z</time>
      </trkpt>
      <trkpt lat="44.09628" lon="6.98599">
        <ele>1447.5999755859</ele>
        <time>2022-07-23T11:01:12.000Z</time>
      </trkpt>
      <trkpt lat="44.09628" lon="6.98599">
        <ele>1447.8000488281</ele>
        <time>2022-07-23T11:01:20.000Z</time>
      </trkpt>
      <trkpt lat="44.09627" lon="6.986">
        <ele>1447.5999755859</ele>
        <time>2022-07-23T11:01:29.000Z</time>
      </trkpt>
      <trkpt lat="44.09625" lon="6.98602">
        <ele>1448</ele>
        <time>2022-07-23T11:01:44.000Z</time>
      </trkpt>
      <trkpt lat="44.09622" lon="6.98605">
        <ele>1447.8000488281</ele>
        <time>2022-07-23T11:01:51.000Z</time>
      </trkpt>
      <trkpt lat="44.09622" lon="6.98607">
        <ele>1447.4000244141</ele>
        <time>2022-07-23T11:02:00.000Z</time>
      </trkpt>
      <trkpt lat="44.09623" lon="6.98608">
        <ele>1447.4000244141</ele>
        <time>2022-07-23T11:02:14.000Z</time>
      </trkpt>
      <trkpt lat="44.09622" lon="6.98604">
        <ele>1447.5999755859</ele>
        <time>2022-07-23T11:02:20.000Z</time>
      </trkpt>
      <trkpt lat="44.09623" lon="6.98607">
        <ele>1447.5999755859</ele>
        <time>2022-07-23T11:02:24.000Z</time>
      </trkpt>
      <trkpt lat="44.09623" lon="6.98607">
        <ele>1447.8000488281</ele>
        <time>2022-07-23T11:02:32.000Z</time>
      </trkpt>
      <trkpt lat="44.09623" lon="6.98607">
        <ele>1448</ele>
        <time>2022-07-23T11:02:45.000Z</time>
      </trkpt>
      <trkpt lat="44.09622" lon="6.98606">
        <ele>1448.1999511719</ele>
        <time>2022-07-23T11:02:52.000Z</time>
      </trkpt>
      <trkpt lat="44.09622" lon="6.98606">
        <ele>1448.1999511719</ele>
        <time>2022-07-23T11:02:53.000Z</time>
      </trkpt>
      <trkpt lat="44.09622" lon="6.98605">
        <ele>1448.1999511719</ele>
        <time>2022-07-23T11:03:06.000Z</time>
      </trkpt>
      <trkpt lat="44.09622" lon="6.98606">
        <ele>1448</ele>
        <time>2022-07-23T11:03:25.000Z</time>
      </trkpt>
      <trkpt lat="44.09624" lon="6.98606">
        <ele>1448</ele>
        <time>2022-07-23T11:03:36.000Z</time>
      </trkpt>
      <trkpt lat="44.09624" lon="6.98606">
        <ele>1448.1999511719</ele>
        <time>2022-07-23T11:03:46.000Z</time>
      </trkpt>
      <trkpt lat="44.09624" lon="6.98606">
        <ele>1447.8000488281</ele>
        <time>2022-07-23T11:03:55.000Z</time>
      </trkpt>
      <trkpt lat="44.09624" lon="6.98605">
        <ele>1448</ele>
        <time>2022-07-23T11:04:03.000Z</time>
      </trkpt>
      <trkpt lat="44.09623" lon="6.98606">
        <ele>1448.1999511719</ele>
        <time>2022-07-23T11:04:12.000Z</time>
      </trkpt>
      <trkpt lat="44.09624" lon="6.98607">
        <ele>1448.4000244141</ele>
        <time>2022-07-23T11:04:24.000Z</time>
      </trkpt>
      <trkpt lat="44.09624" lon="6.98607">
        <ele>1448.5999755859</ele>
        <time>2022-07-23T11:04:54.000Z</time>
      </trkpt>
      <trkpt lat="44.09624" lon="6.98608">
        <ele>1448.8000488281</ele>
        <time>2022-07-23T11:05:09.000Z</time>
      </trkpt>
      <trkpt lat="44.09624" lon="6.98608">
        <ele>1448.8000488281</ele>
        <time>2022-07-23T11:05:18.000Z</time>
      </trkpt>
      <trkpt lat="44.09624" lon="6.98608">
        <ele>1448.5999755859</ele>
        <time>2022-07-23T11:05:28.000Z</time>
      </trkpt>
      <trkpt lat="44.09625" lon="6.98608">
        <ele>1448.8000488281</ele>
        <time>2022-07-23T11:05:40.000Z</time>
      </trkpt>
      <trkpt lat="44.09623" lon="6.98608">
        <ele>1448.5999755859</ele>
        <time>2022-07-23T11:05:49.000Z</time>
      </trkpt>
      <trkpt lat="44.09621" lon="6.98607">
        <ele>1448.8000488281</ele>
        <time>2022-07-23T11:06:16.000Z</time>
      </trkpt>
      <trkpt lat="44.09621" lon="6.98607">
        <ele>1449.1999511719</ele>
        <time>2022-07-23T11:06:26.000Z</time>
      </trkpt>
      <trkpt lat="44.09621" lon="6.98608">
        <ele>1449.4000244141</ele>
        <time>2022-07-23T11:06:35.000Z</time>
      </trkpt>
      <trkpt lat="44.0962" lon="6.98607">
        <ele>1449.4000244141</ele>
        <time>2022-07-23T11:06:44.000Z</time>
      </trkpt>
      <trkpt lat="44.09621" lon="6.98606">
        <ele>1449.1999511719</ele>
        <time>2022-07-23T11:07:00.000Z</time>
      </trkpt>
      <trkpt lat="44.09622" lon="6.98606">
        <ele>1449.5999755859</ele>
        <time>2022-07-23T11:07:13.000Z</time>
      </trkpt>
      <trkpt lat="44.09622" lon="6.98606">
        <ele>1449.5999755859</ele>
        <time>2022-07-23T11:07:33.000Z</time>
      </trkpt>
      <trkpt lat="44.09622" lon="6.98606">
        <ele>1449.5999755859</ele>
        <time>2022-07-23T11:07:43.000Z</time>
      </trkpt>
      <trkpt lat="44.09622" lon="6.98606">
        <ele>1449.8000488281</ele>
        <time>2022-07-23T11:08:02.000Z</time>
      </trkpt>
      <trkpt lat="44.09622" lon="6.98606">
        <ele>1450.1999511719</ele>
        <time>2022-07-23T11:08:22.000Z</time>
      </trkpt>
      <trkpt lat="44.09623" lon="6.98605">
        <ele>1450</ele>
        <time>2022-07-23T11:08:38.000Z</time>
      </trkpt>
      <trkpt lat="44.09623" lon="6.98605">
        <ele>1450.1999511719</ele>
        <time>2022-07-23T11:08:51.000Z</time>
      </trkpt>
      <trkpt lat="44.09623" lon="6.98605">
        <ele>1450.1999511719</ele>
        <time>2022-07-23T11:08:54.000Z</time>
      </trkpt>
      <trkpt lat="44.09623" lon="6.98606">
        <ele>1450.4000244141</ele>
        <time>2022-07-23T11:08:58.000Z</time>
      </trkpt>
      <trkpt lat="44.09623" lon="6.98605">
        <ele>1450.4000244141</ele>
        <time>2022-07-23T11:09:19.000Z</time>
      </trkpt>
      <trkpt lat="44.09624" lon="6.98605">
        <ele>1450</ele>
        <time>2022-07-23T11:09:35.000Z</time>
      </trkpt>
      <trkpt lat="44.09625" lon="6.98606">
        <ele>1450</ele>
        <time>2022-07-23T11:09:51.000Z</time>
      </trkpt>
      <trkpt lat="44.09624" lon="6.98606">
        <ele>1450.1999511719</ele>
        <time>2022-07-23T11:10:02.000Z</time>
      </trkpt>
      <trkpt lat="44.09625" lon="6.98608">
        <ele>1450.4000244141</ele>
        <time>2022-07-23T11:10:08.000Z</time>
      </trkpt>
      <trkpt lat="44.09625" lon="6.98607">
        <ele>1450.4000244141</ele>
        <time>2022-07-23T11:10:13.000Z</time>
      </trkpt>
      <trkpt lat="44.09625" lon="6.98608">
        <ele>1450.4000244141</ele>
        <time>2022-07-23T11:10:18.000Z</time>
      </trkpt>
      <trkpt lat="44.09625" lon="6.98609">
        <ele>1450.4000244141</ele>
        <time>2022-07-23T11:10:24.000Z</time>
      </trkpt>
      <trkpt lat="44.09622" lon="6.98608">
        <ele>1450.4000244141</ele>
        <time>2022-07-23T11:10:34.000Z</time>
      </trkpt>
      <trkpt lat="44.0962" lon="6.98608">
        <ele>1450.5999755859</ele>
        <time>2022-07-23T11:10:43.000Z</time>
      </trkpt>
      <trkpt lat="44.09619" lon="6.98607">
        <ele>1450.5999755859</ele>
        <time>2022-07-23T11:10:51.000Z</time>
      </trkpt>
      <trkpt lat="44.09621" lon="6.98607">
        <ele>1450.4000244141</ele>
        <time>2022-07-23T11:11:01.000Z</time>
      </trkpt>
      <trkpt lat="44.09623" lon="6.98606">
        <ele>1450.1999511719</ele>
        <time>2022-07-23T11:11:21.000Z</time>
      </trkpt>
      <trkpt lat="44.09625" lon="6.98605">
        <ele>1450</ele>
        <time>2022-07-23T11:11:42.000Z</time>
      </trkpt>
      <trkpt lat="44.09625" lon="6.98604">
        <ele>1450.4000244141</ele>
        <time>2022-07-23T11:11:56.000Z</time>
      </trkpt>
      <trkpt lat="44.09626" lon="6.98604">
        <ele>1450.1999511719</ele>
        <time>2022-07-23T11:12:19.000Z</time>
      </trkpt>
      <trkpt lat="44.09626" lon="6.98605">
        <ele>1450</ele>
        <time>2022-07-23T11:12:36.000Z</time>
      </trkpt>
      <trkpt lat="44.09625" lon="6.98604">
        <ele>1450.1999511719</ele>
        <time>2022-07-23T11:12:50.000Z</time>
      </trkpt>
      <trkpt lat="44.09624" lon="6.98604">
        <ele>1450.1999511719</ele>
        <time>2022-07-23T11:13:05.000Z</time>
      </trkpt>
      <trkpt lat="44.09623" lon="6.98604">
        <ele>1450.1999511719</ele>
        <time>2022-07-23T11:13:12.000Z</time>
      </trkpt>
      <trkpt lat="44.09623" lon="6.98605">
        <ele>1450.5999755859</ele>
        <time>2022-07-23T11:13:17.000Z</time>
      </trkpt>
      <trkpt lat="44.09622" lon="6.98603">
        <ele>1450.4000244141</ele>
        <time>2022-07-23T11:13:30.000Z</time>
      </trkpt>
      <trkpt lat="44.09622" lon="6.98605">
        <ele>1450.5999755859</ele>
        <time>2022-07-23T11:13:36.000Z</time>
      </trkpt>
      <trkpt lat="44.09622" lon="6.98603">
        <ele>1450.5999755859</ele>
        <time>2022-07-23T11:13:52.000Z</time>
      </trkpt>
      <trkpt lat="44.09623" lon="6.98599">
        <ele>1450.5999755859</ele>
        <time>2022-07-23T11:14:08.000Z</time>
      </trkpt>
      <trkpt lat="44.09625" lon="6.98598">
        <ele>1450.5999755859</ele>
        <time>2022-07-23T11:14:14.000Z</time>
      </trkpt>
      <trkpt lat="44.09624" lon="6.98597">
        <ele>1450.8000488281</ele>
        <time>2022-07-23T11:14:25.000Z</time>
      </trkpt>
      <trkpt lat="44.09624" lon="6.98598">
        <ele>1450.5999755859</ele>
        <time>2022-07-23T11:14:33.000Z</time>
      </trkpt>
      <trkpt lat="44.09625" lon="6.98598">
        <ele>1451</ele>
        <time>2022-07-23T11:14:43.000Z</time>
      </trkpt>
      <trkpt lat="44.09625" lon="6.98599">
        <ele>1450.5999755859</ele>
        <time>2022-07-23T11:15:00.000Z</time>
      </trkpt>
      <trkpt lat="44.09626" lon="6.98601">
        <ele>1450.8000488281</ele>
        <time>2022-07-23T11:15:18.000Z</time>
      </trkpt>
      <trkpt lat="44.09626" lon="6.98601">
        <ele>1451</ele>
        <time>2022-07-23T11:15:26.000Z</time>
      </trkpt>
      <trkpt lat="44.09627" lon="6.98602">
        <ele>1450.8000488281</ele>
        <time>2022-07-23T11:15:36.000Z</time>
      </trkpt>
      <trkpt lat="44.09627" lon="6.98602">
        <ele>1451</ele>
        <time>2022-07-23T11:15:47.000Z</time>
      </trkpt>
      <trkpt lat="44.09626" lon="6.98601">
        <ele>1450.5999755859</ele>
        <time>2022-07-23T11:15:57.000Z</time>
      </trkpt>
      <trkpt lat="44.09626" lon="6.98602">
        <ele>1450.8000488281</ele>
        <time>2022-07-23T11:16:12.000Z</time>
      </trkpt>
      <trkpt lat="44.09626" lon="6.98602">
        <ele>1450.5999755859</ele>
        <time>2022-07-23T11:16:20.000Z</time>
      </trkpt>
      <trkpt lat="44.09627" lon="6.98603">
        <ele>1450.4000244141</ele>
        <time>2022-07-23T11:16:33.000Z</time>
      </trkpt>
      <trkpt lat="44.09626" lon="6.98602">
        <ele>1450.5999755859</ele>
        <time>2022-07-23T11:16:44.000Z</time>
      </trkpt>
      <trkpt lat="44.09627" lon="6.98603">
        <ele>1450.5999755859</ele>
        <time>2022-07-23T11:17:08.000Z</time>
      </trkpt>
      <trkpt lat="44.09626" lon="6.98603">
        <ele>1450.5999755859</ele>
        <time>2022-07-23T11:17:23.000Z</time>
      </trkpt>
      <trkpt lat="44.09626" lon="6.98603">
        <ele>1450.5999755859</ele>
        <time>2022-07-23T11:17:31.000Z</time>
      </trkpt>
      <trkpt lat="44.09628" lon="6.98602">
        <ele>1450.5999755859</ele>
        <time>2022-07-23T11:17:37.000Z</time>
      </trkpt>
      <trkpt lat="44.09626" lon="6.98604">
        <ele>1450.8000488281</ele>
        <time>2022-07-23T11:17:55.000Z</time>
      </trkpt>
      <trkpt lat="44.09626" lon="6.98604">
        <ele>1450.8000488281</ele>
        <time>2022-07-23T11:17:56.000Z</time>
      </trkpt>
      <trkpt lat="44.09623" lon="6.98605">
        <ele>1450.4000244141</ele>
        <time>2022-07-23T11:18:01.000Z</time>
      </trkpt>
      <trkpt lat="44.09623" lon="6.98605">
        <ele>1450.4000244141</ele>
        <time>2022-07-23T11:18:05.000Z</time>
      </trkpt>
      <trkpt lat="44.09623" lon="6.98606">
        <ele>1450.5999755859</ele>
        <time>2022-07-23T11:18:15.000Z</time>
      </trkpt>
      <trkpt lat="44.09623" lon="6.98605">
        <ele>1450.5999755859</ele>
        <time>2022-07-23T11:18:23.000Z</time>
      </trkpt>
      <trkpt lat="44.09623" lon="6.98606">
        <ele>1450.5999755859</ele>
        <time>2022-07-23T11:18:31.000Z</time>
      </trkpt>
      <trkpt lat="44.09624" lon="6.98606">
        <ele>1450.5999755859</ele>
        <time>2022-07-23T11:18:36.000Z</time>
      </trkpt>
      <trkpt lat="44.09624" lon="6.98606">
        <ele>1450.5999755859</ele>
        <time>2022-07-23T11:18:40.000Z</time>
      </trkpt>
      <trkpt lat="44.09624" lon="6.98608">
        <ele>1450.4000244141</ele>
        <time>2022-07-23T11:18:49.000Z</time>
      </trkpt>
      <trkpt lat="44.09624" lon="6.9861">
        <ele>1450.4000244141</ele>
        <time>2022-07-23T11:18:55.000Z</time>
      </trkpt>
      <trkpt lat="44.09625" lon="6.98611">
        <ele>1450.5999755859</ele>
        <time>2022-07-23T11:19:04.000Z</time>
      </trkpt>
      <trkpt lat="44.09626" lon="6.98612">
        <ele>1450.1999511719</ele>
        <time>2022-07-23T11:19:14.000Z</time>
      </trkpt>
      <trkpt lat="44.09626" lon="6.98611">
        <ele>1450.8000488281</ele>
        <time>2022-07-23T11:19:22.000Z</time>
      </trkpt>
      <trkpt lat="44.09626" lon="6.98609">
        <ele>1450.5999755859</ele>
        <time>2022-07-23T11:19:31.000Z</time>
      </trkpt>
      <trkpt lat="44.09626" lon="6.98607">
        <ele>1450.4000244141</ele>
        <time>2022-07-23T11:19:37.000Z</time>
      </trkpt>
      <trkpt lat="44.09623" lon="6.98606">
        <ele>1451</ele>
        <time>2022-07-23T11:19:43.000Z</time>
      </trkpt>
      <trkpt lat="44.09621" lon="6.98604">
        <ele>1450.5999755859</ele>
        <time>2022-07-23T11:19:48.000Z</time>
      </trkpt>
      <trkpt lat="44.09624" lon="6.98603">
        <ele>1450.4000244141</ele>
        <time>2022-07-23T11:19:56.000Z</time>
      </trkpt>
      <trkpt lat="44.09626" lon="6.98603">
        <ele>1451</ele>
        <time>2022-07-23T11:20:02.000Z</time>
      </trkpt>
      <trkpt lat="44.09626" lon="6.98609">
        <ele>1451</ele>
        <time>2022-07-23T11:20:06.000Z</time>
      </trkpt>
      <trkpt lat="44.09622" lon="6.98612">
        <ele>1451</ele>
        <time>2022-07-23T11:20:09.000Z</time>
      </trkpt>
      <trkpt lat="44.09621" lon="6.98612">
        <ele>1450.8000488281</ele>
        <time>2022-07-23T11:20:10.000Z</time>
      </trkpt>
      <trkpt lat="44.09613" lon="6.98617">
        <ele>1450.4000244141</ele>
        <time>2022-07-23T11:20:18.000Z</time>
      </trkpt>
      <trkpt lat="44.09606" lon="6.98622">
        <ele>1450.1999511719</ele>
        <time>2022-07-23T11:20:24.000Z</time>
      </trkpt>
      <trkpt lat="44.096" lon="6.9862">
        <ele>1450.1999511719</ele>
        <time>2022-07-23T11:20:28.000Z</time>
      </trkpt>
      <trkpt lat="44.09598" lon="6.98617">
        <ele>1450.1999511719</ele>
        <time>2022-07-23T11:20:29.000Z</time>
      </trkpt>
      <trkpt lat="44.09603" lon="6.98607">
        <ele>1450</ele>
        <time>2022-07-23T11:20:32.000Z</time>
      </trkpt>
      <trkpt lat="44.0961" lon="6.98602">
        <ele>1449.5999755859</ele>
        <time>2022-07-23T11:20:34.000Z</time>
      </trkpt>
      <trkpt lat="44.09616" lon="6.98594">
        <ele>1449.1999511719</ele>
        <time>2022-07-23T11:20:37.000Z</time>
      </trkpt>
      <trkpt lat="44.09622" lon="6.98588">
        <ele>1448.8000488281</ele>
        <time>2022-07-23T11:20:42.000Z</time>
      </trkpt>
      <trkpt lat="44.09625" lon="6.98581">
        <ele>1449</ele>
        <time>2022-07-23T11:20:49.000Z</time>
      </trkpt>
      <trkpt lat="44.09618" lon="6.98578">
        <ele>1448.4000244141</ele>
        <time>2022-07-23T11:20:55.000Z</time>
      </trkpt>
      <trkpt lat="44.09619" lon="6.98586">
        <ele>1448.4000244141</ele>
        <time>2022-07-23T11:21:00.000Z</time>
      </trkpt>
      <trkpt lat="44.0962" lon="6.98589">
        <ele>1448.8000488281</ele>
        <time>2022-07-23T11:21:05.000Z</time>
      </trkpt>
      <trkpt lat="44.09622" lon="6.98588">
        <ele>1449.1999511719</ele>
        <time>2022-07-23T11:21:22.000Z</time>
      </trkpt>
      <trkpt lat="44.09623" lon="6.98588">
        <ele>1449.1999511719</ele>
        <time>2022-07-23T11:21:23.000Z</time>
      </trkpt>
      <trkpt lat="44.09626" lon="6.98585">
        <ele>1449</ele>
        <time>2022-07-23T11:21:26.000Z</time>
      </trkpt>
      <trkpt lat="44.09626" lon="6.98585">
        <ele>1449.1999511719</ele>
        <time>2022-07-23T11:21:28.000Z</time>
      </trkpt>
      <trkpt lat="44.09627" lon="6.98584">
        <ele>1449</ele>
        <time>2022-07-23T11:21:39.000Z</time>
      </trkpt>
      <trkpt lat="44.09627" lon="6.98584">
        <ele>1449.4000244141</ele>
        <time>2022-07-23T11:21:52.000Z</time>
      </trkpt>
      <trkpt lat="44.09625" lon="6.9858">
        <ele>1449.1999511719</ele>
        <time>2022-07-23T11:21:59.000Z</time>
      </trkpt>
      <trkpt lat="44.09623" lon="6.98577">
        <ele>1449.1999511719</ele>
        <time>2022-07-23T11:22:01.000Z</time>
      </trkpt>
      <trkpt lat="44.09622" lon="6.98569">
        <ele>1448.5999755859</ele>
        <time>2022-07-23T11:22:05.000Z</time>
      </trkpt>
      <trkpt lat="44.0962" lon="6.98551">
        <ele>1448.4000244141</ele>
        <time>2022-07-23T11:22:10.000Z</time>
      </trkpt>
      <trkpt lat="44.09619" lon="6.98545">
        <ele>1448.1999511719</ele>
        <time>2022-07-23T11:22:11.000Z</time>
      </trkpt>
      <trkpt lat="44.09617" lon="6.9854">
        <ele>1448</ele>
        <time>2022-07-23T11:22:12.000Z</time>
      </trkpt>
      <trkpt lat="44.09615" lon="6.9853">
        <ele>1447.4000244141</ele>
        <time>2022-07-23T11:22:14.000Z</time>
      </trkpt>
      <trkpt lat="44.09613" lon="6.9852">
        <ele>1446.8000488281</ele>
        <time>2022-07-23T11:22:16.000Z</time>
      </trkpt>
      <trkpt lat="44.0961" lon="6.98503">
        <ele>1445.8000488281</ele>
        <time>2022-07-23T11:22:19.000Z</time>
      </trkpt>
      <trkpt lat="44.09609" lon="6.98498">
        <ele>1445.4000244141</ele>
        <time>2022-07-23T11:22:20.000Z</time>
      </trkpt>
      <trkpt lat="44.09608" lon="6.98477">
        <ele>1444.4000244141</ele>
        <time>2022-07-23T11:22:23.000Z</time>
      </trkpt>
      <trkpt lat="44.09606" lon="6.98455">
        <ele>1443.5999755859</ele>
        <time>2022-07-23T11:22:26.000Z</time>
      </trkpt>
      <trkpt lat="44.09606" lon="6.98448">
        <ele>1443.1999511719</ele>
        <time>2022-07-23T11:22:27.000Z</time>
      </trkpt>
      <trkpt lat="44.09604" lon="6.98399">
        <ele>1442.1999511719</ele>
        <time>2022-07-23T11:22:34.000Z</time>
      </trkpt>
      <trkpt lat="44.09598" lon="6.98354">
        <ele>1442.1999511719</ele>
        <time>2022-07-23T11:22:41.000Z</time>
      </trkpt>
      <trkpt lat="44.09587" lon="6.98322">
        <ele>1442.1999511719</ele>
        <time>2022-07-23T11:22:47.000Z</time>
      </trkpt>
      <trkpt lat="44.0958" lon="6.98303">
        <ele>1442.5999755859</ele>
        <time>2022-07-23T11:22:52.000Z</time>
      </trkpt>
      <trkpt lat="44.09575" lon="6.9829">
        <ele>1443.4000244141</ele>
        <time>2022-07-23T11:22:55.000Z</time>
      </trkpt>
      <trkpt lat="44.09569" lon="6.9827">
        <ele>1443.8000488281</ele>
        <time>2022-07-23T11:23:00.000Z</time>
      </trkpt>
      <trkpt lat="44.09567" lon="6.98238">
        <ele>1443.8000488281</ele>
        <time>2022-07-23T11:23:07.000Z</time>
      </trkpt>
      <trkpt lat="44.09565" lon="6.98221">
        <ele>1444.4000244141</ele>
        <time>2022-07-23T11:23:11.000Z</time>
      </trkpt>
      <trkpt lat="44.09562" lon="6.98205">
        <ele>1444.5999755859</ele>
        <time>2022-07-23T11:23:15.000Z</time>
      </trkpt>
      <trkpt lat="44.09558" lon="6.98185">
        <ele>1445.5999755859</ele>
        <time>2022-07-23T11:23:20.000Z</time>
      </trkpt>
      <trkpt lat="44.09553" lon="6.9817">
        <ele>1446.5999755859</ele>
        <time>2022-07-23T11:23:24.000Z</time>
      </trkpt>
      <trkpt lat="44.09552" lon="6.98159">
        <ele>1447.8000488281</ele>
        <time>2022-07-23T11:23:27.000Z</time>
      </trkpt>
      <trkpt lat="44.09551" lon="6.98147">
        <ele>1448.8000488281</ele>
        <time>2022-07-23T11:23:30.000Z</time>
      </trkpt>
      <trkpt lat="44.09552" lon="6.98139">
        <ele>1449.4000244141</ele>
        <time>2022-07-23T11:23:32.000Z</time>
      </trkpt>
      <trkpt lat="44.09552" lon="6.98131">
        <ele>1450</ele>
        <time>2022-07-23T11:23:34.000Z</time>
      </trkpt>
      <trkpt lat="44.09555" lon="6.98111">
        <ele>1451.1999511719</ele>
        <time>2022-07-23T11:23:39.000Z</time>
      </trkpt>
      <trkpt lat="44.09556" lon="6.98099">
        <ele>1451.5999755859</ele>
        <time>2022-07-23T11:23:42.000Z</time>
      </trkpt>
      <trkpt lat="44.09557" lon="6.98084">
        <ele>1452.4000244141</ele>
        <time>2022-07-23T11:23:46.000Z</time>
      </trkpt>
      <trkpt lat="44.09556" lon="6.98076">
        <ele>1452.8000488281</ele>
        <time>2022-07-23T11:23:48.000Z</time>
      </trkpt>
      <trkpt lat="44.09556" lon="6.98068">
        <ele>1453.4000244141</ele>
        <time>2022-07-23T11:23:50.000Z</time>
      </trkpt>
      <trkpt lat="44.09552" lon="6.98037">
        <ele>1454.1999511719</ele>
        <time>2022-07-23T11:23:58.000Z</time>
      </trkpt>
      <trkpt lat="44.09543" lon="6.98009">
        <ele>1453.5999755859</ele>
        <time>2022-07-23T11:24:04.000Z</time>
      </trkpt>
      <trkpt lat="44.0953" lon="6.9797">
        <ele>1453.1999511719</ele>
        <time>2022-07-23T11:24:12.000Z</time>
      </trkpt>
      <trkpt lat="44.09526" lon="6.97945">
        <ele>1454</ele>
        <time>2022-07-23T11:24:17.000Z</time>
      </trkpt>
      <trkpt lat="44.09524" lon="6.97936">
        <ele>1454.4000244141</ele>
        <time>2022-07-23T11:24:19.000Z</time>
      </trkpt>
      <trkpt lat="44.09521" lon="6.97918">
        <ele>1455.8000488281</ele>
        <time>2022-07-23T11:24:23.000Z</time>
      </trkpt>
      <trkpt lat="44.09517" lon="6.97901">
        <ele>1457</ele>
        <time>2022-07-23T11:24:27.000Z</time>
      </trkpt>
      <trkpt lat="44.09512" lon="6.97888">
        <ele>1457.5999755859</ele>
        <time>2022-07-23T11:24:30.000Z</time>
      </trkpt>
      <trkpt lat="44.09509" lon="6.97879">
        <ele>1458.1999511719</ele>
        <time>2022-07-23T11:24:33.000Z</time>
      </trkpt>
      <trkpt lat="44.09507" lon="6.97869">
        <ele>1459.1999511719</ele>
        <time>2022-07-23T11:24:36.000Z</time>
      </trkpt>
      <trkpt lat="44.09503" lon="6.9786">
        <ele>1460.4000244141</ele>
        <time>2022-07-23T11:24:39.000Z</time>
      </trkpt>
      <trkpt lat="44.09496" lon="6.97844">
        <ele>1461.1999511719</ele>
        <time>2022-07-23T11:24:44.000Z</time>
      </trkpt>
      <trkpt lat="44.09494" lon="6.97837">
        <ele>1461.5999755859</ele>
        <time>2022-07-23T11:24:46.000Z</time>
      </trkpt>
      <trkpt lat="44.09489" lon="6.97824">
        <ele>1462.5999755859</ele>
        <time>2022-07-23T11:24:50.000Z</time>
      </trkpt>
      <trkpt lat="44.09488" lon="6.97821">
        <ele>1463.1999511719</ele>
        <time>2022-07-23T11:24:51.000Z</time>
      </trkpt>
      <trkpt lat="44.09485" lon="6.97814">
        <ele>1463.8000488281</ele>
        <time>2022-07-23T11:24:53.000Z</time>
      </trkpt>
      <trkpt lat="44.09478" lon="6.97797">
        <ele>1464.8000488281</ele>
        <time>2022-07-23T11:24:58.000Z</time>
      </trkpt>
      <trkpt lat="44.09465" lon="6.97767">
        <ele>1465.5999755859</ele>
        <time>2022-07-23T11:25:06.000Z</time>
      </trkpt>
      <trkpt lat="44.09452" lon="6.97737">
        <ele>1465.4000244141</ele>
        <time>2022-07-23T11:25:13.000Z</time>
      </trkpt>
      <trkpt lat="44.09435" lon="6.97702">
        <ele>1465.8000488281</ele>
        <time>2022-07-23T11:25:22.000Z</time>
      </trkpt>
      <trkpt lat="44.09431" lon="6.97694">
        <ele>1466</ele>
        <time>2022-07-23T11:25:24.000Z</time>
      </trkpt>
      <trkpt lat="44.09426" lon="6.97678">
        <ele>1466.5999755859</ele>
        <time>2022-07-23T11:25:28.000Z</time>
      </trkpt>
      <trkpt lat="44.09421" lon="6.97667">
        <ele>1467.1999511719</ele>
        <time>2022-07-23T11:25:31.000Z</time>
      </trkpt>
      <trkpt lat="44.09418" lon="6.97657">
        <ele>1467.8000488281</ele>
        <time>2022-07-23T11:25:34.000Z</time>
      </trkpt>
      <trkpt lat="44.09416" lon="6.97651">
        <ele>1468.4000244141</ele>
        <time>2022-07-23T11:25:36.000Z</time>
      </trkpt>
      <trkpt lat="44.09412" lon="6.97639">
        <ele>1469.5999755859</ele>
        <time>2022-07-23T11:25:40.000Z</time>
      </trkpt>
      <trkpt lat="44.09409" lon="6.97634">
        <ele>1470.1999511719</ele>
        <time>2022-07-23T11:25:42.000Z</time>
      </trkpt>
      <trkpt lat="44.09408" lon="6.97631">
        <ele>1470.5999755859</ele>
        <time>2022-07-23T11:25:43.000Z</time>
      </trkpt>
      <trkpt lat="44.09404" lon="6.97619">
        <ele>1471.5999755859</ele>
        <time>2022-07-23T11:25:47.000Z</time>
      </trkpt>
      <trkpt lat="44.09402" lon="6.97614">
        <ele>1472.1999511719</ele>
        <time>2022-07-23T11:25:49.000Z</time>
      </trkpt>
      <trkpt lat="44.09399" lon="6.97609">
        <ele>1472.8000488281</ele>
        <time>2022-07-23T11:25:51.000Z</time>
      </trkpt>
      <trkpt lat="44.09394" lon="6.97601">
        <ele>1474</ele>
        <time>2022-07-23T11:25:54.000Z</time>
      </trkpt>
      <trkpt lat="44.09393" lon="6.97598">
        <ele>1474.4000244141</ele>
        <time>2022-07-23T11:25:55.000Z</time>
      </trkpt>
      <trkpt lat="44.09391" lon="6.97592">
        <ele>1475.1999511719</ele>
        <time>2022-07-23T11:25:57.000Z</time>
      </trkpt>
      <trkpt lat="44.09388" lon="6.97579">
        <ele>1476.4000244141</ele>
        <time>2022-07-23T11:26:01.000Z</time>
      </trkpt>
      <trkpt lat="44.09386" lon="6.9757">
        <ele>1477.5999755859</ele>
        <time>2022-07-23T11:26:04.000Z</time>
      </trkpt>
      <trkpt lat="44.09384" lon="6.97563">
        <ele>1478.8000488281</ele>
        <time>2022-07-23T11:26:06.000Z</time>
      </trkpt>
      <trkpt lat="44.09383" lon="6.97557">
        <ele>1479.8000488281</ele>
        <time>2022-07-23T11:26:08.000Z</time>
      </trkpt>
      <trkpt lat="44.09382" lon="6.97554">
        <ele>1480.4000244141</ele>
        <time>2022-07-23T11:26:09.000Z</time>
      </trkpt>
      <trkpt lat="44.0938" lon="6.97548">
        <ele>1481.4000244141</ele>
        <time>2022-07-23T11:26:11.000Z</time>
      </trkpt>
      <trkpt lat="44.09377" lon="6.9754">
        <ele>1482.8000488281</ele>
        <time>2022-07-23T11:26:14.000Z</time>
      </trkpt>
      <trkpt lat="44.09375" lon="6.97534">
        <ele>1483.5999755859</ele>
        <time>2022-07-23T11:26:16.000Z</time>
      </trkpt>
      <trkpt lat="44.09374" lon="6.97532">
        <ele>1484.1999511719</ele>
        <time>2022-07-23T11:26:17.000Z</time>
      </trkpt>
      <trkpt lat="44.09371" lon="6.97525">
        <ele>1485.1999511719</ele>
        <time>2022-07-23T11:26:20.000Z</time>
      </trkpt>
      <trkpt lat="44.09368" lon="6.97518">
        <ele>1486.4000244141</ele>
        <time>2022-07-23T11:26:23.000Z</time>
      </trkpt>
      <trkpt lat="44.09366" lon="6.97516">
        <ele>1486.8000488281</ele>
        <time>2022-07-23T11:26:24.000Z</time>
      </trkpt>
      <trkpt lat="44.09361" lon="6.97509">
        <ele>1487.5999755859</ele>
        <time>2022-07-23T11:26:28.000Z</time>
      </trkpt>
      <trkpt lat="44.09356" lon="6.97506">
        <ele>1488.4000244141</ele>
        <time>2022-07-23T11:26:31.000Z</time>
      </trkpt>
      <trkpt lat="44.09352" lon="6.97503">
        <ele>1488.8000488281</ele>
        <time>2022-07-23T11:26:33.000Z</time>
      </trkpt>
      <trkpt lat="44.09343" lon="6.975">
        <ele>1489.8000488281</ele>
        <time>2022-07-23T11:26:37.000Z</time>
      </trkpt>
      <trkpt lat="44.09341" lon="6.97499">
        <ele>1490</ele>
        <time>2022-07-23T11:26:38.000Z</time>
      </trkpt>
      <trkpt lat="44.09335" lon="6.97498">
        <ele>1491.1999511719</ele>
        <time>2022-07-23T11:26:41.000Z</time>
      </trkpt>
      <trkpt lat="44.09328" lon="6.97496">
        <ele>1492.4000244141</ele>
        <time>2022-07-23T11:26:44.000Z</time>
      </trkpt>
      <trkpt lat="44.09322" lon="6.97493">
        <ele>1493.8000488281</ele>
        <time>2022-07-23T11:26:47.000Z</time>
      </trkpt>
      <trkpt lat="44.09316" lon="6.97489">
        <ele>1494.8000488281</ele>
        <time>2022-07-23T11:26:50.000Z</time>
      </trkpt>
      <trkpt lat="44.09311" lon="6.97485">
        <ele>1495.8000488281</ele>
        <time>2022-07-23T11:26:53.000Z</time>
      </trkpt>
      <trkpt lat="44.09305" lon="6.9748">
        <ele>1496.1999511719</ele>
        <time>2022-07-23T11:26:56.000Z</time>
      </trkpt>
      <trkpt lat="44.09301" lon="6.97473">
        <ele>1496.8000488281</ele>
        <time>2022-07-23T11:26:59.000Z</time>
      </trkpt>
      <trkpt lat="44.09297" lon="6.97467">
        <ele>1498</ele>
        <time>2022-07-23T11:27:02.000Z</time>
      </trkpt>
      <trkpt lat="44.09292" lon="6.97454">
        <ele>1499</ele>
        <time>2022-07-23T11:27:07.000Z</time>
      </trkpt>
      <trkpt lat="44.09291" lon="6.97451">
        <ele>1499.1999511719</ele>
        <time>2022-07-23T11:27:08.000Z</time>
      </trkpt>
      <trkpt lat="44.09278" lon="6.97427">
        <ele>1499.8000488281</ele>
        <time>2022-07-23T11:27:16.000Z</time>
      </trkpt>
      <trkpt lat="44.09271" lon="6.97415">
        <ele>1500.1999511719</ele>
        <time>2022-07-23T11:27:20.000Z</time>
      </trkpt>
      <trkpt lat="44.09268" lon="6.97409">
        <ele>1500.5999755859</ele>
        <time>2022-07-23T11:27:22.000Z</time>
      </trkpt>
      <trkpt lat="44.09262" lon="6.97397">
        <ele>1501.1999511719</ele>
        <time>2022-07-23T11:27:26.000Z</time>
      </trkpt>
      <trkpt lat="44.09256" lon="6.97389">
        <ele>1502</ele>
        <time>2022-07-23T11:27:29.000Z</time>
      </trkpt>
      <trkpt lat="44.09254" lon="6.97387">
        <ele>1502.4000244141</ele>
        <time>2022-07-23T11:27:30.000Z</time>
      </trkpt>
      <trkpt lat="44.09244" lon="6.97375">
        <ele>1503.4000244141</ele>
        <time>2022-07-23T11:27:35.000Z</time>
      </trkpt>
      <trkpt lat="44.0924" lon="6.97369">
        <ele>1504.1999511719</ele>
        <time>2022-07-23T11:27:37.000Z</time>
      </trkpt>
      <trkpt lat="44.09238" lon="6.97366">
        <ele>1504.5999755859</ele>
        <time>2022-07-23T11:27:38.000Z</time>
      </trkpt>
      <trkpt lat="44.09232" lon="6.97359">
        <ele>1506.1999511719</ele>
        <time>2022-07-23T11:27:41.000Z</time>
      </trkpt>
      <trkpt lat="44.0923" lon="6.97355">
        <ele>1506.5999755859</ele>
        <time>2022-07-23T11:27:42.000Z</time>
      </trkpt>
      <trkpt lat="44.09227" lon="6.97351">
        <ele>1507.4000244141</ele>
        <time>2022-07-23T11:27:44.000Z</time>
      </trkpt>
      <trkpt lat="44.09222" lon="6.97342">
        <ele>1508.4000244141</ele>
        <time>2022-07-23T11:27:47.000Z</time>
      </trkpt>
      <trkpt lat="44.09221" lon="6.97338">
        <ele>1508.5999755859</ele>
        <time>2022-07-23T11:27:48.000Z</time>
      </trkpt>
      <trkpt lat="44.09218" lon="6.97329">
        <ele>1510</ele>
        <time>2022-07-23T11:27:51.000Z</time>
      </trkpt>
      <trkpt lat="44.09217" lon="6.97324">
        <ele>1511.1999511719</ele>
        <time>2022-07-23T11:27:53.000Z</time>
      </trkpt>
      <trkpt lat="44.09215" lon="6.97319">
        <ele>1512.5999755859</ele>
        <time>2022-07-23T11:27:55.000Z</time>
      </trkpt>
      <trkpt lat="44.09213" lon="6.97314">
        <ele>1513.8000488281</ele>
        <time>2022-07-23T11:27:57.000Z</time>
      </trkpt>
      <trkpt lat="44.09209" lon="6.97307">
        <ele>1515</ele>
        <time>2022-07-23T11:28:00.000Z</time>
      </trkpt>
      <trkpt lat="44.09206" lon="6.97303">
        <ele>1515.8000488281</ele>
        <time>2022-07-23T11:28:02.000Z</time>
      </trkpt>
      <trkpt lat="44.09203" lon="6.973">
        <ele>1516.4000244141</ele>
        <time>2022-07-23T11:28:04.000Z</time>
      </trkpt>
      <trkpt lat="44.09195" lon="6.97295">
        <ele>1517.4000244141</ele>
        <time>2022-07-23T11:28:08.000Z</time>
      </trkpt>
      <trkpt lat="44.09192" lon="6.97292">
        <ele>1518.1999511719</ele>
        <time>2022-07-23T11:28:10.000Z</time>
      </trkpt>
      <trkpt lat="44.0919" lon="6.97291">
        <ele>1518.8000488281</ele>
        <time>2022-07-23T11:28:11.000Z</time>
      </trkpt>
      <trkpt lat="44.09184" lon="6.97286">
        <ele>1519.8000488281</ele>
        <time>2022-07-23T11:28:14.000Z</time>
      </trkpt>
      <trkpt lat="44.09178" lon="6.97279">
        <ele>1521.1999511719</ele>
        <time>2022-07-23T11:28:17.000Z</time>
      </trkpt>
      <trkpt lat="44.09177" lon="6.97277">
        <ele>1521.8000488281</ele>
        <time>2022-07-23T11:28:18.000Z</time>
      </trkpt>
      <trkpt lat="44.09173" lon="6.97274">
        <ele>1522.5999755859</ele>
        <time>2022-07-23T11:28:20.000Z</time>
      </trkpt>
      <trkpt lat="44.0917" lon="6.97267">
        <ele>1523.4000244141</ele>
        <time>2022-07-23T11:28:23.000Z</time>
      </trkpt>
      <trkpt lat="44.09169" lon="6.97264">
        <ele>1523.5999755859</ele>
        <time>2022-07-23T11:28:24.000Z</time>
      </trkpt>
      <trkpt lat="44.09167" lon="6.9726">
        <ele>1524.5999755859</ele>
        <time>2022-07-23T11:28:26.000Z</time>
      </trkpt>
      <trkpt lat="44.09164" lon="6.97257">
        <ele>1525.8000488281</ele>
        <time>2022-07-23T11:28:28.000Z</time>
      </trkpt>
      <trkpt lat="44.09162" lon="6.97253">
        <ele>1526.8000488281</ele>
        <time>2022-07-23T11:28:30.000Z</time>
      </trkpt>
      <trkpt lat="44.09158" lon="6.97246">
        <ele>1528</ele>
        <time>2022-07-23T11:28:33.000Z</time>
      </trkpt>
      <trkpt lat="44.09157" lon="6.9724">
        <ele>1528.4000244141</ele>
        <time>2022-07-23T11:28:35.000Z</time>
      </trkpt>
      <trkpt lat="44.09157" lon="6.97238">
        <ele>1529</ele>
        <time>2022-07-23T11:28:36.000Z</time>
      </trkpt>
      <trkpt lat="44.09156" lon="6.97233">
        <ele>1530</ele>
        <time>2022-07-23T11:28:38.000Z</time>
      </trkpt>
      <trkpt lat="44.09154" lon="6.97229">
        <ele>1530.8000488281</ele>
        <time>2022-07-23T11:28:40.000Z</time>
      </trkpt>
      <trkpt lat="44.09153" lon="6.97227">
        <ele>1531.1999511719</ele>
        <time>2022-07-23T11:28:41.000Z</time>
      </trkpt>
      <trkpt lat="44.09149" lon="6.97222">
        <ele>1532.5999755859</ele>
        <time>2022-07-23T11:28:44.000Z</time>
      </trkpt>
      <trkpt lat="44.09147" lon="6.9722">
        <ele>1533.4000244141</ele>
        <time>2022-07-23T11:28:45.000Z</time>
      </trkpt>
      <trkpt lat="44.09146" lon="6.97218">
        <ele>1534.1999511719</ele>
        <time>2022-07-23T11:28:46.000Z</time>
      </trkpt>
      <trkpt lat="44.09144" lon="6.97214">
        <ele>1535.4000244141</ele>
        <time>2022-07-23T11:28:48.000Z</time>
      </trkpt>
      <trkpt lat="44.09141" lon="6.97209">
        <ele>1536.4000244141</ele>
        <time>2022-07-23T11:28:51.000Z</time>
      </trkpt>
      <trkpt lat="44.09139" lon="6.97208">
        <ele>1536.8000488281</ele>
        <time>2022-07-23T11:28:52.000Z</time>
      </trkpt>
      <trkpt lat="44.09135" lon="6.972">
        <ele>1538</ele>
        <time>2022-07-23T11:28:56.000Z</time>
      </trkpt>
      <trkpt lat="44.09134" lon="6.97196">
        <ele>1538.5999755859</ele>
        <time>2022-07-23T11:28:58.000Z</time>
      </trkpt>
      <trkpt lat="44.09132" lon="6.9719">
        <ele>1539.1999511719</ele>
        <time>2022-07-23T11:29:01.000Z</time>
      </trkpt>
      <trkpt lat="44.09129" lon="6.97186">
        <ele>1540.1999511719</ele>
        <time>2022-07-23T11:29:03.000Z</time>
      </trkpt>
      <trkpt lat="44.09128" lon="6.97184">
        <ele>1540.5999755859</ele>
        <time>2022-07-23T11:29:04.000Z</time>
      </trkpt>
      <trkpt lat="44.09125" lon="6.97179">
        <ele>1541.8000488281</ele>
        <time>2022-07-23T11:29:06.000Z</time>
      </trkpt>
      <trkpt lat="44.09122" lon="6.97174">
        <ele>1543.1999511719</ele>
        <time>2022-07-23T11:29:09.000Z</time>
      </trkpt>
      <trkpt lat="44.0912" lon="6.97169">
        <ele>1544.4000244141</ele>
        <time>2022-07-23T11:29:11.000Z</time>
      </trkpt>
      <trkpt lat="44.09118" lon="6.97163">
        <ele>1545.5999755859</ele>
        <time>2022-07-23T11:29:14.000Z</time>
      </trkpt>
      <trkpt lat="44.09118" lon="6.97161">
        <ele>1545.8000488281</ele>
        <time>2022-07-23T11:29:15.000Z</time>
      </trkpt>
      <trkpt lat="44.09116" lon="6.97154">
        <ele>1546.5999755859</ele>
        <time>2022-07-23T11:29:18.000Z</time>
      </trkpt>
      <trkpt lat="44.09115" lon="6.97149">
        <ele>1547.4000244141</ele>
        <time>2022-07-23T11:29:20.000Z</time>
      </trkpt>
      <trkpt lat="44.09115" lon="6.97146">
        <ele>1547.5999755859</ele>
        <time>2022-07-23T11:29:21.000Z</time>
      </trkpt>
      <trkpt lat="44.09112" lon="6.97131">
        <ele>1548.5999755859</ele>
        <time>2022-07-23T11:29:27.000Z</time>
      </trkpt>
      <trkpt lat="44.0911" lon="6.97125">
        <ele>1548.8000488281</ele>
        <time>2022-07-23T11:29:29.000Z</time>
      </trkpt>
      <trkpt lat="44.09105" lon="6.9711">
        <ele>1549.4000244141</ele>
        <time>2022-07-23T11:29:35.000Z</time>
      </trkpt>
      <trkpt lat="44.09102" lon="6.97103">
        <ele>1550</ele>
        <time>2022-07-23T11:29:38.000Z</time>
      </trkpt>
      <trkpt lat="44.09096" lon="6.97085">
        <ele>1550.8000488281</ele>
        <time>2022-07-23T11:29:45.000Z</time>
      </trkpt>
      <trkpt lat="44.09095" lon="6.97082">
        <ele>1551</ele>
        <time>2022-07-23T11:29:46.000Z</time>
      </trkpt>
      <trkpt lat="44.09087" lon="6.97069">
        <ele>1551.5999755859</ele>
        <time>2022-07-23T11:29:53.000Z</time>
      </trkpt>
      <trkpt lat="44.09086" lon="6.97069">
        <ele>1551.8000488281</ele>
        <time>2022-07-23T11:29:54.000Z</time>
      </trkpt>
      <trkpt lat="44.09085" lon="6.97069">
        <ele>1552</ele>
        <time>2022-07-23T11:29:58.000Z</time>
      </trkpt>
      <trkpt lat="44.09085" lon="6.97069">
        <ele>1552.1999511719</ele>
        <time>2022-07-23T11:30:12.000Z</time>
      </trkpt>
      <trkpt lat="44.09081" lon="6.9707">
        <ele>1552.1999511719</ele>
        <time>2022-07-23T11:30:27.000Z</time>
      </trkpt>
      <trkpt lat="44.0908" lon="6.97069">
        <ele>1552.4000244141</ele>
        <time>2022-07-23T11:30:32.000Z</time>
      </trkpt>
      <trkpt lat="44.0908" lon="6.97069">
        <ele>1552.8000488281</ele>
        <time>2022-07-23T11:30:41.000Z</time>
      </trkpt>
      <trkpt lat="44.09079" lon="6.97068">
        <ele>1552.8000488281</ele>
        <time>2022-07-23T11:31:07.000Z</time>
      </trkpt>
      <trkpt lat="44.09078" lon="6.97067">
        <ele>1552.8000488281</ele>
        <time>2022-07-23T11:31:34.000Z</time>
      </trkpt>
      <trkpt lat="44.09078" lon="6.97066">
        <ele>1552.5999755859</ele>
        <time>2022-07-23T11:32:01.000Z</time>
      </trkpt>
      <trkpt lat="44.09077" lon="6.97065">
        <ele>1552.4000244141</ele>
        <time>2022-07-23T11:32:28.000Z</time>
      </trkpt>
      <trkpt lat="44.09078" lon="6.97065">
        <ele>1552.4000244141</ele>
        <time>2022-07-23T11:32:47.000Z</time>
      </trkpt>
      <trkpt lat="44.09078" lon="6.97066">
        <ele>1552.1999511719</ele>
        <time>2022-07-23T11:33:14.000Z</time>
      </trkpt>
      <trkpt lat="44.09078" lon="6.97066">
        <ele>1552.1999511719</ele>
        <time>2022-07-23T11:33:37.000Z</time>
      </trkpt>
      <trkpt lat="44.09079" lon="6.97066">
        <ele>1552</ele>
        <time>2022-07-23T11:33:59.000Z</time>
      </trkpt>
      <trkpt lat="44.09078" lon="6.97067">
        <ele>1551.8000488281</ele>
        <time>2022-07-23T11:34:07.000Z</time>
      </trkpt>
      <trkpt lat="44.09077" lon="6.97067">
        <ele>1551.8000488281</ele>
        <time>2022-07-23T11:34:08.000Z</time>
      </trkpt>
      <trkpt lat="44.09072" lon="6.97067">
        <ele>1551.8000488281</ele>
        <time>2022-07-23T11:34:11.000Z</time>
      </trkpt>
      <trkpt lat="44.09066" lon="6.97053">
        <ele>1551.5999755859</ele>
        <time>2022-07-23T11:34:16.000Z</time>
      </trkpt>
      <trkpt lat="44.09066" lon="6.97049">
        <ele>1551.4000244141</ele>
        <time>2022-07-23T11:34:17.000Z</time>
      </trkpt>
      <trkpt lat="44.09063" lon="6.97037">
        <ele>1550.8000488281</ele>
        <time>2022-07-23T11:34:20.000Z</time>
      </trkpt>
      <trkpt lat="44.09061" lon="6.97032">
        <ele>1550.5999755859</ele>
        <time>2022-07-23T11:34:21.000Z</time>
      </trkpt>
      <trkpt lat="44.09056" lon="6.97023">
        <ele>1549.5999755859</ele>
        <time>2022-07-23T11:34:23.000Z</time>
      </trkpt>
      <trkpt lat="44.09049" lon="6.97009">
        <ele>1548.1999511719</ele>
        <time>2022-07-23T11:34:26.000Z</time>
      </trkpt>
      <trkpt lat="44.0904" lon="6.96986">
        <ele>1547</ele>
        <time>2022-07-23T11:34:30.000Z</time>
      </trkpt>
      <trkpt lat="44.09037" lon="6.96981">
        <ele>1546.5999755859</ele>
        <time>2022-07-23T11:34:31.000Z</time>
      </trkpt>
      <trkpt lat="44.09033" lon="6.96971">
        <ele>1545.8000488281</ele>
        <time>2022-07-23T11:34:33.000Z</time>
      </trkpt>
      <trkpt lat="44.09027" lon="6.96957">
        <ele>1544.5999755859</ele>
        <time>2022-07-23T11:34:36.000Z</time>
      </trkpt>
      <trkpt lat="44.09026" lon="6.96952">
        <ele>1544.1999511719</ele>
        <time>2022-07-23T11:34:37.000Z</time>
      </trkpt>
      <trkpt lat="44.09022" lon="6.96944">
        <ele>1543.5999755859</ele>
        <time>2022-07-23T11:34:39.000Z</time>
      </trkpt>
      <trkpt lat="44.09017" lon="6.96933">
        <ele>1543</ele>
        <time>2022-07-23T11:34:41.000Z</time>
      </trkpt>
      <trkpt lat="44.09013" lon="6.9692">
        <ele>1542.4000244141</ele>
        <time>2022-07-23T11:34:43.000Z</time>
      </trkpt>
      <trkpt lat="44.09004" lon="6.96894">
        <ele>1541.5999755859</ele>
        <time>2022-07-23T11:34:47.000Z</time>
      </trkpt>
      <trkpt lat="44.09001" lon="6.96887">
        <ele>1541.1999511719</ele>
        <time>2022-07-23T11:34:48.000Z</time>
      </trkpt>
      <trkpt lat="44.08998" lon="6.96881">
        <ele>1541</ele>
        <time>2022-07-23T11:34:49.000Z</time>
      </trkpt>
      <trkpt lat="44.0899" lon="6.96866">
        <ele>1540.5999755859</ele>
        <time>2022-07-23T11:34:52.000Z</time>
      </trkpt>
      <trkpt lat="44.08986" lon="6.96862">
        <ele>1540.5999755859</ele>
        <time>2022-07-23T11:34:53.000Z</time>
      </trkpt>
      <trkpt lat="44.0898" lon="6.96852">
        <ele>1540.4000244141</ele>
        <time>2022-07-23T11:34:55.000Z</time>
      </trkpt>
      <trkpt lat="44.08978" lon="6.96846">
        <ele>1540.1999511719</ele>
        <time>2022-07-23T11:34:56.000Z</time>
      </trkpt>
      <trkpt lat="44.08972" lon="6.96837">
        <ele>1540</ele>
        <time>2022-07-23T11:34:58.000Z</time>
      </trkpt>
      <trkpt lat="44.08968" lon="6.96832">
        <ele>1539.8000488281</ele>
        <time>2022-07-23T11:34:59.000Z</time>
      </trkpt>
      <trkpt lat="44.08965" lon="6.96829">
        <ele>1539.8000488281</ele>
        <time>2022-07-23T11:35:00.000Z</time>
      </trkpt>
      <trkpt lat="44.08955" lon="6.9683">
        <ele>1539.8000488281</ele>
        <time>2022-07-23T11:35:02.000Z</time>
      </trkpt>
      <trkpt lat="44.08933" lon="6.96847">
        <ele>1539.1999511719</ele>
        <time>2022-07-23T11:35:07.000Z</time>
      </trkpt>
      <trkpt lat="44.0893" lon="6.96852">
        <ele>1539</ele>
        <time>2022-07-23T11:35:08.000Z</time>
      </trkpt>
      <trkpt lat="44.08926" lon="6.96856">
        <ele>1539</ele>
        <time>2022-07-23T11:35:09.000Z</time>
      </trkpt>
      <trkpt lat="44.08912" lon="6.96865">
        <ele>1538.8000488281</ele>
        <time>2022-07-23T11:35:12.000Z</time>
      </trkpt>
      <trkpt lat="44.08903" lon="6.96865">
        <ele>1538.8000488281</ele>
        <time>2022-07-23T11:35:14.000Z</time>
      </trkpt>
      <trkpt lat="44.08896" lon="6.96866">
        <ele>1538.5999755859</ele>
        <time>2022-07-23T11:35:16.000Z</time>
      </trkpt>
      <trkpt lat="44.0887" lon="6.96873">
        <ele>1538.5999755859</ele>
        <time>2022-07-23T11:35:23.000Z</time>
      </trkpt>
      <trkpt lat="44.08846" lon="6.96873">
        <ele>1539</ele>
        <time>2022-07-23T11:35:30.000Z</time>
      </trkpt>
      <trkpt lat="44.08824" lon="6.96871">
        <ele>1539.4000244141</ele>
        <time>2022-07-23T11:35:36.000Z</time>
      </trkpt>
      <trkpt lat="44.08807" lon="6.96871">
        <ele>1539.5999755859</ele>
        <time>2022-07-23T11:35:41.000Z</time>
      </trkpt>
      <trkpt lat="44.08796" lon="6.96873">
        <ele>1540</ele>
        <time>2022-07-23T11:35:44.000Z</time>
      </trkpt>
      <trkpt lat="44.08794" lon="6.96873">
        <ele>1540</ele>
        <time>2022-07-23T11:35:45.000Z</time>
      </trkpt>
      <trkpt lat="44.08782" lon="6.96876">
        <ele>1541</ele>
        <time>2022-07-23T11:35:49.000Z</time>
      </trkpt>
      <trkpt lat="44.08769" lon="6.96881">
        <ele>1542.1999511719</ele>
        <time>2022-07-23T11:35:54.000Z</time>
      </trkpt>
      <trkpt lat="44.08764" lon="6.96882">
        <ele>1542.4000244141</ele>
        <time>2022-07-23T11:35:56.000Z</time>
      </trkpt>
      <trkpt lat="44.0875" lon="6.96886">
        <ele>1543.1999511719</ele>
        <time>2022-07-23T11:36:01.000Z</time>
      </trkpt>
      <trkpt lat="44.08746" lon="6.96886">
        <ele>1543.4000244141</ele>
        <time>2022-07-23T11:36:02.000Z</time>
      </trkpt>
      <trkpt lat="44.08729" lon="6.96884">
        <ele>1544.1999511719</ele>
        <time>2022-07-23T11:36:08.000Z</time>
      </trkpt>
      <trkpt lat="44.0871" lon="6.96879">
        <ele>1545.4000244141</ele>
        <time>2022-07-23T11:36:15.000Z</time>
      </trkpt>
      <trkpt lat="44.08707" lon="6.96877">
        <ele>1545.5999755859</ele>
        <time>2022-07-23T11:36:16.000Z</time>
      </trkpt>
      <trkpt lat="44.087" lon="6.96873">
        <ele>1545.5999755859</ele>
        <time>2022-07-23T11:36:18.000Z</time>
      </trkpt>
      <trkpt lat="44.08696" lon="6.96867">
        <ele>1545.5999755859</ele>
        <time>2022-07-23T11:36:19.000Z</time>
      </trkpt>
      <trkpt lat="44.0869" lon="6.96847">
        <ele>1544.4000244141</ele>
        <time>2022-07-23T11:36:22.000Z</time>
      </trkpt>
      <trkpt lat="44.08689" lon="6.9684">
        <ele>1544</ele>
        <time>2022-07-23T11:36:23.000Z</time>
      </trkpt>
      <trkpt lat="44.08689" lon="6.96833">
        <ele>1543.4000244141</ele>
        <time>2022-07-23T11:36:24.000Z</time>
      </trkpt>
      <trkpt lat="44.08689" lon="6.96827">
        <ele>1543</ele>
        <time>2022-07-23T11:36:25.000Z</time>
      </trkpt>
      <trkpt lat="44.08687" lon="6.96814">
        <ele>1542.5999755859</ele>
        <time>2022-07-23T11:36:27.000Z</time>
      </trkpt>
      <trkpt lat="44.08687" lon="6.96802">
        <ele>1542.5999755859</ele>
        <time>2022-07-23T11:36:29.000Z</time>
      </trkpt>
      <trkpt lat="44.08683" lon="6.96778">
        <ele>1541.8000488281</ele>
        <time>2022-07-23T11:36:33.000Z</time>
      </trkpt>
      <trkpt lat="44.08679" lon="6.96761">
        <ele>1541.4000244141</ele>
        <time>2022-07-23T11:36:36.000Z</time>
      </trkpt>
      <trkpt lat="44.08672" lon="6.96724">
        <ele>1541.5999755859</ele>
        <time>2022-07-23T11:36:43.000Z</time>
      </trkpt>
      <trkpt lat="44.08662" lon="6.96682">
        <ele>1542.5999755859</ele>
        <time>2022-07-23T11:36:52.000Z</time>
      </trkpt>
      <trkpt lat="44.08659" lon="6.9667">
        <ele>1542.8000488281</ele>
        <time>2022-07-23T11:36:55.000Z</time>
      </trkpt>
      <trkpt lat="44.08651" lon="6.96639">
        <ele>1542.1999511719</ele>
        <time>2022-07-23T11:37:01.000Z</time>
      </trkpt>
      <trkpt lat="44.08647" lon="6.96625">
        <ele>1541.5999755859</ele>
        <time>2022-07-23T11:37:03.000Z</time>
      </trkpt>
      <trkpt lat="44.08645" lon="6.96608">
        <ele>1540.8000488281</ele>
        <time>2022-07-23T11:37:05.000Z</time>
      </trkpt>
      <trkpt lat="44.08644" lon="6.96599">
        <ele>1540.4000244141</ele>
        <time>2022-07-23T11:37:06.000Z</time>
      </trkpt>
      <trkpt lat="44.08642" lon="6.96572">
        <ele>1538.4000244141</ele>
        <time>2022-07-23T11:37:09.000Z</time>
      </trkpt>
      <trkpt lat="44.08642" lon="6.96563">
        <ele>1537.1999511719</ele>
        <time>2022-07-23T11:37:10.000Z</time>
      </trkpt>
      <trkpt lat="44.08641" lon="6.96546">
        <ele>1535.8000488281</ele>
        <time>2022-07-23T11:37:12.000Z</time>
      </trkpt>
      <trkpt lat="44.0864" lon="6.96517">
        <ele>1535.8000488281</ele>
        <time>2022-07-23T11:37:16.000Z</time>
      </trkpt>
      <trkpt lat="44.08639" lon="6.96469">
        <ele>1534.8000488281</ele>
        <time>2022-07-23T11:37:23.000Z</time>
      </trkpt>
      <trkpt lat="44.08641" lon="6.96457">
        <ele>1534.8000488281</ele>
        <time>2022-07-23T11:37:25.000Z</time>
      </trkpt>
      <trkpt lat="44.08638" lon="6.96445">
        <ele>1534.8000488281</ele>
        <time>2022-07-23T11:37:27.000Z</time>
      </trkpt>
      <trkpt lat="44.08637" lon="6.96438">
        <ele>1535</ele>
        <time>2022-07-23T11:37:28.000Z</time>
      </trkpt>
      <trkpt lat="44.08635" lon="6.96432">
        <ele>1535</ele>
        <time>2022-07-23T11:37:29.000Z</time>
      </trkpt>
      <trkpt lat="44.08631" lon="6.96402">
        <ele>1534.8000488281</ele>
        <time>2022-07-23T11:37:34.000Z</time>
      </trkpt>
      <trkpt lat="44.08627" lon="6.96386">
        <ele>1534.5999755859</ele>
        <time>2022-07-23T11:37:37.000Z</time>
      </trkpt>
      <trkpt lat="44.08627" lon="6.96374">
        <ele>1534.5999755859</ele>
        <time>2022-07-23T11:37:39.000Z</time>
      </trkpt>
      <trkpt lat="44.08625" lon="6.96357">
        <ele>1535.5999755859</ele>
        <time>2022-07-23T11:37:43.000Z</time>
      </trkpt>
      <trkpt lat="44.08624" lon="6.96354">
        <ele>1535.8000488281</ele>
        <time>2022-07-23T11:37:44.000Z</time>
      </trkpt>
      <trkpt lat="44.08617" lon="6.96342">
        <ele>1536.8000488281</ele>
        <time>2022-07-23T11:37:47.000Z</time>
      </trkpt>
      <trkpt lat="44.08605" lon="6.96315">
        <ele>1535.5999755859</ele>
        <time>2022-07-23T11:37:52.000Z</time>
      </trkpt>
      <trkpt lat="44.08595" lon="6.96283">
        <ele>1535.1999511719</ele>
        <time>2022-07-23T11:37:58.000Z</time>
      </trkpt>
      <trkpt lat="44.08594" lon="6.96277">
        <ele>1535</ele>
        <time>2022-07-23T11:37:59.000Z</time>
      </trkpt>
      <trkpt lat="44.08591" lon="6.96256">
        <ele>1534.5999755859</ele>
        <time>2022-07-23T11:38:03.000Z</time>
      </trkpt>
      <trkpt lat="44.0859" lon="6.96245">
        <ele>1534.4000244141</ele>
        <time>2022-07-23T11:38:05.000Z</time>
      </trkpt>
      <trkpt lat="44.08589" lon="6.96233">
        <ele>1534.4000244141</ele>
        <time>2022-07-23T11:38:07.000Z</time>
      </trkpt>
      <trkpt lat="44.08589" lon="6.96222">
        <ele>1534.1999511719</ele>
        <time>2022-07-23T11:38:09.000Z</time>
      </trkpt>
      <trkpt lat="44.08589" lon="6.96211">
        <ele>1533.8000488281</ele>
        <time>2022-07-23T11:38:11.000Z</time>
      </trkpt>
      <trkpt lat="44.08591" lon="6.96192">
        <ele>1534.4000244141</ele>
        <time>2022-07-23T11:38:16.000Z</time>
      </trkpt>
      <trkpt lat="44.08591" lon="6.96169">
        <ele>1535.4000244141</ele>
        <time>2022-07-23T11:38:22.000Z</time>
      </trkpt>
      <trkpt lat="44.0859" lon="6.96137">
        <ele>1535.5999755859</ele>
        <time>2022-07-23T11:38:29.000Z</time>
      </trkpt>
      <trkpt lat="44.08585" lon="6.96101">
        <ele>1535</ele>
        <time>2022-07-23T11:38:36.000Z</time>
      </trkpt>
      <trkpt lat="44.08576" lon="6.96069">
        <ele>1534.8000488281</ele>
        <time>2022-07-23T11:38:43.000Z</time>
      </trkpt>
      <trkpt lat="44.08569" lon="6.96046">
        <ele>1534.4000244141</ele>
        <time>2022-07-23T11:38:47.000Z</time>
      </trkpt>
      <trkpt lat="44.08565" lon="6.96025">
        <ele>1533.5999755859</ele>
        <time>2022-07-23T11:38:50.000Z</time>
      </trkpt>
      <trkpt lat="44.08562" lon="6.96009">
        <ele>1533</ele>
        <time>2022-07-23T11:38:52.000Z</time>
      </trkpt>
      <trkpt lat="44.08559" lon="6.95992">
        <ele>1532.1999511719</ele>
        <time>2022-07-23T11:38:54.000Z</time>
      </trkpt>
      <trkpt lat="44.08555" lon="6.95959">
        <ele>1531.4000244141</ele>
        <time>2022-07-23T11:38:58.000Z</time>
      </trkpt>
      <trkpt lat="44.08553" lon="6.95948">
        <ele>1531.1999511719</ele>
        <time>2022-07-23T11:38:59.000Z</time>
      </trkpt>
      <trkpt lat="44.08549" lon="6.9592">
        <ele>1529.8000488281</ele>
        <time>2022-07-23T11:39:02.000Z</time>
      </trkpt>
      <trkpt lat="44.08548" lon="6.95912">
        <ele>1529.4000244141</ele>
        <time>2022-07-23T11:39:03.000Z</time>
      </trkpt>
      <trkpt lat="44.08545" lon="6.95884">
        <ele>1528.5999755859</ele>
        <time>2022-07-23T11:39:06.000Z</time>
      </trkpt>
      <trkpt lat="44.08542" lon="6.95859">
        <ele>1527.5999755859</ele>
        <time>2022-07-23T11:39:09.000Z</time>
      </trkpt>
      <trkpt lat="44.08541" lon="6.95851">
        <ele>1527.1999511719</ele>
        <time>2022-07-23T11:39:10.000Z</time>
      </trkpt>
      <trkpt lat="44.08538" lon="6.95822">
        <ele>1526</ele>
        <time>2022-07-23T11:39:13.000Z</time>
      </trkpt>
      <trkpt lat="44.08537" lon="6.95804">
        <ele>1525.4000244141</ele>
        <time>2022-07-23T11:39:15.000Z</time>
      </trkpt>
      <trkpt lat="44.08534" lon="6.95783">
        <ele>1524.8000488281</ele>
        <time>2022-07-23T11:39:17.000Z</time>
      </trkpt>
      <trkpt lat="44.0853" lon="6.95753">
        <ele>1523.5999755859</ele>
        <time>2022-07-23T11:39:20.000Z</time>
      </trkpt>
      <trkpt lat="44.08529" lon="6.95742">
        <ele>1523</ele>
        <time>2022-07-23T11:39:21.000Z</time>
      </trkpt>
      <trkpt lat="44.08525" lon="6.9572">
        <ele>1522.1999511719</ele>
        <time>2022-07-23T11:39:23.000Z</time>
      </trkpt>
      <trkpt lat="44.08521" lon="6.95704">
        <ele>1521.1999511719</ele>
        <time>2022-07-23T11:39:25.000Z</time>
      </trkpt>
      <trkpt lat="44.08516" lon="6.95693">
        <ele>1520</ele>
        <time>2022-07-23T11:39:28.000Z</time>
      </trkpt>
      <trkpt lat="44.08504" lon="6.95682">
        <ele>1519.8000488281</ele>
        <time>2022-07-23T11:39:33.000Z</time>
      </trkpt>
      <trkpt lat="44.08496" lon="6.95679">
        <ele>1519.4000244141</ele>
        <time>2022-07-23T11:39:35.000Z</time>
      </trkpt>
      <trkpt lat="44.08488" lon="6.95677">
        <ele>1518.8000488281</ele>
        <time>2022-07-23T11:39:37.000Z</time>
      </trkpt>
      <trkpt lat="44.08476" lon="6.95675">
        <ele>1517.8000488281</ele>
        <time>2022-07-23T11:39:40.000Z</time>
      </trkpt>
      <trkpt lat="44.08471" lon="6.95673">
        <ele>1517.5999755859</ele>
        <time>2022-07-23T11:39:41.000Z</time>
      </trkpt>
      <trkpt lat="44.08463" lon="6.95672">
        <ele>1517.4000244141</ele>
        <time>2022-07-23T11:39:43.000Z</time>
      </trkpt>
      <trkpt lat="44.08441" lon="6.95665">
        <ele>1516.5999755859</ele>
        <time>2022-07-23T11:39:49.000Z</time>
      </trkpt>
      <trkpt lat="44.08436" lon="6.95665">
        <ele>1516.5999755859</ele>
        <time>2022-07-23T11:39:50.000Z</time>
      </trkpt>
      <trkpt lat="44.0841" lon="6.95664">
        <ele>1515.5999755859</ele>
        <time>2022-07-23T11:39:56.000Z</time>
      </trkpt>
      <trkpt lat="44.08405" lon="6.95665">
        <ele>1515.4000244141</ele>
        <time>2022-07-23T11:39:57.000Z</time>
      </trkpt>
      <trkpt lat="44.08388" lon="6.95665">
        <ele>1514.5999755859</ele>
        <time>2022-07-23T11:40:01.000Z</time>
      </trkpt>
      <trkpt lat="44.08385" lon="6.95665">
        <ele>1514.4000244141</ele>
        <time>2022-07-23T11:40:02.000Z</time>
      </trkpt>
      <trkpt lat="44.08373" lon="6.95664">
        <ele>1514</ele>
        <time>2022-07-23T11:40:07.000Z</time>
      </trkpt>
      <trkpt lat="44.0837" lon="6.95661">
        <ele>1513.8000488281</ele>
        <time>2022-07-23T11:40:11.000Z</time>
      </trkpt>
      <trkpt lat="44.08371" lon="6.9566">
        <ele>1513.5999755859</ele>
        <time>2022-07-23T11:40:12.000Z</time>
      </trkpt>
      <trkpt lat="44.08376" lon="6.95661">
        <ele>1513.5999755859</ele>
        <time>2022-07-23T11:40:15.000Z</time>
      </trkpt>
      <trkpt lat="44.0838" lon="6.95664">
        <ele>1513.5999755859</ele>
        <time>2022-07-23T11:40:17.000Z</time>
      </trkpt>
      <trkpt lat="44.08383" lon="6.95665">
        <ele>1513.8000488281</ele>
        <time>2022-07-23T11:40:19.000Z</time>
      </trkpt>
      <trkpt lat="44.08387" lon="6.95665">
        <ele>1513.8000488281</ele>
        <time>2022-07-23T11:40:21.000Z</time>
      </trkpt>
      <trkpt lat="44.08399" lon="6.95665">
        <ele>1514.1999511719</ele>
        <time>2022-07-23T11:40:28.000Z</time>
      </trkpt>
      <trkpt lat="44.08396" lon="6.95664">
        <ele>1514.1999511719</ele>
        <time>2022-07-23T11:40:31.000Z</time>
      </trkpt>
      <trkpt lat="44.08382" lon="6.95664">
        <ele>1514.1999511719</ele>
        <time>2022-07-23T11:40:35.000Z</time>
      </trkpt>
      <trkpt lat="44.08362" lon="6.95664">
        <ele>1513.8000488281</ele>
        <time>2022-07-23T11:40:39.000Z</time>
      </trkpt>
      <trkpt lat="44.08351" lon="6.95662">
        <ele>1513.5999755859</ele>
        <time>2022-07-23T11:40:41.000Z</time>
      </trkpt>
      <trkpt lat="44.08346" lon="6.9566">
        <ele>1513.4000244141</ele>
        <time>2022-07-23T11:40:42.000Z</time>
      </trkpt>
      <trkpt lat="44.0833" lon="6.95651">
        <ele>1512.8000488281</ele>
        <time>2022-07-23T11:40:45.000Z</time>
      </trkpt>
      <trkpt lat="44.08324" lon="6.95648">
        <ele>1512.4000244141</ele>
        <time>2022-07-23T11:40:46.000Z</time>
      </trkpt>
      <trkpt lat="44.083" lon="6.95637">
        <ele>1511.1999511719</ele>
        <time>2022-07-23T11:40:50.000Z</time>
      </trkpt>
      <trkpt lat="44.08293" lon="6.95634">
        <ele>1510.8000488281</ele>
        <time>2022-07-23T11:40:51.000Z</time>
      </trkpt>
      <trkpt lat="44.08279" lon="6.95628">
        <ele>1510.1999511719</ele>
        <time>2022-07-23T11:40:53.000Z</time>
      </trkpt>
      <trkpt lat="44.08272" lon="6.95627">
        <ele>1509.8000488281</ele>
        <time>2022-07-23T11:40:54.000Z</time>
      </trkpt>
      <trkpt lat="44.08257" lon="6.95623">
        <ele>1509.1999511719</ele>
        <time>2022-07-23T11:40:56.000Z</time>
      </trkpt>
      <trkpt lat="44.0825" lon="6.95622">
        <ele>1508.8000488281</ele>
        <time>2022-07-23T11:40:57.000Z</time>
      </trkpt>
      <trkpt lat="44.08219" lon="6.95621">
        <ele>1507.5999755859</ele>
        <time>2022-07-23T11:41:01.000Z</time>
      </trkpt>
      <trkpt lat="44.08211" lon="6.95621">
        <ele>1507.1999511719</ele>
        <time>2022-07-23T11:41:02.000Z</time>
      </trkpt>
      <trkpt lat="44.08195" lon="6.95621">
        <ele>1506.4000244141</ele>
        <time>2022-07-23T11:41:04.000Z</time>
      </trkpt>
      <trkpt lat="44.08176" lon="6.9562">
        <ele>1505.8000488281</ele>
        <time>2022-07-23T11:41:07.000Z</time>
      </trkpt>
      <trkpt lat="44.08158" lon="6.95617">
        <ele>1505.4000244141</ele>
        <time>2022-07-23T11:41:11.000Z</time>
      </trkpt>
      <trkpt lat="44.08154" lon="6.95617">
        <ele>1505.4000244141</ele>
        <time>2022-07-23T11:41:12.000Z</time>
      </trkpt>
      <trkpt lat="44.08143" lon="6.9561">
        <ele>1504.8000488281</ele>
        <time>2022-07-23T11:41:16.000Z</time>
      </trkpt>
      <trkpt lat="44.08135" lon="6.95602">
        <ele>1504.4000244141</ele>
        <time>2022-07-23T11:41:20.000Z</time>
      </trkpt>
      <trkpt lat="44.08128" lon="6.95599">
        <ele>1504.4000244141</ele>
        <time>2022-07-23T11:41:23.000Z</time>
      </trkpt>
      <trkpt lat="44.08116" lon="6.95597">
        <ele>1504.4000244141</ele>
        <time>2022-07-23T11:41:28.000Z</time>
      </trkpt>
      <trkpt lat="44.0811" lon="6.95596">
        <ele>1504.4000244141</ele>
        <time>2022-07-23T11:41:34.000Z</time>
      </trkpt>
      <trkpt lat="44.08105" lon="6.95598">
        <ele>1504.1999511719</ele>
        <time>2022-07-23T11:41:40.000Z</time>
      </trkpt>
      <trkpt lat="44.08096" lon="6.95597">
        <ele>1504.1999511719</ele>
        <time>2022-07-23T11:41:45.000Z</time>
      </trkpt>
      <trkpt lat="44.08094" lon="6.95597">
        <ele>1504.1999511719</ele>
        <time>2022-07-23T11:41:46.000Z</time>
      </trkpt>
      <trkpt lat="44.08088" lon="6.95596">
        <ele>1504</ele>
        <time>2022-07-23T11:41:49.000Z</time>
      </trkpt>
      <trkpt lat="44.08079" lon="6.95593">
        <ele>1504.1999511719</ele>
        <time>2022-07-23T11:41:55.000Z</time>
      </trkpt>
      <trkpt lat="44.08078" lon="6.95593">
        <ele>1504.1999511719</ele>
        <time>2022-07-23T11:42:00.000Z</time>
      </trkpt>
      <trkpt lat="44.08078" lon="6.95594">
        <ele>1504.4000244141</ele>
        <time>2022-07-23T11:42:19.000Z</time>
      </trkpt>
      <trkpt lat="44.08074" lon="6.95597">
        <ele>1504.4000244141</ele>
        <time>2022-07-23T11:42:26.000Z</time>
      </trkpt>
      <trkpt lat="44.08077" lon="6.95601">
        <ele>1504.4000244141</ele>
        <time>2022-07-23T11:42:30.000Z</time>
      </trkpt>
      <trkpt lat="44.08081" lon="6.95596">
        <ele>1504.1999511719</ele>
        <time>2022-07-23T11:42:34.000Z</time>
      </trkpt>
      <trkpt lat="44.08084" lon="6.95602">
        <ele>1504.5999755859</ele>
        <time>2022-07-23T11:42:38.000Z</time>
      </trkpt>
      <trkpt lat="44.08082" lon="6.95604">
        <ele>1504.8000488281</ele>
        <time>2022-07-23T11:42:40.000Z</time>
      </trkpt>
      <trkpt lat="44.08076" lon="6.95608">
        <ele>1504.5999755859</ele>
        <time>2022-07-23T11:42:43.000Z</time>
      </trkpt>
      <trkpt lat="44.08071" lon="6.95608">
        <ele>1504.5999755859</ele>
        <time>2022-07-23T11:42:45.000Z</time>
      </trkpt>
      <trkpt lat="44.08067" lon="6.95603">
        <ele>1504.5999755859</ele>
        <time>2022-07-23T11:42:47.000Z</time>
      </trkpt>
      <trkpt lat="44.08065" lon="6.95599">
        <ele>1504.5999755859</ele>
        <time>2022-07-23T11:42:49.000Z</time>
      </trkpt>
      <trkpt lat="44.08064" lon="6.95596">
        <ele>1504.5999755859</ele>
        <time>2022-07-23T11:42:52.000Z</time>
      </trkpt>
      <trkpt lat="44.08065" lon="6.95593">
        <ele>1504</ele>
        <time>2022-07-23T11:42:57.000Z</time>
      </trkpt>
      <trkpt lat="44.08067" lon="6.95594">
        <ele>1504.8000488281</ele>
        <time>2022-07-23T11:43:04.000Z</time>
      </trkpt>
      <trkpt lat="44.08069" lon="6.95597">
        <ele>1504.5999755859</ele>
        <time>2022-07-23T11:43:15.000Z</time>
      </trkpt>
      <trkpt lat="44.0807" lon="6.956">
        <ele>1504.5999755859</ele>
        <time>2022-07-23T11:43:24.000Z</time>
      </trkpt>
      <trkpt lat="44.0807" lon="6.95604">
        <ele>1504.5999755859</ele>
        <time>2022-07-23T11:43:33.000Z</time>
      </trkpt>
      <trkpt lat="44.08072" lon="6.95606">
        <ele>1504.5999755859</ele>
        <time>2022-07-23T11:43:47.000Z</time>
      </trkpt>
      <trkpt lat="44.08076" lon="6.95609">
        <ele>1504.1999511719</ele>
        <time>2022-07-23T11:43:55.000Z</time>
      </trkpt>
      <trkpt lat="44.0808" lon="6.9561">
        <ele>1504.4000244141</ele>
        <time>2022-07-23T11:44:01.000Z</time>
      </trkpt>
      <trkpt lat="44.0808" lon="6.95611">
        <ele>1504.5999755859</ele>
        <time>2022-07-23T11:44:07.000Z</time>
      </trkpt>
      <trkpt lat="44.0808" lon="6.95611">
        <ele>1504.5999755859</ele>
        <time>2022-07-23T11:44:20.000Z</time>
      </trkpt>
      <trkpt lat="44.08079" lon="6.9561">
        <ele>1504.4000244141</ele>
        <time>2022-07-23T11:44:40.000Z</time>
      </trkpt>
      <trkpt lat="44.08078" lon="6.95609">
        <ele>1504.4000244141</ele>
        <time>2022-07-23T11:44:49.000Z</time>
      </trkpt>
      <trkpt lat="44.08078" lon="6.95609">
        <ele>1504.4000244141</ele>
        <time>2022-07-23T11:45:02.000Z</time>
      </trkpt>
      <trkpt lat="44.08076" lon="6.95608">
        <ele>1504.4000244141</ele>
        <time>2022-07-23T11:45:26.000Z</time>
      </trkpt>
      <trkpt lat="44.08076" lon="6.95607">
        <ele>1504.4000244141</ele>
        <time>2022-07-23T11:45:41.000Z</time>
      </trkpt>
      <trkpt lat="44.08076" lon="6.95606">
        <ele>1504.1999511719</ele>
        <time>2022-07-23T11:46:00.000Z</time>
      </trkpt>
      <trkpt lat="44.08076" lon="6.95605">
        <ele>1504.4000244141</ele>
        <time>2022-07-23T11:46:09.000Z</time>
      </trkpt>
      <trkpt lat="44.08078" lon="6.95603">
        <ele>1504.4000244141</ele>
        <time>2022-07-23T11:46:15.000Z</time>
      </trkpt>
      <trkpt lat="44.08079" lon="6.95602">
        <ele>1504.4000244141</ele>
        <time>2022-07-23T11:46:16.000Z</time>
      </trkpt>
      <trkpt lat="44.08082" lon="6.95597">
        <ele>1504.4000244141</ele>
        <time>2022-07-23T11:46:19.000Z</time>
      </trkpt>
      <trkpt lat="44.08081" lon="6.9559">
        <ele>1504.1999511719</ele>
        <time>2022-07-23T11:46:22.000Z</time>
      </trkpt>
      <trkpt lat="44.08078" lon="6.95578">
        <ele>1504.1999511719</ele>
        <time>2022-07-23T11:46:26.000Z</time>
      </trkpt>
      <trkpt lat="44.08075" lon="6.9557">
        <ele>1504.5999755859</ele>
        <time>2022-07-23T11:46:29.000Z</time>
      </trkpt>
      <trkpt lat="44.08073" lon="6.95556">
        <ele>1505.1999511719</ele>
        <time>2022-07-23T11:46:35.000Z</time>
      </trkpt>
      <trkpt lat="44.08072" lon="6.95548">
        <ele>1505.4000244141</ele>
        <time>2022-07-23T11:46:37.000Z</time>
      </trkpt>
      <trkpt lat="44.08071" lon="6.95532">
        <ele>1506.4000244141</ele>
        <time>2022-07-23T11:46:41.000Z</time>
      </trkpt>
      <trkpt lat="44.08071" lon="6.95529">
        <ele>1506.4000244141</ele>
        <time>2022-07-23T11:46:42.000Z</time>
      </trkpt>
      <trkpt lat="44.08072" lon="6.95514">
        <ele>1507.5999755859</ele>
        <time>2022-07-23T11:46:46.000Z</time>
      </trkpt>
      <trkpt lat="44.08072" lon="6.9551">
        <ele>1507.8000488281</ele>
        <time>2022-07-23T11:46:47.000Z</time>
      </trkpt>
      <trkpt lat="44.08073" lon="6.95499">
        <ele>1508.5999755859</ele>
        <time>2022-07-23T11:46:50.000Z</time>
      </trkpt>
      <trkpt lat="44.08074" lon="6.95486">
        <ele>1509.4000244141</ele>
        <time>2022-07-23T11:46:54.000Z</time>
      </trkpt>
      <trkpt lat="44.08075" lon="6.95479">
        <ele>1510</ele>
        <time>2022-07-23T11:46:56.000Z</time>
      </trkpt>
      <trkpt lat="44.08077" lon="6.9547">
        <ele>1511.1999511719</ele>
        <time>2022-07-23T11:46:59.000Z</time>
      </trkpt>
      <trkpt lat="44.08079" lon="6.95457">
        <ele>1512.1999511719</ele>
        <time>2022-07-23T11:47:03.000Z</time>
      </trkpt>
      <trkpt lat="44.08083" lon="6.95441">
        <ele>1513.1999511719</ele>
        <time>2022-07-23T11:47:07.000Z</time>
      </trkpt>
      <trkpt lat="44.08086" lon="6.9543">
        <ele>1514.4000244141</ele>
        <time>2022-07-23T11:47:10.000Z</time>
      </trkpt>
      <trkpt lat="44.08089" lon="6.95411">
        <ele>1515.5999755859</ele>
        <time>2022-07-23T11:47:15.000Z</time>
      </trkpt>
      <trkpt lat="44.0809" lon="6.95399">
        <ele>1516.5999755859</ele>
        <time>2022-07-23T11:47:18.000Z</time>
      </trkpt>
      <trkpt lat="44.0809" lon="6.95395">
        <ele>1517</ele>
        <time>2022-07-23T11:47:19.000Z</time>
      </trkpt>
      <trkpt lat="44.08089" lon="6.95376">
        <ele>1518.1999511719</ele>
        <time>2022-07-23T11:47:24.000Z</time>
      </trkpt>
      <trkpt lat="44.08089" lon="6.95372">
        <ele>1518.4000244141</ele>
        <time>2022-07-23T11:47:25.000Z</time>
      </trkpt>
      <trkpt lat="44.08089" lon="6.95357">
        <ele>1519.1999511719</ele>
        <time>2022-07-23T11:47:29.000Z</time>
      </trkpt>
      <trkpt lat="44.08088" lon="6.95345">
        <ele>1520.5999755859</ele>
        <time>2022-07-23T11:47:32.000Z</time>
      </trkpt>
      <trkpt lat="44.08088" lon="6.95334">
        <ele>1521.5999755859</ele>
        <time>2022-07-23T11:47:35.000Z</time>
      </trkpt>
      <trkpt lat="44.08088" lon="6.95315">
        <ele>1523</ele>
        <time>2022-07-23T11:47:40.000Z</time>
      </trkpt>
      <trkpt lat="44.08088" lon="6.953">
        <ele>1524</ele>
        <time>2022-07-23T11:47:44.000Z</time>
      </trkpt>
      <trkpt lat="44.08088" lon="6.95284">
        <ele>1525.1999511719</ele>
        <time>2022-07-23T11:47:48.000Z</time>
      </trkpt>
      <trkpt lat="44.08088" lon="6.95268">
        <ele>1526.4000244141</ele>
        <time>2022-07-23T11:47:52.000Z</time>
      </trkpt>
      <trkpt lat="44.08088" lon="6.95264">
        <ele>1526.5999755859</ele>
        <time>2022-07-23T11:47:53.000Z</time>
      </trkpt>
      <trkpt lat="44.08088" lon="6.95252">
        <ele>1527.5999755859</ele>
        <time>2022-07-23T11:47:56.000Z</time>
      </trkpt>
      <trkpt lat="44.08089" lon="6.9524">
        <ele>1528.8000488281</ele>
        <time>2022-07-23T11:47:59.000Z</time>
      </trkpt>
      <trkpt lat="44.08089" lon="6.95233">
        <ele>1529.1999511719</ele>
        <time>2022-07-23T11:48:01.000Z</time>
      </trkpt>
      <trkpt lat="44.08089" lon="6.9522">
        <ele>1530</ele>
        <time>2022-07-23T11:48:04.000Z</time>
      </trkpt>
      <trkpt lat="44.0809" lon="6.95196">
        <ele>1531</ele>
        <time>2022-07-23T11:48:10.000Z</time>
      </trkpt>
      <trkpt lat="44.0809" lon="6.95192">
        <ele>1531.1999511719</ele>
        <time>2022-07-23T11:48:11.000Z</time>
      </trkpt>
      <trkpt lat="44.08091" lon="6.95177">
        <ele>1532.1999511719</ele>
        <time>2022-07-23T11:48:15.000Z</time>
      </trkpt>
      <trkpt lat="44.0809" lon="6.95162">
        <ele>1533.1999511719</ele>
        <time>2022-07-23T11:48:19.000Z</time>
      </trkpt>
      <trkpt lat="44.0809" lon="6.95158">
        <ele>1533.4000244141</ele>
        <time>2022-07-23T11:48:20.000Z</time>
      </trkpt>
      <trkpt lat="44.0809" lon="6.95139">
        <ele>1534.8000488281</ele>
        <time>2022-07-23T11:48:25.000Z</time>
      </trkpt>
      <trkpt lat="44.0809" lon="6.95129">
        <ele>1536</ele>
        <time>2022-07-23T11:48:28.000Z</time>
      </trkpt>
      <trkpt lat="44.0809" lon="6.95124">
        <ele>1536.8000488281</ele>
        <time>2022-07-23T11:48:32.000Z</time>
      </trkpt>
      <trkpt lat="44.08091" lon="6.95124">
        <ele>1537</ele>
        <time>2022-07-23T11:48:39.000Z</time>
      </trkpt>
      <trkpt lat="44.08093" lon="6.95124">
        <ele>1537.1999511719</ele>
        <time>2022-07-23T11:48:48.000Z</time>
      </trkpt>
      <trkpt lat="44.08094" lon="6.95123">
        <ele>1537.1999511719</ele>
        <time>2022-07-23T11:49:02.000Z</time>
      </trkpt>
      <trkpt lat="44.08094" lon="6.95121">
        <ele>1537.8000488281</ele>
        <time>2022-07-23T11:49:10.000Z</time>
      </trkpt>
      <trkpt lat="44.08094" lon="6.95116">
        <ele>1537.8000488281</ele>
        <time>2022-07-23T11:49:12.000Z</time>
      </trkpt>
      <trkpt lat="44.08093" lon="6.95106">
        <ele>1538</ele>
        <time>2022-07-23T11:49:15.000Z</time>
      </trkpt>
      <trkpt lat="44.08092" lon="6.95102">
        <ele>1538</ele>
        <time>2022-07-23T11:49:16.000Z</time>
      </trkpt>
      <trkpt lat="44.08091" lon="6.95095">
        <ele>1538.4000244141</ele>
        <time>2022-07-23T11:49:18.000Z</time>
      </trkpt>
      <trkpt lat="44.08091" lon="6.95084">
        <ele>1539.1999511719</ele>
        <time>2022-07-23T11:49:21.000Z</time>
      </trkpt>
      <trkpt lat="44.08091" lon="6.95069">
        <ele>1540.4000244141</ele>
        <time>2022-07-23T11:49:25.000Z</time>
      </trkpt>
      <trkpt lat="44.08091" lon="6.95062">
        <ele>1541</ele>
        <time>2022-07-23T11:49:27.000Z</time>
      </trkpt>
      <trkpt lat="44.08092" lon="6.95054">
        <ele>1541.5999755859</ele>
        <time>2022-07-23T11:49:29.000Z</time>
      </trkpt>
      <trkpt lat="44.08093" lon="6.95038">
        <ele>1542.8000488281</ele>
        <time>2022-07-23T11:49:34.000Z</time>
      </trkpt>
      <trkpt lat="44.08094" lon="6.95025">
        <ele>1544</ele>
        <time>2022-07-23T11:49:38.000Z</time>
      </trkpt>
      <trkpt lat="44.08093" lon="6.95012">
        <ele>1545</ele>
        <time>2022-07-23T11:49:42.000Z</time>
      </trkpt>
      <trkpt lat="44.08092" lon="6.95009">
        <ele>1545.1999511719</ele>
        <time>2022-07-23T11:49:43.000Z</time>
      </trkpt>
      <trkpt lat="44.08089" lon="6.94995">
        <ele>1546.4000244141</ele>
        <time>2022-07-23T11:49:47.000Z</time>
      </trkpt>
      <trkpt lat="44.08088" lon="6.94988">
        <ele>1546.5999755859</ele>
        <time>2022-07-23T11:49:49.000Z</time>
      </trkpt>
      <trkpt lat="44.08084" lon="6.94978">
        <ele>1547.5999755859</ele>
        <time>2022-07-23T11:49:52.000Z</time>
      </trkpt>
      <trkpt lat="44.08081" lon="6.94969">
        <ele>1549</ele>
        <time>2022-07-23T11:49:55.000Z</time>
      </trkpt>
      <trkpt lat="44.08078" lon="6.94963">
        <ele>1549.8000488281</ele>
        <time>2022-07-23T11:49:57.000Z</time>
      </trkpt>
      <trkpt lat="44.08076" lon="6.9496">
        <ele>1550.4000244141</ele>
        <time>2022-07-23T11:49:58.000Z</time>
      </trkpt>
      <trkpt lat="44.08073" lon="6.94951">
        <ele>1551.5999755859</ele>
        <time>2022-07-23T11:50:01.000Z</time>
      </trkpt>
      <trkpt lat="44.08072" lon="6.94944">
        <ele>1552.4000244141</ele>
        <time>2022-07-23T11:50:03.000Z</time>
      </trkpt>
      <trkpt lat="44.08072" lon="6.9494">
        <ele>1552.5999755859</ele>
        <time>2022-07-23T11:50:04.000Z</time>
      </trkpt>
      <trkpt lat="44.08068" lon="6.94926">
        <ele>1554</ele>
        <time>2022-07-23T11:50:09.000Z</time>
      </trkpt>
      <trkpt lat="44.08067" lon="6.9492">
        <ele>1554.8000488281</ele>
        <time>2022-07-23T11:50:11.000Z</time>
      </trkpt>
      <trkpt lat="44.08066" lon="6.94917">
        <ele>1555.4000244141</ele>
        <time>2022-07-23T11:50:12.000Z</time>
      </trkpt>
      <trkpt lat="44.08063" lon="6.9491">
        <ele>1556.8000488281</ele>
        <time>2022-07-23T11:50:15.000Z</time>
      </trkpt>
      <trkpt lat="44.0806" lon="6.94903">
        <ele>1558</ele>
        <time>2022-07-23T11:50:18.000Z</time>
      </trkpt>
      <trkpt lat="44.08059" lon="6.949">
        <ele>1558.4000244141</ele>
        <time>2022-07-23T11:50:19.000Z</time>
      </trkpt>
      <trkpt lat="44.08057" lon="6.94895">
        <ele>1559.1999511719</ele>
        <time>2022-07-23T11:50:21.000Z</time>
      </trkpt>
      <trkpt lat="44.08053" lon="6.94885">
        <ele>1560.4000244141</ele>
        <time>2022-07-23T11:50:25.000Z</time>
      </trkpt>
      <trkpt lat="44.08049" lon="6.94878">
        <ele>1561.4000244141</ele>
        <time>2022-07-23T11:50:28.000Z</time>
      </trkpt>
      <trkpt lat="44.08048" lon="6.94874">
        <ele>1562.4000244141</ele>
        <time>2022-07-23T11:50:30.000Z</time>
      </trkpt>
      <trkpt lat="44.08047" lon="6.94872">
        <ele>1563</ele>
        <time>2022-07-23T11:50:31.000Z</time>
      </trkpt>
      <trkpt lat="44.08045" lon="6.94869">
        <ele>1563.5999755859</ele>
        <time>2022-07-23T11:50:33.000Z</time>
      </trkpt>
      <trkpt lat="44.08043" lon="6.94863">
        <ele>1564.8000488281</ele>
        <time>2022-07-23T11:50:36.000Z</time>
      </trkpt>
      <trkpt lat="44.0804" lon="6.94858">
        <ele>1565.8000488281</ele>
        <time>2022-07-23T11:50:39.000Z</time>
      </trkpt>
      <trkpt lat="44.08036" lon="6.9485">
        <ele>1567</ele>
        <time>2022-07-23T11:50:44.000Z</time>
      </trkpt>
      <trkpt lat="44.08034" lon="6.94846">
        <ele>1567.8000488281</ele>
        <time>2022-07-23T11:50:46.000Z</time>
      </trkpt>
      <trkpt lat="44.08034" lon="6.94844">
        <ele>1568</ele>
        <time>2022-07-23T11:50:47.000Z</time>
      </trkpt>
      <trkpt lat="44.08031" lon="6.94839">
        <ele>1569.1999511719</ele>
        <time>2022-07-23T11:50:50.000Z</time>
      </trkpt>
      <trkpt lat="44.08028" lon="6.94831">
        <ele>1570.4000244141</ele>
        <time>2022-07-23T11:50:54.000Z</time>
      </trkpt>
      <trkpt lat="44.08026" lon="6.94825">
        <ele>1571.5999755859</ele>
        <time>2022-07-23T11:50:57.000Z</time>
      </trkpt>
      <trkpt lat="44.08022" lon="6.94816">
        <ele>1572.5999755859</ele>
        <time>2022-07-23T11:51:02.000Z</time>
      </trkpt>
      <trkpt lat="44.08021" lon="6.94809">
        <ele>1573.8000488281</ele>
        <time>2022-07-23T11:51:05.000Z</time>
      </trkpt>
      <trkpt lat="44.08021" lon="6.94805">
        <ele>1574.8000488281</ele>
        <time>2022-07-23T11:51:07.000Z</time>
      </trkpt>
      <trkpt lat="44.08021" lon="6.94803">
        <ele>1575.4000244141</ele>
        <time>2022-07-23T11:51:08.000Z</time>
      </trkpt>
      <trkpt lat="44.08021" lon="6.94797">
        <ele>1576.8000488281</ele>
        <time>2022-07-23T11:51:11.000Z</time>
      </trkpt>
      <trkpt lat="44.0802" lon="6.94793">
        <ele>1577.4000244141</ele>
        <time>2022-07-23T11:51:13.000Z</time>
      </trkpt>
      <trkpt lat="44.08018" lon="6.9479">
        <ele>1577.8000488281</ele>
        <time>2022-07-23T11:51:15.000Z</time>
      </trkpt>
      <trkpt lat="44.08015" lon="6.94786">
        <ele>1578.4000244141</ele>
        <time>2022-07-23T11:51:17.000Z</time>
      </trkpt>
      <trkpt lat="44.08015" lon="6.94784">
        <ele>1578.8000488281</ele>
        <time>2022-07-23T11:51:18.000Z</time>
      </trkpt>
      <trkpt lat="44.08015" lon="6.94782">
        <ele>1579</ele>
        <time>2022-07-23T11:51:19.000Z</time>
      </trkpt>
      <trkpt lat="44.08014" lon="6.94776">
        <ele>1580.4000244141</ele>
        <time>2022-07-23T11:51:22.000Z</time>
      </trkpt>
      <trkpt lat="44.08014" lon="6.94772">
        <ele>1581.5999755859</ele>
        <time>2022-07-23T11:51:24.000Z</time>
      </trkpt>
      <trkpt lat="44.08012" lon="6.94766">
        <ele>1583</ele>
        <time>2022-07-23T11:51:27.000Z</time>
      </trkpt>
      <trkpt lat="44.08009" lon="6.94762">
        <ele>1583.8000488281</ele>
        <time>2022-07-23T11:51:29.000Z</time>
      </trkpt>
      <trkpt lat="44.08008" lon="6.94761">
        <ele>1584.1999511719</ele>
        <time>2022-07-23T11:51:30.000Z</time>
      </trkpt>
      <trkpt lat="44.08007" lon="6.94754">
        <ele>1585.4000244141</ele>
        <time>2022-07-23T11:51:33.000Z</time>
      </trkpt>
      <trkpt lat="44.08008" lon="6.94752">
        <ele>1585.5999755859</ele>
        <time>2022-07-23T11:51:34.000Z</time>
      </trkpt>
      <trkpt lat="44.08008" lon="6.94746">
        <ele>1586.4000244141</ele>
        <time>2022-07-23T11:51:37.000Z</time>
      </trkpt>
      <trkpt lat="44.08007" lon="6.9474">
        <ele>1587.5999755859</ele>
        <time>2022-07-23T11:51:40.000Z</time>
      </trkpt>
      <trkpt lat="44.08006" lon="6.94738">
        <ele>1588.1999511719</ele>
        <time>2022-07-23T11:51:41.000Z</time>
      </trkpt>
      <trkpt lat="44.08005" lon="6.94736">
        <ele>1588.8000488281</ele>
        <time>2022-07-23T11:51:42.000Z</time>
      </trkpt>
      <trkpt lat="44.08004" lon="6.9473">
        <ele>1590</ele>
        <time>2022-07-23T11:51:45.000Z</time>
      </trkpt>
      <trkpt lat="44.08003" lon="6.94726">
        <ele>1590.8000488281</ele>
        <time>2022-07-23T11:51:47.000Z</time>
      </trkpt>
      <trkpt lat="44.08003" lon="6.94724">
        <ele>1591.1999511719</ele>
        <time>2022-07-23T11:51:48.000Z</time>
      </trkpt>
      <trkpt lat="44.08003" lon="6.94716">
        <ele>1592.4000244141</ele>
        <time>2022-07-23T11:51:52.000Z</time>
      </trkpt>
      <trkpt lat="44.08004" lon="6.94707">
        <ele>1593.8000488281</ele>
        <time>2022-07-23T11:51:57.000Z</time>
      </trkpt>
      <trkpt lat="44.08005" lon="6.94701">
        <ele>1595.1999511719</ele>
        <time>2022-07-23T11:52:00.000Z</time>
      </trkpt>
      <trkpt lat="44.08004" lon="6.94693">
        <ele>1596.1999511719</ele>
        <time>2022-07-23T11:52:04.000Z</time>
      </trkpt>
      <trkpt lat="44.08003" lon="6.94691">
        <ele>1596.5999755859</ele>
        <time>2022-07-23T11:52:05.000Z</time>
      </trkpt>
      <trkpt lat="44.08002" lon="6.94686">
        <ele>1597.4000244141</ele>
        <time>2022-07-23T11:52:07.000Z</time>
      </trkpt>
      <trkpt lat="44.08002" lon="6.94679">
        <ele>1598</ele>
        <time>2022-07-23T11:52:10.000Z</time>
      </trkpt>
      <trkpt lat="44.08001" lon="6.94677">
        <ele>1598.4000244141</ele>
        <time>2022-07-23T11:52:11.000Z</time>
      </trkpt>
      <trkpt lat="44.08002" lon="6.94665">
        <ele>1599.8000488281</ele>
        <time>2022-07-23T11:52:16.000Z</time>
      </trkpt>
      <trkpt lat="44.08001" lon="6.94661">
        <ele>1601</ele>
        <time>2022-07-23T11:52:18.000Z</time>
      </trkpt>
      <trkpt lat="44.08001" lon="6.94655">
        <ele>1602.1999511719</ele>
        <time>2022-07-23T11:52:21.000Z</time>
      </trkpt>
      <trkpt lat="44.08" lon="6.94648">
        <ele>1602.8000488281</ele>
        <time>2022-07-23T11:52:24.000Z</time>
      </trkpt>
      <trkpt lat="44.07999" lon="6.94644">
        <ele>1603.1999511719</ele>
        <time>2022-07-23T11:52:26.000Z</time>
      </trkpt>
      <trkpt lat="44.07995" lon="6.94632">
        <ele>1604.5999755859</ele>
        <time>2022-07-23T11:52:32.000Z</time>
      </trkpt>
      <trkpt lat="44.07994" lon="6.94626">
        <ele>1605.8000488281</ele>
        <time>2022-07-23T11:52:35.000Z</time>
      </trkpt>
      <trkpt lat="44.07991" lon="6.94617">
        <ele>1607.1999511719</ele>
        <time>2022-07-23T11:52:39.000Z</time>
      </trkpt>
      <trkpt lat="44.0799" lon="6.94615">
        <ele>1607.4000244141</ele>
        <time>2022-07-23T11:52:40.000Z</time>
      </trkpt>
      <trkpt lat="44.07989" lon="6.94609">
        <ele>1608.4000244141</ele>
        <time>2022-07-23T11:52:43.000Z</time>
      </trkpt>
      <trkpt lat="44.07986" lon="6.94601">
        <ele>1609.4000244141</ele>
        <time>2022-07-23T11:52:47.000Z</time>
      </trkpt>
      <trkpt lat="44.07986" lon="6.94599">
        <ele>1609.5999755859</ele>
        <time>2022-07-23T11:52:48.000Z</time>
      </trkpt>
      <trkpt lat="44.07983" lon="6.9459">
        <ele>1610.8000488281</ele>
        <time>2022-07-23T11:52:52.000Z</time>
      </trkpt>
      <trkpt lat="44.07982" lon="6.94586">
        <ele>1611.4000244141</ele>
        <time>2022-07-23T11:52:54.000Z</time>
      </trkpt>
      <trkpt lat="44.07981" lon="6.94582">
        <ele>1612</ele>
        <time>2022-07-23T11:52:56.000Z</time>
      </trkpt>
      <trkpt lat="44.07978" lon="6.94573">
        <ele>1613.1999511719</ele>
        <time>2022-07-23T11:53:00.000Z</time>
      </trkpt>
      <trkpt lat="44.07975" lon="6.94565">
        <ele>1614</ele>
        <time>2022-07-23T11:53:04.000Z</time>
      </trkpt>
      <trkpt lat="44.07974" lon="6.94563">
        <ele>1614.1999511719</ele>
        <time>2022-07-23T11:53:05.000Z</time>
      </trkpt>
      <trkpt lat="44.07969" lon="6.94552">
        <ele>1615.4000244141</ele>
        <time>2022-07-23T11:53:11.000Z</time>
      </trkpt>
      <trkpt lat="44.07966" lon="6.94546">
        <ele>1616.5999755859</ele>
        <time>2022-07-23T11:53:14.000Z</time>
      </trkpt>
      <trkpt lat="44.07963" lon="6.9454">
        <ele>1618</ele>
        <time>2022-07-23T11:53:17.000Z</time>
      </trkpt>
      <trkpt lat="44.07958" lon="6.94532">
        <ele>1619</ele>
        <time>2022-07-23T11:53:21.000Z</time>
      </trkpt>
      <trkpt lat="44.07956" lon="6.94528">
        <ele>1619.1999511719</ele>
        <time>2022-07-23T11:53:23.000Z</time>
      </trkpt>
      <trkpt lat="44.07953" lon="6.94523">
        <ele>1620</ele>
        <time>2022-07-23T11:53:26.000Z</time>
      </trkpt>
      <trkpt lat="44.0795" lon="6.94517">
        <ele>1621.1999511719</ele>
        <time>2022-07-23T11:53:29.000Z</time>
      </trkpt>
      <trkpt lat="44.07949" lon="6.94515">
        <ele>1621.5999755859</ele>
        <time>2022-07-23T11:53:30.000Z</time>
      </trkpt>
      <trkpt lat="44.07946" lon="6.9451">
        <ele>1622.4000244141</ele>
        <time>2022-07-23T11:53:33.000Z</time>
      </trkpt>
      <trkpt lat="44.07941" lon="6.94502">
        <ele>1623.5999755859</ele>
        <time>2022-07-23T11:53:37.000Z</time>
      </trkpt>
      <trkpt lat="44.07937" lon="6.94492">
        <ele>1624.5999755859</ele>
        <time>2022-07-23T11:53:42.000Z</time>
      </trkpt>
      <trkpt lat="44.07935" lon="6.94486">
        <ele>1625.8000488281</ele>
        <time>2022-07-23T11:53:45.000Z</time>
      </trkpt>
      <trkpt lat="44.07933" lon="6.94478">
        <ele>1626.8000488281</ele>
        <time>2022-07-23T11:53:49.000Z</time>
      </trkpt>
      <trkpt lat="44.07931" lon="6.94471">
        <ele>1628</ele>
        <time>2022-07-23T11:53:53.000Z</time>
      </trkpt>
      <trkpt lat="44.0793" lon="6.94466">
        <ele>1629</ele>
        <time>2022-07-23T11:53:56.000Z</time>
      </trkpt>
      <trkpt lat="44.07927" lon="6.94457">
        <ele>1630</ele>
        <time>2022-07-23T11:54:01.000Z</time>
      </trkpt>
      <trkpt lat="44.07926" lon="6.9445">
        <ele>1631.1999511719</ele>
        <time>2022-07-23T11:54:05.000Z</time>
      </trkpt>
      <trkpt lat="44.07923" lon="6.94441">
        <ele>1632.4000244141</ele>
        <time>2022-07-23T11:54:10.000Z</time>
      </trkpt>
      <trkpt lat="44.07921" lon="6.94432">
        <ele>1633.5999755859</ele>
        <time>2022-07-23T11:54:14.000Z</time>
      </trkpt>
      <trkpt lat="44.0792" lon="6.94426">
        <ele>1634.1999511719</ele>
        <time>2022-07-23T11:54:17.000Z</time>
      </trkpt>
      <trkpt lat="44.07919" lon="6.94421">
        <ele>1634.5999755859</ele>
        <time>2022-07-23T11:54:19.000Z</time>
      </trkpt>
      <trkpt lat="44.07918" lon="6.94415">
        <ele>1635.8000488281</ele>
        <time>2022-07-23T11:54:22.000Z</time>
      </trkpt>
      <trkpt lat="44.07917" lon="6.94411">
        <ele>1636.4000244141</ele>
        <time>2022-07-23T11:54:24.000Z</time>
      </trkpt>
      <trkpt lat="44.07917" lon="6.94407">
        <ele>1637</ele>
        <time>2022-07-23T11:54:26.000Z</time>
      </trkpt>
      <trkpt lat="44.07915" lon="6.94399">
        <ele>1638</ele>
        <time>2022-07-23T11:54:30.000Z</time>
      </trkpt>
      <trkpt lat="44.07913" lon="6.94391">
        <ele>1639.1999511719</ele>
        <time>2022-07-23T11:54:34.000Z</time>
      </trkpt>
      <trkpt lat="44.07911" lon="6.94383">
        <ele>1640.1999511719</ele>
        <time>2022-07-23T11:54:38.000Z</time>
      </trkpt>
      <trkpt lat="44.07909" lon="6.9438">
        <ele>1641</ele>
        <time>2022-07-23T11:54:40.000Z</time>
      </trkpt>
      <trkpt lat="44.07908" lon="6.94378">
        <ele>1641.4000244141</ele>
        <time>2022-07-23T11:54:41.000Z</time>
      </trkpt>
      <trkpt lat="44.07908" lon="6.94371">
        <ele>1642.4000244141</ele>
        <time>2022-07-23T11:54:44.000Z</time>
      </trkpt>
      <trkpt lat="44.07907" lon="6.94368">
        <ele>1643</ele>
        <time>2022-07-23T11:54:46.000Z</time>
      </trkpt>
      <trkpt lat="44.07906" lon="6.94363">
        <ele>1643.4000244141</ele>
        <time>2022-07-23T11:54:48.000Z</time>
      </trkpt>
      <trkpt lat="44.07904" lon="6.94351">
        <ele>1644.5999755859</ele>
        <time>2022-07-23T11:54:54.000Z</time>
      </trkpt>
      <trkpt lat="44.07903" lon="6.94345">
        <ele>1645.8000488281</ele>
        <time>2022-07-23T11:54:57.000Z</time>
      </trkpt>
      <trkpt lat="44.07902" lon="6.94339">
        <ele>1647</ele>
        <time>2022-07-23T11:55:00.000Z</time>
      </trkpt>
      <trkpt lat="44.07902" lon="6.94337">
        <ele>1647.4000244141</ele>
        <time>2022-07-23T11:55:01.000Z</time>
      </trkpt>
      <trkpt lat="44.07901" lon="6.94333">
        <ele>1648</ele>
        <time>2022-07-23T11:55:03.000Z</time>
      </trkpt>
      <trkpt lat="44.079" lon="6.94325">
        <ele>1649.4000244141</ele>
        <time>2022-07-23T11:55:07.000Z</time>
      </trkpt>
      <trkpt lat="44.079" lon="6.94323">
        <ele>1649.5999755859</ele>
        <time>2022-07-23T11:55:08.000Z</time>
      </trkpt>
      <trkpt lat="44.07899" lon="6.94317">
        <ele>1650.4000244141</ele>
        <time>2022-07-23T11:55:11.000Z</time>
      </trkpt>
      <trkpt lat="44.07898" lon="6.94312">
        <ele>1651.4000244141</ele>
        <time>2022-07-23T11:55:14.000Z</time>
      </trkpt>
      <trkpt lat="44.07898" lon="6.9431">
        <ele>1651.8000488281</ele>
        <time>2022-07-23T11:55:15.000Z</time>
      </trkpt>
      <trkpt lat="44.07897" lon="6.9431">
        <ele>1652.4000244141</ele>
        <time>2022-07-23T11:55:16.000Z</time>
      </trkpt>
      <trkpt lat="44.07895" lon="6.94307">
        <ele>1653</ele>
        <time>2022-07-23T11:55:18.000Z</time>
      </trkpt>
      <trkpt lat="44.07895" lon="6.94305">
        <ele>1653.1999511719</ele>
        <time>2022-07-23T11:55:19.000Z</time>
      </trkpt>
      <trkpt lat="44.07897" lon="6.943">
        <ele>1654.1999511719</ele>
        <time>2022-07-23T11:55:22.000Z</time>
      </trkpt>
      <trkpt lat="44.07897" lon="6.94296">
        <ele>1654.8000488281</ele>
        <time>2022-07-23T11:55:24.000Z</time>
      </trkpt>
      <trkpt lat="44.07897" lon="6.94294">
        <ele>1655</ele>
        <time>2022-07-23T11:55:25.000Z</time>
      </trkpt>
      <trkpt lat="44.07897" lon="6.9429">
        <ele>1655.4000244141</ele>
        <time>2022-07-23T11:55:27.000Z</time>
      </trkpt>
      <trkpt lat="44.07897" lon="6.94282">
        <ele>1656.4000244141</ele>
        <time>2022-07-23T11:55:31.000Z</time>
      </trkpt>
      <trkpt lat="44.07897" lon="6.94281">
        <ele>1656.8000488281</ele>
        <time>2022-07-23T11:55:32.000Z</time>
      </trkpt>
      <trkpt lat="44.07897" lon="6.94277">
        <ele>1657.5999755859</ele>
        <time>2022-07-23T11:55:34.000Z</time>
      </trkpt>
      <trkpt lat="44.07898" lon="6.94271">
        <ele>1658.4000244141</ele>
        <time>2022-07-23T11:55:37.000Z</time>
      </trkpt>
      <trkpt lat="44.07898" lon="6.94269">
        <ele>1658.8000488281</ele>
        <time>2022-07-23T11:55:38.000Z</time>
      </trkpt>
      <trkpt lat="44.07899" lon="6.94263">
        <ele>1660</ele>
        <time>2022-07-23T11:55:41.000Z</time>
      </trkpt>
      <trkpt lat="44.07899" lon="6.94259">
        <ele>1660.8000488281</ele>
        <time>2022-07-23T11:55:43.000Z</time>
      </trkpt>
      <trkpt lat="44.079" lon="6.94257">
        <ele>1661.1999511719</ele>
        <time>2022-07-23T11:55:44.000Z</time>
      </trkpt>
      <trkpt lat="44.07901" lon="6.9425">
        <ele>1662.4000244141</ele>
        <time>2022-07-23T11:55:49.000Z</time>
      </trkpt>
      <trkpt lat="44.07903" lon="6.94242">
        <ele>1663.5999755859</ele>
        <time>2022-07-23T11:55:53.000Z</time>
      </trkpt>
      <trkpt lat="44.07905" lon="6.94235">
        <ele>1665</ele>
        <time>2022-07-23T11:55:57.000Z</time>
      </trkpt>
      <trkpt lat="44.07906" lon="6.9423">
        <ele>1666</ele>
        <time>2022-07-23T11:56:00.000Z</time>
      </trkpt>
      <trkpt lat="44.07906" lon="6.94227">
        <ele>1666.4000244141</ele>
        <time>2022-07-23T11:56:01.000Z</time>
      </trkpt>
      <trkpt lat="44.07908" lon="6.94222">
        <ele>1667.1999511719</ele>
        <time>2022-07-23T11:56:04.000Z</time>
      </trkpt>
      <trkpt lat="44.07909" lon="6.94217">
        <ele>1668.1999511719</ele>
        <time>2022-07-23T11:56:07.000Z</time>
      </trkpt>
      <trkpt lat="44.0791" lon="6.94214">
        <ele>1669.1999511719</ele>
        <time>2022-07-23T11:56:09.000Z</time>
      </trkpt>
      <trkpt lat="44.07912" lon="6.94209">
        <ele>1670.4000244141</ele>
        <time>2022-07-23T11:56:12.000Z</time>
      </trkpt>
      <trkpt lat="44.07913" lon="6.94207">
        <ele>1670.8000488281</ele>
        <time>2022-07-23T11:56:13.000Z</time>
      </trkpt>
      <trkpt lat="44.07915" lon="6.94203">
        <ele>1671.8000488281</ele>
        <time>2022-07-23T11:56:16.000Z</time>
      </trkpt>
      <trkpt lat="44.07918" lon="6.94199">
        <ele>1672.8000488281</ele>
        <time>2022-07-23T11:56:19.000Z</time>
      </trkpt>
      <trkpt lat="44.07918" lon="6.94198">
        <ele>1673</ele>
        <time>2022-07-23T11:56:20.000Z</time>
      </trkpt>
      <trkpt lat="44.07922" lon="6.94191">
        <ele>1674.1999511719</ele>
        <time>2022-07-23T11:56:24.000Z</time>
      </trkpt>
      <trkpt lat="44.07925" lon="6.94184">
        <ele>1675.4000244141</ele>
        <time>2022-07-23T11:56:28.000Z</time>
      </trkpt>
      <trkpt lat="44.07929" lon="6.94176">
        <ele>1676.8000488281</ele>
        <time>2022-07-23T11:56:33.000Z</time>
      </trkpt>
      <trkpt lat="44.07932" lon="6.9417">
        <ele>1677.8000488281</ele>
        <time>2022-07-23T11:56:37.000Z</time>
      </trkpt>
      <trkpt lat="44.07933" lon="6.94168">
        <ele>1678</ele>
        <time>2022-07-23T11:56:38.000Z</time>
      </trkpt>
      <trkpt lat="44.07937" lon="6.9416">
        <ele>1679.1999511719</ele>
        <time>2022-07-23T11:56:43.000Z</time>
      </trkpt>
      <trkpt lat="44.0794" lon="6.94155">
        <ele>1680</ele>
        <time>2022-07-23T11:56:46.000Z</time>
      </trkpt>
      <trkpt lat="44.07941" lon="6.94153">
        <ele>1680.1999511719</ele>
        <time>2022-07-23T11:56:47.000Z</time>
      </trkpt>
      <trkpt lat="44.07946" lon="6.94143">
        <ele>1681.4000244141</ele>
        <time>2022-07-23T11:56:53.000Z</time>
      </trkpt>
      <trkpt lat="44.07949" lon="6.94139">
        <ele>1682</ele>
        <time>2022-07-23T11:56:56.000Z</time>
      </trkpt>
      <trkpt lat="44.07951" lon="6.94134">
        <ele>1682.5999755859</ele>
        <time>2022-07-23T11:56:59.000Z</time>
      </trkpt>
      <trkpt lat="44.07954" lon="6.9413">
        <ele>1683.1999511719</ele>
        <time>2022-07-23T11:57:02.000Z</time>
      </trkpt>
      <trkpt lat="44.07956" lon="6.94127">
        <ele>1683.8000488281</ele>
        <time>2022-07-23T11:57:04.000Z</time>
      </trkpt>
      <trkpt lat="44.0796" lon="6.94119">
        <ele>1684.8000488281</ele>
        <time>2022-07-23T11:57:08.000Z</time>
      </trkpt>
      <trkpt lat="44.07963" lon="6.94114">
        <ele>1685.5999755859</ele>
        <time>2022-07-23T11:57:11.000Z</time>
      </trkpt>
      <trkpt lat="44.07965" lon="6.94112">
        <ele>1686</ele>
        <time>2022-07-23T11:57:12.000Z</time>
      </trkpt>
      <trkpt lat="44.07968" lon="6.94106">
        <ele>1687</ele>
        <time>2022-07-23T11:57:15.000Z</time>
      </trkpt>
      <trkpt lat="44.0797" lon="6.94103">
        <ele>1687.8000488281</ele>
        <time>2022-07-23T11:57:17.000Z</time>
      </trkpt>
      <trkpt lat="44.07971" lon="6.94101">
        <ele>1688.1999511719</ele>
        <time>2022-07-23T11:57:18.000Z</time>
      </trkpt>
      <trkpt lat="44.07973" lon="6.94096">
        <ele>1689.4000244141</ele>
        <time>2022-07-23T11:57:21.000Z</time>
      </trkpt>
      <trkpt lat="44.07975" lon="6.94092">
        <ele>1690</ele>
        <time>2022-07-23T11:57:23.000Z</time>
      </trkpt>
      <trkpt lat="44.07976" lon="6.94089">
        <ele>1690.4000244141</ele>
        <time>2022-07-23T11:57:25.000Z</time>
      </trkpt>
      <trkpt lat="44.07978" lon="6.94083">
        <ele>1691.5999755859</ele>
        <time>2022-07-23T11:57:28.000Z</time>
      </trkpt>
      <trkpt lat="44.07979" lon="6.94077">
        <ele>1692.1999511719</ele>
        <time>2022-07-23T11:57:31.000Z</time>
      </trkpt>
      <trkpt lat="44.07979" lon="6.94073">
        <ele>1692.5999755859</ele>
        <time>2022-07-23T11:57:33.000Z</time>
      </trkpt>
      <trkpt lat="44.0798" lon="6.94065">
        <ele>1693.8000488281</ele>
        <time>2022-07-23T11:57:37.000Z</time>
      </trkpt>
      <trkpt lat="44.0798" lon="6.94063">
        <ele>1694</ele>
        <time>2022-07-23T11:57:38.000Z</time>
      </trkpt>
      <trkpt lat="44.07981" lon="6.94057">
        <ele>1695</ele>
        <time>2022-07-23T11:57:41.000Z</time>
      </trkpt>
      <trkpt lat="44.07981" lon="6.9405">
        <ele>1696.1999511719</ele>
        <time>2022-07-23T11:57:45.000Z</time>
      </trkpt>
      <trkpt lat="44.07982" lon="6.94046">
        <ele>1696.5999755859</ele>
        <time>2022-07-23T11:57:47.000Z</time>
      </trkpt>
      <trkpt lat="44.07983" lon="6.9404">
        <ele>1697.1999511719</ele>
        <time>2022-07-23T11:57:50.000Z</time>
      </trkpt>
      <trkpt lat="44.07984" lon="6.94031">
        <ele>1698.4000244141</ele>
        <time>2022-07-23T11:57:54.000Z</time>
      </trkpt>
      <trkpt lat="44.07983" lon="6.94026">
        <ele>1699.5999755859</ele>
        <time>2022-07-23T11:57:57.000Z</time>
      </trkpt>
      <trkpt lat="44.07982" lon="6.94021">
        <ele>1700.4000244141</ele>
        <time>2022-07-23T11:58:00.000Z</time>
      </trkpt>
      <trkpt lat="44.07982" lon="6.94019">
        <ele>1700.5999755859</ele>
        <time>2022-07-23T11:58:01.000Z</time>
      </trkpt>
      <trkpt lat="44.07981" lon="6.94013">
        <ele>1701.5999755859</ele>
        <time>2022-07-23T11:58:04.000Z</time>
      </trkpt>
      <trkpt lat="44.0798" lon="6.94011">
        <ele>1702</ele>
        <time>2022-07-23T11:58:05.000Z</time>
      </trkpt>
      <trkpt lat="44.0798" lon="6.94006">
        <ele>1702.8000488281</ele>
        <time>2022-07-23T11:58:08.000Z</time>
      </trkpt>
      <trkpt lat="44.07979" lon="6.93998">
        <ele>1704</ele>
        <time>2022-07-23T11:58:12.000Z</time>
      </trkpt>
      <trkpt lat="44.07978" lon="6.93993">
        <ele>1704.5999755859</ele>
        <time>2022-07-23T11:58:15.000Z</time>
      </trkpt>
      <trkpt lat="44.07977" lon="6.9399">
        <ele>1705</ele>
        <time>2022-07-23T11:58:17.000Z</time>
      </trkpt>
      <trkpt lat="44.07977" lon="6.93991">
        <ele>1705.1999511719</ele>
        <time>2022-07-23T11:58:18.000Z</time>
      </trkpt>
      <trkpt lat="44.07976" lon="6.9399">
        <ele>1705.8000488281</ele>
        <time>2022-07-23T11:58:21.000Z</time>
      </trkpt>
      <trkpt lat="44.07976" lon="6.93992">
        <ele>1706</ele>
        <time>2022-07-23T11:58:31.000Z</time>
      </trkpt>
      <trkpt lat="44.07977" lon="6.93993">
        <ele>1705.8000488281</ele>
        <time>2022-07-23T11:58:48.000Z</time>
      </trkpt>
      <trkpt lat="44.07975" lon="6.93991">
        <ele>1705.5999755859</ele>
        <time>2022-07-23T11:59:13.000Z</time>
      </trkpt>
      <trkpt lat="44.07976" lon="6.9399">
        <ele>1705.5999755859</ele>
        <time>2022-07-23T11:59:37.000Z</time>
      </trkpt>
      <trkpt lat="44.07977" lon="6.9399">
        <ele>1705.4000244141</ele>
        <time>2022-07-23T12:00:06.000Z</time>
      </trkpt>
      <trkpt lat="44.07976" lon="6.9399">
        <ele>1705.5999755859</ele>
        <time>2022-07-23T12:00:31.000Z</time>
      </trkpt>
      <trkpt lat="44.07976" lon="6.93991">
        <ele>1705.5999755859</ele>
        <time>2022-07-23T12:00:37.000Z</time>
      </trkpt>
      <trkpt lat="44.07974" lon="6.93992">
        <ele>1705.5999755859</ele>
        <time>2022-07-23T12:00:38.000Z</time>
      </trkpt>
      <trkpt lat="44.07962" lon="6.93994">
        <ele>1706.4000244141</ele>
        <time>2022-07-23T12:00:43.000Z</time>
      </trkpt>
      <trkpt lat="44.07959" lon="6.93994">
        <ele>1707.5999755859</ele>
        <time>2022-07-23T12:00:45.000Z</time>
      </trkpt>
      <trkpt lat="44.07955" lon="6.93996">
        <ele>1708.5999755859</ele>
        <time>2022-07-23T12:00:47.000Z</time>
      </trkpt>
      <trkpt lat="44.07953" lon="6.93996">
        <ele>1709</ele>
        <time>2022-07-23T12:00:48.000Z</time>
      </trkpt>
      <trkpt lat="44.07952" lon="6.93997">
        <ele>1709.5999755859</ele>
        <time>2022-07-23T12:00:49.000Z</time>
      </trkpt>
      <trkpt lat="44.0795" lon="6.93998">
        <ele>1709.8000488281</ele>
        <time>2022-07-23T12:00:50.000Z</time>
      </trkpt>
      <trkpt lat="44.07944" lon="6.93999">
        <ele>1711.1999511719</ele>
        <time>2022-07-23T12:00:53.000Z</time>
      </trkpt>
      <trkpt lat="44.07939" lon="6.94001">
        <ele>1712.4000244141</ele>
        <time>2022-07-23T12:00:56.000Z</time>
      </trkpt>
      <trkpt lat="44.07936" lon="6.94001">
        <ele>1713</ele>
        <time>2022-07-23T12:00:58.000Z</time>
      </trkpt>
      <trkpt lat="44.07934" lon="6.94001">
        <ele>1713.4000244141</ele>
        <time>2022-07-23T12:00:59.000Z</time>
      </trkpt>
      <trkpt lat="44.07929" lon="6.94002">
        <ele>1714.8000488281</ele>
        <time>2022-07-23T12:01:02.000Z</time>
      </trkpt>
      <trkpt lat="44.07926" lon="6.94003">
        <ele>1716</ele>
        <time>2022-07-23T12:01:05.000Z</time>
      </trkpt>
      <trkpt lat="44.0792" lon="6.94004">
        <ele>1717.1999511719</ele>
        <time>2022-07-23T12:01:09.000Z</time>
      </trkpt>
      <trkpt lat="44.07917" lon="6.94005">
        <ele>1718.1999511719</ele>
        <time>2022-07-23T12:01:12.000Z</time>
      </trkpt>
      <trkpt lat="44.07914" lon="6.94007">
        <ele>1719.4000244141</ele>
        <time>2022-07-23T12:01:15.000Z</time>
      </trkpt>
      <trkpt lat="44.07907" lon="6.94006">
        <ele>1720.1999511719</ele>
        <time>2022-07-23T12:01:19.000Z</time>
      </trkpt>
      <trkpt lat="44.07906" lon="6.94006">
        <ele>1720.8000488281</ele>
        <time>2022-07-23T12:01:20.000Z</time>
      </trkpt>
      <trkpt lat="44.07901" lon="6.94007">
        <ele>1722</ele>
        <time>2022-07-23T12:01:23.000Z</time>
      </trkpt>
      <trkpt lat="44.07897" lon="6.94008">
        <ele>1722.5999755859</ele>
        <time>2022-07-23T12:01:25.000Z</time>
      </trkpt>
      <trkpt lat="44.07896" lon="6.94008">
        <ele>1723.1999511719</ele>
        <time>2022-07-23T12:01:26.000Z</time>
      </trkpt>
      <trkpt lat="44.07892" lon="6.94012">
        <ele>1724.1999511719</ele>
        <time>2022-07-23T12:01:29.000Z</time>
      </trkpt>
      <trkpt lat="44.07889" lon="6.94014">
        <ele>1725</ele>
        <time>2022-07-23T12:01:31.000Z</time>
      </trkpt>
      <trkpt lat="44.07888" lon="6.94015">
        <ele>1725.4000244141</ele>
        <time>2022-07-23T12:01:32.000Z</time>
      </trkpt>
      <trkpt lat="44.07882" lon="6.9402">
        <ele>1726.5999755859</ele>
        <time>2022-07-23T12:01:36.000Z</time>
      </trkpt>
      <trkpt lat="44.07878" lon="6.94023">
        <ele>1727.5999755859</ele>
        <time>2022-07-23T12:01:39.000Z</time>
      </trkpt>
      <trkpt lat="44.07876" lon="6.94024">
        <ele>1727.8000488281</ele>
        <time>2022-07-23T12:01:40.000Z</time>
      </trkpt>
      <trkpt lat="44.07873" lon="6.94028">
        <ele>1728.8000488281</ele>
        <time>2022-07-23T12:01:43.000Z</time>
      </trkpt>
      <trkpt lat="44.07868" lon="6.94033">
        <ele>1729.8000488281</ele>
        <time>2022-07-23T12:01:47.000Z</time>
      </trkpt>
      <trkpt lat="44.07866" lon="6.94034">
        <ele>1730</ele>
        <time>2022-07-23T12:01:48.000Z</time>
      </trkpt>
      <trkpt lat="44.0786" lon="6.94038">
        <ele>1731.1999511719</ele>
        <time>2022-07-23T12:01:52.000Z</time>
      </trkpt>
      <trkpt lat="44.07859" lon="6.9404">
        <ele>1731.5999755859</ele>
        <time>2022-07-23T12:01:53.000Z</time>
      </trkpt>
      <trkpt lat="44.07854" lon="6.94043">
        <ele>1732.5999755859</ele>
        <time>2022-07-23T12:01:56.000Z</time>
      </trkpt>
      <trkpt lat="44.07849" lon="6.94047">
        <ele>1734</ele>
        <time>2022-07-23T12:01:59.000Z</time>
      </trkpt>
      <trkpt lat="44.07843" lon="6.94051">
        <ele>1735.1999511719</ele>
        <time>2022-07-23T12:02:03.000Z</time>
      </trkpt>
      <trkpt lat="44.0784" lon="6.94053">
        <ele>1736.1999511719</ele>
        <time>2022-07-23T12:02:05.000Z</time>
      </trkpt>
      <trkpt lat="44.07837" lon="6.94056">
        <ele>1737.4000244141</ele>
        <time>2022-07-23T12:02:07.000Z</time>
      </trkpt>
      <trkpt lat="44.07833" lon="6.94058">
        <ele>1738.5999755859</ele>
        <time>2022-07-23T12:02:10.000Z</time>
      </trkpt>
      <trkpt lat="44.07831" lon="6.94059">
        <ele>1739.4000244141</ele>
        <time>2022-07-23T12:02:12.000Z</time>
      </trkpt>
      <trkpt lat="44.07829" lon="6.9406">
        <ele>1739.5999755859</ele>
        <time>2022-07-23T12:02:13.000Z</time>
      </trkpt>
      <trkpt lat="44.07824" lon="6.9406">
        <ele>1740.8000488281</ele>
        <time>2022-07-23T12:02:17.000Z</time>
      </trkpt>
      <trkpt lat="44.07821" lon="6.9406">
        <ele>1741.4000244141</ele>
        <time>2022-07-23T12:02:19.000Z</time>
      </trkpt>
      <trkpt lat="44.07819" lon="6.9406">
        <ele>1742</ele>
        <time>2022-07-23T12:02:21.000Z</time>
      </trkpt>
      <trkpt lat="44.07813" lon="6.94057">
        <ele>1743.1999511719</ele>
        <time>2022-07-23T12:02:24.000Z</time>
      </trkpt>
      <trkpt lat="44.07811" lon="6.94054">
        <ele>1744.1999511719</ele>
        <time>2022-07-23T12:02:26.000Z</time>
      </trkpt>
      <trkpt lat="44.07808" lon="6.94053">
        <ele>1745.1999511719</ele>
        <time>2022-07-23T12:02:28.000Z</time>
      </trkpt>
      <trkpt lat="44.07803" lon="6.9405">
        <ele>1746.4000244141</ele>
        <time>2022-07-23T12:02:31.000Z</time>
      </trkpt>
      <trkpt lat="44.07802" lon="6.94049">
        <ele>1747</ele>
        <time>2022-07-23T12:02:32.000Z</time>
      </trkpt>
      <trkpt lat="44.07801" lon="6.94048">
        <ele>1747.5999755859</ele>
        <time>2022-07-23T12:02:33.000Z</time>
      </trkpt>
      <trkpt lat="44.07797" lon="6.94045">
        <ele>1748.8000488281</ele>
        <time>2022-07-23T12:02:36.000Z</time>
      </trkpt>
      <trkpt lat="44.07793" lon="6.94042">
        <ele>1749.8000488281</ele>
        <time>2022-07-23T12:02:39.000Z</time>
      </trkpt>
      <trkpt lat="44.07791" lon="6.9404">
        <ele>1750.8000488281</ele>
        <time>2022-07-23T12:02:41.000Z</time>
      </trkpt>
      <trkpt lat="44.07789" lon="6.94039">
        <ele>1751</ele>
        <time>2022-07-23T12:02:42.000Z</time>
      </trkpt>
      <trkpt lat="44.07784" lon="6.94035">
        <ele>1752.1999511719</ele>
        <time>2022-07-23T12:02:46.000Z</time>
      </trkpt>
      <trkpt lat="44.07782" lon="6.94034">
        <ele>1753</ele>
        <time>2022-07-23T12:02:48.000Z</time>
      </trkpt>
      <trkpt lat="44.07779" lon="6.94032">
        <ele>1753.4000244141</ele>
        <time>2022-07-23T12:02:50.000Z</time>
      </trkpt>
      <trkpt lat="44.07773" lon="6.94028">
        <ele>1754.5999755859</ele>
        <time>2022-07-23T12:02:55.000Z</time>
      </trkpt>
      <trkpt lat="44.07771" lon="6.94027">
        <ele>1754.5999755859</ele>
        <time>2022-07-23T12:02:56.000Z</time>
      </trkpt>
      <trkpt lat="44.07766" lon="6.94024">
        <ele>1755.5999755859</ele>
        <time>2022-07-23T12:03:00.000Z</time>
      </trkpt>
      <trkpt lat="44.07762" lon="6.94022">
        <ele>1756.5999755859</ele>
        <time>2022-07-23T12:03:03.000Z</time>
      </trkpt>
      <trkpt lat="44.0776" lon="6.94021">
        <ele>1756.8000488281</ele>
        <time>2022-07-23T12:03:04.000Z</time>
      </trkpt>
      <trkpt lat="44.07754" lon="6.94017">
        <ele>1757.8000488281</ele>
        <time>2022-07-23T12:03:08.000Z</time>
      </trkpt>
      <trkpt lat="44.0775" lon="6.94014">
        <ele>1758.1999511719</ele>
        <time>2022-07-23T12:03:11.000Z</time>
      </trkpt>
      <trkpt lat="44.07742" lon="6.94007">
        <ele>1759</ele>
        <time>2022-07-23T12:03:17.000Z</time>
      </trkpt>
      <trkpt lat="44.07738" lon="6.94003">
        <ele>1759.1999511719</ele>
        <time>2022-07-23T12:03:20.000Z</time>
      </trkpt>
      <trkpt lat="44.0773" lon="6.93989">
        <ele>1759.8000488281</ele>
        <time>2022-07-23T12:03:27.000Z</time>
      </trkpt>
      <trkpt lat="44.07724" lon="6.93979">
        <ele>1760</ele>
        <time>2022-07-23T12:03:32.000Z</time>
      </trkpt>
      <trkpt lat="44.0772" lon="6.93973">
        <ele>1760.1999511719</ele>
        <time>2022-07-23T12:03:35.000Z</time>
      </trkpt>
      <trkpt lat="44.07717" lon="6.93968">
        <ele>1761.1999511719</ele>
        <time>2022-07-23T12:03:38.000Z</time>
      </trkpt>
      <trkpt lat="44.07714" lon="6.93963">
        <ele>1762.4000244141</ele>
        <time>2022-07-23T12:03:41.000Z</time>
      </trkpt>
      <trkpt lat="44.07713" lon="6.93961">
        <ele>1762.8000488281</ele>
        <time>2022-07-23T12:03:42.000Z</time>
      </trkpt>
      <trkpt lat="44.07711" lon="6.93958">
        <ele>1763.5999755859</ele>
        <time>2022-07-23T12:03:44.000Z</time>
      </trkpt>
      <trkpt lat="44.07707" lon="6.93951">
        <ele>1764.5999755859</ele>
        <time>2022-07-23T12:03:48.000Z</time>
      </trkpt>
      <trkpt lat="44.07707" lon="6.9395">
        <ele>1764.8000488281</ele>
        <time>2022-07-23T12:03:49.000Z</time>
      </trkpt>
      <trkpt lat="44.07706" lon="6.93949">
        <ele>1765</ele>
        <time>2022-07-23T12:03:50.000Z</time>
      </trkpt>
      <trkpt lat="44.07704" lon="6.9395">
        <ele>1765.8000488281</ele>
        <time>2022-07-23T12:03:52.000Z</time>
      </trkpt>
      <trkpt lat="44.07703" lon="6.93952">
        <ele>1766</ele>
        <time>2022-07-23T12:03:53.000Z</time>
      </trkpt>
      <trkpt lat="44.07701" lon="6.93961">
        <ele>1766.8000488281</ele>
        <time>2022-07-23T12:03:57.000Z</time>
      </trkpt>
      <trkpt lat="44.077" lon="6.93963">
        <ele>1766.8000488281</ele>
        <time>2022-07-23T12:03:58.000Z</time>
      </trkpt>
      <trkpt lat="44.07699" lon="6.93966">
        <ele>1766.8000488281</ele>
        <time>2022-07-23T12:03:59.000Z</time>
      </trkpt>
      <trkpt lat="44.07695" lon="6.93981">
        <ele>1766.8000488281</ele>
        <time>2022-07-23T12:04:06.000Z</time>
      </trkpt>
      <trkpt lat="44.07694" lon="6.93983">
        <ele>1767</ele>
        <time>2022-07-23T12:04:12.000Z</time>
      </trkpt>
      <trkpt lat="44.07694" lon="6.93984">
        <ele>1767.1999511719</ele>
        <time>2022-07-23T12:04:18.000Z</time>
      </trkpt>
      <trkpt lat="44.07694" lon="6.93985">
        <ele>1767.4000244141</ele>
        <time>2022-07-23T12:04:25.000Z</time>
      </trkpt>
      <trkpt lat="44.07694" lon="6.93986">
        <ele>1767</ele>
        <time>2022-07-23T12:04:32.000Z</time>
      </trkpt>
      <trkpt lat="44.07694" lon="6.93987">
        <ele>1766.8000488281</ele>
        <time>2022-07-23T12:04:38.000Z</time>
      </trkpt>
      <trkpt lat="44.07694" lon="6.93991">
        <ele>1766.4000244141</ele>
        <time>2022-07-23T12:04:45.000Z</time>
      </trkpt>
      <trkpt lat="44.07698" lon="6.93994">
        <ele>1766.4000244141</ele>
        <time>2022-07-23T12:05:00.000Z</time>
      </trkpt>
      <trkpt lat="44.07697" lon="6.93992">
        <ele>1766.5999755859</ele>
        <time>2022-07-23T12:05:17.000Z</time>
      </trkpt>
      <trkpt lat="44.07696" lon="6.93988">
        <ele>1766.4000244141</ele>
        <time>2022-07-23T12:05:23.000Z</time>
      </trkpt>
      <trkpt lat="44.07695" lon="6.93987">
        <ele>1766.8000488281</ele>
        <time>2022-07-23T12:05:30.000Z</time>
      </trkpt>
      <trkpt lat="44.07693" lon="6.93987">
        <ele>1766.4000244141</ele>
        <time>2022-07-23T12:05:37.000Z</time>
      </trkpt>
      <trkpt lat="44.07692" lon="6.93988">
        <ele>1766.4000244141</ele>
        <time>2022-07-23T12:05:45.000Z</time>
      </trkpt>
      <trkpt lat="44.0769" lon="6.93988">
        <ele>1766.8000488281</ele>
        <time>2022-07-23T12:05:56.000Z</time>
      </trkpt>
      <trkpt lat="44.0769" lon="6.93986">
        <ele>1766.8000488281</ele>
        <time>2022-07-23T12:06:11.000Z</time>
      </trkpt>
      <trkpt lat="44.0769" lon="6.93986">
        <ele>1766.4000244141</ele>
        <time>2022-07-23T12:06:23.000Z</time>
      </trkpt>
      <trkpt lat="44.07689" lon="6.93988">
        <ele>1766.1999511719</ele>
        <time>2022-07-23T12:06:36.000Z</time>
      </trkpt>
      <trkpt lat="44.0769" lon="6.93988">
        <ele>1766.4000244141</ele>
        <time>2022-07-23T12:06:49.000Z</time>
      </trkpt>
      <trkpt lat="44.07692" lon="6.9399">
        <ele>1766.1999511719</ele>
        <time>2022-07-23T12:07:07.000Z</time>
      </trkpt>
      <trkpt lat="44.07691" lon="6.93991">
        <ele>1766.1999511719</ele>
        <time>2022-07-23T12:07:26.000Z</time>
      </trkpt>
      <trkpt lat="44.0769" lon="6.93997">
        <ele>1766.1999511719</ele>
        <time>2022-07-23T12:07:36.000Z</time>
      </trkpt>
      <trkpt lat="44.07689" lon="6.94002">
        <ele>1766.4000244141</ele>
        <time>2022-07-23T12:07:52.000Z</time>
      </trkpt>
      <trkpt lat="44.07692" lon="6.94002">
        <ele>1766.1999511719</ele>
        <time>2022-07-23T12:08:11.000Z</time>
      </trkpt>
      <trkpt lat="44.07692" lon="6.94001">
        <ele>1766.4000244141</ele>
        <time>2022-07-23T12:08:29.000Z</time>
      </trkpt>
      <trkpt lat="44.07693" lon="6.93999">
        <ele>1766.4000244141</ele>
        <time>2022-07-23T12:08:48.000Z</time>
      </trkpt>
      <trkpt lat="44.07692" lon="6.93998">
        <ele>1766.4000244141</ele>
        <time>2022-07-23T12:09:07.000Z</time>
      </trkpt>
      <trkpt lat="44.07691" lon="6.93997">
        <ele>1766.4000244141</ele>
        <time>2022-07-23T12:09:27.000Z</time>
      </trkpt>
      <trkpt lat="44.07691" lon="6.93994">
        <ele>1766.4000244141</ele>
        <time>2022-07-23T12:09:43.000Z</time>
      </trkpt>
      <trkpt lat="44.07692" lon="6.93993">
        <ele>1766.4000244141</ele>
        <time>2022-07-23T12:09:54.000Z</time>
      </trkpt>
      <trkpt lat="44.0769" lon="6.93995">
        <ele>1766.1999511719</ele>
        <time>2022-07-23T12:10:08.000Z</time>
      </trkpt>
      <trkpt lat="44.07688" lon="6.93996">
        <ele>1766.1999511719</ele>
        <time>2022-07-23T12:10:25.000Z</time>
      </trkpt>
      <trkpt lat="44.07688" lon="6.93998">
        <ele>1766.1999511719</ele>
        <time>2022-07-23T12:10:42.000Z</time>
      </trkpt>
      <trkpt lat="44.07688" lon="6.93997">
        <ele>1766.4000244141</ele>
        <time>2022-07-23T12:11:01.000Z</time>
      </trkpt>
      <trkpt lat="44.07689" lon="6.93998">
        <ele>1766.4000244141</ele>
        <time>2022-07-23T12:11:15.000Z</time>
      </trkpt>
      <trkpt lat="44.0769" lon="6.93998">
        <ele>1766.4000244141</ele>
        <time>2022-07-23T12:11:28.000Z</time>
      </trkpt>
      <trkpt lat="44.07691" lon="6.93997">
        <ele>1766.4000244141</ele>
        <time>2022-07-23T12:11:36.000Z</time>
      </trkpt>
      <trkpt lat="44.07691" lon="6.93994">
        <ele>1766.4000244141</ele>
        <time>2022-07-23T12:11:52.000Z</time>
      </trkpt>
      <trkpt lat="44.0769" lon="6.93995">
        <ele>1766.4000244141</ele>
        <time>2022-07-23T12:12:06.000Z</time>
      </trkpt>
      <trkpt lat="44.0769" lon="6.93994">
        <ele>1766.4000244141</ele>
        <time>2022-07-23T12:12:18.000Z</time>
      </trkpt>
      <trkpt lat="44.07689" lon="6.93995">
        <ele>1766.4000244141</ele>
        <time>2022-07-23T12:12:28.000Z</time>
      </trkpt>
      <trkpt lat="44.07689" lon="6.93992">
        <ele>1766.4000244141</ele>
        <time>2022-07-23T12:12:35.000Z</time>
      </trkpt>
      <trkpt lat="44.07688" lon="6.93991">
        <ele>1766.4000244141</ele>
        <time>2022-07-23T12:12:48.000Z</time>
      </trkpt>
      <trkpt lat="44.07686" lon="6.93991">
        <ele>1766.4000244141</ele>
        <time>2022-07-23T12:13:01.000Z</time>
      </trkpt>
      <trkpt lat="44.07686" lon="6.9399">
        <ele>1766.4000244141</ele>
        <time>2022-07-23T12:13:14.000Z</time>
      </trkpt>
      <trkpt lat="44.07686" lon="6.93992">
        <ele>1766.5999755859</ele>
        <time>2022-07-23T12:13:27.000Z</time>
      </trkpt>
      <trkpt lat="44.07687" lon="6.93991">
        <ele>1767</ele>
        <time>2022-07-23T12:13:37.000Z</time>
      </trkpt>
      <trkpt lat="44.07686" lon="6.93991">
        <ele>1766.5999755859</ele>
        <time>2022-07-23T12:13:47.000Z</time>
      </trkpt>
      <trkpt lat="44.07687" lon="6.93992">
        <ele>1766.5999755859</ele>
        <time>2022-07-23T12:14:12.000Z</time>
      </trkpt>
      <trkpt lat="44.07688" lon="6.93989">
        <ele>1766.8000488281</ele>
        <time>2022-07-23T12:14:31.000Z</time>
      </trkpt>
      <trkpt lat="44.07688" lon="6.93989">
        <ele>1766.8000488281</ele>
        <time>2022-07-23T12:14:40.000Z</time>
      </trkpt>
      <trkpt lat="44.07688" lon="6.93989">
        <ele>1766.8000488281</ele>
        <time>2022-07-23T12:14:48.000Z</time>
      </trkpt>
      <trkpt lat="44.07688" lon="6.93988">
        <ele>1767</ele>
        <time>2022-07-23T12:14:57.000Z</time>
      </trkpt>
      <trkpt lat="44.07688" lon="6.93988">
        <ele>1767.1999511719</ele>
        <time>2022-07-23T12:15:03.000Z</time>
      </trkpt>
      <trkpt lat="44.07688" lon="6.93989">
        <ele>1767.1999511719</ele>
        <time>2022-07-23T12:15:13.000Z</time>
      </trkpt>
      <trkpt lat="44.07688" lon="6.93987">
        <ele>1767.4000244141</ele>
        <time>2022-07-23T12:15:31.000Z</time>
      </trkpt>
      <trkpt lat="44.07688" lon="6.93987">
        <ele>1767.4000244141</ele>
        <time>2022-07-23T12:15:38.000Z</time>
      </trkpt>
      <trkpt lat="44.07689" lon="6.93987">
        <ele>1767.1999511719</ele>
        <time>2022-07-23T12:15:46.000Z</time>
      </trkpt>
      <trkpt lat="44.07689" lon="6.93988">
        <ele>1767</ele>
        <time>2022-07-23T12:15:55.000Z</time>
      </trkpt>
      <trkpt lat="44.07691" lon="6.93988">
        <ele>1767</ele>
        <time>2022-07-23T12:16:04.000Z</time>
      </trkpt>
      <trkpt lat="44.07692" lon="6.93988">
        <ele>1767.5999755859</ele>
        <time>2022-07-23T12:16:10.000Z</time>
      </trkpt>
      <trkpt lat="44.07693" lon="6.93989">
        <ele>1767.1999511719</ele>
        <time>2022-07-23T12:16:17.000Z</time>
      </trkpt>
      <trkpt lat="44.07693" lon="6.93989">
        <ele>1767.1999511719</ele>
        <time>2022-07-23T12:16:23.000Z</time>
      </trkpt>
      <trkpt lat="44.07692" lon="6.93989">
        <ele>1767.1999511719</ele>
        <time>2022-07-23T12:16:29.000Z</time>
      </trkpt>
      <trkpt lat="44.07691" lon="6.93988">
        <ele>1767</ele>
        <time>2022-07-23T12:16:41.000Z</time>
      </trkpt>
      <trkpt lat="44.07691" lon="6.93988">
        <ele>1767.4000244141</ele>
        <time>2022-07-23T12:16:47.000Z</time>
      </trkpt>
      <trkpt lat="44.0769" lon="6.93986">
        <ele>1767.1999511719</ele>
        <time>2022-07-23T12:16:56.000Z</time>
      </trkpt>
      <trkpt lat="44.0769" lon="6.93986">
        <ele>1767.1999511719</ele>
        <time>2022-07-23T12:17:03.000Z</time>
      </trkpt>
      <trkpt lat="44.0769" lon="6.93985">
        <ele>1767.1999511719</ele>
        <time>2022-07-23T12:17:11.000Z</time>
      </trkpt>
      <trkpt lat="44.0769" lon="6.93984">
        <ele>1767.1999511719</ele>
        <time>2022-07-23T12:17:19.000Z</time>
      </trkpt>
      <trkpt lat="44.0769" lon="6.93981">
        <ele>1767.1999511719</ele>
        <time>2022-07-23T12:17:27.000Z</time>
      </trkpt>
      <trkpt lat="44.0769" lon="6.93981">
        <ele>1767.8000488281</ele>
        <time>2022-07-23T12:17:32.000Z</time>
      </trkpt>
      <trkpt lat="44.0769" lon="6.93981">
        <ele>1767.8000488281</ele>
        <time>2022-07-23T12:17:33.000Z</time>
      </trkpt>
      <trkpt lat="44.0769" lon="6.93981">
        <ele>1767.5999755859</ele>
        <time>2022-07-23T12:17:41.000Z</time>
      </trkpt>
      <trkpt lat="44.07692" lon="6.9398">
        <ele>1767.4000244141</ele>
        <time>2022-07-23T12:17:45.000Z</time>
      </trkpt>
      <trkpt lat="44.07692" lon="6.9398">
        <ele>1767.1999511719</ele>
        <time>2022-07-23T12:17:46.000Z</time>
      </trkpt>
      <trkpt lat="44.07694" lon="6.93978">
        <ele>1767.1999511719</ele>
        <time>2022-07-23T12:17:52.000Z</time>
      </trkpt>
      <trkpt lat="44.07693" lon="6.93978">
        <ele>1767.1999511719</ele>
        <time>2022-07-23T12:17:56.000Z</time>
      </trkpt>
      <trkpt lat="44.07693" lon="6.93978">
        <ele>1767.1999511719</ele>
        <time>2022-07-23T12:17:57.000Z</time>
      </trkpt>
      <trkpt lat="44.07692" lon="6.93978">
        <ele>1767.1999511719</ele>
        <time>2022-07-23T12:18:05.000Z</time>
      </trkpt>
      <trkpt lat="44.07692" lon="6.93979">
        <ele>1767</ele>
        <time>2022-07-23T12:18:10.000Z</time>
      </trkpt>
      <trkpt lat="44.07691" lon="6.9398">
        <ele>1767.1999511719</ele>
        <time>2022-07-23T12:18:17.000Z</time>
      </trkpt>
      <trkpt lat="44.07691" lon="6.9398">
        <ele>1767.1999511719</ele>
        <time>2022-07-23T12:18:25.000Z</time>
      </trkpt>
      <trkpt lat="44.07691" lon="6.93981">
        <ele>1767.1999511719</ele>
        <time>2022-07-23T12:18:35.000Z</time>
      </trkpt>
      <trkpt lat="44.0769" lon="6.93982">
        <ele>1767.1999511719</ele>
        <time>2022-07-23T12:18:45.000Z</time>
      </trkpt>
      <trkpt lat="44.0769" lon="6.93981">
        <ele>1767.8000488281</ele>
        <time>2022-07-23T12:18:57.000Z</time>
      </trkpt>
      <trkpt lat="44.07689" lon="6.93982">
        <ele>1767.5999755859</ele>
        <time>2022-07-23T12:19:11.000Z</time>
      </trkpt>
      <trkpt lat="44.07689" lon="6.93982">
        <ele>1767.5999755859</ele>
        <time>2022-07-23T12:19:17.000Z</time>
      </trkpt>
      <trkpt lat="44.07689" lon="6.93984">
        <ele>1767.4000244141</ele>
        <time>2022-07-23T12:19:24.000Z</time>
      </trkpt>
      <trkpt lat="44.07689" lon="6.93985">
        <ele>1767.5999755859</ele>
        <time>2022-07-23T12:19:28.000Z</time>
      </trkpt>
      <trkpt lat="44.07688" lon="6.93986">
        <ele>1767.1999511719</ele>
        <time>2022-07-23T12:19:39.000Z</time>
      </trkpt>
      <trkpt lat="44.07688" lon="6.93986">
        <ele>1767.1999511719</ele>
        <time>2022-07-23T12:19:49.000Z</time>
      </trkpt>
      <trkpt lat="44.07688" lon="6.93987">
        <ele>1767.5999755859</ele>
        <time>2022-07-23T12:20:09.000Z</time>
      </trkpt>
      <trkpt lat="44.07687" lon="6.93988">
        <ele>1767.5999755859</ele>
        <time>2022-07-23T12:20:18.000Z</time>
      </trkpt>
      <trkpt lat="44.07686" lon="6.93987">
        <ele>1767.8000488281</ele>
        <time>2022-07-23T12:20:27.000Z</time>
      </trkpt>
      <trkpt lat="44.07686" lon="6.93986">
        <ele>1768</ele>
        <time>2022-07-23T12:20:33.000Z</time>
      </trkpt>
      <trkpt lat="44.07688" lon="6.93986">
        <ele>1767.8000488281</ele>
        <time>2022-07-23T12:20:40.000Z</time>
      </trkpt>
      <trkpt lat="44.0769" lon="6.93989">
        <ele>1767.5999755859</ele>
        <time>2022-07-23T12:20:56.000Z</time>
      </trkpt>
      <trkpt lat="44.0769" lon="6.93991">
        <ele>1767.8000488281</ele>
        <time>2022-07-23T12:21:05.000Z</time>
      </trkpt>
      <trkpt lat="44.07689" lon="6.93992">
        <ele>1767.8000488281</ele>
        <time>2022-07-23T12:21:12.000Z</time>
      </trkpt>
      <trkpt lat="44.07689" lon="6.93992">
        <ele>1767.5999755859</ele>
        <time>2022-07-23T12:21:29.000Z</time>
      </trkpt>
      <trkpt lat="44.0769" lon="6.93993">
        <ele>1767.5999755859</ele>
        <time>2022-07-23T12:21:40.000Z</time>
      </trkpt>
      <trkpt lat="44.07688" lon="6.93993">
        <ele>1767.5999755859</ele>
        <time>2022-07-23T12:21:51.000Z</time>
      </trkpt>
      <trkpt lat="44.07689" lon="6.93992">
        <ele>1768</ele>
        <time>2022-07-23T12:21:58.000Z</time>
      </trkpt>
      <trkpt lat="44.07689" lon="6.9399">
        <ele>1767.8000488281</ele>
        <time>2022-07-23T12:22:05.000Z</time>
      </trkpt>
      <trkpt lat="44.07691" lon="6.93989">
        <ele>1768.4000244141</ele>
        <time>2022-07-23T12:22:12.000Z</time>
      </trkpt>
      <trkpt lat="44.07691" lon="6.93988">
        <ele>1767.5999755859</ele>
        <time>2022-07-23T12:22:19.000Z</time>
      </trkpt>
      <trkpt lat="44.07691" lon="6.93988">
        <ele>1768</ele>
        <time>2022-07-23T12:22:25.000Z</time>
      </trkpt>
      <trkpt lat="44.0769" lon="6.93986">
        <ele>1767.8000488281</ele>
        <time>2022-07-23T12:22:30.000Z</time>
      </trkpt>
      <trkpt lat="44.0769" lon="6.93987">
        <ele>1768</ele>
        <time>2022-07-23T12:22:37.000Z</time>
      </trkpt>
      <trkpt lat="44.0769" lon="6.93988">
        <ele>1768.1999511719</ele>
        <time>2022-07-23T12:22:43.000Z</time>
      </trkpt>
      <trkpt lat="44.07691" lon="6.93989">
        <ele>1767.5999755859</ele>
        <time>2022-07-23T12:22:53.000Z</time>
      </trkpt>
      <trkpt lat="44.07692" lon="6.93989">
        <ele>1767.5999755859</ele>
        <time>2022-07-23T12:23:02.000Z</time>
      </trkpt>
      <trkpt lat="44.07692" lon="6.93988">
        <ele>1768.1999511719</ele>
        <time>2022-07-23T12:23:08.000Z</time>
      </trkpt>
      <trkpt lat="44.07692" lon="6.93988">
        <ele>1768.1999511719</ele>
        <time>2022-07-23T12:23:18.000Z</time>
      </trkpt>
      <trkpt lat="44.07692" lon="6.93987">
        <ele>1768.1999511719</ele>
        <time>2022-07-23T12:23:28.000Z</time>
      </trkpt>
      <trkpt lat="44.07692" lon="6.93986">
        <ele>1768</ele>
        <time>2022-07-23T12:23:36.000Z</time>
      </trkpt>
      <trkpt lat="44.07689" lon="6.9399">
        <ele>1768.4000244141</ele>
        <time>2022-07-23T12:23:53.000Z</time>
      </trkpt>
      <trkpt lat="44.0769" lon="6.9399">
        <ele>1768.8000488281</ele>
        <time>2022-07-23T12:24:11.000Z</time>
      </trkpt>
      <trkpt lat="44.0769" lon="6.9399">
        <ele>1768.5999755859</ele>
        <time>2022-07-23T12:24:31.000Z</time>
      </trkpt>
      <trkpt lat="44.07691" lon="6.93988">
        <ele>1768.5999755859</ele>
        <time>2022-07-23T12:24:44.000Z</time>
      </trkpt>
      <trkpt lat="44.07691" lon="6.93987">
        <ele>1768.4000244141</ele>
        <time>2022-07-23T12:24:56.000Z</time>
      </trkpt>
      <trkpt lat="44.07691" lon="6.93988">
        <ele>1768</ele>
        <time>2022-07-23T12:25:08.000Z</time>
      </trkpt>
      <trkpt lat="44.07691" lon="6.93988">
        <ele>1768.5999755859</ele>
        <time>2022-07-23T12:25:19.000Z</time>
      </trkpt>
      <trkpt lat="44.07691" lon="6.93987">
        <ele>1768.8000488281</ele>
        <time>2022-07-23T12:25:24.000Z</time>
      </trkpt>
      <trkpt lat="44.07691" lon="6.93987">
        <ele>1768.8000488281</ele>
        <time>2022-07-23T12:25:26.000Z</time>
      </trkpt>
      <trkpt lat="44.0769" lon="6.93991">
        <ele>1768.4000244141</ele>
        <time>2022-07-23T12:25:31.000Z</time>
      </trkpt>
      <trkpt lat="44.07691" lon="6.9399">
        <ele>1768.8000488281</ele>
        <time>2022-07-23T12:25:37.000Z</time>
      </trkpt>
      <trkpt lat="44.0769" lon="6.93988">
        <ele>1768.4000244141</ele>
        <time>2022-07-23T12:25:44.000Z</time>
      </trkpt>
      <trkpt lat="44.07689" lon="6.9399">
        <ele>1769</ele>
        <time>2022-07-23T12:25:52.000Z</time>
      </trkpt>
      <trkpt lat="44.0769" lon="6.9399">
        <ele>1769.1999511719</ele>
        <time>2022-07-23T12:26:01.000Z</time>
      </trkpt>
      <trkpt lat="44.0769" lon="6.93989">
        <ele>1769.1999511719</ele>
        <time>2022-07-23T12:26:08.000Z</time>
      </trkpt>
      <trkpt lat="44.0769" lon="6.93989">
        <ele>1769.5999755859</ele>
        <time>2022-07-23T12:26:16.000Z</time>
      </trkpt>
      <trkpt lat="44.0769" lon="6.93989">
        <ele>1769.1999511719</ele>
        <time>2022-07-23T12:26:22.000Z</time>
      </trkpt>
      <trkpt lat="44.0769" lon="6.9399">
        <ele>1769.5999755859</ele>
        <time>2022-07-23T12:26:29.000Z</time>
      </trkpt>
      <trkpt lat="44.07691" lon="6.93991">
        <ele>1769.5999755859</ele>
        <time>2022-07-23T12:26:33.000Z</time>
      </trkpt>
      <trkpt lat="44.07691" lon="6.93992">
        <ele>1769.5999755859</ele>
        <time>2022-07-23T12:26:34.000Z</time>
      </trkpt>
      <trkpt lat="44.07692" lon="6.94011">
        <ele>1769.1999511719</ele>
        <time>2022-07-23T12:26:38.000Z</time>
      </trkpt>
      <trkpt lat="44.07693" lon="6.94023">
        <ele>1768</ele>
        <time>2022-07-23T12:26:40.000Z</time>
      </trkpt>
      <trkpt lat="44.07694" lon="6.94032">
        <ele>1767.4000244141</ele>
        <time>2022-07-23T12:26:41.000Z</time>
      </trkpt>
      <trkpt lat="44.07693" lon="6.9404">
        <ele>1767</ele>
        <time>2022-07-23T12:26:42.000Z</time>
      </trkpt>
      <trkpt lat="44.07699" lon="6.94049">
        <ele>1767</ele>
        <time>2022-07-23T12:26:45.000Z</time>
      </trkpt>
      <trkpt lat="44.07705" lon="6.94056">
        <ele>1766</ele>
        <time>2022-07-23T12:26:47.000Z</time>
      </trkpt>
      <trkpt lat="44.07704" lon="6.94062">
        <ele>1765.4000244141</ele>
        <time>2022-07-23T12:26:48.000Z</time>
      </trkpt>
      <trkpt lat="44.07702" lon="6.94068">
        <ele>1764.8000488281</ele>
        <time>2022-07-23T12:26:49.000Z</time>
      </trkpt>
      <trkpt lat="44.07705" lon="6.94077">
        <ele>1763.5999755859</ele>
        <time>2022-07-23T12:26:51.000Z</time>
      </trkpt>
      <trkpt lat="44.07707" lon="6.94091">
        <ele>1762</ele>
        <time>2022-07-23T12:26:53.000Z</time>
      </trkpt>
      <trkpt lat="44.07707" lon="6.94099">
        <ele>1761.4000244141</ele>
        <time>2022-07-23T12:26:54.000Z</time>
      </trkpt>
      <trkpt lat="44.07707" lon="6.94104">
        <ele>1760.1999511719</ele>
        <time>2022-07-23T12:26:55.000Z</time>
      </trkpt>
      <trkpt lat="44.07709" lon="6.94108">
        <ele>1760.1999511719</ele>
        <time>2022-07-23T12:26:56.000Z</time>
      </trkpt>
      <trkpt lat="44.07711" lon="6.94109">
        <ele>1760</ele>
        <time>2022-07-23T12:26:57.000Z</time>
      </trkpt>
      <trkpt lat="44.07716" lon="6.94112">
        <ele>1758.4000244141</ele>
        <time>2022-07-23T12:26:59.000Z</time>
      </trkpt>
      <trkpt lat="44.07717" lon="6.94117">
        <ele>1757.5999755859</ele>
        <time>2022-07-23T12:27:00.000Z</time>
      </trkpt>
      <trkpt lat="44.07716" lon="6.94123">
        <ele>1756.1999511719</ele>
        <time>2022-07-23T12:27:01.000Z</time>
      </trkpt>
      <trkpt lat="44.07715" lon="6.94127">
        <ele>1755</ele>
        <time>2022-07-23T12:27:02.000Z</time>
      </trkpt>
      <trkpt lat="44.07714" lon="6.9413">
        <ele>1754.1999511719</ele>
        <time>2022-07-23T12:27:03.000Z</time>
      </trkpt>
      <trkpt lat="44.07715" lon="6.94131">
        <ele>1753.8000488281</ele>
        <time>2022-07-23T12:27:04.000Z</time>
      </trkpt>
      <trkpt lat="44.07719" lon="6.94127">
        <ele>1753.4000244141</ele>
        <time>2022-07-23T12:27:06.000Z</time>
      </trkpt>
      <trkpt lat="44.07721" lon="6.94125">
        <ele>1752.8000488281</ele>
        <time>2022-07-23T12:27:07.000Z</time>
      </trkpt>
      <trkpt lat="44.07724" lon="6.94131">
        <ele>1751.5999755859</ele>
        <time>2022-07-23T12:27:09.000Z</time>
      </trkpt>
      <trkpt lat="44.07725" lon="6.94147">
        <ele>1749.8000488281</ele>
        <time>2022-07-23T12:27:11.000Z</time>
      </trkpt>
      <trkpt lat="44.07726" lon="6.94155">
        <ele>1749.1999511719</ele>
        <time>2022-07-23T12:27:12.000Z</time>
      </trkpt>
      <trkpt lat="44.07728" lon="6.94163">
        <ele>1748</ele>
        <time>2022-07-23T12:27:13.000Z</time>
      </trkpt>
      <trkpt lat="44.0773" lon="6.94169">
        <ele>1746.8000488281</ele>
        <time>2022-07-23T12:27:14.000Z</time>
      </trkpt>
      <trkpt lat="44.07732" lon="6.94175">
        <ele>1746.4000244141</ele>
        <time>2022-07-23T12:27:15.000Z</time>
      </trkpt>
      <trkpt lat="44.07732" lon="6.94183">
        <ele>1745.5999755859</ele>
        <time>2022-07-23T12:27:16.000Z</time>
      </trkpt>
      <trkpt lat="44.07731" lon="6.94189">
        <ele>1744.5999755859</ele>
        <time>2022-07-23T12:27:17.000Z</time>
      </trkpt>
      <trkpt lat="44.07731" lon="6.9419">
        <ele>1744.1999511719</ele>
        <time>2022-07-23T12:27:18.000Z</time>
      </trkpt>
      <trkpt lat="44.07732" lon="6.94189">
        <ele>1743</ele>
        <time>2022-07-23T12:27:19.000Z</time>
      </trkpt>
      <trkpt lat="44.07735" lon="6.94189">
        <ele>1741.4000244141</ele>
        <time>2022-07-23T12:27:20.000Z</time>
      </trkpt>
      <trkpt lat="44.07737" lon="6.94191">
        <ele>1739.5999755859</ele>
        <time>2022-07-23T12:27:21.000Z</time>
      </trkpt>
      <trkpt lat="44.07738" lon="6.94198">
        <ele>1738</ele>
        <time>2022-07-23T12:27:22.000Z</time>
      </trkpt>
      <trkpt lat="44.07739" lon="6.94205">
        <ele>1737</ele>
        <time>2022-07-23T12:27:23.000Z</time>
      </trkpt>
      <trkpt lat="44.07741" lon="6.94211">
        <ele>1735.8000488281</ele>
        <time>2022-07-23T12:27:24.000Z</time>
      </trkpt>
      <trkpt lat="44.07743" lon="6.94219">
        <ele>1734.8000488281</ele>
        <time>2022-07-23T12:27:25.000Z</time>
      </trkpt>
      <trkpt lat="44.07746" lon="6.94235">
        <ele>1733.1999511719</ele>
        <time>2022-07-23T12:27:27.000Z</time>
      </trkpt>
      <trkpt lat="44.07747" lon="6.94243">
        <ele>1732.1999511719</ele>
        <time>2022-07-23T12:27:28.000Z</time>
      </trkpt>
      <trkpt lat="44.07749" lon="6.9425">
        <ele>1729.8000488281</ele>
        <time>2022-07-23T12:27:30.000Z</time>
      </trkpt>
      <trkpt lat="44.07751" lon="6.94248">
        <ele>1728.8000488281</ele>
        <time>2022-07-23T12:27:31.000Z</time>
      </trkpt>
      <trkpt lat="44.07756" lon="6.94241">
        <ele>1727.5999755859</ele>
        <time>2022-07-23T12:27:33.000Z</time>
      </trkpt>
      <trkpt lat="44.07761" lon="6.94246">
        <ele>1726.4000244141</ele>
        <time>2022-07-23T12:27:35.000Z</time>
      </trkpt>
      <trkpt lat="44.07764" lon="6.94261">
        <ele>1724.8000488281</ele>
        <time>2022-07-23T12:27:37.000Z</time>
      </trkpt>
      <trkpt lat="44.07765" lon="6.9427">
        <ele>1723.4000244141</ele>
        <time>2022-07-23T12:27:38.000Z</time>
      </trkpt>
      <trkpt lat="44.07768" lon="6.94278">
        <ele>1721.8000488281</ele>
        <time>2022-07-23T12:27:39.000Z</time>
      </trkpt>
      <trkpt lat="44.07769" lon="6.94288">
        <ele>1720.4000244141</ele>
        <time>2022-07-23T12:27:40.000Z</time>
      </trkpt>
      <trkpt lat="44.07771" lon="6.94298">
        <ele>1718.8000488281</ele>
        <time>2022-07-23T12:27:41.000Z</time>
      </trkpt>
      <trkpt lat="44.07772" lon="6.94308">
        <ele>1717.1999511719</ele>
        <time>2022-07-23T12:27:42.000Z</time>
      </trkpt>
      <trkpt lat="44.07772" lon="6.94318">
        <ele>1715.5999755859</ele>
        <time>2022-07-23T12:27:43.000Z</time>
      </trkpt>
      <trkpt lat="44.07771" lon="6.94337">
        <ele>1713.4000244141</ele>
        <time>2022-07-23T12:27:45.000Z</time>
      </trkpt>
      <trkpt lat="44.07769" lon="6.94347">
        <ele>1712.1999511719</ele>
        <time>2022-07-23T12:27:46.000Z</time>
      </trkpt>
      <trkpt lat="44.07767" lon="6.94353">
        <ele>1711.4000244141</ele>
        <time>2022-07-23T12:27:47.000Z</time>
      </trkpt>
      <trkpt lat="44.07768" lon="6.94361">
        <ele>1710.8000488281</ele>
        <time>2022-07-23T12:27:48.000Z</time>
      </trkpt>
      <trkpt lat="44.07769" lon="6.94376">
        <ele>1709.5999755859</ele>
        <time>2022-07-23T12:27:50.000Z</time>
      </trkpt>
      <trkpt lat="44.07769" lon="6.94382">
        <ele>1709.8000488281</ele>
        <time>2022-07-23T12:27:51.000Z</time>
      </trkpt>
      <trkpt lat="44.07769" lon="6.94388">
        <ele>1708.5999755859</ele>
        <time>2022-07-23T12:27:52.000Z</time>
      </trkpt>
      <trkpt lat="44.07769" lon="6.94405">
        <ele>1708</ele>
        <time>2022-07-23T12:27:54.000Z</time>
      </trkpt>
      <trkpt lat="44.07771" lon="6.94411">
        <ele>1706.5999755859</ele>
        <time>2022-07-23T12:27:55.000Z</time>
      </trkpt>
      <trkpt lat="44.07771" lon="6.94423">
        <ele>1704.5999755859</ele>
        <time>2022-07-23T12:27:57.000Z</time>
      </trkpt>
      <trkpt lat="44.07774" lon="6.9443">
        <ele>1701.8000488281</ele>
        <time>2022-07-23T12:27:59.000Z</time>
      </trkpt>
      <trkpt lat="44.07777" lon="6.94433">
        <ele>1701</ele>
        <time>2022-07-23T12:28:00.000Z</time>
      </trkpt>
      <trkpt lat="44.07779" lon="6.94438">
        <ele>1699.8000488281</ele>
        <time>2022-07-23T12:28:01.000Z</time>
      </trkpt>
      <trkpt lat="44.07789" lon="6.94453">
        <ele>1698.4000244141</ele>
        <time>2022-07-23T12:28:04.000Z</time>
      </trkpt>
      <trkpt lat="44.07791" lon="6.94457">
        <ele>1698</ele>
        <time>2022-07-23T12:28:05.000Z</time>
      </trkpt>
      <trkpt lat="44.07793" lon="6.94457">
        <ele>1697.4000244141</ele>
        <time>2022-07-23T12:28:06.000Z</time>
      </trkpt>
      <trkpt lat="44.07795" lon="6.94455">
        <ele>1696.8000488281</ele>
        <time>2022-07-23T12:28:07.000Z</time>
      </trkpt>
      <trkpt lat="44.07796" lon="6.9445">
        <ele>1696</ele>
        <time>2022-07-23T12:28:09.000Z</time>
      </trkpt>
      <trkpt lat="44.07801" lon="6.94447">
        <ele>1694.5999755859</ele>
        <time>2022-07-23T12:28:11.000Z</time>
      </trkpt>
      <trkpt lat="44.07806" lon="6.9445">
        <ele>1693</ele>
        <time>2022-07-23T12:28:12.000Z</time>
      </trkpt>
      <trkpt lat="44.07809" lon="6.94455">
        <ele>1692</ele>
        <time>2022-07-23T12:28:13.000Z</time>
      </trkpt>
      <trkpt lat="44.07813" lon="6.94461">
        <ele>1690</ele>
        <time>2022-07-23T12:28:14.000Z</time>
      </trkpt>
      <trkpt lat="44.07816" lon="6.94467">
        <ele>1688.1999511719</ele>
        <time>2022-07-23T12:28:15.000Z</time>
      </trkpt>
      <trkpt lat="44.0782" lon="6.94474">
        <ele>1686.5999755859</ele>
        <time>2022-07-23T12:28:16.000Z</time>
      </trkpt>
      <trkpt lat="44.07822" lon="6.9448">
        <ele>1685.1999511719</ele>
        <time>2022-07-23T12:28:17.000Z</time>
      </trkpt>
      <trkpt lat="44.07825" lon="6.94484">
        <ele>1683.8000488281</ele>
        <time>2022-07-23T12:28:18.000Z</time>
      </trkpt>
      <trkpt lat="44.07832" lon="6.94488">
        <ele>1682.8000488281</ele>
        <time>2022-07-23T12:28:20.000Z</time>
      </trkpt>
      <trkpt lat="44.07836" lon="6.94492">
        <ele>1681.4000244141</ele>
        <time>2022-07-23T12:28:21.000Z</time>
      </trkpt>
      <trkpt lat="44.07838" lon="6.94498">
        <ele>1680.5999755859</ele>
        <time>2022-07-23T12:28:22.000Z</time>
      </trkpt>
      <trkpt lat="44.0784" lon="6.94505">
        <ele>1680</ele>
        <time>2022-07-23T12:28:23.000Z</time>
      </trkpt>
      <trkpt lat="44.07842" lon="6.94512">
        <ele>1678.1999511719</ele>
        <time>2022-07-23T12:28:24.000Z</time>
      </trkpt>
      <trkpt lat="44.07844" lon="6.94519">
        <ele>1677.4000244141</ele>
        <time>2022-07-23T12:28:25.000Z</time>
      </trkpt>
      <trkpt lat="44.07846" lon="6.94528">
        <ele>1677</ele>
        <time>2022-07-23T12:28:26.000Z</time>
      </trkpt>
      <trkpt lat="44.07849" lon="6.94542">
        <ele>1675.1999511719</ele>
        <time>2022-07-23T12:28:28.000Z</time>
      </trkpt>
      <trkpt lat="44.07855" lon="6.9457">
        <ele>1674</ele>
        <time>2022-07-23T12:28:31.000Z</time>
      </trkpt>
      <trkpt lat="44.07855" lon="6.94578">
        <ele>1673.4000244141</ele>
        <time>2022-07-23T12:28:32.000Z</time>
      </trkpt>
      <trkpt lat="44.07855" lon="6.94586">
        <ele>1673</ele>
        <time>2022-07-23T12:28:33.000Z</time>
      </trkpt>
      <trkpt lat="44.07856" lon="6.94594">
        <ele>1671.8000488281</ele>
        <time>2022-07-23T12:28:34.000Z</time>
      </trkpt>
      <trkpt lat="44.07861" lon="6.94605">
        <ele>1670.5999755859</ele>
        <time>2022-07-23T12:28:36.000Z</time>
      </trkpt>
      <trkpt lat="44.07866" lon="6.94619">
        <ele>1669.5999755859</ele>
        <time>2022-07-23T12:28:38.000Z</time>
      </trkpt>
      <trkpt lat="44.07868" lon="6.94626">
        <ele>1669.1999511719</ele>
        <time>2022-07-23T12:28:39.000Z</time>
      </trkpt>
      <trkpt lat="44.07869" lon="6.94634">
        <ele>1668.8000488281</ele>
        <time>2022-07-23T12:28:40.000Z</time>
      </trkpt>
      <trkpt lat="44.07868" lon="6.94642">
        <ele>1668.4000244141</ele>
        <time>2022-07-23T12:28:41.000Z</time>
      </trkpt>
      <trkpt lat="44.07867" lon="6.94649">
        <ele>1667</ele>
        <time>2022-07-23T12:28:42.000Z</time>
      </trkpt>
      <trkpt lat="44.07868" lon="6.9466">
        <ele>1666.4000244141</ele>
        <time>2022-07-23T12:28:44.000Z</time>
      </trkpt>
      <trkpt lat="44.07868" lon="6.94666">
        <ele>1666.1999511719</ele>
        <time>2022-07-23T12:28:45.000Z</time>
      </trkpt>
      <trkpt lat="44.07868" lon="6.94674">
        <ele>1665.5999755859</ele>
        <time>2022-07-23T12:28:46.000Z</time>
      </trkpt>
      <trkpt lat="44.07869" lon="6.94686">
        <ele>1664.8000488281</ele>
        <time>2022-07-23T12:28:48.000Z</time>
      </trkpt>
      <trkpt lat="44.0787" lon="6.94687">
        <ele>1664</ele>
        <time>2022-07-23T12:28:49.000Z</time>
      </trkpt>
      <trkpt lat="44.07872" lon="6.94686">
        <ele>1663</ele>
        <time>2022-07-23T12:28:50.000Z</time>
      </trkpt>
      <trkpt lat="44.07876" lon="6.94678">
        <ele>1661</ele>
        <time>2022-07-23T12:28:52.000Z</time>
      </trkpt>
      <trkpt lat="44.07877" lon="6.94675">
        <ele>1659.5999755859</ele>
        <time>2022-07-23T12:28:53.000Z</time>
      </trkpt>
      <trkpt lat="44.07878" lon="6.94672">
        <ele>1658.4000244141</ele>
        <time>2022-07-23T12:28:54.000Z</time>
      </trkpt>
      <trkpt lat="44.0788" lon="6.94673">
        <ele>1657.8000488281</ele>
        <time>2022-07-23T12:28:55.000Z</time>
      </trkpt>
      <trkpt lat="44.07882" lon="6.94677">
        <ele>1657.4000244141</ele>
        <time>2022-07-23T12:28:56.000Z</time>
      </trkpt>
      <trkpt lat="44.07885" lon="6.94686">
        <ele>1656.4000244141</ele>
        <time>2022-07-23T12:28:58.000Z</time>
      </trkpt>
      <trkpt lat="44.07886" lon="6.94693">
        <ele>1655.5999755859</ele>
        <time>2022-07-23T12:28:59.000Z</time>
      </trkpt>
      <trkpt lat="44.07887" lon="6.94701">
        <ele>1654.1999511719</ele>
        <time>2022-07-23T12:29:00.000Z</time>
      </trkpt>
      <trkpt lat="44.07888" lon="6.94708">
        <ele>1652.8000488281</ele>
        <time>2022-07-23T12:29:01.000Z</time>
      </trkpt>
      <trkpt lat="44.0789" lon="6.94719">
        <ele>1651.4000244141</ele>
        <time>2022-07-23T12:29:03.000Z</time>
      </trkpt>
      <trkpt lat="44.07891" lon="6.94723">
        <ele>1650.8000488281</ele>
        <time>2022-07-23T12:29:04.000Z</time>
      </trkpt>
      <trkpt lat="44.07893" lon="6.94732">
        <ele>1649.8000488281</ele>
        <time>2022-07-23T12:29:05.000Z</time>
      </trkpt>
      <trkpt lat="44.07895" lon="6.94739">
        <ele>1648.8000488281</ele>
        <time>2022-07-23T12:29:06.000Z</time>
      </trkpt>
      <trkpt lat="44.07898" lon="6.94747">
        <ele>1647.4000244141</ele>
        <time>2022-07-23T12:29:07.000Z</time>
      </trkpt>
      <trkpt lat="44.07896" lon="6.94761">
        <ele>1645</ele>
        <time>2022-07-23T12:29:09.000Z</time>
      </trkpt>
      <trkpt lat="44.07897" lon="6.94761">
        <ele>1643.5999755859</ele>
        <time>2022-07-23T12:29:10.000Z</time>
      </trkpt>
      <trkpt lat="44.079" lon="6.94758">
        <ele>1642.5999755859</ele>
        <time>2022-07-23T12:29:11.000Z</time>
      </trkpt>
      <trkpt lat="44.07903" lon="6.94748">
        <ele>1640.4000244141</ele>
        <time>2022-07-23T12:29:13.000Z</time>
      </trkpt>
      <trkpt lat="44.07906" lon="6.94748">
        <ele>1639.8000488281</ele>
        <time>2022-07-23T12:29:14.000Z</time>
      </trkpt>
      <trkpt lat="44.07911" lon="6.94755">
        <ele>1639.1999511719</ele>
        <time>2022-07-23T12:29:16.000Z</time>
      </trkpt>
      <trkpt lat="44.07914" lon="6.94763">
        <ele>1638.1999511719</ele>
        <time>2022-07-23T12:29:17.000Z</time>
      </trkpt>
      <trkpt lat="44.07917" lon="6.94771">
        <ele>1637.1999511719</ele>
        <time>2022-07-23T12:29:18.000Z</time>
      </trkpt>
      <trkpt lat="44.07919" lon="6.94779">
        <ele>1636.4000244141</ele>
        <time>2022-07-23T12:29:19.000Z</time>
      </trkpt>
      <trkpt lat="44.07922" lon="6.94788">
        <ele>1635</ele>
        <time>2022-07-23T12:29:20.000Z</time>
      </trkpt>
      <trkpt lat="44.07925" lon="6.94799">
        <ele>1633.1999511719</ele>
        <time>2022-07-23T12:29:21.000Z</time>
      </trkpt>
      <trkpt lat="44.07928" lon="6.94809">
        <ele>1632</ele>
        <time>2022-07-23T12:29:22.000Z</time>
      </trkpt>
      <trkpt lat="44.07931" lon="6.94818">
        <ele>1630.5999755859</ele>
        <time>2022-07-23T12:29:23.000Z</time>
      </trkpt>
      <trkpt lat="44.07936" lon="6.94828">
        <ele>1629.4000244141</ele>
        <time>2022-07-23T12:29:24.000Z</time>
      </trkpt>
      <trkpt lat="44.07942" lon="6.94848">
        <ele>1628</ele>
        <time>2022-07-23T12:29:26.000Z</time>
      </trkpt>
      <trkpt lat="44.07945" lon="6.94858">
        <ele>1626.8000488281</ele>
        <time>2022-07-23T12:29:27.000Z</time>
      </trkpt>
      <trkpt lat="44.07946" lon="6.94868">
        <ele>1626.4000244141</ele>
        <time>2022-07-23T12:29:28.000Z</time>
      </trkpt>
      <trkpt lat="44.07944" lon="6.94877">
        <ele>1625.5999755859</ele>
        <time>2022-07-23T12:29:29.000Z</time>
      </trkpt>
      <trkpt lat="44.07942" lon="6.94884">
        <ele>1624.5999755859</ele>
        <time>2022-07-23T12:29:30.000Z</time>
      </trkpt>
      <trkpt lat="44.07939" lon="6.94896">
        <ele>1624.4000244141</ele>
        <time>2022-07-23T12:29:32.000Z</time>
      </trkpt>
      <trkpt lat="44.07936" lon="6.94915">
        <ele>1625</ele>
        <time>2022-07-23T12:29:34.000Z</time>
      </trkpt>
      <trkpt lat="44.07932" lon="6.94935">
        <ele>1624.5999755859</ele>
        <time>2022-07-23T12:29:36.000Z</time>
      </trkpt>
      <trkpt lat="44.07926" lon="6.9496">
        <ele>1623.5999755859</ele>
        <time>2022-07-23T12:29:39.000Z</time>
      </trkpt>
      <trkpt lat="44.07927" lon="6.94968">
        <ele>1623.4000244141</ele>
        <time>2022-07-23T12:29:41.000Z</time>
      </trkpt>
      <trkpt lat="44.07928" lon="6.94972">
        <ele>1623</ele>
        <time>2022-07-23T12:29:42.000Z</time>
      </trkpt>
      <trkpt lat="44.07927" lon="6.94977">
        <ele>1622.4000244141</ele>
        <time>2022-07-23T12:29:43.000Z</time>
      </trkpt>
      <trkpt lat="44.07926" lon="6.94979">
        <ele>1620.5999755859</ele>
        <time>2022-07-23T12:29:45.000Z</time>
      </trkpt>
      <trkpt lat="44.07926" lon="6.94979">
        <ele>1620.1999511719</ele>
        <time>2022-07-23T12:29:46.000Z</time>
      </trkpt>
      <trkpt lat="44.07926" lon="6.94979">
        <ele>1619.4000244141</ele>
        <time>2022-07-23T12:29:47.000Z</time>
      </trkpt>
      <trkpt lat="44.07927" lon="6.94979">
        <ele>1618.5999755859</ele>
        <time>2022-07-23T12:30:01.000Z</time>
      </trkpt>
      <trkpt lat="44.07927" lon="6.94982">
        <ele>1618.8000488281</ele>
        <time>2022-07-23T12:30:17.000Z</time>
      </trkpt>
      <trkpt lat="44.07927" lon="6.94983">
        <ele>1619</ele>
        <time>2022-07-23T12:30:30.000Z</time>
      </trkpt>
      <trkpt lat="44.07928" lon="6.94983">
        <ele>1619</ele>
        <time>2022-07-23T12:30:37.000Z</time>
      </trkpt>
      <trkpt lat="44.07929" lon="6.94984">
        <ele>1619</ele>
        <time>2022-07-23T12:30:48.000Z</time>
      </trkpt>
      <trkpt lat="44.07929" lon="6.94987">
        <ele>1619.1999511719</ele>
        <time>2022-07-23T12:30:53.000Z</time>
      </trkpt>
      <trkpt lat="44.07931" lon="6.94992">
        <ele>1619</ele>
        <time>2022-07-23T12:30:55.000Z</time>
      </trkpt>
      <trkpt lat="44.07931" lon="6.95015">
        <ele>1618</ele>
        <time>2022-07-23T12:30:58.000Z</time>
      </trkpt>
      <trkpt lat="44.07928" lon="6.95028">
        <ele>1616.1999511719</ele>
        <time>2022-07-23T12:31:00.000Z</time>
      </trkpt>
      <trkpt lat="44.07929" lon="6.9503">
        <ele>1615.4000244141</ele>
        <time>2022-07-23T12:31:01.000Z</time>
      </trkpt>
      <trkpt lat="44.07932" lon="6.95031">
        <ele>1614</ele>
        <time>2022-07-23T12:31:02.000Z</time>
      </trkpt>
      <trkpt lat="44.0794" lon="6.95026">
        <ele>1612</ele>
        <time>2022-07-23T12:31:04.000Z</time>
      </trkpt>
      <trkpt lat="44.07944" lon="6.95036">
        <ele>1610.4000244141</ele>
        <time>2022-07-23T12:31:06.000Z</time>
      </trkpt>
      <trkpt lat="44.07942" lon="6.95054">
        <ele>1608</ele>
        <time>2022-07-23T12:31:08.000Z</time>
      </trkpt>
      <trkpt lat="44.07941" lon="6.95063">
        <ele>1606.8000488281</ele>
        <time>2022-07-23T12:31:09.000Z</time>
      </trkpt>
      <trkpt lat="44.0794" lon="6.9507">
        <ele>1605.5999755859</ele>
        <time>2022-07-23T12:31:10.000Z</time>
      </trkpt>
      <trkpt lat="44.07941" lon="6.95079">
        <ele>1604.4000244141</ele>
        <time>2022-07-23T12:31:11.000Z</time>
      </trkpt>
      <trkpt lat="44.0794" lon="6.95088">
        <ele>1603.1999511719</ele>
        <time>2022-07-23T12:31:12.000Z</time>
      </trkpt>
      <trkpt lat="44.07938" lon="6.95094">
        <ele>1602</ele>
        <time>2022-07-23T12:31:13.000Z</time>
      </trkpt>
      <trkpt lat="44.07937" lon="6.95099">
        <ele>1600.8000488281</ele>
        <time>2022-07-23T12:31:14.000Z</time>
      </trkpt>
      <trkpt lat="44.0794" lon="6.95107">
        <ele>1599.4000244141</ele>
        <time>2022-07-23T12:31:16.000Z</time>
      </trkpt>
      <trkpt lat="44.07948" lon="6.95107">
        <ele>1598</ele>
        <time>2022-07-23T12:31:18.000Z</time>
      </trkpt>
      <trkpt lat="44.0795" lon="6.95113">
        <ele>1597</ele>
        <time>2022-07-23T12:31:19.000Z</time>
      </trkpt>
      <trkpt lat="44.07951" lon="6.95121">
        <ele>1596.1999511719</ele>
        <time>2022-07-23T12:31:20.000Z</time>
      </trkpt>
      <trkpt lat="44.07952" lon="6.95127">
        <ele>1597</ele>
        <time>2022-07-23T12:31:21.000Z</time>
      </trkpt>
      <trkpt lat="44.07953" lon="6.95132">
        <ele>1595.8000488281</ele>
        <time>2022-07-23T12:31:22.000Z</time>
      </trkpt>
      <trkpt lat="44.07952" lon="6.95137">
        <ele>1594.5999755859</ele>
        <time>2022-07-23T12:31:23.000Z</time>
      </trkpt>
      <trkpt lat="44.07951" lon="6.95145">
        <ele>1593.8000488281</ele>
        <time>2022-07-23T12:31:24.000Z</time>
      </trkpt>
      <trkpt lat="44.07949" lon="6.9515">
        <ele>1592.1999511719</ele>
        <time>2022-07-23T12:31:25.000Z</time>
      </trkpt>
      <trkpt lat="44.07947" lon="6.95153">
        <ele>1591</ele>
        <time>2022-07-23T12:31:26.000Z</time>
      </trkpt>
      <trkpt lat="44.07945" lon="6.95153">
        <ele>1589.8000488281</ele>
        <time>2022-07-23T12:31:28.000Z</time>
      </trkpt>
      <trkpt lat="44.07946" lon="6.95152">
        <ele>1589</ele>
        <time>2022-07-23T12:31:34.000Z</time>
      </trkpt>
      <trkpt lat="44.07945" lon="6.95153">
        <ele>1588.8000488281</ele>
        <time>2022-07-23T12:31:35.000Z</time>
      </trkpt>
      <trkpt lat="44.07945" lon="6.95153">
        <ele>1588.8000488281</ele>
        <time>2022-07-23T12:31:37.000Z</time>
      </trkpt>
      <trkpt lat="44.07945" lon="6.95154">
        <ele>1588.8000488281</ele>
        <time>2022-07-23T12:31:41.000Z</time>
      </trkpt>
      <trkpt lat="44.07946" lon="6.95155">
        <ele>1589.4000244141</ele>
        <time>2022-07-23T12:31:48.000Z</time>
      </trkpt>
      <trkpt lat="44.07947" lon="6.95157">
        <ele>1591</ele>
        <time>2022-07-23T12:31:54.000Z</time>
      </trkpt>
      <trkpt lat="44.07947" lon="6.95158">
        <ele>1592.1999511719</ele>
        <time>2022-07-23T12:31:57.000Z</time>
      </trkpt>
      <trkpt lat="44.07947" lon="6.95157">
        <ele>1592.8000488281</ele>
        <time>2022-07-23T12:32:00.000Z</time>
      </trkpt>
      <trkpt lat="44.07949" lon="6.95155">
        <ele>1591.1999511719</ele>
        <time>2022-07-23T12:32:07.000Z</time>
      </trkpt>
      <trkpt lat="44.07949" lon="6.95155">
        <ele>1590.1999511719</ele>
        <time>2022-07-23T12:32:16.000Z</time>
      </trkpt>
      <trkpt lat="44.07949" lon="6.95154">
        <ele>1590</ele>
        <time>2022-07-23T12:32:17.000Z</time>
      </trkpt>
      <trkpt lat="44.07949" lon="6.95154">
        <ele>1589</ele>
        <time>2022-07-23T12:32:24.000Z</time>
      </trkpt>
      <trkpt lat="44.0795" lon="6.95153">
        <ele>1588</ele>
        <time>2022-07-23T12:32:31.000Z</time>
      </trkpt>
      <trkpt lat="44.0795" lon="6.95153">
        <ele>1587.8000488281</ele>
        <time>2022-07-23T12:32:32.000Z</time>
      </trkpt>
      <trkpt lat="44.0795" lon="6.95153">
        <ele>1587</ele>
        <time>2022-07-23T12:32:38.000Z</time>
      </trkpt>
      <trkpt lat="44.0795" lon="6.95153">
        <ele>1586</ele>
        <time>2022-07-23T12:32:44.000Z</time>
      </trkpt>
      <trkpt lat="44.07951" lon="6.95153">
        <ele>1585.8000488281</ele>
        <time>2022-07-23T12:32:45.000Z</time>
      </trkpt>
      <trkpt lat="44.07951" lon="6.95152">
        <ele>1585.4000244141</ele>
        <time>2022-07-23T12:32:56.000Z</time>
      </trkpt>
      <trkpt lat="44.07949" lon="6.9515">
        <ele>1585.4000244141</ele>
        <time>2022-07-23T12:33:10.000Z</time>
      </trkpt>
      <trkpt lat="44.0795" lon="6.9515">
        <ele>1585.4000244141</ele>
        <time>2022-07-23T12:33:20.000Z</time>
      </trkpt>
      <trkpt lat="44.07949" lon="6.95151">
        <ele>1585.4000244141</ele>
        <time>2022-07-23T12:33:34.000Z</time>
      </trkpt>
      <trkpt lat="44.07948" lon="6.95151">
        <ele>1585.4000244141</ele>
        <time>2022-07-23T12:33:50.000Z</time>
      </trkpt>
      <trkpt lat="44.07946" lon="6.95153">
        <ele>1585.5999755859</ele>
        <time>2022-07-23T12:34:01.000Z</time>
      </trkpt>
      <trkpt lat="44.07947" lon="6.95153">
        <ele>1585.8000488281</ele>
        <time>2022-07-23T12:34:12.000Z</time>
      </trkpt>
      <trkpt lat="44.07946" lon="6.95153">
        <ele>1585</ele>
        <time>2022-07-23T12:34:23.000Z</time>
      </trkpt>
      <trkpt lat="44.07946" lon="6.95154">
        <ele>1585.4000244141</ele>
        <time>2022-07-23T12:34:34.000Z</time>
      </trkpt>
      <trkpt lat="44.07948" lon="6.95154">
        <ele>1585.4000244141</ele>
        <time>2022-07-23T12:34:41.000Z</time>
      </trkpt>
      <trkpt lat="44.07948" lon="6.95153">
        <ele>1585.5999755859</ele>
        <time>2022-07-23T12:34:47.000Z</time>
      </trkpt>
      <trkpt lat="44.07948" lon="6.95153">
        <ele>1585.4000244141</ele>
        <time>2022-07-23T12:34:57.000Z</time>
      </trkpt>
      <trkpt lat="44.07948" lon="6.95155">
        <ele>1585.4000244141</ele>
        <time>2022-07-23T12:34:59.000Z</time>
      </trkpt>
      <trkpt lat="44.07945" lon="6.95166">
        <ele>1585.5999755859</ele>
        <time>2022-07-23T12:35:03.000Z</time>
      </trkpt>
      <trkpt lat="44.07945" lon="6.95166">
        <ele>1585.5999755859</ele>
        <time>2022-07-23T12:35:04.000Z</time>
      </trkpt>
      <trkpt lat="44.07948" lon="6.95164">
        <ele>1585.5999755859</ele>
        <time>2022-07-23T12:35:06.000Z</time>
      </trkpt>
      <trkpt lat="44.07966" lon="6.95157">
        <ele>1585.5999755859</ele>
        <time>2022-07-23T12:35:09.000Z</time>
      </trkpt>
      <trkpt lat="44.07974" lon="6.95148">
        <ele>1585.5999755859</ele>
        <time>2022-07-23T12:35:14.000Z</time>
      </trkpt>
      <trkpt lat="44.07956" lon="6.95148">
        <ele>1585.8000488281</ele>
        <time>2022-07-23T12:35:20.000Z</time>
      </trkpt>
      <trkpt lat="44.0795" lon="6.95148">
        <ele>1585.5999755859</ele>
        <time>2022-07-23T12:35:28.000Z</time>
      </trkpt>
      <trkpt lat="44.07949" lon="6.9515">
        <ele>1585.4000244141</ele>
        <time>2022-07-23T12:35:45.000Z</time>
      </trkpt>
      <trkpt lat="44.07948" lon="6.9515">
        <ele>1585.5999755859</ele>
        <time>2022-07-23T12:35:54.000Z</time>
      </trkpt>
      <trkpt lat="44.07948" lon="6.95149">
        <ele>1585.4000244141</ele>
        <time>2022-07-23T12:36:11.000Z</time>
      </trkpt>
      <trkpt lat="44.07951" lon="6.9515">
        <ele>1585.1999511719</ele>
        <time>2022-07-23T12:36:24.000Z</time>
      </trkpt>
      <trkpt lat="44.07953" lon="6.9515">
        <ele>1585.1999511719</ele>
        <time>2022-07-23T12:36:36.000Z</time>
      </trkpt>
      <trkpt lat="44.07952" lon="6.95149">
        <ele>1585.1999511719</ele>
        <time>2022-07-23T12:36:48.000Z</time>
      </trkpt>
      <trkpt lat="44.0795" lon="6.9515">
        <ele>1585.1999511719</ele>
        <time>2022-07-23T12:36:59.000Z</time>
      </trkpt>
      <trkpt lat="44.07948" lon="6.95148">
        <ele>1585</ele>
        <time>2022-07-23T12:37:17.000Z</time>
      </trkpt>
      <trkpt lat="44.07948" lon="6.95147">
        <ele>1585</ele>
        <time>2022-07-23T12:37:35.000Z</time>
      </trkpt>
      <trkpt lat="44.07947" lon="6.95147">
        <ele>1585</ele>
        <time>2022-07-23T12:37:48.000Z</time>
      </trkpt>
      <trkpt lat="44.07946" lon="6.95146">
        <ele>1584.8000488281</ele>
        <time>2022-07-23T12:37:53.000Z</time>
      </trkpt>
      <trkpt lat="44.07946" lon="6.95146">
        <ele>1584.8000488281</ele>
        <time>2022-07-23T12:37:56.000Z</time>
      </trkpt>
      <trkpt lat="44.07945" lon="6.95146">
        <ele>1585</ele>
        <time>2022-07-23T12:38:04.000Z</time>
      </trkpt>
      <trkpt lat="44.07944" lon="6.95147">
        <ele>1585.1999511719</ele>
        <time>2022-07-23T12:38:17.000Z</time>
      </trkpt>
      <trkpt lat="44.07942" lon="6.95146">
        <ele>1585</ele>
        <time>2022-07-23T12:38:27.000Z</time>
      </trkpt>
      <trkpt lat="44.07942" lon="6.95147">
        <ele>1585.5999755859</ele>
        <time>2022-07-23T12:38:39.000Z</time>
      </trkpt>
      <trkpt lat="44.07943" lon="6.95148">
        <ele>1585.4000244141</ele>
        <time>2022-07-23T12:38:54.000Z</time>
      </trkpt>
      <trkpt lat="44.07944" lon="6.95149">
        <ele>1585.5999755859</ele>
        <time>2022-07-23T12:39:09.000Z</time>
      </trkpt>
      <trkpt lat="44.07945" lon="6.95149">
        <ele>1585.4000244141</ele>
        <time>2022-07-23T12:39:19.000Z</time>
      </trkpt>
      <trkpt lat="44.07947" lon="6.95149">
        <ele>1585</ele>
        <time>2022-07-23T12:39:35.000Z</time>
      </trkpt>
      <trkpt lat="44.07947" lon="6.95148">
        <ele>1585.1999511719</ele>
        <time>2022-07-23T12:39:47.000Z</time>
      </trkpt>
      <trkpt lat="44.07947" lon="6.95148">
        <ele>1585.1999511719</ele>
        <time>2022-07-23T12:40:02.000Z</time>
      </trkpt>
      <trkpt lat="44.07948" lon="6.95149">
        <ele>1584.8000488281</ele>
        <time>2022-07-23T12:40:09.000Z</time>
      </trkpt>
      <trkpt lat="44.07949" lon="6.95148">
        <ele>1585.5999755859</ele>
        <time>2022-07-23T12:40:18.000Z</time>
      </trkpt>
      <trkpt lat="44.07949" lon="6.95149">
        <ele>1585</ele>
        <time>2022-07-23T12:40:37.000Z</time>
      </trkpt>
      <trkpt lat="44.07948" lon="6.95153">
        <ele>1585</ele>
        <time>2022-07-23T12:40:45.000Z</time>
      </trkpt>
      <trkpt lat="44.07944" lon="6.95167">
        <ele>1584.8000488281</ele>
        <time>2022-07-23T12:40:50.000Z</time>
      </trkpt>
      <trkpt lat="44.07942" lon="6.9518">
        <ele>1583.4000244141</ele>
        <time>2022-07-23T12:40:53.000Z</time>
      </trkpt>
      <trkpt lat="44.07939" lon="6.95185">
        <ele>1582.4000244141</ele>
        <time>2022-07-23T12:40:55.000Z</time>
      </trkpt>
      <trkpt lat="44.07936" lon="6.95187">
        <ele>1582.5999755859</ele>
        <time>2022-07-23T12:40:57.000Z</time>
      </trkpt>
      <trkpt lat="44.07932" lon="6.95186">
        <ele>1583.5999755859</ele>
        <time>2022-07-23T12:40:59.000Z</time>
      </trkpt>
      <trkpt lat="44.07929" lon="6.95184">
        <ele>1584.4000244141</ele>
        <time>2022-07-23T12:41:01.000Z</time>
      </trkpt>
      <trkpt lat="44.07927" lon="6.95183">
        <ele>1585</ele>
        <time>2022-07-23T12:41:02.000Z</time>
      </trkpt>
      <trkpt lat="44.07925" lon="6.95183">
        <ele>1585.4000244141</ele>
        <time>2022-07-23T12:41:03.000Z</time>
      </trkpt>
      <trkpt lat="44.07924" lon="6.95183">
        <ele>1585.8000488281</ele>
        <time>2022-07-23T12:41:04.000Z</time>
      </trkpt>
      <trkpt lat="44.07922" lon="6.95185">
        <ele>1586.1999511719</ele>
        <time>2022-07-23T12:41:05.000Z</time>
      </trkpt>
      <trkpt lat="44.07921" lon="6.95186">
        <ele>1586.5999755859</ele>
        <time>2022-07-23T12:41:06.000Z</time>
      </trkpt>
      <trkpt lat="44.07918" lon="6.9519">
        <ele>1587.8000488281</ele>
        <time>2022-07-23T12:41:08.000Z</time>
      </trkpt>
      <trkpt lat="44.07917" lon="6.95195">
        <ele>1589</ele>
        <time>2022-07-23T12:41:10.000Z</time>
      </trkpt>
      <trkpt lat="44.07913" lon="6.95199">
        <ele>1590.4000244141</ele>
        <time>2022-07-23T12:41:12.000Z</time>
      </trkpt>
      <trkpt lat="44.0791" lon="6.95201">
        <ele>1592</ele>
        <time>2022-07-23T12:41:14.000Z</time>
      </trkpt>
      <trkpt lat="44.07908" lon="6.95204">
        <ele>1593.1999511719</ele>
        <time>2022-07-23T12:41:16.000Z</time>
      </trkpt>
      <trkpt lat="44.07905" lon="6.95208">
        <ele>1594.1999511719</ele>
        <time>2022-07-23T12:41:18.000Z</time>
      </trkpt>
      <trkpt lat="44.07903" lon="6.9521">
        <ele>1595.1999511719</ele>
        <time>2022-07-23T12:41:20.000Z</time>
      </trkpt>
      <trkpt lat="44.07902" lon="6.95212">
        <ele>1595.4000244141</ele>
        <time>2022-07-23T12:41:21.000Z</time>
      </trkpt>
      <trkpt lat="44.07894" lon="6.95218">
        <ele>1596.4000244141</ele>
        <time>2022-07-23T12:41:26.000Z</time>
      </trkpt>
      <trkpt lat="44.07889" lon="6.95223">
        <ele>1597.1999511719</ele>
        <time>2022-07-23T12:41:30.000Z</time>
      </trkpt>
      <trkpt lat="44.07887" lon="6.95224">
        <ele>1597.5999755859</ele>
        <time>2022-07-23T12:41:31.000Z</time>
      </trkpt>
      <trkpt lat="44.07883" lon="6.95224">
        <ele>1598.1999511719</ele>
        <time>2022-07-23T12:41:33.000Z</time>
      </trkpt>
      <trkpt lat="44.07881" lon="6.95227">
        <ele>1598.8000488281</ele>
        <time>2022-07-23T12:41:35.000Z</time>
      </trkpt>
      <trkpt lat="44.07878" lon="6.95233">
        <ele>1599.5999755859</ele>
        <time>2022-07-23T12:41:38.000Z</time>
      </trkpt>
      <trkpt lat="44.07877" lon="6.95234">
        <ele>1599.8000488281</ele>
        <time>2022-07-23T12:41:39.000Z</time>
      </trkpt>
      <trkpt lat="44.07875" lon="6.95235">
        <ele>1600</ele>
        <time>2022-07-23T12:41:40.000Z</time>
      </trkpt>
      <trkpt lat="44.07871" lon="6.95239">
        <ele>1600.8000488281</ele>
        <time>2022-07-23T12:41:43.000Z</time>
      </trkpt>
      <trkpt lat="44.0787" lon="6.9524">
        <ele>1601.1999511719</ele>
        <time>2022-07-23T12:41:44.000Z</time>
      </trkpt>
      <trkpt lat="44.07867" lon="6.95243">
        <ele>1602</ele>
        <time>2022-07-23T12:41:46.000Z</time>
      </trkpt>
      <trkpt lat="44.07862" lon="6.95245">
        <ele>1602.4000244141</ele>
        <time>2022-07-23T12:41:49.000Z</time>
      </trkpt>
      <trkpt lat="44.07859" lon="6.95245">
        <ele>1603</ele>
        <time>2022-07-23T12:41:51.000Z</time>
      </trkpt>
      <trkpt lat="44.07854" lon="6.95244">
        <ele>1603.8000488281</ele>
        <time>2022-07-23T12:41:54.000Z</time>
      </trkpt>
      <trkpt lat="44.07853" lon="6.95242">
        <ele>1604</ele>
        <time>2022-07-23T12:41:55.000Z</time>
      </trkpt>
      <trkpt lat="44.07848" lon="6.95232">
        <ele>1605.1999511719</ele>
        <time>2022-07-23T12:42:01.000Z</time>
      </trkpt>
      <trkpt lat="44.07846" lon="6.95228">
        <ele>1605.5999755859</ele>
        <time>2022-07-23T12:42:03.000Z</time>
      </trkpt>
      <trkpt lat="44.07845" lon="6.95225">
        <ele>1606.1999511719</ele>
        <time>2022-07-23T12:42:05.000Z</time>
      </trkpt>
      <trkpt lat="44.07839" lon="6.95221">
        <ele>1607.1999511719</ele>
        <time>2022-07-23T12:42:10.000Z</time>
      </trkpt>
      <trkpt lat="44.07836" lon="6.9522">
        <ele>1607.1999511719</ele>
        <time>2022-07-23T12:42:12.000Z</time>
      </trkpt>
      <trkpt lat="44.07833" lon="6.95218">
        <ele>1607.4000244141</ele>
        <time>2022-07-23T12:42:15.000Z</time>
      </trkpt>
      <trkpt lat="44.07829" lon="6.95211">
        <ele>1608.5999755859</ele>
        <time>2022-07-23T12:42:20.000Z</time>
      </trkpt>
      <trkpt lat="44.07827" lon="6.95209">
        <ele>1609.4000244141</ele>
        <time>2022-07-23T12:42:22.000Z</time>
      </trkpt>
      <trkpt lat="44.07826" lon="6.95205">
        <ele>1609.8000488281</ele>
        <time>2022-07-23T12:42:24.000Z</time>
      </trkpt>
      <trkpt lat="44.07822" lon="6.95198">
        <ele>1610.5999755859</ele>
        <time>2022-07-23T12:42:29.000Z</time>
      </trkpt>
      <trkpt lat="44.0782" lon="6.95196">
        <ele>1610.8000488281</ele>
        <time>2022-07-23T12:42:31.000Z</time>
      </trkpt>
      <trkpt lat="44.07817" lon="6.95189">
        <ele>1611.8000488281</ele>
        <time>2022-07-23T12:42:36.000Z</time>
      </trkpt>
      <trkpt lat="44.07816" lon="6.95188">
        <ele>1612</ele>
        <time>2022-07-23T12:42:37.000Z</time>
      </trkpt>
      <trkpt lat="44.07809" lon="6.95188">
        <ele>1613</ele>
        <time>2022-07-23T12:42:42.000Z</time>
      </trkpt>
      <trkpt lat="44.07806" lon="6.95189">
        <ele>1613.4000244141</ele>
        <time>2022-07-23T12:42:44.000Z</time>
      </trkpt>
      <trkpt lat="44.07798" lon="6.95193">
        <ele>1613.4000244141</ele>
        <time>2022-07-23T12:42:49.000Z</time>
      </trkpt>
      <trkpt lat="44.07786" lon="6.95199">
        <ele>1613.5999755859</ele>
        <time>2022-07-23T12:42:56.000Z</time>
      </trkpt>
      <trkpt lat="44.0778" lon="6.95203">
        <ele>1614.1999511719</ele>
        <time>2022-07-23T12:42:59.000Z</time>
      </trkpt>
      <trkpt lat="44.07768" lon="6.95208">
        <ele>1614.5999755859</ele>
        <time>2022-07-23T12:43:03.000Z</time>
      </trkpt>
      <trkpt lat="44.07754" lon="6.95211">
        <ele>1613.8000488281</ele>
        <time>2022-07-23T12:43:08.000Z</time>
      </trkpt>
      <trkpt lat="44.07742" lon="6.95204">
        <ele>1615.1999511719</ele>
        <time>2022-07-23T12:43:14.000Z</time>
      </trkpt>
      <trkpt lat="44.0774" lon="6.95203">
        <ele>1615.8000488281</ele>
        <time>2022-07-23T12:43:15.000Z</time>
      </trkpt>
      <trkpt lat="44.07736" lon="6.952">
        <ele>1617</ele>
        <time>2022-07-23T12:43:17.000Z</time>
      </trkpt>
      <trkpt lat="44.0773" lon="6.95195">
        <ele>1618.4000244141</ele>
        <time>2022-07-23T12:43:20.000Z</time>
      </trkpt>
      <trkpt lat="44.07724" lon="6.9519">
        <ele>1618.8000488281</ele>
        <time>2022-07-23T12:43:23.000Z</time>
      </trkpt>
      <trkpt lat="44.07717" lon="6.95184">
        <ele>1619.5999755859</ele>
        <time>2022-07-23T12:43:26.000Z</time>
      </trkpt>
      <trkpt lat="44.07705" lon="6.95174">
        <ele>1620.5999755859</ele>
        <time>2022-07-23T12:43:31.000Z</time>
      </trkpt>
      <trkpt lat="44.07703" lon="6.9517">
        <ele>1620.5999755859</ele>
        <time>2022-07-23T12:43:32.000Z</time>
      </trkpt>
      <trkpt lat="44.07696" lon="6.95153">
        <ele>1621</ele>
        <time>2022-07-23T12:43:37.000Z</time>
      </trkpt>
      <trkpt lat="44.0769" lon="6.95137">
        <ele>1621.5999755859</ele>
        <time>2022-07-23T12:43:42.000Z</time>
      </trkpt>
      <trkpt lat="44.07687" lon="6.95131">
        <ele>1621.8000488281</ele>
        <time>2022-07-23T12:43:44.000Z</time>
      </trkpt>
      <trkpt lat="44.07677" lon="6.95119">
        <ele>1622.8000488281</ele>
        <time>2022-07-23T12:43:49.000Z</time>
      </trkpt>
      <trkpt lat="44.07673" lon="6.95117">
        <ele>1623</ele>
        <time>2022-07-23T12:43:51.000Z</time>
      </trkpt>
      <trkpt lat="44.07666" lon="6.95115">
        <ele>1624</ele>
        <time>2022-07-23T12:43:54.000Z</time>
      </trkpt>
      <trkpt lat="44.07655" lon="6.95111">
        <ele>1624.8000488281</ele>
        <time>2022-07-23T12:43:59.000Z</time>
      </trkpt>
      <trkpt lat="44.07651" lon="6.9511">
        <ele>1625</ele>
        <time>2022-07-23T12:44:01.000Z</time>
      </trkpt>
      <trkpt lat="44.0764" lon="6.95107">
        <ele>1626</ele>
        <time>2022-07-23T12:44:05.000Z</time>
      </trkpt>
      <trkpt lat="44.07638" lon="6.95105">
        <ele>1626.5999755859</ele>
        <time>2022-07-23T12:44:06.000Z</time>
      </trkpt>
      <trkpt lat="44.07634" lon="6.95103">
        <ele>1627.1999511719</ele>
        <time>2022-07-23T12:44:08.000Z</time>
      </trkpt>
      <trkpt lat="44.07628" lon="6.95103">
        <ele>1628.5999755859</ele>
        <time>2022-07-23T12:44:11.000Z</time>
      </trkpt>
      <trkpt lat="44.07624" lon="6.95101">
        <ele>1629.5999755859</ele>
        <time>2022-07-23T12:44:13.000Z</time>
      </trkpt>
      <trkpt lat="44.07618" lon="6.951">
        <ele>1630.8000488281</ele>
        <time>2022-07-23T12:44:16.000Z</time>
      </trkpt>
      <trkpt lat="44.07611" lon="6.95099">
        <ele>1632</ele>
        <time>2022-07-23T12:44:19.000Z</time>
      </trkpt>
      <trkpt lat="44.07609" lon="6.951">
        <ele>1632.4000244141</ele>
        <time>2022-07-23T12:44:20.000Z</time>
      </trkpt>
      <trkpt lat="44.07605" lon="6.95099">
        <ele>1633</ele>
        <time>2022-07-23T12:44:22.000Z</time>
      </trkpt>
      <trkpt lat="44.076" lon="6.95099">
        <ele>1634.1999511719</ele>
        <time>2022-07-23T12:44:24.000Z</time>
      </trkpt>
      <trkpt lat="44.07594" lon="6.951">
        <ele>1635.4000244141</ele>
        <time>2022-07-23T12:44:27.000Z</time>
      </trkpt>
      <trkpt lat="44.07588" lon="6.95101">
        <ele>1636.8000488281</ele>
        <time>2022-07-23T12:44:30.000Z</time>
      </trkpt>
      <trkpt lat="44.07582" lon="6.95102">
        <ele>1637.8000488281</ele>
        <time>2022-07-23T12:44:33.000Z</time>
      </trkpt>
      <trkpt lat="44.07574" lon="6.95103">
        <ele>1639</ele>
        <time>2022-07-23T12:44:37.000Z</time>
      </trkpt>
      <trkpt lat="44.07572" lon="6.95103">
        <ele>1639.4000244141</ele>
        <time>2022-07-23T12:44:38.000Z</time>
      </trkpt>
      <trkpt lat="44.07567" lon="6.95102">
        <ele>1640.1999511719</ele>
        <time>2022-07-23T12:44:40.000Z</time>
      </trkpt>
      <trkpt lat="44.07563" lon="6.95102">
        <ele>1641.1999511719</ele>
        <time>2022-07-23T12:44:42.000Z</time>
      </trkpt>
      <trkpt lat="44.07558" lon="6.95102">
        <ele>1642.4000244141</ele>
        <time>2022-07-23T12:44:45.000Z</time>
      </trkpt>
      <trkpt lat="44.07552" lon="6.95101">
        <ele>1644</ele>
        <time>2022-07-23T12:44:48.000Z</time>
      </trkpt>
      <trkpt lat="44.07546" lon="6.951">
        <ele>1645.1999511719</ele>
        <time>2022-07-23T12:44:51.000Z</time>
      </trkpt>
      <trkpt lat="44.0754" lon="6.95097">
        <ele>1646.8000488281</ele>
        <time>2022-07-23T12:44:54.000Z</time>
      </trkpt>
      <trkpt lat="44.07538" lon="6.95096">
        <ele>1647.8000488281</ele>
        <time>2022-07-23T12:44:56.000Z</time>
      </trkpt>
      <trkpt lat="44.07537" lon="6.95096">
        <ele>1648</ele>
        <time>2022-07-23T12:44:57.000Z</time>
      </trkpt>
      <trkpt lat="44.07532" lon="6.95093">
        <ele>1649.1999511719</ele>
        <time>2022-07-23T12:45:00.000Z</time>
      </trkpt>
      <trkpt lat="44.07529" lon="6.95091">
        <ele>1650</ele>
        <time>2022-07-23T12:45:02.000Z</time>
      </trkpt>
      <trkpt lat="44.07527" lon="6.95091">
        <ele>1650.4000244141</ele>
        <time>2022-07-23T12:45:03.000Z</time>
      </trkpt>
      <trkpt lat="44.07523" lon="6.95088">
        <ele>1651.5999755859</ele>
        <time>2022-07-23T12:45:06.000Z</time>
      </trkpt>
      <trkpt lat="44.07518" lon="6.95086">
        <ele>1652.8000488281</ele>
        <time>2022-07-23T12:45:09.000Z</time>
      </trkpt>
      <trkpt lat="44.07511" lon="6.95081">
        <ele>1653.8000488281</ele>
        <time>2022-07-23T12:45:14.000Z</time>
      </trkpt>
      <trkpt lat="44.07506" lon="6.9508">
        <ele>1654.8000488281</ele>
        <time>2022-07-23T12:45:17.000Z</time>
      </trkpt>
      <trkpt lat="44.07505" lon="6.95079">
        <ele>1655.4000244141</ele>
        <time>2022-07-23T12:45:18.000Z</time>
      </trkpt>
      <trkpt lat="44.07501" lon="6.95077">
        <ele>1656</ele>
        <time>2022-07-23T12:45:20.000Z</time>
      </trkpt>
      <trkpt lat="44.07495" lon="6.95073">
        <ele>1657.1999511719</ele>
        <time>2022-07-23T12:45:24.000Z</time>
      </trkpt>
      <trkpt lat="44.07493" lon="6.95072">
        <ele>1657.4000244141</ele>
        <time>2022-07-23T12:45:25.000Z</time>
      </trkpt>
      <trkpt lat="44.07485" lon="6.9507">
        <ele>1658.4000244141</ele>
        <time>2022-07-23T12:45:29.000Z</time>
      </trkpt>
      <trkpt lat="44.0748" lon="6.9507">
        <ele>1659.1999511719</ele>
        <time>2022-07-23T12:45:32.000Z</time>
      </trkpt>
      <trkpt lat="44.07478" lon="6.9507">
        <ele>1659.5999755859</ele>
        <time>2022-07-23T12:45:33.000Z</time>
      </trkpt>
      <trkpt lat="44.07472" lon="6.9507">
        <ele>1660.8000488281</ele>
        <time>2022-07-23T12:45:36.000Z</time>
      </trkpt>
      <trkpt lat="44.07465" lon="6.95072">
        <ele>1661.8000488281</ele>
        <time>2022-07-23T12:45:40.000Z</time>
      </trkpt>
      <trkpt lat="44.07458" lon="6.95077">
        <ele>1663</ele>
        <time>2022-07-23T12:45:44.000Z</time>
      </trkpt>
      <trkpt lat="44.07452" lon="6.95082">
        <ele>1664.5999755859</ele>
        <time>2022-07-23T12:45:47.000Z</time>
      </trkpt>
      <trkpt lat="44.07445" lon="6.95084">
        <ele>1666</ele>
        <time>2022-07-23T12:45:50.000Z</time>
      </trkpt>
      <trkpt lat="44.07439" lon="6.95086">
        <ele>1667.4000244141</ele>
        <time>2022-07-23T12:45:53.000Z</time>
      </trkpt>
      <trkpt lat="44.07437" lon="6.95087">
        <ele>1667.8000488281</ele>
        <time>2022-07-23T12:45:54.000Z</time>
      </trkpt>
      <trkpt lat="44.07434" lon="6.95087">
        <ele>1668.5999755859</ele>
        <time>2022-07-23T12:45:56.000Z</time>
      </trkpt>
      <trkpt lat="44.07428" lon="6.95088">
        <ele>1669.8000488281</ele>
        <time>2022-07-23T12:45:59.000Z</time>
      </trkpt>
      <trkpt lat="44.07422" lon="6.95089">
        <ele>1670.8000488281</ele>
        <time>2022-07-23T12:46:02.000Z</time>
      </trkpt>
      <trkpt lat="44.0742" lon="6.95089">
        <ele>1671</ele>
        <time>2022-07-23T12:46:03.000Z</time>
      </trkpt>
      <trkpt lat="44.07412" lon="6.95088">
        <ele>1671.8000488281</ele>
        <time>2022-07-23T12:46:07.000Z</time>
      </trkpt>
      <trkpt lat="44.07407" lon="6.95085">
        <ele>1672.8000488281</ele>
        <time>2022-07-23T12:46:10.000Z</time>
      </trkpt>
      <trkpt lat="44.074" lon="6.9508">
        <ele>1673.8000488281</ele>
        <time>2022-07-23T12:46:14.000Z</time>
      </trkpt>
      <trkpt lat="44.07397" lon="6.95075">
        <ele>1674.5999755859</ele>
        <time>2022-07-23T12:46:17.000Z</time>
      </trkpt>
      <trkpt lat="44.07394" lon="6.95072">
        <ele>1675.1999511719</ele>
        <time>2022-07-23T12:46:19.000Z</time>
      </trkpt>
      <trkpt lat="44.07389" lon="6.95062">
        <ele>1676.4000244141</ele>
        <time>2022-07-23T12:46:24.000Z</time>
      </trkpt>
      <trkpt lat="44.07385" lon="6.95056">
        <ele>1677.5999755859</ele>
        <time>2022-07-23T12:46:28.000Z</time>
      </trkpt>
      <trkpt lat="44.0738" lon="6.95049">
        <ele>1678.5999755859</ele>
        <time>2022-07-23T12:46:32.000Z</time>
      </trkpt>
      <trkpt lat="44.07375" lon="6.95041">
        <ele>1679.8000488281</ele>
        <time>2022-07-23T12:46:36.000Z</time>
      </trkpt>
      <trkpt lat="44.07372" lon="6.95038">
        <ele>1680</ele>
        <time>2022-07-23T12:46:38.000Z</time>
      </trkpt>
      <trkpt lat="44.07368" lon="6.95033">
        <ele>1680.8000488281</ele>
        <time>2022-07-23T12:46:41.000Z</time>
      </trkpt>
      <trkpt lat="44.07361" lon="6.95028">
        <ele>1681.5999755859</ele>
        <time>2022-07-23T12:46:44.000Z</time>
      </trkpt>
      <trkpt lat="44.07339" lon="6.95018">
        <ele>1682</ele>
        <time>2022-07-23T12:46:52.000Z</time>
      </trkpt>
      <trkpt lat="44.0732" lon="6.95009">
        <ele>1683</ele>
        <time>2022-07-23T12:47:00.000Z</time>
      </trkpt>
      <trkpt lat="44.07313" lon="6.95008">
        <ele>1683.8000488281</ele>
        <time>2022-07-23T12:47:06.000Z</time>
      </trkpt>
      <trkpt lat="44.07312" lon="6.95009">
        <ele>1684</ele>
        <time>2022-07-23T12:47:07.000Z</time>
      </trkpt>
      <trkpt lat="44.07312" lon="6.95018">
        <ele>1684</ele>
        <time>2022-07-23T12:47:10.000Z</time>
      </trkpt>
      <trkpt lat="44.07304" lon="6.95041">
        <ele>1683.5999755859</ele>
        <time>2022-07-23T12:47:16.000Z</time>
      </trkpt>
      <trkpt lat="44.07298" lon="6.95055">
        <ele>1682</ele>
        <time>2022-07-23T12:47:21.000Z</time>
      </trkpt>
      <trkpt lat="44.07291" lon="6.95068">
        <ele>1682.1999511719</ele>
        <time>2022-07-23T12:47:26.000Z</time>
      </trkpt>
      <trkpt lat="44.07275" lon="6.95081">
        <ele>1681.5999755859</ele>
        <time>2022-07-23T12:47:31.000Z</time>
      </trkpt>
      <trkpt lat="44.07265" lon="6.95086">
        <ele>1681.1999511719</ele>
        <time>2022-07-23T12:47:33.000Z</time>
      </trkpt>
      <trkpt lat="44.07259" lon="6.95085">
        <ele>1680.8000488281</ele>
        <time>2022-07-23T12:47:34.000Z</time>
      </trkpt>
      <trkpt lat="44.07245" lon="6.95081">
        <ele>1679.8000488281</ele>
        <time>2022-07-23T12:47:37.000Z</time>
      </trkpt>
      <trkpt lat="44.07242" lon="6.95077">
        <ele>1679.1999511719</ele>
        <time>2022-07-23T12:47:38.000Z</time>
      </trkpt>
      <trkpt lat="44.07234" lon="6.95072">
        <ele>1678</ele>
        <time>2022-07-23T12:47:40.000Z</time>
      </trkpt>
      <trkpt lat="44.0723" lon="6.9507">
        <ele>1677.4000244141</ele>
        <time>2022-07-23T12:47:41.000Z</time>
      </trkpt>
      <trkpt lat="44.07226" lon="6.95069">
        <ele>1676.5999755859</ele>
        <time>2022-07-23T12:47:42.000Z</time>
      </trkpt>
      <trkpt lat="44.07222" lon="6.95067">
        <ele>1676.4000244141</ele>
        <time>2022-07-23T12:47:43.000Z</time>
      </trkpt>
      <trkpt lat="44.07215" lon="6.95061">
        <ele>1676.1999511719</ele>
        <time>2022-07-23T12:47:45.000Z</time>
      </trkpt>
      <trkpt lat="44.07202" lon="6.95052">
        <ele>1676</ele>
        <time>2022-07-23T12:47:48.000Z</time>
      </trkpt>
      <trkpt lat="44.07177" lon="6.95037">
        <ele>1675.1999511719</ele>
        <time>2022-07-23T12:47:53.000Z</time>
      </trkpt>
      <trkpt lat="44.0717" lon="6.95032">
        <ele>1675</ele>
        <time>2022-07-23T12:47:54.000Z</time>
      </trkpt>
      <trkpt lat="44.07158" lon="6.95023">
        <ele>1674.1999511719</ele>
        <time>2022-07-23T12:47:56.000Z</time>
      </trkpt>
      <trkpt lat="44.07149" lon="6.95021">
        <ele>1673.1999511719</ele>
        <time>2022-07-23T12:47:57.000Z</time>
      </trkpt>
      <trkpt lat="44.07141" lon="6.95022">
        <ele>1671.4000244141</ele>
        <time>2022-07-23T12:47:58.000Z</time>
      </trkpt>
      <trkpt lat="44.07132" lon="6.95025">
        <ele>1669.8000488281</ele>
        <time>2022-07-23T12:47:59.000Z</time>
      </trkpt>
      <trkpt lat="44.07123" lon="6.95025">
        <ele>1668</ele>
        <time>2022-07-23T12:48:00.000Z</time>
      </trkpt>
      <trkpt lat="44.07116" lon="6.95024">
        <ele>1666</ele>
        <time>2022-07-23T12:48:01.000Z</time>
      </trkpt>
      <trkpt lat="44.07109" lon="6.95021">
        <ele>1664.1999511719</ele>
        <time>2022-07-23T12:48:02.000Z</time>
      </trkpt>
      <trkpt lat="44.071" lon="6.95007">
        <ele>1662</ele>
        <time>2022-07-23T12:48:04.000Z</time>
      </trkpt>
      <trkpt lat="44.07094" lon="6.95004">
        <ele>1660.4000244141</ele>
        <time>2022-07-23T12:48:05.000Z</time>
      </trkpt>
      <trkpt lat="44.07087" lon="6.95003">
        <ele>1659.8000488281</ele>
        <time>2022-07-23T12:48:06.000Z</time>
      </trkpt>
      <trkpt lat="44.0708" lon="6.95004">
        <ele>1658.1999511719</ele>
        <time>2022-07-23T12:48:07.000Z</time>
      </trkpt>
      <trkpt lat="44.07074" lon="6.95004">
        <ele>1656.4000244141</ele>
        <time>2022-07-23T12:48:08.000Z</time>
      </trkpt>
      <trkpt lat="44.07068" lon="6.95003">
        <ele>1655.1999511719</ele>
        <time>2022-07-23T12:48:09.000Z</time>
      </trkpt>
      <trkpt lat="44.07063" lon="6.95004">
        <ele>1655</ele>
        <time>2022-07-23T12:48:10.000Z</time>
      </trkpt>
      <trkpt lat="44.07059" lon="6.95004">
        <ele>1654</ele>
        <time>2022-07-23T12:48:11.000Z</time>
      </trkpt>
      <trkpt lat="44.07041" lon="6.95006">
        <ele>1653.4000244141</ele>
        <time>2022-07-23T12:48:15.000Z</time>
      </trkpt>
      <trkpt lat="44.07029" lon="6.95005">
        <ele>1653.8000488281</ele>
        <time>2022-07-23T12:48:20.000Z</time>
      </trkpt>
      <trkpt lat="44.07029" lon="6.95005">
        <ele>1653.8000488281</ele>
        <time>2022-07-23T12:48:24.000Z</time>
      </trkpt>
      <trkpt lat="44.07026" lon="6.95004">
        <ele>1653.8000488281</ele>
        <time>2022-07-23T12:48:27.000Z</time>
      </trkpt>
      <trkpt lat="44.07024" lon="6.95003">
        <ele>1653.8000488281</ele>
        <time>2022-07-23T12:48:29.000Z</time>
      </trkpt>
      <trkpt lat="44.07015" lon="6.95001">
        <ele>1652.8000488281</ele>
        <time>2022-07-23T12:48:34.000Z</time>
      </trkpt>
      <trkpt lat="44.07014" lon="6.95002">
        <ele>1652.4000244141</ele>
        <time>2022-07-23T12:48:35.000Z</time>
      </trkpt>
      <trkpt lat="44.07011" lon="6.95017">
        <ele>1652.1999511719</ele>
        <time>2022-07-23T12:48:39.000Z</time>
      </trkpt>
      <trkpt lat="44.07001" lon="6.95044">
        <ele>1651.5999755859</ele>
        <time>2022-07-23T12:48:44.000Z</time>
      </trkpt>
      <trkpt lat="44.07" lon="6.95049">
        <ele>1651.1999511719</ele>
        <time>2022-07-23T12:48:45.000Z</time>
      </trkpt>
      <trkpt lat="44.06997" lon="6.95057">
        <ele>1650.4000244141</ele>
        <time>2022-07-23T12:48:47.000Z</time>
      </trkpt>
      <trkpt lat="44.06998" lon="6.95062">
        <ele>1650.4000244141</ele>
        <time>2022-07-23T12:48:49.000Z</time>
      </trkpt>
      <trkpt lat="44.07002" lon="6.95071">
        <ele>1651.4000244141</ele>
        <time>2022-07-23T12:48:52.000Z</time>
      </trkpt>
      <trkpt lat="44.07004" lon="6.95075">
        <ele>1652.8000488281</ele>
        <time>2022-07-23T12:48:54.000Z</time>
      </trkpt>
      <trkpt lat="44.07009" lon="6.95079">
        <ele>1654</ele>
        <time>2022-07-23T12:48:56.000Z</time>
      </trkpt>
      <trkpt lat="44.07012" lon="6.95085">
        <ele>1655</ele>
        <time>2022-07-23T12:48:58.000Z</time>
      </trkpt>
      <trkpt lat="44.07018" lon="6.95096">
        <ele>1656.4000244141</ele>
        <time>2022-07-23T12:49:02.000Z</time>
      </trkpt>
      <trkpt lat="44.07021" lon="6.951">
        <ele>1657</ele>
        <time>2022-07-23T12:49:04.000Z</time>
      </trkpt>
      <trkpt lat="44.07024" lon="6.95103">
        <ele>1657.4000244141</ele>
        <time>2022-07-23T12:49:05.000Z</time>
      </trkpt>
      <trkpt lat="44.07029" lon="6.9511">
        <ele>1658.4000244141</ele>
        <time>2022-07-23T12:49:08.000Z</time>
      </trkpt>
      <trkpt lat="44.07031" lon="6.95115">
        <ele>1659</ele>
        <time>2022-07-23T12:49:10.000Z</time>
      </trkpt>
      <trkpt lat="44.07033" lon="6.95117">
        <ele>1659.4000244141</ele>
        <time>2022-07-23T12:49:11.000Z</time>
      </trkpt>
      <trkpt lat="44.07036" lon="6.9512">
        <ele>1659.5999755859</ele>
        <time>2022-07-23T12:49:12.000Z</time>
      </trkpt>
      <trkpt lat="44.0704" lon="6.95127">
        <ele>1660.1999511719</ele>
        <time>2022-07-23T12:49:14.000Z</time>
      </trkpt>
      <trkpt lat="44.0705" lon="6.95152">
        <ele>1659.8000488281</ele>
        <time>2022-07-23T12:49:21.000Z</time>
      </trkpt>
      <trkpt lat="44.07056" lon="6.95174">
        <ele>1660.8000488281</ele>
        <time>2022-07-23T12:49:27.000Z</time>
      </trkpt>
      <trkpt lat="44.07061" lon="6.95186">
        <ele>1662</ele>
        <time>2022-07-23T12:49:31.000Z</time>
      </trkpt>
      <trkpt lat="44.07066" lon="6.95199">
        <ele>1662.8000488281</ele>
        <time>2022-07-23T12:49:35.000Z</time>
      </trkpt>
      <trkpt lat="44.07067" lon="6.95202">
        <ele>1663</ele>
        <time>2022-07-23T12:49:36.000Z</time>
      </trkpt>
      <trkpt lat="44.07069" lon="6.95213">
        <ele>1663.1999511719</ele>
        <time>2022-07-23T12:49:40.000Z</time>
      </trkpt>
      <trkpt lat="44.07071" lon="6.95227">
        <ele>1664</ele>
        <time>2022-07-23T12:49:43.000Z</time>
      </trkpt>
      <trkpt lat="44.07071" lon="6.9523">
        <ele>1664.1999511719</ele>
        <time>2022-07-23T12:49:44.000Z</time>
      </trkpt>
      <trkpt lat="44.07073" lon="6.95243">
        <ele>1665.5999755859</ele>
        <time>2022-07-23T12:49:48.000Z</time>
      </trkpt>
      <trkpt lat="44.07074" lon="6.95249">
        <ele>1666.5999755859</ele>
        <time>2022-07-23T12:49:50.000Z</time>
      </trkpt>
      <trkpt lat="44.07075" lon="6.95259">
        <ele>1667.8000488281</ele>
        <time>2022-07-23T12:49:53.000Z</time>
      </trkpt>
      <trkpt lat="44.07078" lon="6.95273">
        <ele>1669</ele>
        <time>2022-07-23T12:49:58.000Z</time>
      </trkpt>
      <trkpt lat="44.07079" lon="6.9529">
        <ele>1669.8000488281</ele>
        <time>2022-07-23T12:50:04.000Z</time>
      </trkpt>
      <trkpt lat="44.07075" lon="6.95301">
        <ele>1670</ele>
        <time>2022-07-23T12:50:08.000Z</time>
      </trkpt>
      <trkpt lat="44.07075" lon="6.95302">
        <ele>1670.5999755859</ele>
        <time>2022-07-23T12:50:09.000Z</time>
      </trkpt>
      <trkpt lat="44.07071" lon="6.95313">
        <ele>1671.1999511719</ele>
        <time>2022-07-23T12:50:13.000Z</time>
      </trkpt>
      <trkpt lat="44.07068" lon="6.95315">
        <ele>1671.1999511719</ele>
        <time>2022-07-23T12:50:14.000Z</time>
      </trkpt>
      <trkpt lat="44.07057" lon="6.95324">
        <ele>1671.5999755859</ele>
        <time>2022-07-23T12:50:19.000Z</time>
      </trkpt>
      <trkpt lat="44.07041" lon="6.95338">
        <ele>1671.8000488281</ele>
        <time>2022-07-23T12:50:25.000Z</time>
      </trkpt>
      <trkpt lat="44.07027" lon="6.95349">
        <ele>1671.8000488281</ele>
        <time>2022-07-23T12:50:31.000Z</time>
      </trkpt>
      <trkpt lat="44.07015" lon="6.95365">
        <ele>1671.8000488281</ele>
        <time>2022-07-23T12:50:36.000Z</time>
      </trkpt>
      <trkpt lat="44.06999" lon="6.95378">
        <ele>1672.4000244141</ele>
        <time>2022-07-23T12:50:42.000Z</time>
      </trkpt>
      <trkpt lat="44.06993" lon="6.95387">
        <ele>1673.4000244141</ele>
        <time>2022-07-23T12:50:45.000Z</time>
      </trkpt>
      <trkpt lat="44.06988" lon="6.95392">
        <ele>1673.8000488281</ele>
        <time>2022-07-23T12:50:47.000Z</time>
      </trkpt>
      <trkpt lat="44.06979" lon="6.95403">
        <ele>1674.5999755859</ele>
        <time>2022-07-23T12:50:51.000Z</time>
      </trkpt>
      <trkpt lat="44.06973" lon="6.95416">
        <ele>1675.8000488281</ele>
        <time>2022-07-23T12:50:54.000Z</time>
      </trkpt>
      <trkpt lat="44.0697" lon="6.95423">
        <ele>1676.4000244141</ele>
        <time>2022-07-23T12:50:56.000Z</time>
      </trkpt>
      <trkpt lat="44.06967" lon="6.9543">
        <ele>1677</ele>
        <time>2022-07-23T12:50:58.000Z</time>
      </trkpt>
      <trkpt lat="44.06965" lon="6.95438">
        <ele>1678</ele>
        <time>2022-07-23T12:51:00.000Z</time>
      </trkpt>
      <trkpt lat="44.06964" lon="6.95441">
        <ele>1678.1999511719</ele>
        <time>2022-07-23T12:51:01.000Z</time>
      </trkpt>
      <trkpt lat="44.06958" lon="6.95455">
        <ele>1679.4000244141</ele>
        <time>2022-07-23T12:51:05.000Z</time>
      </trkpt>
      <trkpt lat="44.06957" lon="6.95459">
        <ele>1679.5999755859</ele>
        <time>2022-07-23T12:51:06.000Z</time>
      </trkpt>
      <trkpt lat="44.06951" lon="6.9548">
        <ele>1679.1999511719</ele>
        <time>2022-07-23T12:51:10.000Z</time>
      </trkpt>
      <trkpt lat="44.06949" lon="6.95485">
        <ele>1679</ele>
        <time>2022-07-23T12:51:11.000Z</time>
      </trkpt>
      <trkpt lat="44.06944" lon="6.95505">
        <ele>1678</ele>
        <time>2022-07-23T12:51:14.000Z</time>
      </trkpt>
      <trkpt lat="44.06943" lon="6.9551">
        <ele>1677.5999755859</ele>
        <time>2022-07-23T12:51:15.000Z</time>
      </trkpt>
      <trkpt lat="44.06941" lon="6.95525">
        <ele>1677.1999511719</ele>
        <time>2022-07-23T12:51:17.000Z</time>
      </trkpt>
      <trkpt lat="44.06941" lon="6.95534">
        <ele>1677.1999511719</ele>
        <time>2022-07-23T12:51:18.000Z</time>
      </trkpt>
      <trkpt lat="44.06938" lon="6.95541">
        <ele>1676.5999755859</ele>
        <time>2022-07-23T12:51:19.000Z</time>
      </trkpt>
      <trkpt lat="44.06936" lon="6.95555">
        <ele>1675.1999511719</ele>
        <time>2022-07-23T12:51:21.000Z</time>
      </trkpt>
      <trkpt lat="44.06933" lon="6.95563">
        <ele>1674.4000244141</ele>
        <time>2022-07-23T12:51:22.000Z</time>
      </trkpt>
      <trkpt lat="44.06931" lon="6.95571">
        <ele>1673.8000488281</ele>
        <time>2022-07-23T12:51:23.000Z</time>
      </trkpt>
      <trkpt lat="44.06927" lon="6.95592">
        <ele>1674</ele>
        <time>2022-07-23T12:51:26.000Z</time>
      </trkpt>
      <trkpt lat="44.06923" lon="6.95624">
        <ele>1673.8000488281</ele>
        <time>2022-07-23T12:51:31.000Z</time>
      </trkpt>
      <trkpt lat="44.06918" lon="6.95645">
        <ele>1674.1999511719</ele>
        <time>2022-07-23T12:51:35.000Z</time>
      </trkpt>
      <trkpt lat="44.06906" lon="6.95658">
        <ele>1674.8000488281</ele>
        <time>2022-07-23T12:51:39.000Z</time>
      </trkpt>
      <trkpt lat="44.06898" lon="6.95673">
        <ele>1675</ele>
        <time>2022-07-23T12:51:43.000Z</time>
      </trkpt>
      <trkpt lat="44.06897" lon="6.95676">
        <ele>1675</ele>
        <time>2022-07-23T12:51:44.000Z</time>
      </trkpt>
      <trkpt lat="44.06885" lon="6.95695">
        <ele>1674.8000488281</ele>
        <time>2022-07-23T12:51:47.000Z</time>
      </trkpt>
      <trkpt lat="44.06874" lon="6.95701">
        <ele>1673.5999755859</ele>
        <time>2022-07-23T12:51:49.000Z</time>
      </trkpt>
      <trkpt lat="44.06871" lon="6.95704">
        <ele>1672.8000488281</ele>
        <time>2022-07-23T12:51:50.000Z</time>
      </trkpt>
      <trkpt lat="44.06867" lon="6.95709">
        <ele>1672.5999755859</ele>
        <time>2022-07-23T12:51:51.000Z</time>
      </trkpt>
      <trkpt lat="44.06853" lon="6.9572">
        <ele>1672</ele>
        <time>2022-07-23T12:51:54.000Z</time>
      </trkpt>
      <trkpt lat="44.06847" lon="6.95724">
        <ele>1672</ele>
        <time>2022-07-23T12:51:55.000Z</time>
      </trkpt>
      <trkpt lat="44.06836" lon="6.95733">
        <ele>1671.4000244141</ele>
        <time>2022-07-23T12:51:57.000Z</time>
      </trkpt>
      <trkpt lat="44.06828" lon="6.9574">
        <ele>1670.4000244141</ele>
        <time>2022-07-23T12:51:58.000Z</time>
      </trkpt>
      <trkpt lat="44.06821" lon="6.95748">
        <ele>1669.4000244141</ele>
        <time>2022-07-23T12:51:59.000Z</time>
      </trkpt>
      <trkpt lat="44.06816" lon="6.95755">
        <ele>1668.1999511719</ele>
        <time>2022-07-23T12:52:00.000Z</time>
      </trkpt>
      <trkpt lat="44.06809" lon="6.95762">
        <ele>1667.1999511719</ele>
        <time>2022-07-23T12:52:01.000Z</time>
      </trkpt>
      <trkpt lat="44.06803" lon="6.95767">
        <ele>1666.5999755859</ele>
        <time>2022-07-23T12:52:02.000Z</time>
      </trkpt>
      <trkpt lat="44.06797" lon="6.95772">
        <ele>1666</ele>
        <time>2022-07-23T12:52:03.000Z</time>
      </trkpt>
      <trkpt lat="44.0679" lon="6.95773">
        <ele>1665.4000244141</ele>
        <time>2022-07-23T12:52:04.000Z</time>
      </trkpt>
      <trkpt lat="44.06778" lon="6.95777">
        <ele>1665.1999511719</ele>
        <time>2022-07-23T12:52:06.000Z</time>
      </trkpt>
      <trkpt lat="44.06772" lon="6.9578">
        <ele>1664.4000244141</ele>
        <time>2022-07-23T12:52:07.000Z</time>
      </trkpt>
      <trkpt lat="44.06763" lon="6.95785">
        <ele>1664.4000244141</ele>
        <time>2022-07-23T12:52:09.000Z</time>
      </trkpt>
      <trkpt lat="44.0675" lon="6.95789">
        <ele>1665.5999755859</ele>
        <time>2022-07-23T12:52:12.000Z</time>
      </trkpt>
      <trkpt lat="44.06746" lon="6.95792">
        <ele>1666.1999511719</ele>
        <time>2022-07-23T12:52:13.000Z</time>
      </trkpt>
      <trkpt lat="44.06742" lon="6.95796">
        <ele>1666.5999755859</ele>
        <time>2022-07-23T12:52:14.000Z</time>
      </trkpt>
      <trkpt lat="44.06727" lon="6.958">
        <ele>1667.8000488281</ele>
        <time>2022-07-23T12:52:17.000Z</time>
      </trkpt>
      <trkpt lat="44.06706" lon="6.95806">
        <ele>1668.4000244141</ele>
        <time>2022-07-23T12:52:22.000Z</time>
      </trkpt>
      <trkpt lat="44.06687" lon="6.95817">
        <ele>1668.5999755859</ele>
        <time>2022-07-23T12:52:26.000Z</time>
      </trkpt>
      <trkpt lat="44.06682" lon="6.95821">
        <ele>1668.8000488281</ele>
        <time>2022-07-23T12:52:27.000Z</time>
      </trkpt>
      <trkpt lat="44.06664" lon="6.95841">
        <ele>1668.4000244141</ele>
        <time>2022-07-23T12:52:31.000Z</time>
      </trkpt>
      <trkpt lat="44.06644" lon="6.95865">
        <ele>1667.4000244141</ele>
        <time>2022-07-23T12:52:36.000Z</time>
      </trkpt>
      <trkpt lat="44.06616" lon="6.95892">
        <ele>1667.5999755859</ele>
        <time>2022-07-23T12:52:42.000Z</time>
      </trkpt>
      <trkpt lat="44.06604" lon="6.95906">
        <ele>1666.4000244141</ele>
        <time>2022-07-23T12:52:45.000Z</time>
      </trkpt>
      <trkpt lat="44.0659" lon="6.95921">
        <ele>1666</ele>
        <time>2022-07-23T12:52:48.000Z</time>
      </trkpt>
      <trkpt lat="44.06571" lon="6.95942">
        <ele>1666</ele>
        <time>2022-07-23T12:52:53.000Z</time>
      </trkpt>
      <trkpt lat="44.06554" lon="6.95969">
        <ele>1666.4000244141</ele>
        <time>2022-07-23T12:52:58.000Z</time>
      </trkpt>
      <trkpt lat="44.06537" lon="6.95981">
        <ele>1665</ele>
        <time>2022-07-23T12:53:01.000Z</time>
      </trkpt>
      <trkpt lat="44.06531" lon="6.95987">
        <ele>1664</ele>
        <time>2022-07-23T12:53:02.000Z</time>
      </trkpt>
      <trkpt lat="44.06528" lon="6.95992">
        <ele>1663</ele>
        <time>2022-07-23T12:53:03.000Z</time>
      </trkpt>
      <trkpt lat="44.06529" lon="6.95996">
        <ele>1662.4000244141</ele>
        <time>2022-07-23T12:53:04.000Z</time>
      </trkpt>
      <trkpt lat="44.06528" lon="6.96005">
        <ele>1661.4000244141</ele>
        <time>2022-07-23T12:53:07.000Z</time>
      </trkpt>
      <trkpt lat="44.06529" lon="6.96009">
        <ele>1661</ele>
        <time>2022-07-23T12:53:08.000Z</time>
      </trkpt>
      <trkpt lat="44.06529" lon="6.96013">
        <ele>1660.5999755859</ele>
        <time>2022-07-23T12:53:09.000Z</time>
      </trkpt>
      <trkpt lat="44.06527" lon="6.96016">
        <ele>1660.1999511719</ele>
        <time>2022-07-23T12:53:10.000Z</time>
      </trkpt>
      <trkpt lat="44.06524" lon="6.96024">
        <ele>1659.1999511719</ele>
        <time>2022-07-23T12:53:12.000Z</time>
      </trkpt>
      <trkpt lat="44.06517" lon="6.96031">
        <ele>1657.1999511719</ele>
        <time>2022-07-23T12:53:15.000Z</time>
      </trkpt>
      <trkpt lat="44.06517" lon="6.96031">
        <ele>1656</ele>
        <time>2022-07-23T12:53:17.000Z</time>
      </trkpt>
      <trkpt lat="44.06516" lon="6.96032">
        <ele>1655.5999755859</ele>
        <time>2022-07-23T12:53:19.000Z</time>
      </trkpt>
      <trkpt lat="44.06514" lon="6.96032">
        <ele>1656</ele>
        <time>2022-07-23T12:53:27.000Z</time>
      </trkpt>
      <trkpt lat="44.06513" lon="6.96031">
        <ele>1656.1999511719</ele>
        <time>2022-07-23T12:53:28.000Z</time>
      </trkpt>
      <trkpt lat="44.06512" lon="6.9603">
        <ele>1656.8000488281</ele>
        <time>2022-07-23T12:53:32.000Z</time>
      </trkpt>
      <trkpt lat="44.06512" lon="6.9603">
        <ele>1657.1999511719</ele>
        <time>2022-07-23T12:53:33.000Z</time>
      </trkpt>
      <trkpt lat="44.06513" lon="6.96032">
        <ele>1657.4000244141</ele>
        <time>2022-07-23T12:53:34.000Z</time>
      </trkpt>
      <trkpt lat="44.06512" lon="6.96032">
        <ele>1657.5999755859</ele>
        <time>2022-07-23T12:53:36.000Z</time>
      </trkpt>
      <trkpt lat="44.06507" lon="6.96035">
        <ele>1657.8000488281</ele>
        <time>2022-07-23T12:53:41.000Z</time>
      </trkpt>
      <trkpt lat="44.06504" lon="6.96042">
        <ele>1657.8000488281</ele>
        <time>2022-07-23T12:53:43.000Z</time>
      </trkpt>
      <trkpt lat="44.06503" lon="6.96047">
        <ele>1657.5999755859</ele>
        <time>2022-07-23T12:53:44.000Z</time>
      </trkpt>
      <trkpt lat="44.06499" lon="6.96052">
        <ele>1656.4000244141</ele>
        <time>2022-07-23T12:53:48.000Z</time>
      </trkpt>
      <trkpt lat="44.06497" lon="6.96055">
        <ele>1655.8000488281</ele>
        <time>2022-07-23T12:53:49.000Z</time>
      </trkpt>
      <trkpt lat="44.06492" lon="6.96058">
        <ele>1655</ele>
        <time>2022-07-23T12:53:51.000Z</time>
      </trkpt>
      <trkpt lat="44.0649" lon="6.96058">
        <ele>1654.4000244141</ele>
        <time>2022-07-23T12:53:52.000Z</time>
      </trkpt>
      <trkpt lat="44.0649" lon="6.96062">
        <ele>1652.8000488281</ele>
        <time>2022-07-23T12:53:54.000Z</time>
      </trkpt>
      <trkpt lat="44.06491" lon="6.96064">
        <ele>1652.4000244141</ele>
        <time>2022-07-23T12:53:55.000Z</time>
      </trkpt>
      <trkpt lat="44.06493" lon="6.96069">
        <ele>1651.4000244141</ele>
        <time>2022-07-23T12:53:57.000Z</time>
      </trkpt>
      <trkpt lat="44.06489" lon="6.96077">
        <ele>1650.8000488281</ele>
        <time>2022-07-23T12:53:59.000Z</time>
      </trkpt>
      <trkpt lat="44.0649" lon="6.9608">
        <ele>1650.4000244141</ele>
        <time>2022-07-23T12:54:00.000Z</time>
      </trkpt>
      <trkpt lat="44.06494" lon="6.96084">
        <ele>1649.4000244141</ele>
        <time>2022-07-23T12:54:02.000Z</time>
      </trkpt>
      <trkpt lat="44.0649" lon="6.96089">
        <ele>1648</ele>
        <time>2022-07-23T12:54:04.000Z</time>
      </trkpt>
      <trkpt lat="44.06487" lon="6.96091">
        <ele>1647.4000244141</ele>
        <time>2022-07-23T12:54:05.000Z</time>
      </trkpt>
      <trkpt lat="44.06485" lon="6.96097">
        <ele>1646.1999511719</ele>
        <time>2022-07-23T12:54:07.000Z</time>
      </trkpt>
      <trkpt lat="44.06483" lon="6.96105">
        <ele>1644.8000488281</ele>
        <time>2022-07-23T12:54:09.000Z</time>
      </trkpt>
      <trkpt lat="44.06485" lon="6.96111">
        <ele>1644.1999511719</ele>
        <time>2022-07-23T12:54:12.000Z</time>
      </trkpt>
      <trkpt lat="44.06489" lon="6.96115">
        <ele>1643.8000488281</ele>
        <time>2022-07-23T12:54:13.000Z</time>
      </trkpt>
      <trkpt lat="44.06489" lon="6.96118">
        <ele>1643.4000244141</ele>
        <time>2022-07-23T12:54:14.000Z</time>
      </trkpt>
      <trkpt lat="44.06487" lon="6.9612">
        <ele>1642.4000244141</ele>
        <time>2022-07-23T12:54:15.000Z</time>
      </trkpt>
      <trkpt lat="44.06482" lon="6.96122">
        <ele>1640.5999755859</ele>
        <time>2022-07-23T12:54:17.000Z</time>
      </trkpt>
      <trkpt lat="44.0648" lon="6.96122">
        <ele>1639.8000488281</ele>
        <time>2022-07-23T12:54:18.000Z</time>
      </trkpt>
      <trkpt lat="44.0648" lon="6.96122">
        <ele>1639.1999511719</ele>
        <time>2022-07-23T12:54:19.000Z</time>
      </trkpt>
      <trkpt lat="44.06478" lon="6.96124">
        <ele>1640.1999511719</ele>
        <time>2022-07-23T12:54:23.000Z</time>
      </trkpt>
      <trkpt lat="44.06478" lon="6.96124">
        <ele>1640.4000244141</ele>
        <time>2022-07-23T12:54:24.000Z</time>
      </trkpt>
      <trkpt lat="44.06478" lon="6.96125">
        <ele>1640.8000488281</ele>
        <time>2022-07-23T12:54:28.000Z</time>
      </trkpt>
      <trkpt lat="44.06476" lon="6.96137">
        <ele>1640.5999755859</ele>
        <time>2022-07-23T12:54:33.000Z</time>
      </trkpt>
      <trkpt lat="44.06473" lon="6.96141">
        <ele>1640.1999511719</ele>
        <time>2022-07-23T12:54:34.000Z</time>
      </trkpt>
      <trkpt lat="44.06471" lon="6.96146">
        <ele>1639</ele>
        <time>2022-07-23T12:54:36.000Z</time>
      </trkpt>
      <trkpt lat="44.06471" lon="6.96146">
        <ele>1637.8000488281</ele>
        <time>2022-07-23T12:54:38.000Z</time>
      </trkpt>
      <trkpt lat="44.06469" lon="6.96147">
        <ele>1637.4000244141</ele>
        <time>2022-07-23T12:54:39.000Z</time>
      </trkpt>
      <trkpt lat="44.06466" lon="6.96146">
        <ele>1639</ele>
        <time>2022-07-23T12:54:45.000Z</time>
      </trkpt>
      <trkpt lat="44.06466" lon="6.96146">
        <ele>1639.4000244141</ele>
        <time>2022-07-23T12:54:46.000Z</time>
      </trkpt>
      <trkpt lat="44.06461" lon="6.96146">
        <ele>1639.8000488281</ele>
        <time>2022-07-23T12:54:49.000Z</time>
      </trkpt>
      <trkpt lat="44.0646" lon="6.96145">
        <ele>1639.5999755859</ele>
        <time>2022-07-23T12:54:50.000Z</time>
      </trkpt>
      <trkpt lat="44.06456" lon="6.96155">
        <ele>1639</ele>
        <time>2022-07-23T12:54:53.000Z</time>
      </trkpt>
      <trkpt lat="44.06454" lon="6.9616">
        <ele>1638.5999755859</ele>
        <time>2022-07-23T12:54:54.000Z</time>
      </trkpt>
      <trkpt lat="44.06449" lon="6.96173">
        <ele>1637.5999755859</ele>
        <time>2022-07-23T12:54:56.000Z</time>
      </trkpt>
      <trkpt lat="44.06445" lon="6.96178">
        <ele>1636.8000488281</ele>
        <time>2022-07-23T12:54:57.000Z</time>
      </trkpt>
      <trkpt lat="44.06443" lon="6.96182">
        <ele>1636.1999511719</ele>
        <time>2022-07-23T12:54:58.000Z</time>
      </trkpt>
      <trkpt lat="44.06441" lon="6.96187">
        <ele>1635.4000244141</ele>
        <time>2022-07-23T12:55:00.000Z</time>
      </trkpt>
      <trkpt lat="44.06441" lon="6.9619">
        <ele>1635</ele>
        <time>2022-07-23T12:55:01.000Z</time>
      </trkpt>
      <trkpt lat="44.0644" lon="6.96196">
        <ele>1634.4000244141</ele>
        <time>2022-07-23T12:55:03.000Z</time>
      </trkpt>
      <trkpt lat="44.06439" lon="6.96199">
        <ele>1634</ele>
        <time>2022-07-23T12:55:05.000Z</time>
      </trkpt>
      <trkpt lat="44.06437" lon="6.96201">
        <ele>1634</ele>
        <time>2022-07-23T12:55:06.000Z</time>
      </trkpt>
      <trkpt lat="44.06437" lon="6.96208">
        <ele>1633.5999755859</ele>
        <time>2022-07-23T12:55:08.000Z</time>
      </trkpt>
      <trkpt lat="44.06439" lon="6.96212">
        <ele>1632.1999511719</ele>
        <time>2022-07-23T12:55:10.000Z</time>
      </trkpt>
      <trkpt lat="44.06439" lon="6.96215">
        <ele>1630.8000488281</ele>
        <time>2022-07-23T12:55:12.000Z</time>
      </trkpt>
      <trkpt lat="44.06445" lon="6.96222">
        <ele>1629.4000244141</ele>
        <time>2022-07-23T12:55:15.000Z</time>
      </trkpt>
      <trkpt lat="44.06448" lon="6.96227">
        <ele>1628</ele>
        <time>2022-07-23T12:55:17.000Z</time>
      </trkpt>
      <trkpt lat="44.0645" lon="6.9623">
        <ele>1627.1999511719</ele>
        <time>2022-07-23T12:55:18.000Z</time>
      </trkpt>
      <trkpt lat="44.06451" lon="6.96233">
        <ele>1626.4000244141</ele>
        <time>2022-07-23T12:55:19.000Z</time>
      </trkpt>
      <trkpt lat="44.06453" lon="6.96237">
        <ele>1626.1999511719</ele>
        <time>2022-07-23T12:55:20.000Z</time>
      </trkpt>
      <trkpt lat="44.06452" lon="6.96241">
        <ele>1625.4000244141</ele>
        <time>2022-07-23T12:55:21.000Z</time>
      </trkpt>
      <trkpt lat="44.06454" lon="6.96244">
        <ele>1624.8000488281</ele>
        <time>2022-07-23T12:55:22.000Z</time>
      </trkpt>
      <trkpt lat="44.06454" lon="6.9625">
        <ele>1623.1999511719</ele>
        <time>2022-07-23T12:55:24.000Z</time>
      </trkpt>
      <trkpt lat="44.06456" lon="6.96253">
        <ele>1620.8000488281</ele>
        <time>2022-07-23T12:55:26.000Z</time>
      </trkpt>
      <trkpt lat="44.06458" lon="6.96256">
        <ele>1619.8000488281</ele>
        <time>2022-07-23T12:55:27.000Z</time>
      </trkpt>
      <trkpt lat="44.06461" lon="6.96257">
        <ele>1619</ele>
        <time>2022-07-23T12:55:28.000Z</time>
      </trkpt>
      <trkpt lat="44.06464" lon="6.96258">
        <ele>1618.1999511719</ele>
        <time>2022-07-23T12:55:29.000Z</time>
      </trkpt>
      <trkpt lat="44.06466" lon="6.9626">
        <ele>1617.4000244141</ele>
        <time>2022-07-23T12:55:30.000Z</time>
      </trkpt>
      <trkpt lat="44.0647" lon="6.96258">
        <ele>1616.5999755859</ele>
        <time>2022-07-23T12:55:31.000Z</time>
      </trkpt>
      <trkpt lat="44.06475" lon="6.96252">
        <ele>1614.5999755859</ele>
        <time>2022-07-23T12:55:33.000Z</time>
      </trkpt>
      <trkpt lat="44.06477" lon="6.96247">
        <ele>1613.4000244141</ele>
        <time>2022-07-23T12:55:34.000Z</time>
      </trkpt>
      <trkpt lat="44.06478" lon="6.96243">
        <ele>1612.4000244141</ele>
        <time>2022-07-23T12:55:35.000Z</time>
      </trkpt>
      <trkpt lat="44.06479" lon="6.96241">
        <ele>1611.4000244141</ele>
        <time>2022-07-23T12:55:36.000Z</time>
      </trkpt>
      <trkpt lat="44.06482" lon="6.96238">
        <ele>1610.8000488281</ele>
        <time>2022-07-23T12:55:37.000Z</time>
      </trkpt>
      <trkpt lat="44.06488" lon="6.96236">
        <ele>1610</ele>
        <time>2022-07-23T12:55:39.000Z</time>
      </trkpt>
      <trkpt lat="44.06491" lon="6.96238">
        <ele>1610.1999511719</ele>
        <time>2022-07-23T12:55:41.000Z</time>
      </trkpt>
      <trkpt lat="44.0649" lon="6.96237">
        <ele>1609.5999755859</ele>
        <time>2022-07-23T12:55:42.000Z</time>
      </trkpt>
      <trkpt lat="44.06491" lon="6.96238">
        <ele>1608.4000244141</ele>
        <time>2022-07-23T12:55:44.000Z</time>
      </trkpt>
      <trkpt lat="44.06491" lon="6.96237">
        <ele>1607.4000244141</ele>
        <time>2022-07-23T12:55:46.000Z</time>
      </trkpt>
      <trkpt lat="44.06491" lon="6.96236">
        <ele>1607.8000488281</ele>
        <time>2022-07-23T12:55:48.000Z</time>
      </trkpt>
      <trkpt lat="44.06492" lon="6.96234">
        <ele>1608</ele>
        <time>2022-07-23T12:55:49.000Z</time>
      </trkpt>
      <trkpt lat="44.06492" lon="6.96231">
        <ele>1608.4000244141</ele>
        <time>2022-07-23T12:55:51.000Z</time>
      </trkpt>
      <trkpt lat="44.06492" lon="6.96231">
        <ele>1608.5999755859</ele>
        <time>2022-07-23T12:55:53.000Z</time>
      </trkpt>
      <trkpt lat="44.06494" lon="6.96229">
        <ele>1608.8000488281</ele>
        <time>2022-07-23T12:55:54.000Z</time>
      </trkpt>
      <trkpt lat="44.06498" lon="6.96227">
        <ele>1608.4000244141</ele>
        <time>2022-07-23T12:55:57.000Z</time>
      </trkpt>
      <trkpt lat="44.06501" lon="6.96232">
        <ele>1607.8000488281</ele>
        <time>2022-07-23T12:55:59.000Z</time>
      </trkpt>
      <trkpt lat="44.06504" lon="6.96234">
        <ele>1607.4000244141</ele>
        <time>2022-07-23T12:56:00.000Z</time>
      </trkpt>
      <trkpt lat="44.06507" lon="6.96232">
        <ele>1606.1999511719</ele>
        <time>2022-07-23T12:56:02.000Z</time>
      </trkpt>
      <trkpt lat="44.0651" lon="6.96229">
        <ele>1605.5999755859</ele>
        <time>2022-07-23T12:56:03.000Z</time>
      </trkpt>
      <trkpt lat="44.06511" lon="6.96228">
        <ele>1604.5999755859</ele>
        <time>2022-07-23T12:56:04.000Z</time>
      </trkpt>
      <trkpt lat="44.06518" lon="6.96233">
        <ele>1602.4000244141</ele>
        <time>2022-07-23T12:56:06.000Z</time>
      </trkpt>
      <trkpt lat="44.06519" lon="6.96233">
        <ele>1601.4000244141</ele>
        <time>2022-07-23T12:56:07.000Z</time>
      </trkpt>
      <trkpt lat="44.06518" lon="6.96232">
        <ele>1600.1999511719</ele>
        <time>2022-07-23T12:56:08.000Z</time>
      </trkpt>
      <trkpt lat="44.06519" lon="6.96233">
        <ele>1599.5999755859</ele>
        <time>2022-07-23T12:56:09.000Z</time>
      </trkpt>
      <trkpt lat="44.06519" lon="6.96233">
        <ele>1599.1999511719</ele>
        <time>2022-07-23T12:56:10.000Z</time>
      </trkpt>
      <trkpt lat="44.06521" lon="6.96232">
        <ele>1599.1999511719</ele>
        <time>2022-07-23T12:56:20.000Z</time>
      </trkpt>
      <trkpt lat="44.06526" lon="6.96232">
        <ele>1599.4000244141</ele>
        <time>2022-07-23T12:56:35.000Z</time>
      </trkpt>
      <trkpt lat="44.0653" lon="6.96232">
        <ele>1599.4000244141</ele>
        <time>2022-07-23T12:56:38.000Z</time>
      </trkpt>
      <trkpt lat="44.06531" lon="6.96232">
        <ele>1599.4000244141</ele>
        <time>2022-07-23T12:56:39.000Z</time>
      </trkpt>
      <trkpt lat="44.06535" lon="6.96237">
        <ele>1599</ele>
        <time>2022-07-23T12:56:42.000Z</time>
      </trkpt>
      <trkpt lat="44.06534" lon="6.96241">
        <ele>1598.5999755859</ele>
        <time>2022-07-23T12:56:43.000Z</time>
      </trkpt>
      <trkpt lat="44.06535" lon="6.96246">
        <ele>1597.8000488281</ele>
        <time>2022-07-23T12:56:45.000Z</time>
      </trkpt>
      <trkpt lat="44.06534" lon="6.96245">
        <ele>1596.5999755859</ele>
        <time>2022-07-23T12:56:47.000Z</time>
      </trkpt>
      <trkpt lat="44.06534" lon="6.96246">
        <ele>1596</ele>
        <time>2022-07-23T12:56:48.000Z</time>
      </trkpt>
      <trkpt lat="44.06534" lon="6.96246">
        <ele>1595.4000244141</ele>
        <time>2022-07-23T12:56:50.000Z</time>
      </trkpt>
      <trkpt lat="44.06534" lon="6.96246">
        <ele>1595.8000488281</ele>
        <time>2022-07-23T12:56:55.000Z</time>
      </trkpt>
      <trkpt lat="44.06532" lon="6.96249">
        <ele>1595.5999755859</ele>
        <time>2022-07-23T12:57:02.000Z</time>
      </trkpt>
      <trkpt lat="44.06531" lon="6.9625">
        <ele>1596.4000244141</ele>
        <time>2022-07-23T12:57:06.000Z</time>
      </trkpt>
      <trkpt lat="44.06531" lon="6.96249">
        <ele>1596.5999755859</ele>
        <time>2022-07-23T12:57:08.000Z</time>
      </trkpt>
      <trkpt lat="44.06531" lon="6.96248">
        <ele>1598</ele>
        <time>2022-07-23T12:57:12.000Z</time>
      </trkpt>
      <trkpt lat="44.06531" lon="6.96247">
        <ele>1596.5999755859</ele>
        <time>2022-07-23T12:57:17.000Z</time>
      </trkpt>
      <trkpt lat="44.0653" lon="6.96247">
        <ele>1597</ele>
        <time>2022-07-23T12:57:19.000Z</time>
      </trkpt>
      <trkpt lat="44.06527" lon="6.96248">
        <ele>1597.8000488281</ele>
        <time>2022-07-23T12:57:24.000Z</time>
      </trkpt>
      <trkpt lat="44.06527" lon="6.96248">
        <ele>1598</ele>
        <time>2022-07-23T12:57:26.000Z</time>
      </trkpt>
      <trkpt lat="44.06525" lon="6.9625">
        <ele>1598.4000244141</ele>
        <time>2022-07-23T12:57:31.000Z</time>
      </trkpt>
      <trkpt lat="44.06523" lon="6.96256">
        <ele>1598.1999511719</ele>
        <time>2022-07-23T12:57:33.000Z</time>
      </trkpt>
      <trkpt lat="44.06523" lon="6.9626">
        <ele>1597.4000244141</ele>
        <time>2022-07-23T12:57:37.000Z</time>
      </trkpt>
      <trkpt lat="44.06525" lon="6.9626">
        <ele>1596.4000244141</ele>
        <time>2022-07-23T12:57:39.000Z</time>
      </trkpt>
      <trkpt lat="44.06531" lon="6.96258">
        <ele>1595.5999755859</ele>
        <time>2022-07-23T12:57:41.000Z</time>
      </trkpt>
      <trkpt lat="44.06533" lon="6.96254">
        <ele>1595.1999511719</ele>
        <time>2022-07-23T12:57:42.000Z</time>
      </trkpt>
      <trkpt lat="44.06538" lon="6.9625">
        <ele>1593.8000488281</ele>
        <time>2022-07-23T12:57:44.000Z</time>
      </trkpt>
      <trkpt lat="44.0654" lon="6.96249">
        <ele>1592.4000244141</ele>
        <time>2022-07-23T12:57:46.000Z</time>
      </trkpt>
      <trkpt lat="44.06543" lon="6.96252">
        <ele>1591</ele>
        <time>2022-07-23T12:57:49.000Z</time>
      </trkpt>
      <trkpt lat="44.0654" lon="6.96258">
        <ele>1589.4000244141</ele>
        <time>2022-07-23T12:57:52.000Z</time>
      </trkpt>
      <trkpt lat="44.06539" lon="6.96262">
        <ele>1588.4000244141</ele>
        <time>2022-07-23T12:57:55.000Z</time>
      </trkpt>
      <trkpt lat="44.0654" lon="6.96266">
        <ele>1588.1999511719</ele>
        <time>2022-07-23T12:57:57.000Z</time>
      </trkpt>
      <trkpt lat="44.06537" lon="6.96278">
        <ele>1586.8000488281</ele>
        <time>2022-07-23T12:58:00.000Z</time>
      </trkpt>
      <trkpt lat="44.06537" lon="6.96287">
        <ele>1585.5999755859</ele>
        <time>2022-07-23T12:58:02.000Z</time>
      </trkpt>
      <trkpt lat="44.06537" lon="6.96298">
        <ele>1584.1999511719</ele>
        <time>2022-07-23T12:58:04.000Z</time>
      </trkpt>
      <trkpt lat="44.06539" lon="6.96305">
        <ele>1582.8000488281</ele>
        <time>2022-07-23T12:58:06.000Z</time>
      </trkpt>
      <trkpt lat="44.0654" lon="6.96309">
        <ele>1582</ele>
        <time>2022-07-23T12:58:07.000Z</time>
      </trkpt>
      <trkpt lat="44.06543" lon="6.9631">
        <ele>1581.4000244141</ele>
        <time>2022-07-23T12:58:08.000Z</time>
      </trkpt>
      <trkpt lat="44.06553" lon="6.96308">
        <ele>1580</ele>
        <time>2022-07-23T12:58:10.000Z</time>
      </trkpt>
      <trkpt lat="44.06558" lon="6.96319">
        <ele>1578.4000244141</ele>
        <time>2022-07-23T12:58:12.000Z</time>
      </trkpt>
      <trkpt lat="44.06555" lon="6.96324">
        <ele>1577.1999511719</ele>
        <time>2022-07-23T12:58:13.000Z</time>
      </trkpt>
      <trkpt lat="44.06554" lon="6.96327">
        <ele>1576.4000244141</ele>
        <time>2022-07-23T12:58:14.000Z</time>
      </trkpt>
      <trkpt lat="44.06555" lon="6.9633">
        <ele>1575.5999755859</ele>
        <time>2022-07-23T12:58:15.000Z</time>
      </trkpt>
      <trkpt lat="44.06557" lon="6.96331">
        <ele>1574.4000244141</ele>
        <time>2022-07-23T12:58:17.000Z</time>
      </trkpt>
      <trkpt lat="44.06556" lon="6.96331">
        <ele>1573.1999511719</ele>
        <time>2022-07-23T12:58:19.000Z</time>
      </trkpt>
      <trkpt lat="44.06555" lon="6.96331">
        <ele>1572.8000488281</ele>
        <time>2022-07-23T12:58:25.000Z</time>
      </trkpt>
      <trkpt lat="44.06557" lon="6.96331">
        <ele>1572.5999755859</ele>
        <time>2022-07-23T12:58:44.000Z</time>
      </trkpt>
      <trkpt lat="44.06559" lon="6.96332">
        <ele>1572.5999755859</ele>
        <time>2022-07-23T12:58:45.000Z</time>
      </trkpt>
      <trkpt lat="44.06563" lon="6.96332">
        <ele>1572</ele>
        <time>2022-07-23T12:58:48.000Z</time>
      </trkpt>
      <trkpt lat="44.06567" lon="6.9633">
        <ele>1571.5999755859</ele>
        <time>2022-07-23T12:58:49.000Z</time>
      </trkpt>
      <trkpt lat="44.06575" lon="6.96324">
        <ele>1570.1999511719</ele>
        <time>2022-07-23T12:58:51.000Z</time>
      </trkpt>
      <trkpt lat="44.06579" lon="6.96321">
        <ele>1569</ele>
        <time>2022-07-23T12:58:52.000Z</time>
      </trkpt>
      <trkpt lat="44.06584" lon="6.9632">
        <ele>1568.1999511719</ele>
        <time>2022-07-23T12:58:53.000Z</time>
      </trkpt>
      <trkpt lat="44.06589" lon="6.96316">
        <ele>1567.4000244141</ele>
        <time>2022-07-23T12:58:54.000Z</time>
      </trkpt>
      <trkpt lat="44.066" lon="6.96309">
        <ele>1566</ele>
        <time>2022-07-23T12:58:56.000Z</time>
      </trkpt>
      <trkpt lat="44.06607" lon="6.96304">
        <ele>1565.4000244141</ele>
        <time>2022-07-23T12:58:57.000Z</time>
      </trkpt>
      <trkpt lat="44.06611" lon="6.96301">
        <ele>1564.4000244141</ele>
        <time>2022-07-23T12:58:58.000Z</time>
      </trkpt>
      <trkpt lat="44.0662" lon="6.963">
        <ele>1562.8000488281</ele>
        <time>2022-07-23T12:59:00.000Z</time>
      </trkpt>
      <trkpt lat="44.06633" lon="6.96292">
        <ele>1561.1999511719</ele>
        <time>2022-07-23T12:59:03.000Z</time>
      </trkpt>
      <trkpt lat="44.06636" lon="6.96293">
        <ele>1560.4000244141</ele>
        <time>2022-07-23T12:59:04.000Z</time>
      </trkpt>
      <trkpt lat="44.06641" lon="6.96292">
        <ele>1560</ele>
        <time>2022-07-23T12:59:05.000Z</time>
      </trkpt>
      <trkpt lat="44.06643" lon="6.96287">
        <ele>1559.1999511719</ele>
        <time>2022-07-23T12:59:06.000Z</time>
      </trkpt>
      <trkpt lat="44.06645" lon="6.96285">
        <ele>1558.5999755859</ele>
        <time>2022-07-23T12:59:07.000Z</time>
      </trkpt>
      <trkpt lat="44.06659" lon="6.96287">
        <ele>1557.8000488281</ele>
        <time>2022-07-23T12:59:10.000Z</time>
      </trkpt>
      <trkpt lat="44.06663" lon="6.96284">
        <ele>1557.5999755859</ele>
        <time>2022-07-23T12:59:11.000Z</time>
      </trkpt>
      <trkpt lat="44.06677" lon="6.96278">
        <ele>1556.1999511719</ele>
        <time>2022-07-23T12:59:13.000Z</time>
      </trkpt>
      <trkpt lat="44.06682" lon="6.96275">
        <ele>1554.1999511719</ele>
        <time>2022-07-23T12:59:15.000Z</time>
      </trkpt>
      <trkpt lat="44.0668" lon="6.96276">
        <ele>1553.5999755859</ele>
        <time>2022-07-23T12:59:16.000Z</time>
      </trkpt>
      <trkpt lat="44.06681" lon="6.96275">
        <ele>1553.1999511719</ele>
        <time>2022-07-23T12:59:17.000Z</time>
      </trkpt>
      <trkpt lat="44.06678" lon="6.96277">
        <ele>1553</ele>
        <time>2022-07-23T12:59:21.000Z</time>
      </trkpt>
      <trkpt lat="44.06677" lon="6.96277">
        <ele>1553</ele>
        <time>2022-07-23T12:59:22.000Z</time>
      </trkpt>
      <trkpt lat="44.06674" lon="6.96275">
        <ele>1553.8000488281</ele>
        <time>2022-07-23T12:59:28.000Z</time>
      </trkpt>
      <trkpt lat="44.06675" lon="6.96274">
        <ele>1554</ele>
        <time>2022-07-23T12:59:34.000Z</time>
      </trkpt>
      <trkpt lat="44.06676" lon="6.96271">
        <ele>1553.8000488281</ele>
        <time>2022-07-23T12:59:39.000Z</time>
      </trkpt>
      <trkpt lat="44.0668" lon="6.96267">
        <ele>1554</ele>
        <time>2022-07-23T12:59:41.000Z</time>
      </trkpt>
      <trkpt lat="44.0669" lon="6.96254">
        <ele>1553.8000488281</ele>
        <time>2022-07-23T12:59:45.000Z</time>
      </trkpt>
      <trkpt lat="44.06695" lon="6.96254">
        <ele>1553.8000488281</ele>
        <time>2022-07-23T12:59:46.000Z</time>
      </trkpt>
      <trkpt lat="44.06705" lon="6.9625">
        <ele>1553.4000244141</ele>
        <time>2022-07-23T12:59:48.000Z</time>
      </trkpt>
      <trkpt lat="44.06707" lon="6.96245">
        <ele>1552.1999511719</ele>
        <time>2022-07-23T12:59:49.000Z</time>
      </trkpt>
      <trkpt lat="44.06715" lon="6.9624">
        <ele>1550.5999755859</ele>
        <time>2022-07-23T12:59:51.000Z</time>
      </trkpt>
      <trkpt lat="44.06717" lon="6.9624">
        <ele>1549.5999755859</ele>
        <time>2022-07-23T12:59:52.000Z</time>
      </trkpt>
      <trkpt lat="44.06726" lon="6.96235">
        <ele>1548.1999511719</ele>
        <time>2022-07-23T12:59:54.000Z</time>
      </trkpt>
      <trkpt lat="44.06731" lon="6.96233">
        <ele>1547.1999511719</ele>
        <time>2022-07-23T12:59:55.000Z</time>
      </trkpt>
      <trkpt lat="44.06735" lon="6.96231">
        <ele>1546.1999511719</ele>
        <time>2022-07-23T12:59:56.000Z</time>
      </trkpt>
      <trkpt lat="44.06741" lon="6.96231">
        <ele>1545.4000244141</ele>
        <time>2022-07-23T12:59:57.000Z</time>
      </trkpt>
      <trkpt lat="44.06745" lon="6.96229">
        <ele>1544</ele>
        <time>2022-07-23T12:59:58.000Z</time>
      </trkpt>
      <trkpt lat="44.06759" lon="6.96226">
        <ele>1542.4000244141</ele>
        <time>2022-07-23T13:00:01.000Z</time>
      </trkpt>
      <trkpt lat="44.06761" lon="6.96225">
        <ele>1541.5999755859</ele>
        <time>2022-07-23T13:00:02.000Z</time>
      </trkpt>
      <trkpt lat="44.06764" lon="6.96227">
        <ele>1541.4000244141</ele>
        <time>2022-07-23T13:00:03.000Z</time>
      </trkpt>
      <trkpt lat="44.06768" lon="6.96232">
        <ele>1540</ele>
        <time>2022-07-23T13:00:05.000Z</time>
      </trkpt>
      <trkpt lat="44.06768" lon="6.96234">
        <ele>1538.8000488281</ele>
        <time>2022-07-23T13:00:07.000Z</time>
      </trkpt>
      <trkpt lat="44.06768" lon="6.96237">
        <ele>1538</ele>
        <time>2022-07-23T13:00:08.000Z</time>
      </trkpt>
      <trkpt lat="44.06767" lon="6.96239">
        <ele>1537.4000244141</ele>
        <time>2022-07-23T13:00:09.000Z</time>
      </trkpt>
      <trkpt lat="44.06764" lon="6.96248">
        <ele>1536.4000244141</ele>
        <time>2022-07-23T13:00:11.000Z</time>
      </trkpt>
      <trkpt lat="44.06765" lon="6.96252">
        <ele>1535.8000488281</ele>
        <time>2022-07-23T13:00:12.000Z</time>
      </trkpt>
      <trkpt lat="44.06768" lon="6.9625">
        <ele>1535</ele>
        <time>2022-07-23T13:00:13.000Z</time>
      </trkpt>
      <trkpt lat="44.06771" lon="6.96253">
        <ele>1534.1999511719</ele>
        <time>2022-07-23T13:00:14.000Z</time>
      </trkpt>
      <trkpt lat="44.06771" lon="6.96256">
        <ele>1533.4000244141</ele>
        <time>2022-07-23T13:00:15.000Z</time>
      </trkpt>
      <trkpt lat="44.0677" lon="6.96261">
        <ele>1531.8000488281</ele>
        <time>2022-07-23T13:00:17.000Z</time>
      </trkpt>
      <trkpt lat="44.06774" lon="6.96269">
        <ele>1530.4000244141</ele>
        <time>2022-07-23T13:00:20.000Z</time>
      </trkpt>
      <trkpt lat="44.06775" lon="6.9627">
        <ele>1529.8000488281</ele>
        <time>2022-07-23T13:00:21.000Z</time>
      </trkpt>
      <trkpt lat="44.06775" lon="6.96272">
        <ele>1528.8000488281</ele>
        <time>2022-07-23T13:00:22.000Z</time>
      </trkpt>
      <trkpt lat="44.06774" lon="6.96278">
        <ele>1526.8000488281</ele>
        <time>2022-07-23T13:00:24.000Z</time>
      </trkpt>
      <trkpt lat="44.06773" lon="6.9628">
        <ele>1526</ele>
        <time>2022-07-23T13:00:25.000Z</time>
      </trkpt>
      <trkpt lat="44.06772" lon="6.96283">
        <ele>1525.5999755859</ele>
        <time>2022-07-23T13:00:26.000Z</time>
      </trkpt>
      <trkpt lat="44.06774" lon="6.96289">
        <ele>1524</ele>
        <time>2022-07-23T13:00:28.000Z</time>
      </trkpt>
      <trkpt lat="44.06774" lon="6.96293">
        <ele>1523.1999511719</ele>
        <time>2022-07-23T13:00:29.000Z</time>
      </trkpt>
      <trkpt lat="44.06771" lon="6.96298">
        <ele>1522.1999511719</ele>
        <time>2022-07-23T13:00:30.000Z</time>
      </trkpt>
      <trkpt lat="44.06768" lon="6.96304">
        <ele>1520.8000488281</ele>
        <time>2022-07-23T13:00:31.000Z</time>
      </trkpt>
      <trkpt lat="44.06766" lon="6.9631">
        <ele>1519.8000488281</ele>
        <time>2022-07-23T13:00:32.000Z</time>
      </trkpt>
      <trkpt lat="44.06769" lon="6.96314">
        <ele>1518.5999755859</ele>
        <time>2022-07-23T13:00:33.000Z</time>
      </trkpt>
      <trkpt lat="44.06773" lon="6.96316">
        <ele>1517</ele>
        <time>2022-07-23T13:00:34.000Z</time>
      </trkpt>
      <trkpt lat="44.06783" lon="6.96321">
        <ele>1515.5999755859</ele>
        <time>2022-07-23T13:00:36.000Z</time>
      </trkpt>
      <trkpt lat="44.06788" lon="6.96321">
        <ele>1514.8000488281</ele>
        <time>2022-07-23T13:00:37.000Z</time>
      </trkpt>
      <trkpt lat="44.06792" lon="6.9632">
        <ele>1514.1999511719</ele>
        <time>2022-07-23T13:00:38.000Z</time>
      </trkpt>
      <trkpt lat="44.06797" lon="6.96324">
        <ele>1512.8000488281</ele>
        <time>2022-07-23T13:00:40.000Z</time>
      </trkpt>
      <trkpt lat="44.06802" lon="6.96332">
        <ele>1511.1999511719</ele>
        <time>2022-07-23T13:00:42.000Z</time>
      </trkpt>
      <trkpt lat="44.06803" lon="6.96335">
        <ele>1510.5999755859</ele>
        <time>2022-07-23T13:00:43.000Z</time>
      </trkpt>
      <trkpt lat="44.06803" lon="6.96337">
        <ele>1510</ele>
        <time>2022-07-23T13:00:44.000Z</time>
      </trkpt>
      <trkpt lat="44.06805" lon="6.96341">
        <ele>1509</ele>
        <time>2022-07-23T13:00:45.000Z</time>
      </trkpt>
      <trkpt lat="44.06807" lon="6.96343">
        <ele>1508.4000244141</ele>
        <time>2022-07-23T13:00:46.000Z</time>
      </trkpt>
      <trkpt lat="44.06809" lon="6.96344">
        <ele>1507.4000244141</ele>
        <time>2022-07-23T13:00:47.000Z</time>
      </trkpt>
      <trkpt lat="44.06816" lon="6.96349">
        <ele>1505.1999511719</ele>
        <time>2022-07-23T13:00:49.000Z</time>
      </trkpt>
      <trkpt lat="44.06823" lon="6.9635">
        <ele>1504.8000488281</ele>
        <time>2022-07-23T13:00:50.000Z</time>
      </trkpt>
      <trkpt lat="44.06829" lon="6.96351">
        <ele>1503.8000488281</ele>
        <time>2022-07-23T13:00:51.000Z</time>
      </trkpt>
      <trkpt lat="44.06836" lon="6.96352">
        <ele>1503</ele>
        <time>2022-07-23T13:00:52.000Z</time>
      </trkpt>
      <trkpt lat="44.06838" lon="6.96356">
        <ele>1501.8000488281</ele>
        <time>2022-07-23T13:00:53.000Z</time>
      </trkpt>
      <trkpt lat="44.06841" lon="6.96361">
        <ele>1500.8000488281</ele>
        <time>2022-07-23T13:00:54.000Z</time>
      </trkpt>
      <trkpt lat="44.06845" lon="6.96368">
        <ele>1499.5999755859</ele>
        <time>2022-07-23T13:00:55.000Z</time>
      </trkpt>
      <trkpt lat="44.06851" lon="6.96372">
        <ele>1498.4000244141</ele>
        <time>2022-07-23T13:00:56.000Z</time>
      </trkpt>
      <trkpt lat="44.06856" lon="6.96376">
        <ele>1497</ele>
        <time>2022-07-23T13:00:57.000Z</time>
      </trkpt>
      <trkpt lat="44.06859" lon="6.96379">
        <ele>1494.5999755859</ele>
        <time>2022-07-23T13:00:58.000Z</time>
      </trkpt>
      <trkpt lat="44.0686" lon="6.96381">
        <ele>1493.1999511719</ele>
        <time>2022-07-23T13:00:59.000Z</time>
      </trkpt>
      <trkpt lat="44.06864" lon="6.96386">
        <ele>1491.4000244141</ele>
        <time>2022-07-23T13:01:00.000Z</time>
      </trkpt>
      <trkpt lat="44.06863" lon="6.96386">
        <ele>1490.4000244141</ele>
        <time>2022-07-23T13:01:01.000Z</time>
      </trkpt>
      <trkpt lat="44.06865" lon="6.96388">
        <ele>1489.1999511719</ele>
        <time>2022-07-23T13:01:02.000Z</time>
      </trkpt>
      <trkpt lat="44.06865" lon="6.96387">
        <ele>1488.4000244141</ele>
        <time>2022-07-23T13:01:03.000Z</time>
      </trkpt>
      <trkpt lat="44.06867" lon="6.96387">
        <ele>1487.1999511719</ele>
        <time>2022-07-23T13:01:04.000Z</time>
      </trkpt>
      <trkpt lat="44.06869" lon="6.96388">
        <ele>1485.8000488281</ele>
        <time>2022-07-23T13:01:05.000Z</time>
      </trkpt>
      <trkpt lat="44.0687" lon="6.9639">
        <ele>1485</ele>
        <time>2022-07-23T13:01:06.000Z</time>
      </trkpt>
      <trkpt lat="44.0687" lon="6.96393">
        <ele>1484.1999511719</ele>
        <time>2022-07-23T13:01:07.000Z</time>
      </trkpt>
      <trkpt lat="44.06868" lon="6.96396">
        <ele>1482.8000488281</ele>
        <time>2022-07-23T13:01:09.000Z</time>
      </trkpt>
      <trkpt lat="44.06866" lon="6.964">
        <ele>1482.4000244141</ele>
        <time>2022-07-23T13:01:10.000Z</time>
      </trkpt>
      <trkpt lat="44.06866" lon="6.96403">
        <ele>1481.8000488281</ele>
        <time>2022-07-23T13:01:11.000Z</time>
      </trkpt>
      <trkpt lat="44.06868" lon="6.96413">
        <ele>1480.4000244141</ele>
        <time>2022-07-23T13:01:13.000Z</time>
      </trkpt>
      <trkpt lat="44.0687" lon="6.96415">
        <ele>1479.4000244141</ele>
        <time>2022-07-23T13:01:14.000Z</time>
      </trkpt>
      <trkpt lat="44.06871" lon="6.96418">
        <ele>1478</ele>
        <time>2022-07-23T13:01:15.000Z</time>
      </trkpt>
      <trkpt lat="44.06869" lon="6.96421">
        <ele>1477.1999511719</ele>
        <time>2022-07-23T13:01:16.000Z</time>
      </trkpt>
      <trkpt lat="44.06866" lon="6.96425">
        <ele>1476</ele>
        <time>2022-07-23T13:01:17.000Z</time>
      </trkpt>
      <trkpt lat="44.06869" lon="6.96434">
        <ele>1474.5999755859</ele>
        <time>2022-07-23T13:01:20.000Z</time>
      </trkpt>
      <trkpt lat="44.0687" lon="6.96435">
        <ele>1473.4000244141</ele>
        <time>2022-07-23T13:01:21.000Z</time>
      </trkpt>
      <trkpt lat="44.06868" lon="6.96437">
        <ele>1472.1999511719</ele>
        <time>2022-07-23T13:01:22.000Z</time>
      </trkpt>
      <trkpt lat="44.06867" lon="6.96437">
        <ele>1470.8000488281</ele>
        <time>2022-07-23T13:01:23.000Z</time>
      </trkpt>
      <trkpt lat="44.06866" lon="6.96438">
        <ele>1469.5999755859</ele>
        <time>2022-07-23T13:01:24.000Z</time>
      </trkpt>
      <trkpt lat="44.06867" lon="6.96437">
        <ele>1467.5999755859</ele>
        <time>2022-07-23T13:01:25.000Z</time>
      </trkpt>
      <trkpt lat="44.06867" lon="6.96438">
        <ele>1466.1999511719</ele>
        <time>2022-07-23T13:01:26.000Z</time>
      </trkpt>
      <trkpt lat="44.06869" lon="6.9644">
        <ele>1465</ele>
        <time>2022-07-23T13:01:27.000Z</time>
      </trkpt>
      <trkpt lat="44.06872" lon="6.96443">
        <ele>1464.4000244141</ele>
        <time>2022-07-23T13:01:28.000Z</time>
      </trkpt>
      <trkpt lat="44.06872" lon="6.96445">
        <ele>1463.4000244141</ele>
        <time>2022-07-23T13:01:29.000Z</time>
      </trkpt>
      <trkpt lat="44.06874" lon="6.96449">
        <ele>1461.5999755859</ele>
        <time>2022-07-23T13:01:31.000Z</time>
      </trkpt>
      <trkpt lat="44.0687" lon="6.96451">
        <ele>1459.4000244141</ele>
        <time>2022-07-23T13:01:33.000Z</time>
      </trkpt>
      <trkpt lat="44.0687" lon="6.96452">
        <ele>1458.4000244141</ele>
        <time>2022-07-23T13:01:34.000Z</time>
      </trkpt>
      <trkpt lat="44.06873" lon="6.96456">
        <ele>1456.8000488281</ele>
        <time>2022-07-23T13:01:36.000Z</time>
      </trkpt>
      <trkpt lat="44.06869" lon="6.96458">
        <ele>1455.1999511719</ele>
        <time>2022-07-23T13:01:38.000Z</time>
      </trkpt>
      <trkpt lat="44.06864" lon="6.96459">
        <ele>1453.5999755859</ele>
        <time>2022-07-23T13:01:40.000Z</time>
      </trkpt>
      <trkpt lat="44.06858" lon="6.96457">
        <ele>1451.8000488281</ele>
        <time>2022-07-23T13:01:42.000Z</time>
      </trkpt>
      <trkpt lat="44.06856" lon="6.96454">
        <ele>1450</ele>
        <time>2022-07-23T13:01:44.000Z</time>
      </trkpt>
      <trkpt lat="44.06856" lon="6.96454">
        <ele>1448.8000488281</ele>
        <time>2022-07-23T13:01:46.000Z</time>
      </trkpt>
      <trkpt lat="44.06855" lon="6.96454">
        <ele>1447.4000244141</ele>
        <time>2022-07-23T13:01:48.000Z</time>
      </trkpt>
      <trkpt lat="44.06854" lon="6.96454">
        <ele>1446.4000244141</ele>
        <time>2022-07-23T13:01:51.000Z</time>
      </trkpt>
      <trkpt lat="44.06854" lon="6.96455">
        <ele>1446</ele>
        <time>2022-07-23T13:01:53.000Z</time>
      </trkpt>
      <trkpt lat="44.06853" lon="6.96456">
        <ele>1445</ele>
        <time>2022-07-23T13:01:56.000Z</time>
      </trkpt>
      <trkpt lat="44.06852" lon="6.96457">
        <ele>1444.8000488281</ele>
        <time>2022-07-23T13:01:58.000Z</time>
      </trkpt>
      <trkpt lat="44.0685" lon="6.96463">
        <ele>1445.4000244141</ele>
        <time>2022-07-23T13:02:04.000Z</time>
      </trkpt>
      <trkpt lat="44.06844" lon="6.96466">
        <ele>1444</ele>
        <time>2022-07-23T13:02:07.000Z</time>
      </trkpt>
      <trkpt lat="44.06844" lon="6.96468">
        <ele>1443.1999511719</ele>
        <time>2022-07-23T13:02:08.000Z</time>
      </trkpt>
      <trkpt lat="44.06844" lon="6.96469">
        <ele>1442.5999755859</ele>
        <time>2022-07-23T13:02:09.000Z</time>
      </trkpt>
      <trkpt lat="44.06843" lon="6.96473">
        <ele>1441.5999755859</ele>
        <time>2022-07-23T13:02:10.000Z</time>
      </trkpt>
      <trkpt lat="44.06841" lon="6.96475">
        <ele>1441</ele>
        <time>2022-07-23T13:02:11.000Z</time>
      </trkpt>
      <trkpt lat="44.06841" lon="6.96474">
        <ele>1440.1999511719</ele>
        <time>2022-07-23T13:02:12.000Z</time>
      </trkpt>
      <trkpt lat="44.06841" lon="6.96475">
        <ele>1439.4000244141</ele>
        <time>2022-07-23T13:02:14.000Z</time>
      </trkpt>
      <trkpt lat="44.06841" lon="6.96475">
        <ele>1439.1999511719</ele>
        <time>2022-07-23T13:02:15.000Z</time>
      </trkpt>
      <trkpt lat="44.06839" lon="6.96479">
        <ele>1439.8000488281</ele>
        <time>2022-07-23T13:02:22.000Z</time>
      </trkpt>
      <trkpt lat="44.06839" lon="6.9648">
        <ele>1440.1999511719</ele>
        <time>2022-07-23T13:02:25.000Z</time>
      </trkpt>
      <trkpt lat="44.06837" lon="6.96481">
        <ele>1440.5999755859</ele>
        <time>2022-07-23T13:02:29.000Z</time>
      </trkpt>
      <trkpt lat="44.06836" lon="6.96482">
        <ele>1441.1999511719</ele>
        <time>2022-07-23T13:02:33.000Z</time>
      </trkpt>
      <trkpt lat="44.06835" lon="6.96483">
        <ele>1442.4000244141</ele>
        <time>2022-07-23T13:02:37.000Z</time>
      </trkpt>
      <trkpt lat="44.06835" lon="6.96483">
        <ele>1442.5999755859</ele>
        <time>2022-07-23T13:02:39.000Z</time>
      </trkpt>
      <trkpt lat="44.06836" lon="6.96482">
        <ele>1443.4000244141</ele>
        <time>2022-07-23T13:02:44.000Z</time>
      </trkpt>
      <trkpt lat="44.06837" lon="6.9648">
        <ele>1444.1999511719</ele>
        <time>2022-07-23T13:02:49.000Z</time>
      </trkpt>
      <trkpt lat="44.06837" lon="6.9648">
        <ele>1444.4000244141</ele>
        <time>2022-07-23T13:02:51.000Z</time>
      </trkpt>
      <trkpt lat="44.06836" lon="6.9648">
        <ele>1445.1999511719</ele>
        <time>2022-07-23T13:02:56.000Z</time>
      </trkpt>
      <trkpt lat="44.06836" lon="6.96481">
        <ele>1445.5999755859</ele>
        <time>2022-07-23T13:02:59.000Z</time>
      </trkpt>
      <trkpt lat="44.06833" lon="6.9648">
        <ele>1445.5999755859</ele>
        <time>2022-07-23T13:03:07.000Z</time>
      </trkpt>
      <trkpt lat="44.06832" lon="6.96479">
        <ele>1445.5999755859</ele>
        <time>2022-07-23T13:03:08.000Z</time>
      </trkpt>
      <trkpt lat="44.06828" lon="6.96481">
        <ele>1445.5999755859</ele>
        <time>2022-07-23T13:03:11.000Z</time>
      </trkpt>
      <trkpt lat="44.06827" lon="6.96483">
        <ele>1445.4000244141</ele>
        <time>2022-07-23T13:03:14.000Z</time>
      </trkpt>
      <trkpt lat="44.06828" lon="6.96484">
        <ele>1444.4000244141</ele>
        <time>2022-07-23T13:03:17.000Z</time>
      </trkpt>
      <trkpt lat="44.06829" lon="6.96488">
        <ele>1443.5999755859</ele>
        <time>2022-07-23T13:03:21.000Z</time>
      </trkpt>
      <trkpt lat="44.06829" lon="6.96493">
        <ele>1443.4000244141</ele>
        <time>2022-07-23T13:03:22.000Z</time>
      </trkpt>
      <trkpt lat="44.06831" lon="6.96497">
        <ele>1443</ele>
        <time>2022-07-23T13:03:24.000Z</time>
      </trkpt>
      <trkpt lat="44.06833" lon="6.96499">
        <ele>1442</ele>
        <time>2022-07-23T13:03:26.000Z</time>
      </trkpt>
      <trkpt lat="44.06834" lon="6.96502">
        <ele>1441.1999511719</ele>
        <time>2022-07-23T13:03:28.000Z</time>
      </trkpt>
      <trkpt lat="44.06834" lon="6.96504">
        <ele>1441</ele>
        <time>2022-07-23T13:03:29.000Z</time>
      </trkpt>
      <trkpt lat="44.06833" lon="6.96505">
        <ele>1441</ele>
        <time>2022-07-23T13:03:30.000Z</time>
      </trkpt>
      <trkpt lat="44.06827" lon="6.96509">
        <ele>1440.4000244141</ele>
        <time>2022-07-23T13:03:32.000Z</time>
      </trkpt>
      <trkpt lat="44.06823" lon="6.96506">
        <ele>1439.5999755859</ele>
        <time>2022-07-23T13:03:33.000Z</time>
      </trkpt>
      <trkpt lat="44.06817" lon="6.96511">
        <ele>1437.5999755859</ele>
        <time>2022-07-23T13:03:35.000Z</time>
      </trkpt>
      <trkpt lat="44.06815" lon="6.96512">
        <ele>1436.1999511719</ele>
        <time>2022-07-23T13:03:36.000Z</time>
      </trkpt>
      <trkpt lat="44.06812" lon="6.96513">
        <ele>1434.5999755859</ele>
        <time>2022-07-23T13:03:38.000Z</time>
      </trkpt>
      <trkpt lat="44.06809" lon="6.96513">
        <ele>1434</ele>
        <time>2022-07-23T13:03:40.000Z</time>
      </trkpt>
      <trkpt lat="44.06801" lon="6.96514">
        <ele>1433.8000488281</ele>
        <time>2022-07-23T13:03:43.000Z</time>
      </trkpt>
      <trkpt lat="44.06797" lon="6.96512">
        <ele>1433.5999755859</ele>
        <time>2022-07-23T13:03:45.000Z</time>
      </trkpt>
      <trkpt lat="44.06788" lon="6.96512">
        <ele>1433.8000488281</ele>
        <time>2022-07-23T13:03:50.000Z</time>
      </trkpt>
      <trkpt lat="44.0678" lon="6.96514">
        <ele>1433.5999755859</ele>
        <time>2022-07-23T13:03:52.000Z</time>
      </trkpt>
      <trkpt lat="44.06778" lon="6.96516">
        <ele>1433</ele>
        <time>2022-07-23T13:03:53.000Z</time>
      </trkpt>
      <trkpt lat="44.06773" lon="6.96521">
        <ele>1432.5999755859</ele>
        <time>2022-07-23T13:03:55.000Z</time>
      </trkpt>
      <trkpt lat="44.06766" lon="6.96532">
        <ele>1432.8000488281</ele>
        <time>2022-07-23T13:03:59.000Z</time>
      </trkpt>
      <trkpt lat="44.06761" lon="6.96547">
        <ele>1432.5999755859</ele>
        <time>2022-07-23T13:04:03.000Z</time>
      </trkpt>
      <trkpt lat="44.06758" lon="6.96555">
        <ele>1433</ele>
        <time>2022-07-23T13:04:06.000Z</time>
      </trkpt>
      <trkpt lat="44.06755" lon="6.96556">
        <ele>1433.4000244141</ele>
        <time>2022-07-23T13:04:07.000Z</time>
      </trkpt>
      <trkpt lat="44.06753" lon="6.96558">
        <ele>1433.8000488281</ele>
        <time>2022-07-23T13:04:08.000Z</time>
      </trkpt>
      <trkpt lat="44.0675" lon="6.96563">
        <ele>1435</ele>
        <time>2022-07-23T13:04:10.000Z</time>
      </trkpt>
      <trkpt lat="44.06748" lon="6.96566">
        <ele>1435.4000244141</ele>
        <time>2022-07-23T13:04:11.000Z</time>
      </trkpt>
      <trkpt lat="44.06743" lon="6.96569">
        <ele>1436.1999511719</ele>
        <time>2022-07-23T13:04:13.000Z</time>
      </trkpt>
      <trkpt lat="44.06741" lon="6.96571">
        <ele>1436.5999755859</ele>
        <time>2022-07-23T13:04:14.000Z</time>
      </trkpt>
      <trkpt lat="44.0674" lon="6.96573">
        <ele>1436.8000488281</ele>
        <time>2022-07-23T13:04:15.000Z</time>
      </trkpt>
      <trkpt lat="44.06736" lon="6.96585">
        <ele>1437.4000244141</ele>
        <time>2022-07-23T13:04:18.000Z</time>
      </trkpt>
      <trkpt lat="44.06734" lon="6.96591">
        <ele>1437.5999755859</ele>
        <time>2022-07-23T13:04:20.000Z</time>
      </trkpt>
      <trkpt lat="44.06727" lon="6.96598">
        <ele>1438.4000244141</ele>
        <time>2022-07-23T13:04:23.000Z</time>
      </trkpt>
      <trkpt lat="44.06725" lon="6.96604">
        <ele>1439</ele>
        <time>2022-07-23T13:04:25.000Z</time>
      </trkpt>
      <trkpt lat="44.06724" lon="6.96608">
        <ele>1439.4000244141</ele>
        <time>2022-07-23T13:04:26.000Z</time>
      </trkpt>
      <trkpt lat="44.06722" lon="6.96616">
        <ele>1440.5999755859</ele>
        <time>2022-07-23T13:04:29.000Z</time>
      </trkpt>
      <trkpt lat="44.0672" lon="6.96619">
        <ele>1441</ele>
        <time>2022-07-23T13:04:30.000Z</time>
      </trkpt>
      <trkpt lat="44.06717" lon="6.96623">
        <ele>1441.8000488281</ele>
        <time>2022-07-23T13:04:32.000Z</time>
      </trkpt>
      <trkpt lat="44.06713" lon="6.96629">
        <ele>1443</ele>
        <time>2022-07-23T13:04:35.000Z</time>
      </trkpt>
      <trkpt lat="44.06711" lon="6.96632">
        <ele>1443</ele>
        <time>2022-07-23T13:04:36.000Z</time>
      </trkpt>
      <trkpt lat="44.0671" lon="6.96638">
        <ele>1443.8000488281</ele>
        <time>2022-07-23T13:04:38.000Z</time>
      </trkpt>
      <trkpt lat="44.06711" lon="6.96642">
        <ele>1444.4000244141</ele>
        <time>2022-07-23T13:04:39.000Z</time>
      </trkpt>
      <trkpt lat="44.06712" lon="6.96645">
        <ele>1445</ele>
        <time>2022-07-23T13:04:40.000Z</time>
      </trkpt>
      <trkpt lat="44.06712" lon="6.96648">
        <ele>1445.5999755859</ele>
        <time>2022-07-23T13:04:41.000Z</time>
      </trkpt>
      <trkpt lat="44.06712" lon="6.96654">
        <ele>1446.8000488281</ele>
        <time>2022-07-23T13:04:43.000Z</time>
      </trkpt>
      <trkpt lat="44.0671" lon="6.96656">
        <ele>1447.4000244141</ele>
        <time>2022-07-23T13:04:44.000Z</time>
      </trkpt>
      <trkpt lat="44.0671" lon="6.96658">
        <ele>1447.8000488281</ele>
        <time>2022-07-23T13:04:45.000Z</time>
      </trkpt>
      <trkpt lat="44.06709" lon="6.96661">
        <ele>1448.1999511719</ele>
        <time>2022-07-23T13:04:46.000Z</time>
      </trkpt>
      <trkpt lat="44.06708" lon="6.96666">
        <ele>1449</ele>
        <time>2022-07-23T13:04:48.000Z</time>
      </trkpt>
      <trkpt lat="44.06707" lon="6.96673">
        <ele>1450.1999511719</ele>
        <time>2022-07-23T13:04:51.000Z</time>
      </trkpt>
      <trkpt lat="44.06706" lon="6.9668">
        <ele>1451.1999511719</ele>
        <time>2022-07-23T13:04:54.000Z</time>
      </trkpt>
      <trkpt lat="44.06705" lon="6.96685">
        <ele>1452.1999511719</ele>
        <time>2022-07-23T13:04:56.000Z</time>
      </trkpt>
      <trkpt lat="44.06704" lon="6.96687">
        <ele>1452.8000488281</ele>
        <time>2022-07-23T13:04:57.000Z</time>
      </trkpt>
      <trkpt lat="44.06704" lon="6.96689">
        <ele>1453.1999511719</ele>
        <time>2022-07-23T13:04:58.000Z</time>
      </trkpt>
      <trkpt lat="44.06702" lon="6.96698">
        <ele>1454.4000244141</ele>
        <time>2022-07-23T13:05:02.000Z</time>
      </trkpt>
      <trkpt lat="44.067" lon="6.96702">
        <ele>1455</ele>
        <time>2022-07-23T13:05:04.000Z</time>
      </trkpt>
      <trkpt lat="44.067" lon="6.96707">
        <ele>1455.8000488281</ele>
        <time>2022-07-23T13:05:06.000Z</time>
      </trkpt>
      <trkpt lat="44.06699" lon="6.96714">
        <ele>1457.1999511719</ele>
        <time>2022-07-23T13:05:09.000Z</time>
      </trkpt>
      <trkpt lat="44.06697" lon="6.9672">
        <ele>1458.5999755859</ele>
        <time>2022-07-23T13:05:12.000Z</time>
      </trkpt>
      <trkpt lat="44.06694" lon="6.96726">
        <ele>1459</ele>
        <time>2022-07-23T13:05:15.000Z</time>
      </trkpt>
      <trkpt lat="44.06691" lon="6.96731">
        <ele>1459.5999755859</ele>
        <time>2022-07-23T13:05:18.000Z</time>
      </trkpt>
      <trkpt lat="44.06688" lon="6.96734">
        <ele>1460.1999511719</ele>
        <time>2022-07-23T13:05:21.000Z</time>
      </trkpt>
      <trkpt lat="44.06685" lon="6.96737">
        <ele>1460.8000488281</ele>
        <time>2022-07-23T13:05:23.000Z</time>
      </trkpt>
      <trkpt lat="44.06681" lon="6.9674">
        <ele>1461.5999755859</ele>
        <time>2022-07-23T13:05:26.000Z</time>
      </trkpt>
      <trkpt lat="44.0668" lon="6.96742">
        <ele>1462.1999511719</ele>
        <time>2022-07-23T13:05:27.000Z</time>
      </trkpt>
      <trkpt lat="44.06676" lon="6.96747">
        <ele>1463.4000244141</ele>
        <time>2022-07-23T13:05:30.000Z</time>
      </trkpt>
      <trkpt lat="44.06674" lon="6.9675">
        <ele>1464</ele>
        <time>2022-07-23T13:05:32.000Z</time>
      </trkpt>
      <trkpt lat="44.06673" lon="6.96754">
        <ele>1464.5999755859</ele>
        <time>2022-07-23T13:05:34.000Z</time>
      </trkpt>
      <trkpt lat="44.06671" lon="6.96759">
        <ele>1466</ele>
        <time>2022-07-23T13:05:37.000Z</time>
      </trkpt>
      <trkpt lat="44.06669" lon="6.96762">
        <ele>1466.8000488281</ele>
        <time>2022-07-23T13:05:39.000Z</time>
      </trkpt>
      <trkpt lat="44.06668" lon="6.96764">
        <ele>1467.1999511719</ele>
        <time>2022-07-23T13:05:40.000Z</time>
      </trkpt>
      <trkpt lat="44.06666" lon="6.96769">
        <ele>1468.4000244141</ele>
        <time>2022-07-23T13:05:43.000Z</time>
      </trkpt>
      <trkpt lat="44.06666" lon="6.96772">
        <ele>1469.4000244141</ele>
        <time>2022-07-23T13:05:45.000Z</time>
      </trkpt>
      <trkpt lat="44.06665" lon="6.96773">
        <ele>1469.5999755859</ele>
        <time>2022-07-23T13:05:46.000Z</time>
      </trkpt>
      <trkpt lat="44.06664" lon="6.96774">
        <ele>1470.8000488281</ele>
        <time>2022-07-23T13:05:50.000Z</time>
      </trkpt>
      <trkpt lat="44.06662" lon="6.96779">
        <ele>1470.8000488281</ele>
        <time>2022-07-23T13:06:04.000Z</time>
      </trkpt>
      <trkpt lat="44.0666" lon="6.96784">
        <ele>1471.5999755859</ele>
        <time>2022-07-23T13:06:10.000Z</time>
      </trkpt>
      <trkpt lat="44.06659" lon="6.96786">
        <ele>1471.8000488281</ele>
        <time>2022-07-23T13:06:12.000Z</time>
      </trkpt>
      <trkpt lat="44.06658" lon="6.96788">
        <ele>1472</ele>
        <time>2022-07-23T13:06:14.000Z</time>
      </trkpt>
      <trkpt lat="44.06656" lon="6.9679">
        <ele>1472.8000488281</ele>
        <time>2022-07-23T13:06:17.000Z</time>
      </trkpt>
      <trkpt lat="44.06656" lon="6.96792">
        <ele>1473</ele>
        <time>2022-07-23T13:06:19.000Z</time>
      </trkpt>
      <trkpt lat="44.06655" lon="6.96796">
        <ele>1473.1999511719</ele>
        <time>2022-07-23T13:06:23.000Z</time>
      </trkpt>
      <trkpt lat="44.06655" lon="6.96797">
        <ele>1473.5999755859</ele>
        <time>2022-07-23T13:06:30.000Z</time>
      </trkpt>
      <trkpt lat="44.06654" lon="6.96803">
        <ele>1473.8000488281</ele>
        <time>2022-07-23T13:06:40.000Z</time>
      </trkpt>
      <trkpt lat="44.06653" lon="6.96805">
        <ele>1474</ele>
        <time>2022-07-23T13:06:42.000Z</time>
      </trkpt>
      <trkpt lat="44.06653" lon="6.96809">
        <ele>1475</ele>
        <time>2022-07-23T13:06:48.000Z</time>
      </trkpt>
      <trkpt lat="44.06652" lon="6.96809">
        <ele>1475.1999511719</ele>
        <time>2022-07-23T13:06:49.000Z</time>
      </trkpt>
      <trkpt lat="44.06649" lon="6.96815">
        <ele>1474.8000488281</ele>
        <time>2022-07-23T13:06:55.000Z</time>
      </trkpt>
      <trkpt lat="44.06644" lon="6.96829">
        <ele>1476.1999511719</ele>
        <time>2022-07-23T13:07:01.000Z</time>
      </trkpt>
      <trkpt lat="44.06643" lon="6.96831">
        <ele>1476.5999755859</ele>
        <time>2022-07-23T13:07:02.000Z</time>
      </trkpt>
      <trkpt lat="44.06637" lon="6.96839">
        <ele>1477.4000244141</ele>
        <time>2022-07-23T13:07:06.000Z</time>
      </trkpt>
      <trkpt lat="44.06633" lon="6.96843">
        <ele>1477.5999755859</ele>
        <time>2022-07-23T13:07:08.000Z</time>
      </trkpt>
      <trkpt lat="44.06625" lon="6.96855">
        <ele>1478.4000244141</ele>
        <time>2022-07-23T13:07:14.000Z</time>
      </trkpt>
      <trkpt lat="44.06625" lon="6.96857">
        <ele>1478.4000244141</ele>
        <time>2022-07-23T13:07:15.000Z</time>
      </trkpt>
      <trkpt lat="44.06623" lon="6.96865">
        <ele>1479</ele>
        <time>2022-07-23T13:07:18.000Z</time>
      </trkpt>
      <trkpt lat="44.06621" lon="6.96866">
        <ele>1479.1999511719</ele>
        <time>2022-07-23T13:07:19.000Z</time>
      </trkpt>
      <trkpt lat="44.06619" lon="6.96869">
        <ele>1479.5999755859</ele>
        <time>2022-07-23T13:07:21.000Z</time>
      </trkpt>
      <trkpt lat="44.06614" lon="6.96872">
        <ele>1480.1999511719</ele>
        <time>2022-07-23T13:07:24.000Z</time>
      </trkpt>
      <trkpt lat="44.06609" lon="6.96872">
        <ele>1480.8000488281</ele>
        <time>2022-07-23T13:07:28.000Z</time>
      </trkpt>
      <trkpt lat="44.06608" lon="6.96874">
        <ele>1481.1999511719</ele>
        <time>2022-07-23T13:07:30.000Z</time>
      </trkpt>
      <trkpt lat="44.06603" lon="6.96875">
        <ele>1482</ele>
        <time>2022-07-23T13:07:33.000Z</time>
      </trkpt>
      <trkpt lat="44.06603" lon="6.96875">
        <ele>1482.1999511719</ele>
        <time>2022-07-23T13:07:34.000Z</time>
      </trkpt>
      <trkpt lat="44.06602" lon="6.96876">
        <ele>1482.4000244141</ele>
        <time>2022-07-23T13:07:35.000Z</time>
      </trkpt>
      <trkpt lat="44.066" lon="6.96877">
        <ele>1483</ele>
        <time>2022-07-23T13:07:37.000Z</time>
      </trkpt>
      <trkpt lat="44.06597" lon="6.96878">
        <ele>1483.5999755859</ele>
        <time>2022-07-23T13:07:41.000Z</time>
      </trkpt>
      <trkpt lat="44.06595" lon="6.9688">
        <ele>1484.1999511719</ele>
        <time>2022-07-23T13:07:43.000Z</time>
      </trkpt>
      <trkpt lat="44.06589" lon="6.96882">
        <ele>1485</ele>
        <time>2022-07-23T13:07:46.000Z</time>
      </trkpt>
      <trkpt lat="44.06587" lon="6.96882">
        <ele>1485.4000244141</ele>
        <time>2022-07-23T13:07:47.000Z</time>
      </trkpt>
      <trkpt lat="44.06583" lon="6.96883">
        <ele>1486.5999755859</ele>
        <time>2022-07-23T13:07:49.000Z</time>
      </trkpt>
      <trkpt lat="44.06581" lon="6.96884">
        <ele>1487</ele>
        <time>2022-07-23T13:07:50.000Z</time>
      </trkpt>
      <trkpt lat="44.06579" lon="6.96884">
        <ele>1487.5999755859</ele>
        <time>2022-07-23T13:07:51.000Z</time>
      </trkpt>
      <trkpt lat="44.06574" lon="6.96884">
        <ele>1489</ele>
        <time>2022-07-23T13:07:54.000Z</time>
      </trkpt>
      <trkpt lat="44.06572" lon="6.96884">
        <ele>1489.1999511719</ele>
        <time>2022-07-23T13:07:55.000Z</time>
      </trkpt>
      <trkpt lat="44.06568" lon="6.96885">
        <ele>1490</ele>
        <time>2022-07-23T13:07:57.000Z</time>
      </trkpt>
      <trkpt lat="44.06563" lon="6.96887">
        <ele>1491</ele>
        <time>2022-07-23T13:08:00.000Z</time>
      </trkpt>
      <trkpt lat="44.0656" lon="6.96887">
        <ele>1491.8000488281</ele>
        <time>2022-07-23T13:08:02.000Z</time>
      </trkpt>
      <trkpt lat="44.06558" lon="6.96887">
        <ele>1492</ele>
        <time>2022-07-23T13:08:03.000Z</time>
      </trkpt>
      <trkpt lat="44.0655" lon="6.96886">
        <ele>1493</ele>
        <time>2022-07-23T13:08:07.000Z</time>
      </trkpt>
      <trkpt lat="44.06548" lon="6.96885">
        <ele>1493.1999511719</ele>
        <time>2022-07-23T13:08:08.000Z</time>
      </trkpt>
      <trkpt lat="44.06539" lon="6.96881">
        <ele>1493.1999511719</ele>
        <time>2022-07-23T13:08:12.000Z</time>
      </trkpt>
      <trkpt lat="44.06534" lon="6.96881">
        <ele>1493.4000244141</ele>
        <time>2022-07-23T13:08:16.000Z</time>
      </trkpt>
      <trkpt lat="44.06532" lon="6.96882">
        <ele>1493.4000244141</ele>
        <time>2022-07-23T13:08:17.000Z</time>
      </trkpt>
      <trkpt lat="44.06528" lon="6.96882">
        <ele>1493.5999755859</ele>
        <time>2022-07-23T13:08:20.000Z</time>
      </trkpt>
      <trkpt lat="44.06525" lon="6.96882">
        <ele>1493.8000488281</ele>
        <time>2022-07-23T13:08:22.000Z</time>
      </trkpt>
      <trkpt lat="44.06521" lon="6.96883">
        <ele>1494.1999511719</ele>
        <time>2022-07-23T13:08:26.000Z</time>
      </trkpt>
      <trkpt lat="44.06519" lon="6.96883">
        <ele>1494.5999755859</ele>
        <time>2022-07-23T13:08:28.000Z</time>
      </trkpt>
      <trkpt lat="44.06517" lon="6.96883">
        <ele>1494.8000488281</ele>
        <time>2022-07-23T13:08:37.000Z</time>
      </trkpt>
      <trkpt lat="44.06513" lon="6.96884">
        <ele>1494.8000488281</ele>
        <time>2022-07-23T13:08:48.000Z</time>
      </trkpt>
      <trkpt lat="44.06511" lon="6.96885">
        <ele>1495.4000244141</ele>
        <time>2022-07-23T13:08:53.000Z</time>
      </trkpt>
      <trkpt lat="44.06509" lon="6.96886">
        <ele>1495.5999755859</ele>
        <time>2022-07-23T13:08:55.000Z</time>
      </trkpt>
      <trkpt lat="44.06509" lon="6.96887">
        <ele>1496.4000244141</ele>
        <time>2022-07-23T13:08:58.000Z</time>
      </trkpt>
      <trkpt lat="44.06504" lon="6.96889">
        <ele>1497.1999511719</ele>
        <time>2022-07-23T13:09:03.000Z</time>
      </trkpt>
      <trkpt lat="44.06503" lon="6.96889">
        <ele>1497.5999755859</ele>
        <time>2022-07-23T13:09:05.000Z</time>
      </trkpt>
      <trkpt lat="44.065" lon="6.96889">
        <ele>1498.4000244141</ele>
        <time>2022-07-23T13:09:10.000Z</time>
      </trkpt>
      <trkpt lat="44.06499" lon="6.96889">
        <ele>1498.5999755859</ele>
        <time>2022-07-23T13:09:11.000Z</time>
      </trkpt>
      <trkpt lat="44.06494" lon="6.96889">
        <ele>1499.8000488281</ele>
        <time>2022-07-23T13:09:18.000Z</time>
      </trkpt>
      <trkpt lat="44.0649" lon="6.9689">
        <ele>1500.8000488281</ele>
        <time>2022-07-23T13:09:24.000Z</time>
      </trkpt>
      <trkpt lat="44.0649" lon="6.96891">
        <ele>1501</ele>
        <time>2022-07-23T13:09:25.000Z</time>
      </trkpt>
      <trkpt lat="44.06486" lon="6.96892">
        <ele>1501.8000488281</ele>
        <time>2022-07-23T13:09:30.000Z</time>
      </trkpt>
      <trkpt lat="44.06485" lon="6.96893">
        <ele>1502.1999511719</ele>
        <time>2022-07-23T13:09:32.000Z</time>
      </trkpt>
      <trkpt lat="44.06483" lon="6.96895">
        <ele>1503</ele>
        <time>2022-07-23T13:09:36.000Z</time>
      </trkpt>
      <trkpt lat="44.06481" lon="6.96899">
        <ele>1503.8000488281</ele>
        <time>2022-07-23T13:09:40.000Z</time>
      </trkpt>
      <trkpt lat="44.06481" lon="6.969">
        <ele>1504</ele>
        <time>2022-07-23T13:09:41.000Z</time>
      </trkpt>
      <trkpt lat="44.06482" lon="6.96909">
        <ele>1505</ele>
        <time>2022-07-23T13:09:48.000Z</time>
      </trkpt>
      <trkpt lat="44.06482" lon="6.96912">
        <ele>1505.4000244141</ele>
        <time>2022-07-23T13:09:50.000Z</time>
      </trkpt>
      <trkpt lat="44.06481" lon="6.96919">
        <ele>1506.1999511719</ele>
        <time>2022-07-23T13:09:55.000Z</time>
      </trkpt>
      <trkpt lat="44.0648" lon="6.96922">
        <ele>1506.8000488281</ele>
        <time>2022-07-23T13:09:58.000Z</time>
      </trkpt>
      <trkpt lat="44.06479" lon="6.96925">
        <ele>1507.1999511719</ele>
        <time>2022-07-23T13:10:01.000Z</time>
      </trkpt>
      <trkpt lat="44.06478" lon="6.96926">
        <ele>1507.5999755859</ele>
        <time>2022-07-23T13:10:07.000Z</time>
      </trkpt>
      <trkpt lat="44.06478" lon="6.96925">
        <ele>1507.4000244141</ele>
        <time>2022-07-23T13:10:16.000Z</time>
      </trkpt>
      <trkpt lat="44.06476" lon="6.96928">
        <ele>1506.5999755859</ele>
        <time>2022-07-23T13:10:23.000Z</time>
      </trkpt>
      <trkpt lat="44.06473" lon="6.96927">
        <ele>1506.8000488281</ele>
        <time>2022-07-23T13:10:29.000Z</time>
      </trkpt>
      <trkpt lat="44.06472" lon="6.96927">
        <ele>1506.4000244141</ele>
        <time>2022-07-23T13:10:36.000Z</time>
      </trkpt>
      <trkpt lat="44.06472" lon="6.96927">
        <ele>1506.1999511719</ele>
        <time>2022-07-23T13:10:37.000Z</time>
      </trkpt>
      <trkpt lat="44.06473" lon="6.96928">
        <ele>1506.1999511719</ele>
        <time>2022-07-23T13:10:44.000Z</time>
      </trkpt>
      <trkpt lat="44.06475" lon="6.96928">
        <ele>1506.4000244141</ele>
        <time>2022-07-23T13:10:53.000Z</time>
      </trkpt>
      <trkpt lat="44.06476" lon="6.9693">
        <ele>1506.4000244141</ele>
        <time>2022-07-23T13:11:05.000Z</time>
      </trkpt>
      <trkpt lat="44.06477" lon="6.9693">
        <ele>1506.4000244141</ele>
        <time>2022-07-23T13:11:18.000Z</time>
      </trkpt>
      <trkpt lat="44.06476" lon="6.9693">
        <ele>1507</ele>
        <time>2022-07-23T13:11:26.000Z</time>
      </trkpt>
      <trkpt lat="44.06479" lon="6.9693">
        <ele>1506.4000244141</ele>
        <time>2022-07-23T13:11:40.000Z</time>
      </trkpt>
      <trkpt lat="44.0648" lon="6.9693">
        <ele>1507</ele>
        <time>2022-07-23T13:11:55.000Z</time>
      </trkpt>
      <trkpt lat="44.06479" lon="6.9693">
        <ele>1507</ele>
        <time>2022-07-23T13:12:04.000Z</time>
      </trkpt>
      <trkpt lat="44.06478" lon="6.9693">
        <ele>1507</ele>
        <time>2022-07-23T13:12:12.000Z</time>
      </trkpt>
      <trkpt lat="44.06479" lon="6.96929">
        <ele>1507</ele>
        <time>2022-07-23T13:12:25.000Z</time>
      </trkpt>
      <trkpt lat="44.06477" lon="6.96929">
        <ele>1507</ele>
        <time>2022-07-23T13:12:37.000Z</time>
      </trkpt>
      <trkpt lat="44.06477" lon="6.96927">
        <ele>1506.8000488281</ele>
        <time>2022-07-23T13:12:52.000Z</time>
      </trkpt>
      <trkpt lat="44.06473" lon="6.96926">
        <ele>1506.8000488281</ele>
        <time>2022-07-23T13:13:03.000Z</time>
      </trkpt>
      <trkpt lat="44.06474" lon="6.96925">
        <ele>1506.5999755859</ele>
        <time>2022-07-23T13:13:15.000Z</time>
      </trkpt>
      <trkpt lat="44.06477" lon="6.96926">
        <ele>1506.5999755859</ele>
        <time>2022-07-23T13:13:27.000Z</time>
      </trkpt>
      <trkpt lat="44.0648" lon="6.96927">
        <ele>1506.5999755859</ele>
        <time>2022-07-23T13:13:38.000Z</time>
      </trkpt>
      <trkpt lat="44.06479" lon="6.96928">
        <ele>1506.5999755859</ele>
        <time>2022-07-23T13:13:47.000Z</time>
      </trkpt>
      <trkpt lat="44.06481" lon="6.96929">
        <ele>1506.8000488281</ele>
        <time>2022-07-23T13:14:02.000Z</time>
      </trkpt>
      <trkpt lat="44.06484" lon="6.96929">
        <ele>1506.5999755859</ele>
        <time>2022-07-23T13:14:07.000Z</time>
      </trkpt>
      <trkpt lat="44.06484" lon="6.96931">
        <ele>1506.4000244141</ele>
        <time>2022-07-23T13:14:08.000Z</time>
      </trkpt>
      <trkpt lat="44.06483" lon="6.96931">
        <ele>1506.4000244141</ele>
        <time>2022-07-23T13:14:11.000Z</time>
      </trkpt>
      <trkpt lat="44.06479" lon="6.96937">
        <ele>1506.5999755859</ele>
        <time>2022-07-23T13:14:17.000Z</time>
      </trkpt>
      <trkpt lat="44.06478" lon="6.96947">
        <ele>1505.8000488281</ele>
        <time>2022-07-23T13:14:20.000Z</time>
      </trkpt>
      <trkpt lat="44.06475" lon="6.9695">
        <ele>1504.8000488281</ele>
        <time>2022-07-23T13:14:22.000Z</time>
      </trkpt>
      <trkpt lat="44.06473" lon="6.9695">
        <ele>1504.1999511719</ele>
        <time>2022-07-23T13:14:23.000Z</time>
      </trkpt>
      <trkpt lat="44.06471" lon="6.96949">
        <ele>1503.5999755859</ele>
        <time>2022-07-23T13:14:24.000Z</time>
      </trkpt>
      <trkpt lat="44.06466" lon="6.96949">
        <ele>1502.4000244141</ele>
        <time>2022-07-23T13:14:27.000Z</time>
      </trkpt>
      <trkpt lat="44.06469" lon="6.96962">
        <ele>1501</ele>
        <time>2022-07-23T13:14:30.000Z</time>
      </trkpt>
      <trkpt lat="44.0647" lon="6.96974">
        <ele>1499.4000244141</ele>
        <time>2022-07-23T13:14:32.000Z</time>
      </trkpt>
      <trkpt lat="44.06472" lon="6.96979">
        <ele>1498.4000244141</ele>
        <time>2022-07-23T13:14:33.000Z</time>
      </trkpt>
      <trkpt lat="44.06475" lon="6.96983">
        <ele>1497.5999755859</ele>
        <time>2022-07-23T13:14:34.000Z</time>
      </trkpt>
      <trkpt lat="44.06473" lon="6.96989">
        <ele>1496.4000244141</ele>
        <time>2022-07-23T13:14:35.000Z</time>
      </trkpt>
      <trkpt lat="44.06472" lon="6.96994">
        <ele>1495.1999511719</ele>
        <time>2022-07-23T13:14:36.000Z</time>
      </trkpt>
      <trkpt lat="44.06471" lon="6.97">
        <ele>1494</ele>
        <time>2022-07-23T13:14:37.000Z</time>
      </trkpt>
      <trkpt lat="44.06471" lon="6.97006">
        <ele>1495.1999511719</ele>
        <time>2022-07-23T13:14:38.000Z</time>
      </trkpt>
      <trkpt lat="44.06469" lon="6.97021">
        <ele>1494.1999511719</ele>
        <time>2022-07-23T13:14:40.000Z</time>
      </trkpt>
      <trkpt lat="44.06467" lon="6.97027">
        <ele>1494</ele>
        <time>2022-07-23T13:14:41.000Z</time>
      </trkpt>
      <trkpt lat="44.06465" lon="6.97032">
        <ele>1493.8000488281</ele>
        <time>2022-07-23T13:14:42.000Z</time>
      </trkpt>
      <trkpt lat="44.06464" lon="6.9704">
        <ele>1493.1999511719</ele>
        <time>2022-07-23T13:14:44.000Z</time>
      </trkpt>
      <trkpt lat="44.06459" lon="6.97048">
        <ele>1493</ele>
        <time>2022-07-23T13:14:46.000Z</time>
      </trkpt>
      <trkpt lat="44.06458" lon="6.97058">
        <ele>1492.5999755859</ele>
        <time>2022-07-23T13:14:48.000Z</time>
      </trkpt>
      <trkpt lat="44.06459" lon="6.97065">
        <ele>1492</ele>
        <time>2022-07-23T13:14:51.000Z</time>
      </trkpt>
      <trkpt lat="44.0646" lon="6.97068">
        <ele>1491.8000488281</ele>
        <time>2022-07-23T13:14:52.000Z</time>
      </trkpt>
      <trkpt lat="44.0646" lon="6.97072">
        <ele>1491.8000488281</ele>
        <time>2022-07-23T13:14:53.000Z</time>
      </trkpt>
      <trkpt lat="44.06456" lon="6.9708">
        <ele>1491.8000488281</ele>
        <time>2022-07-23T13:14:55.000Z</time>
      </trkpt>
      <trkpt lat="44.06448" lon="6.971">
        <ele>1491.4000244141</ele>
        <time>2022-07-23T13:14:58.000Z</time>
      </trkpt>
      <trkpt lat="44.06444" lon="6.97107">
        <ele>1491.4000244141</ele>
        <time>2022-07-23T13:14:59.000Z</time>
      </trkpt>
      <trkpt lat="44.06436" lon="6.97121">
        <ele>1491.1999511719</ele>
        <time>2022-07-23T13:15:02.000Z</time>
      </trkpt>
      <trkpt lat="44.06432" lon="6.97124">
        <ele>1490.5999755859</ele>
        <time>2022-07-23T13:15:03.000Z</time>
      </trkpt>
      <trkpt lat="44.06428" lon="6.97124">
        <ele>1489.8000488281</ele>
        <time>2022-07-23T13:15:04.000Z</time>
      </trkpt>
      <trkpt lat="44.06424" lon="6.97124">
        <ele>1489.1999511719</ele>
        <time>2022-07-23T13:15:05.000Z</time>
      </trkpt>
      <trkpt lat="44.06418" lon="6.97128">
        <ele>1488.1999511719</ele>
        <time>2022-07-23T13:15:08.000Z</time>
      </trkpt>
      <trkpt lat="44.06417" lon="6.97127">
        <ele>1487.8000488281</ele>
        <time>2022-07-23T13:15:09.000Z</time>
      </trkpt>
      <trkpt lat="44.06411" lon="6.97132">
        <ele>1487.4000244141</ele>
        <time>2022-07-23T13:15:12.000Z</time>
      </trkpt>
      <trkpt lat="44.0641" lon="6.97134">
        <ele>1487</ele>
        <time>2022-07-23T13:15:13.000Z</time>
      </trkpt>
      <trkpt lat="44.06406" lon="6.97136">
        <ele>1485.8000488281</ele>
        <time>2022-07-23T13:15:16.000Z</time>
      </trkpt>
      <trkpt lat="44.06407" lon="6.97136">
        <ele>1485.4000244141</ele>
        <time>2022-07-23T13:15:17.000Z</time>
      </trkpt>
      <trkpt lat="44.06407" lon="6.97136">
        <ele>1484.5999755859</ele>
        <time>2022-07-23T13:15:18.000Z</time>
      </trkpt>
      <trkpt lat="44.06408" lon="6.97132">
        <ele>1483.5999755859</ele>
        <time>2022-07-23T13:15:23.000Z</time>
      </trkpt>
      <trkpt lat="44.06406" lon="6.9713">
        <ele>1482.4000244141</ele>
        <time>2022-07-23T13:15:27.000Z</time>
      </trkpt>
      <trkpt lat="44.06405" lon="6.97131">
        <ele>1482</ele>
        <time>2022-07-23T13:15:28.000Z</time>
      </trkpt>
      <trkpt lat="44.06403" lon="6.97136">
        <ele>1481.4000244141</ele>
        <time>2022-07-23T13:15:29.000Z</time>
      </trkpt>
      <trkpt lat="44.06398" lon="6.97146">
        <ele>1480.4000244141</ele>
        <time>2022-07-23T13:15:31.000Z</time>
      </trkpt>
      <trkpt lat="44.06395" lon="6.97149">
        <ele>1479.8000488281</ele>
        <time>2022-07-23T13:15:32.000Z</time>
      </trkpt>
      <trkpt lat="44.06391" lon="6.97156">
        <ele>1478</ele>
        <time>2022-07-23T13:15:34.000Z</time>
      </trkpt>
      <trkpt lat="44.06389" lon="6.97159">
        <ele>1476.5999755859</ele>
        <time>2022-07-23T13:15:35.000Z</time>
      </trkpt>
      <trkpt lat="44.06388" lon="6.97162">
        <ele>1475.4000244141</ele>
        <time>2022-07-23T13:15:36.000Z</time>
      </trkpt>
      <trkpt lat="44.06387" lon="6.97164">
        <ele>1474.4000244141</ele>
        <time>2022-07-23T13:15:37.000Z</time>
      </trkpt>
      <trkpt lat="44.06385" lon="6.97169">
        <ele>1473</ele>
        <time>2022-07-23T13:15:39.000Z</time>
      </trkpt>
      <trkpt lat="44.06384" lon="6.97172">
        <ele>1472.4000244141</ele>
        <time>2022-07-23T13:15:40.000Z</time>
      </trkpt>
      <trkpt lat="44.06383" lon="6.97174">
        <ele>1471.8000488281</ele>
        <time>2022-07-23T13:15:41.000Z</time>
      </trkpt>
      <trkpt lat="44.06378" lon="6.97179">
        <ele>1470</ele>
        <time>2022-07-23T13:15:43.000Z</time>
      </trkpt>
      <trkpt lat="44.06377" lon="6.97183">
        <ele>1469.1999511719</ele>
        <time>2022-07-23T13:15:44.000Z</time>
      </trkpt>
      <trkpt lat="44.06374" lon="6.9719">
        <ele>1468.4000244141</ele>
        <time>2022-07-23T13:15:45.000Z</time>
      </trkpt>
      <trkpt lat="44.06372" lon="6.97194">
        <ele>1467.1999511719</ele>
        <time>2022-07-23T13:15:46.000Z</time>
      </trkpt>
      <trkpt lat="44.0637" lon="6.97199">
        <ele>1465.8000488281</ele>
        <time>2022-07-23T13:15:47.000Z</time>
      </trkpt>
      <trkpt lat="44.06367" lon="6.97203">
        <ele>1464.5999755859</ele>
        <time>2022-07-23T13:15:48.000Z</time>
      </trkpt>
      <trkpt lat="44.06364" lon="6.97206">
        <ele>1463</ele>
        <time>2022-07-23T13:15:49.000Z</time>
      </trkpt>
      <trkpt lat="44.06361" lon="6.97208">
        <ele>1461.5999755859</ele>
        <time>2022-07-23T13:15:50.000Z</time>
      </trkpt>
      <trkpt lat="44.06359" lon="6.97212">
        <ele>1459.8000488281</ele>
        <time>2022-07-23T13:15:51.000Z</time>
      </trkpt>
      <trkpt lat="44.06353" lon="6.97223">
        <ele>1457.4000244141</ele>
        <time>2022-07-23T13:15:53.000Z</time>
      </trkpt>
      <trkpt lat="44.06352" lon="6.97225">
        <ele>1456.4000244141</ele>
        <time>2022-07-23T13:15:54.000Z</time>
      </trkpt>
      <trkpt lat="44.0635" lon="6.97224">
        <ele>1455.4000244141</ele>
        <time>2022-07-23T13:15:55.000Z</time>
      </trkpt>
      <trkpt lat="44.06351" lon="6.97223">
        <ele>1455</ele>
        <time>2022-07-23T13:15:56.000Z</time>
      </trkpt>
      <trkpt lat="44.0635" lon="6.97222">
        <ele>1453.8000488281</ele>
        <time>2022-07-23T13:15:57.000Z</time>
      </trkpt>
      <trkpt lat="44.0635" lon="6.97219">
        <ele>1452.5999755859</ele>
        <time>2022-07-23T13:15:59.000Z</time>
      </trkpt>
      <trkpt lat="44.06347" lon="6.97216">
        <ele>1451.8000488281</ele>
        <time>2022-07-23T13:16:01.000Z</time>
      </trkpt>
      <trkpt lat="44.06345" lon="6.97217">
        <ele>1451</ele>
        <time>2022-07-23T13:16:02.000Z</time>
      </trkpt>
      <trkpt lat="44.06342" lon="6.97218">
        <ele>1449.5999755859</ele>
        <time>2022-07-23T13:16:04.000Z</time>
      </trkpt>
      <trkpt lat="44.0634" lon="6.97219">
        <ele>1448.8000488281</ele>
        <time>2022-07-23T13:16:05.000Z</time>
      </trkpt>
      <trkpt lat="44.06338" lon="6.97221">
        <ele>1447.4000244141</ele>
        <time>2022-07-23T13:16:06.000Z</time>
      </trkpt>
      <trkpt lat="44.06336" lon="6.97224">
        <ele>1446</ele>
        <time>2022-07-23T13:16:07.000Z</time>
      </trkpt>
      <trkpt lat="44.06333" lon="6.97224">
        <ele>1445</ele>
        <time>2022-07-23T13:16:08.000Z</time>
      </trkpt>
      <trkpt lat="44.06331" lon="6.97225">
        <ele>1443.8000488281</ele>
        <time>2022-07-23T13:16:09.000Z</time>
      </trkpt>
      <trkpt lat="44.06329" lon="6.97227">
        <ele>1443</ele>
        <time>2022-07-23T13:16:10.000Z</time>
      </trkpt>
      <trkpt lat="44.06328" lon="6.9723">
        <ele>1442.1999511719</ele>
        <time>2022-07-23T13:16:11.000Z</time>
      </trkpt>
      <trkpt lat="44.06323" lon="6.97234">
        <ele>1440.4000244141</ele>
        <time>2022-07-23T13:16:13.000Z</time>
      </trkpt>
      <trkpt lat="44.06322" lon="6.97234">
        <ele>1439.5999755859</ele>
        <time>2022-07-23T13:16:14.000Z</time>
      </trkpt>
      <trkpt lat="44.06319" lon="6.97237">
        <ele>1438.5999755859</ele>
        <time>2022-07-23T13:16:15.000Z</time>
      </trkpt>
      <trkpt lat="44.06313" lon="6.97243">
        <ele>1436.5999755859</ele>
        <time>2022-07-23T13:16:17.000Z</time>
      </trkpt>
      <trkpt lat="44.06312" lon="6.97245">
        <ele>1436.1999511719</ele>
        <time>2022-07-23T13:16:18.000Z</time>
      </trkpt>
      <trkpt lat="44.06309" lon="6.97249">
        <ele>1435.1999511719</ele>
        <time>2022-07-23T13:16:19.000Z</time>
      </trkpt>
      <trkpt lat="44.06309" lon="6.97253">
        <ele>1434</ele>
        <time>2022-07-23T13:16:20.000Z</time>
      </trkpt>
      <trkpt lat="44.06309" lon="6.9726">
        <ele>1433</ele>
        <time>2022-07-23T13:16:21.000Z</time>
      </trkpt>
      <trkpt lat="44.06309" lon="6.97267">
        <ele>1432</ele>
        <time>2022-07-23T13:16:22.000Z</time>
      </trkpt>
      <trkpt lat="44.06308" lon="6.97279">
        <ele>1430.4000244141</ele>
        <time>2022-07-23T13:16:24.000Z</time>
      </trkpt>
      <trkpt lat="44.06307" lon="6.97284">
        <ele>1429.1999511719</ele>
        <time>2022-07-23T13:16:25.000Z</time>
      </trkpt>
      <trkpt lat="44.06306" lon="6.97288">
        <ele>1428.5999755859</ele>
        <time>2022-07-23T13:16:26.000Z</time>
      </trkpt>
      <trkpt lat="44.06306" lon="6.9729">
        <ele>1427.5999755859</ele>
        <time>2022-07-23T13:16:28.000Z</time>
      </trkpt>
      <trkpt lat="44.06307" lon="6.9729">
        <ele>1427</ele>
        <time>2022-07-23T13:16:29.000Z</time>
      </trkpt>
      <trkpt lat="44.06307" lon="6.97291">
        <ele>1426.5999755859</ele>
        <time>2022-07-23T13:16:31.000Z</time>
      </trkpt>
      <trkpt lat="44.06307" lon="6.97292">
        <ele>1425.5999755859</ele>
        <time>2022-07-23T13:16:37.000Z</time>
      </trkpt>
      <trkpt lat="44.06307" lon="6.97292">
        <ele>1425.4000244141</ele>
        <time>2022-07-23T13:16:38.000Z</time>
      </trkpt>
      <trkpt lat="44.06308" lon="6.97293">
        <ele>1424.5999755859</ele>
        <time>2022-07-23T13:16:44.000Z</time>
      </trkpt>
      <trkpt lat="44.0631" lon="6.97294">
        <ele>1423.8000488281</ele>
        <time>2022-07-23T13:16:49.000Z</time>
      </trkpt>
      <trkpt lat="44.06309" lon="6.97295">
        <ele>1423.5999755859</ele>
        <time>2022-07-23T13:16:50.000Z</time>
      </trkpt>
      <trkpt lat="44.06309" lon="6.97298">
        <ele>1423.4000244141</ele>
        <time>2022-07-23T13:16:51.000Z</time>
      </trkpt>
      <trkpt lat="44.06308" lon="6.97306">
        <ele>1423</ele>
        <time>2022-07-23T13:16:53.000Z</time>
      </trkpt>
      <trkpt lat="44.06312" lon="6.97323">
        <ele>1422.1999511719</ele>
        <time>2022-07-23T13:16:57.000Z</time>
      </trkpt>
      <trkpt lat="44.06317" lon="6.97343">
        <ele>1421.1999511719</ele>
        <time>2022-07-23T13:17:02.000Z</time>
      </trkpt>
      <trkpt lat="44.06318" lon="6.97356">
        <ele>1421</ele>
        <time>2022-07-23T13:17:04.000Z</time>
      </trkpt>
      <trkpt lat="44.0632" lon="6.97366">
        <ele>1420.4000244141</ele>
        <time>2022-07-23T13:17:06.000Z</time>
      </trkpt>
      <trkpt lat="44.0632" lon="6.97373">
        <ele>1419.5999755859</ele>
        <time>2022-07-23T13:17:07.000Z</time>
      </trkpt>
      <trkpt lat="44.06322" lon="6.97385">
        <ele>1417.8000488281</ele>
        <time>2022-07-23T13:17:09.000Z</time>
      </trkpt>
      <trkpt lat="44.06322" lon="6.97389">
        <ele>1416.5999755859</ele>
        <time>2022-07-23T13:17:10.000Z</time>
      </trkpt>
      <trkpt lat="44.06323" lon="6.97393">
        <ele>1415.8000488281</ele>
        <time>2022-07-23T13:17:11.000Z</time>
      </trkpt>
      <trkpt lat="44.06324" lon="6.97397">
        <ele>1415.4000244141</ele>
        <time>2022-07-23T13:17:12.000Z</time>
      </trkpt>
      <trkpt lat="44.06324" lon="6.97411">
        <ele>1415.8000488281</ele>
        <time>2022-07-23T13:17:16.000Z</time>
      </trkpt>
      <trkpt lat="44.06321" lon="6.97418">
        <ele>1416.1999511719</ele>
        <time>2022-07-23T13:17:20.000Z</time>
      </trkpt>
      <trkpt lat="44.0632" lon="6.9742">
        <ele>1416.5999755859</ele>
        <time>2022-07-23T13:17:27.000Z</time>
      </trkpt>
      <trkpt lat="44.06318" lon="6.97422">
        <ele>1416.4000244141</ele>
        <time>2022-07-23T13:17:36.000Z</time>
      </trkpt>
      <trkpt lat="44.06316" lon="6.97424">
        <ele>1416.5999755859</ele>
        <time>2022-07-23T13:17:39.000Z</time>
      </trkpt>
      <trkpt lat="44.06314" lon="6.97429">
        <ele>1417.5999755859</ele>
        <time>2022-07-23T13:17:45.000Z</time>
      </trkpt>
      <trkpt lat="44.06315" lon="6.97431">
        <ele>1418.1999511719</ele>
        <time>2022-07-23T13:17:50.000Z</time>
      </trkpt>
      <trkpt lat="44.06315" lon="6.97432">
        <ele>1418.5999755859</ele>
        <time>2022-07-23T13:17:52.000Z</time>
      </trkpt>
      <trkpt lat="44.06315" lon="6.97437">
        <ele>1419.5999755859</ele>
        <time>2022-07-23T13:17:58.000Z</time>
      </trkpt>
      <trkpt lat="44.06315" lon="6.97437">
        <ele>1419.8000488281</ele>
        <time>2022-07-23T13:17:59.000Z</time>
      </trkpt>
      <trkpt lat="44.06315" lon="6.97438">
        <ele>1420.5999755859</ele>
        <time>2022-07-23T13:18:03.000Z</time>
      </trkpt>
      <trkpt lat="44.06316" lon="6.9744">
        <ele>1420.8000488281</ele>
        <time>2022-07-23T13:18:06.000Z</time>
      </trkpt>
      <trkpt lat="44.06316" lon="6.97442">
        <ele>1421.8000488281</ele>
        <time>2022-07-23T13:18:12.000Z</time>
      </trkpt>
      <trkpt lat="44.06317" lon="6.97441">
        <ele>1421.8000488281</ele>
        <time>2022-07-23T13:18:13.000Z</time>
      </trkpt>
      <trkpt lat="44.06316" lon="6.97445">
        <ele>1422.8000488281</ele>
        <time>2022-07-23T13:18:20.000Z</time>
      </trkpt>
      <trkpt lat="44.06316" lon="6.97445">
        <ele>1423.1999511719</ele>
        <time>2022-07-23T13:18:22.000Z</time>
      </trkpt>
      <trkpt lat="44.06315" lon="6.9745">
        <ele>1423.8000488281</ele>
        <time>2022-07-23T13:18:29.000Z</time>
      </trkpt>
      <trkpt lat="44.06314" lon="6.97451">
        <ele>1424.1999511719</ele>
        <time>2022-07-23T13:18:30.000Z</time>
      </trkpt>
      <trkpt lat="44.06314" lon="6.97453">
        <ele>1425</ele>
        <time>2022-07-23T13:18:36.000Z</time>
      </trkpt>
      <trkpt lat="44.06313" lon="6.97454">
        <ele>1425.1999511719</ele>
        <time>2022-07-23T13:18:38.000Z</time>
      </trkpt>
      <trkpt lat="44.06313" lon="6.97454">
        <ele>1425.4000244141</ele>
        <time>2022-07-23T13:18:45.000Z</time>
      </trkpt>
      <trkpt lat="44.0631" lon="6.97458">
        <ele>1426</ele>
        <time>2022-07-23T13:18:53.000Z</time>
      </trkpt>
      <trkpt lat="44.06309" lon="6.97461">
        <ele>1426.4000244141</ele>
        <time>2022-07-23T13:18:57.000Z</time>
      </trkpt>
      <trkpt lat="44.06309" lon="6.97463">
        <ele>1427</ele>
        <time>2022-07-23T13:19:01.000Z</time>
      </trkpt>
      <trkpt lat="44.06308" lon="6.97465">
        <ele>1427.4000244141</ele>
        <time>2022-07-23T13:19:04.000Z</time>
      </trkpt>
      <trkpt lat="44.06307" lon="6.97469">
        <ele>1428.4000244141</ele>
        <time>2022-07-23T13:19:10.000Z</time>
      </trkpt>
      <trkpt lat="44.06306" lon="6.97469">
        <ele>1428.5999755859</ele>
        <time>2022-07-23T13:19:11.000Z</time>
      </trkpt>
      <trkpt lat="44.06304" lon="6.97474">
        <ele>1429.5999755859</ele>
        <time>2022-07-23T13:19:18.000Z</time>
      </trkpt>
      <trkpt lat="44.06303" lon="6.9748">
        <ele>1430.8000488281</ele>
        <time>2022-07-23T13:19:25.000Z</time>
      </trkpt>
      <trkpt lat="44.06302" lon="6.9748">
        <ele>1430.8000488281</ele>
        <time>2022-07-23T13:19:26.000Z</time>
      </trkpt>
      <trkpt lat="44.06301" lon="6.97484">
        <ele>1431.5999755859</ele>
        <time>2022-07-23T13:19:32.000Z</time>
      </trkpt>
      <trkpt lat="44.063" lon="6.97485">
        <ele>1431.8000488281</ele>
        <time>2022-07-23T13:19:33.000Z</time>
      </trkpt>
      <trkpt lat="44.06299" lon="6.97489">
        <ele>1432.5999755859</ele>
        <time>2022-07-23T13:19:39.000Z</time>
      </trkpt>
      <trkpt lat="44.06298" lon="6.9749">
        <ele>1433</ele>
        <time>2022-07-23T13:19:41.000Z</time>
      </trkpt>
      <trkpt lat="44.06296" lon="6.97495">
        <ele>1434</ele>
        <time>2022-07-23T13:19:47.000Z</time>
      </trkpt>
      <trkpt lat="44.06296" lon="6.97496">
        <ele>1434.1999511719</ele>
        <time>2022-07-23T13:19:48.000Z</time>
      </trkpt>
      <trkpt lat="44.06294" lon="6.975">
        <ele>1435</ele>
        <time>2022-07-23T13:19:53.000Z</time>
      </trkpt>
      <trkpt lat="44.06293" lon="6.97503">
        <ele>1435.4000244141</ele>
        <time>2022-07-23T13:19:56.000Z</time>
      </trkpt>
      <trkpt lat="44.06292" lon="6.97507">
        <ele>1436</ele>
        <time>2022-07-23T13:20:01.000Z</time>
      </trkpt>
      <trkpt lat="44.06291" lon="6.9751">
        <ele>1436.4000244141</ele>
        <time>2022-07-23T13:20:04.000Z</time>
      </trkpt>
      <trkpt lat="44.06289" lon="6.97517">
        <ele>1437.1999511719</ele>
        <time>2022-07-23T13:20:09.000Z</time>
      </trkpt>
      <trkpt lat="44.06286" lon="6.97523">
        <ele>1437.8000488281</ele>
        <time>2022-07-23T13:20:14.000Z</time>
      </trkpt>
      <trkpt lat="44.06283" lon="6.97535">
        <ele>1437.8000488281</ele>
        <time>2022-07-23T13:20:21.000Z</time>
      </trkpt>
      <trkpt lat="44.06281" lon="6.97548">
        <ele>1437</ele>
        <time>2022-07-23T13:20:28.000Z</time>
      </trkpt>
      <trkpt lat="44.0628" lon="6.97552">
        <ele>1437</ele>
        <time>2022-07-23T13:20:34.000Z</time>
      </trkpt>
      <trkpt lat="44.0628" lon="6.97555">
        <ele>1437.1999511719</ele>
        <time>2022-07-23T13:20:35.000Z</time>
      </trkpt>
      <trkpt lat="44.06279" lon="6.97558">
        <ele>1437.5999755859</ele>
        <time>2022-07-23T13:20:38.000Z</time>
      </trkpt>
      <trkpt lat="44.06278" lon="6.97558">
        <ele>1437.8000488281</ele>
        <time>2022-07-23T13:20:40.000Z</time>
      </trkpt>
      <trkpt lat="44.06277" lon="6.9756">
        <ele>1438.1999511719</ele>
        <time>2022-07-23T13:20:43.000Z</time>
      </trkpt>
      <trkpt lat="44.06276" lon="6.97562">
        <ele>1438.8000488281</ele>
        <time>2022-07-23T13:20:47.000Z</time>
      </trkpt>
      <trkpt lat="44.06275" lon="6.97563">
        <ele>1439.4000244141</ele>
        <time>2022-07-23T13:20:51.000Z</time>
      </trkpt>
      <trkpt lat="44.06272" lon="6.97569">
        <ele>1440.1999511719</ele>
        <time>2022-07-23T13:20:58.000Z</time>
      </trkpt>
      <trkpt lat="44.06271" lon="6.97569">
        <ele>1440.4000244141</ele>
        <time>2022-07-23T13:20:59.000Z</time>
      </trkpt>
      <trkpt lat="44.06265" lon="6.97574">
        <ele>1441.5999755859</ele>
        <time>2022-07-23T13:21:06.000Z</time>
      </trkpt>
      <trkpt lat="44.06264" lon="6.97574">
        <ele>1441.5999755859</ele>
        <time>2022-07-23T13:21:07.000Z</time>
      </trkpt>
      <trkpt lat="44.06261" lon="6.97576">
        <ele>1442.1999511719</ele>
        <time>2022-07-23T13:21:13.000Z</time>
      </trkpt>
      <trkpt lat="44.06258" lon="6.9758">
        <ele>1441.4000244141</ele>
        <time>2022-07-23T13:21:19.000Z</time>
      </trkpt>
      <trkpt lat="44.06254" lon="6.97584">
        <ele>1441.4000244141</ele>
        <time>2022-07-23T13:21:20.000Z</time>
      </trkpt>
      <trkpt lat="44.06242" lon="6.97598">
        <ele>1440.5999755859</ele>
        <time>2022-07-23T13:21:25.000Z</time>
      </trkpt>
      <trkpt lat="44.06241" lon="6.97599">
        <ele>1440.5999755859</ele>
        <time>2022-07-23T13:21:26.000Z</time>
      </trkpt>
      <trkpt lat="44.06228" lon="6.97609">
        <ele>1440.8000488281</ele>
        <time>2022-07-23T13:21:31.000Z</time>
      </trkpt>
      <trkpt lat="44.0622" lon="6.97618">
        <ele>1440.4000244141</ele>
        <time>2022-07-23T13:21:33.000Z</time>
      </trkpt>
      <trkpt lat="44.06215" lon="6.97622">
        <ele>1439.8000488281</ele>
        <time>2022-07-23T13:21:35.000Z</time>
      </trkpt>
      <trkpt lat="44.06207" lon="6.97627">
        <ele>1440.1999511719</ele>
        <time>2022-07-23T13:21:39.000Z</time>
      </trkpt>
      <trkpt lat="44.06198" lon="6.97631">
        <ele>1441.4000244141</ele>
        <time>2022-07-23T13:21:44.000Z</time>
      </trkpt>
      <trkpt lat="44.06196" lon="6.97633">
        <ele>1441.4000244141</ele>
        <time>2022-07-23T13:21:45.000Z</time>
      </trkpt>
      <trkpt lat="44.06188" lon="6.9764">
        <ele>1441.4000244141</ele>
        <time>2022-07-23T13:21:48.000Z</time>
      </trkpt>
      <trkpt lat="44.06177" lon="6.97645">
        <ele>1440</ele>
        <time>2022-07-23T13:21:52.000Z</time>
      </trkpt>
      <trkpt lat="44.06176" lon="6.97646">
        <ele>1440</ele>
        <time>2022-07-23T13:21:53.000Z</time>
      </trkpt>
      <trkpt lat="44.06171" lon="6.97653">
        <ele>1440.8000488281</ele>
        <time>2022-07-23T13:21:56.000Z</time>
      </trkpt>
      <trkpt lat="44.06168" lon="6.97655">
        <ele>1441.5999755859</ele>
        <time>2022-07-23T13:21:58.000Z</time>
      </trkpt>
      <trkpt lat="44.06165" lon="6.9766">
        <ele>1442.4000244141</ele>
        <time>2022-07-23T13:22:00.000Z</time>
      </trkpt>
      <trkpt lat="44.06161" lon="6.97663">
        <ele>1442.8000488281</ele>
        <time>2022-07-23T13:22:02.000Z</time>
      </trkpt>
      <trkpt lat="44.06156" lon="6.97668">
        <ele>1443.1999511719</ele>
        <time>2022-07-23T13:22:05.000Z</time>
      </trkpt>
      <trkpt lat="44.0615" lon="6.97673">
        <ele>1444</ele>
        <time>2022-07-23T13:22:09.000Z</time>
      </trkpt>
      <trkpt lat="44.06148" lon="6.97674">
        <ele>1444.5999755859</ele>
        <time>2022-07-23T13:22:11.000Z</time>
      </trkpt>
      <trkpt lat="44.06146" lon="6.97676">
        <ele>1445</ele>
        <time>2022-07-23T13:22:13.000Z</time>
      </trkpt>
      <trkpt lat="44.06145" lon="6.97678">
        <ele>1445.1999511719</ele>
        <time>2022-07-23T13:22:14.000Z</time>
      </trkpt>
      <trkpt lat="44.06142" lon="6.97681">
        <ele>1446.1999511719</ele>
        <time>2022-07-23T13:22:17.000Z</time>
      </trkpt>
      <trkpt lat="44.06139" lon="6.97681">
        <ele>1447</ele>
        <time>2022-07-23T13:22:19.000Z</time>
      </trkpt>
      <trkpt lat="44.06137" lon="6.97681">
        <ele>1447.5999755859</ele>
        <time>2022-07-23T13:22:21.000Z</time>
      </trkpt>
      <trkpt lat="44.06134" lon="6.97683">
        <ele>1448.5999755859</ele>
        <time>2022-07-23T13:22:24.000Z</time>
      </trkpt>
      <trkpt lat="44.06133" lon="6.97684">
        <ele>1449</ele>
        <time>2022-07-23T13:22:25.000Z</time>
      </trkpt>
      <trkpt lat="44.06128" lon="6.97692">
        <ele>1449.5999755859</ele>
        <time>2022-07-23T13:22:29.000Z</time>
      </trkpt>
      <trkpt lat="44.06125" lon="6.97696">
        <ele>1449.8000488281</ele>
        <time>2022-07-23T13:22:30.000Z</time>
      </trkpt>
      <trkpt lat="44.06116" lon="6.97706">
        <ele>1449</ele>
        <time>2022-07-23T13:22:34.000Z</time>
      </trkpt>
      <trkpt lat="44.06114" lon="6.97708">
        <ele>1448.5999755859</ele>
        <time>2022-07-23T13:22:36.000Z</time>
      </trkpt>
      <trkpt lat="44.0611" lon="6.9771">
        <ele>1448.8000488281</ele>
        <time>2022-07-23T13:22:38.000Z</time>
      </trkpt>
      <trkpt lat="44.06097" lon="6.97711">
        <ele>1449.1999511719</ele>
        <time>2022-07-23T13:22:43.000Z</time>
      </trkpt>
      <trkpt lat="44.06089" lon="6.97715">
        <ele>1448.4000244141</ele>
        <time>2022-07-23T13:22:46.000Z</time>
      </trkpt>
      <trkpt lat="44.06086" lon="6.97714">
        <ele>1448.1999511719</ele>
        <time>2022-07-23T13:22:47.000Z</time>
      </trkpt>
      <trkpt lat="44.06084" lon="6.97714">
        <ele>1448.1999511719</ele>
        <time>2022-07-23T13:22:48.000Z</time>
      </trkpt>
      <trkpt lat="44.06077" lon="6.97714">
        <ele>1448.5999755859</ele>
        <time>2022-07-23T13:22:51.000Z</time>
      </trkpt>
      <trkpt lat="44.06073" lon="6.97715">
        <ele>1449</ele>
        <time>2022-07-23T13:22:53.000Z</time>
      </trkpt>
      <trkpt lat="44.06064" lon="6.97718">
        <ele>1449.1999511719</ele>
        <time>2022-07-23T13:22:57.000Z</time>
      </trkpt>
      <trkpt lat="44.06063" lon="6.97719">
        <ele>1449.4000244141</ele>
        <time>2022-07-23T13:22:58.000Z</time>
      </trkpt>
      <trkpt lat="44.06051" lon="6.97728">
        <ele>1449.5999755859</ele>
        <time>2022-07-23T13:23:03.000Z</time>
      </trkpt>
      <trkpt lat="44.06041" lon="6.97738">
        <ele>1449.5999755859</ele>
        <time>2022-07-23T13:23:08.000Z</time>
      </trkpt>
      <trkpt lat="44.06038" lon="6.97737">
        <ele>1449.8000488281</ele>
        <time>2022-07-23T13:23:11.000Z</time>
      </trkpt>
      <trkpt lat="44.06036" lon="6.97737">
        <ele>1450.1999511719</ele>
        <time>2022-07-23T13:23:12.000Z</time>
      </trkpt>
      <trkpt lat="44.06031" lon="6.97743">
        <ele>1450.4000244141</ele>
        <time>2022-07-23T13:23:18.000Z</time>
      </trkpt>
      <trkpt lat="44.06028" lon="6.97745">
        <ele>1451.1999511719</ele>
        <time>2022-07-23T13:23:22.000Z</time>
      </trkpt>
      <trkpt lat="44.06024" lon="6.97743">
        <ele>1451.5999755859</ele>
        <time>2022-07-23T13:23:25.000Z</time>
      </trkpt>
      <trkpt lat="44.06022" lon="6.97745">
        <ele>1450.8000488281</ele>
        <time>2022-07-23T13:23:29.000Z</time>
      </trkpt>
      <trkpt lat="44.06019" lon="6.97745">
        <ele>1450.5999755859</ele>
        <time>2022-07-23T13:23:33.000Z</time>
      </trkpt>
      <trkpt lat="44.06016" lon="6.97745">
        <ele>1450.5999755859</ele>
        <time>2022-07-23T13:23:35.000Z</time>
      </trkpt>
      <trkpt lat="44.06004" lon="6.97746">
        <ele>1450.8000488281</ele>
        <time>2022-07-23T13:23:40.000Z</time>
      </trkpt>
      <trkpt lat="44.05999" lon="6.97747">
        <ele>1451</ele>
        <time>2022-07-23T13:23:42.000Z</time>
      </trkpt>
      <trkpt lat="44.0599" lon="6.97749">
        <ele>1451.5999755859</ele>
        <time>2022-07-23T13:23:46.000Z</time>
      </trkpt>
      <trkpt lat="44.05982" lon="6.97751">
        <ele>1452.5999755859</ele>
        <time>2022-07-23T13:23:50.000Z</time>
      </trkpt>
      <trkpt lat="44.05981" lon="6.97752">
        <ele>1453</ele>
        <time>2022-07-23T13:23:51.000Z</time>
      </trkpt>
      <trkpt lat="44.05978" lon="6.97756">
        <ele>1454</ele>
        <time>2022-07-23T13:23:53.000Z</time>
      </trkpt>
      <trkpt lat="44.05973" lon="6.97764">
        <ele>1455</ele>
        <time>2022-07-23T13:23:56.000Z</time>
      </trkpt>
      <trkpt lat="44.05969" lon="6.97772">
        <ele>1456.1999511719</ele>
        <time>2022-07-23T13:24:01.000Z</time>
      </trkpt>
      <trkpt lat="44.05968" lon="6.97773">
        <ele>1456.8000488281</ele>
        <time>2022-07-23T13:24:06.000Z</time>
      </trkpt>
      <trkpt lat="44.05965" lon="6.97776">
        <ele>1457</ele>
        <time>2022-07-23T13:24:15.000Z</time>
      </trkpt>
      <trkpt lat="44.05964" lon="6.9778">
        <ele>1457</ele>
        <time>2022-07-23T13:24:25.000Z</time>
      </trkpt>
      <trkpt lat="44.05964" lon="6.9778">
        <ele>1456.8000488281</ele>
        <time>2022-07-23T13:24:33.000Z</time>
      </trkpt>
      <trkpt lat="44.05962" lon="6.97781">
        <ele>1456.5999755859</ele>
        <time>2022-07-23T13:24:47.000Z</time>
      </trkpt>
      <trkpt lat="44.05962" lon="6.97782">
        <ele>1456.4000244141</ele>
        <time>2022-07-23T13:25:00.000Z</time>
      </trkpt>
      <trkpt lat="44.05961" lon="6.97783">
        <ele>1456.5999755859</ele>
        <time>2022-07-23T13:25:15.000Z</time>
      </trkpt>
      <trkpt lat="44.05962" lon="6.97783">
        <ele>1456.4000244141</ele>
        <time>2022-07-23T13:25:32.000Z</time>
      </trkpt>
      <trkpt lat="44.05962" lon="6.97785">
        <ele>1456.4000244141</ele>
        <time>2022-07-23T13:25:46.000Z</time>
      </trkpt>
      <trkpt lat="44.05957" lon="6.97791">
        <ele>1456.4000244141</ele>
        <time>2022-07-23T13:25:52.000Z</time>
      </trkpt>
      <trkpt lat="44.05954" lon="6.97796">
        <ele>1456.5999755859</ele>
        <time>2022-07-23T13:25:56.000Z</time>
      </trkpt>
      <trkpt lat="44.05948" lon="6.97805">
        <ele>1457</ele>
        <time>2022-07-23T13:26:01.000Z</time>
      </trkpt>
      <trkpt lat="44.05947" lon="6.97808">
        <ele>1457.4000244141</ele>
        <time>2022-07-23T13:26:02.000Z</time>
      </trkpt>
      <trkpt lat="44.05946" lon="6.97816">
        <ele>1458.1999511719</ele>
        <time>2022-07-23T13:26:06.000Z</time>
      </trkpt>
      <trkpt lat="44.05957" lon="6.97824">
        <ele>1457</ele>
        <time>2022-07-23T13:26:10.000Z</time>
      </trkpt>
      <trkpt lat="44.05971" lon="6.97825">
        <ele>1456.5999755859</ele>
        <time>2022-07-23T13:26:14.000Z</time>
      </trkpt>
      <trkpt lat="44.05979" lon="6.97831">
        <ele>1456.4000244141</ele>
        <time>2022-07-23T13:26:16.000Z</time>
      </trkpt>
      <trkpt lat="44.05983" lon="6.97835">
        <ele>1456.1999511719</ele>
        <time>2022-07-23T13:26:17.000Z</time>
      </trkpt>
      <trkpt lat="44.05988" lon="6.9784">
        <ele>1456</ele>
        <time>2022-07-23T13:26:18.000Z</time>
      </trkpt>
      <trkpt lat="44.05996" lon="6.97851">
        <ele>1455.4000244141</ele>
        <time>2022-07-23T13:26:20.000Z</time>
      </trkpt>
      <trkpt lat="44.06" lon="6.97854">
        <ele>1455.1999511719</ele>
        <time>2022-07-23T13:26:21.000Z</time>
      </trkpt>
      <trkpt lat="44.06005" lon="6.97859">
        <ele>1454.8000488281</ele>
        <time>2022-07-23T13:26:22.000Z</time>
      </trkpt>
      <trkpt lat="44.06029" lon="6.97876">
        <ele>1453.8000488281</ele>
        <time>2022-07-23T13:26:26.000Z</time>
      </trkpt>
      <trkpt lat="44.06042" lon="6.97875">
        <ele>1453.1999511719</ele>
        <time>2022-07-23T13:26:29.000Z</time>
      </trkpt>
      <trkpt lat="44.06045" lon="6.97873">
        <ele>1452.8000488281</ele>
        <time>2022-07-23T13:26:31.000Z</time>
      </trkpt>
      <trkpt lat="44.06053" lon="6.97873">
        <ele>1452.5999755859</ele>
        <time>2022-07-23T13:26:33.000Z</time>
      </trkpt>
      <trkpt lat="44.0606" lon="6.97875">
        <ele>1452.1999511719</ele>
        <time>2022-07-23T13:26:35.000Z</time>
      </trkpt>
      <trkpt lat="44.06062" lon="6.97874">
        <ele>1452</ele>
        <time>2022-07-23T13:26:36.000Z</time>
      </trkpt>
      <trkpt lat="44.06071" lon="6.97876">
        <ele>1451.5999755859</ele>
        <time>2022-07-23T13:26:38.000Z</time>
      </trkpt>
      <trkpt lat="44.06075" lon="6.97879">
        <ele>1451.8000488281</ele>
        <time>2022-07-23T13:26:39.000Z</time>
      </trkpt>
      <trkpt lat="44.06081" lon="6.9788">
        <ele>1451.5999755859</ele>
        <time>2022-07-23T13:26:40.000Z</time>
      </trkpt>
      <trkpt lat="44.06092" lon="6.97885">
        <ele>1451.4000244141</ele>
        <time>2022-07-23T13:26:43.000Z</time>
      </trkpt>
      <trkpt lat="44.06099" lon="6.97891">
        <ele>1450.5999755859</ele>
        <time>2022-07-23T13:26:45.000Z</time>
      </trkpt>
      <trkpt lat="44.06102" lon="6.97895">
        <ele>1450</ele>
        <time>2022-07-23T13:26:46.000Z</time>
      </trkpt>
      <trkpt lat="44.06118" lon="6.9789">
        <ele>1449.1999511719</ele>
        <time>2022-07-23T13:26:49.000Z</time>
      </trkpt>
      <trkpt lat="44.06133" lon="6.97884">
        <ele>1448.5999755859</ele>
        <time>2022-07-23T13:26:52.000Z</time>
      </trkpt>
      <trkpt lat="44.06144" lon="6.97883">
        <ele>1448</ele>
        <time>2022-07-23T13:26:54.000Z</time>
      </trkpt>
      <trkpt lat="44.06157" lon="6.97882">
        <ele>1446.5999755859</ele>
        <time>2022-07-23T13:26:57.000Z</time>
      </trkpt>
      <trkpt lat="44.06161" lon="6.97884">
        <ele>1446</ele>
        <time>2022-07-23T13:26:58.000Z</time>
      </trkpt>
      <trkpt lat="44.06167" lon="6.97884">
        <ele>1445.5999755859</ele>
        <time>2022-07-23T13:26:59.000Z</time>
      </trkpt>
      <trkpt lat="44.06176" lon="6.97885">
        <ele>1444.1999511719</ele>
        <time>2022-07-23T13:27:01.000Z</time>
      </trkpt>
      <trkpt lat="44.06182" lon="6.97889">
        <ele>1443.8000488281</ele>
        <time>2022-07-23T13:27:02.000Z</time>
      </trkpt>
      <trkpt lat="44.06188" lon="6.97894">
        <ele>1442.5999755859</ele>
        <time>2022-07-23T13:27:03.000Z</time>
      </trkpt>
      <trkpt lat="44.06193" lon="6.97898">
        <ele>1441.8000488281</ele>
        <time>2022-07-23T13:27:04.000Z</time>
      </trkpt>
      <trkpt lat="44.06198" lon="6.97904">
        <ele>1440.4000244141</ele>
        <time>2022-07-23T13:27:05.000Z</time>
      </trkpt>
      <trkpt lat="44.06204" lon="6.97907">
        <ele>1439.4000244141</ele>
        <time>2022-07-23T13:27:06.000Z</time>
      </trkpt>
      <trkpt lat="44.06216" lon="6.97916">
        <ele>1437.5999755859</ele>
        <time>2022-07-23T13:27:08.000Z</time>
      </trkpt>
      <trkpt lat="44.06221" lon="6.97918">
        <ele>1437</ele>
        <time>2022-07-23T13:27:09.000Z</time>
      </trkpt>
      <trkpt lat="44.06225" lon="6.97921">
        <ele>1436.1999511719</ele>
        <time>2022-07-23T13:27:10.000Z</time>
      </trkpt>
      <trkpt lat="44.06228" lon="6.97922">
        <ele>1435.8000488281</ele>
        <time>2022-07-23T13:27:11.000Z</time>
      </trkpt>
      <trkpt lat="44.06237" lon="6.97927">
        <ele>1435.8000488281</ele>
        <time>2022-07-23T13:27:14.000Z</time>
      </trkpt>
      <trkpt lat="44.0624" lon="6.97929">
        <ele>1436.1999511719</ele>
        <time>2022-07-23T13:27:15.000Z</time>
      </trkpt>
      <trkpt lat="44.06256" lon="6.97946">
        <ele>1436.1999511719</ele>
        <time>2022-07-23T13:27:19.000Z</time>
      </trkpt>
      <trkpt lat="44.0626" lon="6.97955">
        <ele>1435.5999755859</ele>
        <time>2022-07-23T13:27:21.000Z</time>
      </trkpt>
      <trkpt lat="44.06264" lon="6.97967">
        <ele>1435</ele>
        <time>2022-07-23T13:27:23.000Z</time>
      </trkpt>
      <trkpt lat="44.06277" lon="6.97977">
        <ele>1435.1999511719</ele>
        <time>2022-07-23T13:27:27.000Z</time>
      </trkpt>
      <trkpt lat="44.06299" lon="6.97981">
        <ele>1435.8000488281</ele>
        <time>2022-07-23T13:27:32.000Z</time>
      </trkpt>
      <trkpt lat="44.06319" lon="6.97988">
        <ele>1435.4000244141</ele>
        <time>2022-07-23T13:27:36.000Z</time>
      </trkpt>
      <trkpt lat="44.06324" lon="6.97991">
        <ele>1435.1999511719</ele>
        <time>2022-07-23T13:27:37.000Z</time>
      </trkpt>
      <trkpt lat="44.06338" lon="6.98002">
        <ele>1435</ele>
        <time>2022-07-23T13:27:41.000Z</time>
      </trkpt>
      <trkpt lat="44.06342" lon="6.98008">
        <ele>1434.8000488281</ele>
        <time>2022-07-23T13:27:43.000Z</time>
      </trkpt>
      <trkpt lat="44.06345" lon="6.98013">
        <ele>1435</ele>
        <time>2022-07-23T13:27:45.000Z</time>
      </trkpt>
      <trkpt lat="44.06352" lon="6.98029">
        <ele>1435.5999755859</ele>
        <time>2022-07-23T13:27:49.000Z</time>
      </trkpt>
      <trkpt lat="44.06357" lon="6.98039">
        <ele>1436.1999511719</ele>
        <time>2022-07-23T13:27:53.000Z</time>
      </trkpt>
      <trkpt lat="44.06363" lon="6.98055">
        <ele>1437.4000244141</ele>
        <time>2022-07-23T13:27:57.000Z</time>
      </trkpt>
      <trkpt lat="44.06367" lon="6.98061">
        <ele>1437.5999755859</ele>
        <time>2022-07-23T13:27:59.000Z</time>
      </trkpt>
      <trkpt lat="44.06375" lon="6.98064">
        <ele>1438.1999511719</ele>
        <time>2022-07-23T13:28:02.000Z</time>
      </trkpt>
      <trkpt lat="44.06377" lon="6.98062">
        <ele>1438.1999511719</ele>
        <time>2022-07-23T13:28:03.000Z</time>
      </trkpt>
      <trkpt lat="44.06394" lon="6.98055">
        <ele>1438.1999511719</ele>
        <time>2022-07-23T13:28:09.000Z</time>
      </trkpt>
      <trkpt lat="44.06409" lon="6.98046">
        <ele>1437.5999755859</ele>
        <time>2022-07-23T13:28:13.000Z</time>
      </trkpt>
      <trkpt lat="44.06427" lon="6.9804">
        <ele>1437.1999511719</ele>
        <time>2022-07-23T13:28:17.000Z</time>
      </trkpt>
      <trkpt lat="44.06437" lon="6.98037">
        <ele>1436.8000488281</ele>
        <time>2022-07-23T13:28:19.000Z</time>
      </trkpt>
      <trkpt lat="44.06444" lon="6.98036">
        <ele>1436.4000244141</ele>
        <time>2022-07-23T13:28:20.000Z</time>
      </trkpt>
      <trkpt lat="44.06449" lon="6.98037">
        <ele>1435.8000488281</ele>
        <time>2022-07-23T13:28:21.000Z</time>
      </trkpt>
      <trkpt lat="44.06454" lon="6.98039">
        <ele>1434.8000488281</ele>
        <time>2022-07-23T13:28:22.000Z</time>
      </trkpt>
      <trkpt lat="44.06459" lon="6.98041">
        <ele>1433.8000488281</ele>
        <time>2022-07-23T13:28:23.000Z</time>
      </trkpt>
      <trkpt lat="44.06468" lon="6.98043">
        <ele>1432.1999511719</ele>
        <time>2022-07-23T13:28:25.000Z</time>
      </trkpt>
      <trkpt lat="44.06474" lon="6.98043">
        <ele>1431</ele>
        <time>2022-07-23T13:28:26.000Z</time>
      </trkpt>
      <trkpt lat="44.06479" lon="6.98048">
        <ele>1430</ele>
        <time>2022-07-23T13:28:27.000Z</time>
      </trkpt>
      <trkpt lat="44.06483" lon="6.98051">
        <ele>1429</ele>
        <time>2022-07-23T13:28:28.000Z</time>
      </trkpt>
      <trkpt lat="44.06488" lon="6.98055">
        <ele>1427.4000244141</ele>
        <time>2022-07-23T13:28:29.000Z</time>
      </trkpt>
      <trkpt lat="44.06493" lon="6.98057">
        <ele>1426.1999511719</ele>
        <time>2022-07-23T13:28:30.000Z</time>
      </trkpt>
      <trkpt lat="44.06502" lon="6.98061">
        <ele>1424.1999511719</ele>
        <time>2022-07-23T13:28:32.000Z</time>
      </trkpt>
      <trkpt lat="44.06505" lon="6.98064">
        <ele>1423</ele>
        <time>2022-07-23T13:28:33.000Z</time>
      </trkpt>
      <trkpt lat="44.06512" lon="6.98066">
        <ele>1421.5999755859</ele>
        <time>2022-07-23T13:28:35.000Z</time>
      </trkpt>
      <trkpt lat="44.06516" lon="6.98067">
        <ele>1420</ele>
        <time>2022-07-23T13:28:37.000Z</time>
      </trkpt>
      <trkpt lat="44.06519" lon="6.98069">
        <ele>1419.1999511719</ele>
        <time>2022-07-23T13:28:39.000Z</time>
      </trkpt>
      <trkpt lat="44.06522" lon="6.98073">
        <ele>1419.4000244141</ele>
        <time>2022-07-23T13:28:41.000Z</time>
      </trkpt>
      <trkpt lat="44.06525" lon="6.98076">
        <ele>1419</ele>
        <time>2022-07-23T13:28:42.000Z</time>
      </trkpt>
      <trkpt lat="44.06529" lon="6.9808">
        <ele>1418.1999511719</ele>
        <time>2022-07-23T13:28:44.000Z</time>
      </trkpt>
      <trkpt lat="44.06532" lon="6.98082">
        <ele>1417.4000244141</ele>
        <time>2022-07-23T13:28:45.000Z</time>
      </trkpt>
      <trkpt lat="44.06534" lon="6.98083">
        <ele>1416.8000488281</ele>
        <time>2022-07-23T13:28:46.000Z</time>
      </trkpt>
      <trkpt lat="44.06537" lon="6.98085">
        <ele>1415.8000488281</ele>
        <time>2022-07-23T13:28:47.000Z</time>
      </trkpt>
      <trkpt lat="44.06543" lon="6.98089">
        <ele>1414.1999511719</ele>
        <time>2022-07-23T13:28:49.000Z</time>
      </trkpt>
      <trkpt lat="44.06548" lon="6.98092">
        <ele>1412.5999755859</ele>
        <time>2022-07-23T13:28:51.000Z</time>
      </trkpt>
      <trkpt lat="44.0655" lon="6.98094">
        <ele>1411.1999511719</ele>
        <time>2022-07-23T13:28:53.000Z</time>
      </trkpt>
      <trkpt lat="44.06552" lon="6.98094">
        <ele>1410.5999755859</ele>
        <time>2022-07-23T13:28:54.000Z</time>
      </trkpt>
      <trkpt lat="44.06552" lon="6.98094">
        <ele>1410</ele>
        <time>2022-07-23T13:28:55.000Z</time>
      </trkpt>
      <trkpt lat="44.06552" lon="6.98096">
        <ele>1408.4000244141</ele>
        <time>2022-07-23T13:28:58.000Z</time>
      </trkpt>
      <trkpt lat="44.06552" lon="6.98096">
        <ele>1407.8000488281</ele>
        <time>2022-07-23T13:29:00.000Z</time>
      </trkpt>
      <trkpt lat="44.06552" lon="6.98096">
        <ele>1407.4000244141</ele>
        <time>2022-07-23T13:29:02.000Z</time>
      </trkpt>
      <trkpt lat="44.06553" lon="6.98101">
        <ele>1407.1999511719</ele>
        <time>2022-07-23T13:29:06.000Z</time>
      </trkpt>
      <trkpt lat="44.06551" lon="6.98103">
        <ele>1406.5999755859</ele>
        <time>2022-07-23T13:29:11.000Z</time>
      </trkpt>
      <trkpt lat="44.0655" lon="6.98103">
        <ele>1406.5999755859</ele>
        <time>2022-07-23T13:29:12.000Z</time>
      </trkpt>
      <trkpt lat="44.06548" lon="6.98103">
        <ele>1406.5999755859</ele>
        <time>2022-07-23T13:29:16.000Z</time>
      </trkpt>
      <trkpt lat="44.06547" lon="6.98103">
        <ele>1406.1999511719</ele>
        <time>2022-07-23T13:29:18.000Z</time>
      </trkpt>
      <trkpt lat="44.06548" lon="6.98104">
        <ele>1405.4000244141</ele>
        <time>2022-07-23T13:29:22.000Z</time>
      </trkpt>
      <trkpt lat="44.06548" lon="6.98107">
        <ele>1405.1999511719</ele>
        <time>2022-07-23T13:29:24.000Z</time>
      </trkpt>
      <trkpt lat="44.06549" lon="6.98108">
        <ele>1404.8000488281</ele>
        <time>2022-07-23T13:29:27.000Z</time>
      </trkpt>
      <trkpt lat="44.06549" lon="6.98109">
        <ele>1404</ele>
        <time>2022-07-23T13:29:29.000Z</time>
      </trkpt>
      <trkpt lat="44.06551" lon="6.98109">
        <ele>1403</ele>
        <time>2022-07-23T13:29:33.000Z</time>
      </trkpt>
      <trkpt lat="44.0655" lon="6.98108">
        <ele>1403</ele>
        <time>2022-07-23T13:29:34.000Z</time>
      </trkpt>
      <trkpt lat="44.06552" lon="6.9811">
        <ele>1403</ele>
        <time>2022-07-23T13:29:36.000Z</time>
      </trkpt>
      <trkpt lat="44.06557" lon="6.98113">
        <ele>1402.4000244141</ele>
        <time>2022-07-23T13:29:39.000Z</time>
      </trkpt>
      <trkpt lat="44.06564" lon="6.98112">
        <ele>1401.8000488281</ele>
        <time>2022-07-23T13:29:41.000Z</time>
      </trkpt>
      <trkpt lat="44.06571" lon="6.98113">
        <ele>1401.1999511719</ele>
        <time>2022-07-23T13:29:42.000Z</time>
      </trkpt>
      <trkpt lat="44.06576" lon="6.98113">
        <ele>1400.5999755859</ele>
        <time>2022-07-23T13:29:43.000Z</time>
      </trkpt>
      <trkpt lat="44.06587" lon="6.98116">
        <ele>1398.5999755859</ele>
        <time>2022-07-23T13:29:45.000Z</time>
      </trkpt>
      <trkpt lat="44.0659" lon="6.98121">
        <ele>1397.5999755859</ele>
        <time>2022-07-23T13:29:46.000Z</time>
      </trkpt>
      <trkpt lat="44.06592" lon="6.98127">
        <ele>1396.8000488281</ele>
        <time>2022-07-23T13:29:47.000Z</time>
      </trkpt>
      <trkpt lat="44.06598" lon="6.98137">
        <ele>1395.1999511719</ele>
        <time>2022-07-23T13:29:49.000Z</time>
      </trkpt>
      <trkpt lat="44.06602" lon="6.98141">
        <ele>1394.5999755859</ele>
        <time>2022-07-23T13:29:50.000Z</time>
      </trkpt>
      <trkpt lat="44.06606" lon="6.98147">
        <ele>1393.8000488281</ele>
        <time>2022-07-23T13:29:51.000Z</time>
      </trkpt>
      <trkpt lat="44.06609" lon="6.98153">
        <ele>1392.8000488281</ele>
        <time>2022-07-23T13:29:52.000Z</time>
      </trkpt>
      <trkpt lat="44.06612" lon="6.98162">
        <ele>1392.1999511719</ele>
        <time>2022-07-23T13:29:53.000Z</time>
      </trkpt>
      <trkpt lat="44.06613" lon="6.9817">
        <ele>1391.1999511719</ele>
        <time>2022-07-23T13:29:54.000Z</time>
      </trkpt>
      <trkpt lat="44.06612" lon="6.98179">
        <ele>1390.1999511719</ele>
        <time>2022-07-23T13:29:55.000Z</time>
      </trkpt>
      <trkpt lat="44.06612" lon="6.98183">
        <ele>1388.8000488281</ele>
        <time>2022-07-23T13:29:56.000Z</time>
      </trkpt>
      <trkpt lat="44.0661" lon="6.98188">
        <ele>1387.8000488281</ele>
        <time>2022-07-23T13:29:57.000Z</time>
      </trkpt>
      <trkpt lat="44.0661" lon="6.98194">
        <ele>1386.5999755859</ele>
        <time>2022-07-23T13:29:58.000Z</time>
      </trkpt>
      <trkpt lat="44.0661" lon="6.98201">
        <ele>1385.4000244141</ele>
        <time>2022-07-23T13:29:59.000Z</time>
      </trkpt>
      <trkpt lat="44.06612" lon="6.98205">
        <ele>1384.1999511719</ele>
        <time>2022-07-23T13:30:00.000Z</time>
      </trkpt>
      <trkpt lat="44.06614" lon="6.98208">
        <ele>1383.4000244141</ele>
        <time>2022-07-23T13:30:01.000Z</time>
      </trkpt>
      <trkpt lat="44.0662" lon="6.98209">
        <ele>1382.1999511719</ele>
        <time>2022-07-23T13:30:03.000Z</time>
      </trkpt>
      <trkpt lat="44.06625" lon="6.98212">
        <ele>1381.5999755859</ele>
        <time>2022-07-23T13:30:04.000Z</time>
      </trkpt>
      <trkpt lat="44.0663" lon="6.98215">
        <ele>1381</ele>
        <time>2022-07-23T13:30:05.000Z</time>
      </trkpt>
      <trkpt lat="44.06636" lon="6.98217">
        <ele>1380</ele>
        <time>2022-07-23T13:30:06.000Z</time>
      </trkpt>
      <trkpt lat="44.06639" lon="6.98221">
        <ele>1378.5999755859</ele>
        <time>2022-07-23T13:30:07.000Z</time>
      </trkpt>
      <trkpt lat="44.06641" lon="6.98226">
        <ele>1377.8000488281</ele>
        <time>2022-07-23T13:30:08.000Z</time>
      </trkpt>
      <trkpt lat="44.06642" lon="6.98231">
        <ele>1377</ele>
        <time>2022-07-23T13:30:09.000Z</time>
      </trkpt>
      <trkpt lat="44.06641" lon="6.98233">
        <ele>1375.5999755859</ele>
        <time>2022-07-23T13:30:11.000Z</time>
      </trkpt>
      <trkpt lat="44.0664" lon="6.98233">
        <ele>1374.4000244141</ele>
        <time>2022-07-23T13:30:13.000Z</time>
      </trkpt>
      <trkpt lat="44.06638" lon="6.98235">
        <ele>1373.4000244141</ele>
        <time>2022-07-23T13:30:15.000Z</time>
      </trkpt>
      <trkpt lat="44.06637" lon="6.98237">
        <ele>1373</ele>
        <time>2022-07-23T13:30:16.000Z</time>
      </trkpt>
      <trkpt lat="44.06638" lon="6.98247">
        <ele>1371.8000488281</ele>
        <time>2022-07-23T13:30:19.000Z</time>
      </trkpt>
      <trkpt lat="44.06641" lon="6.98256">
        <ele>1370.5999755859</ele>
        <time>2022-07-23T13:30:21.000Z</time>
      </trkpt>
      <trkpt lat="44.06642" lon="6.9826">
        <ele>1369.5999755859</ele>
        <time>2022-07-23T13:30:22.000Z</time>
      </trkpt>
      <trkpt lat="44.06643" lon="6.98264">
        <ele>1368.4000244141</ele>
        <time>2022-07-23T13:30:23.000Z</time>
      </trkpt>
      <trkpt lat="44.06644" lon="6.98267">
        <ele>1367</ele>
        <time>2022-07-23T13:30:25.000Z</time>
      </trkpt>
      <trkpt lat="44.06642" lon="6.98268">
        <ele>1366</ele>
        <time>2022-07-23T13:30:26.000Z</time>
      </trkpt>
      <trkpt lat="44.06642" lon="6.98267">
        <ele>1365.8000488281</ele>
        <time>2022-07-23T13:30:27.000Z</time>
      </trkpt>
      <trkpt lat="44.06636" lon="6.98257">
        <ele>1364.4000244141</ele>
        <time>2022-07-23T13:30:30.000Z</time>
      </trkpt>
      <trkpt lat="44.06632" lon="6.98255">
        <ele>1363.1999511719</ele>
        <time>2022-07-23T13:30:33.000Z</time>
      </trkpt>
      <trkpt lat="44.06631" lon="6.98256">
        <ele>1362.5999755859</ele>
        <time>2022-07-23T13:30:34.000Z</time>
      </trkpt>
      <trkpt lat="44.06631" lon="6.98256">
        <ele>1362</ele>
        <time>2022-07-23T13:30:35.000Z</time>
      </trkpt>
      <trkpt lat="44.06633" lon="6.98259">
        <ele>1360.8000488281</ele>
        <time>2022-07-23T13:30:37.000Z</time>
      </trkpt>
      <trkpt lat="44.06634" lon="6.98261">
        <ele>1360.1999511719</ele>
        <time>2022-07-23T13:30:38.000Z</time>
      </trkpt>
      <trkpt lat="44.06633" lon="6.98265">
        <ele>1359.5999755859</ele>
        <time>2022-07-23T13:30:39.000Z</time>
      </trkpt>
      <trkpt lat="44.06633" lon="6.9827">
        <ele>1358.4000244141</ele>
        <time>2022-07-23T13:30:41.000Z</time>
      </trkpt>
      <trkpt lat="44.06635" lon="6.98276">
        <ele>1356.8000488281</ele>
        <time>2022-07-23T13:30:43.000Z</time>
      </trkpt>
      <trkpt lat="44.06638" lon="6.98283">
        <ele>1355.4000244141</ele>
        <time>2022-07-23T13:30:45.000Z</time>
      </trkpt>
      <trkpt lat="44.06639" lon="6.98286">
        <ele>1354.5999755859</ele>
        <time>2022-07-23T13:30:46.000Z</time>
      </trkpt>
      <trkpt lat="44.06638" lon="6.98289">
        <ele>1354</ele>
        <time>2022-07-23T13:30:47.000Z</time>
      </trkpt>
      <trkpt lat="44.06641" lon="6.98299">
        <ele>1352.8000488281</ele>
        <time>2022-07-23T13:30:49.000Z</time>
      </trkpt>
      <trkpt lat="44.06643" lon="6.983">
        <ele>1351.5999755859</ele>
        <time>2022-07-23T13:30:50.000Z</time>
      </trkpt>
      <trkpt lat="44.06644" lon="6.98302">
        <ele>1351.1999511719</ele>
        <time>2022-07-23T13:30:51.000Z</time>
      </trkpt>
      <trkpt lat="44.06642" lon="6.98304">
        <ele>1350.1999511719</ele>
        <time>2022-07-23T13:30:52.000Z</time>
      </trkpt>
      <trkpt lat="44.0664" lon="6.98304">
        <ele>1349.5999755859</ele>
        <time>2022-07-23T13:30:53.000Z</time>
      </trkpt>
      <trkpt lat="44.06638" lon="6.98302">
        <ele>1349</ele>
        <time>2022-07-23T13:30:54.000Z</time>
      </trkpt>
      <trkpt lat="44.06636" lon="6.98301">
        <ele>1347.1999511719</ele>
        <time>2022-07-23T13:30:57.000Z</time>
      </trkpt>
      <trkpt lat="44.06637" lon="6.98303">
        <ele>1346.4000244141</ele>
        <time>2022-07-23T13:30:58.000Z</time>
      </trkpt>
      <trkpt lat="44.06637" lon="6.98308">
        <ele>1345.8000488281</ele>
        <time>2022-07-23T13:30:59.000Z</time>
      </trkpt>
      <trkpt lat="44.06637" lon="6.98312">
        <ele>1345</ele>
        <time>2022-07-23T13:31:00.000Z</time>
      </trkpt>
      <trkpt lat="44.06639" lon="6.98313">
        <ele>1344.1999511719</ele>
        <time>2022-07-23T13:31:01.000Z</time>
      </trkpt>
      <trkpt lat="44.06645" lon="6.98315">
        <ele>1343.5999755859</ele>
        <time>2022-07-23T13:31:03.000Z</time>
      </trkpt>
      <trkpt lat="44.06645" lon="6.98317">
        <ele>1343</ele>
        <time>2022-07-23T13:31:04.000Z</time>
      </trkpt>
      <trkpt lat="44.06645" lon="6.9832">
        <ele>1342.1999511719</ele>
        <time>2022-07-23T13:31:06.000Z</time>
      </trkpt>
      <trkpt lat="44.06646" lon="6.98319">
        <ele>1341.5999755859</ele>
        <time>2022-07-23T13:31:07.000Z</time>
      </trkpt>
      <trkpt lat="44.06643" lon="6.9832">
        <ele>1340.4000244141</ele>
        <time>2022-07-23T13:31:09.000Z</time>
      </trkpt>
      <trkpt lat="44.0664" lon="6.98323">
        <ele>1340</ele>
        <time>2022-07-23T13:31:10.000Z</time>
      </trkpt>
      <trkpt lat="44.06632" lon="6.98326">
        <ele>1339.1999511719</ele>
        <time>2022-07-23T13:31:12.000Z</time>
      </trkpt>
      <trkpt lat="44.06629" lon="6.98321">
        <ele>1338.1999511719</ele>
        <time>2022-07-23T13:31:14.000Z</time>
      </trkpt>
      <trkpt lat="44.06626" lon="6.98317">
        <ele>1337.1999511719</ele>
        <time>2022-07-23T13:31:15.000Z</time>
      </trkpt>
      <trkpt lat="44.06625" lon="6.98316">
        <ele>1336.4000244141</ele>
        <time>2022-07-23T13:31:16.000Z</time>
      </trkpt>
      <trkpt lat="44.06625" lon="6.98318">
        <ele>1335.4000244141</ele>
        <time>2022-07-23T13:31:18.000Z</time>
      </trkpt>
      <trkpt lat="44.06626" lon="6.9832">
        <ele>1334.8000488281</ele>
        <time>2022-07-23T13:31:19.000Z</time>
      </trkpt>
      <trkpt lat="44.06628" lon="6.9833">
        <ele>1334.1999511719</ele>
        <time>2022-07-23T13:31:21.000Z</time>
      </trkpt>
      <trkpt lat="44.06632" lon="6.9834">
        <ele>1333.1999511719</ele>
        <time>2022-07-23T13:31:23.000Z</time>
      </trkpt>
      <trkpt lat="44.06637" lon="6.98344">
        <ele>1332</ele>
        <time>2022-07-23T13:31:25.000Z</time>
      </trkpt>
      <trkpt lat="44.06639" lon="6.98344">
        <ele>1331.4000244141</ele>
        <time>2022-07-23T13:31:26.000Z</time>
      </trkpt>
      <trkpt lat="44.06643" lon="6.98344">
        <ele>1330.1999511719</ele>
        <time>2022-07-23T13:31:27.000Z</time>
      </trkpt>
      <trkpt lat="44.06651" lon="6.98342">
        <ele>1329</ele>
        <time>2022-07-23T13:31:29.000Z</time>
      </trkpt>
      <trkpt lat="44.06657" lon="6.98342">
        <ele>1328.4000244141</ele>
        <time>2022-07-23T13:31:30.000Z</time>
      </trkpt>
      <trkpt lat="44.06661" lon="6.98345">
        <ele>1327.5999755859</ele>
        <time>2022-07-23T13:31:31.000Z</time>
      </trkpt>
      <trkpt lat="44.06668" lon="6.98349">
        <ele>1326.1999511719</ele>
        <time>2022-07-23T13:31:33.000Z</time>
      </trkpt>
      <trkpt lat="44.06674" lon="6.98348">
        <ele>1324.5999755859</ele>
        <time>2022-07-23T13:31:35.000Z</time>
      </trkpt>
      <trkpt lat="44.06678" lon="6.98348">
        <ele>1323.8000488281</ele>
        <time>2022-07-23T13:31:36.000Z</time>
      </trkpt>
      <trkpt lat="44.06681" lon="6.98346">
        <ele>1323.1999511719</ele>
        <time>2022-07-23T13:31:37.000Z</time>
      </trkpt>
      <trkpt lat="44.06687" lon="6.98348">
        <ele>1322.1999511719</ele>
        <time>2022-07-23T13:31:39.000Z</time>
      </trkpt>
      <trkpt lat="44.06689" lon="6.98353">
        <ele>1320.5999755859</ele>
        <time>2022-07-23T13:31:41.000Z</time>
      </trkpt>
      <trkpt lat="44.06689" lon="6.98357">
        <ele>1320.4000244141</ele>
        <time>2022-07-23T13:31:42.000Z</time>
      </trkpt>
      <trkpt lat="44.0669" lon="6.98376">
        <ele>1320.4000244141</ele>
        <time>2022-07-23T13:31:46.000Z</time>
      </trkpt>
      <trkpt lat="44.06685" lon="6.98399">
        <ele>1319</ele>
        <time>2022-07-23T13:31:49.000Z</time>
      </trkpt>
      <trkpt lat="44.06684" lon="6.98407">
        <ele>1317.8000488281</ele>
        <time>2022-07-23T13:31:50.000Z</time>
      </trkpt>
      <trkpt lat="44.06684" lon="6.98412">
        <ele>1316.5999755859</ele>
        <time>2022-07-23T13:31:51.000Z</time>
      </trkpt>
      <trkpt lat="44.06685" lon="6.98423">
        <ele>1315.1999511719</ele>
        <time>2022-07-23T13:31:53.000Z</time>
      </trkpt>
      <trkpt lat="44.06686" lon="6.98431">
        <ele>1312.8000488281</ele>
        <time>2022-07-23T13:31:55.000Z</time>
      </trkpt>
      <trkpt lat="44.06687" lon="6.9843">
        <ele>1311.8000488281</ele>
        <time>2022-07-23T13:31:56.000Z</time>
      </trkpt>
      <trkpt lat="44.06687" lon="6.98433">
        <ele>1310.4000244141</ele>
        <time>2022-07-23T13:31:58.000Z</time>
      </trkpt>
      <trkpt lat="44.0669" lon="6.98442">
        <ele>1310.4000244141</ele>
        <time>2022-07-23T13:32:01.000Z</time>
      </trkpt>
      <trkpt lat="44.06701" lon="6.98455">
        <ele>1310.4000244141</ele>
        <time>2022-07-23T13:32:05.000Z</time>
      </trkpt>
      <trkpt lat="44.0671" lon="6.98461">
        <ele>1310.1999511719</ele>
        <time>2022-07-23T13:32:07.000Z</time>
      </trkpt>
      <trkpt lat="44.06718" lon="6.98464">
        <ele>1309.1999511719</ele>
        <time>2022-07-23T13:32:09.000Z</time>
      </trkpt>
      <trkpt lat="44.06722" lon="6.98466">
        <ele>1308</ele>
        <time>2022-07-23T13:32:11.000Z</time>
      </trkpt>
      <trkpt lat="44.06721" lon="6.98466">
        <ele>1306.5999755859</ele>
        <time>2022-07-23T13:32:13.000Z</time>
      </trkpt>
      <trkpt lat="44.06725" lon="6.98468">
        <ele>1306.1999511719</ele>
        <time>2022-07-23T13:32:17.000Z</time>
      </trkpt>
      <trkpt lat="44.06728" lon="6.98471">
        <ele>1306.1999511719</ele>
        <time>2022-07-23T13:32:18.000Z</time>
      </trkpt>
      <trkpt lat="44.06738" lon="6.98477">
        <ele>1305.8000488281</ele>
        <time>2022-07-23T13:32:21.000Z</time>
      </trkpt>
      <trkpt lat="44.06741" lon="6.98476">
        <ele>1305.4000244141</ele>
        <time>2022-07-23T13:32:22.000Z</time>
      </trkpt>
      <trkpt lat="44.06751" lon="6.98475">
        <ele>1304.4000244141</ele>
        <time>2022-07-23T13:32:24.000Z</time>
      </trkpt>
      <trkpt lat="44.06755" lon="6.98477">
        <ele>1303.5999755859</ele>
        <time>2022-07-23T13:32:25.000Z</time>
      </trkpt>
      <trkpt lat="44.06759" lon="6.98481">
        <ele>1302.8000488281</ele>
        <time>2022-07-23T13:32:26.000Z</time>
      </trkpt>
      <trkpt lat="44.06767" lon="6.98491">
        <ele>1301.8000488281</ele>
        <time>2022-07-23T13:32:28.000Z</time>
      </trkpt>
      <trkpt lat="44.06772" lon="6.98495">
        <ele>1301.4000244141</ele>
        <time>2022-07-23T13:32:29.000Z</time>
      </trkpt>
      <trkpt lat="44.06777" lon="6.985">
        <ele>1300.8000488281</ele>
        <time>2022-07-23T13:32:30.000Z</time>
      </trkpt>
      <trkpt lat="44.06787" lon="6.9851">
        <ele>1298.8000488281</ele>
        <time>2022-07-23T13:32:32.000Z</time>
      </trkpt>
      <trkpt lat="44.06797" lon="6.98518">
        <ele>1297.1999511719</ele>
        <time>2022-07-23T13:32:34.000Z</time>
      </trkpt>
      <trkpt lat="44.06801" lon="6.98524">
        <ele>1295.8000488281</ele>
        <time>2022-07-23T13:32:35.000Z</time>
      </trkpt>
      <trkpt lat="44.06805" lon="6.98528">
        <ele>1294.8000488281</ele>
        <time>2022-07-23T13:32:36.000Z</time>
      </trkpt>
      <trkpt lat="44.06808" lon="6.98536">
        <ele>1294</ele>
        <time>2022-07-23T13:32:37.000Z</time>
      </trkpt>
      <trkpt lat="44.0681" lon="6.98543">
        <ele>1293</ele>
        <time>2022-07-23T13:32:38.000Z</time>
      </trkpt>
      <trkpt lat="44.06813" lon="6.98549">
        <ele>1291.5999755859</ele>
        <time>2022-07-23T13:32:39.000Z</time>
      </trkpt>
      <trkpt lat="44.06818" lon="6.98563">
        <ele>1289.8000488281</ele>
        <time>2022-07-23T13:32:41.000Z</time>
      </trkpt>
      <trkpt lat="44.06822" lon="6.98568">
        <ele>1288.4000244141</ele>
        <time>2022-07-23T13:32:42.000Z</time>
      </trkpt>
      <trkpt lat="44.06831" lon="6.98573">
        <ele>1286.1999511719</ele>
        <time>2022-07-23T13:32:44.000Z</time>
      </trkpt>
      <trkpt lat="44.06839" lon="6.98573">
        <ele>1284.5999755859</ele>
        <time>2022-07-23T13:32:46.000Z</time>
      </trkpt>
      <trkpt lat="44.06844" lon="6.98575">
        <ele>1284.1999511719</ele>
        <time>2022-07-23T13:32:47.000Z</time>
      </trkpt>
      <trkpt lat="44.0685" lon="6.98576">
        <ele>1284</ele>
        <time>2022-07-23T13:32:48.000Z</time>
      </trkpt>
      <trkpt lat="44.06863" lon="6.9858">
        <ele>1284</ele>
        <time>2022-07-23T13:32:52.000Z</time>
      </trkpt>
      <trkpt lat="44.06866" lon="6.98582">
        <ele>1283.4000244141</ele>
        <time>2022-07-23T13:32:53.000Z</time>
      </trkpt>
      <trkpt lat="44.0687" lon="6.98586">
        <ele>1282.8000488281</ele>
        <time>2022-07-23T13:32:55.000Z</time>
      </trkpt>
      <trkpt lat="44.06875" lon="6.98593">
        <ele>1282</ele>
        <time>2022-07-23T13:32:57.000Z</time>
      </trkpt>
      <trkpt lat="44.06883" lon="6.986">
        <ele>1280.5999755859</ele>
        <time>2022-07-23T13:33:00.000Z</time>
      </trkpt>
      <trkpt lat="44.06889" lon="6.98603">
        <ele>1280</ele>
        <time>2022-07-23T13:33:02.000Z</time>
      </trkpt>
      <trkpt lat="44.06905" lon="6.98611">
        <ele>1280.8000488281</ele>
        <time>2022-07-23T13:33:09.000Z</time>
      </trkpt>
      <trkpt lat="44.06911" lon="6.98614">
        <ele>1281.4000244141</ele>
        <time>2022-07-23T13:33:14.000Z</time>
      </trkpt>
      <trkpt lat="44.06912" lon="6.98614">
        <ele>1281.5999755859</ele>
        <time>2022-07-23T13:33:15.000Z</time>
      </trkpt>
      <trkpt lat="44.06923" lon="6.98614">
        <ele>1282.1999511719</ele>
        <time>2022-07-23T13:33:21.000Z</time>
      </trkpt>
      <trkpt lat="44.06936" lon="6.98614">
        <ele>1282.5999755859</ele>
        <time>2022-07-23T13:33:28.000Z</time>
      </trkpt>
      <trkpt lat="44.06938" lon="6.98614">
        <ele>1282.5999755859</ele>
        <time>2022-07-23T13:33:29.000Z</time>
      </trkpt>
      <trkpt lat="44.06952" lon="6.98615">
        <ele>1283.1999511719</ele>
        <time>2022-07-23T13:33:36.000Z</time>
      </trkpt>
      <trkpt lat="44.06965" lon="6.98615">
        <ele>1283.5999755859</ele>
        <time>2022-07-23T13:33:42.000Z</time>
      </trkpt>
      <trkpt lat="44.06969" lon="6.98615">
        <ele>1284</ele>
        <time>2022-07-23T13:33:44.000Z</time>
      </trkpt>
      <trkpt lat="44.06987" lon="6.98615">
        <ele>1284.8000488281</ele>
        <time>2022-07-23T13:33:52.000Z</time>
      </trkpt>
      <trkpt lat="44.07012" lon="6.98618">
        <ele>1285.5999755859</ele>
        <time>2022-07-23T13:34:02.000Z</time>
      </trkpt>
      <trkpt lat="44.07016" lon="6.9862">
        <ele>1285.8000488281</ele>
        <time>2022-07-23T13:34:04.000Z</time>
      </trkpt>
      <trkpt lat="44.07031" lon="6.98627">
        <ele>1286.4000244141</ele>
        <time>2022-07-23T13:34:10.000Z</time>
      </trkpt>
      <trkpt lat="44.07041" lon="6.98634">
        <ele>1286.8000488281</ele>
        <time>2022-07-23T13:34:14.000Z</time>
      </trkpt>
      <trkpt lat="44.07053" lon="6.98644">
        <ele>1287.5999755859</ele>
        <time>2022-07-23T13:34:19.000Z</time>
      </trkpt>
      <trkpt lat="44.07061" lon="6.9865">
        <ele>1287.8000488281</ele>
        <time>2022-07-23T13:34:22.000Z</time>
      </trkpt>
      <trkpt lat="44.07081" lon="6.98666">
        <ele>1288.8000488281</ele>
        <time>2022-07-23T13:34:30.000Z</time>
      </trkpt>
      <trkpt lat="44.07084" lon="6.98668">
        <ele>1288.8000488281</ele>
        <time>2022-07-23T13:34:31.000Z</time>
      </trkpt>
      <trkpt lat="44.07106" lon="6.98681">
        <ele>1289.5999755859</ele>
        <time>2022-07-23T13:34:39.000Z</time>
      </trkpt>
      <trkpt lat="44.07118" lon="6.98686">
        <ele>1290</ele>
        <time>2022-07-23T13:34:43.000Z</time>
      </trkpt>
      <trkpt lat="44.07143" lon="6.98692">
        <ele>1290.5999755859</ele>
        <time>2022-07-23T13:34:51.000Z</time>
      </trkpt>
      <trkpt lat="44.07155" lon="6.98696">
        <ele>1291</ele>
        <time>2022-07-23T13:34:55.000Z</time>
      </trkpt>
      <trkpt lat="44.07176" lon="6.98704">
        <ele>1291.5999755859</ele>
        <time>2022-07-23T13:35:02.000Z</time>
      </trkpt>
      <trkpt lat="44.07184" lon="6.98708">
        <ele>1292</ele>
        <time>2022-07-23T13:35:05.000Z</time>
      </trkpt>
      <trkpt lat="44.07204" lon="6.98716">
        <ele>1293.1999511719</ele>
        <time>2022-07-23T13:35:12.000Z</time>
      </trkpt>
      <trkpt lat="44.07227" lon="6.98726">
        <ele>1294.1999511719</ele>
        <time>2022-07-23T13:35:20.000Z</time>
      </trkpt>
      <trkpt lat="44.07249" lon="6.98732">
        <ele>1295</ele>
        <time>2022-07-23T13:35:27.000Z</time>
      </trkpt>
      <trkpt lat="44.07255" lon="6.98734">
        <ele>1295.1999511719</ele>
        <time>2022-07-23T13:35:29.000Z</time>
      </trkpt>
      <trkpt lat="44.07279" lon="6.98744">
        <ele>1296</ele>
        <time>2022-07-23T13:35:37.000Z</time>
      </trkpt>
      <trkpt lat="44.0729" lon="6.9875">
        <ele>1296.1999511719</ele>
        <time>2022-07-23T13:35:41.000Z</time>
      </trkpt>
      <trkpt lat="44.07307" lon="6.98762">
        <ele>1297.1999511719</ele>
        <time>2022-07-23T13:35:48.000Z</time>
      </trkpt>
      <trkpt lat="44.0731" lon="6.98764">
        <ele>1297.4000244141</ele>
        <time>2022-07-23T13:35:49.000Z</time>
      </trkpt>
      <trkpt lat="44.07328" lon="6.98779">
        <ele>1298.1999511719</ele>
        <time>2022-07-23T13:35:57.000Z</time>
      </trkpt>
      <trkpt lat="44.07334" lon="6.98785">
        <ele>1298.4000244141</ele>
        <time>2022-07-23T13:36:00.000Z</time>
      </trkpt>
      <trkpt lat="44.07348" lon="6.98798">
        <ele>1299.4000244141</ele>
        <time>2022-07-23T13:36:07.000Z</time>
      </trkpt>
      <trkpt lat="44.07361" lon="6.98813">
        <ele>1300.1999511719</ele>
        <time>2022-07-23T13:36:14.000Z</time>
      </trkpt>
      <trkpt lat="44.07365" lon="6.98818">
        <ele>1300.5999755859</ele>
        <time>2022-07-23T13:36:17.000Z</time>
      </trkpt>
      <trkpt lat="44.07375" lon="6.9883">
        <ele>1301.5999755859</ele>
        <time>2022-07-23T13:36:23.000Z</time>
      </trkpt>
      <trkpt lat="44.07376" lon="6.98832">
        <ele>1301.8000488281</ele>
        <time>2022-07-23T13:36:24.000Z</time>
      </trkpt>
      <trkpt lat="44.07387" lon="6.98846">
        <ele>1302.5999755859</ele>
        <time>2022-07-23T13:36:31.000Z</time>
      </trkpt>
      <trkpt lat="44.07391" lon="6.98852">
        <ele>1302.8000488281</ele>
        <time>2022-07-23T13:36:34.000Z</time>
      </trkpt>
      <trkpt lat="44.07405" lon="6.98871">
        <ele>1303.8000488281</ele>
        <time>2022-07-23T13:36:43.000Z</time>
      </trkpt>
      <trkpt lat="44.07416" lon="6.98884">
        <ele>1304.5999755859</ele>
        <time>2022-07-23T13:36:50.000Z</time>
      </trkpt>
      <trkpt lat="44.07419" lon="6.98889">
        <ele>1304.8000488281</ele>
        <time>2022-07-23T13:36:52.000Z</time>
      </trkpt>
      <trkpt lat="44.07433" lon="6.98905">
        <ele>1305.5999755859</ele>
        <time>2022-07-23T13:37:01.000Z</time>
      </trkpt>
      <trkpt lat="44.07436" lon="6.98908">
        <ele>1305.8000488281</ele>
        <time>2022-07-23T13:37:03.000Z</time>
      </trkpt>
      <trkpt lat="44.07446" lon="6.98919">
        <ele>1306.1999511719</ele>
        <time>2022-07-23T13:37:09.000Z</time>
      </trkpt>
      <trkpt lat="44.07457" lon="6.98929">
        <ele>1306.8000488281</ele>
        <time>2022-07-23T13:37:15.000Z</time>
      </trkpt>
      <trkpt lat="44.07462" lon="6.98937">
        <ele>1307.4000244141</ele>
        <time>2022-07-23T13:37:19.000Z</time>
      </trkpt>
      <trkpt lat="44.07468" lon="6.98944">
        <ele>1307.8000488281</ele>
        <time>2022-07-23T13:37:23.000Z</time>
      </trkpt>
      <trkpt lat="44.07475" lon="6.98954">
        <ele>1308.5999755859</ele>
        <time>2022-07-23T13:37:28.000Z</time>
      </trkpt>
      <trkpt lat="44.07479" lon="6.9896">
        <ele>1308.8000488281</ele>
        <time>2022-07-23T13:37:31.000Z</time>
      </trkpt>
      <trkpt lat="44.07487" lon="6.98975">
        <ele>1309.8000488281</ele>
        <time>2022-07-23T13:37:38.000Z</time>
      </trkpt>
      <trkpt lat="44.07488" lon="6.98977">
        <ele>1310</ele>
        <time>2022-07-23T13:37:39.000Z</time>
      </trkpt>
      <trkpt lat="44.07498" lon="6.98988">
        <ele>1311</ele>
        <time>2022-07-23T13:37:46.000Z</time>
      </trkpt>
      <trkpt lat="44.075" lon="6.98989">
        <ele>1311</ele>
        <time>2022-07-23T13:37:47.000Z</time>
      </trkpt>
      <trkpt lat="44.07523" lon="6.99001">
        <ele>1311.8000488281</ele>
        <time>2022-07-23T13:37:58.000Z</time>
      </trkpt>
      <trkpt lat="44.07527" lon="6.99003">
        <ele>1312</ele>
        <time>2022-07-23T13:38:00.000Z</time>
      </trkpt>
      <trkpt lat="44.07544" lon="6.99012">
        <ele>1312.8000488281</ele>
        <time>2022-07-23T13:38:08.000Z</time>
      </trkpt>
      <trkpt lat="44.07548" lon="6.99014">
        <ele>1313</ele>
        <time>2022-07-23T13:38:10.000Z</time>
      </trkpt>
      <trkpt lat="44.0756" lon="6.99021">
        <ele>1313.8000488281</ele>
        <time>2022-07-23T13:38:16.000Z</time>
      </trkpt>
      <trkpt lat="44.07565" lon="6.99024">
        <ele>1314.1999511719</ele>
        <time>2022-07-23T13:38:19.000Z</time>
      </trkpt>
      <trkpt lat="44.07574" lon="6.99032">
        <ele>1315</ele>
        <time>2022-07-23T13:38:24.000Z</time>
      </trkpt>
      <trkpt lat="44.07579" lon="6.99036">
        <ele>1315.1999511719</ele>
        <time>2022-07-23T13:38:27.000Z</time>
      </trkpt>
      <trkpt lat="44.07588" lon="6.99045">
        <ele>1315.5999755859</ele>
        <time>2022-07-23T13:38:32.000Z</time>
      </trkpt>
      <trkpt lat="44.07597" lon="6.99055">
        <ele>1316.4000244141</ele>
        <time>2022-07-23T13:38:37.000Z</time>
      </trkpt>
      <trkpt lat="44.07604" lon="6.99062">
        <ele>1317.1999511719</ele>
        <time>2022-07-23T13:38:41.000Z</time>
      </trkpt>
      <trkpt lat="44.07613" lon="6.9907">
        <ele>1317.4000244141</ele>
        <time>2022-07-23T13:38:46.000Z</time>
      </trkpt>
      <trkpt lat="44.07621" lon="6.99076">
        <ele>1317.5999755859</ele>
        <time>2022-07-23T13:38:50.000Z</time>
      </trkpt>
      <trkpt lat="44.0764" lon="6.9909">
        <ele>1318.1999511719</ele>
        <time>2022-07-23T13:38:59.000Z</time>
      </trkpt>
      <trkpt lat="44.07643" lon="6.99092">
        <ele>1318.4000244141</ele>
        <time>2022-07-23T13:39:00.000Z</time>
      </trkpt>
      <trkpt lat="44.07663" lon="6.99107">
        <ele>1318.8000488281</ele>
        <time>2022-07-23T13:39:09.000Z</time>
      </trkpt>
      <trkpt lat="44.07678" lon="6.99126">
        <ele>1319.4000244141</ele>
        <time>2022-07-23T13:39:17.000Z</time>
      </trkpt>
      <trkpt lat="44.0768" lon="6.99129">
        <ele>1319.4000244141</ele>
        <time>2022-07-23T13:39:18.000Z</time>
      </trkpt>
      <trkpt lat="44.07692" lon="6.99147">
        <ele>1320</ele>
        <time>2022-07-23T13:39:25.000Z</time>
      </trkpt>
      <trkpt lat="44.07702" lon="6.99165">
        <ele>1320.4000244141</ele>
        <time>2022-07-23T13:39:31.000Z</time>
      </trkpt>
      <trkpt lat="44.07705" lon="6.99171">
        <ele>1320.8000488281</ele>
        <time>2022-07-23T13:39:33.000Z</time>
      </trkpt>
      <trkpt lat="44.07719" lon="6.99194">
        <ele>1321.4000244141</ele>
        <time>2022-07-23T13:39:42.000Z</time>
      </trkpt>
      <trkpt lat="44.0772" lon="6.99196">
        <ele>1321.5999755859</ele>
        <time>2022-07-23T13:39:43.000Z</time>
      </trkpt>
      <trkpt lat="44.07733" lon="6.99213">
        <ele>1322.4000244141</ele>
        <time>2022-07-23T13:39:50.000Z</time>
      </trkpt>
      <trkpt lat="44.0774" lon="6.99222">
        <ele>1322.5999755859</ele>
        <time>2022-07-23T13:39:54.000Z</time>
      </trkpt>
      <trkpt lat="44.0775" lon="6.99234">
        <ele>1323</ele>
        <time>2022-07-23T13:39:59.000Z</time>
      </trkpt>
      <trkpt lat="44.07768" lon="6.99261">
        <ele>1323.4000244141</ele>
        <time>2022-07-23T13:40:09.000Z</time>
      </trkpt>
      <trkpt lat="44.07775" lon="6.99271">
        <ele>1323.5999755859</ele>
        <time>2022-07-23T13:40:13.000Z</time>
      </trkpt>
      <trkpt lat="44.07788" lon="6.99288">
        <ele>1324.4000244141</ele>
        <time>2022-07-23T13:40:20.000Z</time>
      </trkpt>
      <trkpt lat="44.07795" lon="6.99295">
        <ele>1324.8000488281</ele>
        <time>2022-07-23T13:40:23.000Z</time>
      </trkpt>
      <trkpt lat="44.07808" lon="6.99311">
        <ele>1325.5999755859</ele>
        <time>2022-07-23T13:40:30.000Z</time>
      </trkpt>
      <trkpt lat="44.07812" lon="6.99315">
        <ele>1325.8000488281</ele>
        <time>2022-07-23T13:40:32.000Z</time>
      </trkpt>
      <trkpt lat="44.07823" lon="6.99325">
        <ele>1326.8000488281</ele>
        <time>2022-07-23T13:40:38.000Z</time>
      </trkpt>
      <trkpt lat="44.07825" lon="6.99327">
        <ele>1327</ele>
        <time>2022-07-23T13:40:39.000Z</time>
      </trkpt>
      <trkpt lat="44.0784" lon="6.9934">
        <ele>1328</ele>
        <time>2022-07-23T13:40:47.000Z</time>
      </trkpt>
      <trkpt lat="44.0785" lon="6.9935">
        <ele>1328.8000488281</ele>
        <time>2022-07-23T13:40:53.000Z</time>
      </trkpt>
      <trkpt lat="44.07854" lon="6.99353">
        <ele>1329.1999511719</ele>
        <time>2022-07-23T13:40:55.000Z</time>
      </trkpt>
      <trkpt lat="44.07867" lon="6.99365">
        <ele>1330</ele>
        <time>2022-07-23T13:41:02.000Z</time>
      </trkpt>
      <trkpt lat="44.07869" lon="6.99367">
        <ele>1330.1999511719</ele>
        <time>2022-07-23T13:41:03.000Z</time>
      </trkpt>
      <trkpt lat="44.07883" lon="6.99378">
        <ele>1331.1999511719</ele>
        <time>2022-07-23T13:41:09.000Z</time>
      </trkpt>
      <trkpt lat="44.07889" lon="6.99381">
        <ele>1331.5999755859</ele>
        <time>2022-07-23T13:41:11.000Z</time>
      </trkpt>
      <trkpt lat="44.07899" lon="6.99384">
        <ele>1332.1999511719</ele>
        <time>2022-07-23T13:41:15.000Z</time>
      </trkpt>
      <trkpt lat="44.0791" lon="6.99388">
        <ele>1333</ele>
        <time>2022-07-23T13:41:19.000Z</time>
      </trkpt>
      <trkpt lat="44.07916" lon="6.99389">
        <ele>1333.4000244141</ele>
        <time>2022-07-23T13:41:21.000Z</time>
      </trkpt>
      <trkpt lat="44.07941" lon="6.9939">
        <ele>1334.4000244141</ele>
        <time>2022-07-23T13:41:30.000Z</time>
      </trkpt>
      <trkpt lat="44.07965" lon="6.99394">
        <ele>1335.4000244141</ele>
        <time>2022-07-23T13:41:38.000Z</time>
      </trkpt>
      <trkpt lat="44.0797" lon="6.99396">
        <ele>1335.8000488281</ele>
        <time>2022-07-23T13:41:40.000Z</time>
      </trkpt>
      <trkpt lat="44.07987" lon="6.994">
        <ele>1336.5999755859</ele>
        <time>2022-07-23T13:41:46.000Z</time>
      </trkpt>
      <trkpt lat="44.08004" lon="6.99403">
        <ele>1337.1999511719</ele>
        <time>2022-07-23T13:41:52.000Z</time>
      </trkpt>
      <trkpt lat="44.0801" lon="6.99404">
        <ele>1337.5999755859</ele>
        <time>2022-07-23T13:41:54.000Z</time>
      </trkpt>
      <trkpt lat="44.08031" lon="6.9941">
        <ele>1338.5999755859</ele>
        <time>2022-07-23T13:42:01.000Z</time>
      </trkpt>
      <trkpt lat="44.08035" lon="6.9941">
        <ele>1338.5999755859</ele>
        <time>2022-07-23T13:42:02.000Z</time>
      </trkpt>
      <trkpt lat="44.08065" lon="6.99414">
        <ele>1339.5999755859</ele>
        <time>2022-07-23T13:42:11.000Z</time>
      </trkpt>
      <trkpt lat="44.08072" lon="6.99415">
        <ele>1339.8000488281</ele>
        <time>2022-07-23T13:42:13.000Z</time>
      </trkpt>
      <trkpt lat="44.08098" lon="6.99417">
        <ele>1340.5999755859</ele>
        <time>2022-07-23T13:42:20.000Z</time>
      </trkpt>
      <trkpt lat="44.08113" lon="6.9942">
        <ele>1340.5999755859</ele>
        <time>2022-07-23T13:42:24.000Z</time>
      </trkpt>
      <trkpt lat="44.08157" lon="6.99435">
        <ele>1341.8000488281</ele>
        <time>2022-07-23T13:42:36.000Z</time>
      </trkpt>
      <trkpt lat="44.08164" lon="6.99438">
        <ele>1342</ele>
        <time>2022-07-23T13:42:38.000Z</time>
      </trkpt>
      <trkpt lat="44.08189" lon="6.99446">
        <ele>1342.8000488281</ele>
        <time>2022-07-23T13:42:45.000Z</time>
      </trkpt>
      <trkpt lat="44.08204" lon="6.9945">
        <ele>1343.4000244141</ele>
        <time>2022-07-23T13:42:49.000Z</time>
      </trkpt>
      <trkpt lat="44.08215" lon="6.99454">
        <ele>1344</ele>
        <time>2022-07-23T13:42:52.000Z</time>
      </trkpt>
      <trkpt lat="44.08233" lon="6.99458">
        <ele>1345.1999511719</ele>
        <time>2022-07-23T13:42:57.000Z</time>
      </trkpt>
      <trkpt lat="44.08249" lon="6.99463">
        <ele>1346.1999511719</ele>
        <time>2022-07-23T13:43:02.000Z</time>
      </trkpt>
      <trkpt lat="44.08253" lon="6.99464">
        <ele>1346.1999511719</ele>
        <time>2022-07-23T13:43:03.000Z</time>
      </trkpt>
      <trkpt lat="44.08286" lon="6.9947">
        <ele>1347.1999511719</ele>
        <time>2022-07-23T13:43:13.000Z</time>
      </trkpt>
      <trkpt lat="44.08293" lon="6.99472">
        <ele>1347.4000244141</ele>
        <time>2022-07-23T13:43:15.000Z</time>
      </trkpt>
      <trkpt lat="44.08312" lon="6.99477">
        <ele>1348.4000244141</ele>
        <time>2022-07-23T13:43:21.000Z</time>
      </trkpt>
      <trkpt lat="44.08319" lon="6.99478">
        <ele>1348.5999755859</ele>
        <time>2022-07-23T13:43:23.000Z</time>
      </trkpt>
      <trkpt lat="44.08337" lon="6.9948">
        <ele>1349.4000244141</ele>
        <time>2022-07-23T13:43:28.000Z</time>
      </trkpt>
      <trkpt lat="44.08352" lon="6.9948">
        <ele>1349.8000488281</ele>
        <time>2022-07-23T13:43:32.000Z</time>
      </trkpt>
      <trkpt lat="44.08365" lon="6.9948">
        <ele>1350.4000244141</ele>
        <time>2022-07-23T13:43:36.000Z</time>
      </trkpt>
      <trkpt lat="44.08382" lon="6.99477">
        <ele>1351</ele>
        <time>2022-07-23T13:43:41.000Z</time>
      </trkpt>
      <trkpt lat="44.08389" lon="6.99475">
        <ele>1351.5999755859</ele>
        <time>2022-07-23T13:43:43.000Z</time>
      </trkpt>
      <trkpt lat="44.08419" lon="6.99466">
        <ele>1352.5999755859</ele>
        <time>2022-07-23T13:43:52.000Z</time>
      </trkpt>
      <trkpt lat="44.08426" lon="6.99463">
        <ele>1352.8000488281</ele>
        <time>2022-07-23T13:43:54.000Z</time>
      </trkpt>
      <trkpt lat="44.08459" lon="6.99456">
        <ele>1353.5999755859</ele>
        <time>2022-07-23T13:44:04.000Z</time>
      </trkpt>
      <trkpt lat="44.08469" lon="6.99455">
        <ele>1353.8000488281</ele>
        <time>2022-07-23T13:44:07.000Z</time>
      </trkpt>
      <trkpt lat="44.08493" lon="6.99454">
        <ele>1354.4000244141</ele>
        <time>2022-07-23T13:44:14.000Z</time>
      </trkpt>
      <trkpt lat="44.08506" lon="6.99453">
        <ele>1355</ele>
        <time>2022-07-23T13:44:18.000Z</time>
      </trkpt>
      <trkpt lat="44.08526" lon="6.99453">
        <ele>1356</ele>
        <time>2022-07-23T13:44:24.000Z</time>
      </trkpt>
      <trkpt lat="44.08529" lon="6.99452">
        <ele>1356</ele>
        <time>2022-07-23T13:44:25.000Z</time>
      </trkpt>
      <trkpt lat="44.08567" lon="6.99445">
        <ele>1357</ele>
        <time>2022-07-23T13:44:36.000Z</time>
      </trkpt>
      <trkpt lat="44.08612" lon="6.99435">
        <ele>1357.5999755859</ele>
        <time>2022-07-23T13:44:48.000Z</time>
      </trkpt>
      <trkpt lat="44.08629" lon="6.99431">
        <ele>1358</ele>
        <time>2022-07-23T13:44:53.000Z</time>
      </trkpt>
      <trkpt lat="44.08653" lon="6.99425">
        <ele>1358.8000488281</ele>
        <time>2022-07-23T13:45:00.000Z</time>
      </trkpt>
      <trkpt lat="44.08674" lon="6.9942">
        <ele>1359</ele>
        <time>2022-07-23T13:45:06.000Z</time>
      </trkpt>
      <trkpt lat="44.08691" lon="6.9942">
        <ele>1359.8000488281</ele>
        <time>2022-07-23T13:45:11.000Z</time>
      </trkpt>
      <trkpt lat="44.08701" lon="6.99421">
        <ele>1360.1999511719</ele>
        <time>2022-07-23T13:45:14.000Z</time>
      </trkpt>
      <trkpt lat="44.08729" lon="6.99425">
        <ele>1361.4000244141</ele>
        <time>2022-07-23T13:45:22.000Z</time>
      </trkpt>
      <trkpt lat="44.08732" lon="6.99425">
        <ele>1361.5999755859</ele>
        <time>2022-07-23T13:45:23.000Z</time>
      </trkpt>
      <trkpt lat="44.08766" lon="6.99424">
        <ele>1362.4000244141</ele>
        <time>2022-07-23T13:45:32.000Z</time>
      </trkpt>
      <trkpt lat="44.08799" lon="6.99413">
        <ele>1363.5999755859</ele>
        <time>2022-07-23T13:45:41.000Z</time>
      </trkpt>
      <trkpt lat="44.08803" lon="6.99411">
        <ele>1363.5999755859</ele>
        <time>2022-07-23T13:45:42.000Z</time>
      </trkpt>
      <trkpt lat="44.08828" lon="6.99394">
        <ele>1364.8000488281</ele>
        <time>2022-07-23T13:45:50.000Z</time>
      </trkpt>
      <trkpt lat="44.08834" lon="6.99389">
        <ele>1365.1999511719</ele>
        <time>2022-07-23T13:45:52.000Z</time>
      </trkpt>
      <trkpt lat="44.08851" lon="6.99373">
        <ele>1366</ele>
        <time>2022-07-23T13:45:58.000Z</time>
      </trkpt>
      <trkpt lat="44.08854" lon="6.9937">
        <ele>1366.1999511719</ele>
        <time>2022-07-23T13:45:59.000Z</time>
      </trkpt>
      <trkpt lat="44.08872" lon="6.9935">
        <ele>1367</ele>
        <time>2022-07-23T13:46:06.000Z</time>
      </trkpt>
      <trkpt lat="44.0888" lon="6.99342">
        <ele>1368.1999511719</ele>
        <time>2022-07-23T13:46:09.000Z</time>
      </trkpt>
      <trkpt lat="44.08883" lon="6.99338">
        <ele>1368.4000244141</ele>
        <time>2022-07-23T13:46:10.000Z</time>
      </trkpt>
      <trkpt lat="44.08891" lon="6.9933">
        <ele>1369.1999511719</ele>
        <time>2022-07-23T13:46:13.000Z</time>
      </trkpt>
      <trkpt lat="44.08909" lon="6.99315">
        <ele>1368.8000488281</ele>
        <time>2022-07-23T13:46:19.000Z</time>
      </trkpt>
      <trkpt lat="44.08941" lon="6.993">
        <ele>1369</ele>
        <time>2022-07-23T13:46:29.000Z</time>
      </trkpt>
      <trkpt lat="44.08988" lon="6.99283">
        <ele>1370.1999511719</ele>
        <time>2022-07-23T13:46:42.000Z</time>
      </trkpt>
      <trkpt lat="44.0902" lon="6.99278">
        <ele>1370.8000488281</ele>
        <time>2022-07-23T13:46:51.000Z</time>
      </trkpt>
      <trkpt lat="44.09027" lon="6.99277">
        <ele>1371.1999511719</ele>
        <time>2022-07-23T13:46:53.000Z</time>
      </trkpt>
      <trkpt lat="44.09047" lon="6.99277">
        <ele>1372.4000244141</ele>
        <time>2022-07-23T13:46:59.000Z</time>
      </trkpt>
      <trkpt lat="44.0905" lon="6.99277">
        <ele>1372.5999755859</ele>
        <time>2022-07-23T13:47:00.000Z</time>
      </trkpt>
      <trkpt lat="44.09065" lon="6.99277">
        <ele>1373.4000244141</ele>
        <time>2022-07-23T13:47:04.000Z</time>
      </trkpt>
      <trkpt lat="44.09083" lon="6.9928">
        <ele>1374</ele>
        <time>2022-07-23T13:47:09.000Z</time>
      </trkpt>
      <trkpt lat="44.09101" lon="6.99284">
        <ele>1374.4000244141</ele>
        <time>2022-07-23T13:47:14.000Z</time>
      </trkpt>
      <trkpt lat="44.09115" lon="6.99283">
        <ele>1375</ele>
        <time>2022-07-23T13:47:18.000Z</time>
      </trkpt>
      <trkpt lat="44.09126" lon="6.99281">
        <ele>1375.5999755859</ele>
        <time>2022-07-23T13:47:21.000Z</time>
      </trkpt>
      <trkpt lat="44.09142" lon="6.99277">
        <ele>1376.5999755859</ele>
        <time>2022-07-23T13:47:26.000Z</time>
      </trkpt>
      <trkpt lat="44.09154" lon="6.99275">
        <ele>1377.5999755859</ele>
        <time>2022-07-23T13:47:30.000Z</time>
      </trkpt>
      <trkpt lat="44.09158" lon="6.99274">
        <ele>1377.8000488281</ele>
        <time>2022-07-23T13:47:31.000Z</time>
      </trkpt>
      <trkpt lat="44.09172" lon="6.9927">
        <ele>1379</ele>
        <time>2022-07-23T13:47:36.000Z</time>
      </trkpt>
      <trkpt lat="44.09179" lon="6.99267">
        <ele>1379.5999755859</ele>
        <time>2022-07-23T13:47:38.000Z</time>
      </trkpt>
      <trkpt lat="44.09187" lon="6.99261">
        <ele>1380.1999511719</ele>
        <time>2022-07-23T13:47:41.000Z</time>
      </trkpt>
      <trkpt lat="44.09193" lon="6.99252">
        <ele>1380.8000488281</ele>
        <time>2022-07-23T13:47:44.000Z</time>
      </trkpt>
      <trkpt lat="44.09196" lon="6.99246">
        <ele>1381.1999511719</ele>
        <time>2022-07-23T13:47:46.000Z</time>
      </trkpt>
      <trkpt lat="44.09203" lon="6.99227">
        <ele>1382.1999511719</ele>
        <time>2022-07-23T13:47:51.000Z</time>
      </trkpt>
      <trkpt lat="44.09203" lon="6.99223">
        <ele>1382.4000244141</ele>
        <time>2022-07-23T13:47:52.000Z</time>
      </trkpt>
      <trkpt lat="44.09205" lon="6.99211">
        <ele>1383.1999511719</ele>
        <time>2022-07-23T13:47:55.000Z</time>
      </trkpt>
      <trkpt lat="44.09208" lon="6.99195">
        <ele>1384</ele>
        <time>2022-07-23T13:47:59.000Z</time>
      </trkpt>
      <trkpt lat="44.09208" lon="6.99192">
        <ele>1384.1999511719</ele>
        <time>2022-07-23T13:48:00.000Z</time>
      </trkpt>
      <trkpt lat="44.09211" lon="6.99173">
        <ele>1385.4000244141</ele>
        <time>2022-07-23T13:48:05.000Z</time>
      </trkpt>
      <trkpt lat="44.09214" lon="6.99165">
        <ele>1385.5999755859</ele>
        <time>2022-07-23T13:48:07.000Z</time>
      </trkpt>
      <trkpt lat="44.09224" lon="6.99158">
        <ele>1386.1999511719</ele>
        <time>2022-07-23T13:48:11.000Z</time>
      </trkpt>
      <trkpt lat="44.09228" lon="6.99159">
        <ele>1386.4000244141</ele>
        <time>2022-07-23T13:48:12.000Z</time>
      </trkpt>
      <trkpt lat="44.0924" lon="6.99166">
        <ele>1386.5999755859</ele>
        <time>2022-07-23T13:48:16.000Z</time>
      </trkpt>
      <trkpt lat="44.09251" lon="6.99183">
        <ele>1386.5999755859</ele>
        <time>2022-07-23T13:48:21.000Z</time>
      </trkpt>
      <trkpt lat="44.09256" lon="6.99213">
        <ele>1387.4000244141</ele>
        <time>2022-07-23T13:48:28.000Z</time>
      </trkpt>
      <trkpt lat="44.09257" lon="6.99221">
        <ele>1387.8000488281</ele>
        <time>2022-07-23T13:48:30.000Z</time>
      </trkpt>
      <trkpt lat="44.09259" lon="6.99234">
        <ele>1388.5999755859</ele>
        <time>2022-07-23T13:48:33.000Z</time>
      </trkpt>
      <trkpt lat="44.09262" lon="6.99259">
        <ele>1389.5999755859</ele>
        <time>2022-07-23T13:48:39.000Z</time>
      </trkpt>
      <trkpt lat="44.09264" lon="6.99271">
        <ele>1390</ele>
        <time>2022-07-23T13:48:42.000Z</time>
      </trkpt>
      <trkpt lat="44.09267" lon="6.99283">
        <ele>1390.5999755859</ele>
        <time>2022-07-23T13:48:45.000Z</time>
      </trkpt>
      <trkpt lat="44.09274" lon="6.99307">
        <ele>1391.8000488281</ele>
        <time>2022-07-23T13:48:51.000Z</time>
      </trkpt>
      <trkpt lat="44.09282" lon="6.99322">
        <ele>1392.5999755859</ele>
        <time>2022-07-23T13:48:56.000Z</time>
      </trkpt>
      <trkpt lat="44.09284" lon="6.99322">
        <ele>1392.8000488281</ele>
        <time>2022-07-23T13:48:57.000Z</time>
      </trkpt>
      <trkpt lat="44.09289" lon="6.99316">
        <ele>1393.1999511719</ele>
        <time>2022-07-23T13:48:59.000Z</time>
      </trkpt>
      <trkpt lat="44.09288" lon="6.993">
        <ele>1393.8000488281</ele>
        <time>2022-07-23T13:49:03.000Z</time>
      </trkpt>
      <trkpt lat="44.09287" lon="6.99295">
        <ele>1393.8000488281</ele>
        <time>2022-07-23T13:49:04.000Z</time>
      </trkpt>
      <trkpt lat="44.09282" lon="6.99271">
        <ele>1395</ele>
        <time>2022-07-23T13:49:10.000Z</time>
      </trkpt>
      <trkpt lat="44.09281" lon="6.99263">
        <ele>1395.4000244141</ele>
        <time>2022-07-23T13:49:12.000Z</time>
      </trkpt>
      <trkpt lat="44.09279" lon="6.99247">
        <ele>1396.1999511719</ele>
        <time>2022-07-23T13:49:16.000Z</time>
      </trkpt>
      <trkpt lat="44.09278" lon="6.99233">
        <ele>1397</ele>
        <time>2022-07-23T13:49:20.000Z</time>
      </trkpt>
      <trkpt lat="44.09278" lon="6.99225">
        <ele>1397.1999511719</ele>
        <time>2022-07-23T13:49:22.000Z</time>
      </trkpt>
      <trkpt lat="44.09278" lon="6.99209">
        <ele>1398.1999511719</ele>
        <time>2022-07-23T13:49:26.000Z</time>
      </trkpt>
      <trkpt lat="44.09278" lon="6.99194">
        <ele>1399.4000244141</ele>
        <time>2022-07-23T13:49:30.000Z</time>
      </trkpt>
      <trkpt lat="44.09278" lon="6.99174">
        <ele>1400.4000244141</ele>
        <time>2022-07-23T13:49:35.000Z</time>
      </trkpt>
      <trkpt lat="44.0928" lon="6.99159">
        <ele>1401.1999511719</ele>
        <time>2022-07-23T13:49:39.000Z</time>
      </trkpt>
      <trkpt lat="44.09285" lon="6.9916">
        <ele>1401.5999755859</ele>
        <time>2022-07-23T13:49:41.000Z</time>
      </trkpt>
      <trkpt lat="44.09285" lon="6.99164">
        <ele>1401.8000488281</ele>
        <time>2022-07-23T13:49:42.000Z</time>
      </trkpt>
      <trkpt lat="44.09284" lon="6.99174">
        <ele>1402.8000488281</ele>
        <time>2022-07-23T13:49:45.000Z</time>
      </trkpt>
      <trkpt lat="44.09283" lon="6.99181">
        <ele>1403.1999511719</ele>
        <time>2022-07-23T13:49:47.000Z</time>
      </trkpt>
      <trkpt lat="44.09284" lon="6.99192">
        <ele>1403.8000488281</ele>
        <time>2022-07-23T13:49:50.000Z</time>
      </trkpt>
      <trkpt lat="44.09284" lon="6.99195">
        <ele>1403.8000488281</ele>
        <time>2022-07-23T13:49:51.000Z</time>
      </trkpt>
      <trkpt lat="44.09287" lon="6.99221">
        <ele>1404.8000488281</ele>
        <time>2022-07-23T13:49:58.000Z</time>
      </trkpt>
      <trkpt lat="44.09287" lon="6.99225">
        <ele>1405</ele>
        <time>2022-07-23T13:49:59.000Z</time>
      </trkpt>
      <trkpt lat="44.09291" lon="6.99245">
        <ele>1406</ele>
        <time>2022-07-23T13:50:05.000Z</time>
      </trkpt>
      <trkpt lat="44.09294" lon="6.99256">
        <ele>1406.5999755859</ele>
        <time>2022-07-23T13:50:08.000Z</time>
      </trkpt>
      <trkpt lat="44.09296" lon="6.9927">
        <ele>1407</ele>
        <time>2022-07-23T13:50:12.000Z</time>
      </trkpt>
      <trkpt lat="44.09297" lon="6.99287">
        <ele>1408</ele>
        <time>2022-07-23T13:50:17.000Z</time>
      </trkpt>
      <trkpt lat="44.09299" lon="6.99291">
        <ele>1408</ele>
        <time>2022-07-23T13:50:18.000Z</time>
      </trkpt>
      <trkpt lat="44.09305" lon="6.99297">
        <ele>1408.4000244141</ele>
        <time>2022-07-23T13:50:21.000Z</time>
      </trkpt>
      <trkpt lat="44.09307" lon="6.99297">
        <ele>1408.5999755859</ele>
        <time>2022-07-23T13:50:22.000Z</time>
      </trkpt>
      <trkpt lat="44.09312" lon="6.99292">
        <ele>1409</ele>
        <time>2022-07-23T13:50:24.000Z</time>
      </trkpt>
      <trkpt lat="44.09313" lon="6.99285">
        <ele>1409.1999511719</ele>
        <time>2022-07-23T13:50:26.000Z</time>
      </trkpt>
      <trkpt lat="44.09312" lon="6.99277">
        <ele>1409.4000244141</ele>
        <time>2022-07-23T13:50:28.000Z</time>
      </trkpt>
      <trkpt lat="44.09309" lon="6.99266">
        <ele>1409.8000488281</ele>
        <time>2022-07-23T13:50:31.000Z</time>
      </trkpt>
      <trkpt lat="44.09307" lon="6.99259">
        <ele>1410.1999511719</ele>
        <time>2022-07-23T13:50:33.000Z</time>
      </trkpt>
      <trkpt lat="44.09307" lon="6.99255">
        <ele>1410.4000244141</ele>
        <time>2022-07-23T13:50:34.000Z</time>
      </trkpt>
      <trkpt lat="44.09305" lon="6.99241">
        <ele>1411.4000244141</ele>
        <time>2022-07-23T13:50:38.000Z</time>
      </trkpt>
      <trkpt lat="44.09303" lon="6.9922">
        <ele>1412.1999511719</ele>
        <time>2022-07-23T13:50:44.000Z</time>
      </trkpt>
      <trkpt lat="44.09303" lon="6.99217">
        <ele>1412.4000244141</ele>
        <time>2022-07-23T13:50:45.000Z</time>
      </trkpt>
      <trkpt lat="44.09306" lon="6.99192">
        <ele>1413.4000244141</ele>
        <time>2022-07-23T13:50:52.000Z</time>
      </trkpt>
      <trkpt lat="44.09312" lon="6.9917">
        <ele>1414.5999755859</ele>
        <time>2022-07-23T13:50:59.000Z</time>
      </trkpt>
      <trkpt lat="44.09315" lon="6.9916">
        <ele>1415.1999511719</ele>
        <time>2022-07-23T13:51:02.000Z</time>
      </trkpt>
      <trkpt lat="44.09317" lon="6.99151">
        <ele>1415.8000488281</ele>
        <time>2022-07-23T13:51:05.000Z</time>
      </trkpt>
      <trkpt lat="44.09317" lon="6.9913">
        <ele>1416.8000488281</ele>
        <time>2022-07-23T13:51:11.000Z</time>
      </trkpt>
      <trkpt lat="44.09317" lon="6.99112">
        <ele>1417.8000488281</ele>
        <time>2022-07-23T13:51:16.000Z</time>
      </trkpt>
      <trkpt lat="44.09317" lon="6.99087">
        <ele>1419</ele>
        <time>2022-07-23T13:51:23.000Z</time>
      </trkpt>
      <trkpt lat="44.09317" lon="6.99083">
        <ele>1419</ele>
        <time>2022-07-23T13:51:24.000Z</time>
      </trkpt>
      <trkpt lat="44.09318" lon="6.99067">
        <ele>1420</ele>
        <time>2022-07-23T13:51:29.000Z</time>
      </trkpt>
      <trkpt lat="44.0932" lon="6.99054">
        <ele>1420.8000488281</ele>
        <time>2022-07-23T13:51:33.000Z</time>
      </trkpt>
      <trkpt lat="44.09321" lon="6.99051">
        <ele>1421</ele>
        <time>2022-07-23T13:51:34.000Z</time>
      </trkpt>
      <trkpt lat="44.0933" lon="6.99031">
        <ele>1422.1999511719</ele>
        <time>2022-07-23T13:51:41.000Z</time>
      </trkpt>
      <trkpt lat="44.09338" lon="6.99016">
        <ele>1423.4000244141</ele>
        <time>2022-07-23T13:51:46.000Z</time>
      </trkpt>
      <trkpt lat="44.09344" lon="6.99004">
        <ele>1424.1999511719</ele>
        <time>2022-07-23T13:51:50.000Z</time>
      </trkpt>
      <trkpt lat="44.09346" lon="6.99001">
        <ele>1424.4000244141</ele>
        <time>2022-07-23T13:51:51.000Z</time>
      </trkpt>
      <trkpt lat="44.09352" lon="6.98981">
        <ele>1425.5999755859</ele>
        <time>2022-07-23T13:51:57.000Z</time>
      </trkpt>
      <trkpt lat="44.09353" lon="6.98977">
        <ele>1425.8000488281</ele>
        <time>2022-07-23T13:51:58.000Z</time>
      </trkpt>
      <trkpt lat="44.09357" lon="6.98961">
        <ele>1426.5999755859</ele>
        <time>2022-07-23T13:52:03.000Z</time>
      </trkpt>
      <trkpt lat="44.09361" lon="6.98944">
        <ele>1427.8000488281</ele>
        <time>2022-07-23T13:52:08.000Z</time>
      </trkpt>
      <trkpt lat="44.09366" lon="6.98925">
        <ele>1428.8000488281</ele>
        <time>2022-07-23T13:52:14.000Z</time>
      </trkpt>
      <trkpt lat="44.09368" lon="6.98913">
        <ele>1429.5999755859</ele>
        <time>2022-07-23T13:52:18.000Z</time>
      </trkpt>
      <trkpt lat="44.0937" lon="6.98908">
        <ele>1429.8000488281</ele>
        <time>2022-07-23T13:52:20.000Z</time>
      </trkpt>
      <trkpt lat="44.09375" lon="6.98892">
        <ele>1429.5999755859</ele>
        <time>2022-07-23T13:52:25.000Z</time>
      </trkpt>
      <trkpt lat="44.09379" lon="6.98879">
        <ele>1431</ele>
        <time>2022-07-23T13:52:29.000Z</time>
      </trkpt>
      <trkpt lat="44.09383" lon="6.9887">
        <ele>1432.1999511719</ele>
        <time>2022-07-23T13:52:32.000Z</time>
      </trkpt>
      <trkpt lat="44.09385" lon="6.98865">
        <ele>1432.8000488281</ele>
        <time>2022-07-23T13:52:34.000Z</time>
      </trkpt>
      <trkpt lat="44.09391" lon="6.98853">
        <ele>1433.4000244141</ele>
        <time>2022-07-23T13:52:38.000Z</time>
      </trkpt>
      <trkpt lat="44.09399" lon="6.98836">
        <ele>1434.1999511719</ele>
        <time>2022-07-23T13:52:44.000Z</time>
      </trkpt>
      <trkpt lat="44.09401" lon="6.98834">
        <ele>1434.4000244141</ele>
        <time>2022-07-23T13:52:45.000Z</time>
      </trkpt>
      <trkpt lat="44.09412" lon="6.9882">
        <ele>1435.4000244141</ele>
        <time>2022-07-23T13:52:51.000Z</time>
      </trkpt>
      <trkpt lat="44.09414" lon="6.98818">
        <ele>1435.5999755859</ele>
        <time>2022-07-23T13:52:52.000Z</time>
      </trkpt>
      <trkpt lat="44.09424" lon="6.98807">
        <ele>1436.5999755859</ele>
        <time>2022-07-23T13:52:57.000Z</time>
      </trkpt>
      <trkpt lat="44.09437" lon="6.98791">
        <ele>1437.1999511719</ele>
        <time>2022-07-23T13:53:03.000Z</time>
      </trkpt>
      <trkpt lat="44.09444" lon="6.98784">
        <ele>1437.5999755859</ele>
        <time>2022-07-23T13:53:06.000Z</time>
      </trkpt>
      <trkpt lat="44.09456" lon="6.98769">
        <ele>1438.4000244141</ele>
        <time>2022-07-23T13:53:12.000Z</time>
      </trkpt>
      <trkpt lat="44.09458" lon="6.98767">
        <ele>1438.5999755859</ele>
        <time>2022-07-23T13:53:13.000Z</time>
      </trkpt>
      <trkpt lat="44.09465" lon="6.9875">
        <ele>1439.5999755859</ele>
        <time>2022-07-23T13:53:18.000Z</time>
      </trkpt>
      <trkpt lat="44.09467" lon="6.98743">
        <ele>1440</ele>
        <time>2022-07-23T13:53:20.000Z</time>
      </trkpt>
      <trkpt lat="44.0947" lon="6.98731">
        <ele>1440.8000488281</ele>
        <time>2022-07-23T13:53:23.000Z</time>
      </trkpt>
      <trkpt lat="44.09471" lon="6.98715">
        <ele>1441.4000244141</ele>
        <time>2022-07-23T13:53:27.000Z</time>
      </trkpt>
      <trkpt lat="44.09471" lon="6.98702">
        <ele>1441.8000488281</ele>
        <time>2022-07-23T13:53:30.000Z</time>
      </trkpt>
      <trkpt lat="44.09475" lon="6.98671">
        <ele>1442.4000244141</ele>
        <time>2022-07-23T13:53:37.000Z</time>
      </trkpt>
      <trkpt lat="44.09488" lon="6.98654">
        <ele>1443</ele>
        <time>2022-07-23T13:53:43.000Z</time>
      </trkpt>
      <trkpt lat="44.09503" lon="6.98645">
        <ele>1444</ele>
        <time>2022-07-23T13:53:49.000Z</time>
      </trkpt>
      <trkpt lat="44.0951" lon="6.9864">
        <ele>1444.8000488281</ele>
        <time>2022-07-23T13:53:52.000Z</time>
      </trkpt>
      <trkpt lat="44.09514" lon="6.98637">
        <ele>1445.1999511719</ele>
        <time>2022-07-23T13:53:54.000Z</time>
      </trkpt>
      <trkpt lat="44.09528" lon="6.98626">
        <ele>1446.4000244141</ele>
        <time>2022-07-23T13:54:00.000Z</time>
      </trkpt>
      <trkpt lat="44.09535" lon="6.9862">
        <ele>1446.8000488281</ele>
        <time>2022-07-23T13:54:03.000Z</time>
      </trkpt>
      <trkpt lat="44.09544" lon="6.98612">
        <ele>1447.4000244141</ele>
        <time>2022-07-23T13:54:07.000Z</time>
      </trkpt>
      <trkpt lat="44.09558" lon="6.98601">
        <ele>1448.1999511719</ele>
        <time>2022-07-23T13:54:13.000Z</time>
      </trkpt>
      <trkpt lat="44.09563" lon="6.98598">
        <ele>1448.4000244141</ele>
        <time>2022-07-23T13:54:15.000Z</time>
      </trkpt>
      <trkpt lat="44.09579" lon="6.98584">
        <ele>1449.5999755859</ele>
        <time>2022-07-23T13:54:22.000Z</time>
      </trkpt>
      <trkpt lat="44.09597" lon="6.9857">
        <ele>1450.5999755859</ele>
        <time>2022-07-23T13:54:30.000Z</time>
      </trkpt>
      <trkpt lat="44.096" lon="6.9857">
        <ele>1450.8000488281</ele>
        <time>2022-07-23T13:54:31.000Z</time>
      </trkpt>
      <trkpt lat="44.09608" lon="6.98574">
        <ele>1451.4000244141</ele>
        <time>2022-07-23T13:54:34.000Z</time>
      </trkpt>
      <trkpt lat="44.09612" lon="6.98584">
        <ele>1452.1999511719</ele>
        <time>2022-07-23T13:54:37.000Z</time>
      </trkpt>
      <trkpt lat="44.09612" lon="6.98588">
        <ele>1452.4000244141</ele>
        <time>2022-07-23T13:54:38.000Z</time>
      </trkpt>
      <trkpt lat="44.09609" lon="6.98599">
        <ele>1453.1999511719</ele>
        <time>2022-07-23T13:54:41.000Z</time>
      </trkpt>
      <trkpt lat="44.09607" lon="6.98602">
        <ele>1453.4000244141</ele>
        <time>2022-07-23T13:54:42.000Z</time>
      </trkpt>
      <trkpt lat="44.09602" lon="6.98611">
        <ele>1454</ele>
        <time>2022-07-23T13:54:45.000Z</time>
      </trkpt>
      <trkpt lat="44.09602" lon="6.98615">
        <ele>1454.1999511719</ele>
        <time>2022-07-23T13:54:46.000Z</time>
      </trkpt>
      <trkpt lat="44.09602" lon="6.98619">
        <ele>1454.4000244141</ele>
        <time>2022-07-23T13:54:47.000Z</time>
      </trkpt>
      <trkpt lat="44.09607" lon="6.98623">
        <ele>1454.5999755859</ele>
        <time>2022-07-23T13:54:50.000Z</time>
      </trkpt>
      <trkpt lat="44.09616" lon="6.98616">
        <ele>1455.1999511719</ele>
        <time>2022-07-23T13:54:54.000Z</time>
      </trkpt>
      <trkpt lat="44.09617" lon="6.98614">
        <ele>1455.1999511719</ele>
        <time>2022-07-23T13:54:55.000Z</time>
      </trkpt>
      <trkpt lat="44.09619" lon="6.98612">
        <ele>1455.1999511719</ele>
        <time>2022-07-23T13:54:58.000Z</time>
      </trkpt>
      <trkpt lat="44.09619" lon="6.98612">
        <ele>1455.4000244141</ele>
        <time>2022-07-23T13:55:00.000Z</time>
      </trkpt>
      <trkpt lat="44.09619" lon="6.98612">
        <ele>1455.1999511719</ele>
        <time>2022-07-23T13:55:17.000Z</time>
      </trkpt>
      <trkpt lat="44.09621" lon="6.98613">
        <ele>1454.8000488281</ele>
        <time>2022-07-23T13:55:31.000Z</time>
      </trkpt>
      <trkpt lat="44.09622" lon="6.98612">
        <ele>1454.8000488281</ele>
        <time>2022-07-23T13:55:38.000Z</time>
      </trkpt>
      <trkpt lat="44.09622" lon="6.98612">
        <ele>1455.4000244141</ele>
        <time>2022-07-23T13:55:45.000Z</time>
      </trkpt>
      <trkpt lat="44.09622" lon="6.98612">
        <ele>1455.8000488281</ele>
        <time>2022-07-23T13:55:57.000Z</time>
      </trkpt>
      <trkpt lat="44.09622" lon="6.98613">
        <ele>1454.8000488281</ele>
        <time>2022-07-23T13:56:05.000Z</time>
      </trkpt>
      <trkpt lat="44.0962" lon="6.98612">
        <ele>1455</ele>
        <time>2022-07-23T13:56:14.000Z</time>
      </trkpt>
      <trkpt lat="44.0962" lon="6.98612">
        <ele>1455.1999511719</ele>
        <time>2022-07-23T13:56:24.000Z</time>
      </trkpt>
      <trkpt lat="44.0962" lon="6.98611">
        <ele>1455.4000244141</ele>
        <time>2022-07-23T13:56:42.000Z</time>
      </trkpt>
      <trkpt lat="44.09621" lon="6.98611">
        <ele>1455.5999755859</ele>
        <time>2022-07-23T13:56:58.000Z</time>
      </trkpt>
      <trkpt lat="44.0962" lon="6.98611">
        <ele>1455.1999511719</ele>
        <time>2022-07-23T13:57:07.000Z</time>
      </trkpt>
      <trkpt lat="44.0962" lon="6.9861">
        <ele>1455.1999511719</ele>
        <time>2022-07-23T13:57:19.000Z</time>
      </trkpt>
      <trkpt lat="44.0962" lon="6.9861">
        <ele>1455.8000488281</ele>
        <time>2022-07-23T13:57:28.000Z</time>
      </trkpt>
      <trkpt lat="44.0962" lon="6.98611">
        <ele>1455.5999755859</ele>
        <time>2022-07-23T13:57:49.000Z</time>
      </trkpt>
    </trkseg>
  </trk>
</gpx>